<?xml version="1.0" encoding="UTF-8" standalone="no" ?>
<gpx xmlns="http://www.topografix.com/GPX/1/1" xmlns:xsi="http://www.w3.org/2001/XMLSchema-instance" xsi:schemaLocation="http://www.topografix.com/GPX/1/1 http://www.topografix.com/GPX/1/1/gpx.xsd" version="1.1" creator="VisuGPX - https://www.visugpx.com">
  <metadata>
    <name>TV 2018 D13 MAI</name>
    <desc><![CDATA[TV 2018 TRACE REELLE DU Dimanche 13 Mai
]]></desc>
  </metadata>
  <trk>
    <name><![CDATA[20180519183555-BwMCN]]></name>
    <trkseg>
      <trkpt lat="44.07072" lon="7.22333">
        <ele>1508</ele>
        <time>2018-05-13T05:00:17.000Z</time>
      </trkpt>
      <trkpt lat="44.07072" lon="7.22334">
        <ele>1505</ele>
        <time>2018-05-13T05:00:23.000Z</time>
      </trkpt>
      <trkpt lat="44.07072" lon="7.22335">
        <ele>1505</ele>
        <time>2018-05-13T05:00:30.000Z</time>
      </trkpt>
      <trkpt lat="44.07068" lon="7.2234">
        <ele>1506</ele>
        <time>2018-05-13T05:00:35.000Z</time>
      </trkpt>
      <trkpt lat="44.07062" lon="7.22361">
        <ele>1508</ele>
        <time>2018-05-13T05:00:40.000Z</time>
      </trkpt>
      <trkpt lat="44.07054" lon="7.22389">
        <ele>1507</ele>
        <time>2018-05-13T05:00:45.000Z</time>
      </trkpt>
      <trkpt lat="44.07052" lon="7.22395">
        <ele>1507</ele>
        <time>2018-05-13T05:00:46.000Z</time>
      </trkpt>
      <trkpt lat="44.07049" lon="7.22406">
        <ele>1507</ele>
        <time>2018-05-13T05:00:48.000Z</time>
      </trkpt>
      <trkpt lat="44.07046" lon="7.22411">
        <ele>1507</ele>
        <time>2018-05-13T05:00:49.000Z</time>
      </trkpt>
      <trkpt lat="44.07044" lon="7.22414">
        <ele>1507</ele>
        <time>2018-05-13T05:00:50.000Z</time>
      </trkpt>
      <trkpt lat="44.07041" lon="7.2242">
        <ele>1501</ele>
        <time>2018-05-13T05:00:52.000Z</time>
      </trkpt>
      <trkpt lat="44.07039" lon="7.22422">
        <ele>1501</ele>
        <time>2018-05-13T05:00:54.000Z</time>
      </trkpt>
      <trkpt lat="44.07038" lon="7.22424">
        <ele>1502</ele>
        <time>2018-05-13T05:00:56.000Z</time>
      </trkpt>
      <trkpt lat="44.07037" lon="7.22433">
        <ele>1501</ele>
        <time>2018-05-13T05:00:59.000Z</time>
      </trkpt>
      <trkpt lat="44.07039" lon="7.22444">
        <ele>1500</ele>
        <time>2018-05-13T05:01:01.000Z</time>
      </trkpt>
      <trkpt lat="44.07042" lon="7.22451">
        <ele>1500</ele>
        <time>2018-05-13T05:01:02.000Z</time>
      </trkpt>
      <trkpt lat="44.0705" lon="7.22463">
        <ele>1498</ele>
        <time>2018-05-13T05:01:04.000Z</time>
      </trkpt>
      <trkpt lat="44.07051" lon="7.22469">
        <ele>1498</ele>
        <time>2018-05-13T05:01:05.000Z</time>
      </trkpt>
      <trkpt lat="44.07051" lon="7.22475">
        <ele>1497</ele>
        <time>2018-05-13T05:01:06.000Z</time>
      </trkpt>
      <trkpt lat="44.0705" lon="7.22481">
        <ele>1497</ele>
        <time>2018-05-13T05:01:07.000Z</time>
      </trkpt>
      <trkpt lat="44.07044" lon="7.22488">
        <ele>1497</ele>
        <time>2018-05-13T05:01:09.000Z</time>
      </trkpt>
      <trkpt lat="44.0704" lon="7.22489">
        <ele>1498</ele>
        <time>2018-05-13T05:01:10.000Z</time>
      </trkpt>
      <trkpt lat="44.07032" lon="7.22493">
        <ele>1498</ele>
        <time>2018-05-13T05:01:12.000Z</time>
      </trkpt>
      <trkpt lat="44.07028" lon="7.22494">
        <ele>1498</ele>
        <time>2018-05-13T05:01:13.000Z</time>
      </trkpt>
      <trkpt lat="44.07025" lon="7.22496">
        <ele>1499</ele>
        <time>2018-05-13T05:01:14.000Z</time>
      </trkpt>
      <trkpt lat="44.0702" lon="7.22506">
        <ele>1493</ele>
        <time>2018-05-13T05:01:17.000Z</time>
      </trkpt>
      <trkpt lat="44.0702" lon="7.22517">
        <ele>1491</ele>
        <time>2018-05-13T05:01:19.000Z</time>
      </trkpt>
      <trkpt lat="44.07023" lon="7.22523">
        <ele>1490</ele>
        <time>2018-05-13T05:01:20.000Z</time>
      </trkpt>
      <trkpt lat="44.07027" lon="7.22532">
        <ele>1489</ele>
        <time>2018-05-13T05:01:21.000Z</time>
      </trkpt>
      <trkpt lat="44.07033" lon="7.22549">
        <ele>1487</ele>
        <time>2018-05-13T05:01:23.000Z</time>
      </trkpt>
      <trkpt lat="44.07034" lon="7.22558">
        <ele>1486</ele>
        <time>2018-05-13T05:01:24.000Z</time>
      </trkpt>
      <trkpt lat="44.07033" lon="7.22567">
        <ele>1486</ele>
        <time>2018-05-13T05:01:25.000Z</time>
      </trkpt>
      <trkpt lat="44.07031" lon="7.22576">
        <ele>1485</ele>
        <time>2018-05-13T05:01:26.000Z</time>
      </trkpt>
      <trkpt lat="44.07027" lon="7.22582">
        <ele>1485</ele>
        <time>2018-05-13T05:01:27.000Z</time>
      </trkpt>
      <trkpt lat="44.07017" lon="7.22591">
        <ele>1478</ele>
        <time>2018-05-13T05:01:29.000Z</time>
      </trkpt>
      <trkpt lat="44.07013" lon="7.22594">
        <ele>1478</ele>
        <time>2018-05-13T05:01:30.000Z</time>
      </trkpt>
      <trkpt lat="44.07008" lon="7.22596">
        <ele>1478</ele>
        <time>2018-05-13T05:01:31.000Z</time>
      </trkpt>
      <trkpt lat="44.07004" lon="7.22598">
        <ele>1478</ele>
        <time>2018-05-13T05:01:33.000Z</time>
      </trkpt>
      <trkpt lat="44.07007" lon="7.2261">
        <ele>1477</ele>
        <time>2018-05-13T05:01:36.000Z</time>
      </trkpt>
      <trkpt lat="44.07015" lon="7.22623">
        <ele>1476</ele>
        <time>2018-05-13T05:01:38.000Z</time>
      </trkpt>
      <trkpt lat="44.07017" lon="7.2263">
        <ele>1476</ele>
        <time>2018-05-13T05:01:39.000Z</time>
      </trkpt>
      <trkpt lat="44.07016" lon="7.22638">
        <ele>1475</ele>
        <time>2018-05-13T05:01:40.000Z</time>
      </trkpt>
      <trkpt lat="44.0701" lon="7.22652">
        <ele>1473</ele>
        <time>2018-05-13T05:01:42.000Z</time>
      </trkpt>
      <trkpt lat="44.07005" lon="7.22657">
        <ele>1471</ele>
        <time>2018-05-13T05:01:43.000Z</time>
      </trkpt>
      <trkpt lat="44.07" lon="7.22659">
        <ele>1470</ele>
        <time>2018-05-13T05:01:44.000Z</time>
      </trkpt>
      <trkpt lat="44.06996" lon="7.22661">
        <ele>1472</ele>
        <time>2018-05-13T05:01:45.000Z</time>
      </trkpt>
      <trkpt lat="44.06991" lon="7.22664">
        <ele>1473</ele>
        <time>2018-05-13T05:01:46.000Z</time>
      </trkpt>
      <trkpt lat="44.06987" lon="7.22668">
        <ele>1469</ele>
        <time>2018-05-13T05:01:47.000Z</time>
      </trkpt>
      <trkpt lat="44.0698" lon="7.22683">
        <ele>1469</ele>
        <time>2018-05-13T05:01:49.000Z</time>
      </trkpt>
      <trkpt lat="44.06977" lon="7.2269">
        <ele>1469</ele>
        <time>2018-05-13T05:01:50.000Z</time>
      </trkpt>
      <trkpt lat="44.06968" lon="7.22707">
        <ele>1469</ele>
        <time>2018-05-13T05:01:52.000Z</time>
      </trkpt>
      <trkpt lat="44.06964" lon="7.22715">
        <ele>1468</ele>
        <time>2018-05-13T05:01:53.000Z</time>
      </trkpt>
      <trkpt lat="44.06962" lon="7.22723">
        <ele>1468</ele>
        <time>2018-05-13T05:01:54.000Z</time>
      </trkpt>
      <trkpt lat="44.06955" lon="7.22742">
        <ele>1467</ele>
        <time>2018-05-13T05:01:56.000Z</time>
      </trkpt>
      <trkpt lat="44.06951" lon="7.22752">
        <ele>1457</ele>
        <time>2018-05-13T05:01:57.000Z</time>
      </trkpt>
      <trkpt lat="44.06947" lon="7.2276">
        <ele>1457</ele>
        <time>2018-05-13T05:01:58.000Z</time>
      </trkpt>
      <trkpt lat="44.06939" lon="7.22778">
        <ele>1456</ele>
        <time>2018-05-13T05:02:00.000Z</time>
      </trkpt>
      <trkpt lat="44.06935" lon="7.22787">
        <ele>1454</ele>
        <time>2018-05-13T05:02:01.000Z</time>
      </trkpt>
      <trkpt lat="44.0693" lon="7.22796">
        <ele>1453</ele>
        <time>2018-05-13T05:02:02.000Z</time>
      </trkpt>
      <trkpt lat="44.06925" lon="7.22805">
        <ele>1451</ele>
        <time>2018-05-13T05:02:03.000Z</time>
      </trkpt>
      <trkpt lat="44.0692" lon="7.22815">
        <ele>1448</ele>
        <time>2018-05-13T05:02:04.000Z</time>
      </trkpt>
      <trkpt lat="44.06916" lon="7.22822">
        <ele>1446</ele>
        <time>2018-05-13T05:02:05.000Z</time>
      </trkpt>
      <trkpt lat="44.06912" lon="7.22829">
        <ele>1443</ele>
        <time>2018-05-13T05:02:06.000Z</time>
      </trkpt>
      <trkpt lat="44.06907" lon="7.22837">
        <ele>1439</ele>
        <time>2018-05-13T05:02:07.000Z</time>
      </trkpt>
      <trkpt lat="44.06897" lon="7.22848">
        <ele>1438</ele>
        <time>2018-05-13T05:02:09.000Z</time>
      </trkpt>
      <trkpt lat="44.06891" lon="7.22851">
        <ele>1438</ele>
        <time>2018-05-13T05:02:10.000Z</time>
      </trkpt>
      <trkpt lat="44.06884" lon="7.22854">
        <ele>1438</ele>
        <time>2018-05-13T05:02:11.000Z</time>
      </trkpt>
      <trkpt lat="44.0687" lon="7.22855">
        <ele>1438</ele>
        <time>2018-05-13T05:02:13.000Z</time>
      </trkpt>
      <trkpt lat="44.06864" lon="7.22855">
        <ele>1438</ele>
        <time>2018-05-13T05:02:14.000Z</time>
      </trkpt>
      <trkpt lat="44.06859" lon="7.22856">
        <ele>1439</ele>
        <time>2018-05-13T05:02:15.000Z</time>
      </trkpt>
      <trkpt lat="44.06839" lon="7.22858">
        <ele>1439</ele>
        <time>2018-05-13T05:02:19.000Z</time>
      </trkpt>
      <trkpt lat="44.06835" lon="7.22859">
        <ele>1439</ele>
        <time>2018-05-13T05:02:20.000Z</time>
      </trkpt>
      <trkpt lat="44.06822" lon="7.22862">
        <ele>1443</ele>
        <time>2018-05-13T05:02:23.000Z</time>
      </trkpt>
      <trkpt lat="44.06807" lon="7.22863">
        <ele>1444</ele>
        <time>2018-05-13T05:02:27.000Z</time>
      </trkpt>
      <trkpt lat="44.06791" lon="7.22862">
        <ele>1445</ele>
        <time>2018-05-13T05:02:32.000Z</time>
      </trkpt>
      <trkpt lat="44.06787" lon="7.22862">
        <ele>1446</ele>
        <time>2018-05-13T05:02:33.000Z</time>
      </trkpt>
      <trkpt lat="44.06776" lon="7.22857">
        <ele>1447</ele>
        <time>2018-05-13T05:02:37.000Z</time>
      </trkpt>
      <trkpt lat="44.06763" lon="7.22852">
        <ele>1448</ele>
        <time>2018-05-13T05:02:41.000Z</time>
      </trkpt>
      <trkpt lat="44.06748" lon="7.22845">
        <ele>1454</ele>
        <time>2018-05-13T05:02:46.000Z</time>
      </trkpt>
      <trkpt lat="44.0674" lon="7.22841">
        <ele>1455</ele>
        <time>2018-05-13T05:02:49.000Z</time>
      </trkpt>
      <trkpt lat="44.06735" lon="7.22838">
        <ele>1455</ele>
        <time>2018-05-13T05:02:51.000Z</time>
      </trkpt>
      <trkpt lat="44.0672" lon="7.2283">
        <ele>1461</ele>
        <time>2018-05-13T05:02:57.000Z</time>
      </trkpt>
      <trkpt lat="44.06715" lon="7.22827">
        <ele>1462</ele>
        <time>2018-05-13T05:02:59.000Z</time>
      </trkpt>
      <trkpt lat="44.06708" lon="7.22823">
        <ele>1462</ele>
        <time>2018-05-13T05:03:02.000Z</time>
      </trkpt>
      <trkpt lat="44.06699" lon="7.22818">
        <ele>1463</ele>
        <time>2018-05-13T05:03:06.000Z</time>
      </trkpt>
      <trkpt lat="44.06697" lon="7.22816">
        <ele>1463</ele>
        <time>2018-05-13T05:03:07.000Z</time>
      </trkpt>
      <trkpt lat="44.06688" lon="7.22811">
        <ele>1463</ele>
        <time>2018-05-13T05:03:11.000Z</time>
      </trkpt>
      <trkpt lat="44.06682" lon="7.22807">
        <ele>1464</ele>
        <time>2018-05-13T05:03:14.000Z</time>
      </trkpt>
      <trkpt lat="44.06678" lon="7.22805">
        <ele>1464</ele>
        <time>2018-05-13T05:03:16.000Z</time>
      </trkpt>
      <trkpt lat="44.06669" lon="7.228">
        <ele>1465</ele>
        <time>2018-05-13T05:03:21.000Z</time>
      </trkpt>
      <trkpt lat="44.06667" lon="7.22799">
        <ele>1465</ele>
        <time>2018-05-13T05:03:22.000Z</time>
      </trkpt>
      <trkpt lat="44.06659" lon="7.22796">
        <ele>1468</ele>
        <time>2018-05-13T05:03:26.000Z</time>
      </trkpt>
      <trkpt lat="44.06652" lon="7.22792">
        <ele>1469</ele>
        <time>2018-05-13T05:03:30.000Z</time>
      </trkpt>
      <trkpt lat="44.0665" lon="7.22791">
        <ele>1469</ele>
        <time>2018-05-13T05:03:31.000Z</time>
      </trkpt>
      <trkpt lat="44.06642" lon="7.22786">
        <ele>1470</ele>
        <time>2018-05-13T05:03:36.000Z</time>
      </trkpt>
      <trkpt lat="44.06636" lon="7.22783">
        <ele>1470</ele>
        <time>2018-05-13T05:03:39.000Z</time>
      </trkpt>
      <trkpt lat="44.06634" lon="7.22782">
        <ele>1470</ele>
        <time>2018-05-13T05:03:41.000Z</time>
      </trkpt>
      <trkpt lat="44.06628" lon="7.22778">
        <ele>1470</ele>
        <time>2018-05-13T05:03:45.000Z</time>
      </trkpt>
      <trkpt lat="44.06627" lon="7.22777">
        <ele>1470</ele>
        <time>2018-05-13T05:03:46.000Z</time>
      </trkpt>
      <trkpt lat="44.06622" lon="7.22773">
        <ele>1470</ele>
        <time>2018-05-13T05:03:51.000Z</time>
      </trkpt>
      <trkpt lat="44.0662" lon="7.22772">
        <ele>1470</ele>
        <time>2018-05-13T05:03:52.000Z</time>
      </trkpt>
      <trkpt lat="44.06616" lon="7.22768">
        <ele>1470</ele>
        <time>2018-05-13T05:03:56.000Z</time>
      </trkpt>
      <trkpt lat="44.06613" lon="7.22766">
        <ele>1470</ele>
        <time>2018-05-13T05:03:59.000Z</time>
      </trkpt>
      <trkpt lat="44.06612" lon="7.22765">
        <ele>1470</ele>
        <time>2018-05-13T05:04:00.000Z</time>
      </trkpt>
      <trkpt lat="44.06607" lon="7.22761">
        <ele>1470</ele>
        <time>2018-05-13T05:04:05.000Z</time>
      </trkpt>
      <trkpt lat="44.06605" lon="7.22759">
        <ele>1470</ele>
        <time>2018-05-13T05:04:07.000Z</time>
      </trkpt>
      <trkpt lat="44.06601" lon="7.22757">
        <ele>1470</ele>
        <time>2018-05-13T05:04:10.000Z</time>
      </trkpt>
      <trkpt lat="44.06596" lon="7.22755">
        <ele>1470</ele>
        <time>2018-05-13T05:04:14.000Z</time>
      </trkpt>
      <trkpt lat="44.06595" lon="7.22754">
        <ele>1470</ele>
        <time>2018-05-13T05:04:15.000Z</time>
      </trkpt>
      <trkpt lat="44.06588" lon="7.2275">
        <ele>1469</ele>
        <time>2018-05-13T05:04:21.000Z</time>
      </trkpt>
      <trkpt lat="44.06587" lon="7.22749">
        <ele>1471</ele>
        <time>2018-05-13T05:04:22.000Z</time>
      </trkpt>
      <trkpt lat="44.06583" lon="7.22747">
        <ele>1470</ele>
        <time>2018-05-13T05:04:26.000Z</time>
      </trkpt>
      <trkpt lat="44.06578" lon="7.22746">
        <ele>1472</ele>
        <time>2018-05-13T05:04:30.000Z</time>
      </trkpt>
      <trkpt lat="44.06573" lon="7.22742">
        <ele>1473</ele>
        <time>2018-05-13T05:04:35.000Z</time>
      </trkpt>
      <trkpt lat="44.0657" lon="7.22741">
        <ele>1474</ele>
        <time>2018-05-13T05:04:37.000Z</time>
      </trkpt>
      <trkpt lat="44.06565" lon="7.22739">
        <ele>1475</ele>
        <time>2018-05-13T05:04:41.000Z</time>
      </trkpt>
      <trkpt lat="44.06563" lon="7.22738">
        <ele>1476</ele>
        <time>2018-05-13T05:04:43.000Z</time>
      </trkpt>
      <trkpt lat="44.0656" lon="7.22735">
        <ele>1476</ele>
        <time>2018-05-13T05:04:46.000Z</time>
      </trkpt>
      <trkpt lat="44.06555" lon="7.22731">
        <ele>1477</ele>
        <time>2018-05-13T05:04:50.000Z</time>
      </trkpt>
      <trkpt lat="44.06554" lon="7.22729">
        <ele>1477</ele>
        <time>2018-05-13T05:04:51.000Z</time>
      </trkpt>
      <trkpt lat="44.0655" lon="7.22723">
        <ele>1478</ele>
        <time>2018-05-13T05:04:56.000Z</time>
      </trkpt>
      <trkpt lat="44.06542" lon="7.22706">
        <ele>1479</ele>
        <time>2018-05-13T05:05:04.000Z</time>
      </trkpt>
      <trkpt lat="44.06533" lon="7.22691">
        <ele>1479</ele>
        <time>2018-05-13T05:05:11.000Z</time>
      </trkpt>
      <trkpt lat="44.06527" lon="7.22682">
        <ele>1479</ele>
        <time>2018-05-13T05:05:15.000Z</time>
      </trkpt>
      <trkpt lat="44.06521" lon="7.22673">
        <ele>1478</ele>
        <time>2018-05-13T05:05:19.000Z</time>
      </trkpt>
      <trkpt lat="44.0651" lon="7.22657">
        <ele>1482</ele>
        <time>2018-05-13T05:05:26.000Z</time>
      </trkpt>
      <trkpt lat="44.06509" lon="7.22655">
        <ele>1482</ele>
        <time>2018-05-13T05:05:27.000Z</time>
      </trkpt>
      <trkpt lat="44.06498" lon="7.22635">
        <ele>1485</ele>
        <time>2018-05-13T05:05:35.000Z</time>
      </trkpt>
      <trkpt lat="44.06496" lon="7.22629">
        <ele>1486</ele>
        <time>2018-05-13T05:05:38.000Z</time>
      </trkpt>
      <trkpt lat="44.06493" lon="7.22621">
        <ele>1487</ele>
        <time>2018-05-13T05:05:42.000Z</time>
      </trkpt>
      <trkpt lat="44.06491" lon="7.22617">
        <ele>1487</ele>
        <time>2018-05-13T05:05:44.000Z</time>
      </trkpt>
      <trkpt lat="44.06491" lon="7.22616">
        <ele>1488</ele>
        <time>2018-05-13T05:05:45.000Z</time>
      </trkpt>
      <trkpt lat="44.06489" lon="7.22611">
        <ele>1488</ele>
        <time>2018-05-13T05:05:48.000Z</time>
      </trkpt>
      <trkpt lat="44.06488" lon="7.22607">
        <ele>1488</ele>
        <time>2018-05-13T05:05:51.000Z</time>
      </trkpt>
      <trkpt lat="44.06487" lon="7.22605">
        <ele>1488</ele>
        <time>2018-05-13T05:05:52.000Z</time>
      </trkpt>
      <trkpt lat="44.06485" lon="7.226">
        <ele>1488</ele>
        <time>2018-05-13T05:05:56.000Z</time>
      </trkpt>
      <trkpt lat="44.06483" lon="7.22594">
        <ele>1489</ele>
        <time>2018-05-13T05:06:00.000Z</time>
      </trkpt>
      <trkpt lat="44.06481" lon="7.2259">
        <ele>1489</ele>
        <time>2018-05-13T05:06:03.000Z</time>
      </trkpt>
      <trkpt lat="44.0648" lon="7.22588">
        <ele>1489</ele>
        <time>2018-05-13T05:06:04.000Z</time>
      </trkpt>
      <trkpt lat="44.06478" lon="7.22583">
        <ele>1495</ele>
        <time>2018-05-13T05:06:08.000Z</time>
      </trkpt>
      <trkpt lat="44.06477" lon="7.2258">
        <ele>1495</ele>
        <time>2018-05-13T05:06:10.000Z</time>
      </trkpt>
      <trkpt lat="44.06475" lon="7.22577">
        <ele>1495</ele>
        <time>2018-05-13T05:06:13.000Z</time>
      </trkpt>
      <trkpt lat="44.06474" lon="7.22575">
        <ele>1496</ele>
        <time>2018-05-13T05:06:15.000Z</time>
      </trkpt>
      <trkpt lat="44.06471" lon="7.22571">
        <ele>1496</ele>
        <time>2018-05-13T05:06:18.000Z</time>
      </trkpt>
      <trkpt lat="44.06469" lon="7.22564">
        <ele>1497</ele>
        <time>2018-05-13T05:06:23.000Z</time>
      </trkpt>
      <trkpt lat="44.06465" lon="7.22558">
        <ele>1498</ele>
        <time>2018-05-13T05:06:28.000Z</time>
      </trkpt>
      <trkpt lat="44.06464" lon="7.22554">
        <ele>1498</ele>
        <time>2018-05-13T05:06:31.000Z</time>
      </trkpt>
      <trkpt lat="44.06463" lon="7.22551">
        <ele>1499</ele>
        <time>2018-05-13T05:06:33.000Z</time>
      </trkpt>
      <trkpt lat="44.06462" lon="7.22543">
        <ele>1500</ele>
        <time>2018-05-13T05:06:37.000Z</time>
      </trkpt>
      <trkpt lat="44.06462" lon="7.2254">
        <ele>1500</ele>
        <time>2018-05-13T05:06:39.000Z</time>
      </trkpt>
      <trkpt lat="44.06461" lon="7.22532">
        <ele>1501</ele>
        <time>2018-05-13T05:06:43.000Z</time>
      </trkpt>
      <trkpt lat="44.06461" lon="7.22529">
        <ele>1501</ele>
        <time>2018-05-13T05:06:45.000Z</time>
      </trkpt>
      <trkpt lat="44.06459" lon="7.22519">
        <ele>1502</ele>
        <time>2018-05-13T05:06:50.000Z</time>
      </trkpt>
      <trkpt lat="44.06459" lon="7.22515">
        <ele>1502</ele>
        <time>2018-05-13T05:06:52.000Z</time>
      </trkpt>
      <trkpt lat="44.06458" lon="7.22513">
        <ele>1502</ele>
        <time>2018-05-13T05:06:53.000Z</time>
      </trkpt>
      <trkpt lat="44.06455" lon="7.22506">
        <ele>1502</ele>
        <time>2018-05-13T05:06:57.000Z</time>
      </trkpt>
      <trkpt lat="44.06453" lon="7.22503">
        <ele>1502</ele>
        <time>2018-05-13T05:06:59.000Z</time>
      </trkpt>
      <trkpt lat="44.06448" lon="7.22495">
        <ele>1511</ele>
        <time>2018-05-13T05:07:04.000Z</time>
      </trkpt>
      <trkpt lat="44.06447" lon="7.22493">
        <ele>1511</ele>
        <time>2018-05-13T05:07:05.000Z</time>
      </trkpt>
      <trkpt lat="44.06441" lon="7.22484">
        <ele>1511</ele>
        <time>2018-05-13T05:07:11.000Z</time>
      </trkpt>
      <trkpt lat="44.0644" lon="7.22483">
        <ele>1511</ele>
        <time>2018-05-13T05:07:12.000Z</time>
      </trkpt>
      <trkpt lat="44.06436" lon="7.22473">
        <ele>1512</ele>
        <time>2018-05-13T05:07:18.000Z</time>
      </trkpt>
      <trkpt lat="44.0643" lon="7.22463">
        <ele>1513</ele>
        <time>2018-05-13T05:07:25.000Z</time>
      </trkpt>
      <trkpt lat="44.06425" lon="7.22453">
        <ele>1513</ele>
        <time>2018-05-13T05:07:31.000Z</time>
      </trkpt>
      <trkpt lat="44.06424" lon="7.2245">
        <ele>1513</ele>
        <time>2018-05-13T05:07:33.000Z</time>
      </trkpt>
      <trkpt lat="44.06421" lon="7.22443">
        <ele>1514</ele>
        <time>2018-05-13T05:07:37.000Z</time>
      </trkpt>
      <trkpt lat="44.06419" lon="7.2244">
        <ele>1514</ele>
        <time>2018-05-13T05:07:39.000Z</time>
      </trkpt>
      <trkpt lat="44.06417" lon="7.22435">
        <ele>1514</ele>
        <time>2018-05-13T05:07:42.000Z</time>
      </trkpt>
      <trkpt lat="44.06414" lon="7.22424">
        <ele>1514</ele>
        <time>2018-05-13T05:07:48.000Z</time>
      </trkpt>
      <trkpt lat="44.06412" lon="7.22413">
        <ele>1517</ele>
        <time>2018-05-13T05:07:54.000Z</time>
      </trkpt>
      <trkpt lat="44.06411" lon="7.22409">
        <ele>1518</ele>
        <time>2018-05-13T05:07:56.000Z</time>
      </trkpt>
      <trkpt lat="44.0641" lon="7.22405">
        <ele>1520</ele>
        <time>2018-05-13T05:07:59.000Z</time>
      </trkpt>
      <trkpt lat="44.06407" lon="7.22399">
        <ele>1522</ele>
        <time>2018-05-13T05:08:03.000Z</time>
      </trkpt>
      <trkpt lat="44.06407" lon="7.22398">
        <ele>1522</ele>
        <time>2018-05-13T05:08:04.000Z</time>
      </trkpt>
      <trkpt lat="44.06405" lon="7.22391">
        <ele>1524</ele>
        <time>2018-05-13T05:08:09.000Z</time>
      </trkpt>
      <trkpt lat="44.06404" lon="7.2239">
        <ele>1524</ele>
        <time>2018-05-13T05:08:10.000Z</time>
      </trkpt>
      <trkpt lat="44.06403" lon="7.22383">
        <ele>1526</ele>
        <time>2018-05-13T05:08:15.000Z</time>
      </trkpt>
      <trkpt lat="44.06402" lon="7.22379">
        <ele>1526</ele>
        <time>2018-05-13T05:08:18.000Z</time>
      </trkpt>
      <trkpt lat="44.06402" lon="7.22375">
        <ele>1527</ele>
        <time>2018-05-13T05:08:20.000Z</time>
      </trkpt>
      <trkpt lat="44.06401" lon="7.22368">
        <ele>1528</ele>
        <time>2018-05-13T05:08:25.000Z</time>
      </trkpt>
      <trkpt lat="44.064" lon="7.22363">
        <ele>1528</ele>
        <time>2018-05-13T05:08:29.000Z</time>
      </trkpt>
      <trkpt lat="44.06399" lon="7.2236">
        <ele>1529</ele>
        <time>2018-05-13T05:08:31.000Z</time>
      </trkpt>
      <trkpt lat="44.06397" lon="7.22354">
        <ele>1529</ele>
        <time>2018-05-13T05:08:35.000Z</time>
      </trkpt>
      <trkpt lat="44.06397" lon="7.22351">
        <ele>1529</ele>
        <time>2018-05-13T05:08:37.000Z</time>
      </trkpt>
      <trkpt lat="44.06395" lon="7.22347">
        <ele>1529</ele>
        <time>2018-05-13T05:08:40.000Z</time>
      </trkpt>
      <trkpt lat="44.06395" lon="7.22344">
        <ele>1530</ele>
        <time>2018-05-13T05:08:42.000Z</time>
      </trkpt>
      <trkpt lat="44.06393" lon="7.22342">
        <ele>1530</ele>
        <time>2018-05-13T05:08:44.000Z</time>
      </trkpt>
      <trkpt lat="44.06393" lon="7.22341">
        <ele>1530</ele>
        <time>2018-05-13T05:08:45.000Z</time>
      </trkpt>
      <trkpt lat="44.06391" lon="7.22335">
        <ele>1530</ele>
        <time>2018-05-13T05:08:49.000Z</time>
      </trkpt>
      <trkpt lat="44.0639" lon="7.22332">
        <ele>1537</ele>
        <time>2018-05-13T05:08:51.000Z</time>
      </trkpt>
      <trkpt lat="44.06389" lon="7.22324">
        <ele>1537</ele>
        <time>2018-05-13T05:08:57.000Z</time>
      </trkpt>
      <trkpt lat="44.06389" lon="7.22323">
        <ele>1537</ele>
        <time>2018-05-13T05:08:58.000Z</time>
      </trkpt>
      <trkpt lat="44.06388" lon="7.22321">
        <ele>1538</ele>
        <time>2018-05-13T05:08:59.000Z</time>
      </trkpt>
      <trkpt lat="44.06386" lon="7.22315">
        <ele>1538</ele>
        <time>2018-05-13T05:09:03.000Z</time>
      </trkpt>
      <trkpt lat="44.06386" lon="7.22314">
        <ele>1538</ele>
        <time>2018-05-13T05:09:04.000Z</time>
      </trkpt>
      <trkpt lat="44.06383" lon="7.22306">
        <ele>1539</ele>
        <time>2018-05-13T05:09:09.000Z</time>
      </trkpt>
      <trkpt lat="44.06382" lon="7.22303">
        <ele>1539</ele>
        <time>2018-05-13T05:09:11.000Z</time>
      </trkpt>
      <trkpt lat="44.0638" lon="7.22298">
        <ele>1540</ele>
        <time>2018-05-13T05:09:15.000Z</time>
      </trkpt>
      <trkpt lat="44.06379" lon="7.22293">
        <ele>1540</ele>
        <time>2018-05-13T05:09:18.000Z</time>
      </trkpt>
      <trkpt lat="44.06378" lon="7.22288">
        <ele>1541</ele>
        <time>2018-05-13T05:09:21.000Z</time>
      </trkpt>
      <trkpt lat="44.06376" lon="7.2228">
        <ele>1541</ele>
        <time>2018-05-13T05:09:26.000Z</time>
      </trkpt>
      <trkpt lat="44.06376" lon="7.22279">
        <ele>1541</ele>
        <time>2018-05-13T05:09:27.000Z</time>
      </trkpt>
      <trkpt lat="44.06374" lon="7.2227">
        <ele>1542</ele>
        <time>2018-05-13T05:09:33.000Z</time>
      </trkpt>
      <trkpt lat="44.06373" lon="7.22266">
        <ele>1542</ele>
        <time>2018-05-13T05:09:35.000Z</time>
      </trkpt>
      <trkpt lat="44.06371" lon="7.22258">
        <ele>1542</ele>
        <time>2018-05-13T05:09:40.000Z</time>
      </trkpt>
      <trkpt lat="44.06369" lon="7.22249">
        <ele>1547</ele>
        <time>2018-05-13T05:09:45.000Z</time>
      </trkpt>
      <trkpt lat="44.06369" lon="7.22247">
        <ele>1547</ele>
        <time>2018-05-13T05:09:46.000Z</time>
      </trkpt>
      <trkpt lat="44.06367" lon="7.22236">
        <ele>1548</ele>
        <time>2018-05-13T05:09:52.000Z</time>
      </trkpt>
      <trkpt lat="44.06366" lon="7.22233">
        <ele>1548</ele>
        <time>2018-05-13T05:09:54.000Z</time>
      </trkpt>
      <trkpt lat="44.06365" lon="7.2223">
        <ele>1548</ele>
        <time>2018-05-13T05:09:56.000Z</time>
      </trkpt>
      <trkpt lat="44.06364" lon="7.22222">
        <ele>1548</ele>
        <time>2018-05-13T05:10:01.000Z</time>
      </trkpt>
      <trkpt lat="44.06364" lon="7.22221">
        <ele>1548</ele>
        <time>2018-05-13T05:10:02.000Z</time>
      </trkpt>
      <trkpt lat="44.06362" lon="7.22214">
        <ele>1548</ele>
        <time>2018-05-13T05:10:06.000Z</time>
      </trkpt>
      <trkpt lat="44.06361" lon="7.22209">
        <ele>1549</ele>
        <time>2018-05-13T05:10:10.000Z</time>
      </trkpt>
      <trkpt lat="44.0636" lon="7.22206">
        <ele>1549</ele>
        <time>2018-05-13T05:10:12.000Z</time>
      </trkpt>
      <trkpt lat="44.06359" lon="7.22198">
        <ele>1549</ele>
        <time>2018-05-13T05:10:17.000Z</time>
      </trkpt>
      <trkpt lat="44.06359" lon="7.22196">
        <ele>1549</ele>
        <time>2018-05-13T05:10:18.000Z</time>
      </trkpt>
      <trkpt lat="44.06358" lon="7.2219">
        <ele>1549</ele>
        <time>2018-05-13T05:10:22.000Z</time>
      </trkpt>
      <trkpt lat="44.06357" lon="7.22184">
        <ele>1549</ele>
        <time>2018-05-13T05:10:26.000Z</time>
      </trkpt>
      <trkpt lat="44.06356" lon="7.22181">
        <ele>1549</ele>
        <time>2018-05-13T05:10:28.000Z</time>
      </trkpt>
      <trkpt lat="44.06355" lon="7.22174">
        <ele>1549</ele>
        <time>2018-05-13T05:10:33.000Z</time>
      </trkpt>
      <trkpt lat="44.06355" lon="7.22172">
        <ele>1549</ele>
        <time>2018-05-13T05:10:34.000Z</time>
      </trkpt>
      <trkpt lat="44.06354" lon="7.22167">
        <ele>1549</ele>
        <time>2018-05-13T05:10:38.000Z</time>
      </trkpt>
      <trkpt lat="44.06353" lon="7.2216">
        <ele>1554</ele>
        <time>2018-05-13T05:10:43.000Z</time>
      </trkpt>
      <trkpt lat="44.06352" lon="7.22153">
        <ele>1554</ele>
        <time>2018-05-13T05:10:48.000Z</time>
      </trkpt>
      <trkpt lat="44.06352" lon="7.2215">
        <ele>1555</ele>
        <time>2018-05-13T05:10:50.000Z</time>
      </trkpt>
      <trkpt lat="44.06352" lon="7.22148">
        <ele>1555</ele>
        <time>2018-05-13T05:10:52.000Z</time>
      </trkpt>
      <trkpt lat="44.06351" lon="7.22142">
        <ele>1555</ele>
        <time>2018-05-13T05:10:56.000Z</time>
      </trkpt>
      <trkpt lat="44.06351" lon="7.22141">
        <ele>1556</ele>
        <time>2018-05-13T05:10:57.000Z</time>
      </trkpt>
      <trkpt lat="44.06351" lon="7.22133">
        <ele>1556</ele>
        <time>2018-05-13T05:11:02.000Z</time>
      </trkpt>
      <trkpt lat="44.06351" lon="7.22133">
        <ele>1556</ele>
        <time>2018-05-13T05:11:04.000Z</time>
      </trkpt>
      <trkpt lat="44.0635" lon="7.22128">
        <ele>1557</ele>
        <time>2018-05-13T05:11:08.000Z</time>
      </trkpt>
      <trkpt lat="44.0635" lon="7.22126">
        <ele>1557</ele>
        <time>2018-05-13T05:11:10.000Z</time>
      </trkpt>
      <trkpt lat="44.0635" lon="7.22122">
        <ele>1557</ele>
        <time>2018-05-13T05:11:13.000Z</time>
      </trkpt>
      <trkpt lat="44.06348" lon="7.22115">
        <ele>1558</ele>
        <time>2018-05-13T05:11:19.000Z</time>
      </trkpt>
      <trkpt lat="44.06348" lon="7.22112">
        <ele>1558</ele>
        <time>2018-05-13T05:11:21.000Z</time>
      </trkpt>
      <trkpt lat="44.06348" lon="7.22107">
        <ele>1558</ele>
        <time>2018-05-13T05:11:26.000Z</time>
      </trkpt>
      <trkpt lat="44.06347" lon="7.22103">
        <ele>1558</ele>
        <time>2018-05-13T05:11:29.000Z</time>
      </trkpt>
      <trkpt lat="44.06348" lon="7.22099">
        <ele>1558</ele>
        <time>2018-05-13T05:11:33.000Z</time>
      </trkpt>
      <trkpt lat="44.06347" lon="7.22095">
        <ele>1558</ele>
        <time>2018-05-13T05:11:37.000Z</time>
      </trkpt>
      <trkpt lat="44.06347" lon="7.22094">
        <ele>1558</ele>
        <time>2018-05-13T05:11:38.000Z</time>
      </trkpt>
      <trkpt lat="44.06346" lon="7.2209">
        <ele>1558</ele>
        <time>2018-05-13T05:11:42.000Z</time>
      </trkpt>
      <trkpt lat="44.06345" lon="7.22085">
        <ele>1558</ele>
        <time>2018-05-13T05:11:48.000Z</time>
      </trkpt>
      <trkpt lat="44.06344" lon="7.22081">
        <ele>1563</ele>
        <time>2018-05-13T05:11:53.000Z</time>
      </trkpt>
      <trkpt lat="44.06343" lon="7.22077">
        <ele>1564</ele>
        <time>2018-05-13T05:11:57.000Z</time>
      </trkpt>
      <trkpt lat="44.06342" lon="7.22076">
        <ele>1564</ele>
        <time>2018-05-13T05:11:58.000Z</time>
      </trkpt>
      <trkpt lat="44.06341" lon="7.22072">
        <ele>1565</ele>
        <time>2018-05-13T05:12:03.000Z</time>
      </trkpt>
      <trkpt lat="44.06338" lon="7.22068">
        <ele>1566</ele>
        <time>2018-05-13T05:12:08.000Z</time>
      </trkpt>
      <trkpt lat="44.06338" lon="7.22067">
        <ele>1566</ele>
        <time>2018-05-13T05:12:09.000Z</time>
      </trkpt>
      <trkpt lat="44.06336" lon="7.22065">
        <ele>1567</ele>
        <time>2018-05-13T05:12:12.000Z</time>
      </trkpt>
      <trkpt lat="44.06332" lon="7.22062">
        <ele>1569</ele>
        <time>2018-05-13T05:12:17.000Z</time>
      </trkpt>
      <trkpt lat="44.06331" lon="7.22062">
        <ele>1569</ele>
        <time>2018-05-13T05:12:18.000Z</time>
      </trkpt>
      <trkpt lat="44.06327" lon="7.22063">
        <ele>1569</ele>
        <time>2018-05-13T05:12:22.000Z</time>
      </trkpt>
      <trkpt lat="44.06325" lon="7.22064">
        <ele>1569</ele>
        <time>2018-05-13T05:12:26.000Z</time>
      </trkpt>
      <trkpt lat="44.06324" lon="7.22065">
        <ele>1569</ele>
        <time>2018-05-13T05:12:28.000Z</time>
      </trkpt>
      <trkpt lat="44.06322" lon="7.2207">
        <ele>1568</ele>
        <time>2018-05-13T05:12:32.000Z</time>
      </trkpt>
      <trkpt lat="44.06313" lon="7.22086">
        <ele>1563</ele>
        <time>2018-05-13T05:12:40.000Z</time>
      </trkpt>
      <trkpt lat="44.06306" lon="7.22096">
        <ele>1564</ele>
        <time>2018-05-13T05:12:46.000Z</time>
      </trkpt>
      <trkpt lat="44.06305" lon="7.22098">
        <ele>1564</ele>
        <time>2018-05-13T05:12:47.000Z</time>
      </trkpt>
      <trkpt lat="44.06302" lon="7.22101">
        <ele>1565</ele>
        <time>2018-05-13T05:12:50.000Z</time>
      </trkpt>
      <trkpt lat="44.06297" lon="7.22109">
        <ele>1565</ele>
        <time>2018-05-13T05:12:55.000Z</time>
      </trkpt>
      <trkpt lat="44.06296" lon="7.2211">
        <ele>1566</ele>
        <time>2018-05-13T05:12:56.000Z</time>
      </trkpt>
      <trkpt lat="44.06292" lon="7.22118">
        <ele>1566</ele>
        <time>2018-05-13T05:13:01.000Z</time>
      </trkpt>
      <trkpt lat="44.0629" lon="7.22123">
        <ele>1566</ele>
        <time>2018-05-13T05:13:04.000Z</time>
      </trkpt>
      <trkpt lat="44.0629" lon="7.22125">
        <ele>1566</ele>
        <time>2018-05-13T05:13:05.000Z</time>
      </trkpt>
      <trkpt lat="44.06285" lon="7.22132">
        <ele>1567</ele>
        <time>2018-05-13T05:13:10.000Z</time>
      </trkpt>
      <trkpt lat="44.06284" lon="7.22133">
        <ele>1567</ele>
        <time>2018-05-13T05:13:11.000Z</time>
      </trkpt>
      <trkpt lat="44.06282" lon="7.22136">
        <ele>1567</ele>
        <time>2018-05-13T05:13:14.000Z</time>
      </trkpt>
      <trkpt lat="44.0628" lon="7.22137">
        <ele>1567</ele>
        <time>2018-05-13T05:13:16.000Z</time>
      </trkpt>
      <trkpt lat="44.06279" lon="7.22139">
        <ele>1568</ele>
        <time>2018-05-13T05:13:18.000Z</time>
      </trkpt>
      <trkpt lat="44.06275" lon="7.22146">
        <ele>1568</ele>
        <time>2018-05-13T05:13:23.000Z</time>
      </trkpt>
      <trkpt lat="44.06274" lon="7.22147">
        <ele>1568</ele>
        <time>2018-05-13T05:13:24.000Z</time>
      </trkpt>
      <trkpt lat="44.06271" lon="7.22153">
        <ele>1569</ele>
        <time>2018-05-13T05:13:28.000Z</time>
      </trkpt>
      <trkpt lat="44.06269" lon="7.22157">
        <ele>1570</ele>
        <time>2018-05-13T05:13:31.000Z</time>
      </trkpt>
      <trkpt lat="44.06268" lon="7.22159">
        <ele>1571</ele>
        <time>2018-05-13T05:13:33.000Z</time>
      </trkpt>
      <trkpt lat="44.06264" lon="7.22165">
        <ele>1572</ele>
        <time>2018-05-13T05:13:38.000Z</time>
      </trkpt>
      <trkpt lat="44.06261" lon="7.22171">
        <ele>1571</ele>
        <time>2018-05-13T05:13:43.000Z</time>
      </trkpt>
      <trkpt lat="44.06259" lon="7.22175">
        <ele>1571</ele>
        <time>2018-05-13T05:13:46.000Z</time>
      </trkpt>
      <trkpt lat="44.06257" lon="7.22177">
        <ele>1571</ele>
        <time>2018-05-13T05:13:48.000Z</time>
      </trkpt>
      <trkpt lat="44.06253" lon="7.22184">
        <ele>1570</ele>
        <time>2018-05-13T05:13:53.000Z</time>
      </trkpt>
      <trkpt lat="44.06248" lon="7.22191">
        <ele>1584</ele>
        <time>2018-05-13T05:13:59.000Z</time>
      </trkpt>
      <trkpt lat="44.06248" lon="7.22192">
        <ele>1585</ele>
        <time>2018-05-13T05:14:00.000Z</time>
      </trkpt>
      <trkpt lat="44.06245" lon="7.22197">
        <ele>1585</ele>
        <time>2018-05-13T05:14:04.000Z</time>
      </trkpt>
      <trkpt lat="44.06244" lon="7.22199">
        <ele>1585</ele>
        <time>2018-05-13T05:14:06.000Z</time>
      </trkpt>
      <trkpt lat="44.0624" lon="7.22204">
        <ele>1586</ele>
        <time>2018-05-13T05:14:10.000Z</time>
      </trkpt>
      <trkpt lat="44.06237" lon="7.22209">
        <ele>1586</ele>
        <time>2018-05-13T05:14:14.000Z</time>
      </trkpt>
      <trkpt lat="44.06236" lon="7.22212">
        <ele>1586</ele>
        <time>2018-05-13T05:14:16.000Z</time>
      </trkpt>
      <trkpt lat="44.0623" lon="7.2222">
        <ele>1586</ele>
        <time>2018-05-13T05:14:23.000Z</time>
      </trkpt>
      <trkpt lat="44.06227" lon="7.22225">
        <ele>1586</ele>
        <time>2018-05-13T05:14:27.000Z</time>
      </trkpt>
      <trkpt lat="44.06222" lon="7.2223">
        <ele>1587</ele>
        <time>2018-05-13T05:14:32.000Z</time>
      </trkpt>
      <trkpt lat="44.06217" lon="7.22236">
        <ele>1587</ele>
        <time>2018-05-13T05:14:37.000Z</time>
      </trkpt>
      <trkpt lat="44.06214" lon="7.22239">
        <ele>1588</ele>
        <time>2018-05-13T05:14:40.000Z</time>
      </trkpt>
      <trkpt lat="44.0621" lon="7.22243">
        <ele>1589</ele>
        <time>2018-05-13T05:14:44.000Z</time>
      </trkpt>
      <trkpt lat="44.06206" lon="7.22247">
        <ele>1590</ele>
        <time>2018-05-13T05:14:48.000Z</time>
      </trkpt>
      <trkpt lat="44.06204" lon="7.22249">
        <ele>1590</ele>
        <time>2018-05-13T05:14:50.000Z</time>
      </trkpt>
      <trkpt lat="44.06196" lon="7.22255">
        <ele>1584</ele>
        <time>2018-05-13T05:14:56.000Z</time>
      </trkpt>
      <trkpt lat="44.06189" lon="7.2226">
        <ele>1586</ele>
        <time>2018-05-13T05:15:02.000Z</time>
      </trkpt>
      <trkpt lat="44.06182" lon="7.22264">
        <ele>1587</ele>
        <time>2018-05-13T05:15:07.000Z</time>
      </trkpt>
      <trkpt lat="44.06179" lon="7.22266">
        <ele>1587</ele>
        <time>2018-05-13T05:15:09.000Z</time>
      </trkpt>
      <trkpt lat="44.06169" lon="7.2227">
        <ele>1587</ele>
        <time>2018-05-13T05:15:15.000Z</time>
      </trkpt>
      <trkpt lat="44.06159" lon="7.22273">
        <ele>1599</ele>
        <time>2018-05-13T05:15:21.000Z</time>
      </trkpt>
      <trkpt lat="44.06158" lon="7.22273">
        <ele>1599</ele>
        <time>2018-05-13T05:15:22.000Z</time>
      </trkpt>
      <trkpt lat="44.06148" lon="7.22276">
        <ele>1600</ele>
        <time>2018-05-13T05:15:28.000Z</time>
      </trkpt>
      <trkpt lat="44.06145" lon="7.22276">
        <ele>1600</ele>
        <time>2018-05-13T05:15:30.000Z</time>
      </trkpt>
      <trkpt lat="44.06137" lon="7.22279">
        <ele>1601</ele>
        <time>2018-05-13T05:15:35.000Z</time>
      </trkpt>
      <trkpt lat="44.06134" lon="7.2228">
        <ele>1601</ele>
        <time>2018-05-13T05:15:37.000Z</time>
      </trkpt>
      <trkpt lat="44.06128" lon="7.22283">
        <ele>1601</ele>
        <time>2018-05-13T05:15:41.000Z</time>
      </trkpt>
      <trkpt lat="44.06121" lon="7.22288">
        <ele>1602</ele>
        <time>2018-05-13T05:15:46.000Z</time>
      </trkpt>
      <trkpt lat="44.0612" lon="7.22288">
        <ele>1602</ele>
        <time>2018-05-13T05:15:47.000Z</time>
      </trkpt>
      <trkpt lat="44.06113" lon="7.22293">
        <ele>1602</ele>
        <time>2018-05-13T05:15:52.000Z</time>
      </trkpt>
      <trkpt lat="44.06112" lon="7.22295">
        <ele>1603</ele>
        <time>2018-05-13T05:15:53.000Z</time>
      </trkpt>
      <trkpt lat="44.06106" lon="7.22301">
        <ele>1603</ele>
        <time>2018-05-13T05:15:58.000Z</time>
      </trkpt>
      <trkpt lat="44.06102" lon="7.22306">
        <ele>1603</ele>
        <time>2018-05-13T05:16:01.000Z</time>
      </trkpt>
      <trkpt lat="44.06098" lon="7.22311">
        <ele>1603</ele>
        <time>2018-05-13T05:16:04.000Z</time>
      </trkpt>
      <trkpt lat="44.06093" lon="7.22322">
        <ele>1603</ele>
        <time>2018-05-13T05:16:09.000Z</time>
      </trkpt>
      <trkpt lat="44.06093" lon="7.22324">
        <ele>1603</ele>
        <time>2018-05-13T05:16:10.000Z</time>
      </trkpt>
      <trkpt lat="44.06087" lon="7.22342">
        <ele>1600</ele>
        <time>2018-05-13T05:16:17.000Z</time>
      </trkpt>
      <trkpt lat="44.06087" lon="7.22344">
        <ele>1599</ele>
        <time>2018-05-13T05:16:18.000Z</time>
      </trkpt>
      <trkpt lat="44.06083" lon="7.22363">
        <ele>1613</ele>
        <time>2018-05-13T05:16:25.000Z</time>
      </trkpt>
      <trkpt lat="44.06082" lon="7.22367">
        <ele>1614</ele>
        <time>2018-05-13T05:16:27.000Z</time>
      </trkpt>
      <trkpt lat="44.06079" lon="7.22379">
        <ele>1614</ele>
        <time>2018-05-13T05:16:32.000Z</time>
      </trkpt>
      <trkpt lat="44.06078" lon="7.22383">
        <ele>1614</ele>
        <time>2018-05-13T05:16:34.000Z</time>
      </trkpt>
      <trkpt lat="44.06076" lon="7.22398">
        <ele>1612</ele>
        <time>2018-05-13T05:16:40.000Z</time>
      </trkpt>
      <trkpt lat="44.06074" lon="7.22405">
        <ele>1611</ele>
        <time>2018-05-13T05:16:43.000Z</time>
      </trkpt>
      <trkpt lat="44.06073" lon="7.2241">
        <ele>1610</ele>
        <time>2018-05-13T05:16:45.000Z</time>
      </trkpt>
      <trkpt lat="44.0607" lon="7.22421">
        <ele>1610</ele>
        <time>2018-05-13T05:16:50.000Z</time>
      </trkpt>
      <trkpt lat="44.06069" lon="7.22428">
        <ele>1612</ele>
        <time>2018-05-13T05:16:53.000Z</time>
      </trkpt>
      <trkpt lat="44.06068" lon="7.22432">
        <ele>1613</ele>
        <time>2018-05-13T05:16:55.000Z</time>
      </trkpt>
      <trkpt lat="44.06065" lon="7.22441">
        <ele>1615</ele>
        <time>2018-05-13T05:16:59.000Z</time>
      </trkpt>
      <trkpt lat="44.06064" lon="7.22448">
        <ele>1615</ele>
        <time>2018-05-13T05:17:02.000Z</time>
      </trkpt>
      <trkpt lat="44.06061" lon="7.22464">
        <ele>1616</ele>
        <time>2018-05-13T05:17:09.000Z</time>
      </trkpt>
      <trkpt lat="44.06058" lon="7.22478">
        <ele>1616</ele>
        <time>2018-05-13T05:17:15.000Z</time>
      </trkpt>
      <trkpt lat="44.06057" lon="7.22483">
        <ele>1616</ele>
        <time>2018-05-13T05:17:17.000Z</time>
      </trkpt>
      <trkpt lat="44.06054" lon="7.22501">
        <ele>1617</ele>
        <time>2018-05-13T05:17:24.000Z</time>
      </trkpt>
      <trkpt lat="44.06053" lon="7.22507">
        <ele>1617</ele>
        <time>2018-05-13T05:17:26.000Z</time>
      </trkpt>
      <trkpt lat="44.06051" lon="7.22526">
        <ele>1619</ele>
        <time>2018-05-13T05:17:33.000Z</time>
      </trkpt>
      <trkpt lat="44.0605" lon="7.22531">
        <ele>1619</ele>
        <time>2018-05-13T05:17:35.000Z</time>
      </trkpt>
      <trkpt lat="44.06049" lon="7.22546">
        <ele>1620</ele>
        <time>2018-05-13T05:17:40.000Z</time>
      </trkpt>
      <trkpt lat="44.06049" lon="7.22549">
        <ele>1620</ele>
        <time>2018-05-13T05:17:41.000Z</time>
      </trkpt>
      <trkpt lat="44.06047" lon="7.22572">
        <ele>1620</ele>
        <time>2018-05-13T05:17:49.000Z</time>
      </trkpt>
      <trkpt lat="44.06047" lon="7.22574">
        <ele>1620</ele>
        <time>2018-05-13T05:17:50.000Z</time>
      </trkpt>
      <trkpt lat="44.06047" lon="7.22584">
        <ele>1624</ele>
        <time>2018-05-13T05:17:54.000Z</time>
      </trkpt>
      <trkpt lat="44.06046" lon="7.22589">
        <ele>1625</ele>
        <time>2018-05-13T05:17:56.000Z</time>
      </trkpt>
      <trkpt lat="44.06046" lon="7.22595">
        <ele>1625</ele>
        <time>2018-05-13T05:17:59.000Z</time>
      </trkpt>
      <trkpt lat="44.06046" lon="7.22599">
        <ele>1625</ele>
        <time>2018-05-13T05:18:01.000Z</time>
      </trkpt>
      <trkpt lat="44.06046" lon="7.22608">
        <ele>1626</ele>
        <time>2018-05-13T05:18:05.000Z</time>
      </trkpt>
      <trkpt lat="44.06045" lon="7.22614">
        <ele>1626</ele>
        <time>2018-05-13T05:18:08.000Z</time>
      </trkpt>
      <trkpt lat="44.06045" lon="7.2262">
        <ele>1627</ele>
        <time>2018-05-13T05:18:11.000Z</time>
      </trkpt>
      <trkpt lat="44.06045" lon="7.2263">
        <ele>1627</ele>
        <time>2018-05-13T05:18:16.000Z</time>
      </trkpt>
      <trkpt lat="44.06045" lon="7.22642">
        <ele>1628</ele>
        <time>2018-05-13T05:18:22.000Z</time>
      </trkpt>
      <trkpt lat="44.06045" lon="7.22649">
        <ele>1628</ele>
        <time>2018-05-13T05:18:26.000Z</time>
      </trkpt>
      <trkpt lat="44.06046" lon="7.22653">
        <ele>1628</ele>
        <time>2018-05-13T05:18:28.000Z</time>
      </trkpt>
      <trkpt lat="44.06046" lon="7.22665">
        <ele>1629</ele>
        <time>2018-05-13T05:18:34.000Z</time>
      </trkpt>
      <trkpt lat="44.06046" lon="7.22666">
        <ele>1629</ele>
        <time>2018-05-13T05:18:35.000Z</time>
      </trkpt>
      <trkpt lat="44.06047" lon="7.22678">
        <ele>1633</ele>
        <time>2018-05-13T05:18:41.000Z</time>
      </trkpt>
      <trkpt lat="44.06046" lon="7.22679">
        <ele>1633</ele>
        <time>2018-05-13T05:18:42.000Z</time>
      </trkpt>
      <trkpt lat="44.06047" lon="7.22688">
        <ele>1634</ele>
        <time>2018-05-13T05:18:46.000Z</time>
      </trkpt>
      <trkpt lat="44.06047" lon="7.22697">
        <ele>1634</ele>
        <time>2018-05-13T05:18:51.000Z</time>
      </trkpt>
      <trkpt lat="44.06047" lon="7.22707">
        <ele>1635</ele>
        <time>2018-05-13T05:18:56.000Z</time>
      </trkpt>
      <trkpt lat="44.06047" lon="7.22714">
        <ele>1635</ele>
        <time>2018-05-13T05:19:00.000Z</time>
      </trkpt>
      <trkpt lat="44.06047" lon="7.22718">
        <ele>1635</ele>
        <time>2018-05-13T05:19:02.000Z</time>
      </trkpt>
      <trkpt lat="44.06047" lon="7.22729">
        <ele>1635</ele>
        <time>2018-05-13T05:19:08.000Z</time>
      </trkpt>
      <trkpt lat="44.06047" lon="7.22739">
        <ele>1635</ele>
        <time>2018-05-13T05:19:14.000Z</time>
      </trkpt>
      <trkpt lat="44.06047" lon="7.22743">
        <ele>1635</ele>
        <time>2018-05-13T05:19:16.000Z</time>
      </trkpt>
      <trkpt lat="44.06047" lon="7.22749">
        <ele>1635</ele>
        <time>2018-05-13T05:19:20.000Z</time>
      </trkpt>
      <trkpt lat="44.06047" lon="7.22759">
        <ele>1638</ele>
        <time>2018-05-13T05:19:25.000Z</time>
      </trkpt>
      <trkpt lat="44.06047" lon="7.22761">
        <ele>1638</ele>
        <time>2018-05-13T05:19:26.000Z</time>
      </trkpt>
      <trkpt lat="44.06047" lon="7.22773">
        <ele>1638</ele>
        <time>2018-05-13T05:19:32.000Z</time>
      </trkpt>
      <trkpt lat="44.06047" lon="7.22775">
        <ele>1638</ele>
        <time>2018-05-13T05:19:33.000Z</time>
      </trkpt>
      <trkpt lat="44.06048" lon="7.22789">
        <ele>1638</ele>
        <time>2018-05-13T05:19:40.000Z</time>
      </trkpt>
      <trkpt lat="44.06048" lon="7.22791">
        <ele>1638</ele>
        <time>2018-05-13T05:19:41.000Z</time>
      </trkpt>
      <trkpt lat="44.06053" lon="7.22806">
        <ele>1639</ele>
        <time>2018-05-13T05:19:48.000Z</time>
      </trkpt>
      <trkpt lat="44.06053" lon="7.22808">
        <ele>1639</ele>
        <time>2018-05-13T05:19:49.000Z</time>
      </trkpt>
      <trkpt lat="44.06055" lon="7.22813">
        <ele>1639</ele>
        <time>2018-05-13T05:19:52.000Z</time>
      </trkpt>
      <trkpt lat="44.06057" lon="7.22817">
        <ele>1639</ele>
        <time>2018-05-13T05:19:55.000Z</time>
      </trkpt>
      <trkpt lat="44.06062" lon="7.22822">
        <ele>1639</ele>
        <time>2018-05-13T05:20:00.000Z</time>
      </trkpt>
      <trkpt lat="44.06065" lon="7.22826">
        <ele>1639</ele>
        <time>2018-05-13T05:20:03.000Z</time>
      </trkpt>
      <trkpt lat="44.06067" lon="7.2283">
        <ele>1640</ele>
        <time>2018-05-13T05:20:07.000Z</time>
      </trkpt>
      <trkpt lat="44.06069" lon="7.22831">
        <ele>1640</ele>
        <time>2018-05-13T05:20:09.000Z</time>
      </trkpt>
      <trkpt lat="44.06072" lon="7.22834">
        <ele>1640</ele>
        <time>2018-05-13T05:20:14.000Z</time>
      </trkpt>
      <trkpt lat="44.06073" lon="7.22837">
        <ele>1640</ele>
        <time>2018-05-13T05:20:16.000Z</time>
      </trkpt>
      <trkpt lat="44.06072" lon="7.22841">
        <ele>1640</ele>
        <time>2018-05-13T05:20:22.000Z</time>
      </trkpt>
      <trkpt lat="44.0607" lon="7.22844">
        <ele>1640</ele>
        <time>2018-05-13T05:20:26.000Z</time>
      </trkpt>
      <trkpt lat="44.06069" lon="7.22846">
        <ele>1640</ele>
        <time>2018-05-13T05:20:27.000Z</time>
      </trkpt>
      <trkpt lat="44.06068" lon="7.22846">
        <ele>1639</ele>
        <time>2018-05-13T05:20:28.000Z</time>
      </trkpt>
      <trkpt lat="44.06063" lon="7.22846">
        <ele>1639</ele>
        <time>2018-05-13T05:20:31.000Z</time>
      </trkpt>
      <trkpt lat="44.0606" lon="7.22845">
        <ele>1639</ele>
        <time>2018-05-13T05:20:33.000Z</time>
      </trkpt>
      <trkpt lat="44.06048" lon="7.22841">
        <ele>1638</ele>
        <time>2018-05-13T05:20:39.000Z</time>
      </trkpt>
      <trkpt lat="44.06035" lon="7.22833">
        <ele>1639</ele>
        <time>2018-05-13T05:20:47.000Z</time>
      </trkpt>
      <trkpt lat="44.06033" lon="7.22832">
        <ele>1639</ele>
        <time>2018-05-13T05:20:48.000Z</time>
      </trkpt>
      <trkpt lat="44.06026" lon="7.22824">
        <ele>1639</ele>
        <time>2018-05-13T05:20:54.000Z</time>
      </trkpt>
      <trkpt lat="44.06024" lon="7.22823">
        <ele>1639</ele>
        <time>2018-05-13T05:20:55.000Z</time>
      </trkpt>
      <trkpt lat="44.06018" lon="7.22815">
        <ele>1639</ele>
        <time>2018-05-13T05:21:00.000Z</time>
      </trkpt>
      <trkpt lat="44.06014" lon="7.22811">
        <ele>1639</ele>
        <time>2018-05-13T05:21:03.000Z</time>
      </trkpt>
      <trkpt lat="44.06008" lon="7.22805">
        <ele>1639</ele>
        <time>2018-05-13T05:21:07.000Z</time>
      </trkpt>
      <trkpt lat="44.06005" lon="7.228">
        <ele>1640</ele>
        <time>2018-05-13T05:21:10.000Z</time>
      </trkpt>
      <trkpt lat="44.06001" lon="7.22795">
        <ele>1640</ele>
        <time>2018-05-13T05:21:14.000Z</time>
      </trkpt>
      <trkpt lat="44.06" lon="7.22793">
        <ele>1639</ele>
        <time>2018-05-13T05:21:15.000Z</time>
      </trkpt>
      <trkpt lat="44.05995" lon="7.22787">
        <ele>1639</ele>
        <time>2018-05-13T05:21:20.000Z</time>
      </trkpt>
      <trkpt lat="44.05989" lon="7.2278">
        <ele>1640</ele>
        <time>2018-05-13T05:21:26.000Z</time>
      </trkpt>
      <trkpt lat="44.05987" lon="7.22777">
        <ele>1640</ele>
        <time>2018-05-13T05:21:28.000Z</time>
      </trkpt>
      <trkpt lat="44.05985" lon="7.22773">
        <ele>1641</ele>
        <time>2018-05-13T05:21:31.000Z</time>
      </trkpt>
      <trkpt lat="44.0598" lon="7.22766">
        <ele>1641</ele>
        <time>2018-05-13T05:21:36.000Z</time>
      </trkpt>
      <trkpt lat="44.0598" lon="7.22765">
        <ele>1641</ele>
        <time>2018-05-13T05:21:37.000Z</time>
      </trkpt>
      <trkpt lat="44.05975" lon="7.22758">
        <ele>1641</ele>
        <time>2018-05-13T05:21:42.000Z</time>
      </trkpt>
      <trkpt lat="44.05975" lon="7.22757">
        <ele>1641</ele>
        <time>2018-05-13T05:21:43.000Z</time>
      </trkpt>
      <trkpt lat="44.0597" lon="7.2275">
        <ele>1649</ele>
        <time>2018-05-13T05:21:48.000Z</time>
      </trkpt>
      <trkpt lat="44.05969" lon="7.22748">
        <ele>1649</ele>
        <time>2018-05-13T05:21:50.000Z</time>
      </trkpt>
      <trkpt lat="44.05965" lon="7.22741">
        <ele>1650</ele>
        <time>2018-05-13T05:21:54.000Z</time>
      </trkpt>
      <trkpt lat="44.05962" lon="7.22737">
        <ele>1650</ele>
        <time>2018-05-13T05:21:57.000Z</time>
      </trkpt>
      <trkpt lat="44.0596" lon="7.22732">
        <ele>1650</ele>
        <time>2018-05-13T05:22:00.000Z</time>
      </trkpt>
      <trkpt lat="44.05958" lon="7.22728">
        <ele>1650</ele>
        <time>2018-05-13T05:22:03.000Z</time>
      </trkpt>
      <trkpt lat="44.05956" lon="7.22725">
        <ele>1650</ele>
        <time>2018-05-13T05:22:05.000Z</time>
      </trkpt>
      <trkpt lat="44.05953" lon="7.22719">
        <ele>1651</ele>
        <time>2018-05-13T05:22:09.000Z</time>
      </trkpt>
      <trkpt lat="44.05951" lon="7.22717">
        <ele>1651</ele>
        <time>2018-05-13T05:22:11.000Z</time>
      </trkpt>
      <trkpt lat="44.05949" lon="7.22713">
        <ele>1651</ele>
        <time>2018-05-13T05:22:14.000Z</time>
      </trkpt>
      <trkpt lat="44.05946" lon="7.22709">
        <ele>1652</ele>
        <time>2018-05-13T05:22:17.000Z</time>
      </trkpt>
      <trkpt lat="44.05941" lon="7.22701">
        <ele>1653</ele>
        <time>2018-05-13T05:22:23.000Z</time>
      </trkpt>
      <trkpt lat="44.05939" lon="7.22698">
        <ele>1653</ele>
        <time>2018-05-13T05:22:25.000Z</time>
      </trkpt>
      <trkpt lat="44.05935" lon="7.22693">
        <ele>1654</ele>
        <time>2018-05-13T05:22:29.000Z</time>
      </trkpt>
      <trkpt lat="44.05933" lon="7.2269">
        <ele>1654</ele>
        <time>2018-05-13T05:22:31.000Z</time>
      </trkpt>
      <trkpt lat="44.05929" lon="7.22682">
        <ele>1656</ele>
        <time>2018-05-13T05:22:36.000Z</time>
      </trkpt>
      <trkpt lat="44.05925" lon="7.22676">
        <ele>1658</ele>
        <time>2018-05-13T05:22:40.000Z</time>
      </trkpt>
      <trkpt lat="44.05922" lon="7.22671">
        <ele>1660</ele>
        <time>2018-05-13T05:22:43.000Z</time>
      </trkpt>
      <trkpt lat="44.05918" lon="7.22664">
        <ele>1662</ele>
        <time>2018-05-13T05:22:47.000Z</time>
      </trkpt>
      <trkpt lat="44.05916" lon="7.22659">
        <ele>1662</ele>
        <time>2018-05-13T05:22:50.000Z</time>
      </trkpt>
      <trkpt lat="44.05912" lon="7.2265">
        <ele>1661</ele>
        <time>2018-05-13T05:22:55.000Z</time>
      </trkpt>
      <trkpt lat="44.05909" lon="7.22645">
        <ele>1661</ele>
        <time>2018-05-13T05:22:58.000Z</time>
      </trkpt>
      <trkpt lat="44.05905" lon="7.22639">
        <ele>1661</ele>
        <time>2018-05-13T05:23:02.000Z</time>
      </trkpt>
      <trkpt lat="44.059" lon="7.22631">
        <ele>1660</ele>
        <time>2018-05-13T05:23:06.000Z</time>
      </trkpt>
      <trkpt lat="44.05897" lon="7.22626">
        <ele>1660</ele>
        <time>2018-05-13T05:23:09.000Z</time>
      </trkpt>
      <trkpt lat="44.05894" lon="7.22618">
        <ele>1661</ele>
        <time>2018-05-13T05:23:13.000Z</time>
      </trkpt>
      <trkpt lat="44.05891" lon="7.2261">
        <ele>1661</ele>
        <time>2018-05-13T05:23:17.000Z</time>
      </trkpt>
      <trkpt lat="44.05887" lon="7.226">
        <ele>1661</ele>
        <time>2018-05-13T05:23:22.000Z</time>
      </trkpt>
      <trkpt lat="44.05883" lon="7.22591">
        <ele>1661</ele>
        <time>2018-05-13T05:23:27.000Z</time>
      </trkpt>
      <trkpt lat="44.0588" lon="7.22585">
        <ele>1661</ele>
        <time>2018-05-13T05:23:30.000Z</time>
      </trkpt>
      <trkpt lat="44.05877" lon="7.22575">
        <ele>1668</ele>
        <time>2018-05-13T05:23:35.000Z</time>
      </trkpt>
      <trkpt lat="44.05875" lon="7.22572">
        <ele>1668</ele>
        <time>2018-05-13T05:23:37.000Z</time>
      </trkpt>
      <trkpt lat="44.0587" lon="7.22557">
        <ele>1669</ele>
        <time>2018-05-13T05:23:44.000Z</time>
      </trkpt>
      <trkpt lat="44.05868" lon="7.22554">
        <ele>1669</ele>
        <time>2018-05-13T05:23:46.000Z</time>
      </trkpt>
      <trkpt lat="44.05864" lon="7.22544">
        <ele>1670</ele>
        <time>2018-05-13T05:23:51.000Z</time>
      </trkpt>
      <trkpt lat="44.0586" lon="7.22537">
        <ele>1671</ele>
        <time>2018-05-13T05:23:55.000Z</time>
      </trkpt>
      <trkpt lat="44.05857" lon="7.22532">
        <ele>1672</ele>
        <time>2018-05-13T05:23:58.000Z</time>
      </trkpt>
      <trkpt lat="44.05855" lon="7.22527">
        <ele>1673</ele>
        <time>2018-05-13T05:24:01.000Z</time>
      </trkpt>
      <trkpt lat="44.05852" lon="7.22521">
        <ele>1674</ele>
        <time>2018-05-13T05:24:05.000Z</time>
      </trkpt>
      <trkpt lat="44.05851" lon="7.22517">
        <ele>1675</ele>
        <time>2018-05-13T05:24:07.000Z</time>
      </trkpt>
      <trkpt lat="44.05849" lon="7.22511">
        <ele>1676</ele>
        <time>2018-05-13T05:24:11.000Z</time>
      </trkpt>
      <trkpt lat="44.05849" lon="7.22509">
        <ele>1676</ele>
        <time>2018-05-13T05:24:12.000Z</time>
      </trkpt>
      <trkpt lat="44.05846" lon="7.22504">
        <ele>1678</ele>
        <time>2018-05-13T05:24:16.000Z</time>
      </trkpt>
      <trkpt lat="44.05845" lon="7.22501">
        <ele>1679</ele>
        <time>2018-05-13T05:24:18.000Z</time>
      </trkpt>
      <trkpt lat="44.05842" lon="7.22494">
        <ele>1682</ele>
        <time>2018-05-13T05:24:23.000Z</time>
      </trkpt>
      <trkpt lat="44.05839" lon="7.22484">
        <ele>1682</ele>
        <time>2018-05-13T05:24:30.000Z</time>
      </trkpt>
      <trkpt lat="44.05838" lon="7.22478">
        <ele>1682</ele>
        <time>2018-05-13T05:24:34.000Z</time>
      </trkpt>
      <trkpt lat="44.05838" lon="7.22476">
        <ele>1682</ele>
        <time>2018-05-13T05:24:35.000Z</time>
      </trkpt>
      <trkpt lat="44.05838" lon="7.22475">
        <ele>1682</ele>
        <time>2018-05-13T05:24:36.000Z</time>
      </trkpt>
      <trkpt lat="44.05838" lon="7.22474">
        <ele>1682</ele>
        <time>2018-05-13T05:24:37.000Z</time>
      </trkpt>
      <trkpt lat="44.05837" lon="7.22467">
        <ele>1682</ele>
        <time>2018-05-13T05:24:41.000Z</time>
      </trkpt>
      <trkpt lat="44.05837" lon="7.22466">
        <ele>1682</ele>
        <time>2018-05-13T05:24:42.000Z</time>
      </trkpt>
      <trkpt lat="44.05837" lon="7.22465">
        <ele>1682</ele>
        <time>2018-05-13T05:24:43.000Z</time>
      </trkpt>
      <trkpt lat="44.05837" lon="7.22462">
        <ele>1682</ele>
        <time>2018-05-13T05:24:45.000Z</time>
      </trkpt>
      <trkpt lat="44.05836" lon="7.22458">
        <ele>1682</ele>
        <time>2018-05-13T05:24:48.000Z</time>
      </trkpt>
      <trkpt lat="44.05837" lon="7.22456">
        <ele>1683</ele>
        <time>2018-05-13T05:24:49.000Z</time>
      </trkpt>
      <trkpt lat="44.05836" lon="7.22455">
        <ele>1683</ele>
        <time>2018-05-13T05:24:50.000Z</time>
      </trkpt>
      <trkpt lat="44.05837" lon="7.22447">
        <ele>1684</ele>
        <time>2018-05-13T05:24:56.000Z</time>
      </trkpt>
      <trkpt lat="44.05838" lon="7.2244">
        <ele>1685</ele>
        <time>2018-05-13T05:25:01.000Z</time>
      </trkpt>
      <trkpt lat="44.05838" lon="7.22437">
        <ele>1685</ele>
        <time>2018-05-13T05:25:03.000Z</time>
      </trkpt>
      <trkpt lat="44.05838" lon="7.22431">
        <ele>1687</ele>
        <time>2018-05-13T05:25:07.000Z</time>
      </trkpt>
      <trkpt lat="44.05837" lon="7.22427">
        <ele>1688</ele>
        <time>2018-05-13T05:25:10.000Z</time>
      </trkpt>
      <trkpt lat="44.05838" lon="7.2242">
        <ele>1690</ele>
        <time>2018-05-13T05:25:14.000Z</time>
      </trkpt>
      <trkpt lat="44.05838" lon="7.22416">
        <ele>1692</ele>
        <time>2018-05-13T05:25:17.000Z</time>
      </trkpt>
      <trkpt lat="44.05839" lon="7.22413">
        <ele>1692</ele>
        <time>2018-05-13T05:25:19.000Z</time>
      </trkpt>
      <trkpt lat="44.0584" lon="7.22411">
        <ele>1692</ele>
        <time>2018-05-13T05:25:20.000Z</time>
      </trkpt>
      <trkpt lat="44.0584" lon="7.22406">
        <ele>1691</ele>
        <time>2018-05-13T05:25:23.000Z</time>
      </trkpt>
      <trkpt lat="44.05841" lon="7.224">
        <ele>1691</ele>
        <time>2018-05-13T05:25:27.000Z</time>
      </trkpt>
      <trkpt lat="44.05842" lon="7.22393">
        <ele>1691</ele>
        <time>2018-05-13T05:25:31.000Z</time>
      </trkpt>
      <trkpt lat="44.05842" lon="7.2239">
        <ele>1691</ele>
        <time>2018-05-13T05:25:33.000Z</time>
      </trkpt>
      <trkpt lat="44.05845" lon="7.22383">
        <ele>1691</ele>
        <time>2018-05-13T05:25:38.000Z</time>
      </trkpt>
      <trkpt lat="44.05845" lon="7.2238">
        <ele>1691</ele>
        <time>2018-05-13T05:25:40.000Z</time>
      </trkpt>
      <trkpt lat="44.05847" lon="7.22375">
        <ele>1692</ele>
        <time>2018-05-13T05:25:44.000Z</time>
      </trkpt>
      <trkpt lat="44.05848" lon="7.22368">
        <ele>1693</ele>
        <time>2018-05-13T05:25:48.000Z</time>
      </trkpt>
      <trkpt lat="44.05848" lon="7.22367">
        <ele>1693</ele>
        <time>2018-05-13T05:25:49.000Z</time>
      </trkpt>
      <trkpt lat="44.05848" lon="7.22365">
        <ele>1693</ele>
        <time>2018-05-13T05:25:50.000Z</time>
      </trkpt>
      <trkpt lat="44.05849" lon="7.22358">
        <ele>1694</ele>
        <time>2018-05-13T05:25:55.000Z</time>
      </trkpt>
      <trkpt lat="44.0585" lon="7.22349">
        <ele>1696</ele>
        <time>2018-05-13T05:26:01.000Z</time>
      </trkpt>
      <trkpt lat="44.05851" lon="7.22348">
        <ele>1696</ele>
        <time>2018-05-13T05:26:02.000Z</time>
      </trkpt>
      <trkpt lat="44.05852" lon="7.22339">
        <ele>1697</ele>
        <time>2018-05-13T05:26:07.000Z</time>
      </trkpt>
      <trkpt lat="44.05852" lon="7.22338">
        <ele>1697</ele>
        <time>2018-05-13T05:26:08.000Z</time>
      </trkpt>
      <trkpt lat="44.05853" lon="7.22328">
        <ele>1703</ele>
        <time>2018-05-13T05:26:14.000Z</time>
      </trkpt>
      <trkpt lat="44.05853" lon="7.22327">
        <ele>1702</ele>
        <time>2018-05-13T05:26:15.000Z</time>
      </trkpt>
      <trkpt lat="44.05854" lon="7.22322">
        <ele>1702</ele>
        <time>2018-05-13T05:26:18.000Z</time>
      </trkpt>
      <trkpt lat="44.05855" lon="7.22319">
        <ele>1702</ele>
        <time>2018-05-13T05:26:20.000Z</time>
      </trkpt>
      <trkpt lat="44.05855" lon="7.22317">
        <ele>1702</ele>
        <time>2018-05-13T05:26:21.000Z</time>
      </trkpt>
      <trkpt lat="44.05855" lon="7.22316">
        <ele>1702</ele>
        <time>2018-05-13T05:26:22.000Z</time>
      </trkpt>
      <trkpt lat="44.05857" lon="7.2231">
        <ele>1701</ele>
        <time>2018-05-13T05:26:26.000Z</time>
      </trkpt>
      <trkpt lat="44.05857" lon="7.22305">
        <ele>1701</ele>
        <time>2018-05-13T05:26:29.000Z</time>
      </trkpt>
      <trkpt lat="44.05858" lon="7.22298">
        <ele>1701</ele>
        <time>2018-05-13T05:26:33.000Z</time>
      </trkpt>
      <trkpt lat="44.05859" lon="7.2229">
        <ele>1702</ele>
        <time>2018-05-13T05:26:38.000Z</time>
      </trkpt>
      <trkpt lat="44.05859" lon="7.22288">
        <ele>1702</ele>
        <time>2018-05-13T05:26:39.000Z</time>
      </trkpt>
      <trkpt lat="44.0586" lon="7.22278">
        <ele>1703</ele>
        <time>2018-05-13T05:26:44.000Z</time>
      </trkpt>
      <trkpt lat="44.0586" lon="7.22267">
        <ele>1704</ele>
        <time>2018-05-13T05:26:50.000Z</time>
      </trkpt>
      <trkpt lat="44.05861" lon="7.22261">
        <ele>1704</ele>
        <time>2018-05-13T05:26:53.000Z</time>
      </trkpt>
      <trkpt lat="44.05862" lon="7.22254">
        <ele>1704</ele>
        <time>2018-05-13T05:26:57.000Z</time>
      </trkpt>
      <trkpt lat="44.05862" lon="7.22249">
        <ele>1712</ele>
        <time>2018-05-13T05:27:00.000Z</time>
      </trkpt>
      <trkpt lat="44.05863" lon="7.22243">
        <ele>1712</ele>
        <time>2018-05-13T05:27:03.000Z</time>
      </trkpt>
      <trkpt lat="44.05863" lon="7.22237">
        <ele>1712</ele>
        <time>2018-05-13T05:27:06.000Z</time>
      </trkpt>
      <trkpt lat="44.05863" lon="7.22226">
        <ele>1713</ele>
        <time>2018-05-13T05:27:11.000Z</time>
      </trkpt>
      <trkpt lat="44.05864" lon="7.2222">
        <ele>1713</ele>
        <time>2018-05-13T05:27:14.000Z</time>
      </trkpt>
      <trkpt lat="44.05865" lon="7.22216">
        <ele>1713</ele>
        <time>2018-05-13T05:27:16.000Z</time>
      </trkpt>
      <trkpt lat="44.05866" lon="7.2221">
        <ele>1713</ele>
        <time>2018-05-13T05:27:19.000Z</time>
      </trkpt>
      <trkpt lat="44.05867" lon="7.22204">
        <ele>1714</ele>
        <time>2018-05-13T05:27:22.000Z</time>
      </trkpt>
      <trkpt lat="44.05868" lon="7.22199">
        <ele>1714</ele>
        <time>2018-05-13T05:27:25.000Z</time>
      </trkpt>
      <trkpt lat="44.05869" lon="7.22193">
        <ele>1715</ele>
        <time>2018-05-13T05:27:28.000Z</time>
      </trkpt>
      <trkpt lat="44.05869" lon="7.22188">
        <ele>1715</ele>
        <time>2018-05-13T05:27:31.000Z</time>
      </trkpt>
      <trkpt lat="44.05871" lon="7.22179">
        <ele>1715</ele>
        <time>2018-05-13T05:27:36.000Z</time>
      </trkpt>
      <trkpt lat="44.05872" lon="7.22175">
        <ele>1715</ele>
        <time>2018-05-13T05:27:38.000Z</time>
      </trkpt>
      <trkpt lat="44.05874" lon="7.22166">
        <ele>1725</ele>
        <time>2018-05-13T05:27:44.000Z</time>
      </trkpt>
      <trkpt lat="44.05876" lon="7.22157">
        <ele>1725</ele>
        <time>2018-05-13T05:27:50.000Z</time>
      </trkpt>
      <trkpt lat="44.05876" lon="7.22155">
        <ele>1725</ele>
        <time>2018-05-13T05:27:52.000Z</time>
      </trkpt>
      <trkpt lat="44.05877" lon="7.2215">
        <ele>1725</ele>
        <time>2018-05-13T05:27:55.000Z</time>
      </trkpt>
      <trkpt lat="44.0588" lon="7.22143">
        <ele>1725</ele>
        <time>2018-05-13T05:27:59.000Z</time>
      </trkpt>
      <trkpt lat="44.05881" lon="7.22139">
        <ele>1725</ele>
        <time>2018-05-13T05:28:02.000Z</time>
      </trkpt>
      <trkpt lat="44.05883" lon="7.22133">
        <ele>1726</ele>
        <time>2018-05-13T05:28:06.000Z</time>
      </trkpt>
      <trkpt lat="44.05885" lon="7.22129">
        <ele>1726</ele>
        <time>2018-05-13T05:28:09.000Z</time>
      </trkpt>
      <trkpt lat="44.05886" lon="7.22128">
        <ele>1726</ele>
        <time>2018-05-13T05:28:10.000Z</time>
      </trkpt>
      <trkpt lat="44.05887" lon="7.22123">
        <ele>1726</ele>
        <time>2018-05-13T05:28:13.000Z</time>
      </trkpt>
      <trkpt lat="44.05888" lon="7.2212">
        <ele>1727</ele>
        <time>2018-05-13T05:28:15.000Z</time>
      </trkpt>
      <trkpt lat="44.0589" lon="7.22113">
        <ele>1727</ele>
        <time>2018-05-13T05:28:20.000Z</time>
      </trkpt>
      <trkpt lat="44.05891" lon="7.22111">
        <ele>1727</ele>
        <time>2018-05-13T05:28:21.000Z</time>
      </trkpt>
      <trkpt lat="44.05894" lon="7.22102">
        <ele>1727</ele>
        <time>2018-05-13T05:28:27.000Z</time>
      </trkpt>
      <trkpt lat="44.05894" lon="7.22101">
        <ele>1727</ele>
        <time>2018-05-13T05:28:28.000Z</time>
      </trkpt>
      <trkpt lat="44.05897" lon="7.22092">
        <ele>1727</ele>
        <time>2018-05-13T05:28:33.000Z</time>
      </trkpt>
      <trkpt lat="44.05898" lon="7.2209">
        <ele>1727</ele>
        <time>2018-05-13T05:28:34.000Z</time>
      </trkpt>
      <trkpt lat="44.05897" lon="7.22084">
        <ele>1727</ele>
        <time>2018-05-13T05:28:38.000Z</time>
      </trkpt>
      <trkpt lat="44.05896" lon="7.22079">
        <ele>1735</ele>
        <time>2018-05-13T05:28:41.000Z</time>
      </trkpt>
      <trkpt lat="44.05895" lon="7.22078">
        <ele>1736</ele>
        <time>2018-05-13T05:28:42.000Z</time>
      </trkpt>
      <trkpt lat="44.05894" lon="7.22076">
        <ele>1736</ele>
        <time>2018-05-13T05:28:43.000Z</time>
      </trkpt>
      <trkpt lat="44.05893" lon="7.22076">
        <ele>1736</ele>
        <time>2018-05-13T05:28:44.000Z</time>
      </trkpt>
      <trkpt lat="44.0589" lon="7.22076">
        <ele>1737</ele>
        <time>2018-05-13T05:28:46.000Z</time>
      </trkpt>
      <trkpt lat="44.05886" lon="7.22078">
        <ele>1738</ele>
        <time>2018-05-13T05:28:49.000Z</time>
      </trkpt>
      <trkpt lat="44.05881" lon="7.22082">
        <ele>1739</ele>
        <time>2018-05-13T05:28:53.000Z</time>
      </trkpt>
      <trkpt lat="44.05877" lon="7.22089">
        <ele>1730</ele>
        <time>2018-05-13T05:28:59.000Z</time>
      </trkpt>
      <trkpt lat="44.05873" lon="7.22095">
        <ele>1730</ele>
        <time>2018-05-13T05:29:04.000Z</time>
      </trkpt>
      <trkpt lat="44.05869" lon="7.22098">
        <ele>1731</ele>
        <time>2018-05-13T05:29:07.000Z</time>
      </trkpt>
      <trkpt lat="44.05863" lon="7.22101">
        <ele>1731</ele>
        <time>2018-05-13T05:29:12.000Z</time>
      </trkpt>
      <trkpt lat="44.0586" lon="7.22104">
        <ele>1732</ele>
        <time>2018-05-13T05:29:15.000Z</time>
      </trkpt>
      <trkpt lat="44.05857" lon="7.22107">
        <ele>1732</ele>
        <time>2018-05-13T05:29:18.000Z</time>
      </trkpt>
      <trkpt lat="44.05849" lon="7.22114">
        <ele>1732</ele>
        <time>2018-05-13T05:29:25.000Z</time>
      </trkpt>
      <trkpt lat="44.0584" lon="7.2212">
        <ele>1731</ele>
        <time>2018-05-13T05:29:32.000Z</time>
      </trkpt>
      <trkpt lat="44.05832" lon="7.22126">
        <ele>1740</ele>
        <time>2018-05-13T05:29:39.000Z</time>
      </trkpt>
      <trkpt lat="44.05831" lon="7.22127">
        <ele>1739</ele>
        <time>2018-05-13T05:29:40.000Z</time>
      </trkpt>
      <trkpt lat="44.05822" lon="7.22135">
        <ele>1739</ele>
        <time>2018-05-13T05:29:47.000Z</time>
      </trkpt>
      <trkpt lat="44.05818" lon="7.22138">
        <ele>1739</ele>
        <time>2018-05-13T05:29:50.000Z</time>
      </trkpt>
      <trkpt lat="44.05813" lon="7.22142">
        <ele>1739</ele>
        <time>2018-05-13T05:29:54.000Z</time>
      </trkpt>
      <trkpt lat="44.05808" lon="7.22148">
        <ele>1739</ele>
        <time>2018-05-13T05:29:58.000Z</time>
      </trkpt>
      <trkpt lat="44.05804" lon="7.22151">
        <ele>1739</ele>
        <time>2018-05-13T05:30:01.000Z</time>
      </trkpt>
      <trkpt lat="44.05797" lon="7.22158">
        <ele>1739</ele>
        <time>2018-05-13T05:30:08.000Z</time>
      </trkpt>
      <trkpt lat="44.05791" lon="7.22163">
        <ele>1740</ele>
        <time>2018-05-13T05:30:14.000Z</time>
      </trkpt>
      <trkpt lat="44.0579" lon="7.22164">
        <ele>1740</ele>
        <time>2018-05-13T05:30:15.000Z</time>
      </trkpt>
      <trkpt lat="44.05783" lon="7.22169">
        <ele>1735</ele>
        <time>2018-05-13T05:30:21.000Z</time>
      </trkpt>
      <trkpt lat="44.05777" lon="7.22169">
        <ele>1736</ele>
        <time>2018-05-13T05:30:26.000Z</time>
      </trkpt>
      <trkpt lat="44.05775" lon="7.22169">
        <ele>1736</ele>
        <time>2018-05-13T05:30:28.000Z</time>
      </trkpt>
      <trkpt lat="44.0577" lon="7.22167">
        <ele>1737</ele>
        <time>2018-05-13T05:30:32.000Z</time>
      </trkpt>
      <trkpt lat="44.05768" lon="7.22164">
        <ele>1742</ele>
        <time>2018-05-13T05:30:35.000Z</time>
      </trkpt>
      <trkpt lat="44.05763" lon="7.22152">
        <ele>1742</ele>
        <time>2018-05-13T05:30:42.000Z</time>
      </trkpt>
      <trkpt lat="44.05762" lon="7.2215">
        <ele>1742</ele>
        <time>2018-05-13T05:30:43.000Z</time>
      </trkpt>
      <trkpt lat="44.05763" lon="7.22142">
        <ele>1742</ele>
        <time>2018-05-13T05:30:48.000Z</time>
      </trkpt>
      <trkpt lat="44.05763" lon="7.2214">
        <ele>1742</ele>
        <time>2018-05-13T05:30:49.000Z</time>
      </trkpt>
      <trkpt lat="44.05766" lon="7.22136">
        <ele>1742</ele>
        <time>2018-05-13T05:30:54.000Z</time>
      </trkpt>
      <trkpt lat="44.05766" lon="7.22135">
        <ele>1742</ele>
        <time>2018-05-13T05:30:55.000Z</time>
      </trkpt>
      <trkpt lat="44.05768" lon="7.22127">
        <ele>1742</ele>
        <time>2018-05-13T05:31:01.000Z</time>
      </trkpt>
      <trkpt lat="44.05768" lon="7.22126">
        <ele>1742</ele>
        <time>2018-05-13T05:31:02.000Z</time>
      </trkpt>
      <trkpt lat="44.05768" lon="7.22122">
        <ele>1742</ele>
        <time>2018-05-13T05:31:06.000Z</time>
      </trkpt>
      <trkpt lat="44.05769" lon="7.22117">
        <ele>1743</ele>
        <time>2018-05-13T05:31:10.000Z</time>
      </trkpt>
      <trkpt lat="44.05769" lon="7.22116">
        <ele>1743</ele>
        <time>2018-05-13T05:31:11.000Z</time>
      </trkpt>
      <trkpt lat="44.0577" lon="7.2211">
        <ele>1743</ele>
        <time>2018-05-13T05:31:16.000Z</time>
      </trkpt>
      <trkpt lat="44.05771" lon="7.22106">
        <ele>1743</ele>
        <time>2018-05-13T05:31:19.000Z</time>
      </trkpt>
      <trkpt lat="44.05772" lon="7.22102">
        <ele>1743</ele>
        <time>2018-05-13T05:31:22.000Z</time>
      </trkpt>
      <trkpt lat="44.05773" lon="7.22096">
        <ele>1744</ele>
        <time>2018-05-13T05:31:27.000Z</time>
      </trkpt>
      <trkpt lat="44.05774" lon="7.22094">
        <ele>1744</ele>
        <time>2018-05-13T05:31:29.000Z</time>
      </trkpt>
      <trkpt lat="44.05776" lon="7.22089">
        <ele>1744</ele>
        <time>2018-05-13T05:31:33.000Z</time>
      </trkpt>
      <trkpt lat="44.05777" lon="7.22082">
        <ele>1748</ele>
        <time>2018-05-13T05:31:38.000Z</time>
      </trkpt>
      <trkpt lat="44.05777" lon="7.22081">
        <ele>1748</ele>
        <time>2018-05-13T05:31:39.000Z</time>
      </trkpt>
      <trkpt lat="44.05779" lon="7.22076">
        <ele>1748</ele>
        <time>2018-05-13T05:31:46.000Z</time>
      </trkpt>
      <trkpt lat="44.0578" lon="7.22074">
        <ele>1748</ele>
        <time>2018-05-13T05:31:48.000Z</time>
      </trkpt>
      <trkpt lat="44.05782" lon="7.22066">
        <ele>1749</ele>
        <time>2018-05-13T05:31:53.000Z</time>
      </trkpt>
      <trkpt lat="44.05784" lon="7.2206">
        <ele>1749</ele>
        <time>2018-05-13T05:31:57.000Z</time>
      </trkpt>
      <trkpt lat="44.05786" lon="7.22056">
        <ele>1749</ele>
        <time>2018-05-13T05:31:59.000Z</time>
      </trkpt>
      <trkpt lat="44.05786" lon="7.22053">
        <ele>1749</ele>
        <time>2018-05-13T05:32:01.000Z</time>
      </trkpt>
      <trkpt lat="44.05789" lon="7.22045">
        <ele>1749</ele>
        <time>2018-05-13T05:32:06.000Z</time>
      </trkpt>
      <trkpt lat="44.0579" lon="7.22042">
        <ele>1750</ele>
        <time>2018-05-13T05:32:08.000Z</time>
      </trkpt>
      <trkpt lat="44.05791" lon="7.22031">
        <ele>1750</ele>
        <time>2018-05-13T05:32:13.000Z</time>
      </trkpt>
      <trkpt lat="44.05791" lon="7.22028">
        <ele>1750</ele>
        <time>2018-05-13T05:32:15.000Z</time>
      </trkpt>
      <trkpt lat="44.05791" lon="7.22022">
        <ele>1751</ele>
        <time>2018-05-13T05:32:18.000Z</time>
      </trkpt>
      <trkpt lat="44.05791" lon="7.2202">
        <ele>1751</ele>
        <time>2018-05-13T05:32:19.000Z</time>
      </trkpt>
      <trkpt lat="44.05791" lon="7.22">
        <ele>1751</ele>
        <time>2018-05-13T05:32:25.000Z</time>
      </trkpt>
      <trkpt lat="44.0579" lon="7.21963">
        <ele>1755</ele>
        <time>2018-05-13T05:32:32.000Z</time>
      </trkpt>
      <trkpt lat="44.0579" lon="7.21956">
        <ele>1756</ele>
        <time>2018-05-13T05:32:33.000Z</time>
      </trkpt>
      <trkpt lat="44.05788" lon="7.21921">
        <ele>1756</ele>
        <time>2018-05-13T05:32:37.000Z</time>
      </trkpt>
      <trkpt lat="44.05784" lon="7.219">
        <ele>1760</ele>
        <time>2018-05-13T05:32:39.000Z</time>
      </trkpt>
      <trkpt lat="44.05779" lon="7.21879">
        <ele>1761</ele>
        <time>2018-05-13T05:32:41.000Z</time>
      </trkpt>
      <trkpt lat="44.05775" lon="7.2187">
        <ele>1761</ele>
        <time>2018-05-13T05:32:42.000Z</time>
      </trkpt>
      <trkpt lat="44.05771" lon="7.21859">
        <ele>1761</ele>
        <time>2018-05-13T05:32:43.000Z</time>
      </trkpt>
      <trkpt lat="44.05766" lon="7.21849">
        <ele>1760</ele>
        <time>2018-05-13T05:32:44.000Z</time>
      </trkpt>
      <trkpt lat="44.05761" lon="7.21842">
        <ele>1759</ele>
        <time>2018-05-13T05:32:45.000Z</time>
      </trkpt>
      <trkpt lat="44.05751" lon="7.21829">
        <ele>1758</ele>
        <time>2018-05-13T05:32:47.000Z</time>
      </trkpt>
      <trkpt lat="44.05742" lon="7.21815">
        <ele>1749</ele>
        <time>2018-05-13T05:32:49.000Z</time>
      </trkpt>
      <trkpt lat="44.05739" lon="7.21807">
        <ele>1748</ele>
        <time>2018-05-13T05:32:50.000Z</time>
      </trkpt>
      <trkpt lat="44.05737" lon="7.21799">
        <ele>1747</ele>
        <time>2018-05-13T05:32:51.000Z</time>
      </trkpt>
      <trkpt lat="44.0573" lon="7.21783">
        <ele>1747</ele>
        <time>2018-05-13T05:32:53.000Z</time>
      </trkpt>
      <trkpt lat="44.05722" lon="7.21769">
        <ele>1747</ele>
        <time>2018-05-13T05:32:55.000Z</time>
      </trkpt>
      <trkpt lat="44.05711" lon="7.21757">
        <ele>1746</ele>
        <time>2018-05-13T05:32:57.000Z</time>
      </trkpt>
      <trkpt lat="44.057" lon="7.21748">
        <ele>1745</ele>
        <time>2018-05-13T05:32:59.000Z</time>
      </trkpt>
      <trkpt lat="44.05691" lon="7.21739">
        <ele>1744</ele>
        <time>2018-05-13T05:33:01.000Z</time>
      </trkpt>
      <trkpt lat="44.05685" lon="7.21734">
        <ele>1744</ele>
        <time>2018-05-13T05:33:02.000Z</time>
      </trkpt>
      <trkpt lat="44.0568" lon="7.21729">
        <ele>1743</ele>
        <time>2018-05-13T05:33:03.000Z</time>
      </trkpt>
      <trkpt lat="44.05676" lon="7.21723">
        <ele>1743</ele>
        <time>2018-05-13T05:33:04.000Z</time>
      </trkpt>
      <trkpt lat="44.05672" lon="7.21716">
        <ele>1743</ele>
        <time>2018-05-13T05:33:05.000Z</time>
      </trkpt>
      <trkpt lat="44.05668" lon="7.21709">
        <ele>1743</ele>
        <time>2018-05-13T05:33:06.000Z</time>
      </trkpt>
      <trkpt lat="44.05665" lon="7.217">
        <ele>1735</ele>
        <time>2018-05-13T05:33:07.000Z</time>
      </trkpt>
      <trkpt lat="44.05662" lon="7.21692">
        <ele>1735</ele>
        <time>2018-05-13T05:33:08.000Z</time>
      </trkpt>
      <trkpt lat="44.05656" lon="7.21673">
        <ele>1737</ele>
        <time>2018-05-13T05:33:10.000Z</time>
      </trkpt>
      <trkpt lat="44.05653" lon="7.2166">
        <ele>1738</ele>
        <time>2018-05-13T05:33:12.000Z</time>
      </trkpt>
      <trkpt lat="44.05649" lon="7.2165">
        <ele>1737</ele>
        <time>2018-05-13T05:33:14.000Z</time>
      </trkpt>
      <trkpt lat="44.0565" lon="7.21651">
        <ele>1737</ele>
        <time>2018-05-13T05:33:16.000Z</time>
      </trkpt>
      <trkpt lat="44.05649" lon="7.2165">
        <ele>1737</ele>
        <time>2018-05-13T05:33:19.000Z</time>
      </trkpt>
      <trkpt lat="44.05648" lon="7.21649">
        <ele>1737</ele>
        <time>2018-05-13T05:33:21.000Z</time>
      </trkpt>
      <trkpt lat="44.05647" lon="7.21647">
        <ele>1737</ele>
        <time>2018-05-13T05:33:27.000Z</time>
      </trkpt>
      <trkpt lat="44.05645" lon="7.21643">
        <ele>1737</ele>
        <time>2018-05-13T05:33:32.000Z</time>
      </trkpt>
      <trkpt lat="44.05645" lon="7.21642">
        <ele>1737</ele>
        <time>2018-05-13T05:33:33.000Z</time>
      </trkpt>
      <trkpt lat="44.05643" lon="7.21628">
        <ele>1736</ele>
        <time>2018-05-13T05:33:39.000Z</time>
      </trkpt>
      <trkpt lat="44.05639" lon="7.21624">
        <ele>1736</ele>
        <time>2018-05-13T05:33:42.000Z</time>
      </trkpt>
      <trkpt lat="44.05636" lon="7.21621">
        <ele>1736</ele>
        <time>2018-05-13T05:33:44.000Z</time>
      </trkpt>
      <trkpt lat="44.05635" lon="7.21619">
        <ele>1736</ele>
        <time>2018-05-13T05:33:45.000Z</time>
      </trkpt>
      <trkpt lat="44.05628" lon="7.21611">
        <ele>1736</ele>
        <time>2018-05-13T05:33:51.000Z</time>
      </trkpt>
      <trkpt lat="44.05623" lon="7.21609">
        <ele>1737</ele>
        <time>2018-05-13T05:33:55.000Z</time>
      </trkpt>
      <trkpt lat="44.05619" lon="7.21607">
        <ele>1737</ele>
        <time>2018-05-13T05:33:59.000Z</time>
      </trkpt>
      <trkpt lat="44.05616" lon="7.21606">
        <ele>1737</ele>
        <time>2018-05-13T05:34:01.000Z</time>
      </trkpt>
      <trkpt lat="44.05611" lon="7.21603">
        <ele>1738</ele>
        <time>2018-05-13T05:34:05.000Z</time>
      </trkpt>
      <trkpt lat="44.05608" lon="7.21601">
        <ele>1738</ele>
        <time>2018-05-13T05:34:08.000Z</time>
      </trkpt>
      <trkpt lat="44.05605" lon="7.21597">
        <ele>1739</ele>
        <time>2018-05-13T05:34:12.000Z</time>
      </trkpt>
      <trkpt lat="44.05604" lon="7.21596">
        <ele>1739</ele>
        <time>2018-05-13T05:34:15.000Z</time>
      </trkpt>
      <trkpt lat="44.05602" lon="7.21595">
        <ele>1739</ele>
        <time>2018-05-13T05:34:17.000Z</time>
      </trkpt>
      <trkpt lat="44.05598" lon="7.21591">
        <ele>1740</ele>
        <time>2018-05-13T05:34:21.000Z</time>
      </trkpt>
      <trkpt lat="44.05594" lon="7.21589">
        <ele>1741</ele>
        <time>2018-05-13T05:34:24.000Z</time>
      </trkpt>
      <trkpt lat="44.0559" lon="7.21584">
        <ele>1743</ele>
        <time>2018-05-13T05:34:29.000Z</time>
      </trkpt>
      <trkpt lat="44.05585" lon="7.21577">
        <ele>1742</ele>
        <time>2018-05-13T05:34:35.000Z</time>
      </trkpt>
      <trkpt lat="44.05584" lon="7.21576">
        <ele>1742</ele>
        <time>2018-05-13T05:34:36.000Z</time>
      </trkpt>
      <trkpt lat="44.05579" lon="7.21568">
        <ele>1745</ele>
        <time>2018-05-13T05:34:41.000Z</time>
      </trkpt>
      <trkpt lat="44.05576" lon="7.21564">
        <ele>1745</ele>
        <time>2018-05-13T05:34:45.000Z</time>
      </trkpt>
      <trkpt lat="44.05572" lon="7.21562">
        <ele>1745</ele>
        <time>2018-05-13T05:34:47.000Z</time>
      </trkpt>
      <trkpt lat="44.05557" lon="7.21554">
        <ele>1745</ele>
        <time>2018-05-13T05:34:51.000Z</time>
      </trkpt>
      <trkpt lat="44.05552" lon="7.21551">
        <ele>1745</ele>
        <time>2018-05-13T05:34:52.000Z</time>
      </trkpt>
      <trkpt lat="44.05548" lon="7.21547">
        <ele>1745</ele>
        <time>2018-05-13T05:34:53.000Z</time>
      </trkpt>
      <trkpt lat="44.05541" lon="7.21541">
        <ele>1745</ele>
        <time>2018-05-13T05:34:55.000Z</time>
      </trkpt>
      <trkpt lat="44.05533" lon="7.21536">
        <ele>1745</ele>
        <time>2018-05-13T05:34:59.000Z</time>
      </trkpt>
      <trkpt lat="44.05522" lon="7.2153">
        <ele>1746</ele>
        <time>2018-05-13T05:35:05.000Z</time>
      </trkpt>
      <trkpt lat="44.05515" lon="7.21524">
        <ele>1747</ele>
        <time>2018-05-13T05:35:10.000Z</time>
      </trkpt>
      <trkpt lat="44.05512" lon="7.21522">
        <ele>1748</ele>
        <time>2018-05-13T05:35:12.000Z</time>
      </trkpt>
      <trkpt lat="44.05507" lon="7.21518">
        <ele>1748</ele>
        <time>2018-05-13T05:35:15.000Z</time>
      </trkpt>
      <trkpt lat="44.05498" lon="7.21511">
        <ele>1749</ele>
        <time>2018-05-13T05:35:20.000Z</time>
      </trkpt>
      <trkpt lat="44.05493" lon="7.21507">
        <ele>1749</ele>
        <time>2018-05-13T05:35:23.000Z</time>
      </trkpt>
      <trkpt lat="44.05489" lon="7.21505">
        <ele>1749</ele>
        <time>2018-05-13T05:35:25.000Z</time>
      </trkpt>
      <trkpt lat="44.05481" lon="7.21497">
        <ele>1750</ele>
        <time>2018-05-13T05:35:30.000Z</time>
      </trkpt>
      <trkpt lat="44.05477" lon="7.21494">
        <ele>1749</ele>
        <time>2018-05-13T05:35:33.000Z</time>
      </trkpt>
      <trkpt lat="44.05471" lon="7.21489">
        <ele>1748</ele>
        <time>2018-05-13T05:35:37.000Z</time>
      </trkpt>
      <trkpt lat="44.05469" lon="7.21488">
        <ele>1748</ele>
        <time>2018-05-13T05:35:38.000Z</time>
      </trkpt>
      <trkpt lat="44.05462" lon="7.21483">
        <ele>1747</ele>
        <time>2018-05-13T05:35:43.000Z</time>
      </trkpt>
      <trkpt lat="44.0546" lon="7.2148">
        <ele>1747</ele>
        <time>2018-05-13T05:35:46.000Z</time>
      </trkpt>
      <trkpt lat="44.05454" lon="7.21477">
        <ele>1747</ele>
        <time>2018-05-13T05:35:50.000Z</time>
      </trkpt>
      <trkpt lat="44.05453" lon="7.21475">
        <ele>1747</ele>
        <time>2018-05-13T05:35:51.000Z</time>
      </trkpt>
      <trkpt lat="44.05448" lon="7.21467">
        <ele>1747</ele>
        <time>2018-05-13T05:35:57.000Z</time>
      </trkpt>
      <trkpt lat="44.05446" lon="7.21464">
        <ele>1747</ele>
        <time>2018-05-13T05:35:59.000Z</time>
      </trkpt>
      <trkpt lat="44.05439" lon="7.21453">
        <ele>1747</ele>
        <time>2018-05-13T05:36:04.000Z</time>
      </trkpt>
      <trkpt lat="44.05423" lon="7.21431">
        <ele>1747</ele>
        <time>2018-05-13T05:36:09.000Z</time>
      </trkpt>
      <trkpt lat="44.05418" lon="7.21423">
        <ele>1748</ele>
        <time>2018-05-13T05:36:12.000Z</time>
      </trkpt>
      <trkpt lat="44.05416" lon="7.2142">
        <ele>1745</ele>
        <time>2018-05-13T05:36:13.000Z</time>
      </trkpt>
      <trkpt lat="44.05414" lon="7.21418">
        <ele>1746</ele>
        <time>2018-05-13T05:36:14.000Z</time>
      </trkpt>
      <trkpt lat="44.0541" lon="7.21414">
        <ele>1744</ele>
        <time>2018-05-13T05:36:16.000Z</time>
      </trkpt>
      <trkpt lat="44.05405" lon="7.21409">
        <ele>1741</ele>
        <time>2018-05-13T05:36:18.000Z</time>
      </trkpt>
      <trkpt lat="44.05402" lon="7.21407">
        <ele>1739</ele>
        <time>2018-05-13T05:36:19.000Z</time>
      </trkpt>
      <trkpt lat="44.05399" lon="7.21404">
        <ele>1738</ele>
        <time>2018-05-13T05:36:20.000Z</time>
      </trkpt>
      <trkpt lat="44.05395" lon="7.21397">
        <ele>1736</ele>
        <time>2018-05-13T05:36:22.000Z</time>
      </trkpt>
      <trkpt lat="44.05391" lon="7.21393">
        <ele>1735</ele>
        <time>2018-05-13T05:36:23.000Z</time>
      </trkpt>
      <trkpt lat="44.0539" lon="7.21388">
        <ele>1734</ele>
        <time>2018-05-13T05:36:24.000Z</time>
      </trkpt>
      <trkpt lat="44.05387" lon="7.21386">
        <ele>1734</ele>
        <time>2018-05-13T05:36:25.000Z</time>
      </trkpt>
      <trkpt lat="44.05384" lon="7.21382">
        <ele>1733</ele>
        <time>2018-05-13T05:36:27.000Z</time>
      </trkpt>
      <trkpt lat="44.05383" lon="7.2138">
        <ele>1733</ele>
        <time>2018-05-13T05:36:28.000Z</time>
      </trkpt>
      <trkpt lat="44.05382" lon="7.21377">
        <ele>1733</ele>
        <time>2018-05-13T05:36:29.000Z</time>
      </trkpt>
      <trkpt lat="44.05379" lon="7.21374">
        <ele>1732</ele>
        <time>2018-05-13T05:36:31.000Z</time>
      </trkpt>
      <trkpt lat="44.05374" lon="7.21366">
        <ele>1731</ele>
        <time>2018-05-13T05:36:33.000Z</time>
      </trkpt>
      <trkpt lat="44.05372" lon="7.21363">
        <ele>1731</ele>
        <time>2018-05-13T05:36:34.000Z</time>
      </trkpt>
      <trkpt lat="44.05366" lon="7.21357">
        <ele>1730</ele>
        <time>2018-05-13T05:36:36.000Z</time>
      </trkpt>
      <trkpt lat="44.05358" lon="7.21349">
        <ele>1729</ele>
        <time>2018-05-13T05:36:38.000Z</time>
      </trkpt>
      <trkpt lat="44.05352" lon="7.21343">
        <ele>1728</ele>
        <time>2018-05-13T05:36:40.000Z</time>
      </trkpt>
      <trkpt lat="44.05348" lon="7.21341">
        <ele>1727</ele>
        <time>2018-05-13T05:36:41.000Z</time>
      </trkpt>
      <trkpt lat="44.05346" lon="7.21338">
        <ele>1726</ele>
        <time>2018-05-13T05:36:42.000Z</time>
      </trkpt>
      <trkpt lat="44.05343" lon="7.21335">
        <ele>1726</ele>
        <time>2018-05-13T05:36:43.000Z</time>
      </trkpt>
      <trkpt lat="44.05342" lon="7.21335">
        <ele>1725</ele>
        <time>2018-05-13T05:36:44.000Z</time>
      </trkpt>
      <trkpt lat="44.05339" lon="7.21331">
        <ele>1723</ele>
        <time>2018-05-13T05:36:46.000Z</time>
      </trkpt>
      <trkpt lat="44.05337" lon="7.2133">
        <ele>1723</ele>
        <time>2018-05-13T05:36:47.000Z</time>
      </trkpt>
      <trkpt lat="44.05336" lon="7.21328">
        <ele>1723</ele>
        <time>2018-05-13T05:36:48.000Z</time>
      </trkpt>
      <trkpt lat="44.05331" lon="7.21324">
        <ele>1719</ele>
        <time>2018-05-13T05:36:50.000Z</time>
      </trkpt>
      <trkpt lat="44.05328" lon="7.2132">
        <ele>1718</ele>
        <time>2018-05-13T05:36:52.000Z</time>
      </trkpt>
      <trkpt lat="44.05327" lon="7.21318">
        <ele>1717</ele>
        <time>2018-05-13T05:36:53.000Z</time>
      </trkpt>
      <trkpt lat="44.05324" lon="7.21315">
        <ele>1716</ele>
        <time>2018-05-13T05:36:54.000Z</time>
      </trkpt>
      <trkpt lat="44.05323" lon="7.21312">
        <ele>1716</ele>
        <time>2018-05-13T05:36:55.000Z</time>
      </trkpt>
      <trkpt lat="44.05317" lon="7.21306">
        <ele>1714</ele>
        <time>2018-05-13T05:36:57.000Z</time>
      </trkpt>
      <trkpt lat="44.05314" lon="7.21305">
        <ele>1714</ele>
        <time>2018-05-13T05:36:58.000Z</time>
      </trkpt>
      <trkpt lat="44.05312" lon="7.21304">
        <ele>1714</ele>
        <time>2018-05-13T05:36:59.000Z</time>
      </trkpt>
      <trkpt lat="44.05309" lon="7.21303">
        <ele>1713</ele>
        <time>2018-05-13T05:37:01.000Z</time>
      </trkpt>
      <trkpt lat="44.05306" lon="7.21299">
        <ele>1713</ele>
        <time>2018-05-13T05:37:02.000Z</time>
      </trkpt>
      <trkpt lat="44.05302" lon="7.21295">
        <ele>1712</ele>
        <time>2018-05-13T05:37:03.000Z</time>
      </trkpt>
      <trkpt lat="44.05298" lon="7.2129">
        <ele>1712</ele>
        <time>2018-05-13T05:37:04.000Z</time>
      </trkpt>
      <trkpt lat="44.05292" lon="7.21286">
        <ele>1711</ele>
        <time>2018-05-13T05:37:05.000Z</time>
      </trkpt>
      <trkpt lat="44.05282" lon="7.21278">
        <ele>1711</ele>
        <time>2018-05-13T05:37:07.000Z</time>
      </trkpt>
      <trkpt lat="44.05278" lon="7.21275">
        <ele>1711</ele>
        <time>2018-05-13T05:37:08.000Z</time>
      </trkpt>
      <trkpt lat="44.05275" lon="7.2127">
        <ele>1711</ele>
        <time>2018-05-13T05:37:09.000Z</time>
      </trkpt>
      <trkpt lat="44.0527" lon="7.2126">
        <ele>1711</ele>
        <time>2018-05-13T05:37:11.000Z</time>
      </trkpt>
      <trkpt lat="44.05268" lon="7.21257">
        <ele>1711</ele>
        <time>2018-05-13T05:37:12.000Z</time>
      </trkpt>
      <trkpt lat="44.05264" lon="7.21247">
        <ele>1709</ele>
        <time>2018-05-13T05:37:14.000Z</time>
      </trkpt>
      <trkpt lat="44.0526" lon="7.21242">
        <ele>1709</ele>
        <time>2018-05-13T05:37:16.000Z</time>
      </trkpt>
      <trkpt lat="44.05255" lon="7.21236">
        <ele>1709</ele>
        <time>2018-05-13T05:37:20.000Z</time>
      </trkpt>
      <trkpt lat="44.05253" lon="7.21234">
        <ele>1708</ele>
        <time>2018-05-13T05:37:21.000Z</time>
      </trkpt>
      <trkpt lat="44.05245" lon="7.21224">
        <ele>1708</ele>
        <time>2018-05-13T05:37:28.000Z</time>
      </trkpt>
      <trkpt lat="44.05236" lon="7.21213">
        <ele>1707</ele>
        <time>2018-05-13T05:37:35.000Z</time>
      </trkpt>
      <trkpt lat="44.05224" lon="7.21201">
        <ele>1707</ele>
        <time>2018-05-13T05:37:42.000Z</time>
      </trkpt>
      <trkpt lat="44.05213" lon="7.21183">
        <ele>1708</ele>
        <time>2018-05-13T05:37:48.000Z</time>
      </trkpt>
      <trkpt lat="44.05209" lon="7.21171">
        <ele>1709</ele>
        <time>2018-05-13T05:37:52.000Z</time>
      </trkpt>
      <trkpt lat="44.05208" lon="7.21151">
        <ele>1711</ele>
        <time>2018-05-13T05:37:57.000Z</time>
      </trkpt>
      <trkpt lat="44.05207" lon="7.21147">
        <ele>1711</ele>
        <time>2018-05-13T05:37:58.000Z</time>
      </trkpt>
      <trkpt lat="44.05204" lon="7.21125">
        <ele>1712</ele>
        <time>2018-05-13T05:38:04.000Z</time>
      </trkpt>
      <trkpt lat="44.05197" lon="7.2111">
        <ele>1714</ele>
        <time>2018-05-13T05:38:09.000Z</time>
      </trkpt>
      <trkpt lat="44.0519" lon="7.21093">
        <ele>1717</ele>
        <time>2018-05-13T05:38:14.000Z</time>
      </trkpt>
      <trkpt lat="44.0519" lon="7.21093">
        <ele>1717</ele>
        <time>2018-05-13T05:38:16.000Z</time>
      </trkpt>
      <trkpt lat="44.05189" lon="7.21092">
        <ele>1718</ele>
        <time>2018-05-13T05:38:17.000Z</time>
      </trkpt>
      <trkpt lat="44.05189" lon="7.2109">
        <ele>1718</ele>
        <time>2018-05-13T05:38:20.000Z</time>
      </trkpt>
      <trkpt lat="44.05187" lon="7.21087">
        <ele>1719</ele>
        <time>2018-05-13T05:38:22.000Z</time>
      </trkpt>
      <trkpt lat="44.05185" lon="7.21084">
        <ele>1720</ele>
        <time>2018-05-13T05:38:24.000Z</time>
      </trkpt>
      <trkpt lat="44.05181" lon="7.21079">
        <ele>1723</ele>
        <time>2018-05-13T05:38:28.000Z</time>
      </trkpt>
      <trkpt lat="44.0518" lon="7.21077">
        <ele>1723</ele>
        <time>2018-05-13T05:38:29.000Z</time>
      </trkpt>
      <trkpt lat="44.05175" lon="7.21066">
        <ele>1722</ele>
        <time>2018-05-13T05:38:32.000Z</time>
      </trkpt>
      <trkpt lat="44.05173" lon="7.21061">
        <ele>1721</ele>
        <time>2018-05-13T05:38:33.000Z</time>
      </trkpt>
      <trkpt lat="44.05176" lon="7.21048">
        <ele>1720</ele>
        <time>2018-05-13T05:38:36.000Z</time>
      </trkpt>
      <trkpt lat="44.05181" lon="7.21042">
        <ele>1719</ele>
        <time>2018-05-13T05:38:39.000Z</time>
      </trkpt>
      <trkpt lat="44.05182" lon="7.21039">
        <ele>1719</ele>
        <time>2018-05-13T05:38:40.000Z</time>
      </trkpt>
      <trkpt lat="44.05193" lon="7.21029">
        <ele>1718</ele>
        <time>2018-05-13T05:38:44.000Z</time>
      </trkpt>
      <trkpt lat="44.05195" lon="7.21027">
        <ele>1717</ele>
        <time>2018-05-13T05:38:45.000Z</time>
      </trkpt>
      <trkpt lat="44.05204" lon="7.21024">
        <ele>1715</ele>
        <time>2018-05-13T05:38:48.000Z</time>
      </trkpt>
      <trkpt lat="44.05209" lon="7.21022">
        <ele>1713</ele>
        <time>2018-05-13T05:38:50.000Z</time>
      </trkpt>
      <trkpt lat="44.05213" lon="7.21017">
        <ele>1712</ele>
        <time>2018-05-13T05:38:52.000Z</time>
      </trkpt>
      <trkpt lat="44.05215" lon="7.21013">
        <ele>1711</ele>
        <time>2018-05-13T05:38:54.000Z</time>
      </trkpt>
      <trkpt lat="44.05218" lon="7.21001">
        <ele>1709</ele>
        <time>2018-05-13T05:38:57.000Z</time>
      </trkpt>
      <trkpt lat="44.05218" lon="7.20996">
        <ele>1713</ele>
        <time>2018-05-13T05:38:58.000Z</time>
      </trkpt>
      <trkpt lat="44.05215" lon="7.20984">
        <ele>1715</ele>
        <time>2018-05-13T05:39:01.000Z</time>
      </trkpt>
      <trkpt lat="44.05212" lon="7.20981">
        <ele>1716</ele>
        <time>2018-05-13T05:39:02.000Z</time>
      </trkpt>
      <trkpt lat="44.05209" lon="7.2097">
        <ele>1718</ele>
        <time>2018-05-13T05:39:05.000Z</time>
      </trkpt>
      <trkpt lat="44.05208" lon="7.20966">
        <ele>1719</ele>
        <time>2018-05-13T05:39:07.000Z</time>
      </trkpt>
      <trkpt lat="44.05203" lon="7.20957">
        <ele>1720</ele>
        <time>2018-05-13T05:39:12.000Z</time>
      </trkpt>
      <trkpt lat="44.05202" lon="7.20954">
        <ele>1721</ele>
        <time>2018-05-13T05:39:13.000Z</time>
      </trkpt>
      <trkpt lat="44.05202" lon="7.20949">
        <ele>1721</ele>
        <time>2018-05-13T05:39:16.000Z</time>
      </trkpt>
      <trkpt lat="44.05203" lon="7.20944">
        <ele>1721</ele>
        <time>2018-05-13T05:39:20.000Z</time>
      </trkpt>
      <trkpt lat="44.05205" lon="7.20942">
        <ele>1721</ele>
        <time>2018-05-13T05:39:21.000Z</time>
      </trkpt>
      <trkpt lat="44.05205" lon="7.20941">
        <ele>1721</ele>
        <time>2018-05-13T05:39:23.000Z</time>
      </trkpt>
      <trkpt lat="44.05205" lon="7.20938">
        <ele>1721</ele>
        <time>2018-05-13T05:39:25.000Z</time>
      </trkpt>
      <trkpt lat="44.05207" lon="7.20929">
        <ele>1721</ele>
        <time>2018-05-13T05:39:31.000Z</time>
      </trkpt>
      <trkpt lat="44.05208" lon="7.20924">
        <ele>1721</ele>
        <time>2018-05-13T05:39:37.000Z</time>
      </trkpt>
      <trkpt lat="44.05209" lon="7.20921">
        <ele>1720</ele>
        <time>2018-05-13T05:39:38.000Z</time>
      </trkpt>
      <trkpt lat="44.05214" lon="7.20912">
        <ele>1726</ele>
        <time>2018-05-13T05:39:42.000Z</time>
      </trkpt>
      <trkpt lat="44.0522" lon="7.20903">
        <ele>1724</ele>
        <time>2018-05-13T05:39:46.000Z</time>
      </trkpt>
      <trkpt lat="44.05221" lon="7.20903">
        <ele>1723</ele>
        <time>2018-05-13T05:39:47.000Z</time>
      </trkpt>
      <trkpt lat="44.05222" lon="7.20903">
        <ele>1723</ele>
        <time>2018-05-13T05:39:51.000Z</time>
      </trkpt>
      <trkpt lat="44.05228" lon="7.20903">
        <ele>1721</ele>
        <time>2018-05-13T05:39:55.000Z</time>
      </trkpt>
      <trkpt lat="44.05229" lon="7.20903">
        <ele>1720</ele>
        <time>2018-05-13T05:39:56.000Z</time>
      </trkpt>
      <trkpt lat="44.05229" lon="7.20903">
        <ele>1720</ele>
        <time>2018-05-13T05:40:01.000Z</time>
      </trkpt>
      <trkpt lat="44.05234" lon="7.20903">
        <ele>1718</ele>
        <time>2018-05-13T05:40:05.000Z</time>
      </trkpt>
      <trkpt lat="44.05235" lon="7.20903">
        <ele>1718</ele>
        <time>2018-05-13T05:40:06.000Z</time>
      </trkpt>
      <trkpt lat="44.05237" lon="7.20902">
        <ele>1716</ele>
        <time>2018-05-13T05:40:12.000Z</time>
      </trkpt>
      <trkpt lat="44.0524" lon="7.20899">
        <ele>1717</ele>
        <time>2018-05-13T05:40:19.000Z</time>
      </trkpt>
      <trkpt lat="44.05242" lon="7.20895">
        <ele>1718</ele>
        <time>2018-05-13T05:40:23.000Z</time>
      </trkpt>
      <trkpt lat="44.05243" lon="7.20894">
        <ele>1718</ele>
        <time>2018-05-13T05:40:24.000Z</time>
      </trkpt>
      <trkpt lat="44.05246" lon="7.20891">
        <ele>1719</ele>
        <time>2018-05-13T05:40:25.000Z</time>
      </trkpt>
      <trkpt lat="44.05254" lon="7.20885">
        <ele>1692</ele>
        <time>2018-05-13T05:40:29.000Z</time>
      </trkpt>
      <trkpt lat="44.05256" lon="7.20884">
        <ele>1692</ele>
        <time>2018-05-13T05:40:30.000Z</time>
      </trkpt>
      <trkpt lat="44.05263" lon="7.20885">
        <ele>1691</ele>
        <time>2018-05-13T05:40:33.000Z</time>
      </trkpt>
      <trkpt lat="44.05264" lon="7.20884">
        <ele>1691</ele>
        <time>2018-05-13T05:40:34.000Z</time>
      </trkpt>
      <trkpt lat="44.05266" lon="7.20883">
        <ele>1690</ele>
        <time>2018-05-13T05:40:36.000Z</time>
      </trkpt>
      <trkpt lat="44.0527" lon="7.20882">
        <ele>1689</ele>
        <time>2018-05-13T05:40:40.000Z</time>
      </trkpt>
      <trkpt lat="44.05271" lon="7.20882">
        <ele>1689</ele>
        <time>2018-05-13T05:40:42.000Z</time>
      </trkpt>
      <trkpt lat="44.05276" lon="7.20881">
        <ele>1688</ele>
        <time>2018-05-13T05:40:47.000Z</time>
      </trkpt>
      <trkpt lat="44.05276" lon="7.20881">
        <ele>1688</ele>
        <time>2018-05-13T05:40:48.000Z</time>
      </trkpt>
      <trkpt lat="44.05281" lon="7.20876">
        <ele>1687</ele>
        <time>2018-05-13T05:40:52.000Z</time>
      </trkpt>
      <trkpt lat="44.05282" lon="7.20872">
        <ele>1687</ele>
        <time>2018-05-13T05:40:53.000Z</time>
      </trkpt>
      <trkpt lat="44.05283" lon="7.20859">
        <ele>1688</ele>
        <time>2018-05-13T05:40:56.000Z</time>
      </trkpt>
      <trkpt lat="44.05284" lon="7.20855">
        <ele>1688</ele>
        <time>2018-05-13T05:40:57.000Z</time>
      </trkpt>
      <trkpt lat="44.05285" lon="7.20851">
        <ele>1688</ele>
        <time>2018-05-13T05:40:58.000Z</time>
      </trkpt>
      <trkpt lat="44.05284" lon="7.2082">
        <ele>1695</ele>
        <time>2018-05-13T05:41:05.000Z</time>
      </trkpt>
      <trkpt lat="44.05283" lon="7.20809">
        <ele>1696</ele>
        <time>2018-05-13T05:41:07.000Z</time>
      </trkpt>
      <trkpt lat="44.05283" lon="7.20784">
        <ele>1697</ele>
        <time>2018-05-13T05:41:11.000Z</time>
      </trkpt>
      <trkpt lat="44.05283" lon="7.20769">
        <ele>1698</ele>
        <time>2018-05-13T05:41:13.000Z</time>
      </trkpt>
      <trkpt lat="44.05284" lon="7.20746">
        <ele>1701</ele>
        <time>2018-05-13T05:41:16.000Z</time>
      </trkpt>
      <trkpt lat="44.05284" lon="7.20738">
        <ele>1700</ele>
        <time>2018-05-13T05:41:17.000Z</time>
      </trkpt>
      <trkpt lat="44.05288" lon="7.20722">
        <ele>1698</ele>
        <time>2018-05-13T05:41:19.000Z</time>
      </trkpt>
      <trkpt lat="44.05295" lon="7.20708">
        <ele>1696</ele>
        <time>2018-05-13T05:41:21.000Z</time>
      </trkpt>
      <trkpt lat="44.05304" lon="7.20695">
        <ele>1693</ele>
        <time>2018-05-13T05:41:23.000Z</time>
      </trkpt>
      <trkpt lat="44.05307" lon="7.20689">
        <ele>1692</ele>
        <time>2018-05-13T05:41:24.000Z</time>
      </trkpt>
      <trkpt lat="44.05315" lon="7.20678">
        <ele>1687</ele>
        <time>2018-05-13T05:41:26.000Z</time>
      </trkpt>
      <trkpt lat="44.05317" lon="7.20674">
        <ele>1685</ele>
        <time>2018-05-13T05:41:27.000Z</time>
      </trkpt>
      <trkpt lat="44.05319" lon="7.20668">
        <ele>1684</ele>
        <time>2018-05-13T05:41:28.000Z</time>
      </trkpt>
      <trkpt lat="44.05319" lon="7.20655">
        <ele>1683</ele>
        <time>2018-05-13T05:41:30.000Z</time>
      </trkpt>
      <trkpt lat="44.05318" lon="7.20648">
        <ele>1684</ele>
        <time>2018-05-13T05:41:31.000Z</time>
      </trkpt>
      <trkpt lat="44.05317" lon="7.20641">
        <ele>1685</ele>
        <time>2018-05-13T05:41:32.000Z</time>
      </trkpt>
      <trkpt lat="44.05311" lon="7.20623">
        <ele>1687</ele>
        <time>2018-05-13T05:41:35.000Z</time>
      </trkpt>
      <trkpt lat="44.05308" lon="7.20617">
        <ele>1687</ele>
        <time>2018-05-13T05:41:36.000Z</time>
      </trkpt>
      <trkpt lat="44.05299" lon="7.20603">
        <ele>1688</ele>
        <time>2018-05-13T05:41:39.000Z</time>
      </trkpt>
      <trkpt lat="44.05296" lon="7.20599">
        <ele>1688</ele>
        <time>2018-05-13T05:41:40.000Z</time>
      </trkpt>
      <trkpt lat="44.05271" lon="7.20572">
        <ele>1683</ele>
        <time>2018-05-13T05:41:47.000Z</time>
      </trkpt>
      <trkpt lat="44.0526" lon="7.2056">
        <ele>1683</ele>
        <time>2018-05-13T05:41:50.000Z</time>
      </trkpt>
      <trkpt lat="44.05249" lon="7.20547">
        <ele>1699</ele>
        <time>2018-05-13T05:41:53.000Z</time>
      </trkpt>
      <trkpt lat="44.05245" lon="7.20542">
        <ele>1698</ele>
        <time>2018-05-13T05:41:54.000Z</time>
      </trkpt>
      <trkpt lat="44.05224" lon="7.20509">
        <ele>1694</ele>
        <time>2018-05-13T05:42:00.000Z</time>
      </trkpt>
      <trkpt lat="44.05199" lon="7.20474">
        <ele>1681</ele>
        <time>2018-05-13T05:42:07.000Z</time>
      </trkpt>
      <trkpt lat="44.05196" lon="7.2047">
        <ele>1680</ele>
        <time>2018-05-13T05:42:08.000Z</time>
      </trkpt>
      <trkpt lat="44.05193" lon="7.20466">
        <ele>1680</ele>
        <time>2018-05-13T05:42:09.000Z</time>
      </trkpt>
      <trkpt lat="44.05178" lon="7.20453">
        <ele>1680</ele>
        <time>2018-05-13T05:42:13.000Z</time>
      </trkpt>
      <trkpt lat="44.05174" lon="7.2045">
        <ele>1680</ele>
        <time>2018-05-13T05:42:14.000Z</time>
      </trkpt>
      <trkpt lat="44.05162" lon="7.20441">
        <ele>1699</ele>
        <time>2018-05-13T05:42:17.000Z</time>
      </trkpt>
      <trkpt lat="44.05157" lon="7.20422">
        <ele>1691</ele>
        <time>2018-05-13T05:42:20.000Z</time>
      </trkpt>
      <trkpt lat="44.05157" lon="7.20415">
        <ele>1683</ele>
        <time>2018-05-13T05:42:21.000Z</time>
      </trkpt>
      <trkpt lat="44.05157" lon="7.20408">
        <ele>1684</ele>
        <time>2018-05-13T05:42:22.000Z</time>
      </trkpt>
      <trkpt lat="44.05149" lon="7.20392">
        <ele>1687</ele>
        <time>2018-05-13T05:42:25.000Z</time>
      </trkpt>
      <trkpt lat="44.05146" lon="7.20386">
        <ele>1687</ele>
        <time>2018-05-13T05:42:26.000Z</time>
      </trkpt>
      <trkpt lat="44.05143" lon="7.20379">
        <ele>1687</ele>
        <time>2018-05-13T05:42:27.000Z</time>
      </trkpt>
      <trkpt lat="44.0514" lon="7.20365">
        <ele>1686</ele>
        <time>2018-05-13T05:42:29.000Z</time>
      </trkpt>
      <trkpt lat="44.05129" lon="7.20331">
        <ele>1677</ele>
        <time>2018-05-13T05:42:34.000Z</time>
      </trkpt>
      <trkpt lat="44.05122" lon="7.2031">
        <ele>1679</ele>
        <time>2018-05-13T05:42:37.000Z</time>
      </trkpt>
      <trkpt lat="44.05116" lon="7.20296">
        <ele>1680</ele>
        <time>2018-05-13T05:42:39.000Z</time>
      </trkpt>
      <trkpt lat="44.05114" lon="7.2029">
        <ele>1680</ele>
        <time>2018-05-13T05:42:40.000Z</time>
      </trkpt>
      <trkpt lat="44.05107" lon="7.20267">
        <ele>1682</ele>
        <time>2018-05-13T05:42:43.000Z</time>
      </trkpt>
      <trkpt lat="44.05104" lon="7.2026">
        <ele>1683</ele>
        <time>2018-05-13T05:42:44.000Z</time>
      </trkpt>
      <trkpt lat="44.0509" lon="7.20222">
        <ele>1676</ele>
        <time>2018-05-13T05:42:49.000Z</time>
      </trkpt>
      <trkpt lat="44.05088" lon="7.20216">
        <ele>1675</ele>
        <time>2018-05-13T05:42:50.000Z</time>
      </trkpt>
      <trkpt lat="44.05081" lon="7.20192">
        <ele>1702</ele>
        <time>2018-05-13T05:42:53.000Z</time>
      </trkpt>
      <trkpt lat="44.0508" lon="7.20185">
        <ele>1699</ele>
        <time>2018-05-13T05:42:54.000Z</time>
      </trkpt>
      <trkpt lat="44.05079" lon="7.20177">
        <ele>1695</ele>
        <time>2018-05-13T05:42:55.000Z</time>
      </trkpt>
      <trkpt lat="44.05069" lon="7.20134">
        <ele>1694</ele>
        <time>2018-05-13T05:43:00.000Z</time>
      </trkpt>
      <trkpt lat="44.05059" lon="7.20101">
        <ele>1692</ele>
        <time>2018-05-13T05:43:04.000Z</time>
      </trkpt>
      <trkpt lat="44.05056" lon="7.20086">
        <ele>1692</ele>
        <time>2018-05-13T05:43:06.000Z</time>
      </trkpt>
      <trkpt lat="44.05056" lon="7.20054">
        <ele>1689</ele>
        <time>2018-05-13T05:43:10.000Z</time>
      </trkpt>
      <trkpt lat="44.05057" lon="7.20046">
        <ele>1689</ele>
        <time>2018-05-13T05:43:11.000Z</time>
      </trkpt>
      <trkpt lat="44.05056" lon="7.20038">
        <ele>1689</ele>
        <time>2018-05-13T05:43:12.000Z</time>
      </trkpt>
      <trkpt lat="44.05054" lon="7.20028">
        <ele>1689</ele>
        <time>2018-05-13T05:43:13.000Z</time>
      </trkpt>
      <trkpt lat="44.05057" lon="7.20001">
        <ele>1686</ele>
        <time>2018-05-13T05:43:16.000Z</time>
      </trkpt>
      <trkpt lat="44.05058" lon="7.19984">
        <ele>1687</ele>
        <time>2018-05-13T05:43:18.000Z</time>
      </trkpt>
      <trkpt lat="44.05058" lon="7.19953">
        <ele>1689</ele>
        <time>2018-05-13T05:43:21.000Z</time>
      </trkpt>
      <trkpt lat="44.05058" lon="7.19943">
        <ele>1689</ele>
        <time>2018-05-13T05:43:22.000Z</time>
      </trkpt>
      <trkpt lat="44.05059" lon="7.19934">
        <ele>1688</ele>
        <time>2018-05-13T05:43:23.000Z</time>
      </trkpt>
      <trkpt lat="44.0506" lon="7.19917">
        <ele>1686</ele>
        <time>2018-05-13T05:43:25.000Z</time>
      </trkpt>
      <trkpt lat="44.05063" lon="7.19868">
        <ele>1691</ele>
        <time>2018-05-13T05:43:30.000Z</time>
      </trkpt>
      <trkpt lat="44.0507" lon="7.19826">
        <ele>1685</ele>
        <time>2018-05-13T05:43:34.000Z</time>
      </trkpt>
      <trkpt lat="44.05071" lon="7.19817">
        <ele>1687</ele>
        <time>2018-05-13T05:43:35.000Z</time>
      </trkpt>
      <trkpt lat="44.05076" lon="7.19785">
        <ele>1691</ele>
        <time>2018-05-13T05:43:38.000Z</time>
      </trkpt>
      <trkpt lat="44.05077" lon="7.19773">
        <ele>1689</ele>
        <time>2018-05-13T05:43:39.000Z</time>
      </trkpt>
      <trkpt lat="44.05076" lon="7.19763">
        <ele>1685</ele>
        <time>2018-05-13T05:43:40.000Z</time>
      </trkpt>
      <trkpt lat="44.05074" lon="7.19754">
        <ele>1683</ele>
        <time>2018-05-13T05:43:41.000Z</time>
      </trkpt>
      <trkpt lat="44.05069" lon="7.19734">
        <ele>1692</ele>
        <time>2018-05-13T05:43:43.000Z</time>
      </trkpt>
      <trkpt lat="44.05069" lon="7.19724">
        <ele>1694</ele>
        <time>2018-05-13T05:43:44.000Z</time>
      </trkpt>
      <trkpt lat="44.05072" lon="7.19715">
        <ele>1695</ele>
        <time>2018-05-13T05:43:45.000Z</time>
      </trkpt>
      <trkpt lat="44.05081" lon="7.197">
        <ele>1694</ele>
        <time>2018-05-13T05:43:47.000Z</time>
      </trkpt>
      <trkpt lat="44.05085" lon="7.19693">
        <ele>1661</ele>
        <time>2018-05-13T05:43:48.000Z</time>
      </trkpt>
      <trkpt lat="44.05092" lon="7.19676">
        <ele>1666</ele>
        <time>2018-05-13T05:43:50.000Z</time>
      </trkpt>
      <trkpt lat="44.05095" lon="7.19666">
        <ele>1666</ele>
        <time>2018-05-13T05:43:51.000Z</time>
      </trkpt>
      <trkpt lat="44.05098" lon="7.19657">
        <ele>1663</ele>
        <time>2018-05-13T05:43:52.000Z</time>
      </trkpt>
      <trkpt lat="44.051" lon="7.19647">
        <ele>1660</ele>
        <time>2018-05-13T05:43:53.000Z</time>
      </trkpt>
      <trkpt lat="44.05101" lon="7.19639">
        <ele>1658</ele>
        <time>2018-05-13T05:43:54.000Z</time>
      </trkpt>
      <trkpt lat="44.05101" lon="7.19618">
        <ele>1658</ele>
        <time>2018-05-13T05:43:56.000Z</time>
      </trkpt>
      <trkpt lat="44.05099" lon="7.19608">
        <ele>1660</ele>
        <time>2018-05-13T05:43:57.000Z</time>
      </trkpt>
      <trkpt lat="44.05095" lon="7.19587">
        <ele>1667</ele>
        <time>2018-05-13T05:43:59.000Z</time>
      </trkpt>
      <trkpt lat="44.05094" lon="7.19578">
        <ele>1665</ele>
        <time>2018-05-13T05:44:00.000Z</time>
      </trkpt>
      <trkpt lat="44.05093" lon="7.19565">
        <ele>1659</ele>
        <time>2018-05-13T05:44:01.000Z</time>
      </trkpt>
      <trkpt lat="44.05091" lon="7.19542">
        <ele>1654</ele>
        <time>2018-05-13T05:44:03.000Z</time>
      </trkpt>
      <trkpt lat="44.05089" lon="7.1951">
        <ele>1659</ele>
        <time>2018-05-13T05:44:06.000Z</time>
      </trkpt>
      <trkpt lat="44.05087" lon="7.19499">
        <ele>1662</ele>
        <time>2018-05-13T05:44:07.000Z</time>
      </trkpt>
      <trkpt lat="44.05079" lon="7.19485">
        <ele>1677</ele>
        <time>2018-05-13T05:44:09.000Z</time>
      </trkpt>
      <trkpt lat="44.05071" lon="7.19475">
        <ele>1680</ele>
        <time>2018-05-13T05:44:12.000Z</time>
      </trkpt>
      <trkpt lat="44.05069" lon="7.1947">
        <ele>1681</ele>
        <time>2018-05-13T05:44:15.000Z</time>
      </trkpt>
      <trkpt lat="44.05068" lon="7.19469">
        <ele>1681</ele>
        <time>2018-05-13T05:44:16.000Z</time>
      </trkpt>
      <trkpt lat="44.05066" lon="7.19469">
        <ele>1681</ele>
        <time>2018-05-13T05:44:17.000Z</time>
      </trkpt>
      <trkpt lat="44.05066" lon="7.19468">
        <ele>1681</ele>
        <time>2018-05-13T05:44:19.000Z</time>
      </trkpt>
      <trkpt lat="44.05066" lon="7.19467">
        <ele>1681</ele>
        <time>2018-05-13T05:44:20.000Z</time>
      </trkpt>
      <trkpt lat="44.05063" lon="7.19462">
        <ele>1681</ele>
        <time>2018-05-13T05:44:25.000Z</time>
      </trkpt>
      <trkpt lat="44.05062" lon="7.1946">
        <ele>1681</ele>
        <time>2018-05-13T05:44:27.000Z</time>
      </trkpt>
      <trkpt lat="44.05059" lon="7.19457">
        <ele>1682</ele>
        <time>2018-05-13T05:44:30.000Z</time>
      </trkpt>
      <trkpt lat="44.05055" lon="7.19451">
        <ele>1682</ele>
        <time>2018-05-13T05:44:35.000Z</time>
      </trkpt>
      <trkpt lat="44.0505" lon="7.19443">
        <ele>1683</ele>
        <time>2018-05-13T05:44:41.000Z</time>
      </trkpt>
      <trkpt lat="44.05047" lon="7.1944">
        <ele>1684</ele>
        <time>2018-05-13T05:44:44.000Z</time>
      </trkpt>
      <trkpt lat="44.05043" lon="7.19435">
        <ele>1685</ele>
        <time>2018-05-13T05:44:49.000Z</time>
      </trkpt>
      <trkpt lat="44.0504" lon="7.19429">
        <ele>1686</ele>
        <time>2018-05-13T05:44:54.000Z</time>
      </trkpt>
      <trkpt lat="44.0504" lon="7.19426">
        <ele>1686</ele>
        <time>2018-05-13T05:44:56.000Z</time>
      </trkpt>
      <trkpt lat="44.05038" lon="7.1942">
        <ele>1686</ele>
        <time>2018-05-13T05:45:01.000Z</time>
      </trkpt>
      <trkpt lat="44.05038" lon="7.19418">
        <ele>1686</ele>
        <time>2018-05-13T05:45:02.000Z</time>
      </trkpt>
      <trkpt lat="44.05036" lon="7.19412">
        <ele>1677</ele>
        <time>2018-05-13T05:45:07.000Z</time>
      </trkpt>
      <trkpt lat="44.05035" lon="7.1941">
        <ele>1678</ele>
        <time>2018-05-13T05:45:09.000Z</time>
      </trkpt>
      <trkpt lat="44.05034" lon="7.19406">
        <ele>1678</ele>
        <time>2018-05-13T05:45:12.000Z</time>
      </trkpt>
      <trkpt lat="44.0503" lon="7.194">
        <ele>1679</ele>
        <time>2018-05-13T05:45:18.000Z</time>
      </trkpt>
      <trkpt lat="44.05027" lon="7.19395">
        <ele>1680</ele>
        <time>2018-05-13T05:45:23.000Z</time>
      </trkpt>
      <trkpt lat="44.05026" lon="7.19392">
        <ele>1680</ele>
        <time>2018-05-13T05:45:26.000Z</time>
      </trkpt>
      <trkpt lat="44.05024" lon="7.1939">
        <ele>1681</ele>
        <time>2018-05-13T05:45:28.000Z</time>
      </trkpt>
      <trkpt lat="44.05023" lon="7.19388">
        <ele>1681</ele>
        <time>2018-05-13T05:45:30.000Z</time>
      </trkpt>
      <trkpt lat="44.05022" lon="7.19386">
        <ele>1681</ele>
        <time>2018-05-13T05:45:32.000Z</time>
      </trkpt>
      <trkpt lat="44.05021" lon="7.19385">
        <ele>1681</ele>
        <time>2018-05-13T05:45:34.000Z</time>
      </trkpt>
      <trkpt lat="44.05019" lon="7.19381">
        <ele>1681</ele>
        <time>2018-05-13T05:45:37.000Z</time>
      </trkpt>
      <trkpt lat="44.05017" lon="7.19377">
        <ele>1681</ele>
        <time>2018-05-13T05:45:41.000Z</time>
      </trkpt>
      <trkpt lat="44.05015" lon="7.19372">
        <ele>1681</ele>
        <time>2018-05-13T05:45:44.000Z</time>
      </trkpt>
      <trkpt lat="44.05014" lon="7.19367">
        <ele>1682</ele>
        <time>2018-05-13T05:45:48.000Z</time>
      </trkpt>
      <trkpt lat="44.05013" lon="7.19361">
        <ele>1683</ele>
        <time>2018-05-13T05:45:52.000Z</time>
      </trkpt>
      <trkpt lat="44.05012" lon="7.19354">
        <ele>1684</ele>
        <time>2018-05-13T05:45:56.000Z</time>
      </trkpt>
      <trkpt lat="44.05011" lon="7.19347">
        <ele>1687</ele>
        <time>2018-05-13T05:46:01.000Z</time>
      </trkpt>
      <trkpt lat="44.05011" lon="7.19341">
        <ele>1689</ele>
        <time>2018-05-13T05:46:05.000Z</time>
      </trkpt>
      <trkpt lat="44.05011" lon="7.19337">
        <ele>1690</ele>
        <time>2018-05-13T05:46:08.000Z</time>
      </trkpt>
      <trkpt lat="44.05011" lon="7.19331">
        <ele>1688</ele>
        <time>2018-05-13T05:46:13.000Z</time>
      </trkpt>
      <trkpt lat="44.05011" lon="7.19322">
        <ele>1684</ele>
        <time>2018-05-13T05:46:19.000Z</time>
      </trkpt>
      <trkpt lat="44.05011" lon="7.1932">
        <ele>1682</ele>
        <time>2018-05-13T05:46:21.000Z</time>
      </trkpt>
      <trkpt lat="44.05011" lon="7.19313">
        <ele>1679</ele>
        <time>2018-05-13T05:46:26.000Z</time>
      </trkpt>
      <trkpt lat="44.05011" lon="7.19308">
        <ele>1678</ele>
        <time>2018-05-13T05:46:29.000Z</time>
      </trkpt>
      <trkpt lat="44.0501" lon="7.19303">
        <ele>1676</ele>
        <time>2018-05-13T05:46:33.000Z</time>
      </trkpt>
      <trkpt lat="44.0501" lon="7.19299">
        <ele>1675</ele>
        <time>2018-05-13T05:46:36.000Z</time>
      </trkpt>
      <trkpt lat="44.05008" lon="7.19292">
        <ele>1675</ele>
        <time>2018-05-13T05:46:41.000Z</time>
      </trkpt>
      <trkpt lat="44.05007" lon="7.1929">
        <ele>1675</ele>
        <time>2018-05-13T05:46:43.000Z</time>
      </trkpt>
      <trkpt lat="44.05006" lon="7.19282">
        <ele>1675</ele>
        <time>2018-05-13T05:46:49.000Z</time>
      </trkpt>
      <trkpt lat="44.05005" lon="7.1928">
        <ele>1676</ele>
        <time>2018-05-13T05:46:51.000Z</time>
      </trkpt>
      <trkpt lat="44.05004" lon="7.19276">
        <ele>1677</ele>
        <time>2018-05-13T05:46:54.000Z</time>
      </trkpt>
      <trkpt lat="44.05003" lon="7.1927">
        <ele>1679</ele>
        <time>2018-05-13T05:46:59.000Z</time>
      </trkpt>
      <trkpt lat="44.05003" lon="7.19269">
        <ele>1679</ele>
        <time>2018-05-13T05:47:00.000Z</time>
      </trkpt>
      <trkpt lat="44.05" lon="7.19262">
        <ele>1707</ele>
        <time>2018-05-13T05:47:06.000Z</time>
      </trkpt>
      <trkpt lat="44.04999" lon="7.1926">
        <ele>1706</ele>
        <time>2018-05-13T05:47:07.000Z</time>
      </trkpt>
      <trkpt lat="44.04998" lon="7.19255">
        <ele>1702</ele>
        <time>2018-05-13T05:47:12.000Z</time>
      </trkpt>
      <trkpt lat="44.04997" lon="7.19252">
        <ele>1699</ele>
        <time>2018-05-13T05:47:15.000Z</time>
      </trkpt>
      <trkpt lat="44.04996" lon="7.1925">
        <ele>1698</ele>
        <time>2018-05-13T05:47:17.000Z</time>
      </trkpt>
      <trkpt lat="44.04996" lon="7.19248">
        <ele>1699</ele>
        <time>2018-05-13T05:47:19.000Z</time>
      </trkpt>
      <trkpt lat="44.04994" lon="7.19244">
        <ele>1702</ele>
        <time>2018-05-13T05:47:22.000Z</time>
      </trkpt>
      <trkpt lat="44.04992" lon="7.19241">
        <ele>1705</ele>
        <time>2018-05-13T05:47:25.000Z</time>
      </trkpt>
      <trkpt lat="44.0499" lon="7.19239">
        <ele>1707</ele>
        <time>2018-05-13T05:47:28.000Z</time>
      </trkpt>
      <trkpt lat="44.04989" lon="7.19237">
        <ele>1708</ele>
        <time>2018-05-13T05:47:30.000Z</time>
      </trkpt>
      <trkpt lat="44.04984" lon="7.19231">
        <ele>1712</ele>
        <time>2018-05-13T05:47:37.000Z</time>
      </trkpt>
      <trkpt lat="44.0498" lon="7.19225">
        <ele>1714</ele>
        <time>2018-05-13T05:47:43.000Z</time>
      </trkpt>
      <trkpt lat="44.04978" lon="7.19221">
        <ele>1715</ele>
        <time>2018-05-13T05:47:47.000Z</time>
      </trkpt>
      <trkpt lat="44.04978" lon="7.1922">
        <ele>1715</ele>
        <time>2018-05-13T05:47:48.000Z</time>
      </trkpt>
      <trkpt lat="44.04976" lon="7.19215">
        <ele>1716</ele>
        <time>2018-05-13T05:47:53.000Z</time>
      </trkpt>
      <trkpt lat="44.04975" lon="7.19212">
        <ele>1716</ele>
        <time>2018-05-13T05:47:55.000Z</time>
      </trkpt>
      <trkpt lat="44.04974" lon="7.19209">
        <ele>1716</ele>
        <time>2018-05-13T05:47:58.000Z</time>
      </trkpt>
      <trkpt lat="44.04971" lon="7.19203">
        <ele>1717</ele>
        <time>2018-05-13T05:48:04.000Z</time>
      </trkpt>
      <trkpt lat="44.04968" lon="7.19195">
        <ele>1717</ele>
        <time>2018-05-13T05:48:10.000Z</time>
      </trkpt>
      <trkpt lat="44.04967" lon="7.19193">
        <ele>1717</ele>
        <time>2018-05-13T05:48:12.000Z</time>
      </trkpt>
      <trkpt lat="44.04966" lon="7.19185">
        <ele>1717</ele>
        <time>2018-05-13T05:48:18.000Z</time>
      </trkpt>
      <trkpt lat="44.04965" lon="7.19179">
        <ele>1717</ele>
        <time>2018-05-13T05:48:22.000Z</time>
      </trkpt>
      <trkpt lat="44.04965" lon="7.19176">
        <ele>1717</ele>
        <time>2018-05-13T05:48:25.000Z</time>
      </trkpt>
      <trkpt lat="44.04964" lon="7.19169">
        <ele>1717</ele>
        <time>2018-05-13T05:48:30.000Z</time>
      </trkpt>
      <trkpt lat="44.04964" lon="7.19167">
        <ele>1717</ele>
        <time>2018-05-13T05:48:31.000Z</time>
      </trkpt>
      <trkpt lat="44.04963" lon="7.19156">
        <ele>1713</ele>
        <time>2018-05-13T05:48:39.000Z</time>
      </trkpt>
      <trkpt lat="44.0496" lon="7.1915">
        <ele>1714</ele>
        <time>2018-05-13T05:48:45.000Z</time>
      </trkpt>
      <trkpt lat="44.0496" lon="7.19148">
        <ele>1715</ele>
        <time>2018-05-13T05:48:47.000Z</time>
      </trkpt>
      <trkpt lat="44.04959" lon="7.19145">
        <ele>1715</ele>
        <time>2018-05-13T05:48:49.000Z</time>
      </trkpt>
      <trkpt lat="44.04956" lon="7.19138">
        <ele>1716</ele>
        <time>2018-05-13T05:48:56.000Z</time>
      </trkpt>
      <trkpt lat="44.04954" lon="7.19133">
        <ele>1717</ele>
        <time>2018-05-13T05:49:02.000Z</time>
      </trkpt>
      <trkpt lat="44.04953" lon="7.1913">
        <ele>1717</ele>
        <time>2018-05-13T05:49:05.000Z</time>
      </trkpt>
      <trkpt lat="44.04951" lon="7.19126">
        <ele>1718</ele>
        <time>2018-05-13T05:49:10.000Z</time>
      </trkpt>
      <trkpt lat="44.04951" lon="7.19125">
        <ele>1718</ele>
        <time>2018-05-13T05:49:11.000Z</time>
      </trkpt>
      <trkpt lat="44.04949" lon="7.1912">
        <ele>1718</ele>
        <time>2018-05-13T05:49:15.000Z</time>
      </trkpt>
      <trkpt lat="44.04946" lon="7.19115">
        <ele>1719</ele>
        <time>2018-05-13T05:49:20.000Z</time>
      </trkpt>
      <trkpt lat="44.04945" lon="7.19112">
        <ele>1720</ele>
        <time>2018-05-13T05:49:23.000Z</time>
      </trkpt>
      <trkpt lat="44.04942" lon="7.19108">
        <ele>1721</ele>
        <time>2018-05-13T05:49:27.000Z</time>
      </trkpt>
      <trkpt lat="44.04941" lon="7.19105">
        <ele>1722</ele>
        <time>2018-05-13T05:49:30.000Z</time>
      </trkpt>
      <trkpt lat="44.0494" lon="7.19101">
        <ele>1723</ele>
        <time>2018-05-13T05:49:33.000Z</time>
      </trkpt>
      <trkpt lat="44.04936" lon="7.19093">
        <ele>1726</ele>
        <time>2018-05-13T05:49:40.000Z</time>
      </trkpt>
      <trkpt lat="44.04935" lon="7.19091">
        <ele>1726</ele>
        <time>2018-05-13T05:49:42.000Z</time>
      </trkpt>
      <trkpt lat="44.04933" lon="7.19085">
        <ele>1728</ele>
        <time>2018-05-13T05:49:46.000Z</time>
      </trkpt>
      <trkpt lat="44.04932" lon="7.1908">
        <ele>1728</ele>
        <time>2018-05-13T05:49:49.000Z</time>
      </trkpt>
      <trkpt lat="44.0493" lon="7.19072">
        <ele>1727</ele>
        <time>2018-05-13T05:49:55.000Z</time>
      </trkpt>
      <trkpt lat="44.0493" lon="7.19071">
        <ele>1726</ele>
        <time>2018-05-13T05:49:56.000Z</time>
      </trkpt>
      <trkpt lat="44.04929" lon="7.19062">
        <ele>1724</ele>
        <time>2018-05-13T05:50:02.000Z</time>
      </trkpt>
      <trkpt lat="44.04929" lon="7.1906">
        <ele>1723</ele>
        <time>2018-05-13T05:50:04.000Z</time>
      </trkpt>
      <trkpt lat="44.04929" lon="7.19052">
        <ele>1722</ele>
        <time>2018-05-13T05:50:09.000Z</time>
      </trkpt>
      <trkpt lat="44.04929" lon="7.19048">
        <ele>1721</ele>
        <time>2018-05-13T05:50:11.000Z</time>
      </trkpt>
      <trkpt lat="44.04928" lon="7.19039">
        <ele>1721</ele>
        <time>2018-05-13T05:50:18.000Z</time>
      </trkpt>
      <trkpt lat="44.04928" lon="7.19037">
        <ele>1721</ele>
        <time>2018-05-13T05:50:19.000Z</time>
      </trkpt>
      <trkpt lat="44.04928" lon="7.1903">
        <ele>1721</ele>
        <time>2018-05-13T05:50:24.000Z</time>
      </trkpt>
      <trkpt lat="44.04928" lon="7.19026">
        <ele>1722</ele>
        <time>2018-05-13T05:50:27.000Z</time>
      </trkpt>
      <trkpt lat="44.04928" lon="7.19021">
        <ele>1723</ele>
        <time>2018-05-13T05:50:32.000Z</time>
      </trkpt>
      <trkpt lat="44.04928" lon="7.19019">
        <ele>1723</ele>
        <time>2018-05-13T05:50:34.000Z</time>
      </trkpt>
      <trkpt lat="44.04928" lon="7.19015">
        <ele>1724</ele>
        <time>2018-05-13T05:50:38.000Z</time>
      </trkpt>
      <trkpt lat="44.04927" lon="7.19013">
        <ele>1725</ele>
        <time>2018-05-13T05:50:41.000Z</time>
      </trkpt>
      <trkpt lat="44.04927" lon="7.19011">
        <ele>1725</ele>
        <time>2018-05-13T05:50:42.000Z</time>
      </trkpt>
      <trkpt lat="44.04927" lon="7.1901">
        <ele>1726</ele>
        <time>2018-05-13T05:50:43.000Z</time>
      </trkpt>
      <trkpt lat="44.04927" lon="7.19006">
        <ele>1727</ele>
        <time>2018-05-13T05:50:47.000Z</time>
      </trkpt>
      <trkpt lat="44.04928" lon="7.19003">
        <ele>1727</ele>
        <time>2018-05-13T05:50:49.000Z</time>
      </trkpt>
      <trkpt lat="44.04927" lon="7.18999">
        <ele>1728</ele>
        <time>2018-05-13T05:50:52.000Z</time>
      </trkpt>
      <trkpt lat="44.04928" lon="7.18997">
        <ele>1728</ele>
        <time>2018-05-13T05:50:54.000Z</time>
      </trkpt>
      <trkpt lat="44.04928" lon="7.18991">
        <ele>1727</ele>
        <time>2018-05-13T05:50:59.000Z</time>
      </trkpt>
      <trkpt lat="44.04928" lon="7.1899">
        <ele>1727</ele>
        <time>2018-05-13T05:51:00.000Z</time>
      </trkpt>
      <trkpt lat="44.04929" lon="7.18985">
        <ele>1725</ele>
        <time>2018-05-13T05:51:04.000Z</time>
      </trkpt>
      <trkpt lat="44.04929" lon="7.18983">
        <ele>1725</ele>
        <time>2018-05-13T05:51:06.000Z</time>
      </trkpt>
      <trkpt lat="44.04929" lon="7.18978">
        <ele>1724</ele>
        <time>2018-05-13T05:51:10.000Z</time>
      </trkpt>
      <trkpt lat="44.04929" lon="7.18974">
        <ele>1723</ele>
        <time>2018-05-13T05:51:13.000Z</time>
      </trkpt>
      <trkpt lat="44.04929" lon="7.1897">
        <ele>1723</ele>
        <time>2018-05-13T05:51:16.000Z</time>
      </trkpt>
      <trkpt lat="44.0493" lon="7.18964">
        <ele>1722</ele>
        <time>2018-05-13T05:51:21.000Z</time>
      </trkpt>
      <trkpt lat="44.0493" lon="7.18963">
        <ele>1722</ele>
        <time>2018-05-13T05:51:22.000Z</time>
      </trkpt>
      <trkpt lat="44.04931" lon="7.18958">
        <ele>1722</ele>
        <time>2018-05-13T05:51:26.000Z</time>
      </trkpt>
      <trkpt lat="44.04931" lon="7.18955">
        <ele>1722</ele>
        <time>2018-05-13T05:51:29.000Z</time>
      </trkpt>
      <trkpt lat="44.04932" lon="7.18951">
        <ele>1722</ele>
        <time>2018-05-13T05:51:33.000Z</time>
      </trkpt>
      <trkpt lat="44.04932" lon="7.18949">
        <ele>1722</ele>
        <time>2018-05-13T05:51:35.000Z</time>
      </trkpt>
      <trkpt lat="44.04934" lon="7.18943">
        <ele>1723</ele>
        <time>2018-05-13T05:51:39.000Z</time>
      </trkpt>
      <trkpt lat="44.04935" lon="7.18938">
        <ele>1723</ele>
        <time>2018-05-13T05:51:42.000Z</time>
      </trkpt>
      <trkpt lat="44.04935" lon="7.18935">
        <ele>1723</ele>
        <time>2018-05-13T05:51:44.000Z</time>
      </trkpt>
      <trkpt lat="44.04935" lon="7.18932">
        <ele>1724</ele>
        <time>2018-05-13T05:51:46.000Z</time>
      </trkpt>
      <trkpt lat="44.04936" lon="7.18926">
        <ele>1724</ele>
        <time>2018-05-13T05:51:50.000Z</time>
      </trkpt>
      <trkpt lat="44.04937" lon="7.18921">
        <ele>1724</ele>
        <time>2018-05-13T05:51:53.000Z</time>
      </trkpt>
      <trkpt lat="44.04937" lon="7.18913">
        <ele>1727</ele>
        <time>2018-05-13T05:51:58.000Z</time>
      </trkpt>
      <trkpt lat="44.04937" lon="7.18905">
        <ele>1727</ele>
        <time>2018-05-13T05:52:03.000Z</time>
      </trkpt>
      <trkpt lat="44.04935" lon="7.189">
        <ele>1727</ele>
        <time>2018-05-13T05:52:07.000Z</time>
      </trkpt>
      <trkpt lat="44.04932" lon="7.18897">
        <ele>1727</ele>
        <time>2018-05-13T05:52:10.000Z</time>
      </trkpt>
      <trkpt lat="44.04929" lon="7.18894">
        <ele>1727</ele>
        <time>2018-05-13T05:52:13.000Z</time>
      </trkpt>
      <trkpt lat="44.04927" lon="7.18893">
        <ele>1727</ele>
        <time>2018-05-13T05:52:15.000Z</time>
      </trkpt>
      <trkpt lat="44.04923" lon="7.18892">
        <ele>1728</ele>
        <time>2018-05-13T05:52:19.000Z</time>
      </trkpt>
      <trkpt lat="44.04918" lon="7.18899">
        <ele>1729</ele>
        <time>2018-05-13T05:52:24.000Z</time>
      </trkpt>
      <trkpt lat="44.04916" lon="7.18901">
        <ele>1731</ele>
        <time>2018-05-13T05:52:26.000Z</time>
      </trkpt>
      <trkpt lat="44.04911" lon="7.18906">
        <ele>1732</ele>
        <time>2018-05-13T05:52:30.000Z</time>
      </trkpt>
      <trkpt lat="44.04911" lon="7.18908">
        <ele>1732</ele>
        <time>2018-05-13T05:52:31.000Z</time>
      </trkpt>
      <trkpt lat="44.04907" lon="7.18916">
        <ele>1732</ele>
        <time>2018-05-13T05:52:37.000Z</time>
      </trkpt>
      <trkpt lat="44.04906" lon="7.18921">
        <ele>1734</ele>
        <time>2018-05-13T05:52:41.000Z</time>
      </trkpt>
      <trkpt lat="44.04904" lon="7.18924">
        <ele>1734</ele>
        <time>2018-05-13T05:52:44.000Z</time>
      </trkpt>
      <trkpt lat="44.04903" lon="7.18927">
        <ele>1734</ele>
        <time>2018-05-13T05:52:46.000Z</time>
      </trkpt>
      <trkpt lat="44.04898" lon="7.18932">
        <ele>1735</ele>
        <time>2018-05-13T05:52:51.000Z</time>
      </trkpt>
      <trkpt lat="44.04897" lon="7.18934">
        <ele>1735</ele>
        <time>2018-05-13T05:52:53.000Z</time>
      </trkpt>
      <trkpt lat="44.04894" lon="7.18938">
        <ele>1735</ele>
        <time>2018-05-13T05:52:57.000Z</time>
      </trkpt>
      <trkpt lat="44.04893" lon="7.18939">
        <ele>1735</ele>
        <time>2018-05-13T05:52:58.000Z</time>
      </trkpt>
      <trkpt lat="44.04892" lon="7.1894">
        <ele>1735</ele>
        <time>2018-05-13T05:53:00.000Z</time>
      </trkpt>
      <trkpt lat="44.0489" lon="7.18942">
        <ele>1735</ele>
        <time>2018-05-13T05:53:02.000Z</time>
      </trkpt>
      <trkpt lat="44.04888" lon="7.18944">
        <ele>1735</ele>
        <time>2018-05-13T05:53:04.000Z</time>
      </trkpt>
      <trkpt lat="44.04885" lon="7.18951">
        <ele>1735</ele>
        <time>2018-05-13T05:53:09.000Z</time>
      </trkpt>
      <trkpt lat="44.04885" lon="7.18955">
        <ele>1735</ele>
        <time>2018-05-13T05:53:11.000Z</time>
      </trkpt>
      <trkpt lat="44.04883" lon="7.18961">
        <ele>1735</ele>
        <time>2018-05-13T05:53:14.000Z</time>
      </trkpt>
      <trkpt lat="44.04882" lon="7.18964">
        <ele>1736</ele>
        <time>2018-05-13T05:53:16.000Z</time>
      </trkpt>
      <trkpt lat="44.0488" lon="7.18975">
        <ele>1736</ele>
        <time>2018-05-13T05:53:21.000Z</time>
      </trkpt>
      <trkpt lat="44.04879" lon="7.18977">
        <ele>1736</ele>
        <time>2018-05-13T05:53:24.000Z</time>
      </trkpt>
      <trkpt lat="44.04879" lon="7.18976">
        <ele>1736</ele>
        <time>2018-05-13T05:53:30.000Z</time>
      </trkpt>
      <trkpt lat="44.04879" lon="7.18976">
        <ele>1736</ele>
        <time>2018-05-13T05:53:33.000Z</time>
      </trkpt>
      <trkpt lat="44.04878" lon="7.18977">
        <ele>1736</ele>
        <time>2018-05-13T05:53:39.000Z</time>
      </trkpt>
      <trkpt lat="44.04876" lon="7.18979">
        <ele>1736</ele>
        <time>2018-05-13T05:53:41.000Z</time>
      </trkpt>
      <trkpt lat="44.04875" lon="7.18983">
        <ele>1737</ele>
        <time>2018-05-13T05:53:46.000Z</time>
      </trkpt>
      <trkpt lat="44.04874" lon="7.18984">
        <ele>1737</ele>
        <time>2018-05-13T05:53:47.000Z</time>
      </trkpt>
      <trkpt lat="44.04872" lon="7.18991">
        <ele>1737</ele>
        <time>2018-05-13T05:53:53.000Z</time>
      </trkpt>
      <trkpt lat="44.04871" lon="7.18992">
        <ele>1737</ele>
        <time>2018-05-13T05:53:54.000Z</time>
      </trkpt>
      <trkpt lat="44.04868" lon="7.19002">
        <ele>1743</ele>
        <time>2018-05-13T05:54:00.000Z</time>
      </trkpt>
      <trkpt lat="44.04868" lon="7.19006">
        <ele>1743</ele>
        <time>2018-05-13T05:54:02.000Z</time>
      </trkpt>
      <trkpt lat="44.04867" lon="7.19012">
        <ele>1744</ele>
        <time>2018-05-13T05:54:05.000Z</time>
      </trkpt>
      <trkpt lat="44.04864" lon="7.19026">
        <ele>1745</ele>
        <time>2018-05-13T05:54:12.000Z</time>
      </trkpt>
      <trkpt lat="44.04864" lon="7.19027">
        <ele>1745</ele>
        <time>2018-05-13T05:54:13.000Z</time>
      </trkpt>
      <trkpt lat="44.04861" lon="7.19033">
        <ele>1745</ele>
        <time>2018-05-13T05:54:19.000Z</time>
      </trkpt>
      <trkpt lat="44.0486" lon="7.19034">
        <ele>1745</ele>
        <time>2018-05-13T05:54:20.000Z</time>
      </trkpt>
      <trkpt lat="44.04857" lon="7.1904">
        <ele>1746</ele>
        <time>2018-05-13T05:54:25.000Z</time>
      </trkpt>
      <trkpt lat="44.04856" lon="7.19044">
        <ele>1746</ele>
        <time>2018-05-13T05:54:29.000Z</time>
      </trkpt>
      <trkpt lat="44.04857" lon="7.19046">
        <ele>1747</ele>
        <time>2018-05-13T05:54:32.000Z</time>
      </trkpt>
      <trkpt lat="44.04857" lon="7.19048">
        <ele>1747</ele>
        <time>2018-05-13T05:54:34.000Z</time>
      </trkpt>
      <trkpt lat="44.04857" lon="7.19054">
        <ele>1747</ele>
        <time>2018-05-13T05:54:40.000Z</time>
      </trkpt>
      <trkpt lat="44.04857" lon="7.19054">
        <ele>1747</ele>
        <time>2018-05-13T05:54:41.000Z</time>
      </trkpt>
      <trkpt lat="44.04857" lon="7.19056">
        <ele>1748</ele>
        <time>2018-05-13T05:54:45.000Z</time>
      </trkpt>
      <trkpt lat="44.04857" lon="7.19059">
        <ele>1748</ele>
        <time>2018-05-13T05:54:48.000Z</time>
      </trkpt>
      <trkpt lat="44.04857" lon="7.19062">
        <ele>1748</ele>
        <time>2018-05-13T05:54:51.000Z</time>
      </trkpt>
      <trkpt lat="44.04857" lon="7.19067">
        <ele>1749</ele>
        <time>2018-05-13T05:54:57.000Z</time>
      </trkpt>
      <trkpt lat="44.04856" lon="7.1907">
        <ele>1749</ele>
        <time>2018-05-13T05:54:59.000Z</time>
      </trkpt>
      <trkpt lat="44.04856" lon="7.19076">
        <ele>1750</ele>
        <time>2018-05-13T05:55:05.000Z</time>
      </trkpt>
      <trkpt lat="44.04856" lon="7.19078">
        <ele>1750</ele>
        <time>2018-05-13T05:55:07.000Z</time>
      </trkpt>
      <trkpt lat="44.04856" lon="7.19079">
        <ele>1750</ele>
        <time>2018-05-13T05:55:08.000Z</time>
      </trkpt>
      <trkpt lat="44.04854" lon="7.19083">
        <ele>1757</ele>
        <time>2018-05-13T05:55:12.000Z</time>
      </trkpt>
      <trkpt lat="44.04853" lon="7.19088">
        <ele>1757</ele>
        <time>2018-05-13T05:55:17.000Z</time>
      </trkpt>
      <trkpt lat="44.04851" lon="7.19093">
        <ele>1758</ele>
        <time>2018-05-13T05:55:22.000Z</time>
      </trkpt>
      <trkpt lat="44.0485" lon="7.19094">
        <ele>1758</ele>
        <time>2018-05-13T05:55:24.000Z</time>
      </trkpt>
      <trkpt lat="44.04848" lon="7.19099">
        <ele>1758</ele>
        <time>2018-05-13T05:55:30.000Z</time>
      </trkpt>
      <trkpt lat="44.04847" lon="7.191">
        <ele>1758</ele>
        <time>2018-05-13T05:55:31.000Z</time>
      </trkpt>
      <trkpt lat="44.04845" lon="7.19103">
        <ele>1758</ele>
        <time>2018-05-13T05:55:36.000Z</time>
      </trkpt>
      <trkpt lat="44.04845" lon="7.19104">
        <ele>1758</ele>
        <time>2018-05-13T05:55:37.000Z</time>
      </trkpt>
      <trkpt lat="44.04845" lon="7.19105">
        <ele>1758</ele>
        <time>2018-05-13T05:55:44.000Z</time>
      </trkpt>
      <trkpt lat="44.04843" lon="7.19107">
        <ele>1759</ele>
        <time>2018-05-13T05:55:48.000Z</time>
      </trkpt>
      <trkpt lat="44.04844" lon="7.19107">
        <ele>1759</ele>
        <time>2018-05-13T05:55:49.000Z</time>
      </trkpt>
      <trkpt lat="44.04843" lon="7.1911">
        <ele>1759</ele>
        <time>2018-05-13T05:55:51.000Z</time>
      </trkpt>
      <trkpt lat="44.04841" lon="7.19112">
        <ele>1759</ele>
        <time>2018-05-13T05:55:54.000Z</time>
      </trkpt>
      <trkpt lat="44.0484" lon="7.19115">
        <ele>1759</ele>
        <time>2018-05-13T05:55:57.000Z</time>
      </trkpt>
      <trkpt lat="44.0484" lon="7.19117">
        <ele>1760</ele>
        <time>2018-05-13T05:56:00.000Z</time>
      </trkpt>
      <trkpt lat="44.04838" lon="7.1912">
        <ele>1760</ele>
        <time>2018-05-13T05:56:04.000Z</time>
      </trkpt>
      <trkpt lat="44.04837" lon="7.19121">
        <ele>1760</ele>
        <time>2018-05-13T05:56:06.000Z</time>
      </trkpt>
      <trkpt lat="44.04837" lon="7.19123">
        <ele>1761</ele>
        <time>2018-05-13T05:56:08.000Z</time>
      </trkpt>
      <trkpt lat="44.04836" lon="7.19125">
        <ele>1761</ele>
        <time>2018-05-13T05:56:11.000Z</time>
      </trkpt>
      <trkpt lat="44.04835" lon="7.19128">
        <ele>1761</ele>
        <time>2018-05-13T05:56:14.000Z</time>
      </trkpt>
      <trkpt lat="44.04834" lon="7.19129">
        <ele>1762</ele>
        <time>2018-05-13T05:56:17.000Z</time>
      </trkpt>
      <trkpt lat="44.04832" lon="7.19133">
        <ele>1763</ele>
        <time>2018-05-13T05:56:21.000Z</time>
      </trkpt>
      <trkpt lat="44.04832" lon="7.19135">
        <ele>1763</ele>
        <time>2018-05-13T05:56:23.000Z</time>
      </trkpt>
      <trkpt lat="44.04831" lon="7.19139">
        <ele>1764</ele>
        <time>2018-05-13T05:56:27.000Z</time>
      </trkpt>
      <trkpt lat="44.0483" lon="7.1914">
        <ele>1764</ele>
        <time>2018-05-13T05:56:29.000Z</time>
      </trkpt>
      <trkpt lat="44.04828" lon="7.19144">
        <ele>1765</ele>
        <time>2018-05-13T05:56:34.000Z</time>
      </trkpt>
      <trkpt lat="44.04828" lon="7.19145">
        <ele>1766</ele>
        <time>2018-05-13T05:56:35.000Z</time>
      </trkpt>
      <trkpt lat="44.04829" lon="7.19148">
        <ele>1767</ele>
        <time>2018-05-13T05:56:40.000Z</time>
      </trkpt>
      <trkpt lat="44.04829" lon="7.19152">
        <ele>1768</ele>
        <time>2018-05-13T05:56:45.000Z</time>
      </trkpt>
      <trkpt lat="44.0483" lon="7.19154">
        <ele>1769</ele>
        <time>2018-05-13T05:56:47.000Z</time>
      </trkpt>
      <trkpt lat="44.04831" lon="7.19155">
        <ele>1769</ele>
        <time>2018-05-13T05:56:49.000Z</time>
      </trkpt>
      <trkpt lat="44.04831" lon="7.19158">
        <ele>1770</ele>
        <time>2018-05-13T05:56:51.000Z</time>
      </trkpt>
      <trkpt lat="44.04832" lon="7.19158">
        <ele>1771</ele>
        <time>2018-05-13T05:56:53.000Z</time>
      </trkpt>
      <trkpt lat="44.04832" lon="7.1916">
        <ele>1772</ele>
        <time>2018-05-13T05:56:55.000Z</time>
      </trkpt>
      <trkpt lat="44.04833" lon="7.19164">
        <ele>1774</ele>
        <time>2018-05-13T05:56:59.000Z</time>
      </trkpt>
      <trkpt lat="44.04834" lon="7.19167">
        <ele>1776</ele>
        <time>2018-05-13T05:57:01.000Z</time>
      </trkpt>
      <trkpt lat="44.04835" lon="7.19169">
        <ele>1775</ele>
        <time>2018-05-13T05:57:03.000Z</time>
      </trkpt>
      <trkpt lat="44.04836" lon="7.19171">
        <ele>1775</ele>
        <time>2018-05-13T05:57:05.000Z</time>
      </trkpt>
      <trkpt lat="44.04835" lon="7.19173">
        <ele>1775</ele>
        <time>2018-05-13T05:57:06.000Z</time>
      </trkpt>
      <trkpt lat="44.04836" lon="7.19176">
        <ele>1774</ele>
        <time>2018-05-13T05:57:08.000Z</time>
      </trkpt>
      <trkpt lat="44.04835" lon="7.19177">
        <ele>1774</ele>
        <time>2018-05-13T05:57:09.000Z</time>
      </trkpt>
      <trkpt lat="44.04835" lon="7.19178">
        <ele>1774</ele>
        <time>2018-05-13T05:57:10.000Z</time>
      </trkpt>
      <trkpt lat="44.04837" lon="7.19186">
        <ele>1773</ele>
        <time>2018-05-13T05:57:16.000Z</time>
      </trkpt>
      <trkpt lat="44.04837" lon="7.19189">
        <ele>1773</ele>
        <time>2018-05-13T05:57:18.000Z</time>
      </trkpt>
      <trkpt lat="44.04839" lon="7.19199">
        <ele>1773</ele>
        <time>2018-05-13T05:57:25.000Z</time>
      </trkpt>
      <trkpt lat="44.04839" lon="7.19202">
        <ele>1773</ele>
        <time>2018-05-13T05:57:27.000Z</time>
      </trkpt>
      <trkpt lat="44.04839" lon="7.19207">
        <ele>1773</ele>
        <time>2018-05-13T05:57:31.000Z</time>
      </trkpt>
      <trkpt lat="44.04839" lon="7.19211">
        <ele>1774</ele>
        <time>2018-05-13T05:57:36.000Z</time>
      </trkpt>
      <trkpt lat="44.0484" lon="7.19215">
        <ele>1774</ele>
        <time>2018-05-13T05:57:40.000Z</time>
      </trkpt>
      <trkpt lat="44.0484" lon="7.19219">
        <ele>1775</ele>
        <time>2018-05-13T05:57:44.000Z</time>
      </trkpt>
      <trkpt lat="44.0484" lon="7.19222">
        <ele>1775</ele>
        <time>2018-05-13T05:57:48.000Z</time>
      </trkpt>
      <trkpt lat="44.04839" lon="7.19224">
        <ele>1776</ele>
        <time>2018-05-13T05:57:51.000Z</time>
      </trkpt>
      <trkpt lat="44.04839" lon="7.19226">
        <ele>1776</ele>
        <time>2018-05-13T05:57:54.000Z</time>
      </trkpt>
      <trkpt lat="44.04839" lon="7.1923">
        <ele>1777</ele>
        <time>2018-05-13T05:57:59.000Z</time>
      </trkpt>
      <trkpt lat="44.04839" lon="7.19231">
        <ele>1777</ele>
        <time>2018-05-13T05:58:00.000Z</time>
      </trkpt>
      <trkpt lat="44.0484" lon="7.19234">
        <ele>1778</ele>
        <time>2018-05-13T05:58:04.000Z</time>
      </trkpt>
      <trkpt lat="44.04841" lon="7.19239">
        <ele>1780</ele>
        <time>2018-05-13T05:58:10.000Z</time>
      </trkpt>
      <trkpt lat="44.04843" lon="7.19244">
        <ele>1781</ele>
        <time>2018-05-13T05:58:17.000Z</time>
      </trkpt>
      <trkpt lat="44.04843" lon="7.1925">
        <ele>1781</ele>
        <time>2018-05-13T05:58:23.000Z</time>
      </trkpt>
      <trkpt lat="44.04843" lon="7.19252">
        <ele>1784</ele>
        <time>2018-05-13T05:58:25.000Z</time>
      </trkpt>
      <trkpt lat="44.04843" lon="7.19255">
        <ele>1784</ele>
        <time>2018-05-13T05:58:28.000Z</time>
      </trkpt>
      <trkpt lat="44.04842" lon="7.1926">
        <ele>1783</ele>
        <time>2018-05-13T05:58:33.000Z</time>
      </trkpt>
      <trkpt lat="44.04843" lon="7.19261">
        <ele>1783</ele>
        <time>2018-05-13T05:58:34.000Z</time>
      </trkpt>
      <trkpt lat="44.04842" lon="7.19268">
        <ele>1783</ele>
        <time>2018-05-13T05:58:40.000Z</time>
      </trkpt>
      <trkpt lat="44.04842" lon="7.19271">
        <ele>1782</ele>
        <time>2018-05-13T05:58:42.000Z</time>
      </trkpt>
      <trkpt lat="44.04843" lon="7.19278">
        <ele>1782</ele>
        <time>2018-05-13T05:58:47.000Z</time>
      </trkpt>
      <trkpt lat="44.04843" lon="7.19283">
        <ele>1782</ele>
        <time>2018-05-13T05:58:51.000Z</time>
      </trkpt>
      <trkpt lat="44.04843" lon="7.19289">
        <ele>1782</ele>
        <time>2018-05-13T05:58:55.000Z</time>
      </trkpt>
      <trkpt lat="44.04842" lon="7.19297">
        <ele>1783</ele>
        <time>2018-05-13T05:59:01.000Z</time>
      </trkpt>
      <trkpt lat="44.04841" lon="7.19302">
        <ele>1784</ele>
        <time>2018-05-13T05:59:04.000Z</time>
      </trkpt>
      <trkpt lat="44.04841" lon="7.19309">
        <ele>1785</ele>
        <time>2018-05-13T05:59:09.000Z</time>
      </trkpt>
      <trkpt lat="44.0484" lon="7.19326">
        <ele>1789</ele>
        <time>2018-05-13T05:59:14.000Z</time>
      </trkpt>
      <trkpt lat="44.04836" lon="7.19346">
        <ele>1792</ele>
        <time>2018-05-13T05:59:21.000Z</time>
      </trkpt>
      <trkpt lat="44.04837" lon="7.19362">
        <ele>1790</ele>
        <time>2018-05-13T05:59:27.000Z</time>
      </trkpt>
      <trkpt lat="44.04837" lon="7.19366">
        <ele>1790</ele>
        <time>2018-05-13T05:59:29.000Z</time>
      </trkpt>
      <trkpt lat="44.04837" lon="7.19367">
        <ele>1790</ele>
        <time>2018-05-13T05:59:32.000Z</time>
      </trkpt>
      <trkpt lat="44.04838" lon="7.19373">
        <ele>1791</ele>
        <time>2018-05-13T05:59:37.000Z</time>
      </trkpt>
      <trkpt lat="44.04838" lon="7.19375">
        <ele>1791</ele>
        <time>2018-05-13T05:59:39.000Z</time>
      </trkpt>
      <trkpt lat="44.04839" lon="7.19381">
        <ele>1791</ele>
        <time>2018-05-13T05:59:44.000Z</time>
      </trkpt>
      <trkpt lat="44.04839" lon="7.19391">
        <ele>1793</ele>
        <time>2018-05-13T05:59:51.000Z</time>
      </trkpt>
      <trkpt lat="44.04839" lon="7.19395">
        <ele>1793</ele>
        <time>2018-05-13T05:59:55.000Z</time>
      </trkpt>
      <trkpt lat="44.0484" lon="7.19399">
        <ele>1794</ele>
        <time>2018-05-13T06:00:00.000Z</time>
      </trkpt>
      <trkpt lat="44.0484" lon="7.19401">
        <ele>1795</ele>
        <time>2018-05-13T06:00:02.000Z</time>
      </trkpt>
      <trkpt lat="44.0484" lon="7.19407">
        <ele>1797</ele>
        <time>2018-05-13T06:00:07.000Z</time>
      </trkpt>
      <trkpt lat="44.0484" lon="7.1941">
        <ele>1798</ele>
        <time>2018-05-13T06:00:10.000Z</time>
      </trkpt>
      <trkpt lat="44.04842" lon="7.19418">
        <ele>1800</ele>
        <time>2018-05-13T06:00:15.000Z</time>
      </trkpt>
      <trkpt lat="44.04844" lon="7.19427">
        <ele>1799</ele>
        <time>2018-05-13T06:00:21.000Z</time>
      </trkpt>
      <trkpt lat="44.04845" lon="7.19428">
        <ele>1799</ele>
        <time>2018-05-13T06:00:22.000Z</time>
      </trkpt>
      <trkpt lat="44.04847" lon="7.19434">
        <ele>1798</ele>
        <time>2018-05-13T06:00:27.000Z</time>
      </trkpt>
      <trkpt lat="44.04849" lon="7.1944">
        <ele>1798</ele>
        <time>2018-05-13T06:00:32.000Z</time>
      </trkpt>
      <trkpt lat="44.04849" lon="7.19441">
        <ele>1797</ele>
        <time>2018-05-13T06:00:33.000Z</time>
      </trkpt>
      <trkpt lat="44.04851" lon="7.19447">
        <ele>1797</ele>
        <time>2018-05-13T06:00:39.000Z</time>
      </trkpt>
      <trkpt lat="44.04851" lon="7.19451">
        <ele>1797</ele>
        <time>2018-05-13T06:00:42.000Z</time>
      </trkpt>
      <trkpt lat="44.04853" lon="7.19457">
        <ele>1797</ele>
        <time>2018-05-13T06:00:48.000Z</time>
      </trkpt>
      <trkpt lat="44.04853" lon="7.19465">
        <ele>1798</ele>
        <time>2018-05-13T06:00:55.000Z</time>
      </trkpt>
      <trkpt lat="44.04853" lon="7.19467">
        <ele>1798</ele>
        <time>2018-05-13T06:00:57.000Z</time>
      </trkpt>
      <trkpt lat="44.04853" lon="7.19469">
        <ele>1798</ele>
        <time>2018-05-13T06:00:59.000Z</time>
      </trkpt>
      <trkpt lat="44.04853" lon="7.19477">
        <ele>1799</ele>
        <time>2018-05-13T06:01:07.000Z</time>
      </trkpt>
      <trkpt lat="44.04853" lon="7.19478">
        <ele>1799</ele>
        <time>2018-05-13T06:01:08.000Z</time>
      </trkpt>
      <trkpt lat="44.04853" lon="7.19485">
        <ele>1800</ele>
        <time>2018-05-13T06:01:14.000Z</time>
      </trkpt>
      <trkpt lat="44.04853" lon="7.19486">
        <ele>1800</ele>
        <time>2018-05-13T06:01:15.000Z</time>
      </trkpt>
      <trkpt lat="44.04853" lon="7.1949">
        <ele>1800</ele>
        <time>2018-05-13T06:01:19.000Z</time>
      </trkpt>
      <trkpt lat="44.04853" lon="7.19495">
        <ele>1801</ele>
        <time>2018-05-13T06:01:23.000Z</time>
      </trkpt>
      <trkpt lat="44.04851" lon="7.19503">
        <ele>1805</ele>
        <time>2018-05-13T06:01:29.000Z</time>
      </trkpt>
      <trkpt lat="44.04851" lon="7.19503">
        <ele>1805</ele>
        <time>2018-05-13T06:01:31.000Z</time>
      </trkpt>
      <trkpt lat="44.04851" lon="7.19502">
        <ele>1805</ele>
        <time>2018-05-13T06:01:36.000Z</time>
      </trkpt>
      <trkpt lat="44.04851" lon="7.19503">
        <ele>1805</ele>
        <time>2018-05-13T06:01:43.000Z</time>
      </trkpt>
      <trkpt lat="44.0485" lon="7.19503">
        <ele>1805</ele>
        <time>2018-05-13T06:01:51.000Z</time>
      </trkpt>
      <trkpt lat="44.0485" lon="7.19504">
        <ele>1806</ele>
        <time>2018-05-13T06:02:00.000Z</time>
      </trkpt>
      <trkpt lat="44.04851" lon="7.19503">
        <ele>1805</ele>
        <time>2018-05-13T06:02:08.000Z</time>
      </trkpt>
      <trkpt lat="44.04849" lon="7.19504">
        <ele>1806</ele>
        <time>2018-05-13T06:02:11.000Z</time>
      </trkpt>
      <trkpt lat="44.0485" lon="7.19504">
        <ele>1805</ele>
        <time>2018-05-13T06:02:12.000Z</time>
      </trkpt>
      <trkpt lat="44.0485" lon="7.19504">
        <ele>1805</ele>
        <time>2018-05-13T06:02:17.000Z</time>
      </trkpt>
      <trkpt lat="44.0485" lon="7.19504">
        <ele>1805</ele>
        <time>2018-05-13T06:02:26.000Z</time>
      </trkpt>
      <trkpt lat="44.04852" lon="7.19503">
        <ele>1805</ele>
        <time>2018-05-13T06:02:34.000Z</time>
      </trkpt>
      <trkpt lat="44.04851" lon="7.19504">
        <ele>1805</ele>
        <time>2018-05-13T06:02:36.000Z</time>
      </trkpt>
      <trkpt lat="44.04851" lon="7.19503">
        <ele>1805</ele>
        <time>2018-05-13T06:02:38.000Z</time>
      </trkpt>
      <trkpt lat="44.04852" lon="7.19503">
        <ele>1805</ele>
        <time>2018-05-13T06:02:47.000Z</time>
      </trkpt>
      <trkpt lat="44.04852" lon="7.1951">
        <ele>1805</ele>
        <time>2018-05-13T06:02:54.000Z</time>
      </trkpt>
      <trkpt lat="44.0485" lon="7.19524">
        <ele>1805</ele>
        <time>2018-05-13T06:03:03.000Z</time>
      </trkpt>
      <trkpt lat="44.04852" lon="7.19532">
        <ele>1805</ele>
        <time>2018-05-13T06:03:10.000Z</time>
      </trkpt>
      <trkpt lat="44.04852" lon="7.19535">
        <ele>1805</ele>
        <time>2018-05-13T06:03:12.000Z</time>
      </trkpt>
      <trkpt lat="44.04853" lon="7.19541">
        <ele>1806</ele>
        <time>2018-05-13T06:03:17.000Z</time>
      </trkpt>
      <trkpt lat="44.04853" lon="7.19543">
        <ele>1806</ele>
        <time>2018-05-13T06:03:19.000Z</time>
      </trkpt>
      <trkpt lat="44.04853" lon="7.19545">
        <ele>1806</ele>
        <time>2018-05-13T06:03:21.000Z</time>
      </trkpt>
      <trkpt lat="44.04852" lon="7.19552">
        <ele>1807</ele>
        <time>2018-05-13T06:03:28.000Z</time>
      </trkpt>
      <trkpt lat="44.04852" lon="7.19554">
        <ele>1807</ele>
        <time>2018-05-13T06:03:30.000Z</time>
      </trkpt>
      <trkpt lat="44.04852" lon="7.19564">
        <ele>1808</ele>
        <time>2018-05-13T06:03:37.000Z</time>
      </trkpt>
      <trkpt lat="44.04851" lon="7.19565">
        <ele>1808</ele>
        <time>2018-05-13T06:03:38.000Z</time>
      </trkpt>
      <trkpt lat="44.0485" lon="7.19571">
        <ele>1809</ele>
        <time>2018-05-13T06:03:44.000Z</time>
      </trkpt>
      <trkpt lat="44.04849" lon="7.19574">
        <ele>1810</ele>
        <time>2018-05-13T06:03:46.000Z</time>
      </trkpt>
      <trkpt lat="44.0485" lon="7.19575">
        <ele>1810</ele>
        <time>2018-05-13T06:03:47.000Z</time>
      </trkpt>
      <trkpt lat="44.04849" lon="7.19582">
        <ele>1810</ele>
        <time>2018-05-13T06:03:51.000Z</time>
      </trkpt>
      <trkpt lat="44.04849" lon="7.19584">
        <ele>1813</ele>
        <time>2018-05-13T06:03:52.000Z</time>
      </trkpt>
      <trkpt lat="44.04849" lon="7.19585">
        <ele>1813</ele>
        <time>2018-05-13T06:03:53.000Z</time>
      </trkpt>
      <trkpt lat="44.04848" lon="7.19587">
        <ele>1813</ele>
        <time>2018-05-13T06:03:55.000Z</time>
      </trkpt>
      <trkpt lat="44.04847" lon="7.1959">
        <ele>1813</ele>
        <time>2018-05-13T06:03:57.000Z</time>
      </trkpt>
      <trkpt lat="44.04849" lon="7.19604">
        <ele>1813</ele>
        <time>2018-05-13T06:04:03.000Z</time>
      </trkpt>
      <trkpt lat="44.04849" lon="7.19618">
        <ele>1813</ele>
        <time>2018-05-13T06:04:08.000Z</time>
      </trkpt>
      <trkpt lat="44.04849" lon="7.19623">
        <ele>1813</ele>
        <time>2018-05-13T06:04:10.000Z</time>
      </trkpt>
      <trkpt lat="44.04843" lon="7.19646">
        <ele>1817</ele>
        <time>2018-05-13T06:04:18.000Z</time>
      </trkpt>
      <trkpt lat="44.04839" lon="7.19662">
        <ele>1822</ele>
        <time>2018-05-13T06:04:25.000Z</time>
      </trkpt>
      <trkpt lat="44.04839" lon="7.19664">
        <ele>1823</ele>
        <time>2018-05-13T06:04:26.000Z</time>
      </trkpt>
      <trkpt lat="44.04837" lon="7.19671">
        <ele>1824</ele>
        <time>2018-05-13T06:04:30.000Z</time>
      </trkpt>
      <trkpt lat="44.04835" lon="7.19678">
        <ele>1823</ele>
        <time>2018-05-13T06:04:33.000Z</time>
      </trkpt>
      <trkpt lat="44.04835" lon="7.19682">
        <ele>1822</ele>
        <time>2018-05-13T06:04:35.000Z</time>
      </trkpt>
      <trkpt lat="44.04833" lon="7.19689">
        <ele>1826</ele>
        <time>2018-05-13T06:04:39.000Z</time>
      </trkpt>
      <trkpt lat="44.04833" lon="7.1969">
        <ele>1826</ele>
        <time>2018-05-13T06:04:40.000Z</time>
      </trkpt>
      <trkpt lat="44.04829" lon="7.19699">
        <ele>1826</ele>
        <time>2018-05-13T06:04:46.000Z</time>
      </trkpt>
      <trkpt lat="44.04829" lon="7.197">
        <ele>1826</ele>
        <time>2018-05-13T06:04:47.000Z</time>
      </trkpt>
      <trkpt lat="44.04827" lon="7.19703">
        <ele>1826</ele>
        <time>2018-05-13T06:04:49.000Z</time>
      </trkpt>
      <trkpt lat="44.04824" lon="7.1971">
        <ele>1826</ele>
        <time>2018-05-13T06:04:54.000Z</time>
      </trkpt>
      <trkpt lat="44.04823" lon="7.19711">
        <ele>1827</ele>
        <time>2018-05-13T06:04:55.000Z</time>
      </trkpt>
      <trkpt lat="44.04818" lon="7.1972">
        <ele>1827</ele>
        <time>2018-05-13T06:05:01.000Z</time>
      </trkpt>
      <trkpt lat="44.04813" lon="7.1973">
        <ele>1828</ele>
        <time>2018-05-13T06:05:07.000Z</time>
      </trkpt>
      <trkpt lat="44.04809" lon="7.19738">
        <ele>1828</ele>
        <time>2018-05-13T06:05:13.000Z</time>
      </trkpt>
      <trkpt lat="44.04806" lon="7.19743">
        <ele>1828</ele>
        <time>2018-05-13T06:05:16.000Z</time>
      </trkpt>
      <trkpt lat="44.04806" lon="7.19745">
        <ele>1828</ele>
        <time>2018-05-13T06:05:19.000Z</time>
      </trkpt>
      <trkpt lat="44.04805" lon="7.19747">
        <ele>1828</ele>
        <time>2018-05-13T06:05:21.000Z</time>
      </trkpt>
      <trkpt lat="44.04802" lon="7.19754">
        <ele>1839</ele>
        <time>2018-05-13T06:05:27.000Z</time>
      </trkpt>
      <trkpt lat="44.04802" lon="7.19756">
        <ele>1839</ele>
        <time>2018-05-13T06:05:29.000Z</time>
      </trkpt>
      <trkpt lat="44.04802" lon="7.19759">
        <ele>1839</ele>
        <time>2018-05-13T06:05:32.000Z</time>
      </trkpt>
      <trkpt lat="44.048" lon="7.19763">
        <ele>1839</ele>
        <time>2018-05-13T06:05:36.000Z</time>
      </trkpt>
      <trkpt lat="44.048" lon="7.19765">
        <ele>1839</ele>
        <time>2018-05-13T06:05:37.000Z</time>
      </trkpt>
      <trkpt lat="44.04797" lon="7.1977">
        <ele>1840</ele>
        <time>2018-05-13T06:05:43.000Z</time>
      </trkpt>
      <trkpt lat="44.04793" lon="7.19773">
        <ele>1840</ele>
        <time>2018-05-13T06:05:48.000Z</time>
      </trkpt>
      <trkpt lat="44.04791" lon="7.19776">
        <ele>1840</ele>
        <time>2018-05-13T06:05:52.000Z</time>
      </trkpt>
      <trkpt lat="44.0479" lon="7.19776">
        <ele>1840</ele>
        <time>2018-05-13T06:05:54.000Z</time>
      </trkpt>
      <trkpt lat="44.04788" lon="7.19778">
        <ele>1840</ele>
        <time>2018-05-13T06:05:58.000Z</time>
      </trkpt>
      <trkpt lat="44.04787" lon="7.19778">
        <ele>1840</ele>
        <time>2018-05-13T06:06:00.000Z</time>
      </trkpt>
      <trkpt lat="44.04785" lon="7.19782">
        <ele>1841</ele>
        <time>2018-05-13T06:06:06.000Z</time>
      </trkpt>
      <trkpt lat="44.04785" lon="7.19782">
        <ele>1841</ele>
        <time>2018-05-13T06:06:07.000Z</time>
      </trkpt>
      <trkpt lat="44.04782" lon="7.19786">
        <ele>1841</ele>
        <time>2018-05-13T06:06:13.000Z</time>
      </trkpt>
      <trkpt lat="44.04782" lon="7.19787">
        <ele>1841</ele>
        <time>2018-05-13T06:06:14.000Z</time>
      </trkpt>
      <trkpt lat="44.04779" lon="7.19789">
        <ele>1842</ele>
        <time>2018-05-13T06:06:18.000Z</time>
      </trkpt>
      <trkpt lat="44.04777" lon="7.19793">
        <ele>1842</ele>
        <time>2018-05-13T06:06:23.000Z</time>
      </trkpt>
      <trkpt lat="44.04776" lon="7.19794">
        <ele>1842</ele>
        <time>2018-05-13T06:06:24.000Z</time>
      </trkpt>
      <trkpt lat="44.04773" lon="7.19796">
        <ele>1843</ele>
        <time>2018-05-13T06:06:29.000Z</time>
      </trkpt>
      <trkpt lat="44.04772" lon="7.19797">
        <ele>1843</ele>
        <time>2018-05-13T06:06:31.000Z</time>
      </trkpt>
      <trkpt lat="44.0477" lon="7.19799">
        <ele>1844</ele>
        <time>2018-05-13T06:06:36.000Z</time>
      </trkpt>
      <trkpt lat="44.04768" lon="7.198">
        <ele>1844</ele>
        <time>2018-05-13T06:06:40.000Z</time>
      </trkpt>
      <trkpt lat="44.04767" lon="7.19803">
        <ele>1845</ele>
        <time>2018-05-13T06:06:45.000Z</time>
      </trkpt>
      <trkpt lat="44.04765" lon="7.19804">
        <ele>1845</ele>
        <time>2018-05-13T06:06:48.000Z</time>
      </trkpt>
      <trkpt lat="44.04764" lon="7.19805">
        <ele>1845</ele>
        <time>2018-05-13T06:06:50.000Z</time>
      </trkpt>
      <trkpt lat="44.04761" lon="7.19806">
        <ele>1846</ele>
        <time>2018-05-13T06:06:56.000Z</time>
      </trkpt>
      <trkpt lat="44.04761" lon="7.19806">
        <ele>1846</ele>
        <time>2018-05-13T06:06:57.000Z</time>
      </trkpt>
      <trkpt lat="44.04758" lon="7.19809">
        <ele>1847</ele>
        <time>2018-05-13T06:07:04.000Z</time>
      </trkpt>
      <trkpt lat="44.04757" lon="7.1981">
        <ele>1848</ele>
        <time>2018-05-13T06:07:05.000Z</time>
      </trkpt>
      <trkpt lat="44.04754" lon="7.19811">
        <ele>1848</ele>
        <time>2018-05-13T06:07:10.000Z</time>
      </trkpt>
      <trkpt lat="44.04751" lon="7.19814">
        <ele>1850</ele>
        <time>2018-05-13T06:07:15.000Z</time>
      </trkpt>
      <trkpt lat="44.04749" lon="7.19815">
        <ele>1845</ele>
        <time>2018-05-13T06:07:17.000Z</time>
      </trkpt>
      <trkpt lat="44.04745" lon="7.19819">
        <ele>1846</ele>
        <time>2018-05-13T06:07:23.000Z</time>
      </trkpt>
      <trkpt lat="44.04744" lon="7.19819">
        <ele>1846</ele>
        <time>2018-05-13T06:07:24.000Z</time>
      </trkpt>
      <trkpt lat="44.0474" lon="7.19823">
        <ele>1847</ele>
        <time>2018-05-13T06:07:31.000Z</time>
      </trkpt>
      <trkpt lat="44.04738" lon="7.19824">
        <ele>1846</ele>
        <time>2018-05-13T06:07:34.000Z</time>
      </trkpt>
      <trkpt lat="44.04734" lon="7.19828">
        <ele>1845</ele>
        <time>2018-05-13T06:07:40.000Z</time>
      </trkpt>
      <trkpt lat="44.04733" lon="7.19829">
        <ele>1845</ele>
        <time>2018-05-13T06:07:41.000Z</time>
      </trkpt>
      <trkpt lat="44.0473" lon="7.19832">
        <ele>1844</ele>
        <time>2018-05-13T06:07:47.000Z</time>
      </trkpt>
      <trkpt lat="44.04728" lon="7.19836">
        <ele>1858</ele>
        <time>2018-05-13T06:07:51.000Z</time>
      </trkpt>
      <trkpt lat="44.04726" lon="7.19839">
        <ele>1858</ele>
        <time>2018-05-13T06:07:55.000Z</time>
      </trkpt>
      <trkpt lat="44.04724" lon="7.19841">
        <ele>1858</ele>
        <time>2018-05-13T06:07:58.000Z</time>
      </trkpt>
      <trkpt lat="44.04724" lon="7.19841">
        <ele>1858</ele>
        <time>2018-05-13T06:07:59.000Z</time>
      </trkpt>
      <trkpt lat="44.04722" lon="7.19845">
        <ele>1858</ele>
        <time>2018-05-13T06:08:03.000Z</time>
      </trkpt>
      <trkpt lat="44.04721" lon="7.19849">
        <ele>1858</ele>
        <time>2018-05-13T06:08:08.000Z</time>
      </trkpt>
      <trkpt lat="44.0472" lon="7.19851">
        <ele>1858</ele>
        <time>2018-05-13T06:08:11.000Z</time>
      </trkpt>
      <trkpt lat="44.04719" lon="7.19855">
        <ele>1858</ele>
        <time>2018-05-13T06:08:15.000Z</time>
      </trkpt>
      <trkpt lat="44.04719" lon="7.19857">
        <ele>1858</ele>
        <time>2018-05-13T06:08:18.000Z</time>
      </trkpt>
      <trkpt lat="44.04717" lon="7.19862">
        <ele>1859</ele>
        <time>2018-05-13T06:08:24.000Z</time>
      </trkpt>
      <trkpt lat="44.04713" lon="7.19869">
        <ele>1859</ele>
        <time>2018-05-13T06:08:32.000Z</time>
      </trkpt>
      <trkpt lat="44.04711" lon="7.19871">
        <ele>1859</ele>
        <time>2018-05-13T06:08:34.000Z</time>
      </trkpt>
      <trkpt lat="44.04708" lon="7.19877">
        <ele>1859</ele>
        <time>2018-05-13T06:08:39.000Z</time>
      </trkpt>
      <trkpt lat="44.04706" lon="7.19884">
        <ele>1860</ele>
        <time>2018-05-13T06:08:45.000Z</time>
      </trkpt>
      <trkpt lat="44.04706" lon="7.19886">
        <ele>1860</ele>
        <time>2018-05-13T06:08:47.000Z</time>
      </trkpt>
      <trkpt lat="44.04702" lon="7.19892">
        <ele>1860</ele>
        <time>2018-05-13T06:08:53.000Z</time>
      </trkpt>
      <trkpt lat="44.04702" lon="7.19893">
        <ele>1860</ele>
        <time>2018-05-13T06:08:54.000Z</time>
      </trkpt>
      <trkpt lat="44.047" lon="7.19896">
        <ele>1860</ele>
        <time>2018-05-13T06:08:56.000Z</time>
      </trkpt>
      <trkpt lat="44.04698" lon="7.199">
        <ele>1860</ele>
        <time>2018-05-13T06:09:00.000Z</time>
      </trkpt>
      <trkpt lat="44.04697" lon="7.19903">
        <ele>1860</ele>
        <time>2018-05-13T06:09:02.000Z</time>
      </trkpt>
      <trkpt lat="44.04695" lon="7.19906">
        <ele>1860</ele>
        <time>2018-05-13T06:09:05.000Z</time>
      </trkpt>
      <trkpt lat="44.04694" lon="7.1991">
        <ele>1859</ele>
        <time>2018-05-13T06:09:08.000Z</time>
      </trkpt>
      <trkpt lat="44.0469" lon="7.19918">
        <ele>1869</ele>
        <time>2018-05-13T06:09:15.000Z</time>
      </trkpt>
      <trkpt lat="44.04688" lon="7.19927">
        <ele>1870</ele>
        <time>2018-05-13T06:09:23.000Z</time>
      </trkpt>
      <trkpt lat="44.04688" lon="7.19928">
        <ele>1870</ele>
        <time>2018-05-13T06:09:24.000Z</time>
      </trkpt>
      <trkpt lat="44.04687" lon="7.19932">
        <ele>1870</ele>
        <time>2018-05-13T06:09:27.000Z</time>
      </trkpt>
      <trkpt lat="44.04687" lon="7.19935">
        <ele>1871</ele>
        <time>2018-05-13T06:09:29.000Z</time>
      </trkpt>
      <trkpt lat="44.04687" lon="7.19936">
        <ele>1871</ele>
        <time>2018-05-13T06:09:30.000Z</time>
      </trkpt>
      <trkpt lat="44.04683" lon="7.19945">
        <ele>1872</ele>
        <time>2018-05-13T06:09:37.000Z</time>
      </trkpt>
      <trkpt lat="44.04679" lon="7.19956">
        <ele>1874</ele>
        <time>2018-05-13T06:09:45.000Z</time>
      </trkpt>
      <trkpt lat="44.04679" lon="7.19959">
        <ele>1874</ele>
        <time>2018-05-13T06:09:47.000Z</time>
      </trkpt>
      <trkpt lat="44.04675" lon="7.19968">
        <ele>1875</ele>
        <time>2018-05-13T06:09:54.000Z</time>
      </trkpt>
      <trkpt lat="44.04675" lon="7.19969">
        <ele>1875</ele>
        <time>2018-05-13T06:09:55.000Z</time>
      </trkpt>
      <trkpt lat="44.04673" lon="7.19977">
        <ele>1875</ele>
        <time>2018-05-13T06:10:02.000Z</time>
      </trkpt>
      <trkpt lat="44.0467" lon="7.19985">
        <ele>1874</ele>
        <time>2018-05-13T06:10:08.000Z</time>
      </trkpt>
      <trkpt lat="44.04668" lon="7.19998">
        <ele>1873</ele>
        <time>2018-05-13T06:10:17.000Z</time>
      </trkpt>
      <trkpt lat="44.04664" lon="7.20012">
        <ele>1867</ele>
        <time>2018-05-13T06:10:27.000Z</time>
      </trkpt>
      <trkpt lat="44.04663" lon="7.2002">
        <ele>1865</ele>
        <time>2018-05-13T06:10:32.000Z</time>
      </trkpt>
      <trkpt lat="44.04663" lon="7.20023">
        <ele>1865</ele>
        <time>2018-05-13T06:10:34.000Z</time>
      </trkpt>
      <trkpt lat="44.04662" lon="7.20036">
        <ele>1865</ele>
        <time>2018-05-13T06:10:43.000Z</time>
      </trkpt>
      <trkpt lat="44.04661" lon="7.20037">
        <ele>1865</ele>
        <time>2018-05-13T06:10:44.000Z</time>
      </trkpt>
      <trkpt lat="44.04661" lon="7.20041">
        <ele>1865</ele>
        <time>2018-05-13T06:10:50.000Z</time>
      </trkpt>
      <trkpt lat="44.04661" lon="7.20049">
        <ele>1866</ele>
        <time>2018-05-13T06:10:56.000Z</time>
      </trkpt>
      <trkpt lat="44.0466" lon="7.20056">
        <ele>1868</ele>
        <time>2018-05-13T06:10:59.000Z</time>
      </trkpt>
      <trkpt lat="44.04659" lon="7.20068">
        <ele>1873</ele>
        <time>2018-05-13T06:11:04.000Z</time>
      </trkpt>
      <trkpt lat="44.04656" lon="7.20085">
        <ele>1882</ele>
        <time>2018-05-13T06:11:10.000Z</time>
      </trkpt>
      <trkpt lat="44.04651" lon="7.20107">
        <ele>1879</ele>
        <time>2018-05-13T06:11:18.000Z</time>
      </trkpt>
      <trkpt lat="44.04645" lon="7.20121">
        <ele>1878</ele>
        <time>2018-05-13T06:11:24.000Z</time>
      </trkpt>
      <trkpt lat="44.04639" lon="7.20131">
        <ele>1878</ele>
        <time>2018-05-13T06:11:30.000Z</time>
      </trkpt>
      <trkpt lat="44.04637" lon="7.20133">
        <ele>1878</ele>
        <time>2018-05-13T06:11:31.000Z</time>
      </trkpt>
      <trkpt lat="44.04632" lon="7.20141">
        <ele>1877</ele>
        <time>2018-05-13T06:11:36.000Z</time>
      </trkpt>
      <trkpt lat="44.0463" lon="7.20144">
        <ele>1877</ele>
        <time>2018-05-13T06:11:38.000Z</time>
      </trkpt>
      <trkpt lat="44.04626" lon="7.20153">
        <ele>1877</ele>
        <time>2018-05-13T06:11:43.000Z</time>
      </trkpt>
      <trkpt lat="44.04624" lon="7.20156">
        <ele>1877</ele>
        <time>2018-05-13T06:11:45.000Z</time>
      </trkpt>
      <trkpt lat="44.04617" lon="7.20162">
        <ele>1875</ele>
        <time>2018-05-13T06:11:50.000Z</time>
      </trkpt>
      <trkpt lat="44.04614" lon="7.20166">
        <ele>1875</ele>
        <time>2018-05-13T06:11:53.000Z</time>
      </trkpt>
      <trkpt lat="44.04609" lon="7.20173">
        <ele>1889</ele>
        <time>2018-05-13T06:11:58.000Z</time>
      </trkpt>
      <trkpt lat="44.04604" lon="7.20178">
        <ele>1888</ele>
        <time>2018-05-13T06:12:03.000Z</time>
      </trkpt>
      <trkpt lat="44.04605" lon="7.20178">
        <ele>1888</ele>
        <time>2018-05-13T06:12:05.000Z</time>
      </trkpt>
      <trkpt lat="44.04603" lon="7.20182">
        <ele>1888</ele>
        <time>2018-05-13T06:12:08.000Z</time>
      </trkpt>
      <trkpt lat="44.04602" lon="7.20185">
        <ele>1889</ele>
        <time>2018-05-13T06:12:11.000Z</time>
      </trkpt>
      <trkpt lat="44.04601" lon="7.20186">
        <ele>1889</ele>
        <time>2018-05-13T06:12:12.000Z</time>
      </trkpt>
      <trkpt lat="44.046" lon="7.20187">
        <ele>1889</ele>
        <time>2018-05-13T06:12:14.000Z</time>
      </trkpt>
      <trkpt lat="44.04598" lon="7.2019">
        <ele>1890</ele>
        <time>2018-05-13T06:12:19.000Z</time>
      </trkpt>
      <trkpt lat="44.04596" lon="7.20193">
        <ele>1891</ele>
        <time>2018-05-13T06:12:23.000Z</time>
      </trkpt>
      <trkpt lat="44.04593" lon="7.20197">
        <ele>1892</ele>
        <time>2018-05-13T06:12:31.000Z</time>
      </trkpt>
      <trkpt lat="44.0459" lon="7.20203">
        <ele>1894</ele>
        <time>2018-05-13T06:12:37.000Z</time>
      </trkpt>
      <trkpt lat="44.04589" lon="7.20206">
        <ele>1895</ele>
        <time>2018-05-13T06:12:40.000Z</time>
      </trkpt>
      <trkpt lat="44.04585" lon="7.2021">
        <ele>1896</ele>
        <time>2018-05-13T06:12:44.000Z</time>
      </trkpt>
      <trkpt lat="44.04581" lon="7.20213">
        <ele>1879</ele>
        <time>2018-05-13T06:12:48.000Z</time>
      </trkpt>
      <trkpt lat="44.04577" lon="7.20217">
        <ele>1880</ele>
        <time>2018-05-13T06:12:56.000Z</time>
      </trkpt>
      <trkpt lat="44.0457" lon="7.20221">
        <ele>1881</ele>
        <time>2018-05-13T06:13:01.000Z</time>
      </trkpt>
      <trkpt lat="44.04555" lon="7.20233">
        <ele>1880</ele>
        <time>2018-05-13T06:13:06.000Z</time>
      </trkpt>
      <trkpt lat="44.04542" lon="7.20239">
        <ele>1877</ele>
        <time>2018-05-13T06:13:10.000Z</time>
      </trkpt>
      <trkpt lat="44.04539" lon="7.20241">
        <ele>1877</ele>
        <time>2018-05-13T06:13:11.000Z</time>
      </trkpt>
      <trkpt lat="44.04528" lon="7.20248">
        <ele>1875</ele>
        <time>2018-05-13T06:13:14.000Z</time>
      </trkpt>
      <trkpt lat="44.0452" lon="7.20257">
        <ele>1891</ele>
        <time>2018-05-13T06:13:17.000Z</time>
      </trkpt>
      <trkpt lat="44.04517" lon="7.20259">
        <ele>1890</ele>
        <time>2018-05-13T06:13:18.000Z</time>
      </trkpt>
      <trkpt lat="44.04497" lon="7.20284">
        <ele>1872</ele>
        <time>2018-05-13T06:13:25.000Z</time>
      </trkpt>
      <trkpt lat="44.04492" lon="7.20291">
        <ele>1873</ele>
        <time>2018-05-13T06:13:27.000Z</time>
      </trkpt>
      <trkpt lat="44.04483" lon="7.20311">
        <ele>1878</ele>
        <time>2018-05-13T06:13:32.000Z</time>
      </trkpt>
      <trkpt lat="44.04482" lon="7.20318">
        <ele>1880</ele>
        <time>2018-05-13T06:13:36.000Z</time>
      </trkpt>
      <trkpt lat="44.04481" lon="7.20324">
        <ele>1882</ele>
        <time>2018-05-13T06:13:42.000Z</time>
      </trkpt>
      <trkpt lat="44.04479" lon="7.2033">
        <ele>1882</ele>
        <time>2018-05-13T06:13:48.000Z</time>
      </trkpt>
      <trkpt lat="44.04478" lon="7.20333">
        <ele>1881</ele>
        <time>2018-05-13T06:13:50.000Z</time>
      </trkpt>
      <trkpt lat="44.04478" lon="7.20333">
        <ele>1881</ele>
        <time>2018-05-13T06:13:55.000Z</time>
      </trkpt>
      <trkpt lat="44.04471" lon="7.20339">
        <ele>1897</ele>
        <time>2018-05-13T06:13:59.000Z</time>
      </trkpt>
      <trkpt lat="44.04463" lon="7.2035">
        <ele>1896</ele>
        <time>2018-05-13T06:14:03.000Z</time>
      </trkpt>
      <trkpt lat="44.04451" lon="7.20363">
        <ele>1895</ele>
        <time>2018-05-13T06:14:08.000Z</time>
      </trkpt>
      <trkpt lat="44.04441" lon="7.20372">
        <ele>1895</ele>
        <time>2018-05-13T06:14:14.000Z</time>
      </trkpt>
      <trkpt lat="44.04438" lon="7.20375">
        <ele>1895</ele>
        <time>2018-05-13T06:14:16.000Z</time>
      </trkpt>
      <trkpt lat="44.04433" lon="7.2038">
        <ele>1896</ele>
        <time>2018-05-13T06:14:20.000Z</time>
      </trkpt>
      <trkpt lat="44.04431" lon="7.20383">
        <ele>1896</ele>
        <time>2018-05-13T06:14:22.000Z</time>
      </trkpt>
      <trkpt lat="44.04424" lon="7.2039">
        <ele>1897</ele>
        <time>2018-05-13T06:14:28.000Z</time>
      </trkpt>
      <trkpt lat="44.04423" lon="7.20391">
        <ele>1897</ele>
        <time>2018-05-13T06:14:29.000Z</time>
      </trkpt>
      <trkpt lat="44.04415" lon="7.20398">
        <ele>1885</ele>
        <time>2018-05-13T06:14:34.000Z</time>
      </trkpt>
      <trkpt lat="44.04413" lon="7.20401">
        <ele>1886</ele>
        <time>2018-05-13T06:14:37.000Z</time>
      </trkpt>
      <trkpt lat="44.04412" lon="7.20401">
        <ele>1886</ele>
        <time>2018-05-13T06:14:38.000Z</time>
      </trkpt>
      <trkpt lat="44.04403" lon="7.20409">
        <ele>1886</ele>
        <time>2018-05-13T06:14:44.000Z</time>
      </trkpt>
      <trkpt lat="44.04388" lon="7.2042">
        <ele>1902</ele>
        <time>2018-05-13T06:14:51.000Z</time>
      </trkpt>
      <trkpt lat="44.04377" lon="7.20427">
        <ele>1901</ele>
        <time>2018-05-13T06:14:57.000Z</time>
      </trkpt>
      <trkpt lat="44.04363" lon="7.20435">
        <ele>1899</ele>
        <time>2018-05-13T06:15:05.000Z</time>
      </trkpt>
      <trkpt lat="44.04354" lon="7.20441">
        <ele>1899</ele>
        <time>2018-05-13T06:15:11.000Z</time>
      </trkpt>
      <trkpt lat="44.04353" lon="7.20443">
        <ele>1899</ele>
        <time>2018-05-13T06:15:12.000Z</time>
      </trkpt>
      <trkpt lat="44.04343" lon="7.20447">
        <ele>1898</ele>
        <time>2018-05-13T06:15:18.000Z</time>
      </trkpt>
      <trkpt lat="44.04339" lon="7.2045">
        <ele>1899</ele>
        <time>2018-05-13T06:15:22.000Z</time>
      </trkpt>
      <trkpt lat="44.04338" lon="7.2045">
        <ele>1899</ele>
        <time>2018-05-13T06:15:24.000Z</time>
      </trkpt>
      <trkpt lat="44.04332" lon="7.20452">
        <ele>1894</ele>
        <time>2018-05-13T06:15:31.000Z</time>
      </trkpt>
      <trkpt lat="44.04331" lon="7.20452">
        <ele>1894</ele>
        <time>2018-05-13T06:15:32.000Z</time>
      </trkpt>
      <trkpt lat="44.04325" lon="7.20455">
        <ele>1895</ele>
        <time>2018-05-13T06:15:38.000Z</time>
      </trkpt>
      <trkpt lat="44.04323" lon="7.20456">
        <ele>1895</ele>
        <time>2018-05-13T06:15:41.000Z</time>
      </trkpt>
      <trkpt lat="44.04318" lon="7.20458">
        <ele>1896</ele>
        <time>2018-05-13T06:15:46.000Z</time>
      </trkpt>
      <trkpt lat="44.04316" lon="7.20459">
        <ele>1896</ele>
        <time>2018-05-13T06:15:48.000Z</time>
      </trkpt>
      <trkpt lat="44.0431" lon="7.20463">
        <ele>1897</ele>
        <time>2018-05-13T06:15:55.000Z</time>
      </trkpt>
      <trkpt lat="44.04309" lon="7.20464">
        <ele>1897</ele>
        <time>2018-05-13T06:15:56.000Z</time>
      </trkpt>
      <trkpt lat="44.04302" lon="7.2047">
        <ele>1899</ele>
        <time>2018-05-13T06:16:04.000Z</time>
      </trkpt>
      <trkpt lat="44.04301" lon="7.2047">
        <ele>1899</ele>
        <time>2018-05-13T06:16:05.000Z</time>
      </trkpt>
      <trkpt lat="44.04294" lon="7.20475">
        <ele>1900</ele>
        <time>2018-05-13T06:16:12.000Z</time>
      </trkpt>
      <trkpt lat="44.04292" lon="7.20477">
        <ele>1900</ele>
        <time>2018-05-13T06:16:15.000Z</time>
      </trkpt>
      <trkpt lat="44.04285" lon="7.20479">
        <ele>1901</ele>
        <time>2018-05-13T06:16:21.000Z</time>
      </trkpt>
      <trkpt lat="44.04282" lon="7.20482">
        <ele>1902</ele>
        <time>2018-05-13T06:16:26.000Z</time>
      </trkpt>
      <trkpt lat="44.04278" lon="7.20484">
        <ele>1903</ele>
        <time>2018-05-13T06:16:31.000Z</time>
      </trkpt>
      <trkpt lat="44.04273" lon="7.20485">
        <ele>1904</ele>
        <time>2018-05-13T06:16:36.000Z</time>
      </trkpt>
      <trkpt lat="44.04271" lon="7.20485">
        <ele>1904</ele>
        <time>2018-05-13T06:16:39.000Z</time>
      </trkpt>
      <trkpt lat="44.04266" lon="7.20487">
        <ele>1906</ele>
        <time>2018-05-13T06:16:44.000Z</time>
      </trkpt>
      <trkpt lat="44.04261" lon="7.20488">
        <ele>1908</ele>
        <time>2018-05-13T06:16:49.000Z</time>
      </trkpt>
      <trkpt lat="44.04253" lon="7.20487">
        <ele>1909</ele>
        <time>2018-05-13T06:16:56.000Z</time>
      </trkpt>
      <trkpt lat="44.0425" lon="7.20486">
        <ele>1910</ele>
        <time>2018-05-13T06:16:59.000Z</time>
      </trkpt>
      <trkpt lat="44.04244" lon="7.20484">
        <ele>1910</ele>
        <time>2018-05-13T06:17:05.000Z</time>
      </trkpt>
      <trkpt lat="44.04235" lon="7.20482">
        <ele>1908</ele>
        <time>2018-05-13T06:17:13.000Z</time>
      </trkpt>
      <trkpt lat="44.04233" lon="7.20481">
        <ele>1907</ele>
        <time>2018-05-13T06:17:15.000Z</time>
      </trkpt>
      <trkpt lat="44.04224" lon="7.20479">
        <ele>1906</ele>
        <time>2018-05-13T06:17:22.000Z</time>
      </trkpt>
      <trkpt lat="44.04222" lon="7.20479">
        <ele>1906</ele>
        <time>2018-05-13T06:17:23.000Z</time>
      </trkpt>
      <trkpt lat="44.0422" lon="7.20479">
        <ele>1906</ele>
        <time>2018-05-13T06:17:27.000Z</time>
      </trkpt>
      <trkpt lat="44.04213" lon="7.20476">
        <ele>1906</ele>
        <time>2018-05-13T06:17:31.000Z</time>
      </trkpt>
      <trkpt lat="44.04211" lon="7.20476">
        <ele>1906</ele>
        <time>2018-05-13T06:17:32.000Z</time>
      </trkpt>
      <trkpt lat="44.04198" lon="7.20476">
        <ele>1906</ele>
        <time>2018-05-13T06:17:39.000Z</time>
      </trkpt>
      <trkpt lat="44.04185" lon="7.20478">
        <ele>1908</ele>
        <time>2018-05-13T06:17:46.000Z</time>
      </trkpt>
      <trkpt lat="44.04183" lon="7.20479">
        <ele>1909</ele>
        <time>2018-05-13T06:17:47.000Z</time>
      </trkpt>
      <trkpt lat="44.04173" lon="7.20483">
        <ele>1912</ele>
        <time>2018-05-13T06:17:53.000Z</time>
      </trkpt>
      <trkpt lat="44.04171" lon="7.20484">
        <ele>1913</ele>
        <time>2018-05-13T06:17:54.000Z</time>
      </trkpt>
      <trkpt lat="44.04163" lon="7.20487">
        <ele>1919</ele>
        <time>2018-05-13T06:17:59.000Z</time>
      </trkpt>
      <trkpt lat="44.0416" lon="7.20488">
        <ele>1919</ele>
        <time>2018-05-13T06:18:01.000Z</time>
      </trkpt>
      <trkpt lat="44.04154" lon="7.20492">
        <ele>1919</ele>
        <time>2018-05-13T06:18:06.000Z</time>
      </trkpt>
      <trkpt lat="44.04152" lon="7.20492">
        <ele>1919</ele>
        <time>2018-05-13T06:18:07.000Z</time>
      </trkpt>
      <trkpt lat="44.04148" lon="7.20493">
        <ele>1918</ele>
        <time>2018-05-13T06:18:12.000Z</time>
      </trkpt>
      <trkpt lat="44.04145" lon="7.20493">
        <ele>1918</ele>
        <time>2018-05-13T06:18:15.000Z</time>
      </trkpt>
      <trkpt lat="44.04139" lon="7.20491">
        <ele>1918</ele>
        <time>2018-05-13T06:18:21.000Z</time>
      </trkpt>
      <trkpt lat="44.04138" lon="7.2049">
        <ele>1918</ele>
        <time>2018-05-13T06:18:22.000Z</time>
      </trkpt>
      <trkpt lat="44.04132" lon="7.20488">
        <ele>1918</ele>
        <time>2018-05-13T06:18:29.000Z</time>
      </trkpt>
      <trkpt lat="44.0413" lon="7.20488">
        <ele>1918</ele>
        <time>2018-05-13T06:18:30.000Z</time>
      </trkpt>
      <trkpt lat="44.04118" lon="7.20485">
        <ele>1919</ele>
        <time>2018-05-13T06:18:37.000Z</time>
      </trkpt>
      <trkpt lat="44.04109" lon="7.20486">
        <ele>1921</ele>
        <time>2018-05-13T06:18:41.000Z</time>
      </trkpt>
      <trkpt lat="44.04106" lon="7.20487">
        <ele>1922</ele>
        <time>2018-05-13T06:18:43.000Z</time>
      </trkpt>
      <trkpt lat="44.0409" lon="7.20491">
        <ele>1930</ele>
        <time>2018-05-13T06:18:51.000Z</time>
      </trkpt>
      <trkpt lat="44.04086" lon="7.2049">
        <ele>1931</ele>
        <time>2018-05-13T06:18:53.000Z</time>
      </trkpt>
      <trkpt lat="44.04082" lon="7.20486">
        <ele>1937</ele>
        <time>2018-05-13T06:18:56.000Z</time>
      </trkpt>
      <trkpt lat="44.04081" lon="7.20485">
        <ele>1937</ele>
        <time>2018-05-13T06:18:57.000Z</time>
      </trkpt>
      <trkpt lat="44.0408" lon="7.20483">
        <ele>1936</ele>
        <time>2018-05-13T06:19:02.000Z</time>
      </trkpt>
      <trkpt lat="44.04075" lon="7.20478">
        <ele>1935</ele>
        <time>2018-05-13T06:19:08.000Z</time>
      </trkpt>
      <trkpt lat="44.04074" lon="7.20478">
        <ele>1935</ele>
        <time>2018-05-13T06:19:10.000Z</time>
      </trkpt>
      <trkpt lat="44.04072" lon="7.20475">
        <ele>1935</ele>
        <time>2018-05-13T06:19:14.000Z</time>
      </trkpt>
      <trkpt lat="44.04072" lon="7.20475">
        <ele>1935</ele>
        <time>2018-05-13T06:19:20.000Z</time>
      </trkpt>
      <trkpt lat="44.04068" lon="7.20474">
        <ele>1935</ele>
        <time>2018-05-13T06:19:25.000Z</time>
      </trkpt>
      <trkpt lat="44.04065" lon="7.20472">
        <ele>1934</ele>
        <time>2018-05-13T06:19:30.000Z</time>
      </trkpt>
      <trkpt lat="44.04065" lon="7.20472">
        <ele>1934</ele>
        <time>2018-05-13T06:19:31.000Z</time>
      </trkpt>
      <trkpt lat="44.04063" lon="7.20471">
        <ele>1934</ele>
        <time>2018-05-13T06:19:35.000Z</time>
      </trkpt>
      <trkpt lat="44.04062" lon="7.2047">
        <ele>1934</ele>
        <time>2018-05-13T06:19:36.000Z</time>
      </trkpt>
      <trkpt lat="44.04059" lon="7.20467">
        <ele>1934</ele>
        <time>2018-05-13T06:19:40.000Z</time>
      </trkpt>
      <trkpt lat="44.04055" lon="7.20466">
        <ele>1934</ele>
        <time>2018-05-13T06:19:46.000Z</time>
      </trkpt>
      <trkpt lat="44.04051" lon="7.20464">
        <ele>1934</ele>
        <time>2018-05-13T06:19:51.000Z</time>
      </trkpt>
      <trkpt lat="44.04048" lon="7.20463">
        <ele>1935</ele>
        <time>2018-05-13T06:19:57.000Z</time>
      </trkpt>
      <trkpt lat="44.04047" lon="7.20463">
        <ele>1935</ele>
        <time>2018-05-13T06:19:58.000Z</time>
      </trkpt>
      <trkpt lat="44.04045" lon="7.20462">
        <ele>1935</ele>
        <time>2018-05-13T06:20:03.000Z</time>
      </trkpt>
      <trkpt lat="44.04044" lon="7.20462">
        <ele>1935</ele>
        <time>2018-05-13T06:20:04.000Z</time>
      </trkpt>
      <trkpt lat="44.04046" lon="7.20462">
        <ele>1935</ele>
        <time>2018-05-13T06:20:08.000Z</time>
      </trkpt>
      <trkpt lat="44.04044" lon="7.20462">
        <ele>1935</ele>
        <time>2018-05-13T06:20:09.000Z</time>
      </trkpt>
      <trkpt lat="44.04045" lon="7.20461">
        <ele>1935</ele>
        <time>2018-05-13T06:20:11.000Z</time>
      </trkpt>
      <trkpt lat="44.0404" lon="7.20459">
        <ele>1935</ele>
        <time>2018-05-13T06:20:15.000Z</time>
      </trkpt>
      <trkpt lat="44.0404" lon="7.20459">
        <ele>1935</ele>
        <time>2018-05-13T06:20:18.000Z</time>
      </trkpt>
      <trkpt lat="44.04038" lon="7.20458">
        <ele>1935</ele>
        <time>2018-05-13T06:20:20.000Z</time>
      </trkpt>
      <trkpt lat="44.04036" lon="7.20457">
        <ele>1936</ele>
        <time>2018-05-13T06:20:23.000Z</time>
      </trkpt>
      <trkpt lat="44.04035" lon="7.20456">
        <ele>1936</ele>
        <time>2018-05-13T06:20:26.000Z</time>
      </trkpt>
      <trkpt lat="44.04034" lon="7.20456">
        <ele>1936</ele>
        <time>2018-05-13T06:20:28.000Z</time>
      </trkpt>
      <trkpt lat="44.04032" lon="7.20455">
        <ele>1936</ele>
        <time>2018-05-13T06:20:31.000Z</time>
      </trkpt>
      <trkpt lat="44.04029" lon="7.20454">
        <ele>1936</ele>
        <time>2018-05-13T06:20:35.000Z</time>
      </trkpt>
      <trkpt lat="44.04027" lon="7.20453">
        <ele>1936</ele>
        <time>2018-05-13T06:20:37.000Z</time>
      </trkpt>
      <trkpt lat="44.04024" lon="7.20451">
        <ele>1936</ele>
        <time>2018-05-13T06:20:42.000Z</time>
      </trkpt>
      <trkpt lat="44.04022" lon="7.2045">
        <ele>1936</ele>
        <time>2018-05-13T06:20:46.000Z</time>
      </trkpt>
      <trkpt lat="44.0402" lon="7.20448">
        <ele>1936</ele>
        <time>2018-05-13T06:20:48.000Z</time>
      </trkpt>
      <trkpt lat="44.04017" lon="7.20447">
        <ele>1936</ele>
        <time>2018-05-13T06:20:53.000Z</time>
      </trkpt>
      <trkpt lat="44.04016" lon="7.20446">
        <ele>1936</ele>
        <time>2018-05-13T06:20:54.000Z</time>
      </trkpt>
      <trkpt lat="44.04012" lon="7.20444">
        <ele>1936</ele>
        <time>2018-05-13T06:21:00.000Z</time>
      </trkpt>
      <trkpt lat="44.04009" lon="7.20443">
        <ele>1936</ele>
        <time>2018-05-13T06:21:06.000Z</time>
      </trkpt>
      <trkpt lat="44.04008" lon="7.20442">
        <ele>1936</ele>
        <time>2018-05-13T06:21:07.000Z</time>
      </trkpt>
      <trkpt lat="44.04006" lon="7.20441">
        <ele>1936</ele>
        <time>2018-05-13T06:21:10.000Z</time>
      </trkpt>
      <trkpt lat="44.04003" lon="7.2044">
        <ele>1936</ele>
        <time>2018-05-13T06:21:13.000Z</time>
      </trkpt>
      <trkpt lat="44.04001" lon="7.20439">
        <ele>1936</ele>
        <time>2018-05-13T06:21:17.000Z</time>
      </trkpt>
      <trkpt lat="44.03999" lon="7.20438">
        <ele>1944</ele>
        <time>2018-05-13T06:21:19.000Z</time>
      </trkpt>
      <trkpt lat="44.03997" lon="7.20438">
        <ele>1944</ele>
        <time>2018-05-13T06:21:23.000Z</time>
      </trkpt>
      <trkpt lat="44.03997" lon="7.20438">
        <ele>1944</ele>
        <time>2018-05-13T06:21:24.000Z</time>
      </trkpt>
      <trkpt lat="44.03992" lon="7.20435">
        <ele>1943</ele>
        <time>2018-05-13T06:21:31.000Z</time>
      </trkpt>
      <trkpt lat="44.03991" lon="7.20434">
        <ele>1943</ele>
        <time>2018-05-13T06:21:33.000Z</time>
      </trkpt>
      <trkpt lat="44.0399" lon="7.20433">
        <ele>1943</ele>
        <time>2018-05-13T06:21:38.000Z</time>
      </trkpt>
      <trkpt lat="44.03989" lon="7.20433">
        <ele>1943</ele>
        <time>2018-05-13T06:21:40.000Z</time>
      </trkpt>
      <trkpt lat="44.03986" lon="7.20432">
        <ele>1943</ele>
        <time>2018-05-13T06:21:44.000Z</time>
      </trkpt>
      <trkpt lat="44.03983" lon="7.20429">
        <ele>1943</ele>
        <time>2018-05-13T06:21:49.000Z</time>
      </trkpt>
      <trkpt lat="44.03982" lon="7.20429">
        <ele>1943</ele>
        <time>2018-05-13T06:21:50.000Z</time>
      </trkpt>
      <trkpt lat="44.0398" lon="7.20428">
        <ele>1944</ele>
        <time>2018-05-13T06:21:52.000Z</time>
      </trkpt>
      <trkpt lat="44.03979" lon="7.20427">
        <ele>1944</ele>
        <time>2018-05-13T06:21:56.000Z</time>
      </trkpt>
      <trkpt lat="44.03978" lon="7.20427">
        <ele>1944</ele>
        <time>2018-05-13T06:21:57.000Z</time>
      </trkpt>
      <trkpt lat="44.03975" lon="7.20426">
        <ele>1944</ele>
        <time>2018-05-13T06:22:05.000Z</time>
      </trkpt>
      <trkpt lat="44.03974" lon="7.20426">
        <ele>1944</ele>
        <time>2018-05-13T06:22:07.000Z</time>
      </trkpt>
      <trkpt lat="44.03971" lon="7.20425">
        <ele>1945</ele>
        <time>2018-05-13T06:22:11.000Z</time>
      </trkpt>
      <trkpt lat="44.03969" lon="7.20424">
        <ele>1945</ele>
        <time>2018-05-13T06:22:14.000Z</time>
      </trkpt>
      <trkpt lat="44.03966" lon="7.20422">
        <ele>1945</ele>
        <time>2018-05-13T06:22:19.000Z</time>
      </trkpt>
      <trkpt lat="44.0396" lon="7.20419">
        <ele>1945</ele>
        <time>2018-05-13T06:22:26.000Z</time>
      </trkpt>
      <trkpt lat="44.03957" lon="7.20418">
        <ele>1945</ele>
        <time>2018-05-13T06:22:29.000Z</time>
      </trkpt>
      <trkpt lat="44.03953" lon="7.20415">
        <ele>1931</ele>
        <time>2018-05-13T06:22:35.000Z</time>
      </trkpt>
      <trkpt lat="44.03952" lon="7.20415">
        <ele>1931</ele>
        <time>2018-05-13T06:22:38.000Z</time>
      </trkpt>
      <trkpt lat="44.0395" lon="7.20416">
        <ele>1931</ele>
        <time>2018-05-13T06:22:41.000Z</time>
      </trkpt>
      <trkpt lat="44.03948" lon="7.20416">
        <ele>1932</ele>
        <time>2018-05-13T06:22:44.000Z</time>
      </trkpt>
      <trkpt lat="44.03946" lon="7.20415">
        <ele>1932</ele>
        <time>2018-05-13T06:22:46.000Z</time>
      </trkpt>
      <trkpt lat="44.03945" lon="7.20416">
        <ele>1932</ele>
        <time>2018-05-13T06:22:48.000Z</time>
      </trkpt>
      <trkpt lat="44.03938" lon="7.20417">
        <ele>1945</ele>
        <time>2018-05-13T06:22:56.000Z</time>
      </trkpt>
      <trkpt lat="44.03934" lon="7.20418">
        <ele>1945</ele>
        <time>2018-05-13T06:23:02.000Z</time>
      </trkpt>
      <trkpt lat="44.03933" lon="7.20419">
        <ele>1945</ele>
        <time>2018-05-13T06:23:03.000Z</time>
      </trkpt>
      <trkpt lat="44.0393" lon="7.20427">
        <ele>1945</ele>
        <time>2018-05-13T06:23:09.000Z</time>
      </trkpt>
      <trkpt lat="44.03929" lon="7.20431">
        <ele>1946</ele>
        <time>2018-05-13T06:23:12.000Z</time>
      </trkpt>
      <trkpt lat="44.03928" lon="7.20435">
        <ele>1946</ele>
        <time>2018-05-13T06:23:17.000Z</time>
      </trkpt>
      <trkpt lat="44.03926" lon="7.20444">
        <ele>1947</ele>
        <time>2018-05-13T06:23:22.000Z</time>
      </trkpt>
      <trkpt lat="44.03925" lon="7.20457">
        <ele>1949</ele>
        <time>2018-05-13T06:23:27.000Z</time>
      </trkpt>
      <trkpt lat="44.03924" lon="7.20462">
        <ele>1950</ele>
        <time>2018-05-13T06:23:29.000Z</time>
      </trkpt>
      <trkpt lat="44.03922" lon="7.20483">
        <ele>1953</ele>
        <time>2018-05-13T06:23:36.000Z</time>
      </trkpt>
      <trkpt lat="44.03923" lon="7.20502">
        <ele>1959</ele>
        <time>2018-05-13T06:23:41.000Z</time>
      </trkpt>
      <trkpt lat="44.03918" lon="7.20515">
        <ele>1962</ele>
        <time>2018-05-13T06:23:46.000Z</time>
      </trkpt>
      <trkpt lat="44.03917" lon="7.20518">
        <ele>1951</ele>
        <time>2018-05-13T06:23:47.000Z</time>
      </trkpt>
      <trkpt lat="44.03907" lon="7.20536">
        <ele>1950</ele>
        <time>2018-05-13T06:23:53.000Z</time>
      </trkpt>
      <trkpt lat="44.03906" lon="7.20539">
        <ele>1950</ele>
        <time>2018-05-13T06:23:54.000Z</time>
      </trkpt>
      <trkpt lat="44.03897" lon="7.20556">
        <ele>1951</ele>
        <time>2018-05-13T06:23:59.000Z</time>
      </trkpt>
      <trkpt lat="44.03895" lon="7.20559">
        <ele>1951</ele>
        <time>2018-05-13T06:24:00.000Z</time>
      </trkpt>
      <trkpt lat="44.03884" lon="7.20581">
        <ele>1950</ele>
        <time>2018-05-13T06:24:07.000Z</time>
      </trkpt>
      <trkpt lat="44.03876" lon="7.20595">
        <ele>1958</ele>
        <time>2018-05-13T06:24:13.000Z</time>
      </trkpt>
      <trkpt lat="44.03874" lon="7.206">
        <ele>1957</ele>
        <time>2018-05-13T06:24:15.000Z</time>
      </trkpt>
      <trkpt lat="44.03869" lon="7.20612">
        <ele>1957</ele>
        <time>2018-05-13T06:24:21.000Z</time>
      </trkpt>
      <trkpt lat="44.03868" lon="7.20618">
        <ele>1957</ele>
        <time>2018-05-13T06:24:26.000Z</time>
      </trkpt>
      <trkpt lat="44.03864" lon="7.20625">
        <ele>1957</ele>
        <time>2018-05-13T06:24:32.000Z</time>
      </trkpt>
      <trkpt lat="44.03862" lon="7.20632">
        <ele>1958</ele>
        <time>2018-05-13T06:24:37.000Z</time>
      </trkpt>
      <trkpt lat="44.03861" lon="7.20634">
        <ele>1958</ele>
        <time>2018-05-13T06:24:39.000Z</time>
      </trkpt>
      <trkpt lat="44.03861" lon="7.20636">
        <ele>1958</ele>
        <time>2018-05-13T06:24:41.000Z</time>
      </trkpt>
      <trkpt lat="44.0386" lon="7.20642">
        <ele>1958</ele>
        <time>2018-05-13T06:24:46.000Z</time>
      </trkpt>
      <trkpt lat="44.0386" lon="7.20643">
        <ele>1958</ele>
        <time>2018-05-13T06:24:47.000Z</time>
      </trkpt>
      <trkpt lat="44.03858" lon="7.20647">
        <ele>1958</ele>
        <time>2018-05-13T06:24:51.000Z</time>
      </trkpt>
      <trkpt lat="44.03856" lon="7.20651">
        <ele>1957</ele>
        <time>2018-05-13T06:24:55.000Z</time>
      </trkpt>
      <trkpt lat="44.03854" lon="7.20653">
        <ele>1957</ele>
        <time>2018-05-13T06:24:57.000Z</time>
      </trkpt>
      <trkpt lat="44.03853" lon="7.20654">
        <ele>1956</ele>
        <time>2018-05-13T06:24:59.000Z</time>
      </trkpt>
      <trkpt lat="44.03852" lon="7.20656">
        <ele>1956</ele>
        <time>2018-05-13T06:25:01.000Z</time>
      </trkpt>
      <trkpt lat="44.03851" lon="7.20664">
        <ele>1956</ele>
        <time>2018-05-13T06:25:08.000Z</time>
      </trkpt>
      <trkpt lat="44.03851" lon="7.20665">
        <ele>1956</ele>
        <time>2018-05-13T06:25:09.000Z</time>
      </trkpt>
      <trkpt lat="44.03849" lon="7.2067">
        <ele>1964</ele>
        <time>2018-05-13T06:25:14.000Z</time>
      </trkpt>
      <trkpt lat="44.03849" lon="7.20671">
        <ele>1963</ele>
        <time>2018-05-13T06:25:15.000Z</time>
      </trkpt>
      <trkpt lat="44.03846" lon="7.20679">
        <ele>1964</ele>
        <time>2018-05-13T06:25:23.000Z</time>
      </trkpt>
      <trkpt lat="44.03846" lon="7.20681">
        <ele>1965</ele>
        <time>2018-05-13T06:25:24.000Z</time>
      </trkpt>
      <trkpt lat="44.03842" lon="7.20688">
        <ele>1967</ele>
        <time>2018-05-13T06:25:30.000Z</time>
      </trkpt>
      <trkpt lat="44.03839" lon="7.20695">
        <ele>1968</ele>
        <time>2018-05-13T06:25:35.000Z</time>
      </trkpt>
      <trkpt lat="44.03837" lon="7.207">
        <ele>1970</ele>
        <time>2018-05-13T06:25:39.000Z</time>
      </trkpt>
      <trkpt lat="44.03835" lon="7.20704">
        <ele>1971</ele>
        <time>2018-05-13T06:25:43.000Z</time>
      </trkpt>
      <trkpt lat="44.03833" lon="7.20708">
        <ele>1947</ele>
        <time>2018-05-13T06:25:47.000Z</time>
      </trkpt>
      <trkpt lat="44.03831" lon="7.20715">
        <ele>1948</ele>
        <time>2018-05-13T06:25:53.000Z</time>
      </trkpt>
      <trkpt lat="44.03831" lon="7.20716">
        <ele>1948</ele>
        <time>2018-05-13T06:25:54.000Z</time>
      </trkpt>
      <trkpt lat="44.03829" lon="7.20721">
        <ele>1950</ele>
        <time>2018-05-13T06:25:58.000Z</time>
      </trkpt>
      <trkpt lat="44.03828" lon="7.20724">
        <ele>1951</ele>
        <time>2018-05-13T06:26:01.000Z</time>
      </trkpt>
      <trkpt lat="44.03827" lon="7.20732">
        <ele>1954</ele>
        <time>2018-05-13T06:26:07.000Z</time>
      </trkpt>
      <trkpt lat="44.03826" lon="7.20734">
        <ele>1955</ele>
        <time>2018-05-13T06:26:09.000Z</time>
      </trkpt>
      <trkpt lat="44.03825" lon="7.20741">
        <ele>1959</ele>
        <time>2018-05-13T06:26:15.000Z</time>
      </trkpt>
      <trkpt lat="44.03825" lon="7.20742">
        <ele>1959</ele>
        <time>2018-05-13T06:26:20.000Z</time>
      </trkpt>
      <trkpt lat="44.03825" lon="7.20746">
        <ele>1961</ele>
        <time>2018-05-13T06:26:25.000Z</time>
      </trkpt>
      <trkpt lat="44.03825" lon="7.20746">
        <ele>1961</ele>
        <time>2018-05-13T06:26:26.000Z</time>
      </trkpt>
      <trkpt lat="44.03823" lon="7.20753">
        <ele>1968</ele>
        <time>2018-05-13T06:26:30.000Z</time>
      </trkpt>
      <trkpt lat="44.03819" lon="7.20762">
        <ele>1967</ele>
        <time>2018-05-13T06:26:35.000Z</time>
      </trkpt>
      <trkpt lat="44.03815" lon="7.20772">
        <ele>1966</ele>
        <time>2018-05-13T06:26:40.000Z</time>
      </trkpt>
      <trkpt lat="44.03809" lon="7.20787">
        <ele>1966</ele>
        <time>2018-05-13T06:26:47.000Z</time>
      </trkpt>
      <trkpt lat="44.03799" lon="7.20804">
        <ele>1967</ele>
        <time>2018-05-13T06:26:54.000Z</time>
      </trkpt>
      <trkpt lat="44.0379" lon="7.2082">
        <ele>1967</ele>
        <time>2018-05-13T06:27:01.000Z</time>
      </trkpt>
      <trkpt lat="44.0378" lon="7.20837">
        <ele>1984</ele>
        <time>2018-05-13T06:27:08.000Z</time>
      </trkpt>
      <trkpt lat="44.0377" lon="7.20854">
        <ele>1984</ele>
        <time>2018-05-13T06:27:15.000Z</time>
      </trkpt>
      <trkpt lat="44.03766" lon="7.20862">
        <ele>1986</ele>
        <time>2018-05-13T06:27:19.000Z</time>
      </trkpt>
      <trkpt lat="44.03764" lon="7.20865">
        <ele>1986</ele>
        <time>2018-05-13T06:27:21.000Z</time>
      </trkpt>
      <trkpt lat="44.03761" lon="7.20871">
        <ele>1988</ele>
        <time>2018-05-13T06:27:24.000Z</time>
      </trkpt>
      <trkpt lat="44.03758" lon="7.20876">
        <ele>1990</ele>
        <time>2018-05-13T06:27:27.000Z</time>
      </trkpt>
      <trkpt lat="44.03756" lon="7.20879">
        <ele>1991</ele>
        <time>2018-05-13T06:27:32.000Z</time>
      </trkpt>
      <trkpt lat="44.03755" lon="7.2088">
        <ele>1991</ele>
        <time>2018-05-13T06:27:33.000Z</time>
      </trkpt>
      <trkpt lat="44.03753" lon="7.20883">
        <ele>1992</ele>
        <time>2018-05-13T06:27:39.000Z</time>
      </trkpt>
      <trkpt lat="44.03751" lon="7.20885">
        <ele>1992</ele>
        <time>2018-05-13T06:27:43.000Z</time>
      </trkpt>
      <trkpt lat="44.03751" lon="7.20885">
        <ele>1992</ele>
        <time>2018-05-13T06:27:44.000Z</time>
      </trkpt>
      <trkpt lat="44.03746" lon="7.20889">
        <ele>1979</ele>
        <time>2018-05-13T06:27:51.000Z</time>
      </trkpt>
      <trkpt lat="44.03738" lon="7.20895">
        <ele>1981</ele>
        <time>2018-05-13T06:27:57.000Z</time>
      </trkpt>
      <trkpt lat="44.03735" lon="7.20897">
        <ele>1981</ele>
        <time>2018-05-13T06:27:59.000Z</time>
      </trkpt>
      <trkpt lat="44.03729" lon="7.20898">
        <ele>1980</ele>
        <time>2018-05-13T06:28:03.000Z</time>
      </trkpt>
      <trkpt lat="44.03728" lon="7.20899">
        <ele>1979</ele>
        <time>2018-05-13T06:28:04.000Z</time>
      </trkpt>
      <trkpt lat="44.03717" lon="7.20895">
        <ele>1976</ele>
        <time>2018-05-13T06:28:11.000Z</time>
      </trkpt>
      <trkpt lat="44.03703" lon="7.20891">
        <ele>1973</ele>
        <time>2018-05-13T06:28:19.000Z</time>
      </trkpt>
      <trkpt lat="44.03701" lon="7.20892">
        <ele>1973</ele>
        <time>2018-05-13T06:28:20.000Z</time>
      </trkpt>
      <trkpt lat="44.03686" lon="7.20902">
        <ele>1974</ele>
        <time>2018-05-13T06:28:27.000Z</time>
      </trkpt>
      <trkpt lat="44.03674" lon="7.20908">
        <ele>1977</ele>
        <time>2018-05-13T06:28:31.000Z</time>
      </trkpt>
      <trkpt lat="44.03669" lon="7.20909">
        <ele>1978</ele>
        <time>2018-05-13T06:28:32.000Z</time>
      </trkpt>
      <trkpt lat="44.03661" lon="7.2091">
        <ele>1969</ele>
        <time>2018-05-13T06:28:34.000Z</time>
      </trkpt>
      <trkpt lat="44.03648" lon="7.20912">
        <ele>1961</ele>
        <time>2018-05-13T06:28:38.000Z</time>
      </trkpt>
      <trkpt lat="44.03639" lon="7.20913">
        <ele>1956</ele>
        <time>2018-05-13T06:28:41.000Z</time>
      </trkpt>
      <trkpt lat="44.03635" lon="7.20916">
        <ele>1954</ele>
        <time>2018-05-13T06:28:43.000Z</time>
      </trkpt>
      <trkpt lat="44.03633" lon="7.20917">
        <ele>1980</ele>
        <time>2018-05-13T06:28:44.000Z</time>
      </trkpt>
      <trkpt lat="44.03624" lon="7.20923">
        <ele>1978</ele>
        <time>2018-05-13T06:28:48.000Z</time>
      </trkpt>
      <trkpt lat="44.03609" lon="7.20935">
        <ele>1975</ele>
        <time>2018-05-13T06:28:53.000Z</time>
      </trkpt>
      <trkpt lat="44.03608" lon="7.2094">
        <ele>1977</ele>
        <time>2018-05-13T06:28:55.000Z</time>
      </trkpt>
      <trkpt lat="44.03607" lon="7.20949">
        <ele>1980</ele>
        <time>2018-05-13T06:28:58.000Z</time>
      </trkpt>
      <trkpt lat="44.03604" lon="7.20956">
        <ele>1982</ele>
        <time>2018-05-13T06:29:01.000Z</time>
      </trkpt>
      <trkpt lat="44.03604" lon="7.20962">
        <ele>1983</ele>
        <time>2018-05-13T06:29:05.000Z</time>
      </trkpt>
      <trkpt lat="44.03602" lon="7.2097">
        <ele>1986</ele>
        <time>2018-05-13T06:29:11.000Z</time>
      </trkpt>
      <trkpt lat="44.03602" lon="7.20973">
        <ele>1986</ele>
        <time>2018-05-13T06:29:13.000Z</time>
      </trkpt>
      <trkpt lat="44.03601" lon="7.20976">
        <ele>1987</ele>
        <time>2018-05-13T06:29:15.000Z</time>
      </trkpt>
      <trkpt lat="44.03597" lon="7.20982">
        <ele>1988</ele>
        <time>2018-05-13T06:29:19.000Z</time>
      </trkpt>
      <trkpt lat="44.03591" lon="7.20986">
        <ele>1989</ele>
        <time>2018-05-13T06:29:24.000Z</time>
      </trkpt>
      <trkpt lat="44.03589" lon="7.20988">
        <ele>1989</ele>
        <time>2018-05-13T06:29:26.000Z</time>
      </trkpt>
      <trkpt lat="44.03584" lon="7.20996">
        <ele>1991</ele>
        <time>2018-05-13T06:29:35.000Z</time>
      </trkpt>
      <trkpt lat="44.0358" lon="7.21002">
        <ele>1993</ele>
        <time>2018-05-13T06:29:41.000Z</time>
      </trkpt>
      <trkpt lat="44.03575" lon="7.21005">
        <ele>1994</ele>
        <time>2018-05-13T06:29:46.000Z</time>
      </trkpt>
      <trkpt lat="44.03574" lon="7.21005">
        <ele>1994</ele>
        <time>2018-05-13T06:29:47.000Z</time>
      </trkpt>
      <trkpt lat="44.03571" lon="7.21007">
        <ele>1995</ele>
        <time>2018-05-13T06:29:52.000Z</time>
      </trkpt>
      <trkpt lat="44.03569" lon="7.21007">
        <ele>1995</ele>
        <time>2018-05-13T06:29:56.000Z</time>
      </trkpt>
      <trkpt lat="44.03567" lon="7.21007">
        <ele>1995</ele>
        <time>2018-05-13T06:29:58.000Z</time>
      </trkpt>
      <trkpt lat="44.03562" lon="7.21007">
        <ele>1995</ele>
        <time>2018-05-13T06:30:04.000Z</time>
      </trkpt>
      <trkpt lat="44.03559" lon="7.2101">
        <ele>1995</ele>
        <time>2018-05-13T06:30:09.000Z</time>
      </trkpt>
      <trkpt lat="44.03558" lon="7.21011">
        <ele>1995</ele>
        <time>2018-05-13T06:30:10.000Z</time>
      </trkpt>
      <trkpt lat="44.03552" lon="7.21019">
        <ele>1996</ele>
        <time>2018-05-13T06:30:14.000Z</time>
      </trkpt>
      <trkpt lat="44.0355" lon="7.21021">
        <ele>1996</ele>
        <time>2018-05-13T06:30:15.000Z</time>
      </trkpt>
      <trkpt lat="44.03541" lon="7.21029">
        <ele>1996</ele>
        <time>2018-05-13T06:30:20.000Z</time>
      </trkpt>
      <trkpt lat="44.03531" lon="7.21034">
        <ele>1996</ele>
        <time>2018-05-13T06:30:25.000Z</time>
      </trkpt>
      <trkpt lat="44.03524" lon="7.21036">
        <ele>1996</ele>
        <time>2018-05-13T06:30:29.000Z</time>
      </trkpt>
      <trkpt lat="44.03522" lon="7.21038">
        <ele>1996</ele>
        <time>2018-05-13T06:30:31.000Z</time>
      </trkpt>
      <trkpt lat="44.03516" lon="7.21041">
        <ele>1997</ele>
        <time>2018-05-13T06:30:34.000Z</time>
      </trkpt>
      <trkpt lat="44.0351" lon="7.21047">
        <ele>1999</ele>
        <time>2018-05-13T06:30:37.000Z</time>
      </trkpt>
      <trkpt lat="44.035" lon="7.21051">
        <ele>2000</ele>
        <time>2018-05-13T06:30:42.000Z</time>
      </trkpt>
      <trkpt lat="44.03487" lon="7.21061">
        <ele>1991</ele>
        <time>2018-05-13T06:30:50.000Z</time>
      </trkpt>
      <trkpt lat="44.03486" lon="7.21061">
        <ele>1991</ele>
        <time>2018-05-13T06:30:51.000Z</time>
      </trkpt>
      <trkpt lat="44.0348" lon="7.21064">
        <ele>1991</ele>
        <time>2018-05-13T06:30:55.000Z</time>
      </trkpt>
      <trkpt lat="44.03479" lon="7.21065">
        <ele>1991</ele>
        <time>2018-05-13T06:30:56.000Z</time>
      </trkpt>
      <trkpt lat="44.03469" lon="7.2107">
        <ele>1989</ele>
        <time>2018-05-13T06:31:02.000Z</time>
      </trkpt>
      <trkpt lat="44.03468" lon="7.21071">
        <ele>1989</ele>
        <time>2018-05-13T06:31:06.000Z</time>
      </trkpt>
      <trkpt lat="44.03467" lon="7.21072">
        <ele>1989</ele>
        <time>2018-05-13T06:31:07.000Z</time>
      </trkpt>
      <trkpt lat="44.03464" lon="7.21073">
        <ele>1989</ele>
        <time>2018-05-13T06:31:12.000Z</time>
      </trkpt>
      <trkpt lat="44.03462" lon="7.21074">
        <ele>1988</ele>
        <time>2018-05-13T06:31:15.000Z</time>
      </trkpt>
      <trkpt lat="44.0346" lon="7.21075">
        <ele>1988</ele>
        <time>2018-05-13T06:31:17.000Z</time>
      </trkpt>
      <trkpt lat="44.03458" lon="7.21076">
        <ele>1988</ele>
        <time>2018-05-13T06:31:23.000Z</time>
      </trkpt>
      <trkpt lat="44.03456" lon="7.21076">
        <ele>1988</ele>
        <time>2018-05-13T06:31:25.000Z</time>
      </trkpt>
      <trkpt lat="44.03454" lon="7.21077">
        <ele>1988</ele>
        <time>2018-05-13T06:31:28.000Z</time>
      </trkpt>
      <trkpt lat="44.03453" lon="7.21077">
        <ele>1987</ele>
        <time>2018-05-13T06:31:29.000Z</time>
      </trkpt>
      <trkpt lat="44.03449" lon="7.21078">
        <ele>1987</ele>
        <time>2018-05-13T06:31:34.000Z</time>
      </trkpt>
      <trkpt lat="44.03448" lon="7.21078">
        <ele>1987</ele>
        <time>2018-05-13T06:31:35.000Z</time>
      </trkpt>
      <trkpt lat="44.03446" lon="7.2108">
        <ele>1987</ele>
        <time>2018-05-13T06:31:37.000Z</time>
      </trkpt>
      <trkpt lat="44.03443" lon="7.21082">
        <ele>1988</ele>
        <time>2018-05-13T06:31:41.000Z</time>
      </trkpt>
      <trkpt lat="44.03442" lon="7.21083">
        <ele>1988</ele>
        <time>2018-05-13T06:31:42.000Z</time>
      </trkpt>
      <trkpt lat="44.03441" lon="7.21084">
        <ele>2017</ele>
        <time>2018-05-13T06:31:43.000Z</time>
      </trkpt>
      <trkpt lat="44.03434" lon="7.21088">
        <ele>2015</ele>
        <time>2018-05-13T06:31:50.000Z</time>
      </trkpt>
      <trkpt lat="44.03427" lon="7.21094">
        <ele>2012</ele>
        <time>2018-05-13T06:31:58.000Z</time>
      </trkpt>
      <trkpt lat="44.03426" lon="7.21094">
        <ele>2012</ele>
        <time>2018-05-13T06:31:59.000Z</time>
      </trkpt>
      <trkpt lat="44.0342" lon="7.21096">
        <ele>2012</ele>
        <time>2018-05-13T06:32:05.000Z</time>
      </trkpt>
      <trkpt lat="44.0342" lon="7.21097">
        <ele>2012</ele>
        <time>2018-05-13T06:32:06.000Z</time>
      </trkpt>
      <trkpt lat="44.03412" lon="7.21101">
        <ele>2011</ele>
        <time>2018-05-13T06:32:14.000Z</time>
      </trkpt>
      <trkpt lat="44.03411" lon="7.21101">
        <ele>2011</ele>
        <time>2018-05-13T06:32:15.000Z</time>
      </trkpt>
      <trkpt lat="44.03405" lon="7.21102">
        <ele>2013</ele>
        <time>2018-05-13T06:32:21.000Z</time>
      </trkpt>
      <trkpt lat="44.034" lon="7.21104">
        <ele>2014</ele>
        <time>2018-05-13T06:32:28.000Z</time>
      </trkpt>
      <trkpt lat="44.03395" lon="7.21107">
        <ele>2016</ele>
        <time>2018-05-13T06:32:34.000Z</time>
      </trkpt>
      <trkpt lat="44.03394" lon="7.21108">
        <ele>2017</ele>
        <time>2018-05-13T06:32:36.000Z</time>
      </trkpt>
      <trkpt lat="44.03389" lon="7.2111">
        <ele>2018</ele>
        <time>2018-05-13T06:32:41.000Z</time>
      </trkpt>
      <trkpt lat="44.03388" lon="7.21111">
        <ele>2018</ele>
        <time>2018-05-13T06:32:42.000Z</time>
      </trkpt>
      <trkpt lat="44.03384" lon="7.21115">
        <ele>2019</ele>
        <time>2018-05-13T06:32:47.000Z</time>
      </trkpt>
      <trkpt lat="44.03381" lon="7.21118">
        <ele>2020</ele>
        <time>2018-05-13T06:32:52.000Z</time>
      </trkpt>
      <trkpt lat="44.0338" lon="7.21119">
        <ele>2020</ele>
        <time>2018-05-13T06:32:53.000Z</time>
      </trkpt>
      <trkpt lat="44.03378" lon="7.2112">
        <ele>2021</ele>
        <time>2018-05-13T06:32:58.000Z</time>
      </trkpt>
      <trkpt lat="44.03367" lon="7.21125">
        <ele>2022</ele>
        <time>2018-05-13T06:33:04.000Z</time>
      </trkpt>
      <trkpt lat="44.03365" lon="7.21126">
        <ele>2022</ele>
        <time>2018-05-13T06:33:05.000Z</time>
      </trkpt>
      <trkpt lat="44.03352" lon="7.21127">
        <ele>2022</ele>
        <time>2018-05-13T06:33:11.000Z</time>
      </trkpt>
      <trkpt lat="44.03347" lon="7.21126">
        <ele>2021</ele>
        <time>2018-05-13T06:33:14.000Z</time>
      </trkpt>
      <trkpt lat="44.03341" lon="7.21124">
        <ele>2020</ele>
        <time>2018-05-13T06:33:17.000Z</time>
      </trkpt>
      <trkpt lat="44.03331" lon="7.2112">
        <ele>2009</ele>
        <time>2018-05-13T06:33:22.000Z</time>
      </trkpt>
      <trkpt lat="44.03327" lon="7.21117">
        <ele>2007</ele>
        <time>2018-05-13T06:33:24.000Z</time>
      </trkpt>
      <trkpt lat="44.03324" lon="7.21114">
        <ele>2006</ele>
        <time>2018-05-13T06:33:27.000Z</time>
      </trkpt>
      <trkpt lat="44.03323" lon="7.21112">
        <ele>2005</ele>
        <time>2018-05-13T06:33:29.000Z</time>
      </trkpt>
      <trkpt lat="44.03317" lon="7.21106">
        <ele>2003</ele>
        <time>2018-05-13T06:33:34.000Z</time>
      </trkpt>
      <trkpt lat="44.03303" lon="7.21105">
        <ele>2003</ele>
        <time>2018-05-13T06:33:39.000Z</time>
      </trkpt>
      <trkpt lat="44.03296" lon="7.21105">
        <ele>2003</ele>
        <time>2018-05-13T06:33:43.000Z</time>
      </trkpt>
      <trkpt lat="44.0328" lon="7.21113">
        <ele>2003</ele>
        <time>2018-05-13T06:33:49.000Z</time>
      </trkpt>
      <trkpt lat="44.03272" lon="7.21119">
        <ele>2003</ele>
        <time>2018-05-13T06:33:51.000Z</time>
      </trkpt>
      <trkpt lat="44.03265" lon="7.21123">
        <ele>2003</ele>
        <time>2018-05-13T06:33:53.000Z</time>
      </trkpt>
      <trkpt lat="44.0326" lon="7.21126">
        <ele>2004</ele>
        <time>2018-05-13T06:33:55.000Z</time>
      </trkpt>
      <trkpt lat="44.03256" lon="7.21129">
        <ele>2004</ele>
        <time>2018-05-13T06:33:57.000Z</time>
      </trkpt>
      <trkpt lat="44.03249" lon="7.21137">
        <ele>1988</ele>
        <time>2018-05-13T06:34:02.000Z</time>
      </trkpt>
      <trkpt lat="44.03239" lon="7.21153">
        <ele>1994</ele>
        <time>2018-05-13T06:34:09.000Z</time>
      </trkpt>
      <trkpt lat="44.03226" lon="7.21172">
        <ele>1996</ele>
        <time>2018-05-13T06:34:13.000Z</time>
      </trkpt>
      <trkpt lat="44.03218" lon="7.21185">
        <ele>1991</ele>
        <time>2018-05-13T06:34:16.000Z</time>
      </trkpt>
      <trkpt lat="44.03214" lon="7.21195">
        <ele>1990</ele>
        <time>2018-05-13T06:34:18.000Z</time>
      </trkpt>
      <trkpt lat="44.03209" lon="7.21204">
        <ele>1988</ele>
        <time>2018-05-13T06:34:20.000Z</time>
      </trkpt>
      <trkpt lat="44.03206" lon="7.21212">
        <ele>1987</ele>
        <time>2018-05-13T06:34:22.000Z</time>
      </trkpt>
      <trkpt lat="44.03205" lon="7.21216">
        <ele>1987</ele>
        <time>2018-05-13T06:34:23.000Z</time>
      </trkpt>
      <trkpt lat="44.03204" lon="7.21222">
        <ele>1987</ele>
        <time>2018-05-13T06:34:24.000Z</time>
      </trkpt>
      <trkpt lat="44.03203" lon="7.21228">
        <ele>1987</ele>
        <time>2018-05-13T06:34:25.000Z</time>
      </trkpt>
      <trkpt lat="44.03202" lon="7.21242">
        <ele>1986</ele>
        <time>2018-05-13T06:34:27.000Z</time>
      </trkpt>
      <trkpt lat="44.03203" lon="7.21248">
        <ele>1986</ele>
        <time>2018-05-13T06:34:28.000Z</time>
      </trkpt>
      <trkpt lat="44.03205" lon="7.2126">
        <ele>1985</ele>
        <time>2018-05-13T06:34:30.000Z</time>
      </trkpt>
      <trkpt lat="44.03206" lon="7.21266">
        <ele>1986</ele>
        <time>2018-05-13T06:34:31.000Z</time>
      </trkpt>
      <trkpt lat="44.03206" lon="7.21271">
        <ele>1986</ele>
        <time>2018-05-13T06:34:32.000Z</time>
      </trkpt>
      <trkpt lat="44.03207" lon="7.21276">
        <ele>1986</ele>
        <time>2018-05-13T06:34:33.000Z</time>
      </trkpt>
      <trkpt lat="44.03207" lon="7.21282">
        <ele>1986</ele>
        <time>2018-05-13T06:34:34.000Z</time>
      </trkpt>
      <trkpt lat="44.03209" lon="7.21289">
        <ele>1986</ele>
        <time>2018-05-13T06:34:36.000Z</time>
      </trkpt>
      <trkpt lat="44.0321" lon="7.21298">
        <ele>1986</ele>
        <time>2018-05-13T06:34:37.000Z</time>
      </trkpt>
      <trkpt lat="44.0321" lon="7.21312">
        <ele>1985</ele>
        <time>2018-05-13T06:34:40.000Z</time>
      </trkpt>
      <trkpt lat="44.0321" lon="7.21316">
        <ele>1985</ele>
        <time>2018-05-13T06:34:41.000Z</time>
      </trkpt>
      <trkpt lat="44.0321" lon="7.21327">
        <ele>1985</ele>
        <time>2018-05-13T06:34:43.000Z</time>
      </trkpt>
      <trkpt lat="44.03211" lon="7.2134">
        <ele>1976</ele>
        <time>2018-05-13T06:34:45.000Z</time>
      </trkpt>
      <trkpt lat="44.03211" lon="7.21346">
        <ele>1976</ele>
        <time>2018-05-13T06:34:46.000Z</time>
      </trkpt>
      <trkpt lat="44.03212" lon="7.21353">
        <ele>1976</ele>
        <time>2018-05-13T06:34:47.000Z</time>
      </trkpt>
      <trkpt lat="44.03212" lon="7.21359">
        <ele>1975</ele>
        <time>2018-05-13T06:34:48.000Z</time>
      </trkpt>
      <trkpt lat="44.03211" lon="7.2137">
        <ele>1973</ele>
        <time>2018-05-13T06:34:50.000Z</time>
      </trkpt>
      <trkpt lat="44.03211" lon="7.21376">
        <ele>1973</ele>
        <time>2018-05-13T06:34:51.000Z</time>
      </trkpt>
      <trkpt lat="44.03211" lon="7.21383">
        <ele>1972</ele>
        <time>2018-05-13T06:34:53.000Z</time>
      </trkpt>
      <trkpt lat="44.03211" lon="7.21387">
        <ele>1971</ele>
        <time>2018-05-13T06:34:54.000Z</time>
      </trkpt>
      <trkpt lat="44.03211" lon="7.21391">
        <ele>1971</ele>
        <time>2018-05-13T06:34:55.000Z</time>
      </trkpt>
      <trkpt lat="44.03211" lon="7.21397">
        <ele>1970</ele>
        <time>2018-05-13T06:34:56.000Z</time>
      </trkpt>
      <trkpt lat="44.0321" lon="7.21403">
        <ele>1970</ele>
        <time>2018-05-13T06:34:57.000Z</time>
      </trkpt>
      <trkpt lat="44.03208" lon="7.21415">
        <ele>1968</ele>
        <time>2018-05-13T06:34:59.000Z</time>
      </trkpt>
      <trkpt lat="44.03207" lon="7.2142">
        <ele>1957</ele>
        <time>2018-05-13T06:35:00.000Z</time>
      </trkpt>
      <trkpt lat="44.03207" lon="7.2143">
        <ele>1956</ele>
        <time>2018-05-13T06:35:02.000Z</time>
      </trkpt>
      <trkpt lat="44.03206" lon="7.21441">
        <ele>1955</ele>
        <time>2018-05-13T06:35:04.000Z</time>
      </trkpt>
      <trkpt lat="44.03206" lon="7.21447">
        <ele>1954</ele>
        <time>2018-05-13T06:35:05.000Z</time>
      </trkpt>
      <trkpt lat="44.03207" lon="7.21459">
        <ele>1953</ele>
        <time>2018-05-13T06:35:07.000Z</time>
      </trkpt>
      <trkpt lat="44.03208" lon="7.21464">
        <ele>1953</ele>
        <time>2018-05-13T06:35:08.000Z</time>
      </trkpt>
      <trkpt lat="44.0321" lon="7.21475">
        <ele>1952</ele>
        <time>2018-05-13T06:35:10.000Z</time>
      </trkpt>
      <trkpt lat="44.0321" lon="7.21487">
        <ele>1951</ele>
        <time>2018-05-13T06:35:12.000Z</time>
      </trkpt>
      <trkpt lat="44.03205" lon="7.21499">
        <ele>1950</ele>
        <time>2018-05-13T06:35:14.000Z</time>
      </trkpt>
      <trkpt lat="44.03194" lon="7.21515">
        <ele>1941</ele>
        <time>2018-05-13T06:35:17.000Z</time>
      </trkpt>
      <trkpt lat="44.03191" lon="7.21518">
        <ele>1941</ele>
        <time>2018-05-13T06:35:18.000Z</time>
      </trkpt>
      <trkpt lat="44.03189" lon="7.21519">
        <ele>1941</ele>
        <time>2018-05-13T06:35:19.000Z</time>
      </trkpt>
      <trkpt lat="44.03185" lon="7.21525">
        <ele>1941</ele>
        <time>2018-05-13T06:35:20.000Z</time>
      </trkpt>
      <trkpt lat="44.03183" lon="7.21529">
        <ele>1941</ele>
        <time>2018-05-13T06:35:21.000Z</time>
      </trkpt>
      <trkpt lat="44.03184" lon="7.21534">
        <ele>1941</ele>
        <time>2018-05-13T06:35:22.000Z</time>
      </trkpt>
      <trkpt lat="44.03183" lon="7.2154">
        <ele>1942</ele>
        <time>2018-05-13T06:35:23.000Z</time>
      </trkpt>
      <trkpt lat="44.03179" lon="7.21548">
        <ele>1942</ele>
        <time>2018-05-13T06:35:25.000Z</time>
      </trkpt>
      <trkpt lat="44.03176" lon="7.2155">
        <ele>1943</ele>
        <time>2018-05-13T06:35:26.000Z</time>
      </trkpt>
      <trkpt lat="44.03172" lon="7.21554">
        <ele>1943</ele>
        <time>2018-05-13T06:35:28.000Z</time>
      </trkpt>
      <trkpt lat="44.0316" lon="7.21567">
        <ele>1937</ele>
        <time>2018-05-13T06:35:33.000Z</time>
      </trkpt>
      <trkpt lat="44.03151" lon="7.21579">
        <ele>1938</ele>
        <time>2018-05-13T06:35:39.000Z</time>
      </trkpt>
      <trkpt lat="44.03141" lon="7.21586">
        <ele>1947</ele>
        <time>2018-05-13T06:35:45.000Z</time>
      </trkpt>
      <trkpt lat="44.03129" lon="7.21597">
        <ele>1945</ele>
        <time>2018-05-13T06:35:51.000Z</time>
      </trkpt>
      <trkpt lat="44.03125" lon="7.21599">
        <ele>1945</ele>
        <time>2018-05-13T06:35:52.000Z</time>
      </trkpt>
      <trkpt lat="44.03113" lon="7.21609">
        <ele>1944</ele>
        <time>2018-05-13T06:35:55.000Z</time>
      </trkpt>
      <trkpt lat="44.03107" lon="7.21614">
        <ele>1944</ele>
        <time>2018-05-13T06:35:57.000Z</time>
      </trkpt>
      <trkpt lat="44.031" lon="7.21622">
        <ele>1946</ele>
        <time>2018-05-13T06:35:59.000Z</time>
      </trkpt>
      <trkpt lat="44.03094" lon="7.2163">
        <ele>1948</ele>
        <time>2018-05-13T06:36:01.000Z</time>
      </trkpt>
      <trkpt lat="44.0309" lon="7.21633">
        <ele>1949</ele>
        <time>2018-05-13T06:36:02.000Z</time>
      </trkpt>
      <trkpt lat="44.03086" lon="7.21637">
        <ele>1950</ele>
        <time>2018-05-13T06:36:03.000Z</time>
      </trkpt>
      <trkpt lat="44.03077" lon="7.21641">
        <ele>1934</ele>
        <time>2018-05-13T06:36:05.000Z</time>
      </trkpt>
      <trkpt lat="44.03068" lon="7.21643">
        <ele>1932</ele>
        <time>2018-05-13T06:36:07.000Z</time>
      </trkpt>
      <trkpt lat="44.03064" lon="7.21643">
        <ele>1931</ele>
        <time>2018-05-13T06:36:08.000Z</time>
      </trkpt>
      <trkpt lat="44.0306" lon="7.21644">
        <ele>1930</ele>
        <time>2018-05-13T06:36:09.000Z</time>
      </trkpt>
      <trkpt lat="44.03055" lon="7.21645">
        <ele>1928</ele>
        <time>2018-05-13T06:36:10.000Z</time>
      </trkpt>
      <trkpt lat="44.0305" lon="7.21647">
        <ele>1927</ele>
        <time>2018-05-13T06:36:11.000Z</time>
      </trkpt>
      <trkpt lat="44.03046" lon="7.21647">
        <ele>1925</ele>
        <time>2018-05-13T06:36:12.000Z</time>
      </trkpt>
      <trkpt lat="44.03038" lon="7.21651">
        <ele>1923</ele>
        <time>2018-05-13T06:36:14.000Z</time>
      </trkpt>
      <trkpt lat="44.03035" lon="7.21654">
        <ele>1923</ele>
        <time>2018-05-13T06:36:15.000Z</time>
      </trkpt>
      <trkpt lat="44.0303" lon="7.21663">
        <ele>1922</ele>
        <time>2018-05-13T06:36:17.000Z</time>
      </trkpt>
      <trkpt lat="44.03025" lon="7.2167">
        <ele>1944</ele>
        <time>2018-05-13T06:36:19.000Z</time>
      </trkpt>
      <trkpt lat="44.03024" lon="7.21673">
        <ele>1944</ele>
        <time>2018-05-13T06:36:20.000Z</time>
      </trkpt>
      <trkpt lat="44.03022" lon="7.21684">
        <ele>1947</ele>
        <time>2018-05-13T06:36:23.000Z</time>
      </trkpt>
      <trkpt lat="44.03021" lon="7.21688">
        <ele>1948</ele>
        <time>2018-05-13T06:36:24.000Z</time>
      </trkpt>
      <trkpt lat="44.03017" lon="7.21699">
        <ele>1951</ele>
        <time>2018-05-13T06:36:28.000Z</time>
      </trkpt>
      <trkpt lat="44.03014" lon="7.21703">
        <ele>1952</ele>
        <time>2018-05-13T06:36:31.000Z</time>
      </trkpt>
      <trkpt lat="44.03009" lon="7.21707">
        <ele>1953</ele>
        <time>2018-05-13T06:36:33.000Z</time>
      </trkpt>
      <trkpt lat="44.03009" lon="7.21708">
        <ele>1953</ele>
        <time>2018-05-13T06:36:36.000Z</time>
      </trkpt>
      <trkpt lat="44.03008" lon="7.21709">
        <ele>1954</ele>
        <time>2018-05-13T06:36:38.000Z</time>
      </trkpt>
      <trkpt lat="44.03005" lon="7.21714">
        <ele>1955</ele>
        <time>2018-05-13T06:36:42.000Z</time>
      </trkpt>
      <trkpt lat="44.03001" lon="7.21719">
        <ele>1956</ele>
        <time>2018-05-13T06:36:48.000Z</time>
      </trkpt>
      <trkpt lat="44.03" lon="7.21721">
        <ele>1957</ele>
        <time>2018-05-13T06:36:50.000Z</time>
      </trkpt>
      <trkpt lat="44.02997" lon="7.21724">
        <ele>1938</ele>
        <time>2018-05-13T06:36:54.000Z</time>
      </trkpt>
      <trkpt lat="44.02993" lon="7.21724">
        <ele>1937</ele>
        <time>2018-05-13T06:36:58.000Z</time>
      </trkpt>
      <trkpt lat="44.02991" lon="7.21723">
        <ele>1937</ele>
        <time>2018-05-13T06:37:00.000Z</time>
      </trkpt>
      <trkpt lat="44.02986" lon="7.21721">
        <ele>1934</ele>
        <time>2018-05-13T06:37:07.000Z</time>
      </trkpt>
      <trkpt lat="44.02984" lon="7.21721">
        <ele>1934</ele>
        <time>2018-05-13T06:37:10.000Z</time>
      </trkpt>
      <trkpt lat="44.02983" lon="7.21721">
        <ele>1934</ele>
        <time>2018-05-13T06:37:12.000Z</time>
      </trkpt>
      <trkpt lat="44.0298" lon="7.21721">
        <ele>1933</ele>
        <time>2018-05-13T06:37:15.000Z</time>
      </trkpt>
      <trkpt lat="44.02979" lon="7.21722">
        <ele>1933</ele>
        <time>2018-05-13T06:37:16.000Z</time>
      </trkpt>
      <trkpt lat="44.02977" lon="7.21724">
        <ele>1933</ele>
        <time>2018-05-13T06:37:18.000Z</time>
      </trkpt>
      <trkpt lat="44.02971" lon="7.2173">
        <ele>1934</ele>
        <time>2018-05-13T06:37:25.000Z</time>
      </trkpt>
      <trkpt lat="44.02966" lon="7.21736">
        <ele>1934</ele>
        <time>2018-05-13T06:37:31.000Z</time>
      </trkpt>
      <trkpt lat="44.02965" lon="7.21736">
        <ele>1934</ele>
        <time>2018-05-13T06:37:32.000Z</time>
      </trkpt>
      <trkpt lat="44.02964" lon="7.21737">
        <ele>1933</ele>
        <time>2018-05-13T06:37:33.000Z</time>
      </trkpt>
      <trkpt lat="44.02963" lon="7.21738">
        <ele>1933</ele>
        <time>2018-05-13T06:37:35.000Z</time>
      </trkpt>
      <trkpt lat="44.02963" lon="7.21738">
        <ele>1933</ele>
        <time>2018-05-13T06:37:38.000Z</time>
      </trkpt>
      <trkpt lat="44.02962" lon="7.2174">
        <ele>1933</ele>
        <time>2018-05-13T06:37:40.000Z</time>
      </trkpt>
      <trkpt lat="44.02955" lon="7.21746">
        <ele>1933</ele>
        <time>2018-05-13T06:37:43.000Z</time>
      </trkpt>
      <trkpt lat="44.02949" lon="7.21752">
        <ele>1954</ele>
        <time>2018-05-13T06:37:45.000Z</time>
      </trkpt>
      <trkpt lat="44.02942" lon="7.21754">
        <ele>1951</ele>
        <time>2018-05-13T06:37:47.000Z</time>
      </trkpt>
      <trkpt lat="44.02938" lon="7.21754">
        <ele>1949</ele>
        <time>2018-05-13T06:37:48.000Z</time>
      </trkpt>
      <trkpt lat="44.02932" lon="7.21755">
        <ele>1947</ele>
        <time>2018-05-13T06:37:49.000Z</time>
      </trkpt>
      <trkpt lat="44.0292" lon="7.21754">
        <ele>1938</ele>
        <time>2018-05-13T06:37:52.000Z</time>
      </trkpt>
      <trkpt lat="44.0292" lon="7.21754">
        <ele>1938</ele>
        <time>2018-05-13T06:37:55.000Z</time>
      </trkpt>
      <trkpt lat="44.02915" lon="7.21755">
        <ele>1931</ele>
        <time>2018-05-13T06:38:01.000Z</time>
      </trkpt>
      <trkpt lat="44.02914" lon="7.21754">
        <ele>1931</ele>
        <time>2018-05-13T06:38:02.000Z</time>
      </trkpt>
      <trkpt lat="44.02913" lon="7.21753">
        <ele>1931</ele>
        <time>2018-05-13T06:38:03.000Z</time>
      </trkpt>
      <trkpt lat="44.02911" lon="7.21753">
        <ele>1931</ele>
        <time>2018-05-13T06:38:05.000Z</time>
      </trkpt>
      <trkpt lat="44.02906" lon="7.21753">
        <ele>1929</ele>
        <time>2018-05-13T06:38:10.000Z</time>
      </trkpt>
      <trkpt lat="44.02905" lon="7.21754">
        <ele>1928</ele>
        <time>2018-05-13T06:38:11.000Z</time>
      </trkpt>
      <trkpt lat="44.029" lon="7.21756">
        <ele>1927</ele>
        <time>2018-05-13T06:38:15.000Z</time>
      </trkpt>
      <trkpt lat="44.029" lon="7.21757">
        <ele>1927</ele>
        <time>2018-05-13T06:38:17.000Z</time>
      </trkpt>
      <trkpt lat="44.02896" lon="7.21767">
        <ele>1926</ele>
        <time>2018-05-13T06:38:22.000Z</time>
      </trkpt>
      <trkpt lat="44.02892" lon="7.2178">
        <ele>1926</ele>
        <time>2018-05-13T06:38:27.000Z</time>
      </trkpt>
      <trkpt lat="44.02892" lon="7.21782">
        <ele>1926</ele>
        <time>2018-05-13T06:38:28.000Z</time>
      </trkpt>
      <trkpt lat="44.02893" lon="7.21783">
        <ele>1926</ele>
        <time>2018-05-13T06:38:31.000Z</time>
      </trkpt>
      <trkpt lat="44.02891" lon="7.21795">
        <ele>1928</ele>
        <time>2018-05-13T06:38:38.000Z</time>
      </trkpt>
      <trkpt lat="44.02892" lon="7.21806">
        <ele>1930</ele>
        <time>2018-05-13T06:38:46.000Z</time>
      </trkpt>
      <trkpt lat="44.0289" lon="7.21811">
        <ele>1931</ele>
        <time>2018-05-13T06:38:50.000Z</time>
      </trkpt>
      <trkpt lat="44.02889" lon="7.21814">
        <ele>1931</ele>
        <time>2018-05-13T06:38:51.000Z</time>
      </trkpt>
      <trkpt lat="44.02877" lon="7.21829">
        <ele>1929</ele>
        <time>2018-05-13T06:38:56.000Z</time>
      </trkpt>
      <trkpt lat="44.02875" lon="7.21832">
        <ele>1928</ele>
        <time>2018-05-13T06:38:57.000Z</time>
      </trkpt>
      <trkpt lat="44.02869" lon="7.21839">
        <ele>1943</ele>
        <time>2018-05-13T06:38:59.000Z</time>
      </trkpt>
      <trkpt lat="44.02866" lon="7.21841">
        <ele>1942</ele>
        <time>2018-05-13T06:39:00.000Z</time>
      </trkpt>
      <trkpt lat="44.02856" lon="7.21849">
        <ele>1939</ele>
        <time>2018-05-13T06:39:03.000Z</time>
      </trkpt>
      <trkpt lat="44.02849" lon="7.21849">
        <ele>1936</ele>
        <time>2018-05-13T06:39:05.000Z</time>
      </trkpt>
      <trkpt lat="44.02845" lon="7.21851">
        <ele>1935</ele>
        <time>2018-05-13T06:39:06.000Z</time>
      </trkpt>
      <trkpt lat="44.02844" lon="7.21852">
        <ele>1935</ele>
        <time>2018-05-13T06:39:07.000Z</time>
      </trkpt>
      <trkpt lat="44.02834" lon="7.21856">
        <ele>1935</ele>
        <time>2018-05-13T06:39:09.000Z</time>
      </trkpt>
      <trkpt lat="44.02831" lon="7.21857">
        <ele>1912</ele>
        <time>2018-05-13T06:39:10.000Z</time>
      </trkpt>
      <trkpt lat="44.02819" lon="7.21871">
        <ele>1912</ele>
        <time>2018-05-13T06:39:14.000Z</time>
      </trkpt>
      <trkpt lat="44.02817" lon="7.21875">
        <ele>1912</ele>
        <time>2018-05-13T06:39:15.000Z</time>
      </trkpt>
      <trkpt lat="44.0281" lon="7.21894">
        <ele>1915</ele>
        <time>2018-05-13T06:39:19.000Z</time>
      </trkpt>
      <trkpt lat="44.02809" lon="7.21899">
        <ele>1916</ele>
        <time>2018-05-13T06:39:20.000Z</time>
      </trkpt>
      <trkpt lat="44.02806" lon="7.21903">
        <ele>1915</ele>
        <time>2018-05-13T06:39:21.000Z</time>
      </trkpt>
      <trkpt lat="44.02803" lon="7.21913">
        <ele>1915</ele>
        <time>2018-05-13T06:39:23.000Z</time>
      </trkpt>
      <trkpt lat="44.02799" lon="7.21922">
        <ele>1928</ele>
        <time>2018-05-13T06:39:25.000Z</time>
      </trkpt>
      <trkpt lat="44.0279" lon="7.21942">
        <ele>1926</ele>
        <time>2018-05-13T06:39:29.000Z</time>
      </trkpt>
      <trkpt lat="44.02779" lon="7.21962">
        <ele>1926</ele>
        <time>2018-05-13T06:39:33.000Z</time>
      </trkpt>
      <trkpt lat="44.02773" lon="7.21973">
        <ele>1926</ele>
        <time>2018-05-13T06:39:36.000Z</time>
      </trkpt>
      <trkpt lat="44.02769" lon="7.21978">
        <ele>1926</ele>
        <time>2018-05-13T06:39:37.000Z</time>
      </trkpt>
      <trkpt lat="44.02766" lon="7.21984">
        <ele>1925</ele>
        <time>2018-05-13T06:39:38.000Z</time>
      </trkpt>
      <trkpt lat="44.02762" lon="7.2199">
        <ele>1924</ele>
        <time>2018-05-13T06:39:39.000Z</time>
      </trkpt>
      <trkpt lat="44.02758" lon="7.21996">
        <ele>1923</ele>
        <time>2018-05-13T06:39:40.000Z</time>
      </trkpt>
      <trkpt lat="44.02748" lon="7.22005">
        <ele>1920</ele>
        <time>2018-05-13T06:39:42.000Z</time>
      </trkpt>
      <trkpt lat="44.02743" lon="7.2201">
        <ele>1919</ele>
        <time>2018-05-13T06:39:43.000Z</time>
      </trkpt>
      <trkpt lat="44.02739" lon="7.22014">
        <ele>1918</ele>
        <time>2018-05-13T06:39:44.000Z</time>
      </trkpt>
      <trkpt lat="44.02727" lon="7.22028">
        <ele>1916</ele>
        <time>2018-05-13T06:39:47.000Z</time>
      </trkpt>
      <trkpt lat="44.02725" lon="7.22032">
        <ele>1916</ele>
        <time>2018-05-13T06:39:48.000Z</time>
      </trkpt>
      <trkpt lat="44.02704" lon="7.22057">
        <ele>1914</ele>
        <time>2018-05-13T06:39:54.000Z</time>
      </trkpt>
      <trkpt lat="44.02701" lon="7.22063">
        <ele>1914</ele>
        <time>2018-05-13T06:39:55.000Z</time>
      </trkpt>
      <trkpt lat="44.02698" lon="7.22069">
        <ele>1913</ele>
        <time>2018-05-13T06:39:56.000Z</time>
      </trkpt>
      <trkpt lat="44.02694" lon="7.22085">
        <ele>1916</ele>
        <time>2018-05-13T06:39:59.000Z</time>
      </trkpt>
      <trkpt lat="44.0269" lon="7.22113">
        <ele>1917</ele>
        <time>2018-05-13T06:40:03.000Z</time>
      </trkpt>
      <trkpt lat="44.02691" lon="7.22122">
        <ele>1917</ele>
        <time>2018-05-13T06:40:04.000Z</time>
      </trkpt>
      <trkpt lat="44.02684" lon="7.22145">
        <ele>1915</ele>
        <time>2018-05-13T06:40:07.000Z</time>
      </trkpt>
      <trkpt lat="44.0268" lon="7.22159">
        <ele>1913</ele>
        <time>2018-05-13T06:40:09.000Z</time>
      </trkpt>
      <trkpt lat="44.02679" lon="7.22173">
        <ele>1908</ele>
        <time>2018-05-13T06:40:11.000Z</time>
      </trkpt>
      <trkpt lat="44.02679" lon="7.2218">
        <ele>1909</ele>
        <time>2018-05-13T06:40:12.000Z</time>
      </trkpt>
      <trkpt lat="44.02681" lon="7.22201">
        <ele>1909</ele>
        <time>2018-05-13T06:40:15.000Z</time>
      </trkpt>
      <trkpt lat="44.02683" lon="7.2221">
        <ele>1909</ele>
        <time>2018-05-13T06:40:16.000Z</time>
      </trkpt>
      <trkpt lat="44.02683" lon="7.22218">
        <ele>1908</ele>
        <time>2018-05-13T06:40:17.000Z</time>
      </trkpt>
      <trkpt lat="44.02683" lon="7.22225">
        <ele>1908</ele>
        <time>2018-05-13T06:40:18.000Z</time>
      </trkpt>
      <trkpt lat="44.02681" lon="7.22241">
        <ele>1907</ele>
        <time>2018-05-13T06:40:20.000Z</time>
      </trkpt>
      <trkpt lat="44.02679" lon="7.22247">
        <ele>1907</ele>
        <time>2018-05-13T06:40:21.000Z</time>
      </trkpt>
      <trkpt lat="44.02668" lon="7.22269">
        <ele>1903</ele>
        <time>2018-05-13T06:40:26.000Z</time>
      </trkpt>
      <trkpt lat="44.02663" lon="7.2228">
        <ele>1907</ele>
        <time>2018-05-13T06:40:29.000Z</time>
      </trkpt>
      <trkpt lat="44.0266" lon="7.22285">
        <ele>1907</ele>
        <time>2018-05-13T06:40:31.000Z</time>
      </trkpt>
      <trkpt lat="44.02652" lon="7.22303">
        <ele>1909</ele>
        <time>2018-05-13T06:40:35.000Z</time>
      </trkpt>
      <trkpt lat="44.0265" lon="7.22308">
        <ele>1910</ele>
        <time>2018-05-13T06:40:36.000Z</time>
      </trkpt>
      <trkpt lat="44.02638" lon="7.22323">
        <ele>1910</ele>
        <time>2018-05-13T06:40:41.000Z</time>
      </trkpt>
      <trkpt lat="44.02627" lon="7.22333">
        <ele>1924</ele>
        <time>2018-05-13T06:40:47.000Z</time>
      </trkpt>
      <trkpt lat="44.02624" lon="7.22335">
        <ele>1924</ele>
        <time>2018-05-13T06:40:51.000Z</time>
      </trkpt>
      <trkpt lat="44.0262" lon="7.22336">
        <ele>1924</ele>
        <time>2018-05-13T06:40:55.000Z</time>
      </trkpt>
      <trkpt lat="44.0262" lon="7.22338">
        <ele>1924</ele>
        <time>2018-05-13T06:40:56.000Z</time>
      </trkpt>
      <trkpt lat="44.02614" lon="7.22342">
        <ele>1924</ele>
        <time>2018-05-13T06:41:03.000Z</time>
      </trkpt>
      <trkpt lat="44.02609" lon="7.22345">
        <ele>1924</ele>
        <time>2018-05-13T06:41:09.000Z</time>
      </trkpt>
      <trkpt lat="44.02606" lon="7.22347">
        <ele>1924</ele>
        <time>2018-05-13T06:41:13.000Z</time>
      </trkpt>
      <trkpt lat="44.02605" lon="7.22347">
        <ele>1924</ele>
        <time>2018-05-13T06:41:14.000Z</time>
      </trkpt>
      <trkpt lat="44.02604" lon="7.22349">
        <ele>1924</ele>
        <time>2018-05-13T06:41:16.000Z</time>
      </trkpt>
      <trkpt lat="44.026" lon="7.22351">
        <ele>1924</ele>
        <time>2018-05-13T06:41:21.000Z</time>
      </trkpt>
      <trkpt lat="44.02599" lon="7.22353">
        <ele>1925</ele>
        <time>2018-05-13T06:41:23.000Z</time>
      </trkpt>
      <trkpt lat="44.02595" lon="7.22355">
        <ele>1925</ele>
        <time>2018-05-13T06:41:29.000Z</time>
      </trkpt>
      <trkpt lat="44.02594" lon="7.22355">
        <ele>1925</ele>
        <time>2018-05-13T06:41:30.000Z</time>
      </trkpt>
      <trkpt lat="44.02592" lon="7.22355">
        <ele>1925</ele>
        <time>2018-05-13T06:41:32.000Z</time>
      </trkpt>
      <trkpt lat="44.0259" lon="7.22358">
        <ele>1925</ele>
        <time>2018-05-13T06:41:36.000Z</time>
      </trkpt>
      <trkpt lat="44.02586" lon="7.22361">
        <ele>1926</ele>
        <time>2018-05-13T06:41:42.000Z</time>
      </trkpt>
      <trkpt lat="44.02585" lon="7.22363">
        <ele>1926</ele>
        <time>2018-05-13T06:41:44.000Z</time>
      </trkpt>
      <trkpt lat="44.02583" lon="7.22361">
        <ele>1923</ele>
        <time>2018-05-13T06:41:49.000Z</time>
      </trkpt>
      <trkpt lat="44.02584" lon="7.22362">
        <ele>1926</ele>
        <time>2018-05-13T06:41:50.000Z</time>
      </trkpt>
      <trkpt lat="44.02581" lon="7.22363">
        <ele>1923</ele>
        <time>2018-05-13T06:41:52.000Z</time>
      </trkpt>
      <trkpt lat="44.02579" lon="7.22365">
        <ele>1924</ele>
        <time>2018-05-13T06:41:55.000Z</time>
      </trkpt>
      <trkpt lat="44.02578" lon="7.22365">
        <ele>1924</ele>
        <time>2018-05-13T06:41:57.000Z</time>
      </trkpt>
      <trkpt lat="44.02576" lon="7.22367">
        <ele>1924</ele>
        <time>2018-05-13T06:42:00.000Z</time>
      </trkpt>
      <trkpt lat="44.0257" lon="7.22369">
        <ele>1924</ele>
        <time>2018-05-13T06:42:05.000Z</time>
      </trkpt>
      <trkpt lat="44.0257" lon="7.2237">
        <ele>1924</ele>
        <time>2018-05-13T06:42:07.000Z</time>
      </trkpt>
      <trkpt lat="44.02569" lon="7.22372">
        <ele>1924</ele>
        <time>2018-05-13T06:42:08.000Z</time>
      </trkpt>
      <trkpt lat="44.02565" lon="7.22374">
        <ele>1924</ele>
        <time>2018-05-13T06:42:12.000Z</time>
      </trkpt>
      <trkpt lat="44.02558" lon="7.22378">
        <ele>1925</ele>
        <time>2018-05-13T06:42:19.000Z</time>
      </trkpt>
      <trkpt lat="44.02556" lon="7.2238">
        <ele>1925</ele>
        <time>2018-05-13T06:42:22.000Z</time>
      </trkpt>
      <trkpt lat="44.02553" lon="7.22383">
        <ele>1925</ele>
        <time>2018-05-13T06:42:26.000Z</time>
      </trkpt>
      <trkpt lat="44.02551" lon="7.22385">
        <ele>1925</ele>
        <time>2018-05-13T06:42:28.000Z</time>
      </trkpt>
      <trkpt lat="44.02551" lon="7.22386">
        <ele>1925</ele>
        <time>2018-05-13T06:42:29.000Z</time>
      </trkpt>
      <trkpt lat="44.02547" lon="7.22389">
        <ele>1925</ele>
        <time>2018-05-13T06:42:33.000Z</time>
      </trkpt>
      <trkpt lat="44.02543" lon="7.22392">
        <ele>1925</ele>
        <time>2018-05-13T06:42:37.000Z</time>
      </trkpt>
      <trkpt lat="44.0254" lon="7.22394">
        <ele>1925</ele>
        <time>2018-05-13T06:42:40.000Z</time>
      </trkpt>
      <trkpt lat="44.02536" lon="7.22398">
        <ele>1924</ele>
        <time>2018-05-13T06:42:45.000Z</time>
      </trkpt>
      <trkpt lat="44.02535" lon="7.22399">
        <ele>1924</ele>
        <time>2018-05-13T06:42:46.000Z</time>
      </trkpt>
      <trkpt lat="44.02533" lon="7.22402">
        <ele>1924</ele>
        <time>2018-05-13T06:42:49.000Z</time>
      </trkpt>
      <trkpt lat="44.0253" lon="7.22405">
        <ele>1924</ele>
        <time>2018-05-13T06:42:53.000Z</time>
      </trkpt>
      <trkpt lat="44.02527" lon="7.22408">
        <ele>1924</ele>
        <time>2018-05-13T06:42:57.000Z</time>
      </trkpt>
      <trkpt lat="44.02524" lon="7.22411">
        <ele>1924</ele>
        <time>2018-05-13T06:43:00.000Z</time>
      </trkpt>
      <trkpt lat="44.02521" lon="7.22416">
        <ele>1924</ele>
        <time>2018-05-13T06:43:05.000Z</time>
      </trkpt>
      <trkpt lat="44.0252" lon="7.22416">
        <ele>1924</ele>
        <time>2018-05-13T06:43:06.000Z</time>
      </trkpt>
      <trkpt lat="44.02516" lon="7.22424">
        <ele>1931</ele>
        <time>2018-05-13T06:43:12.000Z</time>
      </trkpt>
      <trkpt lat="44.02514" lon="7.22427">
        <ele>1931</ele>
        <time>2018-05-13T06:43:14.000Z</time>
      </trkpt>
      <trkpt lat="44.02511" lon="7.22433">
        <ele>1932</ele>
        <time>2018-05-13T06:43:19.000Z</time>
      </trkpt>
      <trkpt lat="44.0251" lon="7.22435">
        <ele>1932</ele>
        <time>2018-05-13T06:43:20.000Z</time>
      </trkpt>
      <trkpt lat="44.02508" lon="7.22448">
        <ele>1934</ele>
        <time>2018-05-13T06:43:28.000Z</time>
      </trkpt>
      <trkpt lat="44.02508" lon="7.22449">
        <ele>1934</ele>
        <time>2018-05-13T06:43:29.000Z</time>
      </trkpt>
      <trkpt lat="44.02507" lon="7.22459">
        <ele>1935</ele>
        <time>2018-05-13T06:43:35.000Z</time>
      </trkpt>
      <trkpt lat="44.02507" lon="7.22464">
        <ele>1936</ele>
        <time>2018-05-13T06:43:38.000Z</time>
      </trkpt>
      <trkpt lat="44.02506" lon="7.2247">
        <ele>1936</ele>
        <time>2018-05-13T06:43:43.000Z</time>
      </trkpt>
      <trkpt lat="44.02506" lon="7.22484">
        <ele>1936</ele>
        <time>2018-05-13T06:43:48.000Z</time>
      </trkpt>
      <trkpt lat="44.02506" lon="7.22487">
        <ele>1936</ele>
        <time>2018-05-13T06:43:49.000Z</time>
      </trkpt>
      <trkpt lat="44.02505" lon="7.22502">
        <ele>1936</ele>
        <time>2018-05-13T06:43:55.000Z</time>
      </trkpt>
      <trkpt lat="44.02504" lon="7.22517">
        <ele>1939</ele>
        <time>2018-05-13T06:44:02.000Z</time>
      </trkpt>
      <trkpt lat="44.02501" lon="7.22531">
        <ele>1941</ele>
        <time>2018-05-13T06:44:09.000Z</time>
      </trkpt>
      <trkpt lat="44.02501" lon="7.22534">
        <ele>1941</ele>
        <time>2018-05-13T06:44:10.000Z</time>
      </trkpt>
      <trkpt lat="44.02499" lon="7.22552">
        <ele>1926</ele>
        <time>2018-05-13T06:44:18.000Z</time>
      </trkpt>
      <trkpt lat="44.02499" lon="7.22554">
        <ele>1927</ele>
        <time>2018-05-13T06:44:19.000Z</time>
      </trkpt>
      <trkpt lat="44.02497" lon="7.22569">
        <ele>1931</ele>
        <time>2018-05-13T06:44:26.000Z</time>
      </trkpt>
      <trkpt lat="44.02496" lon="7.22576">
        <ele>1935</ele>
        <time>2018-05-13T06:44:30.000Z</time>
      </trkpt>
      <trkpt lat="44.02495" lon="7.22579">
        <ele>1936</ele>
        <time>2018-05-13T06:44:32.000Z</time>
      </trkpt>
      <trkpt lat="44.02492" lon="7.22588">
        <ele>1937</ele>
        <time>2018-05-13T06:44:37.000Z</time>
      </trkpt>
      <trkpt lat="44.02491" lon="7.2259">
        <ele>1936</ele>
        <time>2018-05-13T06:44:41.000Z</time>
      </trkpt>
      <trkpt lat="44.0249" lon="7.22594">
        <ele>1935</ele>
        <time>2018-05-13T06:44:44.000Z</time>
      </trkpt>
      <trkpt lat="44.02488" lon="7.22599">
        <ele>1933</ele>
        <time>2018-05-13T06:44:48.000Z</time>
      </trkpt>
      <trkpt lat="44.02486" lon="7.22605">
        <ele>1932</ele>
        <time>2018-05-13T06:44:53.000Z</time>
      </trkpt>
      <trkpt lat="44.02485" lon="7.22608">
        <ele>1931</ele>
        <time>2018-05-13T06:44:56.000Z</time>
      </trkpt>
      <trkpt lat="44.02483" lon="7.22612">
        <ele>1931</ele>
        <time>2018-05-13T06:44:59.000Z</time>
      </trkpt>
      <trkpt lat="44.02481" lon="7.2262">
        <ele>1930</ele>
        <time>2018-05-13T06:45:05.000Z</time>
      </trkpt>
      <trkpt lat="44.0248" lon="7.22624">
        <ele>1930</ele>
        <time>2018-05-13T06:45:09.000Z</time>
      </trkpt>
      <trkpt lat="44.02479" lon="7.22626">
        <ele>1930</ele>
        <time>2018-05-13T06:45:10.000Z</time>
      </trkpt>
      <trkpt lat="44.02476" lon="7.22638">
        <ele>1930</ele>
        <time>2018-05-13T06:45:16.000Z</time>
      </trkpt>
      <trkpt lat="44.02475" lon="7.2264">
        <ele>1930</ele>
        <time>2018-05-13T06:45:17.000Z</time>
      </trkpt>
      <trkpt lat="44.02473" lon="7.22657">
        <ele>1930</ele>
        <time>2018-05-13T06:45:24.000Z</time>
      </trkpt>
      <trkpt lat="44.02472" lon="7.22661">
        <ele>1930</ele>
        <time>2018-05-13T06:45:26.000Z</time>
      </trkpt>
      <trkpt lat="44.02468" lon="7.2268">
        <ele>1930</ele>
        <time>2018-05-13T06:45:34.000Z</time>
      </trkpt>
      <trkpt lat="44.02465" lon="7.22692">
        <ele>1929</ele>
        <time>2018-05-13T06:45:39.000Z</time>
      </trkpt>
      <trkpt lat="44.02464" lon="7.22696">
        <ele>1929</ele>
        <time>2018-05-13T06:45:41.000Z</time>
      </trkpt>
      <trkpt lat="44.02458" lon="7.22712">
        <ele>1928</ele>
        <time>2018-05-13T06:45:48.000Z</time>
      </trkpt>
      <trkpt lat="44.0245" lon="7.22727">
        <ele>1929</ele>
        <time>2018-05-13T06:45:52.000Z</time>
      </trkpt>
      <trkpt lat="44.02443" lon="7.22741">
        <ele>1929</ele>
        <time>2018-05-13T06:45:55.000Z</time>
      </trkpt>
      <trkpt lat="44.02441" lon="7.22746">
        <ele>1930</ele>
        <time>2018-05-13T06:45:56.000Z</time>
      </trkpt>
      <trkpt lat="44.02439" lon="7.22751">
        <ele>1930</ele>
        <time>2018-05-13T06:45:57.000Z</time>
      </trkpt>
      <trkpt lat="44.02435" lon="7.22758">
        <ele>1930</ele>
        <time>2018-05-13T06:45:59.000Z</time>
      </trkpt>
      <trkpt lat="44.02429" lon="7.22766">
        <ele>1930</ele>
        <time>2018-05-13T06:46:01.000Z</time>
      </trkpt>
      <trkpt lat="44.02427" lon="7.2277">
        <ele>1930</ele>
        <time>2018-05-13T06:46:02.000Z</time>
      </trkpt>
      <trkpt lat="44.02414" lon="7.22783">
        <ele>1927</ele>
        <time>2018-05-13T06:46:07.000Z</time>
      </trkpt>
      <trkpt lat="44.02403" lon="7.22795">
        <ele>1927</ele>
        <time>2018-05-13T06:46:13.000Z</time>
      </trkpt>
      <trkpt lat="44.02399" lon="7.22807">
        <ele>1928</ele>
        <time>2018-05-13T06:46:18.000Z</time>
      </trkpt>
      <trkpt lat="44.02397" lon="7.2281">
        <ele>1928</ele>
        <time>2018-05-13T06:46:20.000Z</time>
      </trkpt>
      <trkpt lat="44.02395" lon="7.22821">
        <ele>1930</ele>
        <time>2018-05-13T06:46:25.000Z</time>
      </trkpt>
      <trkpt lat="44.02394" lon="7.22833">
        <ele>1931</ele>
        <time>2018-05-13T06:46:30.000Z</time>
      </trkpt>
      <trkpt lat="44.02393" lon="7.22842">
        <ele>1936</ele>
        <time>2018-05-13T06:46:34.000Z</time>
      </trkpt>
      <trkpt lat="44.02392" lon="7.22846">
        <ele>1936</ele>
        <time>2018-05-13T06:46:36.000Z</time>
      </trkpt>
      <trkpt lat="44.02391" lon="7.2285">
        <ele>1936</ele>
        <time>2018-05-13T06:46:38.000Z</time>
      </trkpt>
      <trkpt lat="44.02388" lon="7.22863">
        <ele>1935</ele>
        <time>2018-05-13T06:46:43.000Z</time>
      </trkpt>
      <trkpt lat="44.02382" lon="7.22876">
        <ele>1934</ele>
        <time>2018-05-13T06:46:49.000Z</time>
      </trkpt>
      <trkpt lat="44.02381" lon="7.22877">
        <ele>1934</ele>
        <time>2018-05-13T06:46:50.000Z</time>
      </trkpt>
      <trkpt lat="44.02379" lon="7.2288">
        <ele>1934</ele>
        <time>2018-05-13T06:46:52.000Z</time>
      </trkpt>
      <trkpt lat="44.02378" lon="7.22882">
        <ele>1934</ele>
        <time>2018-05-13T06:46:53.000Z</time>
      </trkpt>
      <trkpt lat="44.02374" lon="7.22887">
        <ele>1934</ele>
        <time>2018-05-13T06:46:56.000Z</time>
      </trkpt>
      <trkpt lat="44.02364" lon="7.22901">
        <ele>1935</ele>
        <time>2018-05-13T06:47:05.000Z</time>
      </trkpt>
      <trkpt lat="44.0236" lon="7.22907">
        <ele>1936</ele>
        <time>2018-05-13T06:47:08.000Z</time>
      </trkpt>
      <trkpt lat="44.02358" lon="7.22909">
        <ele>1936</ele>
        <time>2018-05-13T06:47:10.000Z</time>
      </trkpt>
      <trkpt lat="44.0235" lon="7.22917">
        <ele>1936</ele>
        <time>2018-05-13T06:47:16.000Z</time>
      </trkpt>
      <trkpt lat="44.02345" lon="7.22926">
        <ele>1936</ele>
        <time>2018-05-13T06:47:20.000Z</time>
      </trkpt>
      <trkpt lat="44.02343" lon="7.22929">
        <ele>1936</ele>
        <time>2018-05-13T06:47:21.000Z</time>
      </trkpt>
      <trkpt lat="44.02333" lon="7.2294">
        <ele>1934</ele>
        <time>2018-05-13T06:47:26.000Z</time>
      </trkpt>
      <trkpt lat="44.02316" lon="7.22952">
        <ele>1931</ele>
        <time>2018-05-13T06:47:32.000Z</time>
      </trkpt>
      <trkpt lat="44.02308" lon="7.22969">
        <ele>1931</ele>
        <time>2018-05-13T06:47:36.000Z</time>
      </trkpt>
      <trkpt lat="44.02308" lon="7.22976">
        <ele>1932</ele>
        <time>2018-05-13T06:47:37.000Z</time>
      </trkpt>
      <trkpt lat="44.02303" lon="7.22989">
        <ele>1932</ele>
        <time>2018-05-13T06:47:39.000Z</time>
      </trkpt>
      <trkpt lat="44.02301" lon="7.22994">
        <ele>1932</ele>
        <time>2018-05-13T06:47:40.000Z</time>
      </trkpt>
      <trkpt lat="44.02294" lon="7.23012">
        <ele>1929</ele>
        <time>2018-05-13T06:47:44.000Z</time>
      </trkpt>
      <trkpt lat="44.02292" lon="7.23017">
        <ele>1929</ele>
        <time>2018-05-13T06:47:45.000Z</time>
      </trkpt>
      <trkpt lat="44.02289" lon="7.23022">
        <ele>1928</ele>
        <time>2018-05-13T06:47:46.000Z</time>
      </trkpt>
      <trkpt lat="44.0228" lon="7.23036">
        <ele>1928</ele>
        <time>2018-05-13T06:47:49.000Z</time>
      </trkpt>
      <trkpt lat="44.02273" lon="7.23046">
        <ele>1928</ele>
        <time>2018-05-13T06:47:51.000Z</time>
      </trkpt>
      <trkpt lat="44.0227" lon="7.23049">
        <ele>1928</ele>
        <time>2018-05-13T06:47:52.000Z</time>
      </trkpt>
      <trkpt lat="44.02265" lon="7.23053">
        <ele>1929</ele>
        <time>2018-05-13T06:47:54.000Z</time>
      </trkpt>
      <trkpt lat="44.02249" lon="7.23062">
        <ele>1930</ele>
        <time>2018-05-13T06:47:59.000Z</time>
      </trkpt>
      <trkpt lat="44.02232" lon="7.23075">
        <ele>1930</ele>
        <time>2018-05-13T06:48:04.000Z</time>
      </trkpt>
      <trkpt lat="44.02228" lon="7.23076">
        <ele>1929</ele>
        <time>2018-05-13T06:48:05.000Z</time>
      </trkpt>
      <trkpt lat="44.02223" lon="7.23078">
        <ele>1928</ele>
        <time>2018-05-13T06:48:06.000Z</time>
      </trkpt>
      <trkpt lat="44.02217" lon="7.23081">
        <ele>1927</ele>
        <time>2018-05-13T06:48:07.000Z</time>
      </trkpt>
      <trkpt lat="44.02212" lon="7.23085">
        <ele>1928</ele>
        <time>2018-05-13T06:48:08.000Z</time>
      </trkpt>
      <trkpt lat="44.02202" lon="7.23089">
        <ele>1928</ele>
        <time>2018-05-13T06:48:10.000Z</time>
      </trkpt>
      <trkpt lat="44.02193" lon="7.23092">
        <ele>1928</ele>
        <time>2018-05-13T06:48:12.000Z</time>
      </trkpt>
      <trkpt lat="44.02182" lon="7.23093">
        <ele>1928</ele>
        <time>2018-05-13T06:48:16.000Z</time>
      </trkpt>
      <trkpt lat="44.02176" lon="7.23096">
        <ele>1928</ele>
        <time>2018-05-13T06:48:18.000Z</time>
      </trkpt>
      <trkpt lat="44.02163" lon="7.23101">
        <ele>1928</ele>
        <time>2018-05-13T06:48:22.000Z</time>
      </trkpt>
      <trkpt lat="44.02145" lon="7.23111">
        <ele>1927</ele>
        <time>2018-05-13T06:48:28.000Z</time>
      </trkpt>
      <trkpt lat="44.02134" lon="7.23113">
        <ele>1927</ele>
        <time>2018-05-13T06:48:32.000Z</time>
      </trkpt>
      <trkpt lat="44.02124" lon="7.23112">
        <ele>1926</ele>
        <time>2018-05-13T06:48:35.000Z</time>
      </trkpt>
      <trkpt lat="44.02115" lon="7.23114">
        <ele>1926</ele>
        <time>2018-05-13T06:48:37.000Z</time>
      </trkpt>
      <trkpt lat="44.02101" lon="7.23125">
        <ele>1927</ele>
        <time>2018-05-13T06:48:41.000Z</time>
      </trkpt>
      <trkpt lat="44.02098" lon="7.23126">
        <ele>1927</ele>
        <time>2018-05-13T06:48:42.000Z</time>
      </trkpt>
      <trkpt lat="44.02091" lon="7.2313">
        <ele>1928</ele>
        <time>2018-05-13T06:48:44.000Z</time>
      </trkpt>
      <trkpt lat="44.02086" lon="7.23132">
        <ele>1929</ele>
        <time>2018-05-13T06:48:46.000Z</time>
      </trkpt>
      <trkpt lat="44.02079" lon="7.23135">
        <ele>1925</ele>
        <time>2018-05-13T06:48:48.000Z</time>
      </trkpt>
      <trkpt lat="44.02072" lon="7.23138">
        <ele>1925</ele>
        <time>2018-05-13T06:48:50.000Z</time>
      </trkpt>
      <trkpt lat="44.02069" lon="7.23137">
        <ele>1924</ele>
        <time>2018-05-13T06:48:51.000Z</time>
      </trkpt>
      <trkpt lat="44.02063" lon="7.2314">
        <ele>1924</ele>
        <time>2018-05-13T06:48:53.000Z</time>
      </trkpt>
      <trkpt lat="44.0206" lon="7.23141">
        <ele>1924</ele>
        <time>2018-05-13T06:48:54.000Z</time>
      </trkpt>
      <trkpt lat="44.02056" lon="7.23144">
        <ele>1924</ele>
        <time>2018-05-13T06:48:55.000Z</time>
      </trkpt>
      <trkpt lat="44.02048" lon="7.2315">
        <ele>1924</ele>
        <time>2018-05-13T06:48:57.000Z</time>
      </trkpt>
      <trkpt lat="44.02046" lon="7.23152">
        <ele>1924</ele>
        <time>2018-05-13T06:48:58.000Z</time>
      </trkpt>
      <trkpt lat="44.02041" lon="7.23155">
        <ele>1925</ele>
        <time>2018-05-13T06:48:59.000Z</time>
      </trkpt>
      <trkpt lat="44.02038" lon="7.23155">
        <ele>1924</ele>
        <time>2018-05-13T06:49:00.000Z</time>
      </trkpt>
      <trkpt lat="44.02035" lon="7.23154">
        <ele>1924</ele>
        <time>2018-05-13T06:49:01.000Z</time>
      </trkpt>
      <trkpt lat="44.02028" lon="7.23161">
        <ele>1925</ele>
        <time>2018-05-13T06:49:04.000Z</time>
      </trkpt>
      <trkpt lat="44.02025" lon="7.23163">
        <ele>1925</ele>
        <time>2018-05-13T06:49:05.000Z</time>
      </trkpt>
      <trkpt lat="44.02022" lon="7.23165">
        <ele>1926</ele>
        <time>2018-05-13T06:49:06.000Z</time>
      </trkpt>
      <trkpt lat="44.0202" lon="7.23169">
        <ele>1934</ele>
        <time>2018-05-13T06:49:08.000Z</time>
      </trkpt>
      <trkpt lat="44.02017" lon="7.23171">
        <ele>1934</ele>
        <time>2018-05-13T06:49:09.000Z</time>
      </trkpt>
      <trkpt lat="44.02015" lon="7.2317">
        <ele>1934</ele>
        <time>2018-05-13T06:49:10.000Z</time>
      </trkpt>
      <trkpt lat="44.02012" lon="7.23172">
        <ele>1934</ele>
        <time>2018-05-13T06:49:11.000Z</time>
      </trkpt>
      <trkpt lat="44.02005" lon="7.23169">
        <ele>1933</ele>
        <time>2018-05-13T06:49:14.000Z</time>
      </trkpt>
      <trkpt lat="44.02" lon="7.2317">
        <ele>1934</ele>
        <time>2018-05-13T06:49:16.000Z</time>
      </trkpt>
      <trkpt lat="44.01997" lon="7.23169">
        <ele>1934</ele>
        <time>2018-05-13T06:49:17.000Z</time>
      </trkpt>
      <trkpt lat="44.01994" lon="7.23168">
        <ele>1935</ele>
        <time>2018-05-13T06:49:18.000Z</time>
      </trkpt>
      <trkpt lat="44.01991" lon="7.23167">
        <ele>1936</ele>
        <time>2018-05-13T06:49:19.000Z</time>
      </trkpt>
      <trkpt lat="44.01986" lon="7.23164">
        <ele>1923</ele>
        <time>2018-05-13T06:49:21.000Z</time>
      </trkpt>
      <trkpt lat="44.01981" lon="7.23161">
        <ele>1921</ele>
        <time>2018-05-13T06:49:23.000Z</time>
      </trkpt>
      <trkpt lat="44.01976" lon="7.23158">
        <ele>1919</ele>
        <time>2018-05-13T06:49:25.000Z</time>
      </trkpt>
      <trkpt lat="44.0197" lon="7.23156">
        <ele>1917</ele>
        <time>2018-05-13T06:49:27.000Z</time>
      </trkpt>
      <trkpt lat="44.01967" lon="7.23154">
        <ele>1917</ele>
        <time>2018-05-13T06:49:28.000Z</time>
      </trkpt>
      <trkpt lat="44.01964" lon="7.23152">
        <ele>1916</ele>
        <time>2018-05-13T06:49:29.000Z</time>
      </trkpt>
      <trkpt lat="44.0196" lon="7.23148">
        <ele>1915</ele>
        <time>2018-05-13T06:49:31.000Z</time>
      </trkpt>
      <trkpt lat="44.01956" lon="7.23145">
        <ele>1915</ele>
        <time>2018-05-13T06:49:33.000Z</time>
      </trkpt>
      <trkpt lat="44.01952" lon="7.23142">
        <ele>1914</ele>
        <time>2018-05-13T06:49:35.000Z</time>
      </trkpt>
      <trkpt lat="44.01943" lon="7.23137">
        <ele>1913</ele>
        <time>2018-05-13T06:49:38.000Z</time>
      </trkpt>
      <trkpt lat="44.01941" lon="7.23136">
        <ele>1913</ele>
        <time>2018-05-13T06:49:39.000Z</time>
      </trkpt>
      <trkpt lat="44.0194" lon="7.23136">
        <ele>1912</ele>
        <time>2018-05-13T06:49:40.000Z</time>
      </trkpt>
      <trkpt lat="44.01935" lon="7.23132">
        <ele>1911</ele>
        <time>2018-05-13T06:49:42.000Z</time>
      </trkpt>
      <trkpt lat="44.01934" lon="7.23128">
        <ele>1910</ele>
        <time>2018-05-13T06:49:43.000Z</time>
      </trkpt>
      <trkpt lat="44.01931" lon="7.23125">
        <ele>1909</ele>
        <time>2018-05-13T06:49:44.000Z</time>
      </trkpt>
      <trkpt lat="44.01927" lon="7.2312">
        <ele>1907</ele>
        <time>2018-05-13T06:49:46.000Z</time>
      </trkpt>
      <trkpt lat="44.01923" lon="7.23119">
        <ele>1906</ele>
        <time>2018-05-13T06:49:47.000Z</time>
      </trkpt>
      <trkpt lat="44.0192" lon="7.23119">
        <ele>1906</ele>
        <time>2018-05-13T06:49:48.000Z</time>
      </trkpt>
      <trkpt lat="44.01912" lon="7.23114">
        <ele>1905</ele>
        <time>2018-05-13T06:49:50.000Z</time>
      </trkpt>
      <trkpt lat="44.01909" lon="7.23111">
        <ele>1904</ele>
        <time>2018-05-13T06:49:51.000Z</time>
      </trkpt>
      <trkpt lat="44.01905" lon="7.23107">
        <ele>1902</ele>
        <time>2018-05-13T06:49:52.000Z</time>
      </trkpt>
      <trkpt lat="44.01899" lon="7.23099">
        <ele>1900</ele>
        <time>2018-05-13T06:49:54.000Z</time>
      </trkpt>
      <trkpt lat="44.01893" lon="7.23091">
        <ele>1900</ele>
        <time>2018-05-13T06:49:56.000Z</time>
      </trkpt>
      <trkpt lat="44.0189" lon="7.23087">
        <ele>1900</ele>
        <time>2018-05-13T06:49:57.000Z</time>
      </trkpt>
      <trkpt lat="44.01886" lon="7.23083">
        <ele>1874</ele>
        <time>2018-05-13T06:49:58.000Z</time>
      </trkpt>
      <trkpt lat="44.01882" lon="7.23081">
        <ele>1874</ele>
        <time>2018-05-13T06:49:59.000Z</time>
      </trkpt>
      <trkpt lat="44.01876" lon="7.23078">
        <ele>1874</ele>
        <time>2018-05-13T06:50:01.000Z</time>
      </trkpt>
      <trkpt lat="44.0187" lon="7.23077">
        <ele>1875</ele>
        <time>2018-05-13T06:50:03.000Z</time>
      </trkpt>
      <trkpt lat="44.01865" lon="7.23077">
        <ele>1876</ele>
        <time>2018-05-13T06:50:05.000Z</time>
      </trkpt>
      <trkpt lat="44.01862" lon="7.23076">
        <ele>1876</ele>
        <time>2018-05-13T06:50:06.000Z</time>
      </trkpt>
      <trkpt lat="44.01858" lon="7.23075">
        <ele>1877</ele>
        <time>2018-05-13T06:50:07.000Z</time>
      </trkpt>
      <trkpt lat="44.01848" lon="7.23071">
        <ele>1879</ele>
        <time>2018-05-13T06:50:10.000Z</time>
      </trkpt>
      <trkpt lat="44.01845" lon="7.23068">
        <ele>1879</ele>
        <time>2018-05-13T06:50:12.000Z</time>
      </trkpt>
      <trkpt lat="44.0184" lon="7.23067">
        <ele>1880</ele>
        <time>2018-05-13T06:50:15.000Z</time>
      </trkpt>
      <trkpt lat="44.01832" lon="7.23066">
        <ele>1884</ele>
        <time>2018-05-13T06:50:18.000Z</time>
      </trkpt>
      <trkpt lat="44.01829" lon="7.23064">
        <ele>1883</ele>
        <time>2018-05-13T06:50:19.000Z</time>
      </trkpt>
      <trkpt lat="44.01828" lon="7.23061">
        <ele>1882</ele>
        <time>2018-05-13T06:50:20.000Z</time>
      </trkpt>
      <trkpt lat="44.01828" lon="7.23053">
        <ele>1879</ele>
        <time>2018-05-13T06:50:22.000Z</time>
      </trkpt>
      <trkpt lat="44.01827" lon="7.23049">
        <ele>1877</ele>
        <time>2018-05-13T06:50:23.000Z</time>
      </trkpt>
      <trkpt lat="44.01826" lon="7.23045">
        <ele>1875</ele>
        <time>2018-05-13T06:50:24.000Z</time>
      </trkpt>
      <trkpt lat="44.01824" lon="7.23042">
        <ele>1875</ele>
        <time>2018-05-13T06:50:25.000Z</time>
      </trkpt>
      <trkpt lat="44.01823" lon="7.23041">
        <ele>1874</ele>
        <time>2018-05-13T06:50:26.000Z</time>
      </trkpt>
      <trkpt lat="44.01821" lon="7.23039">
        <ele>1874</ele>
        <time>2018-05-13T06:50:27.000Z</time>
      </trkpt>
      <trkpt lat="44.01812" lon="7.23027">
        <ele>1870</ele>
        <time>2018-05-13T06:50:31.000Z</time>
      </trkpt>
      <trkpt lat="44.01808" lon="7.23024">
        <ele>1870</ele>
        <time>2018-05-13T06:50:33.000Z</time>
      </trkpt>
      <trkpt lat="44.01804" lon="7.23018">
        <ele>1869</ele>
        <time>2018-05-13T06:50:35.000Z</time>
      </trkpt>
      <trkpt lat="44.01801" lon="7.23015">
        <ele>1869</ele>
        <time>2018-05-13T06:50:36.000Z</time>
      </trkpt>
      <trkpt lat="44.01798" lon="7.2301">
        <ele>1868</ele>
        <time>2018-05-13T06:50:37.000Z</time>
      </trkpt>
      <trkpt lat="44.01796" lon="7.23007">
        <ele>1868</ele>
        <time>2018-05-13T06:50:38.000Z</time>
      </trkpt>
      <trkpt lat="44.01793" lon="7.23004">
        <ele>1868</ele>
        <time>2018-05-13T06:50:39.000Z</time>
      </trkpt>
      <trkpt lat="44.01791" lon="7.23001">
        <ele>1868</ele>
        <time>2018-05-13T06:50:40.000Z</time>
      </trkpt>
      <trkpt lat="44.01788" lon="7.22998">
        <ele>1846</ele>
        <time>2018-05-13T06:50:41.000Z</time>
      </trkpt>
      <trkpt lat="44.01782" lon="7.22993">
        <ele>1846</ele>
        <time>2018-05-13T06:50:43.000Z</time>
      </trkpt>
      <trkpt lat="44.01775" lon="7.2299">
        <ele>1848</ele>
        <time>2018-05-13T06:50:45.000Z</time>
      </trkpt>
      <trkpt lat="44.01766" lon="7.22988">
        <ele>1850</ele>
        <time>2018-05-13T06:50:47.000Z</time>
      </trkpt>
      <trkpt lat="44.01758" lon="7.22986">
        <ele>1851</ele>
        <time>2018-05-13T06:50:49.000Z</time>
      </trkpt>
      <trkpt lat="44.01755" lon="7.22987">
        <ele>1852</ele>
        <time>2018-05-13T06:50:50.000Z</time>
      </trkpt>
      <trkpt lat="44.01754" lon="7.22987">
        <ele>1852</ele>
        <time>2018-05-13T06:50:51.000Z</time>
      </trkpt>
      <trkpt lat="44.01748" lon="7.22989">
        <ele>1859</ele>
        <time>2018-05-13T06:50:53.000Z</time>
      </trkpt>
      <trkpt lat="44.01743" lon="7.22989">
        <ele>1858</ele>
        <time>2018-05-13T06:50:55.000Z</time>
      </trkpt>
      <trkpt lat="44.0174" lon="7.22987">
        <ele>1858</ele>
        <time>2018-05-13T06:50:57.000Z</time>
      </trkpt>
      <trkpt lat="44.01738" lon="7.22988">
        <ele>1857</ele>
        <time>2018-05-13T06:51:00.000Z</time>
      </trkpt>
      <trkpt lat="44.01736" lon="7.22988">
        <ele>1857</ele>
        <time>2018-05-13T06:51:03.000Z</time>
      </trkpt>
      <trkpt lat="44.01735" lon="7.22987">
        <ele>1857</ele>
        <time>2018-05-13T06:51:04.000Z</time>
      </trkpt>
      <trkpt lat="44.01731" lon="7.22985">
        <ele>1857</ele>
        <time>2018-05-13T06:51:10.000Z</time>
      </trkpt>
      <trkpt lat="44.01732" lon="7.22983">
        <ele>1856</ele>
        <time>2018-05-13T06:51:13.000Z</time>
      </trkpt>
      <trkpt lat="44.01734" lon="7.22983">
        <ele>1856</ele>
        <time>2018-05-13T06:51:14.000Z</time>
      </trkpt>
      <trkpt lat="44.01739" lon="7.22983">
        <ele>1857</ele>
        <time>2018-05-13T06:51:16.000Z</time>
      </trkpt>
      <trkpt lat="44.01741" lon="7.22983">
        <ele>1857</ele>
        <time>2018-05-13T06:51:17.000Z</time>
      </trkpt>
      <trkpt lat="44.01746" lon="7.22979">
        <ele>1856</ele>
        <time>2018-05-13T06:51:20.000Z</time>
      </trkpt>
      <trkpt lat="44.01746" lon="7.22977">
        <ele>1855</ele>
        <time>2018-05-13T06:51:21.000Z</time>
      </trkpt>
      <trkpt lat="44.01747" lon="7.22976">
        <ele>1855</ele>
        <time>2018-05-13T06:51:22.000Z</time>
      </trkpt>
      <trkpt lat="44.01747" lon="7.22976">
        <ele>1855</ele>
        <time>2018-05-13T06:51:24.000Z</time>
      </trkpt>
      <trkpt lat="44.01748" lon="7.22973">
        <ele>1854</ele>
        <time>2018-05-13T06:51:26.000Z</time>
      </trkpt>
      <trkpt lat="44.01749" lon="7.22972">
        <ele>1854</ele>
        <time>2018-05-13T06:51:27.000Z</time>
      </trkpt>
      <trkpt lat="44.01748" lon="7.22972">
        <ele>1854</ele>
        <time>2018-05-13T06:51:31.000Z</time>
      </trkpt>
      <trkpt lat="44.01747" lon="7.2297">
        <ele>1853</ele>
        <time>2018-05-13T06:51:33.000Z</time>
      </trkpt>
      <trkpt lat="44.01747" lon="7.2297">
        <ele>1854</ele>
        <time>2018-05-13T06:51:34.000Z</time>
      </trkpt>
      <trkpt lat="44.01746" lon="7.22971">
        <ele>1854</ele>
        <time>2018-05-13T06:51:35.000Z</time>
      </trkpt>
      <trkpt lat="44.01745" lon="7.22971">
        <ele>1854</ele>
        <time>2018-05-13T06:51:36.000Z</time>
      </trkpt>
      <trkpt lat="44.01745" lon="7.22973">
        <ele>1854</ele>
        <time>2018-05-13T06:51:39.000Z</time>
      </trkpt>
      <trkpt lat="44.01745" lon="7.22972">
        <ele>1854</ele>
        <time>2018-05-13T06:51:40.000Z</time>
      </trkpt>
      <trkpt lat="44.01739" lon="7.22974">
        <ele>1855</ele>
        <time>2018-05-13T06:51:44.000Z</time>
      </trkpt>
      <trkpt lat="44.0173" lon="7.22965">
        <ele>1853</ele>
        <time>2018-05-13T06:51:48.000Z</time>
      </trkpt>
      <trkpt lat="44.01724" lon="7.22962">
        <ele>1853</ele>
        <time>2018-05-13T06:51:50.000Z</time>
      </trkpt>
      <trkpt lat="44.01721" lon="7.2296">
        <ele>1852</ele>
        <time>2018-05-13T06:51:51.000Z</time>
      </trkpt>
      <trkpt lat="44.0172" lon="7.22962">
        <ele>1853</ele>
        <time>2018-05-13T06:51:52.000Z</time>
      </trkpt>
      <trkpt lat="44.01718" lon="7.22962">
        <ele>1853</ele>
        <time>2018-05-13T06:51:53.000Z</time>
      </trkpt>
      <trkpt lat="44.01717" lon="7.22962">
        <ele>1853</ele>
        <time>2018-05-13T06:51:54.000Z</time>
      </trkpt>
      <trkpt lat="44.01714" lon="7.22963">
        <ele>1854</ele>
        <time>2018-05-13T06:51:56.000Z</time>
      </trkpt>
      <trkpt lat="44.01708" lon="7.22965">
        <ele>1854</ele>
        <time>2018-05-13T06:51:58.000Z</time>
      </trkpt>
      <trkpt lat="44.01705" lon="7.22966">
        <ele>1855</ele>
        <time>2018-05-13T06:52:00.000Z</time>
      </trkpt>
      <trkpt lat="44.01706" lon="7.22965">
        <ele>1855</ele>
        <time>2018-05-13T06:52:02.000Z</time>
      </trkpt>
      <trkpt lat="44.017" lon="7.22964">
        <ele>1855</ele>
        <time>2018-05-13T06:52:04.000Z</time>
      </trkpt>
      <trkpt lat="44.01699" lon="7.22962">
        <ele>1855</ele>
        <time>2018-05-13T06:52:05.000Z</time>
      </trkpt>
      <trkpt lat="44.01698" lon="7.22957">
        <ele>1854</ele>
        <time>2018-05-13T06:52:07.000Z</time>
      </trkpt>
      <trkpt lat="44.01697" lon="7.22955">
        <ele>1854</ele>
        <time>2018-05-13T06:52:08.000Z</time>
      </trkpt>
      <trkpt lat="44.01697" lon="7.22955">
        <ele>1854</ele>
        <time>2018-05-13T06:52:10.000Z</time>
      </trkpt>
      <trkpt lat="44.01696" lon="7.22951">
        <ele>1853</ele>
        <time>2018-05-13T06:52:12.000Z</time>
      </trkpt>
      <trkpt lat="44.01697" lon="7.22948">
        <ele>1853</ele>
        <time>2018-05-13T06:52:14.000Z</time>
      </trkpt>
      <trkpt lat="44.01696" lon="7.22947">
        <ele>1852</ele>
        <time>2018-05-13T06:52:15.000Z</time>
      </trkpt>
      <trkpt lat="44.01694" lon="7.2294">
        <ele>1852</ele>
        <time>2018-05-13T06:52:21.000Z</time>
      </trkpt>
      <trkpt lat="44.01688" lon="7.22936">
        <ele>1852</ele>
        <time>2018-05-13T06:52:26.000Z</time>
      </trkpt>
      <trkpt lat="44.01685" lon="7.22935">
        <ele>1852</ele>
        <time>2018-05-13T06:52:32.000Z</time>
      </trkpt>
      <trkpt lat="44.01677" lon="7.22931">
        <ele>1851</ele>
        <time>2018-05-13T06:52:35.000Z</time>
      </trkpt>
      <trkpt lat="44.01677" lon="7.22926">
        <ele>1851</ele>
        <time>2018-05-13T06:52:38.000Z</time>
      </trkpt>
      <trkpt lat="44.01679" lon="7.22924">
        <ele>1850</ele>
        <time>2018-05-13T06:52:42.000Z</time>
      </trkpt>
      <trkpt lat="44.01679" lon="7.22922">
        <ele>1850</ele>
        <time>2018-05-13T06:52:43.000Z</time>
      </trkpt>
      <trkpt lat="44.01677" lon="7.22913">
        <ele>1841</ele>
        <time>2018-05-13T06:52:49.000Z</time>
      </trkpt>
      <trkpt lat="44.01671" lon="7.22901">
        <ele>1837</ele>
        <time>2018-05-13T06:52:55.000Z</time>
      </trkpt>
      <trkpt lat="44.01667" lon="7.22886">
        <ele>1832</ele>
        <time>2018-05-13T06:52:59.000Z</time>
      </trkpt>
      <trkpt lat="44.01666" lon="7.22883">
        <ele>1847</ele>
        <time>2018-05-13T06:53:00.000Z</time>
      </trkpt>
      <trkpt lat="44.01665" lon="7.22879">
        <ele>1846</ele>
        <time>2018-05-13T06:53:01.000Z</time>
      </trkpt>
      <trkpt lat="44.01663" lon="7.22869">
        <ele>1844</ele>
        <time>2018-05-13T06:53:03.000Z</time>
      </trkpt>
      <trkpt lat="44.01661" lon="7.22862">
        <ele>1842</ele>
        <time>2018-05-13T06:53:05.000Z</time>
      </trkpt>
      <trkpt lat="44.01656" lon="7.22854">
        <ele>1840</ele>
        <time>2018-05-13T06:53:07.000Z</time>
      </trkpt>
      <trkpt lat="44.01652" lon="7.22849">
        <ele>1839</ele>
        <time>2018-05-13T06:53:09.000Z</time>
      </trkpt>
      <trkpt lat="44.01651" lon="7.22848">
        <ele>1839</ele>
        <time>2018-05-13T06:53:10.000Z</time>
      </trkpt>
      <trkpt lat="44.0165" lon="7.22847">
        <ele>1839</ele>
        <time>2018-05-13T06:53:12.000Z</time>
      </trkpt>
      <trkpt lat="44.01649" lon="7.22846">
        <ele>1839</ele>
        <time>2018-05-13T06:53:13.000Z</time>
      </trkpt>
      <trkpt lat="44.01643" lon="7.22842">
        <ele>1840</ele>
        <time>2018-05-13T06:53:18.000Z</time>
      </trkpt>
      <trkpt lat="44.01641" lon="7.2284">
        <ele>1840</ele>
        <time>2018-05-13T06:53:19.000Z</time>
      </trkpt>
      <trkpt lat="44.01635" lon="7.22832">
        <ele>1823</ele>
        <time>2018-05-13T06:53:23.000Z</time>
      </trkpt>
      <trkpt lat="44.01636" lon="7.22833">
        <ele>1823</ele>
        <time>2018-05-13T06:53:24.000Z</time>
      </trkpt>
      <trkpt lat="44.01634" lon="7.22832">
        <ele>1823</ele>
        <time>2018-05-13T06:53:27.000Z</time>
      </trkpt>
      <trkpt lat="44.01634" lon="7.22831">
        <ele>1823</ele>
        <time>2018-05-13T06:53:28.000Z</time>
      </trkpt>
      <trkpt lat="44.0163" lon="7.22826">
        <ele>1823</ele>
        <time>2018-05-13T06:53:33.000Z</time>
      </trkpt>
      <trkpt lat="44.01628" lon="7.22824">
        <ele>1823</ele>
        <time>2018-05-13T06:53:35.000Z</time>
      </trkpt>
      <trkpt lat="44.01626" lon="7.22823">
        <ele>1824</ele>
        <time>2018-05-13T06:53:36.000Z</time>
      </trkpt>
      <trkpt lat="44.01621" lon="7.2282">
        <ele>1824</ele>
        <time>2018-05-13T06:53:38.000Z</time>
      </trkpt>
      <trkpt lat="44.01615" lon="7.22817">
        <ele>1825</ele>
        <time>2018-05-13T06:53:40.000Z</time>
      </trkpt>
      <trkpt lat="44.01612" lon="7.22813">
        <ele>1825</ele>
        <time>2018-05-13T06:53:41.000Z</time>
      </trkpt>
      <trkpt lat="44.0161" lon="7.2281">
        <ele>1825</ele>
        <time>2018-05-13T06:53:42.000Z</time>
      </trkpt>
      <trkpt lat="44.01606" lon="7.22803">
        <ele>1825</ele>
        <time>2018-05-13T06:53:44.000Z</time>
      </trkpt>
      <trkpt lat="44.01603" lon="7.22799">
        <ele>1825</ele>
        <time>2018-05-13T06:53:47.000Z</time>
      </trkpt>
      <trkpt lat="44.016" lon="7.22796">
        <ele>1824</ele>
        <time>2018-05-13T06:53:49.000Z</time>
      </trkpt>
      <trkpt lat="44.01599" lon="7.22793">
        <ele>1824</ele>
        <time>2018-05-13T06:53:51.000Z</time>
      </trkpt>
      <trkpt lat="44.016" lon="7.22792">
        <ele>1824</ele>
        <time>2018-05-13T06:53:52.000Z</time>
      </trkpt>
      <trkpt lat="44.01605" lon="7.22782">
        <ele>1822</ele>
        <time>2018-05-13T06:53:56.000Z</time>
      </trkpt>
      <trkpt lat="44.01606" lon="7.2278">
        <ele>1821</ele>
        <time>2018-05-13T06:53:57.000Z</time>
      </trkpt>
      <trkpt lat="44.01609" lon="7.22769">
        <ele>1820</ele>
        <time>2018-05-13T06:54:01.000Z</time>
      </trkpt>
      <trkpt lat="44.0161" lon="7.22766">
        <ele>1819</ele>
        <time>2018-05-13T06:54:02.000Z</time>
      </trkpt>
      <trkpt lat="44.01609" lon="7.22759">
        <ele>1819</ele>
        <time>2018-05-13T06:54:04.000Z</time>
      </trkpt>
      <trkpt lat="44.01608" lon="7.22752">
        <ele>1820</ele>
        <time>2018-05-13T06:54:06.000Z</time>
      </trkpt>
      <trkpt lat="44.01606" lon="7.2275">
        <ele>1820</ele>
        <time>2018-05-13T06:54:08.000Z</time>
      </trkpt>
      <trkpt lat="44.01604" lon="7.22747">
        <ele>1809</ele>
        <time>2018-05-13T06:54:09.000Z</time>
      </trkpt>
      <trkpt lat="44.01603" lon="7.22741">
        <ele>1808</ele>
        <time>2018-05-13T06:54:10.000Z</time>
      </trkpt>
      <trkpt lat="44.01605" lon="7.22734">
        <ele>1805</ele>
        <time>2018-05-13T06:54:12.000Z</time>
      </trkpt>
      <trkpt lat="44.01605" lon="7.2273">
        <ele>1805</ele>
        <time>2018-05-13T06:54:13.000Z</time>
      </trkpt>
      <trkpt lat="44.01601" lon="7.22715">
        <ele>1802</ele>
        <time>2018-05-13T06:54:16.000Z</time>
      </trkpt>
      <trkpt lat="44.01598" lon="7.22701">
        <ele>1801</ele>
        <time>2018-05-13T06:54:19.000Z</time>
      </trkpt>
      <trkpt lat="44.01597" lon="7.22695">
        <ele>1800</ele>
        <time>2018-05-13T06:54:21.000Z</time>
      </trkpt>
      <trkpt lat="44.01596" lon="7.2269">
        <ele>1801</ele>
        <time>2018-05-13T06:54:23.000Z</time>
      </trkpt>
      <trkpt lat="44.01595" lon="7.22688">
        <ele>1801</ele>
        <time>2018-05-13T06:54:25.000Z</time>
      </trkpt>
      <trkpt lat="44.01596" lon="7.22687">
        <ele>1801</ele>
        <time>2018-05-13T06:54:26.000Z</time>
      </trkpt>
      <trkpt lat="44.01596" lon="7.22684">
        <ele>1801</ele>
        <time>2018-05-13T06:54:29.000Z</time>
      </trkpt>
      <trkpt lat="44.01595" lon="7.22682">
        <ele>1801</ele>
        <time>2018-05-13T06:54:31.000Z</time>
      </trkpt>
      <trkpt lat="44.01594" lon="7.22678">
        <ele>1802</ele>
        <time>2018-05-13T06:54:34.000Z</time>
      </trkpt>
      <trkpt lat="44.01594" lon="7.22676">
        <ele>1802</ele>
        <time>2018-05-13T06:54:35.000Z</time>
      </trkpt>
      <trkpt lat="44.01593" lon="7.2267">
        <ele>1803</ele>
        <time>2018-05-13T06:54:39.000Z</time>
      </trkpt>
      <trkpt lat="44.01592" lon="7.22669">
        <ele>1804</ele>
        <time>2018-05-13T06:54:40.000Z</time>
      </trkpt>
      <trkpt lat="44.01591" lon="7.22668">
        <ele>1804</ele>
        <time>2018-05-13T06:54:41.000Z</time>
      </trkpt>
      <trkpt lat="44.01584" lon="7.2266">
        <ele>1800</ele>
        <time>2018-05-13T06:54:48.000Z</time>
      </trkpt>
      <trkpt lat="44.01579" lon="7.22652">
        <ele>1804</ele>
        <time>2018-05-13T06:54:52.000Z</time>
      </trkpt>
      <trkpt lat="44.01569" lon="7.22643">
        <ele>1801</ele>
        <time>2018-05-13T06:54:56.000Z</time>
      </trkpt>
      <trkpt lat="44.01567" lon="7.2264">
        <ele>1801</ele>
        <time>2018-05-13T06:54:57.000Z</time>
      </trkpt>
      <trkpt lat="44.01564" lon="7.22637">
        <ele>1800</ele>
        <time>2018-05-13T06:54:58.000Z</time>
      </trkpt>
      <trkpt lat="44.01556" lon="7.22631">
        <ele>1799</ele>
        <time>2018-05-13T06:55:00.000Z</time>
      </trkpt>
      <trkpt lat="44.01548" lon="7.22625">
        <ele>1798</ele>
        <time>2018-05-13T06:55:02.000Z</time>
      </trkpt>
      <trkpt lat="44.01544" lon="7.22623">
        <ele>1798</ele>
        <time>2018-05-13T06:55:03.000Z</time>
      </trkpt>
      <trkpt lat="44.01541" lon="7.22622">
        <ele>1798</ele>
        <time>2018-05-13T06:55:04.000Z</time>
      </trkpt>
      <trkpt lat="44.0154" lon="7.22619">
        <ele>1797</ele>
        <time>2018-05-13T06:55:05.000Z</time>
      </trkpt>
      <trkpt lat="44.01536" lon="7.22617">
        <ele>1797</ele>
        <time>2018-05-13T06:55:06.000Z</time>
      </trkpt>
      <trkpt lat="44.0153" lon="7.22615">
        <ele>1797</ele>
        <time>2018-05-13T06:55:08.000Z</time>
      </trkpt>
      <trkpt lat="44.01526" lon="7.22615">
        <ele>1797</ele>
        <time>2018-05-13T06:55:10.000Z</time>
      </trkpt>
      <trkpt lat="44.01519" lon="7.22613">
        <ele>1796</ele>
        <time>2018-05-13T06:55:12.000Z</time>
      </trkpt>
      <trkpt lat="44.0151" lon="7.22611">
        <ele>1795</ele>
        <time>2018-05-13T06:55:14.000Z</time>
      </trkpt>
      <trkpt lat="44.01506" lon="7.2261">
        <ele>1795</ele>
        <time>2018-05-13T06:55:15.000Z</time>
      </trkpt>
      <trkpt lat="44.01499" lon="7.2261">
        <ele>1795</ele>
        <time>2018-05-13T06:55:17.000Z</time>
      </trkpt>
      <trkpt lat="44.01497" lon="7.22608">
        <ele>1794</ele>
        <time>2018-05-13T06:55:18.000Z</time>
      </trkpt>
      <trkpt lat="44.01495" lon="7.22609">
        <ele>1794</ele>
        <time>2018-05-13T06:55:19.000Z</time>
      </trkpt>
      <trkpt lat="44.01489" lon="7.2261">
        <ele>1795</ele>
        <time>2018-05-13T06:55:21.000Z</time>
      </trkpt>
      <trkpt lat="44.01486" lon="7.22608">
        <ele>1794</ele>
        <time>2018-05-13T06:55:22.000Z</time>
      </trkpt>
      <trkpt lat="44.01482" lon="7.22608">
        <ele>1794</ele>
        <time>2018-05-13T06:55:23.000Z</time>
      </trkpt>
      <trkpt lat="44.01475" lon="7.22607">
        <ele>1794</ele>
        <time>2018-05-13T06:55:25.000Z</time>
      </trkpt>
      <trkpt lat="44.0147" lon="7.22605">
        <ele>1794</ele>
        <time>2018-05-13T06:55:26.000Z</time>
      </trkpt>
      <trkpt lat="44.01466" lon="7.22602">
        <ele>1793</ele>
        <time>2018-05-13T06:55:27.000Z</time>
      </trkpt>
      <trkpt lat="44.01459" lon="7.22598">
        <ele>1791</ele>
        <time>2018-05-13T06:55:29.000Z</time>
      </trkpt>
      <trkpt lat="44.01451" lon="7.22593">
        <ele>1789</ele>
        <time>2018-05-13T06:55:31.000Z</time>
      </trkpt>
      <trkpt lat="44.01443" lon="7.22589">
        <ele>1786</ele>
        <time>2018-05-13T06:55:33.000Z</time>
      </trkpt>
      <trkpt lat="44.01441" lon="7.2259">
        <ele>1786</ele>
        <time>2018-05-13T06:55:34.000Z</time>
      </trkpt>
      <trkpt lat="44.01437" lon="7.2259">
        <ele>1784</ele>
        <time>2018-05-13T06:55:35.000Z</time>
      </trkpt>
      <trkpt lat="44.01433" lon="7.22591">
        <ele>1782</ele>
        <time>2018-05-13T06:55:36.000Z</time>
      </trkpt>
      <trkpt lat="44.0143" lon="7.2259">
        <ele>1780</ele>
        <time>2018-05-13T06:55:37.000Z</time>
      </trkpt>
      <trkpt lat="44.01423" lon="7.22586">
        <ele>1773</ele>
        <time>2018-05-13T06:55:39.000Z</time>
      </trkpt>
      <trkpt lat="44.0142" lon="7.22584">
        <ele>1769</ele>
        <time>2018-05-13T06:55:40.000Z</time>
      </trkpt>
      <trkpt lat="44.01417" lon="7.22582">
        <ele>1764</ele>
        <time>2018-05-13T06:55:41.000Z</time>
      </trkpt>
      <trkpt lat="44.01406" lon="7.22578">
        <ele>1755</ele>
        <time>2018-05-13T06:55:44.000Z</time>
      </trkpt>
      <trkpt lat="44.01402" lon="7.22579">
        <ele>1754</ele>
        <time>2018-05-13T06:55:45.000Z</time>
      </trkpt>
      <trkpt lat="44.01391" lon="7.2258">
        <ele>1750</ele>
        <time>2018-05-13T06:55:48.000Z</time>
      </trkpt>
      <trkpt lat="44.01385" lon="7.22582">
        <ele>1750</ele>
        <time>2018-05-13T06:55:50.000Z</time>
      </trkpt>
      <trkpt lat="44.01381" lon="7.22583">
        <ele>1749</ele>
        <time>2018-05-13T06:55:51.000Z</time>
      </trkpt>
      <trkpt lat="44.01371" lon="7.22586">
        <ele>1780</ele>
        <time>2018-05-13T06:55:55.000Z</time>
      </trkpt>
      <trkpt lat="44.01371" lon="7.22586">
        <ele>1780</ele>
        <time>2018-05-13T06:55:58.000Z</time>
      </trkpt>
      <trkpt lat="44.01371" lon="7.22586">
        <ele>1780</ele>
        <time>2018-05-13T06:55:59.000Z</time>
      </trkpt>
      <trkpt lat="44.01368" lon="7.22589">
        <ele>1781</ele>
        <time>2018-05-13T06:56:06.000Z</time>
      </trkpt>
      <trkpt lat="44.01365" lon="7.2259">
        <ele>1780</ele>
        <time>2018-05-13T06:56:09.000Z</time>
      </trkpt>
      <trkpt lat="44.01365" lon="7.2259">
        <ele>1780</ele>
        <time>2018-05-13T06:56:11.000Z</time>
      </trkpt>
      <trkpt lat="44.01362" lon="7.22592">
        <ele>1780</ele>
        <time>2018-05-13T06:56:13.000Z</time>
      </trkpt>
      <trkpt lat="44.01357" lon="7.22591">
        <ele>1779</ele>
        <time>2018-05-13T06:56:15.000Z</time>
      </trkpt>
      <trkpt lat="44.01351" lon="7.22595">
        <ele>1778</ele>
        <time>2018-05-13T06:56:18.000Z</time>
      </trkpt>
      <trkpt lat="44.01348" lon="7.22596">
        <ele>1777</ele>
        <time>2018-05-13T06:56:19.000Z</time>
      </trkpt>
      <trkpt lat="44.01347" lon="7.22596">
        <ele>1777</ele>
        <time>2018-05-13T06:56:20.000Z</time>
      </trkpt>
      <trkpt lat="44.01343" lon="7.22599">
        <ele>1777</ele>
        <time>2018-05-13T06:56:23.000Z</time>
      </trkpt>
      <trkpt lat="44.01341" lon="7.22599">
        <ele>1777</ele>
        <time>2018-05-13T06:56:24.000Z</time>
      </trkpt>
      <trkpt lat="44.0134" lon="7.226">
        <ele>1777</ele>
        <time>2018-05-13T06:56:25.000Z</time>
      </trkpt>
      <trkpt lat="44.01337" lon="7.22598">
        <ele>1775</ele>
        <time>2018-05-13T06:56:27.000Z</time>
      </trkpt>
      <trkpt lat="44.01336" lon="7.22597">
        <ele>1775</ele>
        <time>2018-05-13T06:56:30.000Z</time>
      </trkpt>
      <trkpt lat="44.01335" lon="7.22597">
        <ele>1775</ele>
        <time>2018-05-13T06:56:32.000Z</time>
      </trkpt>
      <trkpt lat="44.01334" lon="7.22596">
        <ele>1774</ele>
        <time>2018-05-13T06:56:35.000Z</time>
      </trkpt>
      <trkpt lat="44.01334" lon="7.22596">
        <ele>1774</ele>
        <time>2018-05-13T06:56:36.000Z</time>
      </trkpt>
      <trkpt lat="44.0133" lon="7.22595">
        <ele>1776</ele>
        <time>2018-05-13T06:56:44.000Z</time>
      </trkpt>
      <trkpt lat="44.01328" lon="7.22594">
        <ele>1776</ele>
        <time>2018-05-13T06:56:53.000Z</time>
      </trkpt>
      <trkpt lat="44.01328" lon="7.22593">
        <ele>1775</ele>
        <time>2018-05-13T06:56:59.000Z</time>
      </trkpt>
      <trkpt lat="44.01329" lon="7.22589">
        <ele>1772</ele>
        <time>2018-05-13T06:57:03.000Z</time>
      </trkpt>
      <trkpt lat="44.01328" lon="7.22587">
        <ele>1771</ele>
        <time>2018-05-13T06:57:05.000Z</time>
      </trkpt>
      <trkpt lat="44.01325" lon="7.22583">
        <ele>1761</ele>
        <time>2018-05-13T06:57:08.000Z</time>
      </trkpt>
      <trkpt lat="44.0132" lon="7.22581">
        <ele>1761</ele>
        <time>2018-05-13T06:57:10.000Z</time>
      </trkpt>
      <trkpt lat="44.01319" lon="7.22581">
        <ele>1761</ele>
        <time>2018-05-13T06:57:11.000Z</time>
      </trkpt>
      <trkpt lat="44.01318" lon="7.2258">
        <ele>1760</ele>
        <time>2018-05-13T06:57:12.000Z</time>
      </trkpt>
      <trkpt lat="44.01316" lon="7.22578">
        <ele>1760</ele>
        <time>2018-05-13T06:57:15.000Z</time>
      </trkpt>
      <trkpt lat="44.01319" lon="7.22573">
        <ele>1760</ele>
        <time>2018-05-13T06:57:19.000Z</time>
      </trkpt>
      <trkpt lat="44.01318" lon="7.22562">
        <ele>1758</ele>
        <time>2018-05-13T06:57:24.000Z</time>
      </trkpt>
      <trkpt lat="44.01315" lon="7.22559">
        <ele>1757</ele>
        <time>2018-05-13T06:57:28.000Z</time>
      </trkpt>
      <trkpt lat="44.01313" lon="7.22557">
        <ele>1757</ele>
        <time>2018-05-13T06:57:31.000Z</time>
      </trkpt>
      <trkpt lat="44.01311" lon="7.22555">
        <ele>1757</ele>
        <time>2018-05-13T06:57:35.000Z</time>
      </trkpt>
      <trkpt lat="44.01309" lon="7.2255">
        <ele>1756</ele>
        <time>2018-05-13T06:57:38.000Z</time>
      </trkpt>
      <trkpt lat="44.01308" lon="7.22544">
        <ele>1755</ele>
        <time>2018-05-13T06:57:40.000Z</time>
      </trkpt>
      <trkpt lat="44.01305" lon="7.22537">
        <ele>1753</ele>
        <time>2018-05-13T06:57:42.000Z</time>
      </trkpt>
      <trkpt lat="44.01299" lon="7.2253">
        <ele>1753</ele>
        <time>2018-05-13T06:57:45.000Z</time>
      </trkpt>
      <trkpt lat="44.01297" lon="7.22529">
        <ele>1753</ele>
        <time>2018-05-13T06:57:47.000Z</time>
      </trkpt>
      <trkpt lat="44.01296" lon="7.22528">
        <ele>1753</ele>
        <time>2018-05-13T06:57:50.000Z</time>
      </trkpt>
      <trkpt lat="44.0129" lon="7.22519">
        <ele>1752</ele>
        <time>2018-05-13T06:57:54.000Z</time>
      </trkpt>
      <trkpt lat="44.0128" lon="7.22509">
        <ele>1753</ele>
        <time>2018-05-13T06:57:58.000Z</time>
      </trkpt>
      <trkpt lat="44.01277" lon="7.22506">
        <ele>1753</ele>
        <time>2018-05-13T06:57:59.000Z</time>
      </trkpt>
      <trkpt lat="44.0126" lon="7.22505">
        <ele>1755</ele>
        <time>2018-05-13T06:58:03.000Z</time>
      </trkpt>
      <trkpt lat="44.01257" lon="7.22505">
        <ele>1755</ele>
        <time>2018-05-13T06:58:04.000Z</time>
      </trkpt>
      <trkpt lat="44.01245" lon="7.22505">
        <ele>1762</ele>
        <time>2018-05-13T06:58:07.000Z</time>
      </trkpt>
      <trkpt lat="44.01243" lon="7.22506">
        <ele>1764</ele>
        <time>2018-05-13T06:58:08.000Z</time>
      </trkpt>
      <trkpt lat="44.01236" lon="7.22504">
        <ele>1768</ele>
        <time>2018-05-13T06:58:10.000Z</time>
      </trkpt>
      <trkpt lat="44.01234" lon="7.22498">
        <ele>1750</ele>
        <time>2018-05-13T06:58:11.000Z</time>
      </trkpt>
      <trkpt lat="44.01232" lon="7.22486">
        <ele>1748</ele>
        <time>2018-05-13T06:58:13.000Z</time>
      </trkpt>
      <trkpt lat="44.01231" lon="7.22482">
        <ele>1748</ele>
        <time>2018-05-13T06:58:14.000Z</time>
      </trkpt>
      <trkpt lat="44.01228" lon="7.22479">
        <ele>1747</ele>
        <time>2018-05-13T06:58:15.000Z</time>
      </trkpt>
      <trkpt lat="44.01225" lon="7.22475">
        <ele>1746</ele>
        <time>2018-05-13T06:58:16.000Z</time>
      </trkpt>
      <trkpt lat="44.01222" lon="7.22467">
        <ele>1745</ele>
        <time>2018-05-13T06:58:18.000Z</time>
      </trkpt>
      <trkpt lat="44.0122" lon="7.22463">
        <ele>1744</ele>
        <time>2018-05-13T06:58:19.000Z</time>
      </trkpt>
      <trkpt lat="44.01216" lon="7.22456">
        <ele>1742</ele>
        <time>2018-05-13T06:58:21.000Z</time>
      </trkpt>
      <trkpt lat="44.01213" lon="7.2245">
        <ele>1741</ele>
        <time>2018-05-13T06:58:23.000Z</time>
      </trkpt>
      <trkpt lat="44.01211" lon="7.22447">
        <ele>1741</ele>
        <time>2018-05-13T06:58:25.000Z</time>
      </trkpt>
      <trkpt lat="44.01204" lon="7.22439">
        <ele>1740</ele>
        <time>2018-05-13T06:58:27.000Z</time>
      </trkpt>
      <trkpt lat="44.01194" lon="7.22429">
        <ele>1740</ele>
        <time>2018-05-13T06:58:30.000Z</time>
      </trkpt>
      <trkpt lat="44.01192" lon="7.22426">
        <ele>1740</ele>
        <time>2018-05-13T06:58:31.000Z</time>
      </trkpt>
      <trkpt lat="44.01189" lon="7.22424">
        <ele>1740</ele>
        <time>2018-05-13T06:58:32.000Z</time>
      </trkpt>
      <trkpt lat="44.01187" lon="7.22424">
        <ele>1740</ele>
        <time>2018-05-13T06:58:33.000Z</time>
      </trkpt>
      <trkpt lat="44.01183" lon="7.22424">
        <ele>1740</ele>
        <time>2018-05-13T06:58:34.000Z</time>
      </trkpt>
      <trkpt lat="44.0118" lon="7.22424">
        <ele>1740</ele>
        <time>2018-05-13T06:58:35.000Z</time>
      </trkpt>
      <trkpt lat="44.0118" lon="7.22422">
        <ele>1739</ele>
        <time>2018-05-13T06:58:37.000Z</time>
      </trkpt>
      <trkpt lat="44.01175" lon="7.2242">
        <ele>1739</ele>
        <time>2018-05-13T06:58:38.000Z</time>
      </trkpt>
      <trkpt lat="44.01166" lon="7.22414">
        <ele>1738</ele>
        <time>2018-05-13T06:58:41.000Z</time>
      </trkpt>
      <trkpt lat="44.01165" lon="7.2241">
        <ele>1739</ele>
        <time>2018-05-13T06:58:43.000Z</time>
      </trkpt>
      <trkpt lat="44.01165" lon="7.22408">
        <ele>1739</ele>
        <time>2018-05-13T06:58:44.000Z</time>
      </trkpt>
      <trkpt lat="44.01166" lon="7.22406">
        <ele>1740</ele>
        <time>2018-05-13T06:58:46.000Z</time>
      </trkpt>
      <trkpt lat="44.01167" lon="7.22397">
        <ele>1719</ele>
        <time>2018-05-13T06:58:50.000Z</time>
      </trkpt>
      <trkpt lat="44.01174" lon="7.22388">
        <ele>1713</ele>
        <time>2018-05-13T06:58:54.000Z</time>
      </trkpt>
      <trkpt lat="44.01172" lon="7.2239">
        <ele>1714</ele>
        <time>2018-05-13T06:58:55.000Z</time>
      </trkpt>
      <trkpt lat="44.01172" lon="7.22382">
        <ele>1711</ele>
        <time>2018-05-13T06:58:56.000Z</time>
      </trkpt>
      <trkpt lat="44.01172" lon="7.22375">
        <ele>1709</ele>
        <time>2018-05-13T06:58:57.000Z</time>
      </trkpt>
      <trkpt lat="44.01174" lon="7.2237">
        <ele>1707</ele>
        <time>2018-05-13T06:58:58.000Z</time>
      </trkpt>
      <trkpt lat="44.01175" lon="7.22366">
        <ele>1706</ele>
        <time>2018-05-13T06:58:59.000Z</time>
      </trkpt>
      <trkpt lat="44.01177" lon="7.22362">
        <ele>1705</ele>
        <time>2018-05-13T06:59:00.000Z</time>
      </trkpt>
      <trkpt lat="44.01176" lon="7.22357">
        <ele>1705</ele>
        <time>2018-05-13T06:59:02.000Z</time>
      </trkpt>
      <trkpt lat="44.01175" lon="7.22353">
        <ele>1704</ele>
        <time>2018-05-13T06:59:03.000Z</time>
      </trkpt>
      <trkpt lat="44.01173" lon="7.22349">
        <ele>1704</ele>
        <time>2018-05-13T06:59:04.000Z</time>
      </trkpt>
      <trkpt lat="44.01169" lon="7.22343">
        <ele>1704</ele>
        <time>2018-05-13T06:59:06.000Z</time>
      </trkpt>
      <trkpt lat="44.01167" lon="7.22338">
        <ele>1704</ele>
        <time>2018-05-13T06:59:07.000Z</time>
      </trkpt>
      <trkpt lat="44.01163" lon="7.22335">
        <ele>1711</ele>
        <time>2018-05-13T06:59:08.000Z</time>
      </trkpt>
      <trkpt lat="44.01159" lon="7.22331">
        <ele>1708</ele>
        <time>2018-05-13T06:59:09.000Z</time>
      </trkpt>
      <trkpt lat="44.01152" lon="7.22322">
        <ele>1711</ele>
        <time>2018-05-13T06:59:11.000Z</time>
      </trkpt>
      <trkpt lat="44.01146" lon="7.2231">
        <ele>1713</ele>
        <time>2018-05-13T06:59:14.000Z</time>
      </trkpt>
      <trkpt lat="44.01143" lon="7.22306">
        <ele>1713</ele>
        <time>2018-05-13T06:59:15.000Z</time>
      </trkpt>
      <trkpt lat="44.01139" lon="7.22301">
        <ele>1714</ele>
        <time>2018-05-13T06:59:16.000Z</time>
      </trkpt>
      <trkpt lat="44.01136" lon="7.22297">
        <ele>1714</ele>
        <time>2018-05-13T06:59:17.000Z</time>
      </trkpt>
      <trkpt lat="44.01134" lon="7.22295">
        <ele>1714</ele>
        <time>2018-05-13T06:59:18.000Z</time>
      </trkpt>
      <trkpt lat="44.01133" lon="7.22292">
        <ele>1714</ele>
        <time>2018-05-13T06:59:19.000Z</time>
      </trkpt>
      <trkpt lat="44.01133" lon="7.22282">
        <ele>1712</ele>
        <time>2018-05-13T06:59:22.000Z</time>
      </trkpt>
      <trkpt lat="44.01131" lon="7.22268">
        <ele>1711</ele>
        <time>2018-05-13T06:59:26.000Z</time>
      </trkpt>
      <trkpt lat="44.01136" lon="7.22253">
        <ele>1706</ele>
        <time>2018-05-13T06:59:30.000Z</time>
      </trkpt>
      <trkpt lat="44.01131" lon="7.22242">
        <ele>1692</ele>
        <time>2018-05-13T06:59:33.000Z</time>
      </trkpt>
      <trkpt lat="44.01128" lon="7.22239">
        <ele>1693</ele>
        <time>2018-05-13T06:59:34.000Z</time>
      </trkpt>
      <trkpt lat="44.01122" lon="7.22236">
        <ele>1696</ele>
        <time>2018-05-13T06:59:35.000Z</time>
      </trkpt>
      <trkpt lat="44.01116" lon="7.22232">
        <ele>1698</ele>
        <time>2018-05-13T06:59:36.000Z</time>
      </trkpt>
      <trkpt lat="44.0111" lon="7.22226">
        <ele>1699</ele>
        <time>2018-05-13T06:59:37.000Z</time>
      </trkpt>
      <trkpt lat="44.01104" lon="7.22212">
        <ele>1697</ele>
        <time>2018-05-13T06:59:39.000Z</time>
      </trkpt>
      <trkpt lat="44.01101" lon="7.22207">
        <ele>1697</ele>
        <time>2018-05-13T06:59:40.000Z</time>
      </trkpt>
      <trkpt lat="44.01097" lon="7.22196">
        <ele>1697</ele>
        <time>2018-05-13T06:59:42.000Z</time>
      </trkpt>
      <trkpt lat="44.01095" lon="7.22192">
        <ele>1697</ele>
        <time>2018-05-13T06:59:43.000Z</time>
      </trkpt>
      <trkpt lat="44.01092" lon="7.22185">
        <ele>1698</ele>
        <time>2018-05-13T06:59:45.000Z</time>
      </trkpt>
      <trkpt lat="44.01089" lon="7.22181">
        <ele>1699</ele>
        <time>2018-05-13T06:59:46.000Z</time>
      </trkpt>
      <trkpt lat="44.01083" lon="7.22166">
        <ele>1704</ele>
        <time>2018-05-13T06:59:49.000Z</time>
      </trkpt>
      <trkpt lat="44.01082" lon="7.22161">
        <ele>1702</ele>
        <time>2018-05-13T06:59:50.000Z</time>
      </trkpt>
      <trkpt lat="44.0108" lon="7.22155">
        <ele>1701</ele>
        <time>2018-05-13T06:59:51.000Z</time>
      </trkpt>
      <trkpt lat="44.01078" lon="7.22144">
        <ele>1699</ele>
        <time>2018-05-13T06:59:53.000Z</time>
      </trkpt>
      <trkpt lat="44.01075" lon="7.22136">
        <ele>1697</ele>
        <time>2018-05-13T06:59:55.000Z</time>
      </trkpt>
      <trkpt lat="44.01073" lon="7.22131">
        <ele>1696</ele>
        <time>2018-05-13T06:59:56.000Z</time>
      </trkpt>
      <trkpt lat="44.01063" lon="7.22119">
        <ele>1695</ele>
        <time>2018-05-13T07:00:00.000Z</time>
      </trkpt>
      <trkpt lat="44.0106" lon="7.2212">
        <ele>1695</ele>
        <time>2018-05-13T07:00:02.000Z</time>
      </trkpt>
      <trkpt lat="44.01054" lon="7.22127">
        <ele>1696</ele>
        <time>2018-05-13T07:00:05.000Z</time>
      </trkpt>
      <trkpt lat="44.01051" lon="7.2213">
        <ele>1696</ele>
        <time>2018-05-13T07:00:06.000Z</time>
      </trkpt>
      <trkpt lat="44.01042" lon="7.22138">
        <ele>1698</ele>
        <time>2018-05-13T07:00:09.000Z</time>
      </trkpt>
      <trkpt lat="44.01034" lon="7.22141">
        <ele>1698</ele>
        <time>2018-05-13T07:00:11.000Z</time>
      </trkpt>
      <trkpt lat="44.01025" lon="7.22146">
        <ele>1699</ele>
        <time>2018-05-13T07:00:13.000Z</time>
      </trkpt>
      <trkpt lat="44.0102" lon="7.22151">
        <ele>1701</ele>
        <time>2018-05-13T07:00:15.000Z</time>
      </trkpt>
      <trkpt lat="44.0101" lon="7.22163">
        <ele>1705</ele>
        <time>2018-05-13T07:00:19.000Z</time>
      </trkpt>
      <trkpt lat="44.00996" lon="7.22181">
        <ele>1713</ele>
        <time>2018-05-13T07:00:24.000Z</time>
      </trkpt>
      <trkpt lat="44.00982" lon="7.22197">
        <ele>1716</ele>
        <time>2018-05-13T07:00:30.000Z</time>
      </trkpt>
      <trkpt lat="44.00969" lon="7.22206">
        <ele>1717</ele>
        <time>2018-05-13T07:00:35.000Z</time>
      </trkpt>
      <trkpt lat="44.00966" lon="7.22207">
        <ele>1717</ele>
        <time>2018-05-13T07:00:36.000Z</time>
      </trkpt>
      <trkpt lat="44.00957" lon="7.22208">
        <ele>1717</ele>
        <time>2018-05-13T07:00:39.000Z</time>
      </trkpt>
      <trkpt lat="44.00954" lon="7.2221">
        <ele>1717</ele>
        <time>2018-05-13T07:00:40.000Z</time>
      </trkpt>
      <trkpt lat="44.0094" lon="7.22216">
        <ele>1717</ele>
        <time>2018-05-13T07:00:45.000Z</time>
      </trkpt>
      <trkpt lat="44.0092" lon="7.22227">
        <ele>1719</ele>
        <time>2018-05-13T07:00:52.000Z</time>
      </trkpt>
      <trkpt lat="44.0091" lon="7.2223">
        <ele>1711</ele>
        <time>2018-05-13T07:00:55.000Z</time>
      </trkpt>
      <trkpt lat="44.00896" lon="7.22235">
        <ele>1710</ele>
        <time>2018-05-13T07:00:59.000Z</time>
      </trkpt>
      <trkpt lat="44.00882" lon="7.22244">
        <ele>1708</ele>
        <time>2018-05-13T07:01:04.000Z</time>
      </trkpt>
      <trkpt lat="44.0088" lon="7.22247">
        <ele>1708</ele>
        <time>2018-05-13T07:01:05.000Z</time>
      </trkpt>
      <trkpt lat="44.00864" lon="7.22264">
        <ele>1732</ele>
        <time>2018-05-13T07:01:11.000Z</time>
      </trkpt>
      <trkpt lat="44.00848" lon="7.22263">
        <ele>1727</ele>
        <time>2018-05-13T07:01:16.000Z</time>
      </trkpt>
      <trkpt lat="44.00831" lon="7.22264">
        <ele>1720</ele>
        <time>2018-05-13T07:01:22.000Z</time>
      </trkpt>
      <trkpt lat="44.00825" lon="7.22266">
        <ele>1722</ele>
        <time>2018-05-13T07:01:24.000Z</time>
      </trkpt>
      <trkpt lat="44.00812" lon="7.22271">
        <ele>1724</ele>
        <time>2018-05-13T07:01:29.000Z</time>
      </trkpt>
      <trkpt lat="44.00798" lon="7.22278">
        <ele>1726</ele>
        <time>2018-05-13T07:01:34.000Z</time>
      </trkpt>
      <trkpt lat="44.00793" lon="7.2228">
        <ele>1727</ele>
        <time>2018-05-13T07:01:36.000Z</time>
      </trkpt>
      <trkpt lat="44.0078" lon="7.22289">
        <ele>1728</ele>
        <time>2018-05-13T07:01:42.000Z</time>
      </trkpt>
      <trkpt lat="44.00777" lon="7.22291">
        <ele>1729</ele>
        <time>2018-05-13T07:01:43.000Z</time>
      </trkpt>
      <trkpt lat="44.00768" lon="7.22292">
        <ele>1729</ele>
        <time>2018-05-13T07:01:47.000Z</time>
      </trkpt>
      <trkpt lat="44.00757" lon="7.22296">
        <ele>1730</ele>
        <time>2018-05-13T07:01:51.000Z</time>
      </trkpt>
      <trkpt lat="44.0075" lon="7.22297">
        <ele>1730</ele>
        <time>2018-05-13T07:01:53.000Z</time>
      </trkpt>
      <trkpt lat="44.00741" lon="7.22292">
        <ele>1735</ele>
        <time>2018-05-13T07:01:57.000Z</time>
      </trkpt>
      <trkpt lat="44.00733" lon="7.22282">
        <ele>1731</ele>
        <time>2018-05-13T07:02:01.000Z</time>
      </trkpt>
      <trkpt lat="44.00729" lon="7.22277">
        <ele>1730</ele>
        <time>2018-05-13T07:02:03.000Z</time>
      </trkpt>
      <trkpt lat="44.00713" lon="7.22263">
        <ele>1730</ele>
        <time>2018-05-13T07:02:10.000Z</time>
      </trkpt>
      <trkpt lat="44.00695" lon="7.22257">
        <ele>1731</ele>
        <time>2018-05-13T07:02:17.000Z</time>
      </trkpt>
      <trkpt lat="44.00681" lon="7.2226">
        <ele>1731</ele>
        <time>2018-05-13T07:02:23.000Z</time>
      </trkpt>
      <trkpt lat="44.00669" lon="7.22264">
        <ele>1731</ele>
        <time>2018-05-13T07:02:27.000Z</time>
      </trkpt>
      <trkpt lat="44.00666" lon="7.22262">
        <ele>1737</ele>
        <time>2018-05-13T07:02:28.000Z</time>
      </trkpt>
      <trkpt lat="44.00661" lon="7.22262">
        <ele>1739</ele>
        <time>2018-05-13T07:02:30.000Z</time>
      </trkpt>
      <trkpt lat="44.00652" lon="7.22254">
        <ele>1740</ele>
        <time>2018-05-13T07:02:34.000Z</time>
      </trkpt>
      <trkpt lat="44.0065" lon="7.22253">
        <ele>1741</ele>
        <time>2018-05-13T07:02:35.000Z</time>
      </trkpt>
      <trkpt lat="44.00645" lon="7.22251">
        <ele>1743</ele>
        <time>2018-05-13T07:02:37.000Z</time>
      </trkpt>
      <trkpt lat="44.00637" lon="7.22248">
        <ele>1718</ele>
        <time>2018-05-13T07:02:41.000Z</time>
      </trkpt>
      <trkpt lat="44.00625" lon="7.2224">
        <ele>1718</ele>
        <time>2018-05-13T07:02:46.000Z</time>
      </trkpt>
      <trkpt lat="44.00623" lon="7.22238">
        <ele>1718</ele>
        <time>2018-05-13T07:02:47.000Z</time>
      </trkpt>
      <trkpt lat="44.0061" lon="7.22231">
        <ele>1720</ele>
        <time>2018-05-13T07:02:53.000Z</time>
      </trkpt>
      <trkpt lat="44.00605" lon="7.22231">
        <ele>1721</ele>
        <time>2018-05-13T07:02:55.000Z</time>
      </trkpt>
      <trkpt lat="44.00594" lon="7.22232">
        <ele>1724</ele>
        <time>2018-05-13T07:03:00.000Z</time>
      </trkpt>
      <trkpt lat="44.00583" lon="7.22227">
        <ele>1741</ele>
        <time>2018-05-13T07:03:05.000Z</time>
      </trkpt>
      <trkpt lat="44.00575" lon="7.22216">
        <ele>1740</ele>
        <time>2018-05-13T07:03:11.000Z</time>
      </trkpt>
      <trkpt lat="44.00574" lon="7.22213">
        <ele>1739</ele>
        <time>2018-05-13T07:03:12.000Z</time>
      </trkpt>
      <trkpt lat="44.00569" lon="7.22201">
        <ele>1737</ele>
        <time>2018-05-13T07:03:16.000Z</time>
      </trkpt>
      <trkpt lat="44.00561" lon="7.22182">
        <ele>1733</ele>
        <time>2018-05-13T07:03:23.000Z</time>
      </trkpt>
      <trkpt lat="44.0056" lon="7.2218">
        <ele>1732</ele>
        <time>2018-05-13T07:03:24.000Z</time>
      </trkpt>
      <trkpt lat="44.00554" lon="7.22169">
        <ele>1733</ele>
        <time>2018-05-13T07:03:29.000Z</time>
      </trkpt>
      <trkpt lat="44.00549" lon="7.22163">
        <ele>1715</ele>
        <time>2018-05-13T07:03:32.000Z</time>
      </trkpt>
      <trkpt lat="44.00542" lon="7.22157">
        <ele>1717</ele>
        <time>2018-05-13T07:03:36.000Z</time>
      </trkpt>
      <trkpt lat="44.00527" lon="7.2215">
        <ele>1722</ele>
        <time>2018-05-13T07:03:42.000Z</time>
      </trkpt>
      <trkpt lat="44.00515" lon="7.22142">
        <ele>1724</ele>
        <time>2018-05-13T07:03:47.000Z</time>
      </trkpt>
      <trkpt lat="44.00507" lon="7.22132">
        <ele>1722</ele>
        <time>2018-05-13T07:03:51.000Z</time>
      </trkpt>
      <trkpt lat="44.00506" lon="7.22129">
        <ele>1721</ele>
        <time>2018-05-13T07:03:52.000Z</time>
      </trkpt>
      <trkpt lat="44.00499" lon="7.22114">
        <ele>1740</ele>
        <time>2018-05-13T07:03:57.000Z</time>
      </trkpt>
      <trkpt lat="44.00491" lon="7.22098">
        <ele>1733</ele>
        <time>2018-05-13T07:04:03.000Z</time>
      </trkpt>
      <trkpt lat="44.00479" lon="7.22087">
        <ele>1736</ele>
        <time>2018-05-13T07:04:08.000Z</time>
      </trkpt>
      <trkpt lat="44.00467" lon="7.22079">
        <ele>1721</ele>
        <time>2018-05-13T07:04:13.000Z</time>
      </trkpt>
      <trkpt lat="44.00462" lon="7.22077">
        <ele>1722</ele>
        <time>2018-05-13T07:04:15.000Z</time>
      </trkpt>
      <trkpt lat="44.00444" lon="7.22065">
        <ele>1726</ele>
        <time>2018-05-13T07:04:22.000Z</time>
      </trkpt>
      <trkpt lat="44.0043" lon="7.22049">
        <ele>1725</ele>
        <time>2018-05-13T07:04:28.000Z</time>
      </trkpt>
      <trkpt lat="44.00417" lon="7.22024">
        <ele>1720</ele>
        <time>2018-05-13T07:04:35.000Z</time>
      </trkpt>
      <trkpt lat="44.00415" lon="7.22017">
        <ele>1730</ele>
        <time>2018-05-13T07:04:37.000Z</time>
      </trkpt>
      <trkpt lat="44.00409" lon="7.2201">
        <ele>1728</ele>
        <time>2018-05-13T07:04:40.000Z</time>
      </trkpt>
      <trkpt lat="44.00394" lon="7.22005">
        <ele>1732</ele>
        <time>2018-05-13T07:04:45.000Z</time>
      </trkpt>
      <trkpt lat="44.00388" lon="7.22005">
        <ele>1733</ele>
        <time>2018-05-13T07:04:47.000Z</time>
      </trkpt>
      <trkpt lat="44.00376" lon="7.22005">
        <ele>1735</ele>
        <time>2018-05-13T07:04:51.000Z</time>
      </trkpt>
      <trkpt lat="44.00366" lon="7.22008">
        <ele>1735</ele>
        <time>2018-05-13T07:04:55.000Z</time>
      </trkpt>
      <trkpt lat="44.00363" lon="7.22008">
        <ele>1735</ele>
        <time>2018-05-13T07:04:56.000Z</time>
      </trkpt>
      <trkpt lat="44.00343" lon="7.22016">
        <ele>1736</ele>
        <time>2018-05-13T07:05:04.000Z</time>
      </trkpt>
      <trkpt lat="44.00332" lon="7.22013">
        <ele>1731</ele>
        <time>2018-05-13T07:05:08.000Z</time>
      </trkpt>
      <trkpt lat="44.00317" lon="7.22011">
        <ele>1730</ele>
        <time>2018-05-13T07:05:11.000Z</time>
      </trkpt>
      <trkpt lat="44.00314" lon="7.22008">
        <ele>1730</ele>
        <time>2018-05-13T07:05:12.000Z</time>
      </trkpt>
      <trkpt lat="44.0031" lon="7.22006">
        <ele>1729</ele>
        <time>2018-05-13T07:05:13.000Z</time>
      </trkpt>
      <trkpt lat="44.00304" lon="7.22009">
        <ele>1729</ele>
        <time>2018-05-13T07:05:14.000Z</time>
      </trkpt>
      <trkpt lat="44.00299" lon="7.22013">
        <ele>1728</ele>
        <time>2018-05-13T07:05:15.000Z</time>
      </trkpt>
      <trkpt lat="44.00294" lon="7.22017">
        <ele>1727</ele>
        <time>2018-05-13T07:05:16.000Z</time>
      </trkpt>
      <trkpt lat="44.00285" lon="7.22023">
        <ele>1727</ele>
        <time>2018-05-13T07:05:18.000Z</time>
      </trkpt>
      <trkpt lat="44.00275" lon="7.22027">
        <ele>1725</ele>
        <time>2018-05-13T07:05:20.000Z</time>
      </trkpt>
      <trkpt lat="44.0027" lon="7.22029">
        <ele>1725</ele>
        <time>2018-05-13T07:05:21.000Z</time>
      </trkpt>
      <trkpt lat="44.00266" lon="7.22029">
        <ele>1724</ele>
        <time>2018-05-13T07:05:22.000Z</time>
      </trkpt>
      <trkpt lat="44.00263" lon="7.22031">
        <ele>1724</ele>
        <time>2018-05-13T07:05:23.000Z</time>
      </trkpt>
      <trkpt lat="44.00258" lon="7.22035">
        <ele>1724</ele>
        <time>2018-05-13T07:05:24.000Z</time>
      </trkpt>
      <trkpt lat="44.00254" lon="7.22039">
        <ele>1725</ele>
        <time>2018-05-13T07:05:25.000Z</time>
      </trkpt>
      <trkpt lat="44.00251" lon="7.22042">
        <ele>1725</ele>
        <time>2018-05-13T07:05:26.000Z</time>
      </trkpt>
      <trkpt lat="44.00249" lon="7.22047">
        <ele>1705</ele>
        <time>2018-05-13T07:05:27.000Z</time>
      </trkpt>
      <trkpt lat="44.00243" lon="7.22061">
        <ele>1709</ele>
        <time>2018-05-13T07:05:30.000Z</time>
      </trkpt>
      <trkpt lat="44.00231" lon="7.22076">
        <ele>1709</ele>
        <time>2018-05-13T07:05:33.000Z</time>
      </trkpt>
      <trkpt lat="44.0022" lon="7.22096">
        <ele>1713</ele>
        <time>2018-05-13T07:05:36.000Z</time>
      </trkpt>
      <trkpt lat="44.00218" lon="7.2211">
        <ele>1713</ele>
        <time>2018-05-13T07:05:38.000Z</time>
      </trkpt>
      <trkpt lat="44.00218" lon="7.22115">
        <ele>1713</ele>
        <time>2018-05-13T07:05:39.000Z</time>
      </trkpt>
      <trkpt lat="44.00215" lon="7.22125">
        <ele>1713</ele>
        <time>2018-05-13T07:05:41.000Z</time>
      </trkpt>
      <trkpt lat="44.00211" lon="7.22136">
        <ele>1713</ele>
        <time>2018-05-13T07:05:43.000Z</time>
      </trkpt>
      <trkpt lat="44.00211" lon="7.22138">
        <ele>1713</ele>
        <time>2018-05-13T07:05:46.000Z</time>
      </trkpt>
      <trkpt lat="44.0021" lon="7.22142">
        <ele>1713</ele>
        <time>2018-05-13T07:05:48.000Z</time>
      </trkpt>
      <trkpt lat="44.00205" lon="7.22149">
        <ele>1712</ele>
        <time>2018-05-13T07:05:53.000Z</time>
      </trkpt>
      <trkpt lat="44.00201" lon="7.22164">
        <ele>1711</ele>
        <time>2018-05-13T07:05:57.000Z</time>
      </trkpt>
      <trkpt lat="44.00202" lon="7.22172">
        <ele>1720</ele>
        <time>2018-05-13T07:05:59.000Z</time>
      </trkpt>
      <trkpt lat="44.00201" lon="7.22183">
        <ele>1721</ele>
        <time>2018-05-13T07:06:01.000Z</time>
      </trkpt>
      <trkpt lat="44.00197" lon="7.22194">
        <ele>1721</ele>
        <time>2018-05-13T07:06:04.000Z</time>
      </trkpt>
      <trkpt lat="44.00192" lon="7.22208">
        <ele>1721</ele>
        <time>2018-05-13T07:06:07.000Z</time>
      </trkpt>
      <trkpt lat="44.00185" lon="7.22225">
        <ele>1719</ele>
        <time>2018-05-13T07:06:11.000Z</time>
      </trkpt>
      <trkpt lat="44.00179" lon="7.22229">
        <ele>1717</ele>
        <time>2018-05-13T07:06:14.000Z</time>
      </trkpt>
      <trkpt lat="44.00175" lon="7.2223">
        <ele>1716</ele>
        <time>2018-05-13T07:06:15.000Z</time>
      </trkpt>
      <trkpt lat="44.00172" lon="7.2224">
        <ele>1712</ele>
        <time>2018-05-13T07:06:18.000Z</time>
      </trkpt>
      <trkpt lat="44.00169" lon="7.22252">
        <ele>1709</ele>
        <time>2018-05-13T07:06:23.000Z</time>
      </trkpt>
      <trkpt lat="44.00171" lon="7.2227">
        <ele>1724</ele>
        <time>2018-05-13T07:06:28.000Z</time>
      </trkpt>
      <trkpt lat="44.00171" lon="7.22283">
        <ele>1729</ele>
        <time>2018-05-13T07:06:32.000Z</time>
      </trkpt>
      <trkpt lat="44.00169" lon="7.22285">
        <ele>1730</ele>
        <time>2018-05-13T07:06:33.000Z</time>
      </trkpt>
      <trkpt lat="44.00168" lon="7.22287">
        <ele>1730</ele>
        <time>2018-05-13T07:06:34.000Z</time>
      </trkpt>
      <trkpt lat="44.00168" lon="7.22296">
        <ele>1731</ele>
        <time>2018-05-13T07:06:37.000Z</time>
      </trkpt>
      <trkpt lat="44.00166" lon="7.22307">
        <ele>1694</ele>
        <time>2018-05-13T07:06:41.000Z</time>
      </trkpt>
      <trkpt lat="44.00163" lon="7.22313">
        <ele>1696</ele>
        <time>2018-05-13T07:06:43.000Z</time>
      </trkpt>
      <trkpt lat="44.00162" lon="7.22314">
        <ele>1697</ele>
        <time>2018-05-13T07:06:44.000Z</time>
      </trkpt>
      <trkpt lat="44.00156" lon="7.22321">
        <ele>1699</ele>
        <time>2018-05-13T07:06:48.000Z</time>
      </trkpt>
      <trkpt lat="44.00155" lon="7.22325">
        <ele>1700</ele>
        <time>2018-05-13T07:06:50.000Z</time>
      </trkpt>
      <trkpt lat="44.00155" lon="7.22326">
        <ele>1701</ele>
        <time>2018-05-13T07:06:51.000Z</time>
      </trkpt>
      <trkpt lat="44.00156" lon="7.22331">
        <ele>1704</ele>
        <time>2018-05-13T07:06:53.000Z</time>
      </trkpt>
      <trkpt lat="44.00159" lon="7.22341">
        <ele>1708</ele>
        <time>2018-05-13T07:06:58.000Z</time>
      </trkpt>
      <trkpt lat="44.00158" lon="7.22347">
        <ele>1705</ele>
        <time>2018-05-13T07:07:03.000Z</time>
      </trkpt>
      <trkpt lat="44.00158" lon="7.22352">
        <ele>1703</ele>
        <time>2018-05-13T07:07:06.000Z</time>
      </trkpt>
      <trkpt lat="44.00157" lon="7.22357">
        <ele>1701</ele>
        <time>2018-05-13T07:07:10.000Z</time>
      </trkpt>
      <trkpt lat="44.00157" lon="7.2236">
        <ele>1700</ele>
        <time>2018-05-13T07:07:12.000Z</time>
      </trkpt>
      <trkpt lat="44.00158" lon="7.22369">
        <ele>1700</ele>
        <time>2018-05-13T07:07:17.000Z</time>
      </trkpt>
      <trkpt lat="44.00158" lon="7.22377">
        <ele>1700</ele>
        <time>2018-05-13T07:07:22.000Z</time>
      </trkpt>
      <trkpt lat="44.00159" lon="7.22381">
        <ele>1701</ele>
        <time>2018-05-13T07:07:25.000Z</time>
      </trkpt>
      <trkpt lat="44.0016" lon="7.22389">
        <ele>1704</ele>
        <time>2018-05-13T07:07:32.000Z</time>
      </trkpt>
      <trkpt lat="44.0016" lon="7.22391">
        <ele>1704</ele>
        <time>2018-05-13T07:07:33.000Z</time>
      </trkpt>
      <trkpt lat="44.0016" lon="7.22397">
        <ele>1707</ele>
        <time>2018-05-13T07:07:37.000Z</time>
      </trkpt>
      <trkpt lat="44.0016" lon="7.22398">
        <ele>1708</ele>
        <time>2018-05-13T07:07:38.000Z</time>
      </trkpt>
      <trkpt lat="44.0016" lon="7.22404">
        <ele>1711</ele>
        <time>2018-05-13T07:07:43.000Z</time>
      </trkpt>
      <trkpt lat="44.00159" lon="7.22406">
        <ele>1712</ele>
        <time>2018-05-13T07:07:44.000Z</time>
      </trkpt>
      <trkpt lat="44.00158" lon="7.22413">
        <ele>1716</ele>
        <time>2018-05-13T07:07:50.000Z</time>
      </trkpt>
      <trkpt lat="44.00158" lon="7.22415">
        <ele>1716</ele>
        <time>2018-05-13T07:07:52.000Z</time>
      </trkpt>
      <trkpt lat="44.00158" lon="7.22421">
        <ele>1721</ele>
        <time>2018-05-13T07:07:56.000Z</time>
      </trkpt>
      <trkpt lat="44.00156" lon="7.22424">
        <ele>1719</ele>
        <time>2018-05-13T07:07:59.000Z</time>
      </trkpt>
      <trkpt lat="44.00155" lon="7.22429">
        <ele>1717</ele>
        <time>2018-05-13T07:08:03.000Z</time>
      </trkpt>
      <trkpt lat="44.00151" lon="7.22435">
        <ele>1715</ele>
        <time>2018-05-13T07:08:08.000Z</time>
      </trkpt>
      <trkpt lat="44.0015" lon="7.2244">
        <ele>1714</ele>
        <time>2018-05-13T07:08:12.000Z</time>
      </trkpt>
      <trkpt lat="44.0015" lon="7.22442">
        <ele>1714</ele>
        <time>2018-05-13T07:08:14.000Z</time>
      </trkpt>
      <trkpt lat="44.00149" lon="7.22447">
        <ele>1714</ele>
        <time>2018-05-13T07:08:18.000Z</time>
      </trkpt>
      <trkpt lat="44.00148" lon="7.22453">
        <ele>1714</ele>
        <time>2018-05-13T07:08:23.000Z</time>
      </trkpt>
      <trkpt lat="44.00149" lon="7.22456">
        <ele>1714</ele>
        <time>2018-05-13T07:08:26.000Z</time>
      </trkpt>
      <trkpt lat="44.00149" lon="7.22459">
        <ele>1715</ele>
        <time>2018-05-13T07:08:30.000Z</time>
      </trkpt>
      <trkpt lat="44.0015" lon="7.22463">
        <ele>1716</ele>
        <time>2018-05-13T07:08:33.000Z</time>
      </trkpt>
      <trkpt lat="44.00151" lon="7.22464">
        <ele>1717</ele>
        <time>2018-05-13T07:08:35.000Z</time>
      </trkpt>
      <trkpt lat="44.00151" lon="7.22467">
        <ele>1718</ele>
        <time>2018-05-13T07:08:37.000Z</time>
      </trkpt>
      <trkpt lat="44.00151" lon="7.22469">
        <ele>1718</ele>
        <time>2018-05-13T07:08:38.000Z</time>
      </trkpt>
      <trkpt lat="44.0015" lon="7.2247">
        <ele>1718</ele>
        <time>2018-05-13T07:08:39.000Z</time>
      </trkpt>
      <trkpt lat="44.00149" lon="7.22478">
        <ele>1721</ele>
        <time>2018-05-13T07:08:45.000Z</time>
      </trkpt>
      <trkpt lat="44.00147" lon="7.22479">
        <ele>1720</ele>
        <time>2018-05-13T07:08:47.000Z</time>
      </trkpt>
      <trkpt lat="44.00145" lon="7.22481">
        <ele>1719</ele>
        <time>2018-05-13T07:08:50.000Z</time>
      </trkpt>
      <trkpt lat="44.00144" lon="7.22482">
        <ele>1719</ele>
        <time>2018-05-13T07:08:51.000Z</time>
      </trkpt>
      <trkpt lat="44.00139" lon="7.22487">
        <ele>1718</ele>
        <time>2018-05-13T07:08:58.000Z</time>
      </trkpt>
      <trkpt lat="44.00138" lon="7.22492">
        <ele>1718</ele>
        <time>2018-05-13T07:09:00.000Z</time>
      </trkpt>
      <trkpt lat="44.00138" lon="7.22499">
        <ele>1719</ele>
        <time>2018-05-13T07:09:02.000Z</time>
      </trkpt>
      <trkpt lat="44.00138" lon="7.22503">
        <ele>1727</ele>
        <time>2018-05-13T07:09:05.000Z</time>
      </trkpt>
      <trkpt lat="44.00138" lon="7.22505">
        <ele>1727</ele>
        <time>2018-05-13T07:09:06.000Z</time>
      </trkpt>
      <trkpt lat="44.00139" lon="7.22519">
        <ele>1727</ele>
        <time>2018-05-13T07:09:12.000Z</time>
      </trkpt>
      <trkpt lat="44.00139" lon="7.22525">
        <ele>1726</ele>
        <time>2018-05-13T07:09:16.000Z</time>
      </trkpt>
      <trkpt lat="44.0014" lon="7.22529">
        <ele>1727</ele>
        <time>2018-05-13T07:09:18.000Z</time>
      </trkpt>
      <trkpt lat="44.00143" lon="7.22545">
        <ele>1728</ele>
        <time>2018-05-13T07:09:24.000Z</time>
      </trkpt>
      <trkpt lat="44.00142" lon="7.22563">
        <ele>1729</ele>
        <time>2018-05-13T07:09:31.000Z</time>
      </trkpt>
      <trkpt lat="44.00141" lon="7.22578">
        <ele>1731</ele>
        <time>2018-05-13T07:09:36.000Z</time>
      </trkpt>
      <trkpt lat="44.00136" lon="7.22606">
        <ele>1735</ele>
        <time>2018-05-13T07:09:41.000Z</time>
      </trkpt>
      <trkpt lat="44.00133" lon="7.2262">
        <ele>1735</ele>
        <time>2018-05-13T07:09:43.000Z</time>
      </trkpt>
      <trkpt lat="44.00127" lon="7.22631">
        <ele>1734</ele>
        <time>2018-05-13T07:09:45.000Z</time>
      </trkpt>
      <trkpt lat="44.00123" lon="7.22637">
        <ele>1733</ele>
        <time>2018-05-13T07:09:46.000Z</time>
      </trkpt>
      <trkpt lat="44.00114" lon="7.2265">
        <ele>1731</ele>
        <time>2018-05-13T07:09:49.000Z</time>
      </trkpt>
      <trkpt lat="44.00112" lon="7.22655">
        <ele>1730</ele>
        <time>2018-05-13T07:09:50.000Z</time>
      </trkpt>
      <trkpt lat="44.00103" lon="7.22673">
        <ele>1734</ele>
        <time>2018-05-13T07:09:54.000Z</time>
      </trkpt>
      <trkpt lat="44.00097" lon="7.22684">
        <ele>1735</ele>
        <time>2018-05-13T07:09:56.000Z</time>
      </trkpt>
      <trkpt lat="44.00092" lon="7.227">
        <ele>1738</ele>
        <time>2018-05-13T07:09:59.000Z</time>
      </trkpt>
      <trkpt lat="44.00091" lon="7.22722">
        <ele>1740</ele>
        <time>2018-05-13T07:10:03.000Z</time>
      </trkpt>
      <trkpt lat="44.00088" lon="7.22733">
        <ele>1739</ele>
        <time>2018-05-13T07:10:05.000Z</time>
      </trkpt>
      <trkpt lat="44.00082" lon="7.2274">
        <ele>1723</ele>
        <time>2018-05-13T07:10:07.000Z</time>
      </trkpt>
      <trkpt lat="44.00073" lon="7.22746">
        <ele>1722</ele>
        <time>2018-05-13T07:10:10.000Z</time>
      </trkpt>
      <trkpt lat="44.00062" lon="7.22751">
        <ele>1724</ele>
        <time>2018-05-13T07:10:14.000Z</time>
      </trkpt>
      <trkpt lat="44.00053" lon="7.22766">
        <ele>1721</ele>
        <time>2018-05-13T07:10:18.000Z</time>
      </trkpt>
      <trkpt lat="44.00055" lon="7.2278">
        <ele>1721</ele>
        <time>2018-05-13T07:10:21.000Z</time>
      </trkpt>
      <trkpt lat="44.00056" lon="7.22786">
        <ele>1722</ele>
        <time>2018-05-13T07:10:22.000Z</time>
      </trkpt>
      <trkpt lat="44.00057" lon="7.22792">
        <ele>1722</ele>
        <time>2018-05-13T07:10:24.000Z</time>
      </trkpt>
      <trkpt lat="44.00057" lon="7.22796">
        <ele>1723</ele>
        <time>2018-05-13T07:10:25.000Z</time>
      </trkpt>
      <trkpt lat="44.00055" lon="7.22811">
        <ele>1724</ele>
        <time>2018-05-13T07:10:28.000Z</time>
      </trkpt>
      <trkpt lat="44.00055" lon="7.22816">
        <ele>1724</ele>
        <time>2018-05-13T07:10:29.000Z</time>
      </trkpt>
      <trkpt lat="44.00056" lon="7.22827">
        <ele>1726</ele>
        <time>2018-05-13T07:10:31.000Z</time>
      </trkpt>
      <trkpt lat="44.0006" lon="7.22841">
        <ele>1732</ele>
        <time>2018-05-13T07:10:34.000Z</time>
      </trkpt>
      <trkpt lat="44.00068" lon="7.22869">
        <ele>1732</ele>
        <time>2018-05-13T07:10:40.000Z</time>
      </trkpt>
      <trkpt lat="44.00069" lon="7.22892">
        <ele>1733</ele>
        <time>2018-05-13T07:10:44.000Z</time>
      </trkpt>
      <trkpt lat="44.0007" lon="7.22911">
        <ele>1737</ele>
        <time>2018-05-13T07:10:48.000Z</time>
      </trkpt>
      <trkpt lat="44.00063" lon="7.22928">
        <ele>1739</ele>
        <time>2018-05-13T07:10:52.000Z</time>
      </trkpt>
      <trkpt lat="44.00045" lon="7.22952">
        <ele>1736</ele>
        <time>2018-05-13T07:10:58.000Z</time>
      </trkpt>
      <trkpt lat="44.00033" lon="7.22965">
        <ele>1736</ele>
        <time>2018-05-13T07:11:01.000Z</time>
      </trkpt>
      <trkpt lat="44.00025" lon="7.22975">
        <ele>1735</ele>
        <time>2018-05-13T07:11:03.000Z</time>
      </trkpt>
      <trkpt lat="44.00021" lon="7.22981">
        <ele>1735</ele>
        <time>2018-05-13T07:11:04.000Z</time>
      </trkpt>
      <trkpt lat="44.00003" lon="7.23002">
        <ele>1734</ele>
        <time>2018-05-13T07:11:08.000Z</time>
      </trkpt>
      <trkpt lat="43.99985" lon="7.23022">
        <ele>1732</ele>
        <time>2018-05-13T07:11:12.000Z</time>
      </trkpt>
      <trkpt lat="43.99959" lon="7.23049">
        <ele>1733</ele>
        <time>2018-05-13T07:11:17.000Z</time>
      </trkpt>
      <trkpt lat="43.99955" lon="7.23055">
        <ele>1733</ele>
        <time>2018-05-13T07:11:18.000Z</time>
      </trkpt>
      <trkpt lat="43.99946" lon="7.23069">
        <ele>1732</ele>
        <time>2018-05-13T07:11:20.000Z</time>
      </trkpt>
      <trkpt lat="43.99933" lon="7.23081">
        <ele>1731</ele>
        <time>2018-05-13T07:11:22.000Z</time>
      </trkpt>
      <trkpt lat="43.99927" lon="7.23087">
        <ele>1735</ele>
        <time>2018-05-13T07:11:23.000Z</time>
      </trkpt>
      <trkpt lat="43.99911" lon="7.23102">
        <ele>1727</ele>
        <time>2018-05-13T07:11:26.000Z</time>
      </trkpt>
      <trkpt lat="43.99905" lon="7.23109">
        <ele>1726</ele>
        <time>2018-05-13T07:11:27.000Z</time>
      </trkpt>
      <trkpt lat="43.99898" lon="7.23115">
        <ele>1726</ele>
        <time>2018-05-13T07:11:28.000Z</time>
      </trkpt>
      <trkpt lat="43.99886" lon="7.23125">
        <ele>1725</ele>
        <time>2018-05-13T07:11:30.000Z</time>
      </trkpt>
      <trkpt lat="43.9988" lon="7.23127">
        <ele>1724</ele>
        <time>2018-05-13T07:11:31.000Z</time>
      </trkpt>
      <trkpt lat="43.99866" lon="7.23134">
        <ele>1723</ele>
        <time>2018-05-13T07:11:33.000Z</time>
      </trkpt>
      <trkpt lat="43.99854" lon="7.23142">
        <ele>1721</ele>
        <time>2018-05-13T07:11:35.000Z</time>
      </trkpt>
      <trkpt lat="43.99849" lon="7.23145">
        <ele>1720</ele>
        <time>2018-05-13T07:11:36.000Z</time>
      </trkpt>
      <trkpt lat="43.99844" lon="7.23151">
        <ele>1719</ele>
        <time>2018-05-13T07:11:37.000Z</time>
      </trkpt>
      <trkpt lat="43.99837" lon="7.2317">
        <ele>1717</ele>
        <time>2018-05-13T07:11:39.000Z</time>
      </trkpt>
      <trkpt lat="43.99839" lon="7.23202">
        <ele>1721</ele>
        <time>2018-05-13T07:11:42.000Z</time>
      </trkpt>
      <trkpt lat="43.99846" lon="7.23224">
        <ele>1720</ele>
        <time>2018-05-13T07:11:44.000Z</time>
      </trkpt>
      <trkpt lat="43.9985" lon="7.23235">
        <ele>1719</ele>
        <time>2018-05-13T07:11:45.000Z</time>
      </trkpt>
      <trkpt lat="43.99854" lon="7.23247">
        <ele>1719</ele>
        <time>2018-05-13T07:11:46.000Z</time>
      </trkpt>
      <trkpt lat="43.9986" lon="7.23271">
        <ele>1716</ele>
        <time>2018-05-13T07:11:48.000Z</time>
      </trkpt>
      <trkpt lat="43.99866" lon="7.23296">
        <ele>1716</ele>
        <time>2018-05-13T07:11:50.000Z</time>
      </trkpt>
      <trkpt lat="43.99869" lon="7.23309">
        <ele>1715</ele>
        <time>2018-05-13T07:11:51.000Z</time>
      </trkpt>
      <trkpt lat="43.99877" lon="7.23337">
        <ele>1708</ele>
        <time>2018-05-13T07:11:53.000Z</time>
      </trkpt>
      <trkpt lat="43.99885" lon="7.23365">
        <ele>1708</ele>
        <time>2018-05-13T07:11:55.000Z</time>
      </trkpt>
      <trkpt lat="43.99889" lon="7.2338">
        <ele>1707</ele>
        <time>2018-05-13T07:11:56.000Z</time>
      </trkpt>
      <trkpt lat="43.99891" lon="7.23396">
        <ele>1707</ele>
        <time>2018-05-13T07:11:57.000Z</time>
      </trkpt>
      <trkpt lat="43.99894" lon="7.23427">
        <ele>1702</ele>
        <time>2018-05-13T07:11:59.000Z</time>
      </trkpt>
      <trkpt lat="43.99896" lon="7.23455">
        <ele>1700</ele>
        <time>2018-05-13T07:12:01.000Z</time>
      </trkpt>
      <trkpt lat="43.99895" lon="7.23468">
        <ele>1700</ele>
        <time>2018-05-13T07:12:02.000Z</time>
      </trkpt>
      <trkpt lat="43.99893" lon="7.23483">
        <ele>1700</ele>
        <time>2018-05-13T07:12:03.000Z</time>
      </trkpt>
      <trkpt lat="43.9989" lon="7.23497">
        <ele>1700</ele>
        <time>2018-05-13T07:12:04.000Z</time>
      </trkpt>
      <trkpt lat="43.99885" lon="7.2351">
        <ele>1697</ele>
        <time>2018-05-13T07:12:05.000Z</time>
      </trkpt>
      <trkpt lat="43.9988" lon="7.23525">
        <ele>1695</ele>
        <time>2018-05-13T07:12:06.000Z</time>
      </trkpt>
      <trkpt lat="43.99876" lon="7.23539">
        <ele>1694</ele>
        <time>2018-05-13T07:12:07.000Z</time>
      </trkpt>
      <trkpt lat="43.99871" lon="7.23563">
        <ele>1693</ele>
        <time>2018-05-13T07:12:09.000Z</time>
      </trkpt>
      <trkpt lat="43.99868" lon="7.23571">
        <ele>1693</ele>
        <time>2018-05-13T07:12:10.000Z</time>
      </trkpt>
      <trkpt lat="43.99866" lon="7.2358">
        <ele>1692</ele>
        <time>2018-05-13T07:12:11.000Z</time>
      </trkpt>
      <trkpt lat="43.99864" lon="7.23585">
        <ele>1687</ele>
        <time>2018-05-13T07:12:12.000Z</time>
      </trkpt>
      <trkpt lat="43.99862" lon="7.2359">
        <ele>1687</ele>
        <time>2018-05-13T07:12:13.000Z</time>
      </trkpt>
      <trkpt lat="43.99858" lon="7.23596">
        <ele>1686</ele>
        <time>2018-05-13T07:12:15.000Z</time>
      </trkpt>
      <trkpt lat="43.99858" lon="7.23595">
        <ele>1686</ele>
        <time>2018-05-13T07:12:16.000Z</time>
      </trkpt>
      <trkpt lat="43.99858" lon="7.23596">
        <ele>1686</ele>
        <time>2018-05-13T07:12:20.000Z</time>
      </trkpt>
      <trkpt lat="43.99859" lon="7.23597">
        <ele>1686</ele>
        <time>2018-05-13T07:12:23.000Z</time>
      </trkpt>
      <trkpt lat="43.9986" lon="7.23597">
        <ele>1686</ele>
        <time>2018-05-13T07:12:29.000Z</time>
      </trkpt>
      <trkpt lat="43.99863" lon="7.23597">
        <ele>1687</ele>
        <time>2018-05-13T07:12:37.000Z</time>
      </trkpt>
      <trkpt lat="43.99865" lon="7.23597">
        <ele>1687</ele>
        <time>2018-05-13T07:12:46.000Z</time>
      </trkpt>
      <trkpt lat="43.99864" lon="7.23594">
        <ele>1687</ele>
        <time>2018-05-13T07:12:53.000Z</time>
      </trkpt>
      <trkpt lat="43.99866" lon="7.23591">
        <ele>1687</ele>
        <time>2018-05-13T07:12:58.000Z</time>
      </trkpt>
      <trkpt lat="43.99867" lon="7.23585">
        <ele>1687</ele>
        <time>2018-05-13T07:13:05.000Z</time>
      </trkpt>
      <trkpt lat="43.99868" lon="7.23582">
        <ele>1693</ele>
        <time>2018-05-13T07:13:12.000Z</time>
      </trkpt>
      <trkpt lat="43.99869" lon="7.23581">
        <ele>1693</ele>
        <time>2018-05-13T07:13:21.000Z</time>
      </trkpt>
      <trkpt lat="43.99868" lon="7.23579">
        <ele>1693</ele>
        <time>2018-05-13T07:13:36.000Z</time>
      </trkpt>
      <trkpt lat="43.99867" lon="7.23583">
        <ele>1693</ele>
        <time>2018-05-13T07:13:47.000Z</time>
      </trkpt>
      <trkpt lat="43.99866" lon="7.23585">
        <ele>1687</ele>
        <time>2018-05-13T07:13:48.000Z</time>
      </trkpt>
      <trkpt lat="43.99866" lon="7.23588">
        <ele>1687</ele>
        <time>2018-05-13T07:13:51.000Z</time>
      </trkpt>
      <trkpt lat="43.99866" lon="7.23591">
        <ele>1687</ele>
        <time>2018-05-13T07:13:53.000Z</time>
      </trkpt>
      <trkpt lat="43.99865" lon="7.23592">
        <ele>1687</ele>
        <time>2018-05-13T07:13:55.000Z</time>
      </trkpt>
      <trkpt lat="43.99865" lon="7.23592">
        <ele>1687</ele>
        <time>2018-05-13T07:13:56.000Z</time>
      </trkpt>
      <trkpt lat="43.99864" lon="7.23593">
        <ele>1687</ele>
        <time>2018-05-13T07:14:01.000Z</time>
      </trkpt>
      <trkpt lat="43.99864" lon="7.23595">
        <ele>1687</ele>
        <time>2018-05-13T07:14:03.000Z</time>
      </trkpt>
      <trkpt lat="43.9986" lon="7.236">
        <ele>1686</ele>
        <time>2018-05-13T07:14:07.000Z</time>
      </trkpt>
      <trkpt lat="43.99858" lon="7.23601">
        <ele>1686</ele>
        <time>2018-05-13T07:14:09.000Z</time>
      </trkpt>
      <trkpt lat="43.99856" lon="7.23601">
        <ele>1686</ele>
        <time>2018-05-13T07:14:11.000Z</time>
      </trkpt>
      <trkpt lat="43.99855" lon="7.236">
        <ele>1686</ele>
        <time>2018-05-13T07:14:12.000Z</time>
      </trkpt>
      <trkpt lat="43.99854" lon="7.23596">
        <ele>1686</ele>
        <time>2018-05-13T07:14:15.000Z</time>
      </trkpt>
      <trkpt lat="43.99856" lon="7.23593">
        <ele>1686</ele>
        <time>2018-05-13T07:14:17.000Z</time>
      </trkpt>
      <trkpt lat="43.99855" lon="7.23591">
        <ele>1686</ele>
        <time>2018-05-13T07:14:18.000Z</time>
      </trkpt>
      <trkpt lat="43.99855" lon="7.2359">
        <ele>1686</ele>
        <time>2018-05-13T07:14:19.000Z</time>
      </trkpt>
      <trkpt lat="43.99853" lon="7.2359">
        <ele>1686</ele>
        <time>2018-05-13T07:14:21.000Z</time>
      </trkpt>
      <trkpt lat="43.99851" lon="7.2359">
        <ele>1686</ele>
        <time>2018-05-13T07:14:22.000Z</time>
      </trkpt>
      <trkpt lat="43.9985" lon="7.23582">
        <ele>1689</ele>
        <time>2018-05-13T07:14:25.000Z</time>
      </trkpt>
      <trkpt lat="43.9985" lon="7.23578">
        <ele>1689</ele>
        <time>2018-05-13T07:14:26.000Z</time>
      </trkpt>
      <trkpt lat="43.9985" lon="7.23569">
        <ele>1690</ele>
        <time>2018-05-13T07:14:29.000Z</time>
      </trkpt>
      <trkpt lat="43.99848" lon="7.23561">
        <ele>1690</ele>
        <time>2018-05-13T07:14:31.000Z</time>
      </trkpt>
      <trkpt lat="43.99846" lon="7.23556">
        <ele>1690</ele>
        <time>2018-05-13T07:14:33.000Z</time>
      </trkpt>
      <trkpt lat="43.99843" lon="7.23558">
        <ele>1690</ele>
        <time>2018-05-13T07:14:35.000Z</time>
      </trkpt>
      <trkpt lat="43.99839" lon="7.23558">
        <ele>1689</ele>
        <time>2018-05-13T07:14:37.000Z</time>
      </trkpt>
      <trkpt lat="43.99836" lon="7.23557">
        <ele>1689</ele>
        <time>2018-05-13T07:14:38.000Z</time>
      </trkpt>
      <trkpt lat="43.99829" lon="7.23556">
        <ele>1675</ele>
        <time>2018-05-13T07:14:41.000Z</time>
      </trkpt>
      <trkpt lat="43.99824" lon="7.23556">
        <ele>1675</ele>
        <time>2018-05-13T07:14:43.000Z</time>
      </trkpt>
      <trkpt lat="43.99818" lon="7.23559">
        <ele>1675</ele>
        <time>2018-05-13T07:14:45.000Z</time>
      </trkpt>
      <trkpt lat="43.99813" lon="7.23562">
        <ele>1674</ele>
        <time>2018-05-13T07:14:47.000Z</time>
      </trkpt>
      <trkpt lat="43.99805" lon="7.23564">
        <ele>1673</ele>
        <time>2018-05-13T07:14:49.000Z</time>
      </trkpt>
      <trkpt lat="43.99801" lon="7.23565">
        <ele>1673</ele>
        <time>2018-05-13T07:14:51.000Z</time>
      </trkpt>
      <trkpt lat="43.99799" lon="7.23566">
        <ele>1672</ele>
        <time>2018-05-13T07:14:53.000Z</time>
      </trkpt>
      <trkpt lat="43.99795" lon="7.23561">
        <ele>1671</ele>
        <time>2018-05-13T07:14:55.000Z</time>
      </trkpt>
      <trkpt lat="43.99796" lon="7.23557">
        <ele>1671</ele>
        <time>2018-05-13T07:14:56.000Z</time>
      </trkpt>
      <trkpt lat="43.99797" lon="7.23553">
        <ele>1671</ele>
        <time>2018-05-13T07:14:58.000Z</time>
      </trkpt>
      <trkpt lat="43.99797" lon="7.2355">
        <ele>1671</ele>
        <time>2018-05-13T07:14:59.000Z</time>
      </trkpt>
      <trkpt lat="43.99798" lon="7.23546">
        <ele>1671</ele>
        <time>2018-05-13T07:15:00.000Z</time>
      </trkpt>
      <trkpt lat="43.99799" lon="7.2354">
        <ele>1670</ele>
        <time>2018-05-13T07:15:02.000Z</time>
      </trkpt>
      <trkpt lat="43.99799" lon="7.23536">
        <ele>1670</ele>
        <time>2018-05-13T07:15:04.000Z</time>
      </trkpt>
      <trkpt lat="43.99796" lon="7.23534">
        <ele>1670</ele>
        <time>2018-05-13T07:15:07.000Z</time>
      </trkpt>
      <trkpt lat="43.99795" lon="7.23535">
        <ele>1670</ele>
        <time>2018-05-13T07:15:08.000Z</time>
      </trkpt>
      <trkpt lat="43.99789" lon="7.23538">
        <ele>1669</ele>
        <time>2018-05-13T07:15:12.000Z</time>
      </trkpt>
      <trkpt lat="43.99784" lon="7.23537">
        <ele>1668</ele>
        <time>2018-05-13T07:15:14.000Z</time>
      </trkpt>
      <trkpt lat="43.99777" lon="7.23532">
        <ele>1667</ele>
        <time>2018-05-13T07:15:16.000Z</time>
      </trkpt>
      <trkpt lat="43.9977" lon="7.23531">
        <ele>1665</ele>
        <time>2018-05-13T07:15:18.000Z</time>
      </trkpt>
      <trkpt lat="43.99765" lon="7.23529">
        <ele>1664</ele>
        <time>2018-05-13T07:15:19.000Z</time>
      </trkpt>
      <trkpt lat="43.99762" lon="7.23528">
        <ele>1664</ele>
        <time>2018-05-13T07:15:20.000Z</time>
      </trkpt>
      <trkpt lat="43.99756" lon="7.23529">
        <ele>1663</ele>
        <time>2018-05-13T07:15:22.000Z</time>
      </trkpt>
      <trkpt lat="43.99755" lon="7.23529">
        <ele>1663</ele>
        <time>2018-05-13T07:15:23.000Z</time>
      </trkpt>
      <trkpt lat="43.99753" lon="7.23527">
        <ele>1662</ele>
        <time>2018-05-13T07:15:24.000Z</time>
      </trkpt>
      <trkpt lat="43.99754" lon="7.23525">
        <ele>1662</ele>
        <time>2018-05-13T07:15:26.000Z</time>
      </trkpt>
      <trkpt lat="43.99754" lon="7.23525">
        <ele>1662</ele>
        <time>2018-05-13T07:15:27.000Z</time>
      </trkpt>
      <trkpt lat="43.99755" lon="7.23523">
        <ele>1661</ele>
        <time>2018-05-13T07:15:29.000Z</time>
      </trkpt>
      <trkpt lat="43.99757" lon="7.2352">
        <ele>1661</ele>
        <time>2018-05-13T07:15:32.000Z</time>
      </trkpt>
      <trkpt lat="43.99756" lon="7.23519">
        <ele>1660</ele>
        <time>2018-05-13T07:15:34.000Z</time>
      </trkpt>
      <trkpt lat="43.99755" lon="7.23518">
        <ele>1660</ele>
        <time>2018-05-13T07:15:35.000Z</time>
      </trkpt>
      <trkpt lat="43.99753" lon="7.23516">
        <ele>1659</ele>
        <time>2018-05-13T07:15:37.000Z</time>
      </trkpt>
      <trkpt lat="43.99753" lon="7.23513">
        <ele>1657</ele>
        <time>2018-05-13T07:15:38.000Z</time>
      </trkpt>
      <trkpt lat="43.99755" lon="7.23507">
        <ele>1655</ele>
        <time>2018-05-13T07:15:40.000Z</time>
      </trkpt>
      <trkpt lat="43.99755" lon="7.23505">
        <ele>1654</ele>
        <time>2018-05-13T07:15:41.000Z</time>
      </trkpt>
      <trkpt lat="43.99751" lon="7.23505">
        <ele>1653</ele>
        <time>2018-05-13T07:15:44.000Z</time>
      </trkpt>
      <trkpt lat="43.99744" lon="7.23505">
        <ele>1648</ele>
        <time>2018-05-13T07:15:47.000Z</time>
      </trkpt>
      <trkpt lat="43.99742" lon="7.23504">
        <ele>1648</ele>
        <time>2018-05-13T07:15:49.000Z</time>
      </trkpt>
      <trkpt lat="43.99743" lon="7.23501">
        <ele>1648</ele>
        <time>2018-05-13T07:15:50.000Z</time>
      </trkpt>
      <trkpt lat="43.99744" lon="7.23496">
        <ele>1645</ele>
        <time>2018-05-13T07:15:51.000Z</time>
      </trkpt>
      <trkpt lat="43.99744" lon="7.23493">
        <ele>1644</ele>
        <time>2018-05-13T07:15:52.000Z</time>
      </trkpt>
      <trkpt lat="43.99743" lon="7.23491">
        <ele>1643</ele>
        <time>2018-05-13T07:15:53.000Z</time>
      </trkpt>
      <trkpt lat="43.99743" lon="7.23491">
        <ele>1643</ele>
        <time>2018-05-13T07:15:55.000Z</time>
      </trkpt>
      <trkpt lat="43.99741" lon="7.23492">
        <ele>1643</ele>
        <time>2018-05-13T07:15:57.000Z</time>
      </trkpt>
      <trkpt lat="43.99734" lon="7.23492">
        <ele>1641</ele>
        <time>2018-05-13T07:16:00.000Z</time>
      </trkpt>
      <trkpt lat="43.99732" lon="7.23491">
        <ele>1640</ele>
        <time>2018-05-13T07:16:01.000Z</time>
      </trkpt>
      <trkpt lat="43.99723" lon="7.23491">
        <ele>1638</ele>
        <time>2018-05-13T07:16:04.000Z</time>
      </trkpt>
      <trkpt lat="43.9972" lon="7.23489">
        <ele>1637</ele>
        <time>2018-05-13T07:16:05.000Z</time>
      </trkpt>
      <trkpt lat="43.99719" lon="7.23485">
        <ele>1636</ele>
        <time>2018-05-13T07:16:07.000Z</time>
      </trkpt>
      <trkpt lat="43.99719" lon="7.23483">
        <ele>1636</ele>
        <time>2018-05-13T07:16:08.000Z</time>
      </trkpt>
      <trkpt lat="43.9972" lon="7.2348">
        <ele>1636</ele>
        <time>2018-05-13T07:16:09.000Z</time>
      </trkpt>
      <trkpt lat="43.9972" lon="7.23478">
        <ele>1636</ele>
        <time>2018-05-13T07:16:10.000Z</time>
      </trkpt>
      <trkpt lat="43.99719" lon="7.2347">
        <ele>1635</ele>
        <time>2018-05-13T07:16:12.000Z</time>
      </trkpt>
      <trkpt lat="43.99716" lon="7.2347">
        <ele>1635</ele>
        <time>2018-05-13T07:16:13.000Z</time>
      </trkpt>
      <trkpt lat="43.99708" lon="7.2347">
        <ele>1633</ele>
        <time>2018-05-13T07:16:16.000Z</time>
      </trkpt>
      <trkpt lat="43.99703" lon="7.23472">
        <ele>1633</ele>
        <time>2018-05-13T07:16:18.000Z</time>
      </trkpt>
      <trkpt lat="43.99701" lon="7.23472">
        <ele>1632</ele>
        <time>2018-05-13T07:16:19.000Z</time>
      </trkpt>
      <trkpt lat="43.99697" lon="7.23476">
        <ele>1631</ele>
        <time>2018-05-13T07:16:21.000Z</time>
      </trkpt>
      <trkpt lat="43.99694" lon="7.23479">
        <ele>1631</ele>
        <time>2018-05-13T07:16:22.000Z</time>
      </trkpt>
      <trkpt lat="43.99691" lon="7.23477">
        <ele>1631</ele>
        <time>2018-05-13T07:16:24.000Z</time>
      </trkpt>
      <trkpt lat="43.99693" lon="7.23475">
        <ele>1631</ele>
        <time>2018-05-13T07:16:25.000Z</time>
      </trkpt>
      <trkpt lat="43.99693" lon="7.23468">
        <ele>1631</ele>
        <time>2018-05-13T07:16:28.000Z</time>
      </trkpt>
      <trkpt lat="43.99692" lon="7.23468">
        <ele>1631</ele>
        <time>2018-05-13T07:16:29.000Z</time>
      </trkpt>
      <trkpt lat="43.9969" lon="7.23469">
        <ele>1630</ele>
        <time>2018-05-13T07:16:31.000Z</time>
      </trkpt>
      <trkpt lat="43.99686" lon="7.23469">
        <ele>1630</ele>
        <time>2018-05-13T07:16:33.000Z</time>
      </trkpt>
      <trkpt lat="43.99682" lon="7.23463">
        <ele>1629</ele>
        <time>2018-05-13T07:16:36.000Z</time>
      </trkpt>
      <trkpt lat="43.99682" lon="7.23459">
        <ele>1629</ele>
        <time>2018-05-13T07:16:37.000Z</time>
      </trkpt>
      <trkpt lat="43.99684" lon="7.23456">
        <ele>1629</ele>
        <time>2018-05-13T07:16:38.000Z</time>
      </trkpt>
      <trkpt lat="43.99683" lon="7.23452">
        <ele>1628</ele>
        <time>2018-05-13T07:16:41.000Z</time>
      </trkpt>
      <trkpt lat="43.99681" lon="7.23453">
        <ele>1628</ele>
        <time>2018-05-13T07:16:44.000Z</time>
      </trkpt>
      <trkpt lat="43.99677" lon="7.23456">
        <ele>1628</ele>
        <time>2018-05-13T07:16:46.000Z</time>
      </trkpt>
      <trkpt lat="43.99671" lon="7.23457">
        <ele>1628</ele>
        <time>2018-05-13T07:16:49.000Z</time>
      </trkpt>
      <trkpt lat="43.99669" lon="7.23457">
        <ele>1627</ele>
        <time>2018-05-13T07:16:50.000Z</time>
      </trkpt>
      <trkpt lat="43.99667" lon="7.23458">
        <ele>1627</ele>
        <time>2018-05-13T07:16:51.000Z</time>
      </trkpt>
      <trkpt lat="43.99663" lon="7.23461">
        <ele>1613</ele>
        <time>2018-05-13T07:16:53.000Z</time>
      </trkpt>
      <trkpt lat="43.9966" lon="7.23463">
        <ele>1613</ele>
        <time>2018-05-13T07:16:54.000Z</time>
      </trkpt>
      <trkpt lat="43.99654" lon="7.23464">
        <ele>1613</ele>
        <time>2018-05-13T07:16:56.000Z</time>
      </trkpt>
      <trkpt lat="43.99648" lon="7.23464">
        <ele>1612</ele>
        <time>2018-05-13T07:16:58.000Z</time>
      </trkpt>
      <trkpt lat="43.99648" lon="7.2346">
        <ele>1612</ele>
        <time>2018-05-13T07:17:00.000Z</time>
      </trkpt>
      <trkpt lat="43.99648" lon="7.23458">
        <ele>1612</ele>
        <time>2018-05-13T07:17:01.000Z</time>
      </trkpt>
      <trkpt lat="43.99648" lon="7.23452">
        <ele>1611</ele>
        <time>2018-05-13T07:17:03.000Z</time>
      </trkpt>
      <trkpt lat="43.99648" lon="7.23447">
        <ele>1611</ele>
        <time>2018-05-13T07:17:05.000Z</time>
      </trkpt>
      <trkpt lat="43.99647" lon="7.23446">
        <ele>1611</ele>
        <time>2018-05-13T07:17:06.000Z</time>
      </trkpt>
      <trkpt lat="43.99647" lon="7.23447">
        <ele>1611</ele>
        <time>2018-05-13T07:17:07.000Z</time>
      </trkpt>
      <trkpt lat="43.99644" lon="7.23449">
        <ele>1611</ele>
        <time>2018-05-13T07:17:09.000Z</time>
      </trkpt>
      <trkpt lat="43.99639" lon="7.23447">
        <ele>1610</ele>
        <time>2018-05-13T07:17:11.000Z</time>
      </trkpt>
      <trkpt lat="43.99638" lon="7.23446">
        <ele>1610</ele>
        <time>2018-05-13T07:17:12.000Z</time>
      </trkpt>
      <trkpt lat="43.9964" lon="7.23445">
        <ele>1610</ele>
        <time>2018-05-13T07:17:14.000Z</time>
      </trkpt>
      <trkpt lat="43.9964" lon="7.23439">
        <ele>1610</ele>
        <time>2018-05-13T07:17:16.000Z</time>
      </trkpt>
      <trkpt lat="43.9964" lon="7.23433">
        <ele>1610</ele>
        <time>2018-05-13T07:17:17.000Z</time>
      </trkpt>
      <trkpt lat="43.9964" lon="7.23428">
        <ele>1610</ele>
        <time>2018-05-13T07:17:18.000Z</time>
      </trkpt>
      <trkpt lat="43.99638" lon="7.23418">
        <ele>1609</ele>
        <time>2018-05-13T07:17:20.000Z</time>
      </trkpt>
      <trkpt lat="43.99635" lon="7.23412">
        <ele>1606</ele>
        <time>2018-05-13T07:17:21.000Z</time>
      </trkpt>
      <trkpt lat="43.99626" lon="7.23409">
        <ele>1605</ele>
        <time>2018-05-13T07:17:23.000Z</time>
      </trkpt>
      <trkpt lat="43.99622" lon="7.23408">
        <ele>1604</ele>
        <time>2018-05-13T07:17:24.000Z</time>
      </trkpt>
      <trkpt lat="43.99615" lon="7.23411">
        <ele>1603</ele>
        <time>2018-05-13T07:17:26.000Z</time>
      </trkpt>
      <trkpt lat="43.99611" lon="7.23411">
        <ele>1602</ele>
        <time>2018-05-13T07:17:27.000Z</time>
      </trkpt>
      <trkpt lat="43.99605" lon="7.23411">
        <ele>1600</ele>
        <time>2018-05-13T07:17:28.000Z</time>
      </trkpt>
      <trkpt lat="43.99597" lon="7.23411">
        <ele>1598</ele>
        <time>2018-05-13T07:17:30.000Z</time>
      </trkpt>
      <trkpt lat="43.99591" lon="7.2341">
        <ele>1596</ele>
        <time>2018-05-13T07:17:31.000Z</time>
      </trkpt>
      <trkpt lat="43.99585" lon="7.2341">
        <ele>1595</ele>
        <time>2018-05-13T07:17:32.000Z</time>
      </trkpt>
      <trkpt lat="43.9958" lon="7.23409">
        <ele>1591</ele>
        <time>2018-05-13T07:17:33.000Z</time>
      </trkpt>
      <trkpt lat="43.99575" lon="7.23411">
        <ele>1591</ele>
        <time>2018-05-13T07:17:34.000Z</time>
      </trkpt>
      <trkpt lat="43.99566" lon="7.23409">
        <ele>1590</ele>
        <time>2018-05-13T07:17:36.000Z</time>
      </trkpt>
      <trkpt lat="43.99562" lon="7.23411">
        <ele>1589</ele>
        <time>2018-05-13T07:17:37.000Z</time>
      </trkpt>
      <trkpt lat="43.99553" lon="7.23412">
        <ele>1589</ele>
        <time>2018-05-13T07:17:39.000Z</time>
      </trkpt>
      <trkpt lat="43.99551" lon="7.23409">
        <ele>1588</ele>
        <time>2018-05-13T07:17:40.000Z</time>
      </trkpt>
      <trkpt lat="43.99552" lon="7.23405">
        <ele>1589</ele>
        <time>2018-05-13T07:17:41.000Z</time>
      </trkpt>
      <trkpt lat="43.99555" lon="7.23401">
        <ele>1589</ele>
        <time>2018-05-13T07:17:42.000Z</time>
      </trkpt>
      <trkpt lat="43.99561" lon="7.23393">
        <ele>1589</ele>
        <time>2018-05-13T07:17:44.000Z</time>
      </trkpt>
      <trkpt lat="43.99562" lon="7.23388">
        <ele>1589</ele>
        <time>2018-05-13T07:17:45.000Z</time>
      </trkpt>
      <trkpt lat="43.99564" lon="7.23376">
        <ele>1590</ele>
        <time>2018-05-13T07:17:48.000Z</time>
      </trkpt>
      <trkpt lat="43.99549" lon="7.23359">
        <ele>1589</ele>
        <time>2018-05-13T07:17:50.000Z</time>
      </trkpt>
      <trkpt lat="43.99539" lon="7.23356">
        <ele>1589</ele>
        <time>2018-05-13T07:17:51.000Z</time>
      </trkpt>
      <trkpt lat="43.99525" lon="7.2335">
        <ele>1587</ele>
        <time>2018-05-13T07:17:53.000Z</time>
      </trkpt>
      <trkpt lat="43.99519" lon="7.23348">
        <ele>1587</ele>
        <time>2018-05-13T07:17:54.000Z</time>
      </trkpt>
      <trkpt lat="43.99513" lon="7.23345">
        <ele>1586</ele>
        <time>2018-05-13T07:17:55.000Z</time>
      </trkpt>
      <trkpt lat="43.99507" lon="7.2334">
        <ele>1585</ele>
        <time>2018-05-13T07:17:56.000Z</time>
      </trkpt>
      <trkpt lat="43.99495" lon="7.23336">
        <ele>1582</ele>
        <time>2018-05-13T07:17:58.000Z</time>
      </trkpt>
      <trkpt lat="43.99484" lon="7.23331">
        <ele>1582</ele>
        <time>2018-05-13T07:18:00.000Z</time>
      </trkpt>
      <trkpt lat="43.99479" lon="7.2333">
        <ele>1582</ele>
        <time>2018-05-13T07:18:01.000Z</time>
      </trkpt>
      <trkpt lat="43.99475" lon="7.23329">
        <ele>1581</ele>
        <time>2018-05-13T07:18:02.000Z</time>
      </trkpt>
      <trkpt lat="43.99473" lon="7.23327">
        <ele>1581</ele>
        <time>2018-05-13T07:18:03.000Z</time>
      </trkpt>
      <trkpt lat="43.99467" lon="7.23322">
        <ele>1580</ele>
        <time>2018-05-13T07:18:05.000Z</time>
      </trkpt>
      <trkpt lat="43.99462" lon="7.23321">
        <ele>1579</ele>
        <time>2018-05-13T07:18:06.000Z</time>
      </trkpt>
      <trkpt lat="43.99458" lon="7.23321">
        <ele>1578</ele>
        <time>2018-05-13T07:18:07.000Z</time>
      </trkpt>
      <trkpt lat="43.9945" lon="7.2332">
        <ele>1576</ele>
        <time>2018-05-13T07:18:09.000Z</time>
      </trkpt>
      <trkpt lat="43.99441" lon="7.23319">
        <ele>1574</ele>
        <time>2018-05-13T07:18:11.000Z</time>
      </trkpt>
      <trkpt lat="43.99434" lon="7.23315">
        <ele>1573</ele>
        <time>2018-05-13T07:18:13.000Z</time>
      </trkpt>
      <trkpt lat="43.99427" lon="7.23311">
        <ele>1573</ele>
        <time>2018-05-13T07:18:15.000Z</time>
      </trkpt>
      <trkpt lat="43.99423" lon="7.23307">
        <ele>1573</ele>
        <time>2018-05-13T07:18:16.000Z</time>
      </trkpt>
      <trkpt lat="43.9942" lon="7.23304">
        <ele>1574</ele>
        <time>2018-05-13T07:18:17.000Z</time>
      </trkpt>
      <trkpt lat="43.99415" lon="7.233">
        <ele>1558</ele>
        <time>2018-05-13T07:18:19.000Z</time>
      </trkpt>
      <trkpt lat="43.99412" lon="7.23297">
        <ele>1558</ele>
        <time>2018-05-13T07:18:20.000Z</time>
      </trkpt>
      <trkpt lat="43.99409" lon="7.23294">
        <ele>1557</ele>
        <time>2018-05-13T07:18:21.000Z</time>
      </trkpt>
      <trkpt lat="43.99406" lon="7.23291">
        <ele>1557</ele>
        <time>2018-05-13T07:18:22.000Z</time>
      </trkpt>
      <trkpt lat="43.99404" lon="7.23289">
        <ele>1557</ele>
        <time>2018-05-13T07:18:23.000Z</time>
      </trkpt>
      <trkpt lat="43.99402" lon="7.23287">
        <ele>1557</ele>
        <time>2018-05-13T07:18:24.000Z</time>
      </trkpt>
      <trkpt lat="43.99398" lon="7.23284">
        <ele>1557</ele>
        <time>2018-05-13T07:18:26.000Z</time>
      </trkpt>
      <trkpt lat="43.99394" lon="7.23281">
        <ele>1557</ele>
        <time>2018-05-13T07:18:28.000Z</time>
      </trkpt>
      <trkpt lat="43.9939" lon="7.23278">
        <ele>1556</ele>
        <time>2018-05-13T07:18:30.000Z</time>
      </trkpt>
      <trkpt lat="43.99386" lon="7.23275">
        <ele>1556</ele>
        <time>2018-05-13T07:18:31.000Z</time>
      </trkpt>
      <trkpt lat="43.9938" lon="7.23271">
        <ele>1554</ele>
        <time>2018-05-13T07:18:33.000Z</time>
      </trkpt>
      <trkpt lat="43.99377" lon="7.23266">
        <ele>1554</ele>
        <time>2018-05-13T07:18:34.000Z</time>
      </trkpt>
      <trkpt lat="43.99374" lon="7.23264">
        <ele>1553</ele>
        <time>2018-05-13T07:18:35.000Z</time>
      </trkpt>
      <trkpt lat="43.99359" lon="7.23248">
        <ele>1551</ele>
        <time>2018-05-13T07:18:39.000Z</time>
      </trkpt>
      <trkpt lat="43.99356" lon="7.23246">
        <ele>1550</ele>
        <time>2018-05-13T07:18:40.000Z</time>
      </trkpt>
      <trkpt lat="43.99353" lon="7.23242">
        <ele>1549</ele>
        <time>2018-05-13T07:18:41.000Z</time>
      </trkpt>
      <trkpt lat="43.99346" lon="7.23232">
        <ele>1549</ele>
        <time>2018-05-13T07:18:43.000Z</time>
      </trkpt>
      <trkpt lat="43.99342" lon="7.23227">
        <ele>1550</ele>
        <time>2018-05-13T07:18:44.000Z</time>
      </trkpt>
      <trkpt lat="43.99337" lon="7.23222">
        <ele>1550</ele>
        <time>2018-05-13T07:18:45.000Z</time>
      </trkpt>
      <trkpt lat="43.99328" lon="7.23212">
        <ele>1533</ele>
        <time>2018-05-13T07:18:47.000Z</time>
      </trkpt>
      <trkpt lat="43.99326" lon="7.23211">
        <ele>1533</ele>
        <time>2018-05-13T07:18:48.000Z</time>
      </trkpt>
      <trkpt lat="43.99324" lon="7.2321">
        <ele>1532</ele>
        <time>2018-05-13T07:18:49.000Z</time>
      </trkpt>
      <trkpt lat="43.99323" lon="7.23208">
        <ele>1533</ele>
        <time>2018-05-13T07:18:50.000Z</time>
      </trkpt>
      <trkpt lat="43.99319" lon="7.23205">
        <ele>1532</ele>
        <time>2018-05-13T07:18:52.000Z</time>
      </trkpt>
      <trkpt lat="43.99314" lon="7.23203">
        <ele>1532</ele>
        <time>2018-05-13T07:18:54.000Z</time>
      </trkpt>
      <trkpt lat="43.99312" lon="7.23202">
        <ele>1532</ele>
        <time>2018-05-13T07:18:55.000Z</time>
      </trkpt>
      <trkpt lat="43.9931" lon="7.23201">
        <ele>1532</ele>
        <time>2018-05-13T07:18:56.000Z</time>
      </trkpt>
      <trkpt lat="43.99306" lon="7.232">
        <ele>1531</ele>
        <time>2018-05-13T07:18:58.000Z</time>
      </trkpt>
      <trkpt lat="43.99301" lon="7.23199">
        <ele>1530</ele>
        <time>2018-05-13T07:19:00.000Z</time>
      </trkpt>
      <trkpt lat="43.99294" lon="7.23197">
        <ele>1529</ele>
        <time>2018-05-13T07:19:02.000Z</time>
      </trkpt>
      <trkpt lat="43.99285" lon="7.23194">
        <ele>1528</ele>
        <time>2018-05-13T07:19:04.000Z</time>
      </trkpt>
      <trkpt lat="43.99281" lon="7.23194">
        <ele>1527</ele>
        <time>2018-05-13T07:19:05.000Z</time>
      </trkpt>
      <trkpt lat="43.99273" lon="7.23192">
        <ele>1526</ele>
        <time>2018-05-13T07:19:07.000Z</time>
      </trkpt>
      <trkpt lat="43.99272" lon="7.23192">
        <ele>1526</ele>
        <time>2018-05-13T07:19:08.000Z</time>
      </trkpt>
      <trkpt lat="43.99271" lon="7.23192">
        <ele>1525</ele>
        <time>2018-05-13T07:19:09.000Z</time>
      </trkpt>
      <trkpt lat="43.9927" lon="7.23192">
        <ele>1525</ele>
        <time>2018-05-13T07:19:12.000Z</time>
      </trkpt>
      <trkpt lat="43.99269" lon="7.23192">
        <ele>1525</ele>
        <time>2018-05-13T07:19:13.000Z</time>
      </trkpt>
      <trkpt lat="43.99268" lon="7.23194">
        <ele>1525</ele>
        <time>2018-05-13T07:19:17.000Z</time>
      </trkpt>
      <trkpt lat="43.99264" lon="7.23195">
        <ele>1525</ele>
        <time>2018-05-13T07:19:19.000Z</time>
      </trkpt>
      <trkpt lat="43.99263" lon="7.23196">
        <ele>1524</ele>
        <time>2018-05-13T07:19:20.000Z</time>
      </trkpt>
      <trkpt lat="43.99261" lon="7.23196">
        <ele>1524</ele>
        <time>2018-05-13T07:19:21.000Z</time>
      </trkpt>
      <trkpt lat="43.9926" lon="7.23196">
        <ele>1524</ele>
        <time>2018-05-13T07:19:24.000Z</time>
      </trkpt>
      <trkpt lat="43.99252" lon="7.23192">
        <ele>1523</ele>
        <time>2018-05-13T07:19:28.000Z</time>
      </trkpt>
      <trkpt lat="43.99249" lon="7.23193">
        <ele>1509</ele>
        <time>2018-05-13T07:19:29.000Z</time>
      </trkpt>
      <trkpt lat="43.99242" lon="7.23191">
        <ele>1509</ele>
        <time>2018-05-13T07:19:31.000Z</time>
      </trkpt>
      <trkpt lat="43.9924" lon="7.23189">
        <ele>1509</ele>
        <time>2018-05-13T07:19:32.000Z</time>
      </trkpt>
      <trkpt lat="43.99237" lon="7.23188">
        <ele>1509</ele>
        <time>2018-05-13T07:19:33.000Z</time>
      </trkpt>
      <trkpt lat="43.99235" lon="7.23186">
        <ele>1509</ele>
        <time>2018-05-13T07:19:34.000Z</time>
      </trkpt>
      <trkpt lat="43.99233" lon="7.23185">
        <ele>1508</ele>
        <time>2018-05-13T07:19:35.000Z</time>
      </trkpt>
      <trkpt lat="43.99227" lon="7.23184">
        <ele>1507</ele>
        <time>2018-05-13T07:19:37.000Z</time>
      </trkpt>
      <trkpt lat="43.99218" lon="7.2318">
        <ele>1506</ele>
        <time>2018-05-13T07:19:39.000Z</time>
      </trkpt>
      <trkpt lat="43.99209" lon="7.23174">
        <ele>1504</ele>
        <time>2018-05-13T07:19:41.000Z</time>
      </trkpt>
      <trkpt lat="43.99203" lon="7.23169">
        <ele>1503</ele>
        <time>2018-05-13T07:19:42.000Z</time>
      </trkpt>
      <trkpt lat="43.99198" lon="7.23165">
        <ele>1508</ele>
        <time>2018-05-13T07:19:43.000Z</time>
      </trkpt>
      <trkpt lat="43.99194" lon="7.23162">
        <ele>1507</ele>
        <time>2018-05-13T07:19:44.000Z</time>
      </trkpt>
      <trkpt lat="43.99191" lon="7.2316">
        <ele>1506</ele>
        <time>2018-05-13T07:19:45.000Z</time>
      </trkpt>
      <trkpt lat="43.99188" lon="7.23159">
        <ele>1506</ele>
        <time>2018-05-13T07:19:47.000Z</time>
      </trkpt>
      <trkpt lat="43.99187" lon="7.23158">
        <ele>1505</ele>
        <time>2018-05-13T07:19:50.000Z</time>
      </trkpt>
      <trkpt lat="43.99183" lon="7.23159">
        <ele>1504</ele>
        <time>2018-05-13T07:19:53.000Z</time>
      </trkpt>
      <trkpt lat="43.99183" lon="7.23159">
        <ele>1504</ele>
        <time>2018-05-13T07:19:55.000Z</time>
      </trkpt>
      <trkpt lat="43.99181" lon="7.23161">
        <ele>1503</ele>
        <time>2018-05-13T07:19:57.000Z</time>
      </trkpt>
      <trkpt lat="43.9918" lon="7.23163">
        <ele>1502</ele>
        <time>2018-05-13T07:19:58.000Z</time>
      </trkpt>
      <trkpt lat="43.99177" lon="7.23166">
        <ele>1500</ele>
        <time>2018-05-13T07:20:00.000Z</time>
      </trkpt>
      <trkpt lat="43.99171" lon="7.23167">
        <ele>1494</ele>
        <time>2018-05-13T07:20:02.000Z</time>
      </trkpt>
      <trkpt lat="43.99166" lon="7.23168">
        <ele>1492</ele>
        <time>2018-05-13T07:20:03.000Z</time>
      </trkpt>
      <trkpt lat="43.99162" lon="7.23169">
        <ele>1491</ele>
        <time>2018-05-13T07:20:04.000Z</time>
      </trkpt>
      <trkpt lat="43.99157" lon="7.2317">
        <ele>1489</ele>
        <time>2018-05-13T07:20:06.000Z</time>
      </trkpt>
      <trkpt lat="43.99154" lon="7.2317">
        <ele>1488</ele>
        <time>2018-05-13T07:20:07.000Z</time>
      </trkpt>
      <trkpt lat="43.99147" lon="7.23168">
        <ele>1487</ele>
        <time>2018-05-13T07:20:09.000Z</time>
      </trkpt>
      <trkpt lat="43.99142" lon="7.23169">
        <ele>1486</ele>
        <time>2018-05-13T07:20:10.000Z</time>
      </trkpt>
      <trkpt lat="43.99138" lon="7.23171">
        <ele>1485</ele>
        <time>2018-05-13T07:20:11.000Z</time>
      </trkpt>
      <trkpt lat="43.99129" lon="7.23172">
        <ele>1483</ele>
        <time>2018-05-13T07:20:14.000Z</time>
      </trkpt>
      <trkpt lat="43.99126" lon="7.23172">
        <ele>1483</ele>
        <time>2018-05-13T07:20:15.000Z</time>
      </trkpt>
      <trkpt lat="43.9912" lon="7.23174">
        <ele>1482</ele>
        <time>2018-05-13T07:20:17.000Z</time>
      </trkpt>
      <trkpt lat="43.99116" lon="7.23172">
        <ele>1481</ele>
        <time>2018-05-13T07:20:18.000Z</time>
      </trkpt>
      <trkpt lat="43.99112" lon="7.23174">
        <ele>1481</ele>
        <time>2018-05-13T07:20:19.000Z</time>
      </trkpt>
      <trkpt lat="43.99103" lon="7.23178">
        <ele>1480</ele>
        <time>2018-05-13T07:20:21.000Z</time>
      </trkpt>
      <trkpt lat="43.99093" lon="7.2318">
        <ele>1479</ele>
        <time>2018-05-13T07:20:23.000Z</time>
      </trkpt>
      <trkpt lat="43.99084" lon="7.23183">
        <ele>1478</ele>
        <time>2018-05-13T07:20:25.000Z</time>
      </trkpt>
      <trkpt lat="43.99078" lon="7.23186">
        <ele>1471</ele>
        <time>2018-05-13T07:20:26.000Z</time>
      </trkpt>
      <trkpt lat="43.99068" lon="7.23189">
        <ele>1470</ele>
        <time>2018-05-13T07:20:28.000Z</time>
      </trkpt>
      <trkpt lat="43.99064" lon="7.23189">
        <ele>1469</ele>
        <time>2018-05-13T07:20:29.000Z</time>
      </trkpt>
      <trkpt lat="43.99053" lon="7.23191">
        <ele>1468</ele>
        <time>2018-05-13T07:20:32.000Z</time>
      </trkpt>
      <trkpt lat="43.99045" lon="7.23178">
        <ele>1467</ele>
        <time>2018-05-13T07:20:36.000Z</time>
      </trkpt>
      <trkpt lat="43.99042" lon="7.23176">
        <ele>1467</ele>
        <time>2018-05-13T07:20:37.000Z</time>
      </trkpt>
      <trkpt lat="43.99038" lon="7.23175">
        <ele>1467</ele>
        <time>2018-05-13T07:20:39.000Z</time>
      </trkpt>
      <trkpt lat="43.99035" lon="7.23174">
        <ele>1466</ele>
        <time>2018-05-13T07:20:41.000Z</time>
      </trkpt>
      <trkpt lat="43.99035" lon="7.23172">
        <ele>1466</ele>
        <time>2018-05-13T07:20:42.000Z</time>
      </trkpt>
      <trkpt lat="43.99037" lon="7.23167">
        <ele>1467</ele>
        <time>2018-05-13T07:20:44.000Z</time>
      </trkpt>
      <trkpt lat="43.9904" lon="7.23162">
        <ele>1462</ele>
        <time>2018-05-13T07:20:46.000Z</time>
      </trkpt>
      <trkpt lat="43.99041" lon="7.23161">
        <ele>1463</ele>
        <time>2018-05-13T07:20:47.000Z</time>
      </trkpt>
      <trkpt lat="43.99043" lon="7.23157">
        <ele>1463</ele>
        <time>2018-05-13T07:20:49.000Z</time>
      </trkpt>
      <trkpt lat="43.99043" lon="7.23154">
        <ele>1462</ele>
        <time>2018-05-13T07:20:51.000Z</time>
      </trkpt>
      <trkpt lat="43.9904" lon="7.23151">
        <ele>1462</ele>
        <time>2018-05-13T07:20:53.000Z</time>
      </trkpt>
      <trkpt lat="43.99038" lon="7.23152">
        <ele>1462</ele>
        <time>2018-05-13T07:20:54.000Z</time>
      </trkpt>
      <trkpt lat="43.99035" lon="7.23154">
        <ele>1461</ele>
        <time>2018-05-13T07:20:56.000Z</time>
      </trkpt>
      <trkpt lat="43.99034" lon="7.23155">
        <ele>1461</ele>
        <time>2018-05-13T07:20:59.000Z</time>
      </trkpt>
      <trkpt lat="43.99033" lon="7.23156">
        <ele>1461</ele>
        <time>2018-05-13T07:21:00.000Z</time>
      </trkpt>
      <trkpt lat="43.99032" lon="7.23156">
        <ele>1461</ele>
        <time>2018-05-13T07:21:01.000Z</time>
      </trkpt>
      <trkpt lat="43.9903" lon="7.23156">
        <ele>1461</ele>
        <time>2018-05-13T07:21:02.000Z</time>
      </trkpt>
      <trkpt lat="43.99025" lon="7.23154">
        <ele>1460</ele>
        <time>2018-05-13T07:21:05.000Z</time>
      </trkpt>
      <trkpt lat="43.99025" lon="7.2315">
        <ele>1460</ele>
        <time>2018-05-13T07:21:07.000Z</time>
      </trkpt>
      <trkpt lat="43.99024" lon="7.2315">
        <ele>1460</ele>
        <time>2018-05-13T07:21:08.000Z</time>
      </trkpt>
      <trkpt lat="43.99023" lon="7.23149">
        <ele>1460</ele>
        <time>2018-05-13T07:21:09.000Z</time>
      </trkpt>
      <trkpt lat="43.99021" lon="7.23149">
        <ele>1460</ele>
        <time>2018-05-13T07:21:11.000Z</time>
      </trkpt>
      <trkpt lat="43.99017" lon="7.23149">
        <ele>1459</ele>
        <time>2018-05-13T07:21:13.000Z</time>
      </trkpt>
      <trkpt lat="43.99014" lon="7.23148">
        <ele>1459</ele>
        <time>2018-05-13T07:21:14.000Z</time>
      </trkpt>
      <trkpt lat="43.99012" lon="7.23146">
        <ele>1459</ele>
        <time>2018-05-13T07:21:15.000Z</time>
      </trkpt>
      <trkpt lat="43.99011" lon="7.23144">
        <ele>1458</ele>
        <time>2018-05-13T07:21:16.000Z</time>
      </trkpt>
      <trkpt lat="43.99011" lon="7.23141">
        <ele>1458</ele>
        <time>2018-05-13T07:21:17.000Z</time>
      </trkpt>
      <trkpt lat="43.99013" lon="7.23138">
        <ele>1458</ele>
        <time>2018-05-13T07:21:18.000Z</time>
      </trkpt>
      <trkpt lat="43.99016" lon="7.23135">
        <ele>1457</ele>
        <time>2018-05-13T07:21:20.000Z</time>
      </trkpt>
      <trkpt lat="43.99017" lon="7.23133">
        <ele>1457</ele>
        <time>2018-05-13T07:21:21.000Z</time>
      </trkpt>
      <trkpt lat="43.99017" lon="7.23132">
        <ele>1457</ele>
        <time>2018-05-13T07:21:22.000Z</time>
      </trkpt>
      <trkpt lat="43.99017" lon="7.23132">
        <ele>1457</ele>
        <time>2018-05-13T07:21:24.000Z</time>
      </trkpt>
      <trkpt lat="43.99016" lon="7.23131">
        <ele>1457</ele>
        <time>2018-05-13T07:21:26.000Z</time>
      </trkpt>
      <trkpt lat="43.99016" lon="7.23132">
        <ele>1457</ele>
        <time>2018-05-13T07:21:28.000Z</time>
      </trkpt>
      <trkpt lat="43.99016" lon="7.23132">
        <ele>1457</ele>
        <time>2018-05-13T07:21:29.000Z</time>
      </trkpt>
      <trkpt lat="43.99013" lon="7.23132">
        <ele>1457</ele>
        <time>2018-05-13T07:21:34.000Z</time>
      </trkpt>
      <trkpt lat="43.9901" lon="7.23132">
        <ele>1456</ele>
        <time>2018-05-13T07:21:38.000Z</time>
      </trkpt>
      <trkpt lat="43.99008" lon="7.23132">
        <ele>1456</ele>
        <time>2018-05-13T07:21:39.000Z</time>
      </trkpt>
      <trkpt lat="43.99001" lon="7.23131">
        <ele>1456</ele>
        <time>2018-05-13T07:21:43.000Z</time>
      </trkpt>
      <trkpt lat="43.99" lon="7.23129">
        <ele>1439</ele>
        <time>2018-05-13T07:21:44.000Z</time>
      </trkpt>
      <trkpt lat="43.98996" lon="7.23128">
        <ele>1439</ele>
        <time>2018-05-13T07:21:46.000Z</time>
      </trkpt>
      <trkpt lat="43.98993" lon="7.23127">
        <ele>1438</ele>
        <time>2018-05-13T07:21:47.000Z</time>
      </trkpt>
      <trkpt lat="43.98991" lon="7.23126">
        <ele>1438</ele>
        <time>2018-05-13T07:21:48.000Z</time>
      </trkpt>
      <trkpt lat="43.98977" lon="7.23121">
        <ele>1435</ele>
        <time>2018-05-13T07:21:51.000Z</time>
      </trkpt>
      <trkpt lat="43.98975" lon="7.2312">
        <ele>1435</ele>
        <time>2018-05-13T07:21:52.000Z</time>
      </trkpt>
      <trkpt lat="43.9897" lon="7.23119">
        <ele>1434</ele>
        <time>2018-05-13T07:21:53.000Z</time>
      </trkpt>
      <trkpt lat="43.98965" lon="7.23119">
        <ele>1433</ele>
        <time>2018-05-13T07:21:54.000Z</time>
      </trkpt>
      <trkpt lat="43.98962" lon="7.23121">
        <ele>1433</ele>
        <time>2018-05-13T07:21:55.000Z</time>
      </trkpt>
      <trkpt lat="43.9896" lon="7.23125">
        <ele>1433</ele>
        <time>2018-05-13T07:21:56.000Z</time>
      </trkpt>
      <trkpt lat="43.98958" lon="7.23127">
        <ele>1434</ele>
        <time>2018-05-13T07:21:57.000Z</time>
      </trkpt>
      <trkpt lat="43.98956" lon="7.23128">
        <ele>1433</ele>
        <time>2018-05-13T07:22:00.000Z</time>
      </trkpt>
      <trkpt lat="43.98955" lon="7.23128">
        <ele>1433</ele>
        <time>2018-05-13T07:22:01.000Z</time>
      </trkpt>
      <trkpt lat="43.9895" lon="7.23128">
        <ele>1432</ele>
        <time>2018-05-13T07:22:07.000Z</time>
      </trkpt>
      <trkpt lat="43.98949" lon="7.23127">
        <ele>1432</ele>
        <time>2018-05-13T07:22:09.000Z</time>
      </trkpt>
      <trkpt lat="43.98949" lon="7.23127">
        <ele>1432</ele>
        <time>2018-05-13T07:22:11.000Z</time>
      </trkpt>
      <trkpt lat="43.98948" lon="7.23128">
        <ele>1432</ele>
        <time>2018-05-13T07:22:12.000Z</time>
      </trkpt>
      <trkpt lat="43.98947" lon="7.23129">
        <ele>1432</ele>
        <time>2018-05-13T07:22:14.000Z</time>
      </trkpt>
      <trkpt lat="43.98943" lon="7.23132">
        <ele>1432</ele>
        <time>2018-05-13T07:22:18.000Z</time>
      </trkpt>
      <trkpt lat="43.9894" lon="7.23138">
        <ele>1433</ele>
        <time>2018-05-13T07:22:20.000Z</time>
      </trkpt>
      <trkpt lat="43.98936" lon="7.2314">
        <ele>1433</ele>
        <time>2018-05-13T07:22:22.000Z</time>
      </trkpt>
      <trkpt lat="43.98934" lon="7.23143">
        <ele>1433</ele>
        <time>2018-05-13T07:22:24.000Z</time>
      </trkpt>
      <trkpt lat="43.98931" lon="7.23142">
        <ele>1432</ele>
        <time>2018-05-13T07:22:26.000Z</time>
      </trkpt>
      <trkpt lat="43.98929" lon="7.23145">
        <ele>1432</ele>
        <time>2018-05-13T07:22:28.000Z</time>
      </trkpt>
      <trkpt lat="43.98925" lon="7.23145">
        <ele>1432</ele>
        <time>2018-05-13T07:22:30.000Z</time>
      </trkpt>
      <trkpt lat="43.9892" lon="7.23148">
        <ele>1432</ele>
        <time>2018-05-13T07:22:32.000Z</time>
      </trkpt>
      <trkpt lat="43.98916" lon="7.23153">
        <ele>1422</ele>
        <time>2018-05-13T07:22:34.000Z</time>
      </trkpt>
      <trkpt lat="43.98908" lon="7.23153">
        <ele>1421</ele>
        <time>2018-05-13T07:22:36.000Z</time>
      </trkpt>
      <trkpt lat="43.98905" lon="7.23153">
        <ele>1420</ele>
        <time>2018-05-13T07:22:37.000Z</time>
      </trkpt>
      <trkpt lat="43.98901" lon="7.23153">
        <ele>1418</ele>
        <time>2018-05-13T07:22:38.000Z</time>
      </trkpt>
      <trkpt lat="43.98891" lon="7.23152">
        <ele>1415</ele>
        <time>2018-05-13T07:22:41.000Z</time>
      </trkpt>
      <trkpt lat="43.98889" lon="7.23151">
        <ele>1414</ele>
        <time>2018-05-13T07:22:42.000Z</time>
      </trkpt>
      <trkpt lat="43.98881" lon="7.23144">
        <ele>1411</ele>
        <time>2018-05-13T07:22:46.000Z</time>
      </trkpt>
      <trkpt lat="43.98873" lon="7.23146">
        <ele>1409</ele>
        <time>2018-05-13T07:22:50.000Z</time>
      </trkpt>
      <trkpt lat="43.98865" lon="7.23149">
        <ele>1408</ele>
        <time>2018-05-13T07:22:53.000Z</time>
      </trkpt>
      <trkpt lat="43.98862" lon="7.2315">
        <ele>1408</ele>
        <time>2018-05-13T07:22:54.000Z</time>
      </trkpt>
      <trkpt lat="43.98856" lon="7.23152">
        <ele>1407</ele>
        <time>2018-05-13T07:22:57.000Z</time>
      </trkpt>
      <trkpt lat="43.98857" lon="7.23152">
        <ele>1408</ele>
        <time>2018-05-13T07:22:58.000Z</time>
      </trkpt>
      <trkpt lat="43.98855" lon="7.23153">
        <ele>1407</ele>
        <time>2018-05-13T07:23:00.000Z</time>
      </trkpt>
      <trkpt lat="43.98852" lon="7.23154">
        <ele>1407</ele>
        <time>2018-05-13T07:23:03.000Z</time>
      </trkpt>
      <trkpt lat="43.98849" lon="7.23157">
        <ele>1407</ele>
        <time>2018-05-13T07:23:08.000Z</time>
      </trkpt>
      <trkpt lat="43.98846" lon="7.23156">
        <ele>1407</ele>
        <time>2018-05-13T07:23:11.000Z</time>
      </trkpt>
      <trkpt lat="43.98847" lon="7.23155">
        <ele>1407</ele>
        <time>2018-05-13T07:23:13.000Z</time>
      </trkpt>
      <trkpt lat="43.98847" lon="7.23154">
        <ele>1407</ele>
        <time>2018-05-13T07:23:16.000Z</time>
      </trkpt>
      <trkpt lat="43.98847" lon="7.23154">
        <ele>1407</ele>
        <time>2018-05-13T07:23:18.000Z</time>
      </trkpt>
      <trkpt lat="43.98846" lon="7.2315">
        <ele>1406</ele>
        <time>2018-05-13T07:23:22.000Z</time>
      </trkpt>
      <trkpt lat="43.98846" lon="7.23151">
        <ele>1406</ele>
        <time>2018-05-13T07:23:23.000Z</time>
      </trkpt>
      <trkpt lat="43.98844" lon="7.23149">
        <ele>1406</ele>
        <time>2018-05-13T07:23:27.000Z</time>
      </trkpt>
      <trkpt lat="43.98842" lon="7.23147">
        <ele>1406</ele>
        <time>2018-05-13T07:23:29.000Z</time>
      </trkpt>
      <trkpt lat="43.98841" lon="7.23147">
        <ele>1406</ele>
        <time>2018-05-13T07:23:30.000Z</time>
      </trkpt>
      <trkpt lat="43.98836" lon="7.23149">
        <ele>1406</ele>
        <time>2018-05-13T07:23:32.000Z</time>
      </trkpt>
      <trkpt lat="43.98835" lon="7.2315">
        <ele>1406</ele>
        <time>2018-05-13T07:23:33.000Z</time>
      </trkpt>
      <trkpt lat="43.9883" lon="7.23155">
        <ele>1395</ele>
        <time>2018-05-13T07:23:37.000Z</time>
      </trkpt>
      <trkpt lat="43.98825" lon="7.23159">
        <ele>1396</ele>
        <time>2018-05-13T07:23:40.000Z</time>
      </trkpt>
      <trkpt lat="43.9882" lon="7.23164">
        <ele>1395</ele>
        <time>2018-05-13T07:23:43.000Z</time>
      </trkpt>
      <trkpt lat="43.98818" lon="7.23166">
        <ele>1393</ele>
        <time>2018-05-13T07:23:44.000Z</time>
      </trkpt>
      <trkpt lat="43.98814" lon="7.23163">
        <ele>1391</ele>
        <time>2018-05-13T07:23:46.000Z</time>
      </trkpt>
      <trkpt lat="43.98816" lon="7.23161">
        <ele>1392</ele>
        <time>2018-05-13T07:23:48.000Z</time>
      </trkpt>
      <trkpt lat="43.98817" lon="7.23158">
        <ele>1392</ele>
        <time>2018-05-13T07:23:49.000Z</time>
      </trkpt>
      <trkpt lat="43.98817" lon="7.23157">
        <ele>1391</ele>
        <time>2018-05-13T07:23:51.000Z</time>
      </trkpt>
      <trkpt lat="43.98816" lon="7.23156">
        <ele>1390</ele>
        <time>2018-05-13T07:23:52.000Z</time>
      </trkpt>
      <trkpt lat="43.98814" lon="7.23156">
        <ele>1390</ele>
        <time>2018-05-13T07:23:54.000Z</time>
      </trkpt>
      <trkpt lat="43.98811" lon="7.23155">
        <ele>1388</ele>
        <time>2018-05-13T07:23:59.000Z</time>
      </trkpt>
      <trkpt lat="43.98805" lon="7.23154">
        <ele>1386</ele>
        <time>2018-05-13T07:24:04.000Z</time>
      </trkpt>
      <trkpt lat="43.98801" lon="7.23153">
        <ele>1385</ele>
        <time>2018-05-13T07:24:08.000Z</time>
      </trkpt>
      <trkpt lat="43.98799" lon="7.23152">
        <ele>1384</ele>
        <time>2018-05-13T07:24:11.000Z</time>
      </trkpt>
      <trkpt lat="43.98798" lon="7.23149">
        <ele>1383</ele>
        <time>2018-05-13T07:24:16.000Z</time>
      </trkpt>
      <trkpt lat="43.98798" lon="7.23148">
        <ele>1383</ele>
        <time>2018-05-13T07:24:17.000Z</time>
      </trkpt>
      <trkpt lat="43.98798" lon="7.23144">
        <ele>1383</ele>
        <time>2018-05-13T07:24:22.000Z</time>
      </trkpt>
      <trkpt lat="43.98797" lon="7.23142">
        <ele>1382</ele>
        <time>2018-05-13T07:24:26.000Z</time>
      </trkpt>
      <trkpt lat="43.98796" lon="7.23144">
        <ele>1382</ele>
        <time>2018-05-13T07:24:28.000Z</time>
      </trkpt>
      <trkpt lat="43.98795" lon="7.23145">
        <ele>1382</ele>
        <time>2018-05-13T07:24:29.000Z</time>
      </trkpt>
      <trkpt lat="43.98793" lon="7.23145">
        <ele>1382</ele>
        <time>2018-05-13T07:24:33.000Z</time>
      </trkpt>
      <trkpt lat="43.98793" lon="7.23144">
        <ele>1381</ele>
        <time>2018-05-13T07:24:34.000Z</time>
      </trkpt>
      <trkpt lat="43.98791" lon="7.23143">
        <ele>1381</ele>
        <time>2018-05-13T07:24:37.000Z</time>
      </trkpt>
      <trkpt lat="43.98792" lon="7.2314">
        <ele>1381</ele>
        <time>2018-05-13T07:24:40.000Z</time>
      </trkpt>
      <trkpt lat="43.9879" lon="7.23137">
        <ele>1380</ele>
        <time>2018-05-13T07:24:44.000Z</time>
      </trkpt>
      <trkpt lat="43.9879" lon="7.23136">
        <ele>1380</ele>
        <time>2018-05-13T07:24:46.000Z</time>
      </trkpt>
      <trkpt lat="43.98789" lon="7.23135">
        <ele>1379</ele>
        <time>2018-05-13T07:24:49.000Z</time>
      </trkpt>
      <trkpt lat="43.98787" lon="7.23133">
        <ele>1379</ele>
        <time>2018-05-13T07:24:53.000Z</time>
      </trkpt>
      <trkpt lat="43.98783" lon="7.23132">
        <ele>1378</ele>
        <time>2018-05-13T07:24:58.000Z</time>
      </trkpt>
      <trkpt lat="43.98783" lon="7.23133">
        <ele>1378</ele>
        <time>2018-05-13T07:25:00.000Z</time>
      </trkpt>
      <trkpt lat="43.98782" lon="7.23134">
        <ele>1378</ele>
        <time>2018-05-13T07:25:01.000Z</time>
      </trkpt>
      <trkpt lat="43.98781" lon="7.23135">
        <ele>1378</ele>
        <time>2018-05-13T07:25:03.000Z</time>
      </trkpt>
      <trkpt lat="43.98781" lon="7.23135">
        <ele>1378</ele>
        <time>2018-05-13T07:25:04.000Z</time>
      </trkpt>
      <trkpt lat="43.98778" lon="7.23136">
        <ele>1378</ele>
        <time>2018-05-13T07:25:08.000Z</time>
      </trkpt>
      <trkpt lat="43.98777" lon="7.23137">
        <ele>1378</ele>
        <time>2018-05-13T07:25:09.000Z</time>
      </trkpt>
      <trkpt lat="43.98777" lon="7.23137">
        <ele>1378</ele>
        <time>2018-05-13T07:25:11.000Z</time>
      </trkpt>
      <trkpt lat="43.98777" lon="7.23138">
        <ele>1378</ele>
        <time>2018-05-13T07:25:14.000Z</time>
      </trkpt>
      <trkpt lat="43.98778" lon="7.23138">
        <ele>1378</ele>
        <time>2018-05-13T07:25:15.000Z</time>
      </trkpt>
      <trkpt lat="43.98777" lon="7.23138">
        <ele>1378</ele>
        <time>2018-05-13T07:25:21.000Z</time>
      </trkpt>
      <trkpt lat="43.98775" lon="7.23139">
        <ele>1378</ele>
        <time>2018-05-13T07:25:24.000Z</time>
      </trkpt>
      <trkpt lat="43.98772" lon="7.23139">
        <ele>1377</ele>
        <time>2018-05-13T07:25:26.000Z</time>
      </trkpt>
      <trkpt lat="43.98769" lon="7.2314">
        <ele>1377</ele>
        <time>2018-05-13T07:25:28.000Z</time>
      </trkpt>
      <trkpt lat="43.98765" lon="7.23142">
        <ele>1377</ele>
        <time>2018-05-13T07:25:30.000Z</time>
      </trkpt>
      <trkpt lat="43.98764" lon="7.23143">
        <ele>1377</ele>
        <time>2018-05-13T07:25:31.000Z</time>
      </trkpt>
      <trkpt lat="43.98759" lon="7.23145">
        <ele>1377</ele>
        <time>2018-05-13T07:25:33.000Z</time>
      </trkpt>
      <trkpt lat="43.98752" lon="7.23148">
        <ele>1377</ele>
        <time>2018-05-13T07:25:36.000Z</time>
      </trkpt>
      <trkpt lat="43.98749" lon="7.23149">
        <ele>1363</ele>
        <time>2018-05-13T07:25:37.000Z</time>
      </trkpt>
      <trkpt lat="43.98747" lon="7.23152">
        <ele>1365</ele>
        <time>2018-05-13T07:25:38.000Z</time>
      </trkpt>
      <trkpt lat="43.9874" lon="7.23159">
        <ele>1366</ele>
        <time>2018-05-13T07:25:40.000Z</time>
      </trkpt>
      <trkpt lat="43.98736" lon="7.23159">
        <ele>1364</ele>
        <time>2018-05-13T07:25:41.000Z</time>
      </trkpt>
      <trkpt lat="43.98732" lon="7.2316">
        <ele>1362</ele>
        <time>2018-05-13T07:25:43.000Z</time>
      </trkpt>
      <trkpt lat="43.98733" lon="7.23163">
        <ele>1363</ele>
        <time>2018-05-13T07:25:44.000Z</time>
      </trkpt>
      <trkpt lat="43.98731" lon="7.23166">
        <ele>1363</ele>
        <time>2018-05-13T07:25:46.000Z</time>
      </trkpt>
      <trkpt lat="43.98729" lon="7.23167">
        <ele>1369</ele>
        <time>2018-05-13T07:25:47.000Z</time>
      </trkpt>
      <trkpt lat="43.98727" lon="7.23167">
        <ele>1368</ele>
        <time>2018-05-13T07:25:50.000Z</time>
      </trkpt>
      <trkpt lat="43.98719" lon="7.23168">
        <ele>1366</ele>
        <time>2018-05-13T07:25:53.000Z</time>
      </trkpt>
      <trkpt lat="43.98718" lon="7.2317">
        <ele>1366</ele>
        <time>2018-05-13T07:25:54.000Z</time>
      </trkpt>
      <trkpt lat="43.98714" lon="7.23176">
        <ele>1365</ele>
        <time>2018-05-13T07:25:56.000Z</time>
      </trkpt>
      <trkpt lat="43.98711" lon="7.23177">
        <ele>1364</ele>
        <time>2018-05-13T07:25:57.000Z</time>
      </trkpt>
      <trkpt lat="43.9871" lon="7.23179">
        <ele>1364</ele>
        <time>2018-05-13T07:25:58.000Z</time>
      </trkpt>
      <trkpt lat="43.98709" lon="7.2318">
        <ele>1364</ele>
        <time>2018-05-13T07:25:59.000Z</time>
      </trkpt>
      <trkpt lat="43.98709" lon="7.23182">
        <ele>1364</ele>
        <time>2018-05-13T07:26:00.000Z</time>
      </trkpt>
      <trkpt lat="43.98706" lon="7.23191">
        <ele>1363</ele>
        <time>2018-05-13T07:26:02.000Z</time>
      </trkpt>
      <trkpt lat="43.98703" lon="7.23193">
        <ele>1362</ele>
        <time>2018-05-13T07:26:03.000Z</time>
      </trkpt>
      <trkpt lat="43.98695" lon="7.23196">
        <ele>1361</ele>
        <time>2018-05-13T07:26:05.000Z</time>
      </trkpt>
      <trkpt lat="43.98691" lon="7.23197">
        <ele>1361</ele>
        <time>2018-05-13T07:26:06.000Z</time>
      </trkpt>
      <trkpt lat="43.98685" lon="7.23199">
        <ele>1360</ele>
        <time>2018-05-13T07:26:07.000Z</time>
      </trkpt>
      <trkpt lat="43.98679" lon="7.232">
        <ele>1360</ele>
        <time>2018-05-13T07:26:08.000Z</time>
      </trkpt>
      <trkpt lat="43.98674" lon="7.23202">
        <ele>1359</ele>
        <time>2018-05-13T07:26:09.000Z</time>
      </trkpt>
      <trkpt lat="43.98667" lon="7.23204">
        <ele>1359</ele>
        <time>2018-05-13T07:26:10.000Z</time>
      </trkpt>
      <trkpt lat="43.98663" lon="7.23207">
        <ele>1351</ele>
        <time>2018-05-13T07:26:11.000Z</time>
      </trkpt>
      <trkpt lat="43.9866" lon="7.23209">
        <ele>1351</ele>
        <time>2018-05-13T07:26:12.000Z</time>
      </trkpt>
      <trkpt lat="43.98655" lon="7.23209">
        <ele>1351</ele>
        <time>2018-05-13T07:26:13.000Z</time>
      </trkpt>
      <trkpt lat="43.98646" lon="7.23214">
        <ele>1350</ele>
        <time>2018-05-13T07:26:16.000Z</time>
      </trkpt>
      <trkpt lat="43.98631" lon="7.23222">
        <ele>1350</ele>
        <time>2018-05-13T07:26:21.000Z</time>
      </trkpt>
      <trkpt lat="43.98616" lon="7.23224">
        <ele>1350</ele>
        <time>2018-05-13T07:26:25.000Z</time>
      </trkpt>
      <trkpt lat="43.98609" lon="7.23229">
        <ele>1350</ele>
        <time>2018-05-13T07:26:27.000Z</time>
      </trkpt>
      <trkpt lat="43.98603" lon="7.2323">
        <ele>1350</ele>
        <time>2018-05-13T07:26:29.000Z</time>
      </trkpt>
      <trkpt lat="43.98599" lon="7.23233">
        <ele>1351</ele>
        <time>2018-05-13T07:26:33.000Z</time>
      </trkpt>
      <trkpt lat="43.98595" lon="7.23237">
        <ele>1351</ele>
        <time>2018-05-13T07:26:37.000Z</time>
      </trkpt>
      <trkpt lat="43.98594" lon="7.23238">
        <ele>1351</ele>
        <time>2018-05-13T07:26:38.000Z</time>
      </trkpt>
      <trkpt lat="43.9859" lon="7.23239">
        <ele>1352</ele>
        <time>2018-05-13T07:26:41.000Z</time>
      </trkpt>
      <trkpt lat="43.98589" lon="7.2324">
        <ele>1352</ele>
        <time>2018-05-13T07:26:42.000Z</time>
      </trkpt>
      <trkpt lat="43.98579" lon="7.23252">
        <ele>1354</ele>
        <time>2018-05-13T07:26:45.000Z</time>
      </trkpt>
      <trkpt lat="43.98576" lon="7.23256">
        <ele>1354</ele>
        <time>2018-05-13T07:26:46.000Z</time>
      </trkpt>
      <trkpt lat="43.98573" lon="7.23259">
        <ele>1355</ele>
        <time>2018-05-13T07:26:48.000Z</time>
      </trkpt>
      <trkpt lat="43.98572" lon="7.23261">
        <ele>1355</ele>
        <time>2018-05-13T07:26:49.000Z</time>
      </trkpt>
      <trkpt lat="43.98563" lon="7.23275">
        <ele>1355</ele>
        <time>2018-05-13T07:26:53.000Z</time>
      </trkpt>
      <trkpt lat="43.98553" lon="7.23291">
        <ele>1355</ele>
        <time>2018-05-13T07:26:57.000Z</time>
      </trkpt>
      <trkpt lat="43.98551" lon="7.23296">
        <ele>1355</ele>
        <time>2018-05-13T07:26:58.000Z</time>
      </trkpt>
      <trkpt lat="43.98548" lon="7.233">
        <ele>1355</ele>
        <time>2018-05-13T07:26:59.000Z</time>
      </trkpt>
      <trkpt lat="43.98541" lon="7.23317">
        <ele>1355</ele>
        <time>2018-05-13T07:27:03.000Z</time>
      </trkpt>
      <trkpt lat="43.98533" lon="7.23333">
        <ele>1357</ele>
        <time>2018-05-13T07:27:08.000Z</time>
      </trkpt>
      <trkpt lat="43.98521" lon="7.23345">
        <ele>1355</ele>
        <time>2018-05-13T07:27:12.000Z</time>
      </trkpt>
      <trkpt lat="43.98509" lon="7.23355">
        <ele>1355</ele>
        <time>2018-05-13T07:27:17.000Z</time>
      </trkpt>
      <trkpt lat="43.985" lon="7.23363">
        <ele>1355</ele>
        <time>2018-05-13T07:27:21.000Z</time>
      </trkpt>
      <trkpt lat="43.98496" lon="7.23369">
        <ele>1371</ele>
        <time>2018-05-13T07:27:23.000Z</time>
      </trkpt>
      <trkpt lat="43.98494" lon="7.23372">
        <ele>1371</ele>
        <time>2018-05-13T07:27:26.000Z</time>
      </trkpt>
      <trkpt lat="43.98493" lon="7.23373">
        <ele>1371</ele>
        <time>2018-05-13T07:27:27.000Z</time>
      </trkpt>
      <trkpt lat="43.98489" lon="7.23378">
        <ele>1372</ele>
        <time>2018-05-13T07:27:31.000Z</time>
      </trkpt>
      <trkpt lat="43.98488" lon="7.23379">
        <ele>1371</ele>
        <time>2018-05-13T07:27:32.000Z</time>
      </trkpt>
      <trkpt lat="43.98486" lon="7.23382">
        <ele>1371</ele>
        <time>2018-05-13T07:27:35.000Z</time>
      </trkpt>
      <trkpt lat="43.98485" lon="7.23383">
        <ele>1371</ele>
        <time>2018-05-13T07:27:36.000Z</time>
      </trkpt>
      <trkpt lat="43.98482" lon="7.23386">
        <ele>1371</ele>
        <time>2018-05-13T07:27:40.000Z</time>
      </trkpt>
      <trkpt lat="43.98481" lon="7.23388">
        <ele>1371</ele>
        <time>2018-05-13T07:27:42.000Z</time>
      </trkpt>
      <trkpt lat="43.98479" lon="7.23389">
        <ele>1372</ele>
        <time>2018-05-13T07:27:43.000Z</time>
      </trkpt>
      <trkpt lat="43.98477" lon="7.23391">
        <ele>1372</ele>
        <time>2018-05-13T07:27:46.000Z</time>
      </trkpt>
      <trkpt lat="43.98475" lon="7.23393">
        <ele>1372</ele>
        <time>2018-05-13T07:27:48.000Z</time>
      </trkpt>
      <trkpt lat="43.98473" lon="7.23395">
        <ele>1372</ele>
        <time>2018-05-13T07:27:51.000Z</time>
      </trkpt>
      <trkpt lat="43.9847" lon="7.23398">
        <ele>1373</ele>
        <time>2018-05-13T07:27:56.000Z</time>
      </trkpt>
      <trkpt lat="43.98469" lon="7.23399">
        <ele>1373</ele>
        <time>2018-05-13T07:27:57.000Z</time>
      </trkpt>
      <trkpt lat="43.98465" lon="7.23402">
        <ele>1373</ele>
        <time>2018-05-13T07:28:01.000Z</time>
      </trkpt>
      <trkpt lat="43.98463" lon="7.23404">
        <ele>1374</ele>
        <time>2018-05-13T07:28:04.000Z</time>
      </trkpt>
      <trkpt lat="43.98462" lon="7.23404">
        <ele>1374</ele>
        <time>2018-05-13T07:28:05.000Z</time>
      </trkpt>
      <trkpt lat="43.9846" lon="7.23408">
        <ele>1375</ele>
        <time>2018-05-13T07:28:11.000Z</time>
      </trkpt>
      <trkpt lat="43.98457" lon="7.23413">
        <ele>1375</ele>
        <time>2018-05-13T07:28:17.000Z</time>
      </trkpt>
      <trkpt lat="43.98454" lon="7.23417">
        <ele>1369</ele>
        <time>2018-05-13T07:28:21.000Z</time>
      </trkpt>
      <trkpt lat="43.98454" lon="7.23416">
        <ele>1376</ele>
        <time>2018-05-13T07:28:23.000Z</time>
      </trkpt>
      <trkpt lat="43.98452" lon="7.23418">
        <ele>1370</ele>
        <time>2018-05-13T07:28:26.000Z</time>
      </trkpt>
      <trkpt lat="43.98452" lon="7.23419">
        <ele>1370</ele>
        <time>2018-05-13T07:28:27.000Z</time>
      </trkpt>
      <trkpt lat="43.98448" lon="7.23426">
        <ele>1370</ele>
        <time>2018-05-13T07:28:32.000Z</time>
      </trkpt>
      <trkpt lat="43.98445" lon="7.23434">
        <ele>1371</ele>
        <time>2018-05-13T07:28:37.000Z</time>
      </trkpt>
      <trkpt lat="43.98444" lon="7.23438">
        <ele>1370</ele>
        <time>2018-05-13T07:28:39.000Z</time>
      </trkpt>
      <trkpt lat="43.9844" lon="7.23447">
        <ele>1370</ele>
        <time>2018-05-13T07:28:45.000Z</time>
      </trkpt>
      <trkpt lat="43.98439" lon="7.2345">
        <ele>1370</ele>
        <time>2018-05-13T07:28:47.000Z</time>
      </trkpt>
      <trkpt lat="43.98435" lon="7.23458">
        <ele>1369</ele>
        <time>2018-05-13T07:28:51.000Z</time>
      </trkpt>
      <trkpt lat="43.98432" lon="7.23462">
        <ele>1369</ele>
        <time>2018-05-13T07:28:53.000Z</time>
      </trkpt>
      <trkpt lat="43.9843" lon="7.23463">
        <ele>1370</ele>
        <time>2018-05-13T07:28:54.000Z</time>
      </trkpt>
      <trkpt lat="43.98416" lon="7.23472">
        <ele>1385</ele>
        <time>2018-05-13T07:29:01.000Z</time>
      </trkpt>
      <trkpt lat="43.98406" lon="7.23476">
        <ele>1385</ele>
        <time>2018-05-13T07:29:05.000Z</time>
      </trkpt>
      <trkpt lat="43.98403" lon="7.23478">
        <ele>1385</ele>
        <time>2018-05-13T07:29:06.000Z</time>
      </trkpt>
      <trkpt lat="43.9839" lon="7.23487">
        <ele>1386</ele>
        <time>2018-05-13T07:29:10.000Z</time>
      </trkpt>
      <trkpt lat="43.98376" lon="7.23498">
        <ele>1388</ele>
        <time>2018-05-13T07:29:15.000Z</time>
      </trkpt>
      <trkpt lat="43.98366" lon="7.23506">
        <ele>1376</ele>
        <time>2018-05-13T07:29:19.000Z</time>
      </trkpt>
      <trkpt lat="43.98356" lon="7.23512">
        <ele>1378</ele>
        <time>2018-05-13T07:29:23.000Z</time>
      </trkpt>
      <trkpt lat="43.9834" lon="7.23526">
        <ele>1377</ele>
        <time>2018-05-13T07:29:28.000Z</time>
      </trkpt>
      <trkpt lat="43.98324" lon="7.23536">
        <ele>1385</ele>
        <time>2018-05-13T07:29:33.000Z</time>
      </trkpt>
      <trkpt lat="43.98305" lon="7.23545">
        <ele>1384</ele>
        <time>2018-05-13T07:29:39.000Z</time>
      </trkpt>
      <trkpt lat="43.98292" lon="7.23553">
        <ele>1384</ele>
        <time>2018-05-13T07:29:42.000Z</time>
      </trkpt>
      <trkpt lat="43.98287" lon="7.23556">
        <ele>1384</ele>
        <time>2018-05-13T07:29:43.000Z</time>
      </trkpt>
      <trkpt lat="43.98279" lon="7.23562">
        <ele>1384</ele>
        <time>2018-05-13T07:29:45.000Z</time>
      </trkpt>
      <trkpt lat="43.98275" lon="7.23566">
        <ele>1383</ele>
        <time>2018-05-13T07:29:46.000Z</time>
      </trkpt>
      <trkpt lat="43.98261" lon="7.23578">
        <ele>1381</ele>
        <time>2018-05-13T07:29:50.000Z</time>
      </trkpt>
      <trkpt lat="43.98247" lon="7.23587">
        <ele>1376</ele>
        <time>2018-05-13T07:29:55.000Z</time>
      </trkpt>
      <trkpt lat="43.98245" lon="7.23587">
        <ele>1375</ele>
        <time>2018-05-13T07:29:56.000Z</time>
      </trkpt>
      <trkpt lat="43.98236" lon="7.23593">
        <ele>1372</ele>
        <time>2018-05-13T07:30:00.000Z</time>
      </trkpt>
      <trkpt lat="43.98233" lon="7.23596">
        <ele>1371</ele>
        <time>2018-05-13T07:30:02.000Z</time>
      </trkpt>
      <trkpt lat="43.98224" lon="7.23597">
        <ele>1370</ele>
        <time>2018-05-13T07:30:06.000Z</time>
      </trkpt>
      <trkpt lat="43.9821" lon="7.23596">
        <ele>1370</ele>
        <time>2018-05-13T07:30:12.000Z</time>
      </trkpt>
      <trkpt lat="43.98204" lon="7.23595">
        <ele>1370</ele>
        <time>2018-05-13T07:30:15.000Z</time>
      </trkpt>
      <trkpt lat="43.98196" lon="7.23592">
        <ele>1371</ele>
        <time>2018-05-13T07:30:19.000Z</time>
      </trkpt>
      <trkpt lat="43.98195" lon="7.23591">
        <ele>1372</ele>
        <time>2018-05-13T07:30:20.000Z</time>
      </trkpt>
      <trkpt lat="43.98187" lon="7.23588">
        <ele>1374</ele>
        <time>2018-05-13T07:30:24.000Z</time>
      </trkpt>
      <trkpt lat="43.98185" lon="7.23585">
        <ele>1375</ele>
        <time>2018-05-13T07:30:26.000Z</time>
      </trkpt>
      <trkpt lat="43.98175" lon="7.23572">
        <ele>1389</ele>
        <time>2018-05-13T07:30:31.000Z</time>
      </trkpt>
      <trkpt lat="43.98164" lon="7.23563">
        <ele>1388</ele>
        <time>2018-05-13T07:30:36.000Z</time>
      </trkpt>
      <trkpt lat="43.98155" lon="7.23563">
        <ele>1388</ele>
        <time>2018-05-13T07:30:40.000Z</time>
      </trkpt>
      <trkpt lat="43.98145" lon="7.2356">
        <ele>1388</ele>
        <time>2018-05-13T07:30:44.000Z</time>
      </trkpt>
      <trkpt lat="43.98139" lon="7.23558">
        <ele>1388</ele>
        <time>2018-05-13T07:30:46.000Z</time>
      </trkpt>
      <trkpt lat="43.98125" lon="7.2355">
        <ele>1388</ele>
        <time>2018-05-13T07:30:52.000Z</time>
      </trkpt>
      <trkpt lat="43.98123" lon="7.23549">
        <ele>1388</ele>
        <time>2018-05-13T07:30:53.000Z</time>
      </trkpt>
      <trkpt lat="43.98114" lon="7.23544">
        <ele>1388</ele>
        <time>2018-05-13T07:30:57.000Z</time>
      </trkpt>
      <trkpt lat="43.98102" lon="7.23538">
        <ele>1389</ele>
        <time>2018-05-13T07:31:02.000Z</time>
      </trkpt>
      <trkpt lat="43.981" lon="7.23537">
        <ele>1389</ele>
        <time>2018-05-13T07:31:03.000Z</time>
      </trkpt>
      <trkpt lat="43.98084" lon="7.23521">
        <ele>1391</ele>
        <time>2018-05-13T07:31:10.000Z</time>
      </trkpt>
      <trkpt lat="43.98075" lon="7.23506">
        <ele>1388</ele>
        <time>2018-05-13T07:31:14.000Z</time>
      </trkpt>
      <trkpt lat="43.98069" lon="7.235">
        <ele>1396</ele>
        <time>2018-05-13T07:31:17.000Z</time>
      </trkpt>
      <trkpt lat="43.98067" lon="7.23497">
        <ele>1395</ele>
        <time>2018-05-13T07:31:18.000Z</time>
      </trkpt>
      <trkpt lat="43.98056" lon="7.23489">
        <ele>1395</ele>
        <time>2018-05-13T07:31:22.000Z</time>
      </trkpt>
      <trkpt lat="43.98046" lon="7.23482">
        <ele>1394</ele>
        <time>2018-05-13T07:31:27.000Z</time>
      </trkpt>
      <trkpt lat="43.9804" lon="7.23478">
        <ele>1394</ele>
        <time>2018-05-13T07:31:30.000Z</time>
      </trkpt>
      <trkpt lat="43.98029" lon="7.23471">
        <ele>1393</ele>
        <time>2018-05-13T07:31:34.000Z</time>
      </trkpt>
      <trkpt lat="43.9802" lon="7.23466">
        <ele>1393</ele>
        <time>2018-05-13T07:31:38.000Z</time>
      </trkpt>
      <trkpt lat="43.98018" lon="7.23463">
        <ele>1394</ele>
        <time>2018-05-13T07:31:40.000Z</time>
      </trkpt>
      <trkpt lat="43.98012" lon="7.23459">
        <ele>1394</ele>
        <time>2018-05-13T07:31:43.000Z</time>
      </trkpt>
      <trkpt lat="43.98007" lon="7.23455">
        <ele>1395</ele>
        <time>2018-05-13T07:31:46.000Z</time>
      </trkpt>
      <trkpt lat="43.97998" lon="7.2345">
        <ele>1389</ele>
        <time>2018-05-13T07:31:51.000Z</time>
      </trkpt>
      <trkpt lat="43.97997" lon="7.23449">
        <ele>1389</ele>
        <time>2018-05-13T07:31:52.000Z</time>
      </trkpt>
      <trkpt lat="43.97992" lon="7.23443">
        <ele>1391</ele>
        <time>2018-05-13T07:31:55.000Z</time>
      </trkpt>
      <trkpt lat="43.9799" lon="7.23441">
        <ele>1391</ele>
        <time>2018-05-13T07:31:56.000Z</time>
      </trkpt>
      <trkpt lat="43.97988" lon="7.23438">
        <ele>1392</ele>
        <time>2018-05-13T07:31:59.000Z</time>
      </trkpt>
      <trkpt lat="43.97986" lon="7.23437">
        <ele>1392</ele>
        <time>2018-05-13T07:32:00.000Z</time>
      </trkpt>
      <trkpt lat="43.97976" lon="7.2343">
        <ele>1391</ele>
        <time>2018-05-13T07:32:04.000Z</time>
      </trkpt>
      <trkpt lat="43.97973" lon="7.23429">
        <ele>1391</ele>
        <time>2018-05-13T07:32:05.000Z</time>
      </trkpt>
      <trkpt lat="43.97958" lon="7.23425">
        <ele>1390</ele>
        <time>2018-05-13T07:32:10.000Z</time>
      </trkpt>
      <trkpt lat="43.97946" lon="7.23422">
        <ele>1389</ele>
        <time>2018-05-13T07:32:15.000Z</time>
      </trkpt>
      <trkpt lat="43.97943" lon="7.23424">
        <ele>1389</ele>
        <time>2018-05-13T07:32:16.000Z</time>
      </trkpt>
      <trkpt lat="43.97936" lon="7.2342">
        <ele>1390</ele>
        <time>2018-05-13T07:32:18.000Z</time>
      </trkpt>
      <trkpt lat="43.97933" lon="7.23421">
        <ele>1390</ele>
        <time>2018-05-13T07:32:20.000Z</time>
      </trkpt>
      <trkpt lat="43.9793" lon="7.23423">
        <ele>1390</ele>
        <time>2018-05-13T07:32:21.000Z</time>
      </trkpt>
      <trkpt lat="43.97925" lon="7.23427">
        <ele>1390</ele>
        <time>2018-05-13T07:32:23.000Z</time>
      </trkpt>
      <trkpt lat="43.97918" lon="7.23427">
        <ele>1390</ele>
        <time>2018-05-13T07:32:25.000Z</time>
      </trkpt>
      <trkpt lat="43.97914" lon="7.23426">
        <ele>1392</ele>
        <time>2018-05-13T07:32:28.000Z</time>
      </trkpt>
      <trkpt lat="43.97911" lon="7.23428">
        <ele>1392</ele>
        <time>2018-05-13T07:32:30.000Z</time>
      </trkpt>
      <trkpt lat="43.9791" lon="7.2343">
        <ele>1392</ele>
        <time>2018-05-13T07:32:31.000Z</time>
      </trkpt>
      <trkpt lat="43.97904" lon="7.23431">
        <ele>1392</ele>
        <time>2018-05-13T07:32:33.000Z</time>
      </trkpt>
      <trkpt lat="43.97899" lon="7.23434">
        <ele>1392</ele>
        <time>2018-05-13T07:32:35.000Z</time>
      </trkpt>
      <trkpt lat="43.97895" lon="7.23437">
        <ele>1392</ele>
        <time>2018-05-13T07:32:37.000Z</time>
      </trkpt>
      <trkpt lat="43.97887" lon="7.23444">
        <ele>1392</ele>
        <time>2018-05-13T07:32:41.000Z</time>
      </trkpt>
      <trkpt lat="43.97885" lon="7.23445">
        <ele>1392</ele>
        <time>2018-05-13T07:32:42.000Z</time>
      </trkpt>
      <trkpt lat="43.9787" lon="7.23454">
        <ele>1392</ele>
        <time>2018-05-13T07:32:49.000Z</time>
      </trkpt>
      <trkpt lat="43.97862" lon="7.23459">
        <ele>1392</ele>
        <time>2018-05-13T07:32:54.000Z</time>
      </trkpt>
      <trkpt lat="43.9785" lon="7.23468">
        <ele>1392</ele>
        <time>2018-05-13T07:33:00.000Z</time>
      </trkpt>
      <trkpt lat="43.97848" lon="7.23468">
        <ele>1392</ele>
        <time>2018-05-13T07:33:01.000Z</time>
      </trkpt>
      <trkpt lat="43.97842" lon="7.23469">
        <ele>1392</ele>
        <time>2018-05-13T07:33:03.000Z</time>
      </trkpt>
      <trkpt lat="43.97836" lon="7.23472">
        <ele>1392</ele>
        <time>2018-05-13T07:33:05.000Z</time>
      </trkpt>
      <trkpt lat="43.97826" lon="7.23478">
        <ele>1403</ele>
        <time>2018-05-13T07:33:08.000Z</time>
      </trkpt>
      <trkpt lat="43.97823" lon="7.23479">
        <ele>1403</ele>
        <time>2018-05-13T07:33:09.000Z</time>
      </trkpt>
      <trkpt lat="43.97816" lon="7.23483">
        <ele>1403</ele>
        <time>2018-05-13T07:33:11.000Z</time>
      </trkpt>
      <trkpt lat="43.97811" lon="7.23484">
        <ele>1405</ele>
        <time>2018-05-13T07:33:13.000Z</time>
      </trkpt>
      <trkpt lat="43.97792" lon="7.23495">
        <ele>1408</ele>
        <time>2018-05-13T07:33:20.000Z</time>
      </trkpt>
      <trkpt lat="43.97777" lon="7.23506">
        <ele>1397</ele>
        <time>2018-05-13T07:33:25.000Z</time>
      </trkpt>
      <trkpt lat="43.97762" lon="7.23522">
        <ele>1398</ele>
        <time>2018-05-13T07:33:30.000Z</time>
      </trkpt>
      <trkpt lat="43.97759" lon="7.23532">
        <ele>1396</ele>
        <time>2018-05-13T07:33:33.000Z</time>
      </trkpt>
      <trkpt lat="43.97754" lon="7.23542">
        <ele>1394</ele>
        <time>2018-05-13T07:33:37.000Z</time>
      </trkpt>
      <trkpt lat="43.97751" lon="7.23548">
        <ele>1393</ele>
        <time>2018-05-13T07:33:40.000Z</time>
      </trkpt>
      <trkpt lat="43.97749" lon="7.23551">
        <ele>1414</ele>
        <time>2018-05-13T07:33:42.000Z</time>
      </trkpt>
      <trkpt lat="43.97748" lon="7.23556">
        <ele>1413</ele>
        <time>2018-05-13T07:33:44.000Z</time>
      </trkpt>
      <trkpt lat="43.97747" lon="7.23557">
        <ele>1412</ele>
        <time>2018-05-13T07:33:45.000Z</time>
      </trkpt>
      <trkpt lat="43.97746" lon="7.23559">
        <ele>1412</ele>
        <time>2018-05-13T07:33:46.000Z</time>
      </trkpt>
      <trkpt lat="43.97742" lon="7.23566">
        <ele>1410</ele>
        <time>2018-05-13T07:33:51.000Z</time>
      </trkpt>
      <trkpt lat="43.97738" lon="7.23576">
        <ele>1407</ele>
        <time>2018-05-13T07:33:56.000Z</time>
      </trkpt>
      <trkpt lat="43.97737" lon="7.23578">
        <ele>1407</ele>
        <time>2018-05-13T07:33:57.000Z</time>
      </trkpt>
      <trkpt lat="43.97731" lon="7.23588">
        <ele>1402</ele>
        <time>2018-05-13T07:34:04.000Z</time>
      </trkpt>
      <trkpt lat="43.97731" lon="7.2359">
        <ele>1402</ele>
        <time>2018-05-13T07:34:05.000Z</time>
      </trkpt>
      <trkpt lat="43.97727" lon="7.23592">
        <ele>1403</ele>
        <time>2018-05-13T07:34:08.000Z</time>
      </trkpt>
      <trkpt lat="43.97727" lon="7.23593">
        <ele>1403</ele>
        <time>2018-05-13T07:34:09.000Z</time>
      </trkpt>
      <trkpt lat="43.97726" lon="7.23594">
        <ele>1404</ele>
        <time>2018-05-13T07:34:13.000Z</time>
      </trkpt>
      <trkpt lat="43.97725" lon="7.23594">
        <ele>1404</ele>
        <time>2018-05-13T07:34:15.000Z</time>
      </trkpt>
      <trkpt lat="43.97724" lon="7.23593">
        <ele>1404</ele>
        <time>2018-05-13T07:34:20.000Z</time>
      </trkpt>
      <trkpt lat="43.97724" lon="7.23594">
        <ele>1404</ele>
        <time>2018-05-13T07:34:27.000Z</time>
      </trkpt>
      <trkpt lat="43.97725" lon="7.23595">
        <ele>1404</ele>
        <time>2018-05-13T07:34:32.000Z</time>
      </trkpt>
      <trkpt lat="43.97725" lon="7.23596">
        <ele>1404</ele>
        <time>2018-05-13T07:34:41.000Z</time>
      </trkpt>
      <trkpt lat="43.97726" lon="7.23596">
        <ele>1404</ele>
        <time>2018-05-13T07:34:48.000Z</time>
      </trkpt>
      <trkpt lat="43.97727" lon="7.23595">
        <ele>1403</ele>
        <time>2018-05-13T07:34:51.000Z</time>
      </trkpt>
      <trkpt lat="43.97727" lon="7.23596">
        <ele>1404</ele>
        <time>2018-05-13T07:34:53.000Z</time>
      </trkpt>
      <trkpt lat="43.97724" lon="7.23598">
        <ele>1404</ele>
        <time>2018-05-13T07:35:05.000Z</time>
      </trkpt>
      <trkpt lat="43.97724" lon="7.23599">
        <ele>1404</ele>
        <time>2018-05-13T07:35:12.000Z</time>
      </trkpt>
      <trkpt lat="43.97723" lon="7.236">
        <ele>1405</ele>
        <time>2018-05-13T07:35:21.000Z</time>
      </trkpt>
      <trkpt lat="43.97724" lon="7.23601">
        <ele>1404</ele>
        <time>2018-05-13T07:35:32.000Z</time>
      </trkpt>
      <trkpt lat="43.97724" lon="7.23601">
        <ele>1404</ele>
        <time>2018-05-13T07:35:41.000Z</time>
      </trkpt>
      <trkpt lat="43.97724" lon="7.23599">
        <ele>1404</ele>
        <time>2018-05-13T07:35:49.000Z</time>
      </trkpt>
      <trkpt lat="43.97724" lon="7.236">
        <ele>1404</ele>
        <time>2018-05-13T07:36:00.000Z</time>
      </trkpt>
      <trkpt lat="43.9772" lon="7.23608">
        <ele>1405</ele>
        <time>2018-05-13T07:36:07.000Z</time>
      </trkpt>
      <trkpt lat="43.97715" lon="7.23614">
        <ele>1406</ele>
        <time>2018-05-13T07:36:13.000Z</time>
      </trkpt>
      <trkpt lat="43.97712" lon="7.23616">
        <ele>1407</ele>
        <time>2018-05-13T07:36:16.000Z</time>
      </trkpt>
      <trkpt lat="43.97711" lon="7.23617">
        <ele>1407</ele>
        <time>2018-05-13T07:36:17.000Z</time>
      </trkpt>
      <trkpt lat="43.97707" lon="7.23623">
        <ele>1407</ele>
        <time>2018-05-13T07:36:23.000Z</time>
      </trkpt>
      <trkpt lat="43.97707" lon="7.23623">
        <ele>1407</ele>
        <time>2018-05-13T07:36:24.000Z</time>
      </trkpt>
      <trkpt lat="43.97704" lon="7.23627">
        <ele>1408</ele>
        <time>2018-05-13T07:36:29.000Z</time>
      </trkpt>
      <trkpt lat="43.97703" lon="7.23628">
        <ele>1408</ele>
        <time>2018-05-13T07:36:30.000Z</time>
      </trkpt>
      <trkpt lat="43.97699" lon="7.23634">
        <ele>1408</ele>
        <time>2018-05-13T07:36:35.000Z</time>
      </trkpt>
      <trkpt lat="43.97696" lon="7.2364">
        <ele>1408</ele>
        <time>2018-05-13T07:36:39.000Z</time>
      </trkpt>
      <trkpt lat="43.97693" lon="7.23644">
        <ele>1409</ele>
        <time>2018-05-13T07:36:42.000Z</time>
      </trkpt>
      <trkpt lat="43.97691" lon="7.23647">
        <ele>1409</ele>
        <time>2018-05-13T07:36:44.000Z</time>
      </trkpt>
      <trkpt lat="43.97686" lon="7.23653">
        <ele>1410</ele>
        <time>2018-05-13T07:36:48.000Z</time>
      </trkpt>
      <trkpt lat="43.97684" lon="7.23656">
        <ele>1411</ele>
        <time>2018-05-13T07:36:50.000Z</time>
      </trkpt>
      <trkpt lat="43.97681" lon="7.23659">
        <ele>1412</ele>
        <time>2018-05-13T07:36:53.000Z</time>
      </trkpt>
      <trkpt lat="43.97681" lon="7.2366">
        <ele>1412</ele>
        <time>2018-05-13T07:36:54.000Z</time>
      </trkpt>
      <trkpt lat="43.97674" lon="7.23667">
        <ele>1408</ele>
        <time>2018-05-13T07:37:00.000Z</time>
      </trkpt>
      <trkpt lat="43.97674" lon="7.23668">
        <ele>1409</ele>
        <time>2018-05-13T07:37:01.000Z</time>
      </trkpt>
      <trkpt lat="43.97669" lon="7.23671">
        <ele>1411</ele>
        <time>2018-05-13T07:37:05.000Z</time>
      </trkpt>
      <trkpt lat="43.97668" lon="7.23671">
        <ele>1411</ele>
        <time>2018-05-13T07:37:06.000Z</time>
      </trkpt>
      <trkpt lat="43.97663" lon="7.23672">
        <ele>1413</ele>
        <time>2018-05-13T07:37:11.000Z</time>
      </trkpt>
      <trkpt lat="43.97662" lon="7.23673">
        <ele>1412</ele>
        <time>2018-05-13T07:37:12.000Z</time>
      </trkpt>
      <trkpt lat="43.97655" lon="7.23674">
        <ele>1410</ele>
        <time>2018-05-13T07:37:17.000Z</time>
      </trkpt>
      <trkpt lat="43.97654" lon="7.23673">
        <ele>1409</ele>
        <time>2018-05-13T07:37:18.000Z</time>
      </trkpt>
      <trkpt lat="43.97648" lon="7.23671">
        <ele>1408</ele>
        <time>2018-05-13T07:37:23.000Z</time>
      </trkpt>
      <trkpt lat="43.97647" lon="7.23671">
        <ele>1408</ele>
        <time>2018-05-13T07:37:24.000Z</time>
      </trkpt>
      <trkpt lat="43.97645" lon="7.2367">
        <ele>1408</ele>
        <time>2018-05-13T07:37:25.000Z</time>
      </trkpt>
      <trkpt lat="43.97636" lon="7.23667">
        <ele>1406</ele>
        <time>2018-05-13T07:37:31.000Z</time>
      </trkpt>
      <trkpt lat="43.97626" lon="7.23661">
        <ele>1427</ele>
        <time>2018-05-13T07:37:36.000Z</time>
      </trkpt>
      <trkpt lat="43.97611" lon="7.23654">
        <ele>1428</ele>
        <time>2018-05-13T07:37:43.000Z</time>
      </trkpt>
      <trkpt lat="43.97604" lon="7.23653">
        <ele>1427</ele>
        <time>2018-05-13T07:37:45.000Z</time>
      </trkpt>
      <trkpt lat="43.97599" lon="7.2365">
        <ele>1428</ele>
        <time>2018-05-13T07:37:47.000Z</time>
      </trkpt>
      <trkpt lat="43.97597" lon="7.23651">
        <ele>1427</ele>
        <time>2018-05-13T07:37:48.000Z</time>
      </trkpt>
      <trkpt lat="43.97591" lon="7.23656">
        <ele>1425</ele>
        <time>2018-05-13T07:37:50.000Z</time>
      </trkpt>
      <trkpt lat="43.97579" lon="7.23663">
        <ele>1422</ele>
        <time>2018-05-13T07:37:54.000Z</time>
      </trkpt>
      <trkpt lat="43.97574" lon="7.23668">
        <ele>1412</ele>
        <time>2018-05-13T07:37:56.000Z</time>
      </trkpt>
      <trkpt lat="43.97566" lon="7.2367">
        <ele>1409</ele>
        <time>2018-05-13T07:37:59.000Z</time>
      </trkpt>
      <trkpt lat="43.97564" lon="7.23669">
        <ele>1409</ele>
        <time>2018-05-13T07:38:00.000Z</time>
      </trkpt>
      <trkpt lat="43.97557" lon="7.23669">
        <ele>1407</ele>
        <time>2018-05-13T07:38:03.000Z</time>
      </trkpt>
      <trkpt lat="43.97554" lon="7.23668">
        <ele>1407</ele>
        <time>2018-05-13T07:38:04.000Z</time>
      </trkpt>
      <trkpt lat="43.97541" lon="7.23671">
        <ele>1406</ele>
        <time>2018-05-13T07:38:08.000Z</time>
      </trkpt>
      <trkpt lat="43.97535" lon="7.23674">
        <ele>1407</ele>
        <time>2018-05-13T07:38:10.000Z</time>
      </trkpt>
      <trkpt lat="43.97522" lon="7.23678">
        <ele>1408</ele>
        <time>2018-05-13T07:38:14.000Z</time>
      </trkpt>
      <trkpt lat="43.97504" lon="7.23685">
        <ele>1410</ele>
        <time>2018-05-13T07:38:20.000Z</time>
      </trkpt>
      <trkpt lat="43.97493" lon="7.23691">
        <ele>1412</ele>
        <time>2018-05-13T07:38:24.000Z</time>
      </trkpt>
      <trkpt lat="43.97483" lon="7.23692">
        <ele>1411</ele>
        <time>2018-05-13T07:38:27.000Z</time>
      </trkpt>
      <trkpt lat="43.9748" lon="7.23693">
        <ele>1411</ele>
        <time>2018-05-13T07:38:28.000Z</time>
      </trkpt>
      <trkpt lat="43.97461" lon="7.237">
        <ele>1410</ele>
        <time>2018-05-13T07:38:34.000Z</time>
      </trkpt>
      <trkpt lat="43.97455" lon="7.23701">
        <ele>1410</ele>
        <time>2018-05-13T07:38:38.000Z</time>
      </trkpt>
      <trkpt lat="43.97447" lon="7.23703">
        <ele>1410</ele>
        <time>2018-05-13T07:38:45.000Z</time>
      </trkpt>
      <trkpt lat="43.97446" lon="7.23704">
        <ele>1410</ele>
        <time>2018-05-13T07:38:46.000Z</time>
      </trkpt>
      <trkpt lat="43.97432" lon="7.23709">
        <ele>1410</ele>
        <time>2018-05-13T07:38:52.000Z</time>
      </trkpt>
      <trkpt lat="43.97429" lon="7.2371">
        <ele>1410</ele>
        <time>2018-05-13T07:38:53.000Z</time>
      </trkpt>
      <trkpt lat="43.9742" lon="7.23714">
        <ele>1409</ele>
        <time>2018-05-13T07:38:57.000Z</time>
      </trkpt>
      <trkpt lat="43.97408" lon="7.23718">
        <ele>1417</ele>
        <time>2018-05-13T07:39:02.000Z</time>
      </trkpt>
      <trkpt lat="43.97398" lon="7.2372">
        <ele>1417</ele>
        <time>2018-05-13T07:39:06.000Z</time>
      </trkpt>
      <trkpt lat="43.97395" lon="7.23719">
        <ele>1418</ele>
        <time>2018-05-13T07:39:07.000Z</time>
      </trkpt>
      <trkpt lat="43.97384" lon="7.23718">
        <ele>1419</ele>
        <time>2018-05-13T07:39:10.000Z</time>
      </trkpt>
      <trkpt lat="43.97378" lon="7.23717">
        <ele>1420</ele>
        <time>2018-05-13T07:39:12.000Z</time>
      </trkpt>
      <trkpt lat="43.97375" lon="7.23716">
        <ele>1421</ele>
        <time>2018-05-13T07:39:13.000Z</time>
      </trkpt>
      <trkpt lat="43.9737" lon="7.23716">
        <ele>1421</ele>
        <time>2018-05-13T07:39:15.000Z</time>
      </trkpt>
      <trkpt lat="43.97367" lon="7.23719">
        <ele>1421</ele>
        <time>2018-05-13T07:39:17.000Z</time>
      </trkpt>
      <trkpt lat="43.97362" lon="7.23723">
        <ele>1420</ele>
        <time>2018-05-13T07:39:22.000Z</time>
      </trkpt>
      <trkpt lat="43.97357" lon="7.23726">
        <ele>1420</ele>
        <time>2018-05-13T07:39:28.000Z</time>
      </trkpt>
      <trkpt lat="43.97354" lon="7.23728">
        <ele>1420</ele>
        <time>2018-05-13T07:39:31.000Z</time>
      </trkpt>
      <trkpt lat="43.97353" lon="7.23729">
        <ele>1420</ele>
        <time>2018-05-13T07:39:32.000Z</time>
      </trkpt>
      <trkpt lat="43.97349" lon="7.23733">
        <ele>1419</ele>
        <time>2018-05-13T07:39:36.000Z</time>
      </trkpt>
      <trkpt lat="43.97347" lon="7.23734">
        <ele>1419</ele>
        <time>2018-05-13T07:39:37.000Z</time>
      </trkpt>
      <trkpt lat="43.9734" lon="7.23739">
        <ele>1417</ele>
        <time>2018-05-13T07:39:44.000Z</time>
      </trkpt>
      <trkpt lat="43.97338" lon="7.23739">
        <ele>1417</ele>
        <time>2018-05-13T07:39:46.000Z</time>
      </trkpt>
      <trkpt lat="43.97332" lon="7.23741">
        <ele>1425</ele>
        <time>2018-05-13T07:39:51.000Z</time>
      </trkpt>
      <trkpt lat="43.97328" lon="7.23742">
        <ele>1426</ele>
        <time>2018-05-13T07:39:55.000Z</time>
      </trkpt>
      <trkpt lat="43.97327" lon="7.23743">
        <ele>1425</ele>
        <time>2018-05-13T07:39:56.000Z</time>
      </trkpt>
      <trkpt lat="43.97326" lon="7.23744">
        <ele>1425</ele>
        <time>2018-05-13T07:39:57.000Z</time>
      </trkpt>
      <trkpt lat="43.97325" lon="7.23745">
        <ele>1425</ele>
        <time>2018-05-13T07:40:03.000Z</time>
      </trkpt>
      <trkpt lat="43.97323" lon="7.23749">
        <ele>1426</ele>
        <time>2018-05-13T07:40:08.000Z</time>
      </trkpt>
      <trkpt lat="43.97319" lon="7.23755">
        <ele>1418</ele>
        <time>2018-05-13T07:40:11.000Z</time>
      </trkpt>
      <trkpt lat="43.97317" lon="7.23755">
        <ele>1418</ele>
        <time>2018-05-13T07:40:12.000Z</time>
      </trkpt>
      <trkpt lat="43.97313" lon="7.23756">
        <ele>1419</ele>
        <time>2018-05-13T07:40:14.000Z</time>
      </trkpt>
      <trkpt lat="43.9731" lon="7.23759">
        <ele>1420</ele>
        <time>2018-05-13T07:40:16.000Z</time>
      </trkpt>
      <trkpt lat="43.97308" lon="7.2377">
        <ele>1420</ele>
        <time>2018-05-13T07:40:20.000Z</time>
      </trkpt>
      <trkpt lat="43.97307" lon="7.23773">
        <ele>1420</ele>
        <time>2018-05-13T07:40:21.000Z</time>
      </trkpt>
      <trkpt lat="43.97304" lon="7.23796">
        <ele>1417</ele>
        <time>2018-05-13T07:40:25.000Z</time>
      </trkpt>
      <trkpt lat="43.973" lon="7.23821">
        <ele>1414</ele>
        <time>2018-05-13T07:40:28.000Z</time>
      </trkpt>
      <trkpt lat="43.97297" lon="7.23828">
        <ele>1414</ele>
        <time>2018-05-13T07:40:29.000Z</time>
      </trkpt>
      <trkpt lat="43.97294" lon="7.23834">
        <ele>1396</ele>
        <time>2018-05-13T07:40:30.000Z</time>
      </trkpt>
      <trkpt lat="43.9729" lon="7.2384">
        <ele>1397</ele>
        <time>2018-05-13T07:40:31.000Z</time>
      </trkpt>
      <trkpt lat="43.97283" lon="7.2385">
        <ele>1398</ele>
        <time>2018-05-13T07:40:33.000Z</time>
      </trkpt>
      <trkpt lat="43.97279" lon="7.23854">
        <ele>1398</ele>
        <time>2018-05-13T07:40:34.000Z</time>
      </trkpt>
      <trkpt lat="43.97271" lon="7.2386">
        <ele>1399</ele>
        <time>2018-05-13T07:40:37.000Z</time>
      </trkpt>
      <trkpt lat="43.97266" lon="7.23863">
        <ele>1399</ele>
        <time>2018-05-13T07:40:39.000Z</time>
      </trkpt>
      <trkpt lat="43.97258" lon="7.23868">
        <ele>1399</ele>
        <time>2018-05-13T07:40:41.000Z</time>
      </trkpt>
      <trkpt lat="43.97255" lon="7.2387">
        <ele>1398</ele>
        <time>2018-05-13T07:40:42.000Z</time>
      </trkpt>
      <trkpt lat="43.97246" lon="7.23878">
        <ele>1413</ele>
        <time>2018-05-13T07:40:45.000Z</time>
      </trkpt>
      <trkpt lat="43.9724" lon="7.23883">
        <ele>1412</ele>
        <time>2018-05-13T07:40:47.000Z</time>
      </trkpt>
      <trkpt lat="43.97237" lon="7.23885">
        <ele>1411</ele>
        <time>2018-05-13T07:40:48.000Z</time>
      </trkpt>
      <trkpt lat="43.97219" lon="7.23902">
        <ele>1411</ele>
        <time>2018-05-13T07:40:54.000Z</time>
      </trkpt>
      <trkpt lat="43.97203" lon="7.23914">
        <ele>1413</ele>
        <time>2018-05-13T07:40:59.000Z</time>
      </trkpt>
      <trkpt lat="43.97186" lon="7.23921">
        <ele>1394</ele>
        <time>2018-05-13T07:41:04.000Z</time>
      </trkpt>
      <trkpt lat="43.97185" lon="7.23922">
        <ele>1395</ele>
        <time>2018-05-13T07:41:05.000Z</time>
      </trkpt>
      <trkpt lat="43.97177" lon="7.23926">
        <ele>1398</ele>
        <time>2018-05-13T07:41:08.000Z</time>
      </trkpt>
      <trkpt lat="43.97156" lon="7.23932">
        <ele>1398</ele>
        <time>2018-05-13T07:41:14.000Z</time>
      </trkpt>
      <trkpt lat="43.97149" lon="7.23935">
        <ele>1395</ele>
        <time>2018-05-13T07:41:18.000Z</time>
      </trkpt>
      <trkpt lat="43.97146" lon="7.23936">
        <ele>1394</ele>
        <time>2018-05-13T07:41:19.000Z</time>
      </trkpt>
      <trkpt lat="43.97137" lon="7.23936">
        <ele>1392</ele>
        <time>2018-05-13T07:41:23.000Z</time>
      </trkpt>
      <trkpt lat="43.97133" lon="7.23937">
        <ele>1391</ele>
        <time>2018-05-13T07:41:26.000Z</time>
      </trkpt>
      <trkpt lat="43.97133" lon="7.23938">
        <ele>1391</ele>
        <time>2018-05-13T07:41:28.000Z</time>
      </trkpt>
      <trkpt lat="43.9713" lon="7.23939">
        <ele>1390</ele>
        <time>2018-05-13T07:41:30.000Z</time>
      </trkpt>
      <trkpt lat="43.97128" lon="7.23939">
        <ele>1390</ele>
        <time>2018-05-13T07:41:31.000Z</time>
      </trkpt>
      <trkpt lat="43.97125" lon="7.23938">
        <ele>1390</ele>
        <time>2018-05-13T07:41:34.000Z</time>
      </trkpt>
      <trkpt lat="43.97121" lon="7.23937">
        <ele>1390</ele>
        <time>2018-05-13T07:41:38.000Z</time>
      </trkpt>
      <trkpt lat="43.97114" lon="7.23934">
        <ele>1390</ele>
        <time>2018-05-13T07:41:45.000Z</time>
      </trkpt>
      <trkpt lat="43.9711" lon="7.23934">
        <ele>1390</ele>
        <time>2018-05-13T07:41:49.000Z</time>
      </trkpt>
      <trkpt lat="43.97108" lon="7.23931">
        <ele>1390</ele>
        <time>2018-05-13T07:41:52.000Z</time>
      </trkpt>
      <trkpt lat="43.97107" lon="7.23931">
        <ele>1391</ele>
        <time>2018-05-13T07:41:53.000Z</time>
      </trkpt>
      <trkpt lat="43.97106" lon="7.23931">
        <ele>1391</ele>
        <time>2018-05-13T07:41:54.000Z</time>
      </trkpt>
      <trkpt lat="43.97103" lon="7.23928">
        <ele>1391</ele>
        <time>2018-05-13T07:41:58.000Z</time>
      </trkpt>
      <trkpt lat="43.97103" lon="7.23927">
        <ele>1391</ele>
        <time>2018-05-13T07:41:59.000Z</time>
      </trkpt>
      <trkpt lat="43.97102" lon="7.23927">
        <ele>1392</ele>
        <time>2018-05-13T07:42:05.000Z</time>
      </trkpt>
      <trkpt lat="43.97102" lon="7.23927">
        <ele>1392</ele>
        <time>2018-05-13T07:42:11.000Z</time>
      </trkpt>
      <trkpt lat="43.97102" lon="7.23928">
        <ele>1391</ele>
        <time>2018-05-13T07:42:23.000Z</time>
      </trkpt>
      <trkpt lat="43.97102" lon="7.23929">
        <ele>1391</ele>
        <time>2018-05-13T07:42:33.000Z</time>
      </trkpt>
      <trkpt lat="43.97102" lon="7.23929">
        <ele>1391</ele>
        <time>2018-05-13T07:42:34.000Z</time>
      </trkpt>
      <trkpt lat="43.97102" lon="7.23929">
        <ele>1391</ele>
        <time>2018-05-13T07:42:44.000Z</time>
      </trkpt>
      <trkpt lat="43.97102" lon="7.2393">
        <ele>1391</ele>
        <time>2018-05-13T07:42:54.000Z</time>
      </trkpt>
      <trkpt lat="43.97101" lon="7.2393">
        <ele>1391</ele>
        <time>2018-05-13T07:42:59.000Z</time>
      </trkpt>
      <trkpt lat="43.971" lon="7.23929">
        <ele>1391</ele>
        <time>2018-05-13T07:43:07.000Z</time>
      </trkpt>
      <trkpt lat="43.971" lon="7.23928">
        <ele>1392</ele>
        <time>2018-05-13T07:43:08.000Z</time>
      </trkpt>
      <trkpt lat="43.97095" lon="7.23917">
        <ele>1394</ele>
        <time>2018-05-13T07:43:16.000Z</time>
      </trkpt>
      <trkpt lat="43.97094" lon="7.23912">
        <ele>1406</ele>
        <time>2018-05-13T07:43:20.000Z</time>
      </trkpt>
      <trkpt lat="43.97092" lon="7.23909">
        <ele>1406</ele>
        <time>2018-05-13T07:43:22.000Z</time>
      </trkpt>
      <trkpt lat="43.97089" lon="7.23901">
        <ele>1410</ele>
        <time>2018-05-13T07:43:28.000Z</time>
      </trkpt>
      <trkpt lat="43.97084" lon="7.23891">
        <ele>1413</ele>
        <time>2018-05-13T07:43:35.000Z</time>
      </trkpt>
      <trkpt lat="43.97083" lon="7.2389">
        <ele>1397</ele>
        <time>2018-05-13T07:43:36.000Z</time>
      </trkpt>
      <trkpt lat="43.97077" lon="7.23883">
        <ele>1397</ele>
        <time>2018-05-13T07:43:42.000Z</time>
      </trkpt>
      <trkpt lat="43.97073" lon="7.23876">
        <ele>1398</ele>
        <time>2018-05-13T07:43:49.000Z</time>
      </trkpt>
      <trkpt lat="43.9707" lon="7.2387">
        <ele>1399</ele>
        <time>2018-05-13T07:43:54.000Z</time>
      </trkpt>
      <trkpt lat="43.97064" lon="7.23858">
        <ele>1402</ele>
        <time>2018-05-13T07:43:59.000Z</time>
      </trkpt>
      <trkpt lat="43.97062" lon="7.23852">
        <ele>1403</ele>
        <time>2018-05-13T07:44:01.000Z</time>
      </trkpt>
      <trkpt lat="43.97059" lon="7.23847">
        <ele>1403</ele>
        <time>2018-05-13T07:44:04.000Z</time>
      </trkpt>
      <trkpt lat="43.97055" lon="7.23837">
        <ele>1403</ele>
        <time>2018-05-13T07:44:09.000Z</time>
      </trkpt>
      <trkpt lat="43.9705" lon="7.23838">
        <ele>1401</ele>
        <time>2018-05-13T07:44:14.000Z</time>
      </trkpt>
      <trkpt lat="43.97039" lon="7.2384">
        <ele>1396</ele>
        <time>2018-05-13T07:44:19.000Z</time>
      </trkpt>
      <trkpt lat="43.97037" lon="7.23838">
        <ele>1396</ele>
        <time>2018-05-13T07:44:20.000Z</time>
      </trkpt>
      <trkpt lat="43.97033" lon="7.23837">
        <ele>1395</ele>
        <time>2018-05-13T07:44:22.000Z</time>
      </trkpt>
      <trkpt lat="43.97028" lon="7.23834">
        <ele>1393</ele>
        <time>2018-05-13T07:44:24.000Z</time>
      </trkpt>
      <trkpt lat="43.97024" lon="7.23832">
        <ele>1410</ele>
        <time>2018-05-13T07:44:26.000Z</time>
      </trkpt>
      <trkpt lat="43.97021" lon="7.2383">
        <ele>1409</ele>
        <time>2018-05-13T07:44:27.000Z</time>
      </trkpt>
      <trkpt lat="43.97006" lon="7.23819">
        <ele>1405</ele>
        <time>2018-05-13T07:44:33.000Z</time>
      </trkpt>
      <trkpt lat="43.97001" lon="7.23814">
        <ele>1407</ele>
        <time>2018-05-13T07:44:37.000Z</time>
      </trkpt>
      <trkpt lat="43.96995" lon="7.23806">
        <ele>1396</ele>
        <time>2018-05-13T07:44:41.000Z</time>
      </trkpt>
      <trkpt lat="43.9699" lon="7.23796">
        <ele>1399</ele>
        <time>2018-05-13T07:44:46.000Z</time>
      </trkpt>
      <trkpt lat="43.96988" lon="7.23794">
        <ele>1400</ele>
        <time>2018-05-13T07:44:47.000Z</time>
      </trkpt>
      <trkpt lat="43.96985" lon="7.23791">
        <ele>1400</ele>
        <time>2018-05-13T07:44:52.000Z</time>
      </trkpt>
      <trkpt lat="43.96985" lon="7.2379">
        <ele>1401</ele>
        <time>2018-05-13T07:44:53.000Z</time>
      </trkpt>
      <trkpt lat="43.96981" lon="7.23786">
        <ele>1402</ele>
        <time>2018-05-13T07:44:57.000Z</time>
      </trkpt>
      <trkpt lat="43.9698" lon="7.23784">
        <ele>1402</ele>
        <time>2018-05-13T07:44:58.000Z</time>
      </trkpt>
      <trkpt lat="43.96977" lon="7.23781">
        <ele>1403</ele>
        <time>2018-05-13T07:45:04.000Z</time>
      </trkpt>
      <trkpt lat="43.9697" lon="7.23779">
        <ele>1402</ele>
        <time>2018-05-13T07:45:09.000Z</time>
      </trkpt>
      <trkpt lat="43.96961" lon="7.23774">
        <ele>1402</ele>
        <time>2018-05-13T07:45:14.000Z</time>
      </trkpt>
      <trkpt lat="43.96952" lon="7.23765">
        <ele>1402</ele>
        <time>2018-05-13T07:45:20.000Z</time>
      </trkpt>
      <trkpt lat="43.96946" lon="7.23759">
        <ele>1403</ele>
        <time>2018-05-13T07:45:23.000Z</time>
      </trkpt>
      <trkpt lat="43.96941" lon="7.23757">
        <ele>1403</ele>
        <time>2018-05-13T07:45:25.000Z</time>
      </trkpt>
      <trkpt lat="43.96927" lon="7.23753">
        <ele>1405</ele>
        <time>2018-05-13T07:45:30.000Z</time>
      </trkpt>
      <trkpt lat="43.96908" lon="7.23752">
        <ele>1403</ele>
        <time>2018-05-13T07:45:36.000Z</time>
      </trkpt>
      <trkpt lat="43.96892" lon="7.23751">
        <ele>1399</ele>
        <time>2018-05-13T07:45:42.000Z</time>
      </trkpt>
      <trkpt lat="43.96889" lon="7.2375">
        <ele>1398</ele>
        <time>2018-05-13T07:45:43.000Z</time>
      </trkpt>
      <trkpt lat="43.96878" lon="7.23748">
        <ele>1421</ele>
        <time>2018-05-13T07:45:48.000Z</time>
      </trkpt>
      <trkpt lat="43.96871" lon="7.23747">
        <ele>1421</ele>
        <time>2018-05-13T07:45:52.000Z</time>
      </trkpt>
      <trkpt lat="43.96867" lon="7.23746">
        <ele>1421</ele>
        <time>2018-05-13T07:45:55.000Z</time>
      </trkpt>
      <trkpt lat="43.96864" lon="7.23746">
        <ele>1421</ele>
        <time>2018-05-13T07:45:57.000Z</time>
      </trkpt>
      <trkpt lat="43.96857" lon="7.23745">
        <ele>1421</ele>
        <time>2018-05-13T07:46:01.000Z</time>
      </trkpt>
      <trkpt lat="43.96856" lon="7.23745">
        <ele>1420</ele>
        <time>2018-05-13T07:46:02.000Z</time>
      </trkpt>
      <trkpt lat="43.9685" lon="7.23746">
        <ele>1419</ele>
        <time>2018-05-13T07:46:07.000Z</time>
      </trkpt>
      <trkpt lat="43.96848" lon="7.23746">
        <ele>1419</ele>
        <time>2018-05-13T07:46:08.000Z</time>
      </trkpt>
      <trkpt lat="43.96839" lon="7.23746">
        <ele>1416</ele>
        <time>2018-05-13T07:46:15.000Z</time>
      </trkpt>
      <trkpt lat="43.96833" lon="7.23747">
        <ele>1414</ele>
        <time>2018-05-13T07:46:19.000Z</time>
      </trkpt>
      <trkpt lat="43.96829" lon="7.23747">
        <ele>1415</ele>
        <time>2018-05-13T07:46:22.000Z</time>
      </trkpt>
      <trkpt lat="43.96823" lon="7.23748">
        <ele>1416</ele>
        <time>2018-05-13T07:46:26.000Z</time>
      </trkpt>
      <trkpt lat="43.96819" lon="7.23748">
        <ele>1417</ele>
        <time>2018-05-13T07:46:28.000Z</time>
      </trkpt>
      <trkpt lat="43.9681" lon="7.2375">
        <ele>1418</ele>
        <time>2018-05-13T07:46:34.000Z</time>
      </trkpt>
      <trkpt lat="43.96806" lon="7.23751">
        <ele>1404</ele>
        <time>2018-05-13T07:46:37.000Z</time>
      </trkpt>
      <trkpt lat="43.96799" lon="7.23752">
        <ele>1403</ele>
        <time>2018-05-13T07:46:41.000Z</time>
      </trkpt>
      <trkpt lat="43.96795" lon="7.23752">
        <ele>1403</ele>
        <time>2018-05-13T07:46:43.000Z</time>
      </trkpt>
      <trkpt lat="43.96783" lon="7.23755">
        <ele>1403</ele>
        <time>2018-05-13T07:46:49.000Z</time>
      </trkpt>
      <trkpt lat="43.96769" lon="7.23758">
        <ele>1405</ele>
        <time>2018-05-13T07:46:55.000Z</time>
      </trkpt>
      <trkpt lat="43.96758" lon="7.23761">
        <ele>1406</ele>
        <time>2018-05-13T07:46:59.000Z</time>
      </trkpt>
      <trkpt lat="43.9675" lon="7.23762">
        <ele>1409</ele>
        <time>2018-05-13T07:47:03.000Z</time>
      </trkpt>
      <trkpt lat="43.96738" lon="7.23765">
        <ele>1407</ele>
        <time>2018-05-13T07:47:07.000Z</time>
      </trkpt>
      <trkpt lat="43.96725" lon="7.23769">
        <ele>1406</ele>
        <time>2018-05-13T07:47:10.000Z</time>
      </trkpt>
      <trkpt lat="43.96721" lon="7.23768">
        <ele>1406</ele>
        <time>2018-05-13T07:47:11.000Z</time>
      </trkpt>
      <trkpt lat="43.96707" lon="7.23765">
        <ele>1406</ele>
        <time>2018-05-13T07:47:14.000Z</time>
      </trkpt>
      <trkpt lat="43.96698" lon="7.23763">
        <ele>1406</ele>
        <time>2018-05-13T07:47:16.000Z</time>
      </trkpt>
      <trkpt lat="43.96693" lon="7.23764">
        <ele>1406</ele>
        <time>2018-05-13T07:47:17.000Z</time>
      </trkpt>
      <trkpt lat="43.96683" lon="7.23765">
        <ele>1406</ele>
        <time>2018-05-13T07:47:19.000Z</time>
      </trkpt>
      <trkpt lat="43.96676" lon="7.2377">
        <ele>1406</ele>
        <time>2018-05-13T07:47:21.000Z</time>
      </trkpt>
      <trkpt lat="43.96665" lon="7.23774">
        <ele>1408</ele>
        <time>2018-05-13T07:47:25.000Z</time>
      </trkpt>
      <trkpt lat="43.9666" lon="7.23775">
        <ele>1408</ele>
        <time>2018-05-13T07:47:27.000Z</time>
      </trkpt>
      <trkpt lat="43.96657" lon="7.23775">
        <ele>1408</ele>
        <time>2018-05-13T07:47:28.000Z</time>
      </trkpt>
      <trkpt lat="43.9665" lon="7.23777">
        <ele>1408</ele>
        <time>2018-05-13T07:47:30.000Z</time>
      </trkpt>
      <trkpt lat="43.96637" lon="7.23777">
        <ele>1408</ele>
        <time>2018-05-13T07:47:35.000Z</time>
      </trkpt>
      <trkpt lat="43.96634" lon="7.23778">
        <ele>1409</ele>
        <time>2018-05-13T07:47:36.000Z</time>
      </trkpt>
      <trkpt lat="43.96623" lon="7.2378">
        <ele>1409</ele>
        <time>2018-05-13T07:47:41.000Z</time>
      </trkpt>
      <trkpt lat="43.96618" lon="7.2378">
        <ele>1409</ele>
        <time>2018-05-13T07:47:45.000Z</time>
      </trkpt>
      <trkpt lat="43.96616" lon="7.2378">
        <ele>1409</ele>
        <time>2018-05-13T07:47:47.000Z</time>
      </trkpt>
      <trkpt lat="43.96611" lon="7.23781">
        <ele>1409</ele>
        <time>2018-05-13T07:47:50.000Z</time>
      </trkpt>
      <trkpt lat="43.96609" lon="7.2378">
        <ele>1409</ele>
        <time>2018-05-13T07:47:51.000Z</time>
      </trkpt>
      <trkpt lat="43.96608" lon="7.2378">
        <ele>1409</ele>
        <time>2018-05-13T07:47:52.000Z</time>
      </trkpt>
      <trkpt lat="43.96603" lon="7.23781">
        <ele>1409</ele>
        <time>2018-05-13T07:47:55.000Z</time>
      </trkpt>
      <trkpt lat="43.96597" lon="7.23781">
        <ele>1409</ele>
        <time>2018-05-13T07:47:58.000Z</time>
      </trkpt>
      <trkpt lat="43.96587" lon="7.23782">
        <ele>1409</ele>
        <time>2018-05-13T07:48:03.000Z</time>
      </trkpt>
      <trkpt lat="43.9658" lon="7.23782">
        <ele>1410</ele>
        <time>2018-05-13T07:48:08.000Z</time>
      </trkpt>
      <trkpt lat="43.96573" lon="7.23784">
        <ele>1410</ele>
        <time>2018-05-13T07:48:12.000Z</time>
      </trkpt>
      <trkpt lat="43.96571" lon="7.23786">
        <ele>1410</ele>
        <time>2018-05-13T07:48:13.000Z</time>
      </trkpt>
      <trkpt lat="43.96565" lon="7.23789">
        <ele>1411</ele>
        <time>2018-05-13T07:48:16.000Z</time>
      </trkpt>
      <trkpt lat="43.96562" lon="7.23791">
        <ele>1411</ele>
        <time>2018-05-13T07:48:18.000Z</time>
      </trkpt>
      <trkpt lat="43.96559" lon="7.23792">
        <ele>1411</ele>
        <time>2018-05-13T07:48:20.000Z</time>
      </trkpt>
      <trkpt lat="43.96553" lon="7.23794">
        <ele>1411</ele>
        <time>2018-05-13T07:48:23.000Z</time>
      </trkpt>
      <trkpt lat="43.96532" lon="7.23804">
        <ele>1411</ele>
        <time>2018-05-13T07:48:31.000Z</time>
      </trkpt>
      <trkpt lat="43.96519" lon="7.23814">
        <ele>1412</ele>
        <time>2018-05-13T07:48:38.000Z</time>
      </trkpt>
      <trkpt lat="43.96507" lon="7.23822">
        <ele>1413</ele>
        <time>2018-05-13T07:48:45.000Z</time>
      </trkpt>
      <trkpt lat="43.96505" lon="7.23823">
        <ele>1413</ele>
        <time>2018-05-13T07:48:46.000Z</time>
      </trkpt>
      <trkpt lat="43.96491" lon="7.23835">
        <ele>1414</ele>
        <time>2018-05-13T07:48:52.000Z</time>
      </trkpt>
      <trkpt lat="43.96475" lon="7.23852">
        <ele>1412</ele>
        <time>2018-05-13T07:48:57.000Z</time>
      </trkpt>
      <trkpt lat="43.96471" lon="7.23854">
        <ele>1412</ele>
        <time>2018-05-13T07:48:58.000Z</time>
      </trkpt>
      <trkpt lat="43.96454" lon="7.23866">
        <ele>1412</ele>
        <time>2018-05-13T07:49:02.000Z</time>
      </trkpt>
      <trkpt lat="43.96452" lon="7.23868">
        <ele>1412</ele>
        <time>2018-05-13T07:49:03.000Z</time>
      </trkpt>
      <trkpt lat="43.9645" lon="7.23869">
        <ele>1412</ele>
        <time>2018-05-13T07:49:04.000Z</time>
      </trkpt>
      <trkpt lat="43.96444" lon="7.23875">
        <ele>1411</ele>
        <time>2018-05-13T07:49:06.000Z</time>
      </trkpt>
      <trkpt lat="43.96441" lon="7.23877">
        <ele>1411</ele>
        <time>2018-05-13T07:49:07.000Z</time>
      </trkpt>
      <trkpt lat="43.96438" lon="7.23878">
        <ele>1411</ele>
        <time>2018-05-13T07:49:08.000Z</time>
      </trkpt>
      <trkpt lat="43.9643" lon="7.23883">
        <ele>1410</ele>
        <time>2018-05-13T07:49:10.000Z</time>
      </trkpt>
      <trkpt lat="43.96421" lon="7.23888">
        <ele>1409</ele>
        <time>2018-05-13T07:49:12.000Z</time>
      </trkpt>
      <trkpt lat="43.96416" lon="7.23889">
        <ele>1415</ele>
        <time>2018-05-13T07:49:13.000Z</time>
      </trkpt>
      <trkpt lat="43.96407" lon="7.23894">
        <ele>1414</ele>
        <time>2018-05-13T07:49:15.000Z</time>
      </trkpt>
      <trkpt lat="43.96398" lon="7.23901">
        <ele>1414</ele>
        <time>2018-05-13T07:49:17.000Z</time>
      </trkpt>
      <trkpt lat="43.9638" lon="7.23911">
        <ele>1416</ele>
        <time>2018-05-13T07:49:20.000Z</time>
      </trkpt>
      <trkpt lat="43.96368" lon="7.23917">
        <ele>1400</ele>
        <time>2018-05-13T07:49:22.000Z</time>
      </trkpt>
      <trkpt lat="43.96356" lon="7.23922">
        <ele>1402</ele>
        <time>2018-05-13T07:49:24.000Z</time>
      </trkpt>
      <trkpt lat="43.96335" lon="7.23932">
        <ele>1405</ele>
        <time>2018-05-13T07:49:28.000Z</time>
      </trkpt>
      <trkpt lat="43.96316" lon="7.2394">
        <ele>1412</ele>
        <time>2018-05-13T07:49:32.000Z</time>
      </trkpt>
      <trkpt lat="43.96312" lon="7.23942">
        <ele>1412</ele>
        <time>2018-05-13T07:49:33.000Z</time>
      </trkpt>
      <trkpt lat="43.96309" lon="7.23944">
        <ele>1412</ele>
        <time>2018-05-13T07:49:34.000Z</time>
      </trkpt>
      <trkpt lat="43.96305" lon="7.23949">
        <ele>1412</ele>
        <time>2018-05-13T07:49:35.000Z</time>
      </trkpt>
      <trkpt lat="43.96293" lon="7.23962">
        <ele>1411</ele>
        <time>2018-05-13T07:49:38.000Z</time>
      </trkpt>
      <trkpt lat="43.96275" lon="7.23978">
        <ele>1411</ele>
        <time>2018-05-13T07:49:42.000Z</time>
      </trkpt>
      <trkpt lat="43.96271" lon="7.23981">
        <ele>1411</ele>
        <time>2018-05-13T07:49:43.000Z</time>
      </trkpt>
      <trkpt lat="43.96267" lon="7.23983">
        <ele>1410</ele>
        <time>2018-05-13T07:49:44.000Z</time>
      </trkpt>
      <trkpt lat="43.96263" lon="7.23987">
        <ele>1410</ele>
        <time>2018-05-13T07:49:45.000Z</time>
      </trkpt>
      <trkpt lat="43.96242" lon="7.24007">
        <ele>1407</ele>
        <time>2018-05-13T07:49:50.000Z</time>
      </trkpt>
      <trkpt lat="43.96232" lon="7.24015">
        <ele>1406</ele>
        <time>2018-05-13T07:49:52.000Z</time>
      </trkpt>
      <trkpt lat="43.96223" lon="7.2402">
        <ele>1406</ele>
        <time>2018-05-13T07:49:54.000Z</time>
      </trkpt>
      <trkpt lat="43.96219" lon="7.24023">
        <ele>1406</ele>
        <time>2018-05-13T07:49:55.000Z</time>
      </trkpt>
      <trkpt lat="43.96211" lon="7.24039">
        <ele>1405</ele>
        <time>2018-05-13T07:49:58.000Z</time>
      </trkpt>
      <trkpt lat="43.96208" lon="7.24046">
        <ele>1404</ele>
        <time>2018-05-13T07:49:59.000Z</time>
      </trkpt>
      <trkpt lat="43.96202" lon="7.24053">
        <ele>1404</ele>
        <time>2018-05-13T07:50:00.000Z</time>
      </trkpt>
      <trkpt lat="43.96192" lon="7.24061">
        <ele>1404</ele>
        <time>2018-05-13T07:50:02.000Z</time>
      </trkpt>
      <trkpt lat="43.96183" lon="7.24064">
        <ele>1404</ele>
        <time>2018-05-13T07:50:04.000Z</time>
      </trkpt>
      <trkpt lat="43.96176" lon="7.24068">
        <ele>1404</ele>
        <time>2018-05-13T07:50:06.000Z</time>
      </trkpt>
      <trkpt lat="43.96161" lon="7.24078">
        <ele>1407</ele>
        <time>2018-05-13T07:50:10.000Z</time>
      </trkpt>
      <trkpt lat="43.96153" lon="7.24083">
        <ele>1410</ele>
        <time>2018-05-13T07:50:12.000Z</time>
      </trkpt>
      <trkpt lat="43.96139" lon="7.24088">
        <ele>1402</ele>
        <time>2018-05-13T07:50:16.000Z</time>
      </trkpt>
      <trkpt lat="43.96127" lon="7.24099">
        <ele>1402</ele>
        <time>2018-05-13T07:50:20.000Z</time>
      </trkpt>
      <trkpt lat="43.96122" lon="7.241">
        <ele>1403</ele>
        <time>2018-05-13T07:50:21.000Z</time>
      </trkpt>
      <trkpt lat="43.96108" lon="7.24109">
        <ele>1403</ele>
        <time>2018-05-13T07:50:25.000Z</time>
      </trkpt>
      <trkpt lat="43.96107" lon="7.24111">
        <ele>1403</ele>
        <time>2018-05-13T07:50:26.000Z</time>
      </trkpt>
      <trkpt lat="43.96105" lon="7.24111">
        <ele>1403</ele>
        <time>2018-05-13T07:50:27.000Z</time>
      </trkpt>
      <trkpt lat="43.96099" lon="7.24119">
        <ele>1403</ele>
        <time>2018-05-13T07:50:30.000Z</time>
      </trkpt>
      <trkpt lat="43.9609" lon="7.24136">
        <ele>1401</ele>
        <time>2018-05-13T07:50:34.000Z</time>
      </trkpt>
      <trkpt lat="43.96076" lon="7.24158">
        <ele>1405</ele>
        <time>2018-05-13T07:50:39.000Z</time>
      </trkpt>
      <trkpt lat="43.96063" lon="7.24181">
        <ele>1400</ele>
        <time>2018-05-13T07:50:44.000Z</time>
      </trkpt>
      <trkpt lat="43.9606" lon="7.24187">
        <ele>1401</ele>
        <time>2018-05-13T07:50:45.000Z</time>
      </trkpt>
      <trkpt lat="43.96052" lon="7.24199">
        <ele>1401</ele>
        <time>2018-05-13T07:50:48.000Z</time>
      </trkpt>
      <trkpt lat="43.96035" lon="7.24226">
        <ele>1401</ele>
        <time>2018-05-13T07:50:53.000Z</time>
      </trkpt>
      <trkpt lat="43.96033" lon="7.24229">
        <ele>1401</ele>
        <time>2018-05-13T07:50:54.000Z</time>
      </trkpt>
      <trkpt lat="43.96022" lon="7.24237">
        <ele>1401</ele>
        <time>2018-05-13T07:50:57.000Z</time>
      </trkpt>
      <trkpt lat="43.96013" lon="7.24246">
        <ele>1402</ele>
        <time>2018-05-13T07:51:01.000Z</time>
      </trkpt>
      <trkpt lat="43.96011" lon="7.24247">
        <ele>1402</ele>
        <time>2018-05-13T07:51:02.000Z</time>
      </trkpt>
      <trkpt lat="43.96004" lon="7.24255">
        <ele>1399</ele>
        <time>2018-05-13T07:51:05.000Z</time>
      </trkpt>
      <trkpt lat="43.95987" lon="7.24273">
        <ele>1401</ele>
        <time>2018-05-13T07:51:11.000Z</time>
      </trkpt>
      <trkpt lat="43.9598" lon="7.24281">
        <ele>1401</ele>
        <time>2018-05-13T07:51:15.000Z</time>
      </trkpt>
      <trkpt lat="43.95962" lon="7.24286">
        <ele>1402</ele>
        <time>2018-05-13T07:51:20.000Z</time>
      </trkpt>
      <trkpt lat="43.95951" lon="7.2429">
        <ele>1402</ele>
        <time>2018-05-13T07:51:23.000Z</time>
      </trkpt>
      <trkpt lat="43.95947" lon="7.24292">
        <ele>1402</ele>
        <time>2018-05-13T07:51:24.000Z</time>
      </trkpt>
      <trkpt lat="43.95936" lon="7.24298">
        <ele>1402</ele>
        <time>2018-05-13T07:51:28.000Z</time>
      </trkpt>
      <trkpt lat="43.95927" lon="7.24301">
        <ele>1402</ele>
        <time>2018-05-13T07:51:33.000Z</time>
      </trkpt>
      <trkpt lat="43.95919" lon="7.24301">
        <ele>1402</ele>
        <time>2018-05-13T07:51:36.000Z</time>
      </trkpt>
      <trkpt lat="43.95915" lon="7.24301">
        <ele>1410</ele>
        <time>2018-05-13T07:51:38.000Z</time>
      </trkpt>
      <trkpt lat="43.95909" lon="7.243">
        <ele>1410</ele>
        <time>2018-05-13T07:51:41.000Z</time>
      </trkpt>
      <trkpt lat="43.95906" lon="7.243">
        <ele>1410</ele>
        <time>2018-05-13T07:51:43.000Z</time>
      </trkpt>
      <trkpt lat="43.959" lon="7.24303">
        <ele>1410</ele>
        <time>2018-05-13T07:51:48.000Z</time>
      </trkpt>
      <trkpt lat="43.95899" lon="7.24304">
        <ele>1410</ele>
        <time>2018-05-13T07:51:49.000Z</time>
      </trkpt>
      <trkpt lat="43.95895" lon="7.24308">
        <ele>1410</ele>
        <time>2018-05-13T07:51:54.000Z</time>
      </trkpt>
      <trkpt lat="43.95892" lon="7.24309">
        <ele>1410</ele>
        <time>2018-05-13T07:51:55.000Z</time>
      </trkpt>
      <trkpt lat="43.95889" lon="7.2431">
        <ele>1410</ele>
        <time>2018-05-13T07:51:58.000Z</time>
      </trkpt>
      <trkpt lat="43.95887" lon="7.2431">
        <ele>1410</ele>
        <time>2018-05-13T07:52:01.000Z</time>
      </trkpt>
      <trkpt lat="43.95885" lon="7.2431">
        <ele>1410</ele>
        <time>2018-05-13T07:52:02.000Z</time>
      </trkpt>
      <trkpt lat="43.95885" lon="7.24311">
        <ele>1410</ele>
        <time>2018-05-13T07:52:03.000Z</time>
      </trkpt>
      <trkpt lat="43.95881" lon="7.24311">
        <ele>1410</ele>
        <time>2018-05-13T07:52:07.000Z</time>
      </trkpt>
      <trkpt lat="43.9588" lon="7.24312">
        <ele>1410</ele>
        <time>2018-05-13T07:52:08.000Z</time>
      </trkpt>
      <trkpt lat="43.95873" lon="7.24314">
        <ele>1411</ele>
        <time>2018-05-13T07:52:13.000Z</time>
      </trkpt>
      <trkpt lat="43.95865" lon="7.24317">
        <ele>1411</ele>
        <time>2018-05-13T07:52:18.000Z</time>
      </trkpt>
      <trkpt lat="43.95864" lon="7.24317">
        <ele>1411</ele>
        <time>2018-05-13T07:52:19.000Z</time>
      </trkpt>
      <trkpt lat="43.95856" lon="7.24318">
        <ele>1411</ele>
        <time>2018-05-13T07:52:24.000Z</time>
      </trkpt>
      <trkpt lat="43.95852" lon="7.24318">
        <ele>1411</ele>
        <time>2018-05-13T07:52:26.000Z</time>
      </trkpt>
      <trkpt lat="43.95843" lon="7.24316">
        <ele>1411</ele>
        <time>2018-05-13T07:52:31.000Z</time>
      </trkpt>
      <trkpt lat="43.9583" lon="7.24316">
        <ele>1413</ele>
        <time>2018-05-13T07:52:38.000Z</time>
      </trkpt>
      <trkpt lat="43.9582" lon="7.24316">
        <ele>1414</ele>
        <time>2018-05-13T07:52:44.000Z</time>
      </trkpt>
      <trkpt lat="43.95818" lon="7.24316">
        <ele>1414</ele>
        <time>2018-05-13T07:52:45.000Z</time>
      </trkpt>
      <trkpt lat="43.95809" lon="7.24315">
        <ele>1416</ele>
        <time>2018-05-13T07:52:49.000Z</time>
      </trkpt>
      <trkpt lat="43.95797" lon="7.24313">
        <ele>1416</ele>
        <time>2018-05-13T07:52:55.000Z</time>
      </trkpt>
      <trkpt lat="43.9579" lon="7.2431">
        <ele>1417</ele>
        <time>2018-05-13T07:52:58.000Z</time>
      </trkpt>
      <trkpt lat="43.95789" lon="7.24309">
        <ele>1417</ele>
        <time>2018-05-13T07:52:59.000Z</time>
      </trkpt>
      <trkpt lat="43.95778" lon="7.24307">
        <ele>1417</ele>
        <time>2018-05-13T07:53:04.000Z</time>
      </trkpt>
      <trkpt lat="43.95777" lon="7.24305">
        <ele>1417</ele>
        <time>2018-05-13T07:53:05.000Z</time>
      </trkpt>
      <trkpt lat="43.95777" lon="7.24304">
        <ele>1417</ele>
        <time>2018-05-13T07:53:06.000Z</time>
      </trkpt>
      <trkpt lat="43.95773" lon="7.24301">
        <ele>1418</ele>
        <time>2018-05-13T07:53:08.000Z</time>
      </trkpt>
      <trkpt lat="43.95768" lon="7.24299">
        <ele>1418</ele>
        <time>2018-05-13T07:53:11.000Z</time>
      </trkpt>
      <trkpt lat="43.95766" lon="7.24299">
        <ele>1418</ele>
        <time>2018-05-13T07:53:13.000Z</time>
      </trkpt>
      <trkpt lat="43.95762" lon="7.24298">
        <ele>1418</ele>
        <time>2018-05-13T07:53:16.000Z</time>
      </trkpt>
      <trkpt lat="43.95758" lon="7.24297">
        <ele>1418</ele>
        <time>2018-05-13T07:53:19.000Z</time>
      </trkpt>
      <trkpt lat="43.95755" lon="7.24295">
        <ele>1419</ele>
        <time>2018-05-13T07:53:22.000Z</time>
      </trkpt>
      <trkpt lat="43.95747" lon="7.24292">
        <ele>1417</ele>
        <time>2018-05-13T07:53:27.000Z</time>
      </trkpt>
      <trkpt lat="43.95745" lon="7.24292">
        <ele>1417</ele>
        <time>2018-05-13T07:53:28.000Z</time>
      </trkpt>
      <trkpt lat="43.95737" lon="7.2429">
        <ele>1417</ele>
        <time>2018-05-13T07:53:31.000Z</time>
      </trkpt>
      <trkpt lat="43.95721" lon="7.24288">
        <ele>1417</ele>
        <time>2018-05-13T07:53:37.000Z</time>
      </trkpt>
      <trkpt lat="43.95709" lon="7.24281">
        <ele>1417</ele>
        <time>2018-05-13T07:53:42.000Z</time>
      </trkpt>
      <trkpt lat="43.95702" lon="7.24277">
        <ele>1418</ele>
        <time>2018-05-13T07:53:46.000Z</time>
      </trkpt>
      <trkpt lat="43.957" lon="7.24276">
        <ele>1418</ele>
        <time>2018-05-13T07:53:48.000Z</time>
      </trkpt>
      <trkpt lat="43.95687" lon="7.24269">
        <ele>1418</ele>
        <time>2018-05-13T07:53:53.000Z</time>
      </trkpt>
      <trkpt lat="43.95685" lon="7.24269">
        <ele>1419</ele>
        <time>2018-05-13T07:53:54.000Z</time>
      </trkpt>
      <trkpt lat="43.9567" lon="7.24259">
        <ele>1421</ele>
        <time>2018-05-13T07:54:01.000Z</time>
      </trkpt>
      <trkpt lat="43.95669" lon="7.24258">
        <ele>1422</ele>
        <time>2018-05-13T07:54:02.000Z</time>
      </trkpt>
      <trkpt lat="43.95667" lon="7.24256">
        <ele>1422</ele>
        <time>2018-05-13T07:54:04.000Z</time>
      </trkpt>
      <trkpt lat="43.95665" lon="7.24255">
        <ele>1422</ele>
        <time>2018-05-13T07:54:05.000Z</time>
      </trkpt>
      <trkpt lat="43.95663" lon="7.24254">
        <ele>1422</ele>
        <time>2018-05-13T07:54:06.000Z</time>
      </trkpt>
      <trkpt lat="43.95657" lon="7.2425">
        <ele>1421</ele>
        <time>2018-05-13T07:54:09.000Z</time>
      </trkpt>
      <trkpt lat="43.95652" lon="7.24247">
        <ele>1430</ele>
        <time>2018-05-13T07:54:13.000Z</time>
      </trkpt>
      <trkpt lat="43.95648" lon="7.24244">
        <ele>1431</ele>
        <time>2018-05-13T07:54:15.000Z</time>
      </trkpt>
      <trkpt lat="43.95644" lon="7.2424">
        <ele>1432</ele>
        <time>2018-05-13T07:54:19.000Z</time>
      </trkpt>
      <trkpt lat="43.95638" lon="7.24235">
        <ele>1433</ele>
        <time>2018-05-13T07:54:25.000Z</time>
      </trkpt>
      <trkpt lat="43.95635" lon="7.24233">
        <ele>1434</ele>
        <time>2018-05-13T07:54:27.000Z</time>
      </trkpt>
      <trkpt lat="43.95627" lon="7.24229">
        <ele>1434</ele>
        <time>2018-05-13T07:54:32.000Z</time>
      </trkpt>
      <trkpt lat="43.95622" lon="7.24228">
        <ele>1435</ele>
        <time>2018-05-13T07:54:36.000Z</time>
      </trkpt>
      <trkpt lat="43.95621" lon="7.24227">
        <ele>1435</ele>
        <time>2018-05-13T07:54:37.000Z</time>
      </trkpt>
      <trkpt lat="43.95616" lon="7.24221">
        <ele>1435</ele>
        <time>2018-05-13T07:54:42.000Z</time>
      </trkpt>
      <trkpt lat="43.95616" lon="7.24221">
        <ele>1435</ele>
        <time>2018-05-13T07:54:43.000Z</time>
      </trkpt>
      <trkpt lat="43.95615" lon="7.2422">
        <ele>1436</ele>
        <time>2018-05-13T07:54:44.000Z</time>
      </trkpt>
      <trkpt lat="43.95613" lon="7.24218">
        <ele>1436</ele>
        <time>2018-05-13T07:54:46.000Z</time>
      </trkpt>
      <trkpt lat="43.95612" lon="7.24217">
        <ele>1436</ele>
        <time>2018-05-13T07:54:48.000Z</time>
      </trkpt>
      <trkpt lat="43.9561" lon="7.24214">
        <ele>1436</ele>
        <time>2018-05-13T07:54:52.000Z</time>
      </trkpt>
      <trkpt lat="43.9561" lon="7.24215">
        <ele>1436</ele>
        <time>2018-05-13T07:54:53.000Z</time>
      </trkpt>
      <trkpt lat="43.95608" lon="7.24213">
        <ele>1437</ele>
        <time>2018-05-13T07:54:56.000Z</time>
      </trkpt>
      <trkpt lat="43.95606" lon="7.24212">
        <ele>1437</ele>
        <time>2018-05-13T07:54:59.000Z</time>
      </trkpt>
      <trkpt lat="43.95604" lon="7.2421">
        <ele>1437</ele>
        <time>2018-05-13T07:55:02.000Z</time>
      </trkpt>
      <trkpt lat="43.956" lon="7.24209">
        <ele>1437</ele>
        <time>2018-05-13T07:55:06.000Z</time>
      </trkpt>
      <trkpt lat="43.95598" lon="7.24209">
        <ele>1437</ele>
        <time>2018-05-13T07:55:09.000Z</time>
      </trkpt>
      <trkpt lat="43.95596" lon="7.24209">
        <ele>1437</ele>
        <time>2018-05-13T07:55:10.000Z</time>
      </trkpt>
      <trkpt lat="43.95593" lon="7.24208">
        <ele>1437</ele>
        <time>2018-05-13T07:55:12.000Z</time>
      </trkpt>
      <trkpt lat="43.95588" lon="7.24207">
        <ele>1437</ele>
        <time>2018-05-13T07:55:15.000Z</time>
      </trkpt>
      <trkpt lat="43.95583" lon="7.24205">
        <ele>1440</ele>
        <time>2018-05-13T07:55:18.000Z</time>
      </trkpt>
      <trkpt lat="43.95582" lon="7.24204">
        <ele>1440</ele>
        <time>2018-05-13T07:55:19.000Z</time>
      </trkpt>
      <trkpt lat="43.95573" lon="7.24201">
        <ele>1441</ele>
        <time>2018-05-13T07:55:25.000Z</time>
      </trkpt>
      <trkpt lat="43.95569" lon="7.242">
        <ele>1441</ele>
        <time>2018-05-13T07:55:28.000Z</time>
      </trkpt>
      <trkpt lat="43.95566" lon="7.24198">
        <ele>1441</ele>
        <time>2018-05-13T07:55:30.000Z</time>
      </trkpt>
      <trkpt lat="43.95559" lon="7.24197">
        <ele>1442</ele>
        <time>2018-05-13T07:55:35.000Z</time>
      </trkpt>
      <trkpt lat="43.95555" lon="7.24194">
        <ele>1442</ele>
        <time>2018-05-13T07:55:39.000Z</time>
      </trkpt>
      <trkpt lat="43.95551" lon="7.24194">
        <ele>1442</ele>
        <time>2018-05-13T07:55:41.000Z</time>
      </trkpt>
      <trkpt lat="43.95546" lon="7.24192">
        <ele>1442</ele>
        <time>2018-05-13T07:55:45.000Z</time>
      </trkpt>
      <trkpt lat="43.95543" lon="7.24191">
        <ele>1443</ele>
        <time>2018-05-13T07:55:47.000Z</time>
      </trkpt>
      <trkpt lat="43.95536" lon="7.2419">
        <ele>1443</ele>
        <time>2018-05-13T07:55:52.000Z</time>
      </trkpt>
      <trkpt lat="43.95533" lon="7.24188">
        <ele>1443</ele>
        <time>2018-05-13T07:55:54.000Z</time>
      </trkpt>
      <trkpt lat="43.9553" lon="7.24187">
        <ele>1443</ele>
        <time>2018-05-13T07:55:57.000Z</time>
      </trkpt>
      <trkpt lat="43.95529" lon="7.24187">
        <ele>1443</ele>
        <time>2018-05-13T07:55:58.000Z</time>
      </trkpt>
      <trkpt lat="43.95525" lon="7.24187">
        <ele>1444</ele>
        <time>2018-05-13T07:56:01.000Z</time>
      </trkpt>
      <trkpt lat="43.95521" lon="7.24186">
        <ele>1444</ele>
        <time>2018-05-13T07:56:04.000Z</time>
      </trkpt>
      <trkpt lat="43.95515" lon="7.24185">
        <ele>1444</ele>
        <time>2018-05-13T07:56:09.000Z</time>
      </trkpt>
      <trkpt lat="43.95513" lon="7.24185">
        <ele>1444</ele>
        <time>2018-05-13T07:56:11.000Z</time>
      </trkpt>
      <trkpt lat="43.95509" lon="7.24185">
        <ele>1445</ele>
        <time>2018-05-13T07:56:15.000Z</time>
      </trkpt>
      <trkpt lat="43.95504" lon="7.24186">
        <ele>1445</ele>
        <time>2018-05-13T07:56:19.000Z</time>
      </trkpt>
      <trkpt lat="43.95504" lon="7.24186">
        <ele>1445</ele>
        <time>2018-05-13T07:56:23.000Z</time>
      </trkpt>
      <trkpt lat="43.95503" lon="7.24186">
        <ele>1445</ele>
        <time>2018-05-13T07:56:24.000Z</time>
      </trkpt>
      <trkpt lat="43.955" lon="7.24188">
        <ele>1454</ele>
        <time>2018-05-13T07:56:30.000Z</time>
      </trkpt>
      <trkpt lat="43.95499" lon="7.24189">
        <ele>1454</ele>
        <time>2018-05-13T07:56:31.000Z</time>
      </trkpt>
      <trkpt lat="43.95497" lon="7.2419">
        <ele>1454</ele>
        <time>2018-05-13T07:56:33.000Z</time>
      </trkpt>
      <trkpt lat="43.95496" lon="7.24191">
        <ele>1454</ele>
        <time>2018-05-13T07:56:36.000Z</time>
      </trkpt>
      <trkpt lat="43.95494" lon="7.24192">
        <ele>1454</ele>
        <time>2018-05-13T07:56:38.000Z</time>
      </trkpt>
      <trkpt lat="43.95492" lon="7.24193">
        <ele>1455</ele>
        <time>2018-05-13T07:56:43.000Z</time>
      </trkpt>
      <trkpt lat="43.95492" lon="7.24192">
        <ele>1454</ele>
        <time>2018-05-13T07:56:44.000Z</time>
      </trkpt>
      <trkpt lat="43.9549" lon="7.24191">
        <ele>1455</ele>
        <time>2018-05-13T07:56:49.000Z</time>
      </trkpt>
      <trkpt lat="43.95489" lon="7.2419">
        <ele>1455</ele>
        <time>2018-05-13T07:56:50.000Z</time>
      </trkpt>
      <trkpt lat="43.95488" lon="7.24191">
        <ele>1455</ele>
        <time>2018-05-13T07:56:53.000Z</time>
      </trkpt>
      <trkpt lat="43.95487" lon="7.24192">
        <ele>1455</ele>
        <time>2018-05-13T07:56:56.000Z</time>
      </trkpt>
      <trkpt lat="43.95485" lon="7.24193">
        <ele>1455</ele>
        <time>2018-05-13T07:56:57.000Z</time>
      </trkpt>
      <trkpt lat="43.95483" lon="7.24196">
        <ele>1456</ele>
        <time>2018-05-13T07:57:02.000Z</time>
      </trkpt>
      <trkpt lat="43.95483" lon="7.24196">
        <ele>1456</ele>
        <time>2018-05-13T07:57:03.000Z</time>
      </trkpt>
      <trkpt lat="43.9548" lon="7.24194">
        <ele>1456</ele>
        <time>2018-05-13T07:57:08.000Z</time>
      </trkpt>
      <trkpt lat="43.95479" lon="7.24193">
        <ele>1456</ele>
        <time>2018-05-13T07:57:10.000Z</time>
      </trkpt>
      <trkpt lat="43.95476" lon="7.24193">
        <ele>1457</ele>
        <time>2018-05-13T07:57:15.000Z</time>
      </trkpt>
      <trkpt lat="43.95476" lon="7.24192">
        <ele>1457</ele>
        <time>2018-05-13T07:57:16.000Z</time>
      </trkpt>
      <trkpt lat="43.95473" lon="7.2419">
        <ele>1457</ele>
        <time>2018-05-13T07:57:21.000Z</time>
      </trkpt>
      <trkpt lat="43.95472" lon="7.24189">
        <ele>1457</ele>
        <time>2018-05-13T07:57:22.000Z</time>
      </trkpt>
      <trkpt lat="43.9547" lon="7.24187">
        <ele>1457</ele>
        <time>2018-05-13T07:57:27.000Z</time>
      </trkpt>
      <trkpt lat="43.95469" lon="7.24187">
        <ele>1458</ele>
        <time>2018-05-13T07:57:30.000Z</time>
      </trkpt>
      <trkpt lat="43.95466" lon="7.24189">
        <ele>1458</ele>
        <time>2018-05-13T07:57:34.000Z</time>
      </trkpt>
      <trkpt lat="43.95464" lon="7.2419">
        <ele>1459</ele>
        <time>2018-05-13T07:57:37.000Z</time>
      </trkpt>
      <trkpt lat="43.95463" lon="7.24193">
        <ele>1459</ele>
        <time>2018-05-13T07:57:40.000Z</time>
      </trkpt>
      <trkpt lat="43.95461" lon="7.24194">
        <ele>1459</ele>
        <time>2018-05-13T07:57:43.000Z</time>
      </trkpt>
      <trkpt lat="43.95461" lon="7.24194">
        <ele>1459</ele>
        <time>2018-05-13T07:57:45.000Z</time>
      </trkpt>
      <trkpt lat="43.95458" lon="7.24194">
        <ele>1460</ele>
        <time>2018-05-13T07:57:49.000Z</time>
      </trkpt>
      <trkpt lat="43.95456" lon="7.24193">
        <ele>1460</ele>
        <time>2018-05-13T07:57:51.000Z</time>
      </trkpt>
      <trkpt lat="43.95454" lon="7.24194">
        <ele>1460</ele>
        <time>2018-05-13T07:57:56.000Z</time>
      </trkpt>
      <trkpt lat="43.95454" lon="7.24194">
        <ele>1460</ele>
        <time>2018-05-13T07:57:58.000Z</time>
      </trkpt>
      <trkpt lat="43.95453" lon="7.24196">
        <ele>1460</ele>
        <time>2018-05-13T07:58:03.000Z</time>
      </trkpt>
      <trkpt lat="43.95451" lon="7.24197">
        <ele>1461</ele>
        <time>2018-05-13T07:58:04.000Z</time>
      </trkpt>
      <trkpt lat="43.9545" lon="7.24198">
        <ele>1461</ele>
        <time>2018-05-13T07:58:09.000Z</time>
      </trkpt>
      <trkpt lat="43.95449" lon="7.24199">
        <ele>1461</ele>
        <time>2018-05-13T07:58:11.000Z</time>
      </trkpt>
      <trkpt lat="43.95449" lon="7.24201">
        <ele>1461</ele>
        <time>2018-05-13T07:58:16.000Z</time>
      </trkpt>
      <trkpt lat="43.95447" lon="7.24204">
        <ele>1461</ele>
        <time>2018-05-13T07:58:22.000Z</time>
      </trkpt>
      <trkpt lat="43.95446" lon="7.24207">
        <ele>1461</ele>
        <time>2018-05-13T07:58:31.000Z</time>
      </trkpt>
      <trkpt lat="43.95446" lon="7.24209">
        <ele>1461</ele>
        <time>2018-05-13T07:58:37.000Z</time>
      </trkpt>
      <trkpt lat="43.95446" lon="7.24208">
        <ele>1461</ele>
        <time>2018-05-13T07:58:39.000Z</time>
      </trkpt>
      <trkpt lat="43.95447" lon="7.24208">
        <ele>1461</ele>
        <time>2018-05-13T07:58:42.000Z</time>
      </trkpt>
      <trkpt lat="43.95445" lon="7.24209">
        <ele>1461</ele>
        <time>2018-05-13T07:58:45.000Z</time>
      </trkpt>
      <trkpt lat="43.95445" lon="7.24209">
        <ele>1461</ele>
        <time>2018-05-13T07:58:47.000Z</time>
      </trkpt>
      <trkpt lat="43.95444" lon="7.24211">
        <ele>1461</ele>
        <time>2018-05-13T07:58:51.000Z</time>
      </trkpt>
      <trkpt lat="43.95444" lon="7.24213">
        <ele>1461</ele>
        <time>2018-05-13T07:58:54.000Z</time>
      </trkpt>
      <trkpt lat="43.95442" lon="7.24217">
        <ele>1462</ele>
        <time>2018-05-13T07:58:59.000Z</time>
      </trkpt>
      <trkpt lat="43.95442" lon="7.24217">
        <ele>1462</ele>
        <time>2018-05-13T07:59:00.000Z</time>
      </trkpt>
      <trkpt lat="43.95442" lon="7.24222">
        <ele>1462</ele>
        <time>2018-05-13T07:59:06.000Z</time>
      </trkpt>
      <trkpt lat="43.95442" lon="7.24222">
        <ele>1462</ele>
        <time>2018-05-13T07:59:07.000Z</time>
      </trkpt>
      <trkpt lat="43.9544" lon="7.24224">
        <ele>1462</ele>
        <time>2018-05-13T07:59:12.000Z</time>
      </trkpt>
      <trkpt lat="43.95438" lon="7.24224">
        <ele>1462</ele>
        <time>2018-05-13T07:59:13.000Z</time>
      </trkpt>
      <trkpt lat="43.95436" lon="7.24224">
        <ele>1463</ele>
        <time>2018-05-13T07:59:15.000Z</time>
      </trkpt>
      <trkpt lat="43.95435" lon="7.24225">
        <ele>1463</ele>
        <time>2018-05-13T07:59:17.000Z</time>
      </trkpt>
      <trkpt lat="43.95436" lon="7.24226">
        <ele>1463</ele>
        <time>2018-05-13T07:59:19.000Z</time>
      </trkpt>
      <trkpt lat="43.95435" lon="7.24228">
        <ele>1463</ele>
        <time>2018-05-13T07:59:23.000Z</time>
      </trkpt>
      <trkpt lat="43.95435" lon="7.2423">
        <ele>1463</ele>
        <time>2018-05-13T07:59:24.000Z</time>
      </trkpt>
      <trkpt lat="43.95433" lon="7.24231">
        <ele>1464</ele>
        <time>2018-05-13T07:59:29.000Z</time>
      </trkpt>
      <trkpt lat="43.95428" lon="7.24232">
        <ele>1465</ele>
        <time>2018-05-13T07:59:35.000Z</time>
      </trkpt>
      <trkpt lat="43.95428" lon="7.24234">
        <ele>1465</ele>
        <time>2018-05-13T07:59:40.000Z</time>
      </trkpt>
      <trkpt lat="43.95428" lon="7.24235">
        <ele>1465</ele>
        <time>2018-05-13T07:59:41.000Z</time>
      </trkpt>
      <trkpt lat="43.95427" lon="7.24236">
        <ele>1465</ele>
        <time>2018-05-13T07:59:45.000Z</time>
      </trkpt>
      <trkpt lat="43.95425" lon="7.24237">
        <ele>1466</ele>
        <time>2018-05-13T07:59:47.000Z</time>
      </trkpt>
      <trkpt lat="43.95424" lon="7.24237">
        <ele>1466</ele>
        <time>2018-05-13T07:59:49.000Z</time>
      </trkpt>
      <trkpt lat="43.95422" lon="7.24238">
        <ele>1466</ele>
        <time>2018-05-13T07:59:51.000Z</time>
      </trkpt>
      <trkpt lat="43.95422" lon="7.24239">
        <ele>1467</ele>
        <time>2018-05-13T07:59:53.000Z</time>
      </trkpt>
      <trkpt lat="43.95422" lon="7.2424">
        <ele>1467</ele>
        <time>2018-05-13T07:59:57.000Z</time>
      </trkpt>
      <trkpt lat="43.95422" lon="7.24241">
        <ele>1467</ele>
        <time>2018-05-13T07:59:59.000Z</time>
      </trkpt>
      <trkpt lat="43.9542" lon="7.24243">
        <ele>1468</ele>
        <time>2018-05-13T08:00:02.000Z</time>
      </trkpt>
      <trkpt lat="43.95418" lon="7.24244">
        <ele>1469</ele>
        <time>2018-05-13T08:00:04.000Z</time>
      </trkpt>
      <trkpt lat="43.95416" lon="7.24248">
        <ele>1472</ele>
        <time>2018-05-13T08:00:10.000Z</time>
      </trkpt>
      <trkpt lat="43.95415" lon="7.24249">
        <ele>1472</ele>
        <time>2018-05-13T08:00:11.000Z</time>
      </trkpt>
      <trkpt lat="43.95414" lon="7.2425">
        <ele>1470</ele>
        <time>2018-05-13T08:00:12.000Z</time>
      </trkpt>
      <trkpt lat="43.95413" lon="7.24254">
        <ele>1469</ele>
        <time>2018-05-13T08:00:16.000Z</time>
      </trkpt>
      <trkpt lat="43.95412" lon="7.24255">
        <ele>1469</ele>
        <time>2018-05-13T08:00:18.000Z</time>
      </trkpt>
      <trkpt lat="43.95412" lon="7.24256">
        <ele>1469</ele>
        <time>2018-05-13T08:00:21.000Z</time>
      </trkpt>
      <trkpt lat="43.9541" lon="7.24259">
        <ele>1468</ele>
        <time>2018-05-13T08:00:26.000Z</time>
      </trkpt>
      <trkpt lat="43.95408" lon="7.2426">
        <ele>1467</ele>
        <time>2018-05-13T08:00:31.000Z</time>
      </trkpt>
      <trkpt lat="43.95407" lon="7.24261">
        <ele>1467</ele>
        <time>2018-05-13T08:00:32.000Z</time>
      </trkpt>
      <trkpt lat="43.95398" lon="7.24259">
        <ele>1467</ele>
        <time>2018-05-13T08:00:37.000Z</time>
      </trkpt>
      <trkpt lat="43.95395" lon="7.2426">
        <ele>1467</ele>
        <time>2018-05-13T08:00:38.000Z</time>
      </trkpt>
      <trkpt lat="43.95386" lon="7.24262">
        <ele>1467</ele>
        <time>2018-05-13T08:00:42.000Z</time>
      </trkpt>
      <trkpt lat="43.9538" lon="7.2426">
        <ele>1467</ele>
        <time>2018-05-13T08:00:44.000Z</time>
      </trkpt>
      <trkpt lat="43.95368" lon="7.24261">
        <ele>1469</ele>
        <time>2018-05-13T08:00:48.000Z</time>
      </trkpt>
      <trkpt lat="43.9536" lon="7.24264">
        <ele>1470</ele>
        <time>2018-05-13T08:00:50.000Z</time>
      </trkpt>
      <trkpt lat="43.95355" lon="7.24265">
        <ele>1471</ele>
        <time>2018-05-13T08:00:51.000Z</time>
      </trkpt>
      <trkpt lat="43.95346" lon="7.24265">
        <ele>1474</ele>
        <time>2018-05-13T08:00:53.000Z</time>
      </trkpt>
      <trkpt lat="43.95342" lon="7.24264">
        <ele>1475</ele>
        <time>2018-05-13T08:00:56.000Z</time>
      </trkpt>
      <trkpt lat="43.95338" lon="7.24265">
        <ele>1476</ele>
        <time>2018-05-13T08:01:00.000Z</time>
      </trkpt>
      <trkpt lat="43.95335" lon="7.24266">
        <ele>1475</ele>
        <time>2018-05-13T08:01:03.000Z</time>
      </trkpt>
      <trkpt lat="43.95334" lon="7.24266">
        <ele>1475</ele>
        <time>2018-05-13T08:01:05.000Z</time>
      </trkpt>
      <trkpt lat="43.95332" lon="7.24267">
        <ele>1480</ele>
        <time>2018-05-13T08:01:07.000Z</time>
      </trkpt>
      <trkpt lat="43.9533" lon="7.24268">
        <ele>1480</ele>
        <time>2018-05-13T08:01:10.000Z</time>
      </trkpt>
      <trkpt lat="43.95327" lon="7.24268">
        <ele>1480</ele>
        <time>2018-05-13T08:01:13.000Z</time>
      </trkpt>
      <trkpt lat="43.95323" lon="7.24267">
        <ele>1480</ele>
        <time>2018-05-13T08:01:17.000Z</time>
      </trkpt>
      <trkpt lat="43.95319" lon="7.24266">
        <ele>1480</ele>
        <time>2018-05-13T08:01:20.000Z</time>
      </trkpt>
      <trkpt lat="43.95313" lon="7.24264">
        <ele>1480</ele>
        <time>2018-05-13T08:01:26.000Z</time>
      </trkpt>
      <trkpt lat="43.95311" lon="7.24264">
        <ele>1480</ele>
        <time>2018-05-13T08:01:27.000Z</time>
      </trkpt>
      <trkpt lat="43.95307" lon="7.24265">
        <ele>1479</ele>
        <time>2018-05-13T08:01:32.000Z</time>
      </trkpt>
      <trkpt lat="43.95306" lon="7.24265">
        <ele>1479</ele>
        <time>2018-05-13T08:01:33.000Z</time>
      </trkpt>
      <trkpt lat="43.95297" lon="7.24268">
        <ele>1479</ele>
        <time>2018-05-13T08:01:38.000Z</time>
      </trkpt>
      <trkpt lat="43.95294" lon="7.24269">
        <ele>1479</ele>
        <time>2018-05-13T08:01:40.000Z</time>
      </trkpt>
      <trkpt lat="43.9529" lon="7.2427">
        <ele>1479</ele>
        <time>2018-05-13T08:01:44.000Z</time>
      </trkpt>
      <trkpt lat="43.95289" lon="7.2427">
        <ele>1479</ele>
        <time>2018-05-13T08:01:45.000Z</time>
      </trkpt>
      <trkpt lat="43.95287" lon="7.24269">
        <ele>1480</ele>
        <time>2018-05-13T08:01:49.000Z</time>
      </trkpt>
      <trkpt lat="43.95284" lon="7.24267">
        <ele>1480</ele>
        <time>2018-05-13T08:01:51.000Z</time>
      </trkpt>
      <trkpt lat="43.95281" lon="7.24264">
        <ele>1481</ele>
        <time>2018-05-13T08:01:57.000Z</time>
      </trkpt>
      <trkpt lat="43.95279" lon="7.24264">
        <ele>1482</ele>
        <time>2018-05-13T08:02:00.000Z</time>
      </trkpt>
      <trkpt lat="43.95277" lon="7.24264">
        <ele>1483</ele>
        <time>2018-05-13T08:02:03.000Z</time>
      </trkpt>
      <trkpt lat="43.95272" lon="7.24265">
        <ele>1484</ele>
        <time>2018-05-13T08:02:08.000Z</time>
      </trkpt>
      <trkpt lat="43.95272" lon="7.24265">
        <ele>1484</ele>
        <time>2018-05-13T08:02:09.000Z</time>
      </trkpt>
      <trkpt lat="43.95271" lon="7.24266">
        <ele>1484</ele>
        <time>2018-05-13T08:02:12.000Z</time>
      </trkpt>
      <trkpt lat="43.95268" lon="7.24269">
        <ele>1483</ele>
        <time>2018-05-13T08:02:14.000Z</time>
      </trkpt>
      <trkpt lat="43.95256" lon="7.24279">
        <ele>1481</ele>
        <time>2018-05-13T08:02:19.000Z</time>
      </trkpt>
      <trkpt lat="43.95248" lon="7.24289">
        <ele>1486</ele>
        <time>2018-05-13T08:02:22.000Z</time>
      </trkpt>
      <trkpt lat="43.95245" lon="7.24291">
        <ele>1486</ele>
        <time>2018-05-13T08:02:23.000Z</time>
      </trkpt>
      <trkpt lat="43.95243" lon="7.24291">
        <ele>1486</ele>
        <time>2018-05-13T08:02:24.000Z</time>
      </trkpt>
      <trkpt lat="43.95241" lon="7.2429">
        <ele>1486</ele>
        <time>2018-05-13T08:02:25.000Z</time>
      </trkpt>
      <trkpt lat="43.95237" lon="7.2429">
        <ele>1486</ele>
        <time>2018-05-13T08:02:27.000Z</time>
      </trkpt>
      <trkpt lat="43.95234" lon="7.24291">
        <ele>1486</ele>
        <time>2018-05-13T08:02:28.000Z</time>
      </trkpt>
      <trkpt lat="43.95232" lon="7.24293">
        <ele>1486</ele>
        <time>2018-05-13T08:02:29.000Z</time>
      </trkpt>
      <trkpt lat="43.95229" lon="7.24294">
        <ele>1486</ele>
        <time>2018-05-13T08:02:30.000Z</time>
      </trkpt>
      <trkpt lat="43.95225" lon="7.24294">
        <ele>1486</ele>
        <time>2018-05-13T08:02:32.000Z</time>
      </trkpt>
      <trkpt lat="43.95222" lon="7.24294">
        <ele>1486</ele>
        <time>2018-05-13T08:02:34.000Z</time>
      </trkpt>
      <trkpt lat="43.95222" lon="7.24294">
        <ele>1486</ele>
        <time>2018-05-13T08:02:37.000Z</time>
      </trkpt>
      <trkpt lat="43.9522" lon="7.24295">
        <ele>1486</ele>
        <time>2018-05-13T08:02:46.000Z</time>
      </trkpt>
      <trkpt lat="43.95217" lon="7.24296">
        <ele>1486</ele>
        <time>2018-05-13T08:02:51.000Z</time>
      </trkpt>
      <trkpt lat="43.95216" lon="7.24296">
        <ele>1486</ele>
        <time>2018-05-13T08:02:52.000Z</time>
      </trkpt>
      <trkpt lat="43.95213" lon="7.24298">
        <ele>1486</ele>
        <time>2018-05-13T08:02:56.000Z</time>
      </trkpt>
      <trkpt lat="43.9521" lon="7.24299">
        <ele>1487</ele>
        <time>2018-05-13T08:03:00.000Z</time>
      </trkpt>
      <trkpt lat="43.95209" lon="7.243">
        <ele>1487</ele>
        <time>2018-05-13T08:03:01.000Z</time>
      </trkpt>
      <trkpt lat="43.95208" lon="7.243">
        <ele>1487</ele>
        <time>2018-05-13T08:03:02.000Z</time>
      </trkpt>
      <trkpt lat="43.95206" lon="7.243">
        <ele>1487</ele>
        <time>2018-05-13T08:03:05.000Z</time>
      </trkpt>
      <trkpt lat="43.95206" lon="7.24301">
        <ele>1487</ele>
        <time>2018-05-13T08:03:06.000Z</time>
      </trkpt>
      <trkpt lat="43.95203" lon="7.24297">
        <ele>1488</ele>
        <time>2018-05-13T08:03:11.000Z</time>
      </trkpt>
      <trkpt lat="43.95202" lon="7.24295">
        <ele>1488</ele>
        <time>2018-05-13T08:03:16.000Z</time>
      </trkpt>
      <trkpt lat="43.95201" lon="7.24293">
        <ele>1488</ele>
        <time>2018-05-13T08:03:17.000Z</time>
      </trkpt>
      <trkpt lat="43.95198" lon="7.2429">
        <ele>1489</ele>
        <time>2018-05-13T08:03:21.000Z</time>
      </trkpt>
      <trkpt lat="43.95197" lon="7.24291">
        <ele>1489</ele>
        <time>2018-05-13T08:03:24.000Z</time>
      </trkpt>
      <trkpt lat="43.95195" lon="7.24292">
        <ele>1489</ele>
        <time>2018-05-13T08:03:26.000Z</time>
      </trkpt>
      <trkpt lat="43.95195" lon="7.24292">
        <ele>1489</ele>
        <time>2018-05-13T08:03:31.000Z</time>
      </trkpt>
      <trkpt lat="43.95197" lon="7.24295">
        <ele>1488</ele>
        <time>2018-05-13T08:03:35.000Z</time>
      </trkpt>
      <trkpt lat="43.95197" lon="7.24295">
        <ele>1488</ele>
        <time>2018-05-13T08:03:37.000Z</time>
      </trkpt>
      <trkpt lat="43.95197" lon="7.24297">
        <ele>1488</ele>
        <time>2018-05-13T08:03:39.000Z</time>
      </trkpt>
      <trkpt lat="43.95197" lon="7.24297">
        <ele>1488</ele>
        <time>2018-05-13T08:03:42.000Z</time>
      </trkpt>
      <trkpt lat="43.95196" lon="7.24299">
        <ele>1488</ele>
        <time>2018-05-13T08:03:45.000Z</time>
      </trkpt>
      <trkpt lat="43.95196" lon="7.243">
        <ele>1488</ele>
        <time>2018-05-13T08:03:48.000Z</time>
      </trkpt>
      <trkpt lat="43.95194" lon="7.243">
        <ele>1488</ele>
        <time>2018-05-13T08:03:49.000Z</time>
      </trkpt>
      <trkpt lat="43.95193" lon="7.243">
        <ele>1488</ele>
        <time>2018-05-13T08:03:52.000Z</time>
      </trkpt>
      <trkpt lat="43.95194" lon="7.243">
        <ele>1488</ele>
        <time>2018-05-13T08:03:53.000Z</time>
      </trkpt>
      <trkpt lat="43.95193" lon="7.24299">
        <ele>1488</ele>
        <time>2018-05-13T08:03:57.000Z</time>
      </trkpt>
      <trkpt lat="43.95195" lon="7.243">
        <ele>1488</ele>
        <time>2018-05-13T08:04:00.000Z</time>
      </trkpt>
      <trkpt lat="43.95198" lon="7.24301">
        <ele>1488</ele>
        <time>2018-05-13T08:04:04.000Z</time>
      </trkpt>
      <trkpt lat="43.95197" lon="7.24301">
        <ele>1488</ele>
        <time>2018-05-13T08:04:05.000Z</time>
      </trkpt>
      <trkpt lat="43.95199" lon="7.24304">
        <ele>1487</ele>
        <time>2018-05-13T08:04:10.000Z</time>
      </trkpt>
      <trkpt lat="43.95197" lon="7.24305">
        <ele>1488</ele>
        <time>2018-05-13T08:04:11.000Z</time>
      </trkpt>
      <trkpt lat="43.95196" lon="7.24306">
        <ele>1488</ele>
        <time>2018-05-13T08:04:15.000Z</time>
      </trkpt>
      <trkpt lat="43.95194" lon="7.24308">
        <ele>1488</ele>
        <time>2018-05-13T08:04:17.000Z</time>
      </trkpt>
      <trkpt lat="43.95193" lon="7.24309">
        <ele>1488</ele>
        <time>2018-05-13T08:04:21.000Z</time>
      </trkpt>
      <trkpt lat="43.95191" lon="7.24309">
        <ele>1488</ele>
        <time>2018-05-13T08:04:25.000Z</time>
      </trkpt>
      <trkpt lat="43.9519" lon="7.24309">
        <ele>1488</ele>
        <time>2018-05-13T08:04:26.000Z</time>
      </trkpt>
      <trkpt lat="43.95188" lon="7.2431">
        <ele>1488</ele>
        <time>2018-05-13T08:04:29.000Z</time>
      </trkpt>
      <trkpt lat="43.95186" lon="7.24312">
        <ele>1489</ele>
        <time>2018-05-13T08:04:33.000Z</time>
      </trkpt>
      <trkpt lat="43.95184" lon="7.24313">
        <ele>1489</ele>
        <time>2018-05-13T08:04:37.000Z</time>
      </trkpt>
      <trkpt lat="43.95181" lon="7.24315">
        <ele>1489</ele>
        <time>2018-05-13T08:04:42.000Z</time>
      </trkpt>
      <trkpt lat="43.9518" lon="7.24316">
        <ele>1489</ele>
        <time>2018-05-13T08:04:45.000Z</time>
      </trkpt>
      <trkpt lat="43.95177" lon="7.24318">
        <ele>1490</ele>
        <time>2018-05-13T08:04:51.000Z</time>
      </trkpt>
      <trkpt lat="43.95175" lon="7.2432">
        <ele>1490</ele>
        <time>2018-05-13T08:04:56.000Z</time>
      </trkpt>
      <trkpt lat="43.95175" lon="7.24321">
        <ele>1490</ele>
        <time>2018-05-13T08:04:57.000Z</time>
      </trkpt>
      <trkpt lat="43.95173" lon="7.24322">
        <ele>1490</ele>
        <time>2018-05-13T08:05:02.000Z</time>
      </trkpt>
      <trkpt lat="43.95171" lon="7.24321">
        <ele>1490</ele>
        <time>2018-05-13T08:05:05.000Z</time>
      </trkpt>
      <trkpt lat="43.95171" lon="7.2432">
        <ele>1490</ele>
        <time>2018-05-13T08:05:06.000Z</time>
      </trkpt>
      <trkpt lat="43.95171" lon="7.24318">
        <ele>1490</ele>
        <time>2018-05-13T08:05:08.000Z</time>
      </trkpt>
      <trkpt lat="43.95171" lon="7.24318">
        <ele>1490</ele>
        <time>2018-05-13T08:05:10.000Z</time>
      </trkpt>
      <trkpt lat="43.95171" lon="7.24313">
        <ele>1490</ele>
        <time>2018-05-13T08:05:18.000Z</time>
      </trkpt>
      <trkpt lat="43.95169" lon="7.24312">
        <ele>1490</ele>
        <time>2018-05-13T08:05:25.000Z</time>
      </trkpt>
      <trkpt lat="43.95169" lon="7.24315">
        <ele>1490</ele>
        <time>2018-05-13T08:05:28.000Z</time>
      </trkpt>
      <trkpt lat="43.95168" lon="7.24316">
        <ele>1490</ele>
        <time>2018-05-13T08:05:30.000Z</time>
      </trkpt>
      <trkpt lat="43.95168" lon="7.24316">
        <ele>1490</ele>
        <time>2018-05-13T08:05:33.000Z</time>
      </trkpt>
      <trkpt lat="43.95168" lon="7.24321">
        <ele>1491</ele>
        <time>2018-05-13T08:05:39.000Z</time>
      </trkpt>
      <trkpt lat="43.95168" lon="7.24322">
        <ele>1491</ele>
        <time>2018-05-13T08:05:40.000Z</time>
      </trkpt>
      <trkpt lat="43.95168" lon="7.24324">
        <ele>1491</ele>
        <time>2018-05-13T08:05:42.000Z</time>
      </trkpt>
      <trkpt lat="43.95166" lon="7.24324">
        <ele>1495</ele>
        <time>2018-05-13T08:05:45.000Z</time>
      </trkpt>
      <trkpt lat="43.95166" lon="7.24324">
        <ele>1495</ele>
        <time>2018-05-13T08:05:46.000Z</time>
      </trkpt>
      <trkpt lat="43.95163" lon="7.24324">
        <ele>1495</ele>
        <time>2018-05-13T08:05:50.000Z</time>
      </trkpt>
      <trkpt lat="43.95163" lon="7.24324">
        <ele>1495</ele>
        <time>2018-05-13T08:05:52.000Z</time>
      </trkpt>
      <trkpt lat="43.95163" lon="7.24324">
        <ele>1495</ele>
        <time>2018-05-13T08:05:53.000Z</time>
      </trkpt>
      <trkpt lat="43.9516" lon="7.24325">
        <ele>1495</ele>
        <time>2018-05-13T08:05:59.000Z</time>
      </trkpt>
      <trkpt lat="43.95159" lon="7.24327">
        <ele>1495</ele>
        <time>2018-05-13T08:06:05.000Z</time>
      </trkpt>
      <trkpt lat="43.95159" lon="7.24329">
        <ele>1495</ele>
        <time>2018-05-13T08:06:06.000Z</time>
      </trkpt>
      <trkpt lat="43.95158" lon="7.2433">
        <ele>1495</ele>
        <time>2018-05-13T08:06:12.000Z</time>
      </trkpt>
      <trkpt lat="43.95158" lon="7.2433">
        <ele>1495</ele>
        <time>2018-05-13T08:06:13.000Z</time>
      </trkpt>
      <trkpt lat="43.95156" lon="7.24333">
        <ele>1496</ele>
        <time>2018-05-13T08:06:19.000Z</time>
      </trkpt>
      <trkpt lat="43.95157" lon="7.24334">
        <ele>1493</ele>
        <time>2018-05-13T08:06:21.000Z</time>
      </trkpt>
      <trkpt lat="43.95158" lon="7.2434">
        <ele>1492</ele>
        <time>2018-05-13T08:06:28.000Z</time>
      </trkpt>
      <trkpt lat="43.95159" lon="7.24344">
        <ele>1492</ele>
        <time>2018-05-13T08:06:35.000Z</time>
      </trkpt>
      <trkpt lat="43.95158" lon="7.24349">
        <ele>1491</ele>
        <time>2018-05-13T08:06:42.000Z</time>
      </trkpt>
      <trkpt lat="43.95156" lon="7.24353">
        <ele>1490</ele>
        <time>2018-05-13T08:06:48.000Z</time>
      </trkpt>
      <trkpt lat="43.95156" lon="7.24353">
        <ele>1490</ele>
        <time>2018-05-13T08:06:49.000Z</time>
      </trkpt>
      <trkpt lat="43.95155" lon="7.24354">
        <ele>1490</ele>
        <time>2018-05-13T08:06:50.000Z</time>
      </trkpt>
      <trkpt lat="43.95154" lon="7.24356">
        <ele>1490</ele>
        <time>2018-05-13T08:06:53.000Z</time>
      </trkpt>
      <trkpt lat="43.95153" lon="7.24357">
        <ele>1490</ele>
        <time>2018-05-13T08:06:55.000Z</time>
      </trkpt>
      <trkpt lat="43.9515" lon="7.24359">
        <ele>1490</ele>
        <time>2018-05-13T08:06:59.000Z</time>
      </trkpt>
      <trkpt lat="43.95149" lon="7.24359">
        <ele>1490</ele>
        <time>2018-05-13T08:07:00.000Z</time>
      </trkpt>
      <trkpt lat="43.95148" lon="7.24359">
        <ele>1490</ele>
        <time>2018-05-13T08:07:01.000Z</time>
      </trkpt>
      <trkpt lat="43.95146" lon="7.24359">
        <ele>1490</ele>
        <time>2018-05-13T08:07:04.000Z</time>
      </trkpt>
      <trkpt lat="43.95145" lon="7.24359">
        <ele>1490</ele>
        <time>2018-05-13T08:07:06.000Z</time>
      </trkpt>
      <trkpt lat="43.95144" lon="7.24361">
        <ele>1490</ele>
        <time>2018-05-13T08:07:09.000Z</time>
      </trkpt>
      <trkpt lat="43.95136" lon="7.24368">
        <ele>1490</ele>
        <time>2018-05-13T08:07:17.000Z</time>
      </trkpt>
      <trkpt lat="43.95126" lon="7.24369">
        <ele>1492</ele>
        <time>2018-05-13T08:07:22.000Z</time>
      </trkpt>
      <trkpt lat="43.95119" lon="7.24364">
        <ele>1495</ele>
        <time>2018-05-13T08:07:26.000Z</time>
      </trkpt>
      <trkpt lat="43.95117" lon="7.24363">
        <ele>1496</ele>
        <time>2018-05-13T08:07:27.000Z</time>
      </trkpt>
      <trkpt lat="43.95114" lon="7.24363">
        <ele>1496</ele>
        <time>2018-05-13T08:07:29.000Z</time>
      </trkpt>
      <trkpt lat="43.95107" lon="7.24366">
        <ele>1498</ele>
        <time>2018-05-13T08:07:33.000Z</time>
      </trkpt>
      <trkpt lat="43.951" lon="7.24372">
        <ele>1498</ele>
        <time>2018-05-13T08:07:40.000Z</time>
      </trkpt>
      <trkpt lat="43.95098" lon="7.24373">
        <ele>1498</ele>
        <time>2018-05-13T08:07:42.000Z</time>
      </trkpt>
      <trkpt lat="43.95096" lon="7.24372">
        <ele>1498</ele>
        <time>2018-05-13T08:07:45.000Z</time>
      </trkpt>
      <trkpt lat="43.95093" lon="7.24371">
        <ele>1499</ele>
        <time>2018-05-13T08:07:48.000Z</time>
      </trkpt>
      <trkpt lat="43.95087" lon="7.24368">
        <ele>1501</ele>
        <time>2018-05-13T08:07:55.000Z</time>
      </trkpt>
      <trkpt lat="43.95087" lon="7.24368">
        <ele>1501</ele>
        <time>2018-05-13T08:07:56.000Z</time>
      </trkpt>
      <trkpt lat="43.95083" lon="7.24367">
        <ele>1520</ele>
        <time>2018-05-13T08:08:01.000Z</time>
      </trkpt>
      <trkpt lat="43.95082" lon="7.24366">
        <ele>1520</ele>
        <time>2018-05-13T08:08:02.000Z</time>
      </trkpt>
      <trkpt lat="43.95079" lon="7.24362">
        <ele>1521</ele>
        <time>2018-05-13T08:08:08.000Z</time>
      </trkpt>
      <trkpt lat="43.95079" lon="7.24361">
        <ele>1521</ele>
        <time>2018-05-13T08:08:09.000Z</time>
      </trkpt>
      <trkpt lat="43.95078" lon="7.24357">
        <ele>1522</ele>
        <time>2018-05-13T08:08:14.000Z</time>
      </trkpt>
      <trkpt lat="43.95078" lon="7.24357">
        <ele>1522</ele>
        <time>2018-05-13T08:08:16.000Z</time>
      </trkpt>
      <trkpt lat="43.95076" lon="7.24354">
        <ele>1522</ele>
        <time>2018-05-13T08:08:23.000Z</time>
      </trkpt>
      <trkpt lat="43.95071" lon="7.24351">
        <ele>1523</ele>
        <time>2018-05-13T08:08:29.000Z</time>
      </trkpt>
      <trkpt lat="43.95067" lon="7.24345">
        <ele>1523</ele>
        <time>2018-05-13T08:08:34.000Z</time>
      </trkpt>
      <trkpt lat="43.95063" lon="7.24335">
        <ele>1523</ele>
        <time>2018-05-13T08:08:40.000Z</time>
      </trkpt>
      <trkpt lat="43.95062" lon="7.24332">
        <ele>1512</ele>
        <time>2018-05-13T08:08:42.000Z</time>
      </trkpt>
      <trkpt lat="43.95061" lon="7.24325">
        <ele>1511</ele>
        <time>2018-05-13T08:08:47.000Z</time>
      </trkpt>
      <trkpt lat="43.95057" lon="7.24313">
        <ele>1507</ele>
        <time>2018-05-13T08:08:56.000Z</time>
      </trkpt>
      <trkpt lat="43.95055" lon="7.24312">
        <ele>1506</ele>
        <time>2018-05-13T08:09:03.000Z</time>
      </trkpt>
      <trkpt lat="43.95053" lon="7.24312">
        <ele>1506</ele>
        <time>2018-05-13T08:09:10.000Z</time>
      </trkpt>
      <trkpt lat="43.9505" lon="7.24312">
        <ele>1506</ele>
        <time>2018-05-13T08:09:16.000Z</time>
      </trkpt>
      <trkpt lat="43.95043" lon="7.24318">
        <ele>1507</ele>
        <time>2018-05-13T08:09:21.000Z</time>
      </trkpt>
      <trkpt lat="43.95042" lon="7.2432">
        <ele>1507</ele>
        <time>2018-05-13T08:09:22.000Z</time>
      </trkpt>
      <trkpt lat="43.9504" lon="7.2432">
        <ele>1507</ele>
        <time>2018-05-13T08:09:24.000Z</time>
      </trkpt>
      <trkpt lat="43.95038" lon="7.24321">
        <ele>1507</ele>
        <time>2018-05-13T08:09:26.000Z</time>
      </trkpt>
      <trkpt lat="43.95037" lon="7.24322">
        <ele>1508</ele>
        <time>2018-05-13T08:09:27.000Z</time>
      </trkpt>
      <trkpt lat="43.95036" lon="7.24323">
        <ele>1508</ele>
        <time>2018-05-13T08:09:28.000Z</time>
      </trkpt>
      <trkpt lat="43.95036" lon="7.24324">
        <ele>1508</ele>
        <time>2018-05-13T08:09:29.000Z</time>
      </trkpt>
      <trkpt lat="43.95033" lon="7.24328">
        <ele>1509</ele>
        <time>2018-05-13T08:09:32.000Z</time>
      </trkpt>
      <trkpt lat="43.95031" lon="7.24329">
        <ele>1509</ele>
        <time>2018-05-13T08:09:33.000Z</time>
      </trkpt>
      <trkpt lat="43.95024" lon="7.2433">
        <ele>1511</ele>
        <time>2018-05-13T08:09:35.000Z</time>
      </trkpt>
      <trkpt lat="43.95019" lon="7.24334">
        <ele>1524</ele>
        <time>2018-05-13T08:09:37.000Z</time>
      </trkpt>
      <trkpt lat="43.95016" lon="7.24337">
        <ele>1525</ele>
        <time>2018-05-13T08:09:39.000Z</time>
      </trkpt>
      <trkpt lat="43.95015" lon="7.24339">
        <ele>1525</ele>
        <time>2018-05-13T08:09:40.000Z</time>
      </trkpt>
      <trkpt lat="43.95014" lon="7.24342">
        <ele>1525</ele>
        <time>2018-05-13T08:09:42.000Z</time>
      </trkpt>
      <trkpt lat="43.95012" lon="7.24344">
        <ele>1525</ele>
        <time>2018-05-13T08:09:44.000Z</time>
      </trkpt>
      <trkpt lat="43.95011" lon="7.24344">
        <ele>1525</ele>
        <time>2018-05-13T08:09:45.000Z</time>
      </trkpt>
      <trkpt lat="43.95006" lon="7.24348">
        <ele>1525</ele>
        <time>2018-05-13T08:09:48.000Z</time>
      </trkpt>
      <trkpt lat="43.95003" lon="7.24352">
        <ele>1525</ele>
        <time>2018-05-13T08:09:50.000Z</time>
      </trkpt>
      <trkpt lat="43.94998" lon="7.24354">
        <ele>1524</ele>
        <time>2018-05-13T08:09:52.000Z</time>
      </trkpt>
      <trkpt lat="43.94996" lon="7.24356">
        <ele>1524</ele>
        <time>2018-05-13T08:09:53.000Z</time>
      </trkpt>
      <trkpt lat="43.94993" lon="7.24357">
        <ele>1524</ele>
        <time>2018-05-13T08:09:54.000Z</time>
      </trkpt>
      <trkpt lat="43.94985" lon="7.2436">
        <ele>1524</ele>
        <time>2018-05-13T08:09:56.000Z</time>
      </trkpt>
      <trkpt lat="43.94981" lon="7.2436">
        <ele>1524</ele>
        <time>2018-05-13T08:09:57.000Z</time>
      </trkpt>
      <trkpt lat="43.94977" lon="7.2436">
        <ele>1523</ele>
        <time>2018-05-13T08:09:58.000Z</time>
      </trkpt>
      <trkpt lat="43.94973" lon="7.24358">
        <ele>1522</ele>
        <time>2018-05-13T08:09:59.000Z</time>
      </trkpt>
      <trkpt lat="43.94969" lon="7.24355">
        <ele>1522</ele>
        <time>2018-05-13T08:10:00.000Z</time>
      </trkpt>
      <trkpt lat="43.94965" lon="7.24352">
        <ele>1521</ele>
        <time>2018-05-13T08:10:01.000Z</time>
      </trkpt>
      <trkpt lat="43.94953" lon="7.24346">
        <ele>1517</ele>
        <time>2018-05-13T08:10:05.000Z</time>
      </trkpt>
      <trkpt lat="43.9495" lon="7.24345">
        <ele>1516</ele>
        <time>2018-05-13T08:10:06.000Z</time>
      </trkpt>
      <trkpt lat="43.94945" lon="7.24339">
        <ele>1514</ele>
        <time>2018-05-13T08:10:09.000Z</time>
      </trkpt>
      <trkpt lat="43.94941" lon="7.24338">
        <ele>1512</ele>
        <time>2018-05-13T08:10:11.000Z</time>
      </trkpt>
      <trkpt lat="43.94932" lon="7.24346">
        <ele>1511</ele>
        <time>2018-05-13T08:10:15.000Z</time>
      </trkpt>
      <trkpt lat="43.9493" lon="7.24349">
        <ele>1511</ele>
        <time>2018-05-13T08:10:16.000Z</time>
      </trkpt>
      <trkpt lat="43.94924" lon="7.24356">
        <ele>1512</ele>
        <time>2018-05-13T08:10:19.000Z</time>
      </trkpt>
      <trkpt lat="43.9492" lon="7.24362">
        <ele>1514</ele>
        <time>2018-05-13T08:10:21.000Z</time>
      </trkpt>
      <trkpt lat="43.94916" lon="7.24367">
        <ele>1494</ele>
        <time>2018-05-13T08:10:23.000Z</time>
      </trkpt>
      <trkpt lat="43.94912" lon="7.24377">
        <ele>1496</ele>
        <time>2018-05-13T08:10:26.000Z</time>
      </trkpt>
      <trkpt lat="43.94908" lon="7.24382">
        <ele>1498</ele>
        <time>2018-05-13T08:10:28.000Z</time>
      </trkpt>
      <trkpt lat="43.94903" lon="7.24385">
        <ele>1498</ele>
        <time>2018-05-13T08:10:30.000Z</time>
      </trkpt>
      <trkpt lat="43.94899" lon="7.2439">
        <ele>1498</ele>
        <time>2018-05-13T08:10:32.000Z</time>
      </trkpt>
      <trkpt lat="43.94895" lon="7.24394">
        <ele>1498</ele>
        <time>2018-05-13T08:10:34.000Z</time>
      </trkpt>
      <trkpt lat="43.94892" lon="7.24395">
        <ele>1497</ele>
        <time>2018-05-13T08:10:36.000Z</time>
      </trkpt>
      <trkpt lat="43.94891" lon="7.24395">
        <ele>1497</ele>
        <time>2018-05-13T08:10:37.000Z</time>
      </trkpt>
      <trkpt lat="43.94889" lon="7.24396">
        <ele>1496</ele>
        <time>2018-05-13T08:10:38.000Z</time>
      </trkpt>
      <trkpt lat="43.94886" lon="7.24396">
        <ele>1495</ele>
        <time>2018-05-13T08:10:40.000Z</time>
      </trkpt>
      <trkpt lat="43.94883" lon="7.24398">
        <ele>1494</ele>
        <time>2018-05-13T08:10:42.000Z</time>
      </trkpt>
      <trkpt lat="43.94881" lon="7.24398">
        <ele>1493</ele>
        <time>2018-05-13T08:10:43.000Z</time>
      </trkpt>
      <trkpt lat="43.94879" lon="7.24397">
        <ele>1492</ele>
        <time>2018-05-13T08:10:44.000Z</time>
      </trkpt>
      <trkpt lat="43.94879" lon="7.24398">
        <ele>1493</ele>
        <time>2018-05-13T08:10:45.000Z</time>
      </trkpt>
      <trkpt lat="43.94878" lon="7.24398">
        <ele>1492</ele>
        <time>2018-05-13T08:10:46.000Z</time>
      </trkpt>
      <trkpt lat="43.94876" lon="7.24399">
        <ele>1491</ele>
        <time>2018-05-13T08:10:47.000Z</time>
      </trkpt>
      <trkpt lat="43.94872" lon="7.24399">
        <ele>1490</ele>
        <time>2018-05-13T08:10:49.000Z</time>
      </trkpt>
      <trkpt lat="43.9487" lon="7.24398">
        <ele>1489</ele>
        <time>2018-05-13T08:10:50.000Z</time>
      </trkpt>
      <trkpt lat="43.94871" lon="7.24395">
        <ele>1489</ele>
        <time>2018-05-13T08:10:51.000Z</time>
      </trkpt>
      <trkpt lat="43.94875" lon="7.24393">
        <ele>1490</ele>
        <time>2018-05-13T08:10:53.000Z</time>
      </trkpt>
      <trkpt lat="43.94877" lon="7.24389">
        <ele>1490</ele>
        <time>2018-05-13T08:10:55.000Z</time>
      </trkpt>
      <trkpt lat="43.94878" lon="7.24387">
        <ele>1490</ele>
        <time>2018-05-13T08:10:56.000Z</time>
      </trkpt>
      <trkpt lat="43.9488" lon="7.24384">
        <ele>1490</ele>
        <time>2018-05-13T08:10:58.000Z</time>
      </trkpt>
      <trkpt lat="43.9488" lon="7.24384">
        <ele>1490</ele>
        <time>2018-05-13T08:11:00.000Z</time>
      </trkpt>
      <trkpt lat="43.94879" lon="7.24385">
        <ele>1490</ele>
        <time>2018-05-13T08:11:03.000Z</time>
      </trkpt>
      <trkpt lat="43.94877" lon="7.24382">
        <ele>1489</ele>
        <time>2018-05-13T08:11:06.000Z</time>
      </trkpt>
      <trkpt lat="43.94877" lon="7.24381">
        <ele>1489</ele>
        <time>2018-05-13T08:11:07.000Z</time>
      </trkpt>
      <trkpt lat="43.94877" lon="7.24379">
        <ele>1488</ele>
        <time>2018-05-13T08:11:09.000Z</time>
      </trkpt>
      <trkpt lat="43.94878" lon="7.24378">
        <ele>1488</ele>
        <time>2018-05-13T08:11:10.000Z</time>
      </trkpt>
      <trkpt lat="43.94878" lon="7.24378">
        <ele>1488</ele>
        <time>2018-05-13T08:11:12.000Z</time>
      </trkpt>
      <trkpt lat="43.9488" lon="7.24375">
        <ele>1489</ele>
        <time>2018-05-13T08:11:14.000Z</time>
      </trkpt>
      <trkpt lat="43.94885" lon="7.2437">
        <ele>1489</ele>
        <time>2018-05-13T08:11:17.000Z</time>
      </trkpt>
      <trkpt lat="43.94885" lon="7.24368">
        <ele>1489</ele>
        <time>2018-05-13T08:11:18.000Z</time>
      </trkpt>
      <trkpt lat="43.94887" lon="7.24354">
        <ele>1487</ele>
        <time>2018-05-13T08:11:22.000Z</time>
      </trkpt>
      <trkpt lat="43.9489" lon="7.24344">
        <ele>1487</ele>
        <time>2018-05-13T08:11:26.000Z</time>
      </trkpt>
      <trkpt lat="43.9489" lon="7.24341">
        <ele>1487</ele>
        <time>2018-05-13T08:11:27.000Z</time>
      </trkpt>
      <trkpt lat="43.9489" lon="7.2434">
        <ele>1487</ele>
        <time>2018-05-13T08:11:28.000Z</time>
      </trkpt>
      <trkpt lat="43.9489" lon="7.24336">
        <ele>1487</ele>
        <time>2018-05-13T08:11:29.000Z</time>
      </trkpt>
      <trkpt lat="43.9489" lon="7.24336">
        <ele>1487</ele>
        <time>2018-05-13T08:11:31.000Z</time>
      </trkpt>
      <trkpt lat="43.94889" lon="7.24335">
        <ele>1487</ele>
        <time>2018-05-13T08:11:34.000Z</time>
      </trkpt>
      <trkpt lat="43.94888" lon="7.24332">
        <ele>1469</ele>
        <time>2018-05-13T08:11:38.000Z</time>
      </trkpt>
      <trkpt lat="43.94886" lon="7.24331">
        <ele>1468</ele>
        <time>2018-05-13T08:11:41.000Z</time>
      </trkpt>
      <trkpt lat="43.94886" lon="7.24331">
        <ele>1468</ele>
        <time>2018-05-13T08:11:44.000Z</time>
      </trkpt>
      <trkpt lat="43.94884" lon="7.24329">
        <ele>1467</ele>
        <time>2018-05-13T08:11:47.000Z</time>
      </trkpt>
      <trkpt lat="43.94883" lon="7.24328">
        <ele>1466</ele>
        <time>2018-05-13T08:11:50.000Z</time>
      </trkpt>
      <trkpt lat="43.94881" lon="7.24329">
        <ele>1465</ele>
        <time>2018-05-13T08:11:53.000Z</time>
      </trkpt>
      <trkpt lat="43.94878" lon="7.24331">
        <ele>1464</ele>
        <time>2018-05-13T08:11:56.000Z</time>
      </trkpt>
      <trkpt lat="43.94878" lon="7.24332">
        <ele>1464</ele>
        <time>2018-05-13T08:11:57.000Z</time>
      </trkpt>
      <trkpt lat="43.94877" lon="7.24333">
        <ele>1482</ele>
        <time>2018-05-13T08:11:59.000Z</time>
      </trkpt>
      <trkpt lat="43.94877" lon="7.24335">
        <ele>1482</ele>
        <time>2018-05-13T08:12:02.000Z</time>
      </trkpt>
      <trkpt lat="43.94876" lon="7.24334">
        <ele>1482</ele>
        <time>2018-05-13T08:12:03.000Z</time>
      </trkpt>
      <trkpt lat="43.94876" lon="7.24335">
        <ele>1481</ele>
        <time>2018-05-13T08:12:06.000Z</time>
      </trkpt>
      <trkpt lat="43.94875" lon="7.24335">
        <ele>1481</ele>
        <time>2018-05-13T08:12:08.000Z</time>
      </trkpt>
      <trkpt lat="43.94869" lon="7.24342">
        <ele>1479</ele>
        <time>2018-05-13T08:12:13.000Z</time>
      </trkpt>
      <trkpt lat="43.94862" lon="7.24351">
        <ele>1478</ele>
        <time>2018-05-13T08:12:16.000Z</time>
      </trkpt>
      <trkpt lat="43.94859" lon="7.24359">
        <ele>1479</ele>
        <time>2018-05-13T08:12:18.000Z</time>
      </trkpt>
      <trkpt lat="43.94849" lon="7.24371">
        <ele>1479</ele>
        <time>2018-05-13T08:12:21.000Z</time>
      </trkpt>
      <trkpt lat="43.94845" lon="7.24376">
        <ele>1479</ele>
        <time>2018-05-13T08:12:22.000Z</time>
      </trkpt>
      <trkpt lat="43.9484" lon="7.2438">
        <ele>1480</ele>
        <time>2018-05-13T08:12:23.000Z</time>
      </trkpt>
      <trkpt lat="43.94832" lon="7.24386">
        <ele>1454</ele>
        <time>2018-05-13T08:12:25.000Z</time>
      </trkpt>
      <trkpt lat="43.94829" lon="7.24389">
        <ele>1455</ele>
        <time>2018-05-13T08:12:26.000Z</time>
      </trkpt>
      <trkpt lat="43.94827" lon="7.24392">
        <ele>1456</ele>
        <time>2018-05-13T08:12:27.000Z</time>
      </trkpt>
      <trkpt lat="43.94822" lon="7.24398">
        <ele>1458</ele>
        <time>2018-05-13T08:12:29.000Z</time>
      </trkpt>
      <trkpt lat="43.94817" lon="7.24402">
        <ele>1457</ele>
        <time>2018-05-13T08:12:32.000Z</time>
      </trkpt>
      <trkpt lat="43.94804" lon="7.24414">
        <ele>1454</ele>
        <time>2018-05-13T08:12:37.000Z</time>
      </trkpt>
      <trkpt lat="43.94796" lon="7.24416">
        <ele>1450</ele>
        <time>2018-05-13T08:12:40.000Z</time>
      </trkpt>
      <trkpt lat="43.94794" lon="7.24416">
        <ele>1449</ele>
        <time>2018-05-13T08:12:41.000Z</time>
      </trkpt>
      <trkpt lat="43.94792" lon="7.24418">
        <ele>1468</ele>
        <time>2018-05-13T08:12:42.000Z</time>
      </trkpt>
      <trkpt lat="43.9479" lon="7.24421">
        <ele>1468</ele>
        <time>2018-05-13T08:12:43.000Z</time>
      </trkpt>
      <trkpt lat="43.94786" lon="7.24424">
        <ele>1466</ele>
        <time>2018-05-13T08:12:45.000Z</time>
      </trkpt>
      <trkpt lat="43.94785" lon="7.24419">
        <ele>1465</ele>
        <time>2018-05-13T08:12:47.000Z</time>
      </trkpt>
      <trkpt lat="43.94786" lon="7.24416">
        <ele>1447</ele>
        <time>2018-05-13T08:12:48.000Z</time>
      </trkpt>
      <trkpt lat="43.94787" lon="7.24411">
        <ele>1447</ele>
        <time>2018-05-13T08:12:49.000Z</time>
      </trkpt>
      <trkpt lat="43.94792" lon="7.24402">
        <ele>1447</ele>
        <time>2018-05-13T08:12:51.000Z</time>
      </trkpt>
      <trkpt lat="43.94794" lon="7.24401">
        <ele>1448</ele>
        <time>2018-05-13T08:12:52.000Z</time>
      </trkpt>
      <trkpt lat="43.94794" lon="7.24399">
        <ele>1448</ele>
        <time>2018-05-13T08:12:53.000Z</time>
      </trkpt>
      <trkpt lat="43.94795" lon="7.24393">
        <ele>1447</ele>
        <time>2018-05-13T08:12:55.000Z</time>
      </trkpt>
      <trkpt lat="43.94794" lon="7.24392">
        <ele>1447</ele>
        <time>2018-05-13T08:12:56.000Z</time>
      </trkpt>
      <trkpt lat="43.94793" lon="7.24392">
        <ele>1447</ele>
        <time>2018-05-13T08:12:57.000Z</time>
      </trkpt>
      <trkpt lat="43.94788" lon="7.24395">
        <ele>1446</ele>
        <time>2018-05-13T08:12:59.000Z</time>
      </trkpt>
      <trkpt lat="43.94786" lon="7.24396">
        <ele>1445</ele>
        <time>2018-05-13T08:13:00.000Z</time>
      </trkpt>
      <trkpt lat="43.94779" lon="7.244">
        <ele>1444</ele>
        <time>2018-05-13T08:13:02.000Z</time>
      </trkpt>
      <trkpt lat="43.94776" lon="7.24404">
        <ele>1443</ele>
        <time>2018-05-13T08:13:04.000Z</time>
      </trkpt>
      <trkpt lat="43.94774" lon="7.24404">
        <ele>1443</ele>
        <time>2018-05-13T08:13:05.000Z</time>
      </trkpt>
      <trkpt lat="43.94773" lon="7.24401">
        <ele>1442</ele>
        <time>2018-05-13T08:13:06.000Z</time>
      </trkpt>
      <trkpt lat="43.94773" lon="7.24398">
        <ele>1442</ele>
        <time>2018-05-13T08:13:07.000Z</time>
      </trkpt>
      <trkpt lat="43.94775" lon="7.24392">
        <ele>1442</ele>
        <time>2018-05-13T08:13:09.000Z</time>
      </trkpt>
      <trkpt lat="43.94775" lon="7.24385">
        <ele>1442</ele>
        <time>2018-05-13T08:13:11.000Z</time>
      </trkpt>
      <trkpt lat="43.94778" lon="7.24379">
        <ele>1441</ele>
        <time>2018-05-13T08:13:13.000Z</time>
      </trkpt>
      <trkpt lat="43.94782" lon="7.24372">
        <ele>1441</ele>
        <time>2018-05-13T08:13:15.000Z</time>
      </trkpt>
      <trkpt lat="43.94781" lon="7.24369">
        <ele>1440</ele>
        <time>2018-05-13T08:13:17.000Z</time>
      </trkpt>
      <trkpt lat="43.94781" lon="7.2437">
        <ele>1441</ele>
        <time>2018-05-13T08:13:18.000Z</time>
      </trkpt>
      <trkpt lat="43.9478" lon="7.24367">
        <ele>1440</ele>
        <time>2018-05-13T08:13:19.000Z</time>
      </trkpt>
      <trkpt lat="43.94777" lon="7.24366">
        <ele>1439</ele>
        <time>2018-05-13T08:13:21.000Z</time>
      </trkpt>
      <trkpt lat="43.94775" lon="7.24368">
        <ele>1439</ele>
        <time>2018-05-13T08:13:22.000Z</time>
      </trkpt>
      <trkpt lat="43.94767" lon="7.24371">
        <ele>1438</ele>
        <time>2018-05-13T08:13:25.000Z</time>
      </trkpt>
      <trkpt lat="43.94763" lon="7.24371">
        <ele>1437</ele>
        <time>2018-05-13T08:13:27.000Z</time>
      </trkpt>
      <trkpt lat="43.94763" lon="7.24371">
        <ele>1437</ele>
        <time>2018-05-13T08:13:28.000Z</time>
      </trkpt>
      <trkpt lat="43.94762" lon="7.24371">
        <ele>1437</ele>
        <time>2018-05-13T08:13:29.000Z</time>
      </trkpt>
      <trkpt lat="43.94762" lon="7.24371">
        <ele>1437</ele>
        <time>2018-05-13T08:13:30.000Z</time>
      </trkpt>
      <trkpt lat="43.9476" lon="7.2437">
        <ele>1437</ele>
        <time>2018-05-13T08:13:31.000Z</time>
      </trkpt>
      <trkpt lat="43.94759" lon="7.24371">
        <ele>1437</ele>
        <time>2018-05-13T08:13:32.000Z</time>
      </trkpt>
      <trkpt lat="43.94754" lon="7.24373">
        <ele>1436</ele>
        <time>2018-05-13T08:13:35.000Z</time>
      </trkpt>
      <trkpt lat="43.94753" lon="7.24371">
        <ele>1436</ele>
        <time>2018-05-13T08:13:36.000Z</time>
      </trkpt>
      <trkpt lat="43.94752" lon="7.24368">
        <ele>1435</ele>
        <time>2018-05-13T08:13:37.000Z</time>
      </trkpt>
      <trkpt lat="43.94753" lon="7.24361">
        <ele>1433</ele>
        <time>2018-05-13T08:13:40.000Z</time>
      </trkpt>
      <trkpt lat="43.94756" lon="7.24355">
        <ele>1431</ele>
        <time>2018-05-13T08:13:43.000Z</time>
      </trkpt>
      <trkpt lat="43.94756" lon="7.24353">
        <ele>1430</ele>
        <time>2018-05-13T08:13:44.000Z</time>
      </trkpt>
      <trkpt lat="43.94756" lon="7.24353">
        <ele>1430</ele>
        <time>2018-05-13T08:13:45.000Z</time>
      </trkpt>
      <trkpt lat="43.94755" lon="7.2435">
        <ele>1428</ele>
        <time>2018-05-13T08:13:47.000Z</time>
      </trkpt>
      <trkpt lat="43.94753" lon="7.24348">
        <ele>1427</ele>
        <time>2018-05-13T08:13:48.000Z</time>
      </trkpt>
      <trkpt lat="43.94752" lon="7.24348">
        <ele>1427</ele>
        <time>2018-05-13T08:13:49.000Z</time>
      </trkpt>
      <trkpt lat="43.94748" lon="7.24349">
        <ele>1409</ele>
        <time>2018-05-13T08:13:52.000Z</time>
      </trkpt>
      <trkpt lat="43.94748" lon="7.24349">
        <ele>1409</ele>
        <time>2018-05-13T08:13:54.000Z</time>
      </trkpt>
      <trkpt lat="43.94748" lon="7.24348">
        <ele>1409</ele>
        <time>2018-05-13T08:13:56.000Z</time>
      </trkpt>
      <trkpt lat="43.94747" lon="7.24347">
        <ele>1409</ele>
        <time>2018-05-13T08:13:58.000Z</time>
      </trkpt>
      <trkpt lat="43.94747" lon="7.24348">
        <ele>1409</ele>
        <time>2018-05-13T08:14:00.000Z</time>
      </trkpt>
      <trkpt lat="43.94744" lon="7.24344">
        <ele>1409</ele>
        <time>2018-05-13T08:14:06.000Z</time>
      </trkpt>
      <trkpt lat="43.94741" lon="7.24343">
        <ele>1409</ele>
        <time>2018-05-13T08:14:08.000Z</time>
      </trkpt>
      <trkpt lat="43.94738" lon="7.2434">
        <ele>1408</ele>
        <time>2018-05-13T08:14:10.000Z</time>
      </trkpt>
      <trkpt lat="43.94735" lon="7.2434">
        <ele>1407</ele>
        <time>2018-05-13T08:14:11.000Z</time>
      </trkpt>
      <trkpt lat="43.94733" lon="7.2434">
        <ele>1407</ele>
        <time>2018-05-13T08:14:12.000Z</time>
      </trkpt>
      <trkpt lat="43.9473" lon="7.24339">
        <ele>1406</ele>
        <time>2018-05-13T08:14:13.000Z</time>
      </trkpt>
      <trkpt lat="43.94729" lon="7.24337">
        <ele>1405</ele>
        <time>2018-05-13T08:14:14.000Z</time>
      </trkpt>
      <trkpt lat="43.94725" lon="7.24334">
        <ele>1404</ele>
        <time>2018-05-13T08:14:16.000Z</time>
      </trkpt>
      <trkpt lat="43.94724" lon="7.24333">
        <ele>1394</ele>
        <time>2018-05-13T08:14:17.000Z</time>
      </trkpt>
      <trkpt lat="43.94721" lon="7.24332">
        <ele>1393</ele>
        <time>2018-05-13T08:14:18.000Z</time>
      </trkpt>
      <trkpt lat="43.94719" lon="7.24329">
        <ele>1392</ele>
        <time>2018-05-13T08:14:19.000Z</time>
      </trkpt>
      <trkpt lat="43.94718" lon="7.24327">
        <ele>1391</ele>
        <time>2018-05-13T08:14:20.000Z</time>
      </trkpt>
      <trkpt lat="43.94716" lon="7.24326">
        <ele>1391</ele>
        <time>2018-05-13T08:14:21.000Z</time>
      </trkpt>
      <trkpt lat="43.94714" lon="7.24324">
        <ele>1390</ele>
        <time>2018-05-13T08:14:22.000Z</time>
      </trkpt>
      <trkpt lat="43.94712" lon="7.24323">
        <ele>1389</ele>
        <time>2018-05-13T08:14:23.000Z</time>
      </trkpt>
      <trkpt lat="43.9471" lon="7.24322">
        <ele>1388</ele>
        <time>2018-05-13T08:14:24.000Z</time>
      </trkpt>
      <trkpt lat="43.94708" lon="7.24321">
        <ele>1387</ele>
        <time>2018-05-13T08:14:25.000Z</time>
      </trkpt>
      <trkpt lat="43.94705" lon="7.24321">
        <ele>1386</ele>
        <time>2018-05-13T08:14:26.000Z</time>
      </trkpt>
      <trkpt lat="43.94703" lon="7.24319">
        <ele>1385</ele>
        <time>2018-05-13T08:14:27.000Z</time>
      </trkpt>
      <trkpt lat="43.94701" lon="7.24318">
        <ele>1385</ele>
        <time>2018-05-13T08:14:28.000Z</time>
      </trkpt>
      <trkpt lat="43.94699" lon="7.24318">
        <ele>1384</ele>
        <time>2018-05-13T08:14:29.000Z</time>
      </trkpt>
      <trkpt lat="43.94694" lon="7.24319">
        <ele>1383</ele>
        <time>2018-05-13T08:14:31.000Z</time>
      </trkpt>
      <trkpt lat="43.9469" lon="7.24319">
        <ele>1382</ele>
        <time>2018-05-13T08:14:32.000Z</time>
      </trkpt>
      <trkpt lat="43.94684" lon="7.24321">
        <ele>1380</ele>
        <time>2018-05-13T08:14:34.000Z</time>
      </trkpt>
      <trkpt lat="43.9468" lon="7.24321">
        <ele>1379</ele>
        <time>2018-05-13T08:14:36.000Z</time>
      </trkpt>
      <trkpt lat="43.94676" lon="7.24321">
        <ele>1378</ele>
        <time>2018-05-13T08:14:38.000Z</time>
      </trkpt>
      <trkpt lat="43.94675" lon="7.24319">
        <ele>1378</ele>
        <time>2018-05-13T08:14:40.000Z</time>
      </trkpt>
      <trkpt lat="43.94676" lon="7.24314">
        <ele>1379</ele>
        <time>2018-05-13T08:14:42.000Z</time>
      </trkpt>
      <trkpt lat="43.94677" lon="7.24312">
        <ele>1379</ele>
        <time>2018-05-13T08:14:44.000Z</time>
      </trkpt>
      <trkpt lat="43.94675" lon="7.24308">
        <ele>1379</ele>
        <time>2018-05-13T08:14:47.000Z</time>
      </trkpt>
      <trkpt lat="43.94676" lon="7.24305">
        <ele>1379</ele>
        <time>2018-05-13T08:14:48.000Z</time>
      </trkpt>
      <trkpt lat="43.94677" lon="7.24304">
        <ele>1380</ele>
        <time>2018-05-13T08:14:49.000Z</time>
      </trkpt>
      <trkpt lat="43.94677" lon="7.24303">
        <ele>1380</ele>
        <time>2018-05-13T08:14:50.000Z</time>
      </trkpt>
      <trkpt lat="43.94677" lon="7.24301">
        <ele>1380</ele>
        <time>2018-05-13T08:14:52.000Z</time>
      </trkpt>
      <trkpt lat="43.94677" lon="7.243">
        <ele>1380</ele>
        <time>2018-05-13T08:14:53.000Z</time>
      </trkpt>
      <trkpt lat="43.94676" lon="7.243">
        <ele>1379</ele>
        <time>2018-05-13T08:14:54.000Z</time>
      </trkpt>
      <trkpt lat="43.94672" lon="7.24298">
        <ele>1379</ele>
        <time>2018-05-13T08:14:56.000Z</time>
      </trkpt>
      <trkpt lat="43.94665" lon="7.24293">
        <ele>1359</ele>
        <time>2018-05-13T08:14:59.000Z</time>
      </trkpt>
      <trkpt lat="43.94657" lon="7.24288">
        <ele>1358</ele>
        <time>2018-05-13T08:15:02.000Z</time>
      </trkpt>
      <trkpt lat="43.9465" lon="7.24282">
        <ele>1358</ele>
        <time>2018-05-13T08:15:04.000Z</time>
      </trkpt>
      <trkpt lat="43.94642" lon="7.24273">
        <ele>1357</ele>
        <time>2018-05-13T08:15:06.000Z</time>
      </trkpt>
      <trkpt lat="43.94636" lon="7.24268">
        <ele>1357</ele>
        <time>2018-05-13T08:15:07.000Z</time>
      </trkpt>
      <trkpt lat="43.94633" lon="7.24262">
        <ele>1357</ele>
        <time>2018-05-13T08:15:08.000Z</time>
      </trkpt>
      <trkpt lat="43.94628" lon="7.24249">
        <ele>1360</ele>
        <time>2018-05-13T08:15:10.000Z</time>
      </trkpt>
      <trkpt lat="43.94623" lon="7.24239">
        <ele>1360</ele>
        <time>2018-05-13T08:15:12.000Z</time>
      </trkpt>
      <trkpt lat="43.94621" lon="7.24234">
        <ele>1360</ele>
        <time>2018-05-13T08:15:13.000Z</time>
      </trkpt>
      <trkpt lat="43.94621" lon="7.24223">
        <ele>1360</ele>
        <time>2018-05-13T08:15:15.000Z</time>
      </trkpt>
      <trkpt lat="43.94619" lon="7.2422">
        <ele>1360</ele>
        <time>2018-05-13T08:15:16.000Z</time>
      </trkpt>
      <trkpt lat="43.94612" lon="7.2421">
        <ele>1360</ele>
        <time>2018-05-13T08:15:21.000Z</time>
      </trkpt>
      <trkpt lat="43.94609" lon="7.24204">
        <ele>1361</ele>
        <time>2018-05-13T08:15:23.000Z</time>
      </trkpt>
      <trkpt lat="43.94604" lon="7.24195">
        <ele>1362</ele>
        <time>2018-05-13T08:15:26.000Z</time>
      </trkpt>
      <trkpt lat="43.94601" lon="7.24188">
        <ele>1363</ele>
        <time>2018-05-13T08:15:28.000Z</time>
      </trkpt>
      <trkpt lat="43.94597" lon="7.24181">
        <ele>1364</ele>
        <time>2018-05-13T08:15:31.000Z</time>
      </trkpt>
      <trkpt lat="43.94592" lon="7.24171">
        <ele>1367</ele>
        <time>2018-05-13T08:15:36.000Z</time>
      </trkpt>
      <trkpt lat="43.9459" lon="7.24168">
        <ele>1368</ele>
        <time>2018-05-13T08:15:37.000Z</time>
      </trkpt>
      <trkpt lat="43.94586" lon="7.24157">
        <ele>1364</ele>
        <time>2018-05-13T08:15:39.000Z</time>
      </trkpt>
      <trkpt lat="43.94585" lon="7.24153">
        <ele>1361</ele>
        <time>2018-05-13T08:15:40.000Z</time>
      </trkpt>
      <trkpt lat="43.94583" lon="7.24149">
        <ele>1373</ele>
        <time>2018-05-13T08:15:41.000Z</time>
      </trkpt>
      <trkpt lat="43.94578" lon="7.24143">
        <ele>1374</ele>
        <time>2018-05-13T08:15:43.000Z</time>
      </trkpt>
      <trkpt lat="43.94576" lon="7.24141">
        <ele>1374</ele>
        <time>2018-05-13T08:15:44.000Z</time>
      </trkpt>
      <trkpt lat="43.94574" lon="7.24139">
        <ele>1374</ele>
        <time>2018-05-13T08:15:45.000Z</time>
      </trkpt>
      <trkpt lat="43.94571" lon="7.24131">
        <ele>1374</ele>
        <time>2018-05-13T08:15:50.000Z</time>
      </trkpt>
      <trkpt lat="43.94568" lon="7.24126">
        <ele>1373</ele>
        <time>2018-05-13T08:15:53.000Z</time>
      </trkpt>
      <trkpt lat="43.94567" lon="7.24124">
        <ele>1373</ele>
        <time>2018-05-13T08:15:55.000Z</time>
      </trkpt>
      <trkpt lat="43.94567" lon="7.24122">
        <ele>1373</ele>
        <time>2018-05-13T08:15:56.000Z</time>
      </trkpt>
      <trkpt lat="43.94566" lon="7.24118">
        <ele>1373</ele>
        <time>2018-05-13T08:15:59.000Z</time>
      </trkpt>
      <trkpt lat="43.94565" lon="7.24116">
        <ele>1373</ele>
        <time>2018-05-13T08:16:00.000Z</time>
      </trkpt>
      <trkpt lat="43.94565" lon="7.2411">
        <ele>1372</ele>
        <time>2018-05-13T08:16:03.000Z</time>
      </trkpt>
      <trkpt lat="43.94565" lon="7.24107">
        <ele>1371</ele>
        <time>2018-05-13T08:16:05.000Z</time>
      </trkpt>
      <trkpt lat="43.94567" lon="7.24098">
        <ele>1368</ele>
        <time>2018-05-13T08:16:10.000Z</time>
      </trkpt>
      <trkpt lat="43.94565" lon="7.24088">
        <ele>1367</ele>
        <time>2018-05-13T08:16:15.000Z</time>
      </trkpt>
      <trkpt lat="43.94562" lon="7.24077">
        <ele>1361</ele>
        <time>2018-05-13T08:16:20.000Z</time>
      </trkpt>
      <trkpt lat="43.94562" lon="7.24068">
        <ele>1361</ele>
        <time>2018-05-13T08:16:25.000Z</time>
      </trkpt>
      <trkpt lat="43.94563" lon="7.24063">
        <ele>1361</ele>
        <time>2018-05-13T08:16:29.000Z</time>
      </trkpt>
      <trkpt lat="43.94563" lon="7.24061">
        <ele>1361</ele>
        <time>2018-05-13T08:16:30.000Z</time>
      </trkpt>
      <trkpt lat="43.94562" lon="7.24053">
        <ele>1361</ele>
        <time>2018-05-13T08:16:35.000Z</time>
      </trkpt>
      <trkpt lat="43.94562" lon="7.2405">
        <ele>1361</ele>
        <time>2018-05-13T08:16:36.000Z</time>
      </trkpt>
      <trkpt lat="43.94559" lon="7.2403">
        <ele>1359</ele>
        <time>2018-05-13T08:16:40.000Z</time>
      </trkpt>
      <trkpt lat="43.94559" lon="7.24027">
        <ele>1359</ele>
        <time>2018-05-13T08:16:41.000Z</time>
      </trkpt>
      <trkpt lat="43.94556" lon="7.2402">
        <ele>1358</ele>
        <time>2018-05-13T08:16:44.000Z</time>
      </trkpt>
      <trkpt lat="43.94553" lon="7.24007">
        <ele>1358</ele>
        <time>2018-05-13T08:16:49.000Z</time>
      </trkpt>
      <trkpt lat="43.94552" lon="7.23997">
        <ele>1341</ele>
        <time>2018-05-13T08:16:56.000Z</time>
      </trkpt>
      <trkpt lat="43.9455" lon="7.23987">
        <ele>1339</ele>
        <time>2018-05-13T08:17:02.000Z</time>
      </trkpt>
      <trkpt lat="43.94549" lon="7.23986">
        <ele>1339</ele>
        <time>2018-05-13T08:17:03.000Z</time>
      </trkpt>
      <trkpt lat="43.94547" lon="7.23984">
        <ele>1339</ele>
        <time>2018-05-13T08:17:08.000Z</time>
      </trkpt>
      <trkpt lat="43.9454" lon="7.23985">
        <ele>1340</ele>
        <time>2018-05-13T08:17:13.000Z</time>
      </trkpt>
      <trkpt lat="43.94528" lon="7.2399">
        <ele>1342</ele>
        <time>2018-05-13T08:17:18.000Z</time>
      </trkpt>
      <trkpt lat="43.94525" lon="7.23992">
        <ele>1343</ele>
        <time>2018-05-13T08:17:19.000Z</time>
      </trkpt>
      <trkpt lat="43.94522" lon="7.23994">
        <ele>1344</ele>
        <time>2018-05-13T08:17:20.000Z</time>
      </trkpt>
      <trkpt lat="43.94511" lon="7.23999">
        <ele>1350</ele>
        <time>2018-05-13T08:17:23.000Z</time>
      </trkpt>
      <trkpt lat="43.94508" lon="7.24">
        <ele>1352</ele>
        <time>2018-05-13T08:17:24.000Z</time>
      </trkpt>
      <trkpt lat="43.94503" lon="7.24003">
        <ele>1359</ele>
        <time>2018-05-13T08:17:25.000Z</time>
      </trkpt>
      <trkpt lat="43.94497" lon="7.24008">
        <ele>1362</ele>
        <time>2018-05-13T08:17:27.000Z</time>
      </trkpt>
      <trkpt lat="43.94493" lon="7.24007">
        <ele>1363</ele>
        <time>2018-05-13T08:17:28.000Z</time>
      </trkpt>
      <trkpt lat="43.94483" lon="7.24011">
        <ele>1365</ele>
        <time>2018-05-13T08:17:30.000Z</time>
      </trkpt>
      <trkpt lat="43.94478" lon="7.24012">
        <ele>1366</ele>
        <time>2018-05-13T08:17:31.000Z</time>
      </trkpt>
      <trkpt lat="43.94472" lon="7.24012">
        <ele>1367</ele>
        <time>2018-05-13T08:17:32.000Z</time>
      </trkpt>
      <trkpt lat="43.94459" lon="7.24012">
        <ele>1367</ele>
        <time>2018-05-13T08:17:34.000Z</time>
      </trkpt>
      <trkpt lat="43.94456" lon="7.24013">
        <ele>1367</ele>
        <time>2018-05-13T08:17:35.000Z</time>
      </trkpt>
      <trkpt lat="43.94452" lon="7.24014">
        <ele>1367</ele>
        <time>2018-05-13T08:17:36.000Z</time>
      </trkpt>
      <trkpt lat="43.94446" lon="7.24015">
        <ele>1367</ele>
        <time>2018-05-13T08:17:39.000Z</time>
      </trkpt>
      <trkpt lat="43.94438" lon="7.24015">
        <ele>1366</ele>
        <time>2018-05-13T08:17:42.000Z</time>
      </trkpt>
      <trkpt lat="43.9443" lon="7.24012">
        <ele>1363</ele>
        <time>2018-05-13T08:17:45.000Z</time>
      </trkpt>
      <trkpt lat="43.94408" lon="7.2401">
        <ele>1361</ele>
        <time>2018-05-13T08:17:51.000Z</time>
      </trkpt>
      <trkpt lat="43.94404" lon="7.2401">
        <ele>1363</ele>
        <time>2018-05-13T08:17:52.000Z</time>
      </trkpt>
      <trkpt lat="43.94394" lon="7.2401">
        <ele>1364</ele>
        <time>2018-05-13T08:17:54.000Z</time>
      </trkpt>
      <trkpt lat="43.94386" lon="7.24011">
        <ele>1366</ele>
        <time>2018-05-13T08:17:56.000Z</time>
      </trkpt>
      <trkpt lat="43.94381" lon="7.2401">
        <ele>1366</ele>
        <time>2018-05-13T08:17:57.000Z</time>
      </trkpt>
      <trkpt lat="43.94348" lon="7.24007">
        <ele>1363</ele>
        <time>2018-05-13T08:18:04.000Z</time>
      </trkpt>
      <trkpt lat="43.94342" lon="7.24007">
        <ele>1361</ele>
        <time>2018-05-13T08:18:05.000Z</time>
      </trkpt>
      <trkpt lat="43.94338" lon="7.24009">
        <ele>1361</ele>
        <time>2018-05-13T08:18:06.000Z</time>
      </trkpt>
      <trkpt lat="43.94333" lon="7.24007">
        <ele>1360</ele>
        <time>2018-05-13T08:18:08.000Z</time>
      </trkpt>
      <trkpt lat="43.94326" lon="7.24006">
        <ele>1361</ele>
        <time>2018-05-13T08:18:09.000Z</time>
      </trkpt>
      <trkpt lat="43.94322" lon="7.24005">
        <ele>1363</ele>
        <time>2018-05-13T08:18:10.000Z</time>
      </trkpt>
      <trkpt lat="43.94319" lon="7.24004">
        <ele>1364</ele>
        <time>2018-05-13T08:18:11.000Z</time>
      </trkpt>
      <trkpt lat="43.94306" lon="7.23996">
        <ele>1351</ele>
        <time>2018-05-13T08:18:14.000Z</time>
      </trkpt>
      <trkpt lat="43.94301" lon="7.23994">
        <ele>1350</ele>
        <time>2018-05-13T08:18:15.000Z</time>
      </trkpt>
      <trkpt lat="43.94287" lon="7.23988">
        <ele>1351</ele>
        <time>2018-05-13T08:18:18.000Z</time>
      </trkpt>
      <trkpt lat="43.94283" lon="7.23989">
        <ele>1352</ele>
        <time>2018-05-13T08:18:19.000Z</time>
      </trkpt>
      <trkpt lat="43.94272" lon="7.23987">
        <ele>1354</ele>
        <time>2018-05-13T08:18:21.000Z</time>
      </trkpt>
      <trkpt lat="43.9426" lon="7.23982">
        <ele>1355</ele>
        <time>2018-05-13T08:18:23.000Z</time>
      </trkpt>
      <trkpt lat="43.94255" lon="7.23977">
        <ele>1353</ele>
        <time>2018-05-13T08:18:24.000Z</time>
      </trkpt>
      <trkpt lat="43.94248" lon="7.23963">
        <ele>1355</ele>
        <time>2018-05-13T08:18:26.000Z</time>
      </trkpt>
      <trkpt lat="43.94244" lon="7.23956">
        <ele>1353</ele>
        <time>2018-05-13T08:18:27.000Z</time>
      </trkpt>
      <trkpt lat="43.94241" lon="7.23948">
        <ele>1351</ele>
        <time>2018-05-13T08:18:28.000Z</time>
      </trkpt>
      <trkpt lat="43.9424" lon="7.2394">
        <ele>1349</ele>
        <time>2018-05-13T08:18:29.000Z</time>
      </trkpt>
      <trkpt lat="43.94239" lon="7.23933">
        <ele>1347</ele>
        <time>2018-05-13T08:18:30.000Z</time>
      </trkpt>
      <trkpt lat="43.9424" lon="7.23926">
        <ele>1345</ele>
        <time>2018-05-13T08:18:31.000Z</time>
      </trkpt>
      <trkpt lat="43.94241" lon="7.23919">
        <ele>1343</ele>
        <time>2018-05-13T08:18:32.000Z</time>
      </trkpt>
      <trkpt lat="43.94241" lon="7.23911">
        <ele>1333</ele>
        <time>2018-05-13T08:18:33.000Z</time>
      </trkpt>
      <trkpt lat="43.9424" lon="7.23903">
        <ele>1332</ele>
        <time>2018-05-13T08:18:34.000Z</time>
      </trkpt>
      <trkpt lat="43.94239" lon="7.23885">
        <ele>1328</ele>
        <time>2018-05-13T08:18:36.000Z</time>
      </trkpt>
      <trkpt lat="43.94241" lon="7.23875">
        <ele>1326</ele>
        <time>2018-05-13T08:18:37.000Z</time>
      </trkpt>
      <trkpt lat="43.94245" lon="7.23857">
        <ele>1323</ele>
        <time>2018-05-13T08:18:39.000Z</time>
      </trkpt>
      <trkpt lat="43.9425" lon="7.2383">
        <ele>1319</ele>
        <time>2018-05-13T08:18:42.000Z</time>
      </trkpt>
      <trkpt lat="43.94253" lon="7.2381">
        <ele>1312</ele>
        <time>2018-05-13T08:18:44.000Z</time>
      </trkpt>
      <trkpt lat="43.94256" lon="7.2379">
        <ele>1308</ele>
        <time>2018-05-13T08:18:46.000Z</time>
      </trkpt>
      <trkpt lat="43.94259" lon="7.23781">
        <ele>1307</ele>
        <time>2018-05-13T08:18:47.000Z</time>
      </trkpt>
      <trkpt lat="43.94262" lon="7.23772">
        <ele>1306</ele>
        <time>2018-05-13T08:18:48.000Z</time>
      </trkpt>
      <trkpt lat="43.94269" lon="7.23755">
        <ele>1305</ele>
        <time>2018-05-13T08:18:50.000Z</time>
      </trkpt>
      <trkpt lat="43.94274" lon="7.23747">
        <ele>1301</ele>
        <time>2018-05-13T08:18:51.000Z</time>
      </trkpt>
      <trkpt lat="43.94278" lon="7.23739">
        <ele>1300</ele>
        <time>2018-05-13T08:18:52.000Z</time>
      </trkpt>
      <trkpt lat="43.94281" lon="7.23731">
        <ele>1299</ele>
        <time>2018-05-13T08:18:53.000Z</time>
      </trkpt>
      <trkpt lat="43.94282" lon="7.23724">
        <ele>1299</ele>
        <time>2018-05-13T08:18:54.000Z</time>
      </trkpt>
      <trkpt lat="43.94282" lon="7.23716">
        <ele>1298</ele>
        <time>2018-05-13T08:18:55.000Z</time>
      </trkpt>
      <trkpt lat="43.9428" lon="7.23713">
        <ele>1298</ele>
        <time>2018-05-13T08:18:56.000Z</time>
      </trkpt>
      <trkpt lat="43.94276" lon="7.23712">
        <ele>1298</ele>
        <time>2018-05-13T08:18:57.000Z</time>
      </trkpt>
      <trkpt lat="43.94271" lon="7.23714">
        <ele>1298</ele>
        <time>2018-05-13T08:18:58.000Z</time>
      </trkpt>
      <trkpt lat="43.94264" lon="7.23722">
        <ele>1299</ele>
        <time>2018-05-13T08:19:00.000Z</time>
      </trkpt>
      <trkpt lat="43.94259" lon="7.23736">
        <ele>1302</ele>
        <time>2018-05-13T08:19:02.000Z</time>
      </trkpt>
      <trkpt lat="43.94257" lon="7.23744">
        <ele>1303</ele>
        <time>2018-05-13T08:19:03.000Z</time>
      </trkpt>
      <trkpt lat="43.94253" lon="7.23753">
        <ele>1306</ele>
        <time>2018-05-13T08:19:04.000Z</time>
      </trkpt>
      <trkpt lat="43.94245" lon="7.23768">
        <ele>1302</ele>
        <time>2018-05-13T08:19:06.000Z</time>
      </trkpt>
      <trkpt lat="43.9424" lon="7.23775">
        <ele>1301</ele>
        <time>2018-05-13T08:19:07.000Z</time>
      </trkpt>
      <trkpt lat="43.94237" lon="7.23782">
        <ele>1301</ele>
        <time>2018-05-13T08:19:08.000Z</time>
      </trkpt>
      <trkpt lat="43.9423" lon="7.23799">
        <ele>1302</ele>
        <time>2018-05-13T08:19:10.000Z</time>
      </trkpt>
      <trkpt lat="43.94226" lon="7.23807">
        <ele>1303</ele>
        <time>2018-05-13T08:19:11.000Z</time>
      </trkpt>
      <trkpt lat="43.94223" lon="7.23824">
        <ele>1305</ele>
        <time>2018-05-13T08:19:13.000Z</time>
      </trkpt>
      <trkpt lat="43.94221" lon="7.23832">
        <ele>1305</ele>
        <time>2018-05-13T08:19:14.000Z</time>
      </trkpt>
      <trkpt lat="43.94217" lon="7.23838">
        <ele>1320</ele>
        <time>2018-05-13T08:19:15.000Z</time>
      </trkpt>
      <trkpt lat="43.94212" lon="7.23846">
        <ele>1320</ele>
        <time>2018-05-13T08:19:16.000Z</time>
      </trkpt>
      <trkpt lat="43.94203" lon="7.23861">
        <ele>1321</ele>
        <time>2018-05-13T08:19:18.000Z</time>
      </trkpt>
      <trkpt lat="43.94196" lon="7.23866">
        <ele>1321</ele>
        <time>2018-05-13T08:19:19.000Z</time>
      </trkpt>
      <trkpt lat="43.94189" lon="7.23863">
        <ele>1319</ele>
        <time>2018-05-13T08:19:20.000Z</time>
      </trkpt>
      <trkpt lat="43.94183" lon="7.23861">
        <ele>1318</ele>
        <time>2018-05-13T08:19:21.000Z</time>
      </trkpt>
      <trkpt lat="43.94176" lon="7.23862">
        <ele>1317</ele>
        <time>2018-05-13T08:19:22.000Z</time>
      </trkpt>
      <trkpt lat="43.94162" lon="7.23866">
        <ele>1305</ele>
        <time>2018-05-13T08:19:24.000Z</time>
      </trkpt>
      <trkpt lat="43.94155" lon="7.23863">
        <ele>1303</ele>
        <time>2018-05-13T08:19:25.000Z</time>
      </trkpt>
      <trkpt lat="43.94147" lon="7.23862">
        <ele>1302</ele>
        <time>2018-05-13T08:19:26.000Z</time>
      </trkpt>
      <trkpt lat="43.94139" lon="7.23859">
        <ele>1301</ele>
        <time>2018-05-13T08:19:27.000Z</time>
      </trkpt>
      <trkpt lat="43.94131" lon="7.23856">
        <ele>1299</ele>
        <time>2018-05-13T08:19:28.000Z</time>
      </trkpt>
      <trkpt lat="43.94116" lon="7.23851">
        <ele>1295</ele>
        <time>2018-05-13T08:19:30.000Z</time>
      </trkpt>
      <trkpt lat="43.94109" lon="7.23848">
        <ele>1292</ele>
        <time>2018-05-13T08:19:31.000Z</time>
      </trkpt>
      <trkpt lat="43.94103" lon="7.23844">
        <ele>1289</ele>
        <time>2018-05-13T08:19:32.000Z</time>
      </trkpt>
      <trkpt lat="43.94097" lon="7.2384">
        <ele>1285</ele>
        <time>2018-05-13T08:19:33.000Z</time>
      </trkpt>
      <trkpt lat="43.94092" lon="7.23838">
        <ele>1281</ele>
        <time>2018-05-13T08:19:34.000Z</time>
      </trkpt>
      <trkpt lat="43.94087" lon="7.23838">
        <ele>1278</ele>
        <time>2018-05-13T08:19:35.000Z</time>
      </trkpt>
      <trkpt lat="43.94084" lon="7.23841">
        <ele>1279</ele>
        <time>2018-05-13T08:19:36.000Z</time>
      </trkpt>
      <trkpt lat="43.94081" lon="7.23847">
        <ele>1267</ele>
        <time>2018-05-13T08:19:37.000Z</time>
      </trkpt>
      <trkpt lat="43.94078" lon="7.23859">
        <ele>1266</ele>
        <time>2018-05-13T08:19:39.000Z</time>
      </trkpt>
      <trkpt lat="43.94079" lon="7.23873">
        <ele>1268</ele>
        <time>2018-05-13T08:19:41.000Z</time>
      </trkpt>
      <trkpt lat="43.9408" lon="7.23882">
        <ele>1271</ele>
        <time>2018-05-13T08:19:42.000Z</time>
      </trkpt>
      <trkpt lat="43.94079" lon="7.2389">
        <ele>1274</ele>
        <time>2018-05-13T08:19:43.000Z</time>
      </trkpt>
      <trkpt lat="43.94077" lon="7.23896">
        <ele>1277</ele>
        <time>2018-05-13T08:19:44.000Z</time>
      </trkpt>
      <trkpt lat="43.94077" lon="7.23904">
        <ele>1282</ele>
        <time>2018-05-13T08:19:45.000Z</time>
      </trkpt>
      <trkpt lat="43.94075" lon="7.23912">
        <ele>1287</ele>
        <time>2018-05-13T08:19:46.000Z</time>
      </trkpt>
      <trkpt lat="43.94064" lon="7.23921">
        <ele>1298</ele>
        <time>2018-05-13T08:19:48.000Z</time>
      </trkpt>
      <trkpt lat="43.94054" lon="7.23929">
        <ele>1297</ele>
        <time>2018-05-13T08:19:50.000Z</time>
      </trkpt>
      <trkpt lat="43.94048" lon="7.23936">
        <ele>1297</ele>
        <time>2018-05-13T08:19:51.000Z</time>
      </trkpt>
      <trkpt lat="43.94043" lon="7.23942">
        <ele>1297</ele>
        <time>2018-05-13T08:19:52.000Z</time>
      </trkpt>
      <trkpt lat="43.94033" lon="7.23953">
        <ele>1298</ele>
        <time>2018-05-13T08:19:54.000Z</time>
      </trkpt>
      <trkpt lat="43.94027" lon="7.23953">
        <ele>1297</ele>
        <time>2018-05-13T08:19:55.000Z</time>
      </trkpt>
      <trkpt lat="43.94021" lon="7.2395">
        <ele>1294</ele>
        <time>2018-05-13T08:19:56.000Z</time>
      </trkpt>
      <trkpt lat="43.94014" lon="7.23949">
        <ele>1292</ele>
        <time>2018-05-13T08:19:57.000Z</time>
      </trkpt>
      <trkpt lat="43.94001" lon="7.23946">
        <ele>1288</ele>
        <time>2018-05-13T08:19:59.000Z</time>
      </trkpt>
      <trkpt lat="43.93995" lon="7.23946">
        <ele>1272</ele>
        <time>2018-05-13T08:20:00.000Z</time>
      </trkpt>
      <trkpt lat="43.93986" lon="7.23944">
        <ele>1271</ele>
        <time>2018-05-13T08:20:02.000Z</time>
      </trkpt>
      <trkpt lat="43.93981" lon="7.23946">
        <ele>1272</ele>
        <time>2018-05-13T08:20:03.000Z</time>
      </trkpt>
      <trkpt lat="43.93976" lon="7.23949">
        <ele>1273</ele>
        <time>2018-05-13T08:20:04.000Z</time>
      </trkpt>
      <trkpt lat="43.93972" lon="7.23954">
        <ele>1275</ele>
        <time>2018-05-13T08:20:05.000Z</time>
      </trkpt>
      <trkpt lat="43.93966" lon="7.23957">
        <ele>1275</ele>
        <time>2018-05-13T08:20:06.000Z</time>
      </trkpt>
      <trkpt lat="43.93955" lon="7.23963">
        <ele>1277</ele>
        <time>2018-05-13T08:20:08.000Z</time>
      </trkpt>
      <trkpt lat="43.9395" lon="7.23965">
        <ele>1277</ele>
        <time>2018-05-13T08:20:09.000Z</time>
      </trkpt>
      <trkpt lat="43.9394" lon="7.23968">
        <ele>1278</ele>
        <time>2018-05-13T08:20:11.000Z</time>
      </trkpt>
      <trkpt lat="43.93928" lon="7.23973">
        <ele>1280</ele>
        <time>2018-05-13T08:20:13.000Z</time>
      </trkpt>
      <trkpt lat="43.93922" lon="7.23976">
        <ele>1282</ele>
        <time>2018-05-13T08:20:14.000Z</time>
      </trkpt>
      <trkpt lat="43.93911" lon="7.23982">
        <ele>1272</ele>
        <time>2018-05-13T08:20:16.000Z</time>
      </trkpt>
      <trkpt lat="43.93902" lon="7.23989">
        <ele>1273</ele>
        <time>2018-05-13T08:20:18.000Z</time>
      </trkpt>
      <trkpt lat="43.93899" lon="7.23992">
        <ele>1272</ele>
        <time>2018-05-13T08:20:19.000Z</time>
      </trkpt>
      <trkpt lat="43.93879" lon="7.23998">
        <ele>1260</ele>
        <time>2018-05-13T08:20:24.000Z</time>
      </trkpt>
      <trkpt lat="43.93868" lon="7.23992">
        <ele>1255</ele>
        <time>2018-05-13T08:20:27.000Z</time>
      </trkpt>
      <trkpt lat="43.93852" lon="7.23977">
        <ele>1249</ele>
        <time>2018-05-13T08:20:31.000Z</time>
      </trkpt>
      <trkpt lat="43.93848" lon="7.23978">
        <ele>1249</ele>
        <time>2018-05-13T08:20:32.000Z</time>
      </trkpt>
      <trkpt lat="43.93841" lon="7.23987">
        <ele>1251</ele>
        <time>2018-05-13T08:20:34.000Z</time>
      </trkpt>
      <trkpt lat="43.93835" lon="7.2399">
        <ele>1252</ele>
        <time>2018-05-13T08:20:35.000Z</time>
      </trkpt>
      <trkpt lat="43.93829" lon="7.23988">
        <ele>1236</ele>
        <time>2018-05-13T08:20:36.000Z</time>
      </trkpt>
      <trkpt lat="43.93824" lon="7.23984">
        <ele>1229</ele>
        <time>2018-05-13T08:20:37.000Z</time>
      </trkpt>
      <trkpt lat="43.93813" lon="7.23976">
        <ele>1219</ele>
        <time>2018-05-13T08:20:39.000Z</time>
      </trkpt>
      <trkpt lat="43.93805" lon="7.23978">
        <ele>1216</ele>
        <time>2018-05-13T08:20:41.000Z</time>
      </trkpt>
      <trkpt lat="43.93799" lon="7.23989">
        <ele>1216</ele>
        <time>2018-05-13T08:20:43.000Z</time>
      </trkpt>
      <trkpt lat="43.93796" lon="7.23994">
        <ele>1215</ele>
        <time>2018-05-13T08:20:44.000Z</time>
      </trkpt>
      <trkpt lat="43.93794" lon="7.24">
        <ele>1215</ele>
        <time>2018-05-13T08:20:45.000Z</time>
      </trkpt>
      <trkpt lat="43.9379" lon="7.24006">
        <ele>1228</ele>
        <time>2018-05-13T08:20:46.000Z</time>
      </trkpt>
      <trkpt lat="43.93789" lon="7.24011">
        <ele>1227</ele>
        <time>2018-05-13T08:20:47.000Z</time>
      </trkpt>
      <trkpt lat="43.93791" lon="7.24015">
        <ele>1228</ele>
        <time>2018-05-13T08:20:48.000Z</time>
      </trkpt>
      <trkpt lat="43.93792" lon="7.24022">
        <ele>1229</ele>
        <time>2018-05-13T08:20:49.000Z</time>
      </trkpt>
      <trkpt lat="43.93789" lon="7.24036">
        <ele>1228</ele>
        <time>2018-05-13T08:20:51.000Z</time>
      </trkpt>
      <trkpt lat="43.93783" lon="7.24048">
        <ele>1226</ele>
        <time>2018-05-13T08:20:53.000Z</time>
      </trkpt>
      <trkpt lat="43.93781" lon="7.24052">
        <ele>1225</ele>
        <time>2018-05-13T08:20:54.000Z</time>
      </trkpt>
      <trkpt lat="43.93782" lon="7.24058">
        <ele>1225</ele>
        <time>2018-05-13T08:20:55.000Z</time>
      </trkpt>
      <trkpt lat="43.93785" lon="7.24062">
        <ele>1227</ele>
        <time>2018-05-13T08:20:56.000Z</time>
      </trkpt>
      <trkpt lat="43.9379" lon="7.24067">
        <ele>1229</ele>
        <time>2018-05-13T08:20:57.000Z</time>
      </trkpt>
      <trkpt lat="43.93794" lon="7.24072">
        <ele>1232</ele>
        <time>2018-05-13T08:20:58.000Z</time>
      </trkpt>
      <trkpt lat="43.93796" lon="7.2408">
        <ele>1234</ele>
        <time>2018-05-13T08:20:59.000Z</time>
      </trkpt>
      <trkpt lat="43.93796" lon="7.24087">
        <ele>1238</ele>
        <time>2018-05-13T08:21:00.000Z</time>
      </trkpt>
      <trkpt lat="43.93796" lon="7.24106">
        <ele>1239</ele>
        <time>2018-05-13T08:21:02.000Z</time>
      </trkpt>
      <trkpt lat="43.93796" lon="7.24114">
        <ele>1239</ele>
        <time>2018-05-13T08:21:03.000Z</time>
      </trkpt>
      <trkpt lat="43.93797" lon="7.24127">
        <ele>1240</ele>
        <time>2018-05-13T08:21:05.000Z</time>
      </trkpt>
      <trkpt lat="43.93799" lon="7.24132">
        <ele>1241</ele>
        <time>2018-05-13T08:21:06.000Z</time>
      </trkpt>
      <trkpt lat="43.93798" lon="7.24146">
        <ele>1242</ele>
        <time>2018-05-13T08:21:08.000Z</time>
      </trkpt>
      <trkpt lat="43.93795" lon="7.24155">
        <ele>1241</ele>
        <time>2018-05-13T08:21:09.000Z</time>
      </trkpt>
      <trkpt lat="43.93786" lon="7.24167">
        <ele>1247</ele>
        <time>2018-05-13T08:21:11.000Z</time>
      </trkpt>
      <trkpt lat="43.93782" lon="7.24173">
        <ele>1244</ele>
        <time>2018-05-13T08:21:12.000Z</time>
      </trkpt>
      <trkpt lat="43.9378" lon="7.24179">
        <ele>1244</ele>
        <time>2018-05-13T08:21:13.000Z</time>
      </trkpt>
      <trkpt lat="43.9378" lon="7.24194">
        <ele>1248</ele>
        <time>2018-05-13T08:21:15.000Z</time>
      </trkpt>
      <trkpt lat="43.93774" lon="7.24207">
        <ele>1249</ele>
        <time>2018-05-13T08:21:17.000Z</time>
      </trkpt>
      <trkpt lat="43.9377" lon="7.24212">
        <ele>1249</ele>
        <time>2018-05-13T08:21:18.000Z</time>
      </trkpt>
      <trkpt lat="43.93762" lon="7.24225">
        <ele>1249</ele>
        <time>2018-05-13T08:21:20.000Z</time>
      </trkpt>
      <trkpt lat="43.93751" lon="7.24235">
        <ele>1247</ele>
        <time>2018-05-13T08:21:22.000Z</time>
      </trkpt>
      <trkpt lat="43.93745" lon="7.24238">
        <ele>1223</ele>
        <time>2018-05-13T08:21:23.000Z</time>
      </trkpt>
      <trkpt lat="43.93732" lon="7.24238">
        <ele>1213</ele>
        <time>2018-05-13T08:21:25.000Z</time>
      </trkpt>
      <trkpt lat="43.93726" lon="7.24237">
        <ele>1209</ele>
        <time>2018-05-13T08:21:26.000Z</time>
      </trkpt>
      <trkpt lat="43.93722" lon="7.24239">
        <ele>1207</ele>
        <time>2018-05-13T08:21:27.000Z</time>
      </trkpt>
      <trkpt lat="43.93712" lon="7.24249">
        <ele>1203</ele>
        <time>2018-05-13T08:21:29.000Z</time>
      </trkpt>
      <trkpt lat="43.93706" lon="7.24261">
        <ele>1233</ele>
        <time>2018-05-13T08:21:31.000Z</time>
      </trkpt>
      <trkpt lat="43.93705" lon="7.24268">
        <ele>1235</ele>
        <time>2018-05-13T08:21:32.000Z</time>
      </trkpt>
      <trkpt lat="43.93693" lon="7.24284">
        <ele>1236</ele>
        <time>2018-05-13T08:21:35.000Z</time>
      </trkpt>
      <trkpt lat="43.93676" lon="7.2429">
        <ele>1235</ele>
        <time>2018-05-13T08:21:38.000Z</time>
      </trkpt>
      <trkpt lat="43.93671" lon="7.24294">
        <ele>1236</ele>
        <time>2018-05-13T08:21:39.000Z</time>
      </trkpt>
      <trkpt lat="43.93669" lon="7.24301">
        <ele>1240</ele>
        <time>2018-05-13T08:21:40.000Z</time>
      </trkpt>
      <trkpt lat="43.93666" lon="7.24307">
        <ele>1221</ele>
        <time>2018-05-13T08:21:41.000Z</time>
      </trkpt>
      <trkpt lat="43.93662" lon="7.24313">
        <ele>1225</ele>
        <time>2018-05-13T08:21:42.000Z</time>
      </trkpt>
      <trkpt lat="43.93659" lon="7.24318">
        <ele>1229</ele>
        <time>2018-05-13T08:21:43.000Z</time>
      </trkpt>
      <trkpt lat="43.93655" lon="7.24322">
        <ele>1230</ele>
        <time>2018-05-13T08:21:44.000Z</time>
      </trkpt>
      <trkpt lat="43.93649" lon="7.24323">
        <ele>1226</ele>
        <time>2018-05-13T08:21:45.000Z</time>
      </trkpt>
      <trkpt lat="43.93639" lon="7.24327">
        <ele>1220</ele>
        <time>2018-05-13T08:21:47.000Z</time>
      </trkpt>
      <trkpt lat="43.9363" lon="7.2433">
        <ele>1216</ele>
        <time>2018-05-13T08:21:49.000Z</time>
      </trkpt>
      <trkpt lat="43.93617" lon="7.24334">
        <ele>1246</ele>
        <time>2018-05-13T08:21:52.000Z</time>
      </trkpt>
      <trkpt lat="43.93607" lon="7.24335">
        <ele>1239</ele>
        <time>2018-05-13T08:21:54.000Z</time>
      </trkpt>
      <trkpt lat="43.93601" lon="7.24334">
        <ele>1235</ele>
        <time>2018-05-13T08:21:55.000Z</time>
      </trkpt>
      <trkpt lat="43.93595" lon="7.2433">
        <ele>1208</ele>
        <time>2018-05-13T08:21:56.000Z</time>
      </trkpt>
      <trkpt lat="43.9359" lon="7.24326">
        <ele>1207</ele>
        <time>2018-05-13T08:21:57.000Z</time>
      </trkpt>
      <trkpt lat="43.93586" lon="7.24325">
        <ele>1207</ele>
        <time>2018-05-13T08:21:58.000Z</time>
      </trkpt>
      <trkpt lat="43.93577" lon="7.24329">
        <ele>1203</ele>
        <time>2018-05-13T08:22:00.000Z</time>
      </trkpt>
      <trkpt lat="43.93567" lon="7.24347">
        <ele>1219</ele>
        <time>2018-05-13T08:22:03.000Z</time>
      </trkpt>
      <trkpt lat="43.93562" lon="7.2435">
        <ele>1220</ele>
        <time>2018-05-13T08:22:04.000Z</time>
      </trkpt>
      <trkpt lat="43.93552" lon="7.2435">
        <ele>1220</ele>
        <time>2018-05-13T08:22:06.000Z</time>
      </trkpt>
      <trkpt lat="43.93537" lon="7.24346">
        <ele>1218</ele>
        <time>2018-05-13T08:22:09.000Z</time>
      </trkpt>
      <trkpt lat="43.93533" lon="7.24344">
        <ele>1217</ele>
        <time>2018-05-13T08:22:10.000Z</time>
      </trkpt>
      <trkpt lat="43.93528" lon="7.24344">
        <ele>1216</ele>
        <time>2018-05-13T08:22:11.000Z</time>
      </trkpt>
      <trkpt lat="43.93505" lon="7.24343">
        <ele>1209</ele>
        <time>2018-05-13T08:22:15.000Z</time>
      </trkpt>
      <trkpt lat="43.93494" lon="7.24338">
        <ele>1201</ele>
        <time>2018-05-13T08:22:17.000Z</time>
      </trkpt>
      <trkpt lat="43.93489" lon="7.24334">
        <ele>1201</ele>
        <time>2018-05-13T08:22:18.000Z</time>
      </trkpt>
      <trkpt lat="43.93479" lon="7.24327">
        <ele>1196</ele>
        <time>2018-05-13T08:22:20.000Z</time>
      </trkpt>
      <trkpt lat="43.93468" lon="7.2432">
        <ele>1195</ele>
        <time>2018-05-13T08:22:22.000Z</time>
      </trkpt>
      <trkpt lat="43.93446" lon="7.24305">
        <ele>1193</ele>
        <time>2018-05-13T08:22:26.000Z</time>
      </trkpt>
      <trkpt lat="43.93441" lon="7.24301">
        <ele>1193</ele>
        <time>2018-05-13T08:22:27.000Z</time>
      </trkpt>
      <trkpt lat="43.93431" lon="7.24298">
        <ele>1193</ele>
        <time>2018-05-13T08:22:29.000Z</time>
      </trkpt>
      <trkpt lat="43.93427" lon="7.243">
        <ele>1194</ele>
        <time>2018-05-13T08:22:30.000Z</time>
      </trkpt>
      <trkpt lat="43.93418" lon="7.24308">
        <ele>1195</ele>
        <time>2018-05-13T08:22:32.000Z</time>
      </trkpt>
      <trkpt lat="43.93415" lon="7.24313">
        <ele>1197</ele>
        <time>2018-05-13T08:22:33.000Z</time>
      </trkpt>
      <trkpt lat="43.93401" lon="7.24324">
        <ele>1198</ele>
        <time>2018-05-13T08:22:36.000Z</time>
      </trkpt>
      <trkpt lat="43.93396" lon="7.24327">
        <ele>1198</ele>
        <time>2018-05-13T08:22:37.000Z</time>
      </trkpt>
      <trkpt lat="43.93378" lon="7.2434">
        <ele>1192</ele>
        <time>2018-05-13T08:22:40.000Z</time>
      </trkpt>
      <trkpt lat="43.93373" lon="7.24346">
        <ele>1191</ele>
        <time>2018-05-13T08:22:41.000Z</time>
      </trkpt>
      <trkpt lat="43.93369" lon="7.24349">
        <ele>1191</ele>
        <time>2018-05-13T08:22:42.000Z</time>
      </trkpt>
      <trkpt lat="43.93366" lon="7.24353">
        <ele>1191</ele>
        <time>2018-05-13T08:22:43.000Z</time>
      </trkpt>
      <trkpt lat="43.93359" lon="7.24359">
        <ele>1190</ele>
        <time>2018-05-13T08:22:45.000Z</time>
      </trkpt>
      <trkpt lat="43.93352" lon="7.24367">
        <ele>1188</ele>
        <time>2018-05-13T08:22:47.000Z</time>
      </trkpt>
      <trkpt lat="43.93347" lon="7.24369">
        <ele>1188</ele>
        <time>2018-05-13T08:22:48.000Z</time>
      </trkpt>
      <trkpt lat="43.93341" lon="7.2437">
        <ele>1188</ele>
        <time>2018-05-13T08:22:49.000Z</time>
      </trkpt>
      <trkpt lat="43.93331" lon="7.2437">
        <ele>1184</ele>
        <time>2018-05-13T08:22:51.000Z</time>
      </trkpt>
      <trkpt lat="43.93327" lon="7.24371">
        <ele>1184</ele>
        <time>2018-05-13T08:22:53.000Z</time>
      </trkpt>
      <trkpt lat="43.9332" lon="7.24377">
        <ele>1182</ele>
        <time>2018-05-13T08:22:55.000Z</time>
      </trkpt>
      <trkpt lat="43.93316" lon="7.24381">
        <ele>1182</ele>
        <time>2018-05-13T08:22:56.000Z</time>
      </trkpt>
      <trkpt lat="43.93313" lon="7.24385">
        <ele>1181</ele>
        <time>2018-05-13T08:22:57.000Z</time>
      </trkpt>
      <trkpt lat="43.9331" lon="7.24386">
        <ele>1181</ele>
        <time>2018-05-13T08:22:59.000Z</time>
      </trkpt>
      <trkpt lat="43.93309" lon="7.24386">
        <ele>1181</ele>
        <time>2018-05-13T08:23:00.000Z</time>
      </trkpt>
      <trkpt lat="43.93307" lon="7.24388">
        <ele>1181</ele>
        <time>2018-05-13T08:23:01.000Z</time>
      </trkpt>
      <trkpt lat="43.93299" lon="7.24391">
        <ele>1180</ele>
        <time>2018-05-13T08:23:04.000Z</time>
      </trkpt>
      <trkpt lat="43.93297" lon="7.24391">
        <ele>1180</ele>
        <time>2018-05-13T08:23:05.000Z</time>
      </trkpt>
      <trkpt lat="43.93295" lon="7.24392">
        <ele>1180</ele>
        <time>2018-05-13T08:23:06.000Z</time>
      </trkpt>
      <trkpt lat="43.93293" lon="7.24393">
        <ele>1180</ele>
        <time>2018-05-13T08:23:07.000Z</time>
      </trkpt>
      <trkpt lat="43.93288" lon="7.24395">
        <ele>1180</ele>
        <time>2018-05-13T08:23:09.000Z</time>
      </trkpt>
      <trkpt lat="43.93285" lon="7.24394">
        <ele>1180</ele>
        <time>2018-05-13T08:23:10.000Z</time>
      </trkpt>
      <trkpt lat="43.93282" lon="7.24395">
        <ele>1180</ele>
        <time>2018-05-13T08:23:11.000Z</time>
      </trkpt>
      <trkpt lat="43.93278" lon="7.24398">
        <ele>1180</ele>
        <time>2018-05-13T08:23:13.000Z</time>
      </trkpt>
      <trkpt lat="43.93273" lon="7.24401">
        <ele>1180</ele>
        <time>2018-05-13T08:23:15.000Z</time>
      </trkpt>
      <trkpt lat="43.9327" lon="7.24407">
        <ele>1179</ele>
        <time>2018-05-13T08:23:17.000Z</time>
      </trkpt>
      <trkpt lat="43.93264" lon="7.24415">
        <ele>1178</ele>
        <time>2018-05-13T08:23:19.000Z</time>
      </trkpt>
      <trkpt lat="43.93257" lon="7.24419">
        <ele>1170</ele>
        <time>2018-05-13T08:23:21.000Z</time>
      </trkpt>
      <trkpt lat="43.93254" lon="7.24421">
        <ele>1171</ele>
        <time>2018-05-13T08:23:22.000Z</time>
      </trkpt>
      <trkpt lat="43.93251" lon="7.24424">
        <ele>1170</ele>
        <time>2018-05-13T08:23:23.000Z</time>
      </trkpt>
      <trkpt lat="43.93249" lon="7.24427">
        <ele>1172</ele>
        <time>2018-05-13T08:23:24.000Z</time>
      </trkpt>
      <trkpt lat="43.93245" lon="7.24434">
        <ele>1170</ele>
        <time>2018-05-13T08:23:26.000Z</time>
      </trkpt>
      <trkpt lat="43.9324" lon="7.24439">
        <ele>1169</ele>
        <time>2018-05-13T08:23:28.000Z</time>
      </trkpt>
      <trkpt lat="43.93236" lon="7.24441">
        <ele>1168</ele>
        <time>2018-05-13T08:23:29.000Z</time>
      </trkpt>
      <trkpt lat="43.93232" lon="7.24445">
        <ele>1168</ele>
        <time>2018-05-13T08:23:30.000Z</time>
      </trkpt>
      <trkpt lat="43.93226" lon="7.2445">
        <ele>1167</ele>
        <time>2018-05-13T08:23:31.000Z</time>
      </trkpt>
      <trkpt lat="43.93221" lon="7.24454">
        <ele>1166</ele>
        <time>2018-05-13T08:23:32.000Z</time>
      </trkpt>
      <trkpt lat="43.93216" lon="7.24461">
        <ele>1165</ele>
        <time>2018-05-13T08:23:34.000Z</time>
      </trkpt>
      <trkpt lat="43.93213" lon="7.24466">
        <ele>1165</ele>
        <time>2018-05-13T08:23:35.000Z</time>
      </trkpt>
      <trkpt lat="43.93211" lon="7.24473">
        <ele>1163</ele>
        <time>2018-05-13T08:23:36.000Z</time>
      </trkpt>
      <trkpt lat="43.93207" lon="7.2448">
        <ele>1163</ele>
        <time>2018-05-13T08:23:37.000Z</time>
      </trkpt>
      <trkpt lat="43.93203" lon="7.24487">
        <ele>1162</ele>
        <time>2018-05-13T08:23:38.000Z</time>
      </trkpt>
      <trkpt lat="43.93198" lon="7.24496">
        <ele>1162</ele>
        <time>2018-05-13T08:23:39.000Z</time>
      </trkpt>
      <trkpt lat="43.93195" lon="7.24502">
        <ele>1138</ele>
        <time>2018-05-13T08:23:40.000Z</time>
      </trkpt>
      <trkpt lat="43.93191" lon="7.24506">
        <ele>1139</ele>
        <time>2018-05-13T08:23:41.000Z</time>
      </trkpt>
      <trkpt lat="43.9319" lon="7.24509">
        <ele>1139</ele>
        <time>2018-05-13T08:23:42.000Z</time>
      </trkpt>
      <trkpt lat="43.93189" lon="7.24513">
        <ele>1138</ele>
        <time>2018-05-13T08:23:43.000Z</time>
      </trkpt>
      <trkpt lat="43.93181" lon="7.24525">
        <ele>1136</ele>
        <time>2018-05-13T08:23:46.000Z</time>
      </trkpt>
      <trkpt lat="43.93172" lon="7.24536">
        <ele>1132</ele>
        <time>2018-05-13T08:23:48.000Z</time>
      </trkpt>
      <trkpt lat="43.93167" lon="7.24538">
        <ele>1131</ele>
        <time>2018-05-13T08:23:49.000Z</time>
      </trkpt>
      <trkpt lat="43.93165" lon="7.2454">
        <ele>1135</ele>
        <time>2018-05-13T08:23:50.000Z</time>
      </trkpt>
      <trkpt lat="43.93158" lon="7.24546">
        <ele>1133</ele>
        <time>2018-05-13T08:23:53.000Z</time>
      </trkpt>
      <trkpt lat="43.93153" lon="7.24547">
        <ele>1132</ele>
        <time>2018-05-13T08:23:55.000Z</time>
      </trkpt>
      <trkpt lat="43.93151" lon="7.24547">
        <ele>1132</ele>
        <time>2018-05-13T08:23:56.000Z</time>
      </trkpt>
      <trkpt lat="43.93145" lon="7.24546">
        <ele>1132</ele>
        <time>2018-05-13T08:23:58.000Z</time>
      </trkpt>
      <trkpt lat="43.93141" lon="7.24543">
        <ele>1133</ele>
        <time>2018-05-13T08:23:59.000Z</time>
      </trkpt>
      <trkpt lat="43.93138" lon="7.2454">
        <ele>1133</ele>
        <time>2018-05-13T08:24:00.000Z</time>
      </trkpt>
      <trkpt lat="43.93135" lon="7.24537">
        <ele>1134</ele>
        <time>2018-05-13T08:24:01.000Z</time>
      </trkpt>
      <trkpt lat="43.93133" lon="7.24535">
        <ele>1135</ele>
        <time>2018-05-13T08:24:03.000Z</time>
      </trkpt>
      <trkpt lat="43.93123" lon="7.24528">
        <ele>1136</ele>
        <time>2018-05-13T08:24:07.000Z</time>
      </trkpt>
      <trkpt lat="43.93119" lon="7.24528">
        <ele>1135</ele>
        <time>2018-05-13T08:24:09.000Z</time>
      </trkpt>
      <trkpt lat="43.93117" lon="7.24529">
        <ele>1135</ele>
        <time>2018-05-13T08:24:10.000Z</time>
      </trkpt>
      <trkpt lat="43.93114" lon="7.24531">
        <ele>1134</ele>
        <time>2018-05-13T08:24:11.000Z</time>
      </trkpt>
      <trkpt lat="43.93101" lon="7.24533">
        <ele>1134</ele>
        <time>2018-05-13T08:24:14.000Z</time>
      </trkpt>
      <trkpt lat="43.93097" lon="7.24534">
        <ele>1133</ele>
        <time>2018-05-13T08:24:15.000Z</time>
      </trkpt>
      <trkpt lat="43.93093" lon="7.24535">
        <ele>1133</ele>
        <time>2018-05-13T08:24:16.000Z</time>
      </trkpt>
      <trkpt lat="43.93085" lon="7.24537">
        <ele>1132</ele>
        <time>2018-05-13T08:24:18.000Z</time>
      </trkpt>
      <trkpt lat="43.93079" lon="7.24535">
        <ele>1122</ele>
        <time>2018-05-13T08:24:20.000Z</time>
      </trkpt>
      <trkpt lat="43.93072" lon="7.24537">
        <ele>1121</ele>
        <time>2018-05-13T08:24:23.000Z</time>
      </trkpt>
      <trkpt lat="43.9307" lon="7.24535">
        <ele>1121</ele>
        <time>2018-05-13T08:24:24.000Z</time>
      </trkpt>
      <trkpt lat="43.93065" lon="7.24523">
        <ele>1125</ele>
        <time>2018-05-13T08:24:27.000Z</time>
      </trkpt>
      <trkpt lat="43.93056" lon="7.24512">
        <ele>1125</ele>
        <time>2018-05-13T08:24:31.000Z</time>
      </trkpt>
      <trkpt lat="43.93053" lon="7.2451">
        <ele>1125</ele>
        <time>2018-05-13T08:24:32.000Z</time>
      </trkpt>
      <trkpt lat="43.9305" lon="7.24507">
        <ele>1125</ele>
        <time>2018-05-13T08:24:33.000Z</time>
      </trkpt>
      <trkpt lat="43.93047" lon="7.24504">
        <ele>1124</ele>
        <time>2018-05-13T08:24:34.000Z</time>
      </trkpt>
      <trkpt lat="43.93044" lon="7.24503">
        <ele>1123</ele>
        <time>2018-05-13T08:24:35.000Z</time>
      </trkpt>
      <trkpt lat="43.93037" lon="7.24501">
        <ele>1122</ele>
        <time>2018-05-13T08:24:37.000Z</time>
      </trkpt>
      <trkpt lat="43.93033" lon="7.24497">
        <ele>1144</ele>
        <time>2018-05-13T08:24:38.000Z</time>
      </trkpt>
      <trkpt lat="43.93029" lon="7.24497">
        <ele>1143</ele>
        <time>2018-05-13T08:24:39.000Z</time>
      </trkpt>
      <trkpt lat="43.93026" lon="7.245">
        <ele>1121</ele>
        <time>2018-05-13T08:24:40.000Z</time>
      </trkpt>
      <trkpt lat="43.93023" lon="7.24504">
        <ele>1121</ele>
        <time>2018-05-13T08:24:41.000Z</time>
      </trkpt>
      <trkpt lat="43.93015" lon="7.24511">
        <ele>1120</ele>
        <time>2018-05-13T08:24:43.000Z</time>
      </trkpt>
      <trkpt lat="43.93011" lon="7.24514">
        <ele>1120</ele>
        <time>2018-05-13T08:24:44.000Z</time>
      </trkpt>
      <trkpt lat="43.93009" lon="7.24516">
        <ele>1119</ele>
        <time>2018-05-13T08:24:45.000Z</time>
      </trkpt>
      <trkpt lat="43.93003" lon="7.24517">
        <ele>1119</ele>
        <time>2018-05-13T08:24:47.000Z</time>
      </trkpt>
      <trkpt lat="43.93001" lon="7.24518">
        <ele>1119</ele>
        <time>2018-05-13T08:24:48.000Z</time>
      </trkpt>
      <trkpt lat="43.92998" lon="7.24518">
        <ele>1109</ele>
        <time>2018-05-13T08:24:49.000Z</time>
      </trkpt>
      <trkpt lat="43.92996" lon="7.24515">
        <ele>1111</ele>
        <time>2018-05-13T08:24:50.000Z</time>
      </trkpt>
      <trkpt lat="43.92991" lon="7.2451">
        <ele>1112</ele>
        <time>2018-05-13T08:24:52.000Z</time>
      </trkpt>
      <trkpt lat="43.92985" lon="7.24509">
        <ele>1110</ele>
        <time>2018-05-13T08:24:54.000Z</time>
      </trkpt>
      <trkpt lat="43.92982" lon="7.24507">
        <ele>1109</ele>
        <time>2018-05-13T08:24:55.000Z</time>
      </trkpt>
      <trkpt lat="43.92978" lon="7.24507">
        <ele>1108</ele>
        <time>2018-05-13T08:24:56.000Z</time>
      </trkpt>
      <trkpt lat="43.92975" lon="7.24506">
        <ele>1107</ele>
        <time>2018-05-13T08:24:57.000Z</time>
      </trkpt>
      <trkpt lat="43.92974" lon="7.24506">
        <ele>1106</ele>
        <time>2018-05-13T08:24:59.000Z</time>
      </trkpt>
      <trkpt lat="43.92973" lon="7.24506">
        <ele>1106</ele>
        <time>2018-05-13T08:25:00.000Z</time>
      </trkpt>
      <trkpt lat="43.92971" lon="7.24506">
        <ele>1106</ele>
        <time>2018-05-13T08:25:01.000Z</time>
      </trkpt>
      <trkpt lat="43.92961" lon="7.24504">
        <ele>1104</ele>
        <time>2018-05-13T08:25:06.000Z</time>
      </trkpt>
      <trkpt lat="43.92949" lon="7.24494">
        <ele>1126</ele>
        <time>2018-05-13T08:25:10.000Z</time>
      </trkpt>
      <trkpt lat="43.92946" lon="7.24496">
        <ele>1125</ele>
        <time>2018-05-13T08:25:11.000Z</time>
      </trkpt>
      <trkpt lat="43.92938" lon="7.24501">
        <ele>1103</ele>
        <time>2018-05-13T08:25:13.000Z</time>
      </trkpt>
      <trkpt lat="43.92935" lon="7.24502">
        <ele>1103</ele>
        <time>2018-05-13T08:25:14.000Z</time>
      </trkpt>
      <trkpt lat="43.92932" lon="7.24505">
        <ele>1103</ele>
        <time>2018-05-13T08:25:16.000Z</time>
      </trkpt>
      <trkpt lat="43.9293" lon="7.24507">
        <ele>1103</ele>
        <time>2018-05-13T08:25:17.000Z</time>
      </trkpt>
      <trkpt lat="43.92927" lon="7.24507">
        <ele>1104</ele>
        <time>2018-05-13T08:25:19.000Z</time>
      </trkpt>
      <trkpt lat="43.92927" lon="7.24507">
        <ele>1104</ele>
        <time>2018-05-13T08:25:21.000Z</time>
      </trkpt>
      <trkpt lat="43.92926" lon="7.24508">
        <ele>1104</ele>
        <time>2018-05-13T08:25:23.000Z</time>
      </trkpt>
      <trkpt lat="43.92925" lon="7.24507">
        <ele>1104</ele>
        <time>2018-05-13T08:25:27.000Z</time>
      </trkpt>
      <trkpt lat="43.92916" lon="7.24506">
        <ele>1104</ele>
        <time>2018-05-13T08:25:31.000Z</time>
      </trkpt>
      <trkpt lat="43.92901" lon="7.24503">
        <ele>1098</ele>
        <time>2018-05-13T08:25:36.000Z</time>
      </trkpt>
      <trkpt lat="43.92896" lon="7.24506">
        <ele>1096</ele>
        <time>2018-05-13T08:25:38.000Z</time>
      </trkpt>
      <trkpt lat="43.92895" lon="7.24511">
        <ele>1095</ele>
        <time>2018-05-13T08:25:39.000Z</time>
      </trkpt>
      <trkpt lat="43.92893" lon="7.24515">
        <ele>1093</ele>
        <time>2018-05-13T08:25:40.000Z</time>
      </trkpt>
      <trkpt lat="43.92886" lon="7.24524">
        <ele>1090</ele>
        <time>2018-05-13T08:25:42.000Z</time>
      </trkpt>
      <trkpt lat="43.92877" lon="7.24523">
        <ele>1089</ele>
        <time>2018-05-13T08:25:44.000Z</time>
      </trkpt>
      <trkpt lat="43.92865" lon="7.24531">
        <ele>1087</ele>
        <time>2018-05-13T08:25:48.000Z</time>
      </trkpt>
      <trkpt lat="43.92862" lon="7.24535">
        <ele>1086</ele>
        <time>2018-05-13T08:25:49.000Z</time>
      </trkpt>
      <trkpt lat="43.92855" lon="7.24541">
        <ele>1084</ele>
        <time>2018-05-13T08:25:52.000Z</time>
      </trkpt>
      <trkpt lat="43.92852" lon="7.24541">
        <ele>1084</ele>
        <time>2018-05-13T08:25:53.000Z</time>
      </trkpt>
      <trkpt lat="43.92848" lon="7.24537">
        <ele>1085</ele>
        <time>2018-05-13T08:25:55.000Z</time>
      </trkpt>
      <trkpt lat="43.92845" lon="7.2453">
        <ele>1088</ele>
        <time>2018-05-13T08:25:57.000Z</time>
      </trkpt>
      <trkpt lat="43.92844" lon="7.24526">
        <ele>1089</ele>
        <time>2018-05-13T08:25:58.000Z</time>
      </trkpt>
      <trkpt lat="43.92837" lon="7.24521">
        <ele>1091</ele>
        <time>2018-05-13T08:26:00.000Z</time>
      </trkpt>
      <trkpt lat="43.92834" lon="7.24518">
        <ele>1093</ele>
        <time>2018-05-13T08:26:01.000Z</time>
      </trkpt>
      <trkpt lat="43.9283" lon="7.24517">
        <ele>1088</ele>
        <time>2018-05-13T08:26:02.000Z</time>
      </trkpt>
      <trkpt lat="43.92822" lon="7.24522">
        <ele>1085</ele>
        <time>2018-05-13T08:26:04.000Z</time>
      </trkpt>
      <trkpt lat="43.92806" lon="7.24529">
        <ele>1080</ele>
        <time>2018-05-13T08:26:07.000Z</time>
      </trkpt>
      <trkpt lat="43.92797" lon="7.24532">
        <ele>1077</ele>
        <time>2018-05-13T08:26:09.000Z</time>
      </trkpt>
      <trkpt lat="43.9279" lon="7.24536">
        <ele>1076</ele>
        <time>2018-05-13T08:26:11.000Z</time>
      </trkpt>
      <trkpt lat="43.92782" lon="7.24539">
        <ele>1075</ele>
        <time>2018-05-13T08:26:13.000Z</time>
      </trkpt>
      <trkpt lat="43.92773" lon="7.24537">
        <ele>1075</ele>
        <time>2018-05-13T08:26:15.000Z</time>
      </trkpt>
      <trkpt lat="43.92768" lon="7.24539">
        <ele>1074</ele>
        <time>2018-05-13T08:26:16.000Z</time>
      </trkpt>
      <trkpt lat="43.92764" lon="7.2454">
        <ele>1073</ele>
        <time>2018-05-13T08:26:17.000Z</time>
      </trkpt>
      <trkpt lat="43.92758" lon="7.24542">
        <ele>1072</ele>
        <time>2018-05-13T08:26:20.000Z</time>
      </trkpt>
      <trkpt lat="43.92758" lon="7.24544">
        <ele>1072</ele>
        <time>2018-05-13T08:26:21.000Z</time>
      </trkpt>
      <trkpt lat="43.92755" lon="7.24546">
        <ele>1071</ele>
        <time>2018-05-13T08:26:25.000Z</time>
      </trkpt>
      <trkpt lat="43.92754" lon="7.24544">
        <ele>1071</ele>
        <time>2018-05-13T08:26:26.000Z</time>
      </trkpt>
      <trkpt lat="43.92752" lon="7.24541">
        <ele>1072</ele>
        <time>2018-05-13T08:26:28.000Z</time>
      </trkpt>
      <trkpt lat="43.9275" lon="7.24538">
        <ele>1073</ele>
        <time>2018-05-13T08:26:29.000Z</time>
      </trkpt>
      <trkpt lat="43.92747" lon="7.24525">
        <ele>1067</ele>
        <time>2018-05-13T08:26:32.000Z</time>
      </trkpt>
      <trkpt lat="43.92746" lon="7.24523">
        <ele>1068</ele>
        <time>2018-05-13T08:26:33.000Z</time>
      </trkpt>
      <trkpt lat="43.92743" lon="7.24521">
        <ele>1069</ele>
        <time>2018-05-13T08:26:34.000Z</time>
      </trkpt>
      <trkpt lat="43.92742" lon="7.24516">
        <ele>1071</ele>
        <time>2018-05-13T08:26:35.000Z</time>
      </trkpt>
      <trkpt lat="43.92739" lon="7.24512">
        <ele>1072</ele>
        <time>2018-05-13T08:26:36.000Z</time>
      </trkpt>
      <trkpt lat="43.92734" lon="7.24501">
        <ele>1073</ele>
        <time>2018-05-13T08:26:38.000Z</time>
      </trkpt>
      <trkpt lat="43.92727" lon="7.24487">
        <ele>1088</ele>
        <time>2018-05-13T08:26:41.000Z</time>
      </trkpt>
      <trkpt lat="43.92725" lon="7.24475">
        <ele>1089</ele>
        <time>2018-05-13T08:26:44.000Z</time>
      </trkpt>
      <trkpt lat="43.92725" lon="7.24474">
        <ele>1089</ele>
        <time>2018-05-13T08:26:45.000Z</time>
      </trkpt>
      <trkpt lat="43.92723" lon="7.24471">
        <ele>1089</ele>
        <time>2018-05-13T08:26:48.000Z</time>
      </trkpt>
      <trkpt lat="43.92722" lon="7.2447">
        <ele>1089</ele>
        <time>2018-05-13T08:26:49.000Z</time>
      </trkpt>
      <trkpt lat="43.92718" lon="7.24469">
        <ele>1089</ele>
        <time>2018-05-13T08:26:51.000Z</time>
      </trkpt>
      <trkpt lat="43.92709" lon="7.24468">
        <ele>1089</ele>
        <time>2018-05-13T08:26:54.000Z</time>
      </trkpt>
      <trkpt lat="43.92698" lon="7.24467">
        <ele>1087</ele>
        <time>2018-05-13T08:26:59.000Z</time>
      </trkpt>
      <trkpt lat="43.92693" lon="7.24466">
        <ele>1087</ele>
        <time>2018-05-13T08:27:04.000Z</time>
      </trkpt>
      <trkpt lat="43.92691" lon="7.24466">
        <ele>1087</ele>
        <time>2018-05-13T08:27:06.000Z</time>
      </trkpt>
      <trkpt lat="43.92689" lon="7.24464">
        <ele>1087</ele>
        <time>2018-05-13T08:27:09.000Z</time>
      </trkpt>
      <trkpt lat="43.92689" lon="7.24464">
        <ele>1087</ele>
        <time>2018-05-13T08:27:10.000Z</time>
      </trkpt>
      <trkpt lat="43.92686" lon="7.24463">
        <ele>1087</ele>
        <time>2018-05-13T08:27:12.000Z</time>
      </trkpt>
      <trkpt lat="43.92685" lon="7.24462">
        <ele>1087</ele>
        <time>2018-05-13T08:27:16.000Z</time>
      </trkpt>
      <trkpt lat="43.92683" lon="7.2446">
        <ele>1087</ele>
        <time>2018-05-13T08:27:18.000Z</time>
      </trkpt>
      <trkpt lat="43.92679" lon="7.24456">
        <ele>1088</ele>
        <time>2018-05-13T08:27:20.000Z</time>
      </trkpt>
      <trkpt lat="43.92677" lon="7.24452">
        <ele>1089</ele>
        <time>2018-05-13T08:27:21.000Z</time>
      </trkpt>
      <trkpt lat="43.92666" lon="7.24444">
        <ele>1078</ele>
        <time>2018-05-13T08:27:25.000Z</time>
      </trkpt>
      <trkpt lat="43.92663" lon="7.24447">
        <ele>1077</ele>
        <time>2018-05-13T08:27:26.000Z</time>
      </trkpt>
      <trkpt lat="43.92659" lon="7.24451">
        <ele>1075</ele>
        <time>2018-05-13T08:27:27.000Z</time>
      </trkpt>
      <trkpt lat="43.92649" lon="7.24454">
        <ele>1073</ele>
        <time>2018-05-13T08:27:29.000Z</time>
      </trkpt>
      <trkpt lat="43.92644" lon="7.24454">
        <ele>1072</ele>
        <time>2018-05-13T08:27:30.000Z</time>
      </trkpt>
      <trkpt lat="43.92639" lon="7.24457">
        <ele>1070</ele>
        <time>2018-05-13T08:27:31.000Z</time>
      </trkpt>
      <trkpt lat="43.92629" lon="7.2446">
        <ele>1068</ele>
        <time>2018-05-13T08:27:33.000Z</time>
      </trkpt>
      <trkpt lat="43.92625" lon="7.24457">
        <ele>1068</ele>
        <time>2018-05-13T08:27:34.000Z</time>
      </trkpt>
      <trkpt lat="43.92617" lon="7.24462">
        <ele>1065</ele>
        <time>2018-05-13T08:27:37.000Z</time>
      </trkpt>
      <trkpt lat="43.92608" lon="7.24468">
        <ele>1062</ele>
        <time>2018-05-13T08:27:41.000Z</time>
      </trkpt>
      <trkpt lat="43.92604" lon="7.24462">
        <ele>1063</ele>
        <time>2018-05-13T08:27:43.000Z</time>
      </trkpt>
      <trkpt lat="43.92601" lon="7.2446">
        <ele>1063</ele>
        <time>2018-05-13T08:27:44.000Z</time>
      </trkpt>
      <trkpt lat="43.92599" lon="7.24456">
        <ele>1064</ele>
        <time>2018-05-13T08:27:45.000Z</time>
      </trkpt>
      <trkpt lat="43.92595" lon="7.24451">
        <ele>1065</ele>
        <time>2018-05-13T08:27:47.000Z</time>
      </trkpt>
      <trkpt lat="43.92592" lon="7.24449">
        <ele>1065</ele>
        <time>2018-05-13T08:27:48.000Z</time>
      </trkpt>
      <trkpt lat="43.9259" lon="7.24445">
        <ele>1066</ele>
        <time>2018-05-13T08:27:49.000Z</time>
      </trkpt>
      <trkpt lat="43.92589" lon="7.24436">
        <ele>1068</ele>
        <time>2018-05-13T08:27:51.000Z</time>
      </trkpt>
      <trkpt lat="43.92588" lon="7.24432">
        <ele>1069</ele>
        <time>2018-05-13T08:27:52.000Z</time>
      </trkpt>
      <trkpt lat="43.92587" lon="7.24428">
        <ele>1069</ele>
        <time>2018-05-13T08:27:53.000Z</time>
      </trkpt>
      <trkpt lat="43.92585" lon="7.24421">
        <ele>1070</ele>
        <time>2018-05-13T08:27:55.000Z</time>
      </trkpt>
      <trkpt lat="43.92581" lon="7.24418">
        <ele>1068</ele>
        <time>2018-05-13T08:27:56.000Z</time>
      </trkpt>
      <trkpt lat="43.92579" lon="7.24414">
        <ele>1072</ele>
        <time>2018-05-13T08:27:57.000Z</time>
      </trkpt>
      <trkpt lat="43.92576" lon="7.24408">
        <ele>1072</ele>
        <time>2018-05-13T08:27:59.000Z</time>
      </trkpt>
      <trkpt lat="43.92573" lon="7.24404">
        <ele>1073</ele>
        <time>2018-05-13T08:28:01.000Z</time>
      </trkpt>
      <trkpt lat="43.92569" lon="7.24406">
        <ele>1072</ele>
        <time>2018-05-13T08:28:02.000Z</time>
      </trkpt>
      <trkpt lat="43.92566" lon="7.24408">
        <ele>1072</ele>
        <time>2018-05-13T08:28:03.000Z</time>
      </trkpt>
      <trkpt lat="43.92563" lon="7.2441">
        <ele>1072</ele>
        <time>2018-05-13T08:28:04.000Z</time>
      </trkpt>
      <trkpt lat="43.92559" lon="7.24413">
        <ele>1071</ele>
        <time>2018-05-13T08:28:05.000Z</time>
      </trkpt>
      <trkpt lat="43.92556" lon="7.24414">
        <ele>1071</ele>
        <time>2018-05-13T08:28:06.000Z</time>
      </trkpt>
      <trkpt lat="43.92549" lon="7.24414">
        <ele>1070</ele>
        <time>2018-05-13T08:28:08.000Z</time>
      </trkpt>
      <trkpt lat="43.92542" lon="7.24416">
        <ele>1069</ele>
        <time>2018-05-13T08:28:10.000Z</time>
      </trkpt>
      <trkpt lat="43.92539" lon="7.24417">
        <ele>1046</ele>
        <time>2018-05-13T08:28:11.000Z</time>
      </trkpt>
      <trkpt lat="43.92536" lon="7.24418">
        <ele>1045</ele>
        <time>2018-05-13T08:28:12.000Z</time>
      </trkpt>
      <trkpt lat="43.92534" lon="7.24418">
        <ele>1045</ele>
        <time>2018-05-13T08:28:13.000Z</time>
      </trkpt>
      <trkpt lat="43.92532" lon="7.24419">
        <ele>1045</ele>
        <time>2018-05-13T08:28:14.000Z</time>
      </trkpt>
      <trkpt lat="43.92533" lon="7.24419">
        <ele>1045</ele>
        <time>2018-05-13T08:28:15.000Z</time>
      </trkpt>
      <trkpt lat="43.92533" lon="7.24419">
        <ele>1045</ele>
        <time>2018-05-13T08:28:16.000Z</time>
      </trkpt>
      <trkpt lat="43.92533" lon="7.24419">
        <ele>1045</ele>
        <time>2018-05-13T08:28:19.000Z</time>
      </trkpt>
      <trkpt lat="43.92534" lon="7.24421">
        <ele>1045</ele>
        <time>2018-05-13T08:28:20.000Z</time>
      </trkpt>
      <trkpt lat="43.92536" lon="7.24422">
        <ele>1045</ele>
        <time>2018-05-13T08:28:22.000Z</time>
      </trkpt>
      <trkpt lat="43.92536" lon="7.24422">
        <ele>1045</ele>
        <time>2018-05-13T08:28:24.000Z</time>
      </trkpt>
      <trkpt lat="43.92536" lon="7.24422">
        <ele>1045</ele>
        <time>2018-05-13T08:28:25.000Z</time>
      </trkpt>
      <trkpt lat="43.92539" lon="7.24425">
        <ele>1045</ele>
        <time>2018-05-13T08:28:29.000Z</time>
      </trkpt>
      <trkpt lat="43.92546" lon="7.2443">
        <ele>1046</ele>
        <time>2018-05-13T08:28:32.000Z</time>
      </trkpt>
      <trkpt lat="43.92548" lon="7.24432">
        <ele>1046</ele>
        <time>2018-05-13T08:28:33.000Z</time>
      </trkpt>
      <trkpt lat="43.92551" lon="7.24436">
        <ele>1046</ele>
        <time>2018-05-13T08:28:35.000Z</time>
      </trkpt>
      <trkpt lat="43.9255" lon="7.24441">
        <ele>1045</ele>
        <time>2018-05-13T08:28:37.000Z</time>
      </trkpt>
      <trkpt lat="43.92547" lon="7.2444">
        <ele>1044</ele>
        <time>2018-05-13T08:28:38.000Z</time>
      </trkpt>
      <trkpt lat="43.92544" lon="7.24439">
        <ele>1044</ele>
        <time>2018-05-13T08:28:40.000Z</time>
      </trkpt>
      <trkpt lat="43.9254" lon="7.24439">
        <ele>1043</ele>
        <time>2018-05-13T08:28:42.000Z</time>
      </trkpt>
      <trkpt lat="43.92538" lon="7.24441">
        <ele>1042</ele>
        <time>2018-05-13T08:28:43.000Z</time>
      </trkpt>
      <trkpt lat="43.92534" lon="7.24443">
        <ele>1042</ele>
        <time>2018-05-13T08:28:44.000Z</time>
      </trkpt>
      <trkpt lat="43.92528" lon="7.24446">
        <ele>1040</ele>
        <time>2018-05-13T08:28:46.000Z</time>
      </trkpt>
      <trkpt lat="43.92525" lon="7.24448">
        <ele>1039</ele>
        <time>2018-05-13T08:28:47.000Z</time>
      </trkpt>
      <trkpt lat="43.92522" lon="7.2445">
        <ele>1038</ele>
        <time>2018-05-13T08:28:48.000Z</time>
      </trkpt>
      <trkpt lat="43.92516" lon="7.24455">
        <ele>1037</ele>
        <time>2018-05-13T08:28:50.000Z</time>
      </trkpt>
      <trkpt lat="43.92513" lon="7.24459">
        <ele>1035</ele>
        <time>2018-05-13T08:28:51.000Z</time>
      </trkpt>
      <trkpt lat="43.9251" lon="7.24462">
        <ele>1034</ele>
        <time>2018-05-13T08:28:52.000Z</time>
      </trkpt>
      <trkpt lat="43.92502" lon="7.24468">
        <ele>1030</ele>
        <time>2018-05-13T08:28:54.000Z</time>
      </trkpt>
      <trkpt lat="43.92499" lon="7.24471">
        <ele>1019</ele>
        <time>2018-05-13T08:28:55.000Z</time>
      </trkpt>
      <trkpt lat="43.92494" lon="7.24474">
        <ele>1018</ele>
        <time>2018-05-13T08:28:56.000Z</time>
      </trkpt>
      <trkpt lat="43.92492" lon="7.24477">
        <ele>1017</ele>
        <time>2018-05-13T08:28:57.000Z</time>
      </trkpt>
      <trkpt lat="43.92487" lon="7.24484">
        <ele>1015</ele>
        <time>2018-05-13T08:28:59.000Z</time>
      </trkpt>
      <trkpt lat="43.92486" lon="7.24485">
        <ele>1015</ele>
        <time>2018-05-13T08:29:00.000Z</time>
      </trkpt>
      <trkpt lat="43.92486" lon="7.24486">
        <ele>1015</ele>
        <time>2018-05-13T08:29:01.000Z</time>
      </trkpt>
      <trkpt lat="43.92488" lon="7.24485">
        <ele>1015</ele>
        <time>2018-05-13T08:29:02.000Z</time>
      </trkpt>
      <trkpt lat="43.9249" lon="7.24484">
        <ele>1015</ele>
        <time>2018-05-13T08:29:03.000Z</time>
      </trkpt>
      <trkpt lat="43.92495" lon="7.24484">
        <ele>1014</ele>
        <time>2018-05-13T08:29:05.000Z</time>
      </trkpt>
      <trkpt lat="43.92493" lon="7.24489">
        <ele>1013</ele>
        <time>2018-05-13T08:29:07.000Z</time>
      </trkpt>
      <trkpt lat="43.92491" lon="7.24492">
        <ele>1012</ele>
        <time>2018-05-13T08:29:08.000Z</time>
      </trkpt>
      <trkpt lat="43.92487" lon="7.24499">
        <ele>1012</ele>
        <time>2018-05-13T08:29:10.000Z</time>
      </trkpt>
      <trkpt lat="43.92484" lon="7.24503">
        <ele>997</ele>
        <time>2018-05-13T08:29:11.000Z</time>
      </trkpt>
      <trkpt lat="43.92478" lon="7.24504">
        <ele>995</ele>
        <time>2018-05-13T08:29:13.000Z</time>
      </trkpt>
      <trkpt lat="43.92475" lon="7.24505">
        <ele>994</ele>
        <time>2018-05-13T08:29:14.000Z</time>
      </trkpt>
      <trkpt lat="43.92473" lon="7.24507">
        <ele>993</ele>
        <time>2018-05-13T08:29:15.000Z</time>
      </trkpt>
      <trkpt lat="43.9247" lon="7.24508">
        <ele>993</ele>
        <time>2018-05-13T08:29:16.000Z</time>
      </trkpt>
      <trkpt lat="43.92464" lon="7.2451">
        <ele>992</ele>
        <time>2018-05-13T08:29:18.000Z</time>
      </trkpt>
      <trkpt lat="43.92458" lon="7.24516">
        <ele>991</ele>
        <time>2018-05-13T08:29:20.000Z</time>
      </trkpt>
      <trkpt lat="43.92456" lon="7.24518">
        <ele>990</ele>
        <time>2018-05-13T08:29:21.000Z</time>
      </trkpt>
      <trkpt lat="43.92456" lon="7.2452">
        <ele>990</ele>
        <time>2018-05-13T08:29:22.000Z</time>
      </trkpt>
      <trkpt lat="43.92457" lon="7.24519">
        <ele>990</ele>
        <time>2018-05-13T08:29:23.000Z</time>
      </trkpt>
      <trkpt lat="43.92459" lon="7.24519">
        <ele>990</ele>
        <time>2018-05-13T08:29:24.000Z</time>
      </trkpt>
      <trkpt lat="43.92463" lon="7.24519">
        <ele>990</ele>
        <time>2018-05-13T08:29:26.000Z</time>
      </trkpt>
      <trkpt lat="43.92465" lon="7.24522">
        <ele>989</ele>
        <time>2018-05-13T08:29:27.000Z</time>
      </trkpt>
      <trkpt lat="43.92461" lon="7.24527">
        <ele>988</ele>
        <time>2018-05-13T08:29:29.000Z</time>
      </trkpt>
      <trkpt lat="43.92461" lon="7.24527">
        <ele>988</ele>
        <time>2018-05-13T08:29:30.000Z</time>
      </trkpt>
      <trkpt lat="43.92457" lon="7.24533">
        <ele>987</ele>
        <time>2018-05-13T08:29:32.000Z</time>
      </trkpt>
      <trkpt lat="43.92455" lon="7.24536">
        <ele>986</ele>
        <time>2018-05-13T08:29:34.000Z</time>
      </trkpt>
      <trkpt lat="43.92449" lon="7.24547">
        <ele>984</ele>
        <time>2018-05-13T08:29:37.000Z</time>
      </trkpt>
      <trkpt lat="43.92447" lon="7.24551">
        <ele>983</ele>
        <time>2018-05-13T08:29:38.000Z</time>
      </trkpt>
      <trkpt lat="43.92445" lon="7.24554">
        <ele>982</ele>
        <time>2018-05-13T08:29:39.000Z</time>
      </trkpt>
      <trkpt lat="43.92444" lon="7.24556">
        <ele>982</ele>
        <time>2018-05-13T08:29:40.000Z</time>
      </trkpt>
      <trkpt lat="43.92444" lon="7.24556">
        <ele>982</ele>
        <time>2018-05-13T08:29:41.000Z</time>
      </trkpt>
      <trkpt lat="43.92444" lon="7.24557">
        <ele>981</ele>
        <time>2018-05-13T08:29:42.000Z</time>
      </trkpt>
      <trkpt lat="43.92444" lon="7.24559">
        <ele>981</ele>
        <time>2018-05-13T08:29:43.000Z</time>
      </trkpt>
      <trkpt lat="43.92443" lon="7.24565">
        <ele>979</ele>
        <time>2018-05-13T08:29:45.000Z</time>
      </trkpt>
      <trkpt lat="43.92442" lon="7.24569">
        <ele>979</ele>
        <time>2018-05-13T08:29:46.000Z</time>
      </trkpt>
      <trkpt lat="43.9244" lon="7.24572">
        <ele>978</ele>
        <time>2018-05-13T08:29:47.000Z</time>
      </trkpt>
      <trkpt lat="43.92432" lon="7.24583">
        <ele>975</ele>
        <time>2018-05-13T08:29:50.000Z</time>
      </trkpt>
      <trkpt lat="43.92428" lon="7.24586">
        <ele>960</ele>
        <time>2018-05-13T08:29:51.000Z</time>
      </trkpt>
      <trkpt lat="43.92423" lon="7.24589">
        <ele>962</ele>
        <time>2018-05-13T08:29:52.000Z</time>
      </trkpt>
      <trkpt lat="43.92419" lon="7.24589">
        <ele>964</ele>
        <time>2018-05-13T08:29:53.000Z</time>
      </trkpt>
      <trkpt lat="43.92415" lon="7.24586">
        <ele>965</ele>
        <time>2018-05-13T08:29:54.000Z</time>
      </trkpt>
      <trkpt lat="43.92412" lon="7.2458">
        <ele>969</ele>
        <time>2018-05-13T08:29:56.000Z</time>
      </trkpt>
      <trkpt lat="43.92409" lon="7.24577">
        <ele>969</ele>
        <time>2018-05-13T08:29:57.000Z</time>
      </trkpt>
      <trkpt lat="43.92407" lon="7.24574">
        <ele>969</ele>
        <time>2018-05-13T08:29:58.000Z</time>
      </trkpt>
      <trkpt lat="43.92393" lon="7.24571">
        <ele>968</ele>
        <time>2018-05-13T08:30:03.000Z</time>
      </trkpt>
      <trkpt lat="43.92384" lon="7.2457">
        <ele>966</ele>
        <time>2018-05-13T08:30:07.000Z</time>
      </trkpt>
      <trkpt lat="43.92382" lon="7.24568">
        <ele>966</ele>
        <time>2018-05-13T08:30:08.000Z</time>
      </trkpt>
      <trkpt lat="43.92377" lon="7.24562">
        <ele>966</ele>
        <time>2018-05-13T08:30:12.000Z</time>
      </trkpt>
      <trkpt lat="43.92376" lon="7.24559">
        <ele>966</ele>
        <time>2018-05-13T08:30:13.000Z</time>
      </trkpt>
      <trkpt lat="43.92365" lon="7.24538">
        <ele>966</ele>
        <time>2018-05-13T08:30:19.000Z</time>
      </trkpt>
      <trkpt lat="43.92361" lon="7.24533">
        <ele>966</ele>
        <time>2018-05-13T08:30:21.000Z</time>
      </trkpt>
      <trkpt lat="43.92357" lon="7.24527">
        <ele>966</ele>
        <time>2018-05-13T08:30:23.000Z</time>
      </trkpt>
      <trkpt lat="43.92355" lon="7.24524">
        <ele>966</ele>
        <time>2018-05-13T08:30:24.000Z</time>
      </trkpt>
      <trkpt lat="43.92353" lon="7.24522">
        <ele>965</ele>
        <time>2018-05-13T08:30:25.000Z</time>
      </trkpt>
      <trkpt lat="43.92351" lon="7.24515">
        <ele>965</ele>
        <time>2018-05-13T08:30:27.000Z</time>
      </trkpt>
      <trkpt lat="43.92352" lon="7.2451">
        <ele>965</ele>
        <time>2018-05-13T08:30:29.000Z</time>
      </trkpt>
      <trkpt lat="43.9235" lon="7.24511">
        <ele>964</ele>
        <time>2018-05-13T08:30:32.000Z</time>
      </trkpt>
      <trkpt lat="43.92348" lon="7.24513">
        <ele>964</ele>
        <time>2018-05-13T08:30:34.000Z</time>
      </trkpt>
      <trkpt lat="43.92346" lon="7.24511">
        <ele>963</ele>
        <time>2018-05-13T08:30:36.000Z</time>
      </trkpt>
      <trkpt lat="43.92343" lon="7.24507">
        <ele>962</ele>
        <time>2018-05-13T08:30:38.000Z</time>
      </trkpt>
      <trkpt lat="43.92342" lon="7.24504">
        <ele>962</ele>
        <time>2018-05-13T08:30:39.000Z</time>
      </trkpt>
      <trkpt lat="43.9234" lon="7.24498">
        <ele>967</ele>
        <time>2018-05-13T08:30:41.000Z</time>
      </trkpt>
      <trkpt lat="43.92339" lon="7.24495">
        <ele>967</ele>
        <time>2018-05-13T08:30:42.000Z</time>
      </trkpt>
      <trkpt lat="43.92338" lon="7.24492">
        <ele>969</ele>
        <time>2018-05-13T08:30:43.000Z</time>
      </trkpt>
      <trkpt lat="43.92335" lon="7.24489">
        <ele>970</ele>
        <time>2018-05-13T08:30:45.000Z</time>
      </trkpt>
      <trkpt lat="43.92334" lon="7.24491">
        <ele>968</ele>
        <time>2018-05-13T08:30:47.000Z</time>
      </trkpt>
      <trkpt lat="43.92334" lon="7.24494">
        <ele>966</ele>
        <time>2018-05-13T08:30:48.000Z</time>
      </trkpt>
      <trkpt lat="43.92332" lon="7.24497">
        <ele>955</ele>
        <time>2018-05-13T08:30:50.000Z</time>
      </trkpt>
      <trkpt lat="43.9233" lon="7.24496">
        <ele>954</ele>
        <time>2018-05-13T08:30:51.000Z</time>
      </trkpt>
      <trkpt lat="43.92329" lon="7.24494">
        <ele>952</ele>
        <time>2018-05-13T08:30:52.000Z</time>
      </trkpt>
      <trkpt lat="43.92328" lon="7.2449">
        <ele>950</ele>
        <time>2018-05-13T08:30:54.000Z</time>
      </trkpt>
      <trkpt lat="43.92326" lon="7.24489">
        <ele>949</ele>
        <time>2018-05-13T08:30:55.000Z</time>
      </trkpt>
      <trkpt lat="43.92323" lon="7.24484">
        <ele>947</ele>
        <time>2018-05-13T08:30:57.000Z</time>
      </trkpt>
      <trkpt lat="43.9232" lon="7.24477">
        <ele>945</ele>
        <time>2018-05-13T08:31:00.000Z</time>
      </trkpt>
      <trkpt lat="43.92316" lon="7.24473">
        <ele>944</ele>
        <time>2018-05-13T08:31:02.000Z</time>
      </trkpt>
      <trkpt lat="43.92313" lon="7.2447">
        <ele>943</ele>
        <time>2018-05-13T08:31:04.000Z</time>
      </trkpt>
      <trkpt lat="43.92312" lon="7.2447">
        <ele>942</ele>
        <time>2018-05-13T08:31:05.000Z</time>
      </trkpt>
      <trkpt lat="43.92311" lon="7.24467">
        <ele>942</ele>
        <time>2018-05-13T08:31:06.000Z</time>
      </trkpt>
      <trkpt lat="43.92312" lon="7.24464">
        <ele>943</ele>
        <time>2018-05-13T08:31:07.000Z</time>
      </trkpt>
      <trkpt lat="43.9231" lon="7.24456">
        <ele>943</ele>
        <time>2018-05-13T08:31:10.000Z</time>
      </trkpt>
      <trkpt lat="43.92308" lon="7.24452">
        <ele>943</ele>
        <time>2018-05-13T08:31:12.000Z</time>
      </trkpt>
      <trkpt lat="43.92304" lon="7.24448">
        <ele>942</ele>
        <time>2018-05-13T08:31:14.000Z</time>
      </trkpt>
      <trkpt lat="43.92304" lon="7.24446">
        <ele>943</ele>
        <time>2018-05-13T08:31:15.000Z</time>
      </trkpt>
      <trkpt lat="43.92304" lon="7.24443">
        <ele>943</ele>
        <time>2018-05-13T08:31:17.000Z</time>
      </trkpt>
      <trkpt lat="43.92306" lon="7.24439">
        <ele>945</ele>
        <time>2018-05-13T08:31:19.000Z</time>
      </trkpt>
      <trkpt lat="43.92306" lon="7.24435">
        <ele>946</ele>
        <time>2018-05-13T08:31:20.000Z</time>
      </trkpt>
      <trkpt lat="43.92309" lon="7.24426">
        <ele>950</ele>
        <time>2018-05-13T08:31:22.000Z</time>
      </trkpt>
      <trkpt lat="43.92311" lon="7.2442">
        <ele>952</ele>
        <time>2018-05-13T08:31:24.000Z</time>
      </trkpt>
      <trkpt lat="43.92311" lon="7.2441">
        <ele>966</ele>
        <time>2018-05-13T08:31:26.000Z</time>
      </trkpt>
      <trkpt lat="43.92311" lon="7.24406">
        <ele>966</ele>
        <time>2018-05-13T08:31:28.000Z</time>
      </trkpt>
      <trkpt lat="43.9231" lon="7.24406">
        <ele>966</ele>
        <time>2018-05-13T08:31:30.000Z</time>
      </trkpt>
      <trkpt lat="43.9231" lon="7.24405">
        <ele>966</ele>
        <time>2018-05-13T08:31:34.000Z</time>
      </trkpt>
      <trkpt lat="43.92308" lon="7.24403">
        <ele>965</ele>
        <time>2018-05-13T08:31:37.000Z</time>
      </trkpt>
      <trkpt lat="43.92304" lon="7.24397">
        <ele>964</ele>
        <time>2018-05-13T08:31:44.000Z</time>
      </trkpt>
      <trkpt lat="43.923" lon="7.24392">
        <ele>963</ele>
        <time>2018-05-13T08:31:49.000Z</time>
      </trkpt>
      <trkpt lat="43.92296" lon="7.24392">
        <ele>961</ele>
        <time>2018-05-13T08:31:53.000Z</time>
      </trkpt>
      <trkpt lat="43.92295" lon="7.24392">
        <ele>961</ele>
        <time>2018-05-13T08:31:54.000Z</time>
      </trkpt>
      <trkpt lat="43.92293" lon="7.24392">
        <ele>960</ele>
        <time>2018-05-13T08:31:55.000Z</time>
      </trkpt>
      <trkpt lat="43.92291" lon="7.24393">
        <ele>959</ele>
        <time>2018-05-13T08:31:58.000Z</time>
      </trkpt>
      <trkpt lat="43.92288" lon="7.24394">
        <ele>957</ele>
        <time>2018-05-13T08:32:01.000Z</time>
      </trkpt>
      <trkpt lat="43.92288" lon="7.24394">
        <ele>958</ele>
        <time>2018-05-13T08:32:02.000Z</time>
      </trkpt>
      <trkpt lat="43.92287" lon="7.24394">
        <ele>957</ele>
        <time>2018-05-13T08:32:06.000Z</time>
      </trkpt>
      <trkpt lat="43.92285" lon="7.24394">
        <ele>956</ele>
        <time>2018-05-13T08:32:07.000Z</time>
      </trkpt>
      <trkpt lat="43.92278" lon="7.24395">
        <ele>953</ele>
        <time>2018-05-13T08:32:11.000Z</time>
      </trkpt>
      <trkpt lat="43.92276" lon="7.24393">
        <ele>952</ele>
        <time>2018-05-13T08:32:12.000Z</time>
      </trkpt>
      <trkpt lat="43.92274" lon="7.2439">
        <ele>952</ele>
        <time>2018-05-13T08:32:13.000Z</time>
      </trkpt>
      <trkpt lat="43.92268" lon="7.24388">
        <ele>950</ele>
        <time>2018-05-13T08:32:15.000Z</time>
      </trkpt>
      <trkpt lat="43.92264" lon="7.24386">
        <ele>950</ele>
        <time>2018-05-13T08:32:17.000Z</time>
      </trkpt>
      <trkpt lat="43.92264" lon="7.24388">
        <ele>949</ele>
        <time>2018-05-13T08:32:19.000Z</time>
      </trkpt>
      <trkpt lat="43.92265" lon="7.24389">
        <ele>949</ele>
        <time>2018-05-13T08:32:20.000Z</time>
      </trkpt>
      <trkpt lat="43.92265" lon="7.24392">
        <ele>947</ele>
        <time>2018-05-13T08:32:22.000Z</time>
      </trkpt>
      <trkpt lat="43.92264" lon="7.24392">
        <ele>947</ele>
        <time>2018-05-13T08:32:23.000Z</time>
      </trkpt>
      <trkpt lat="43.92261" lon="7.24392">
        <ele>946</ele>
        <time>2018-05-13T08:32:25.000Z</time>
      </trkpt>
      <trkpt lat="43.92252" lon="7.2439">
        <ele>945</ele>
        <time>2018-05-13T08:32:28.000Z</time>
      </trkpt>
      <trkpt lat="43.92248" lon="7.2438">
        <ele>918</ele>
        <time>2018-05-13T08:32:31.000Z</time>
      </trkpt>
      <trkpt lat="43.92248" lon="7.24377">
        <ele>919</ele>
        <time>2018-05-13T08:32:32.000Z</time>
      </trkpt>
      <trkpt lat="43.92245" lon="7.2437">
        <ele>921</ele>
        <time>2018-05-13T08:32:34.000Z</time>
      </trkpt>
      <trkpt lat="43.92242" lon="7.24368">
        <ele>921</ele>
        <time>2018-05-13T08:32:35.000Z</time>
      </trkpt>
      <trkpt lat="43.92235" lon="7.24369">
        <ele>920</ele>
        <time>2018-05-13T08:32:38.000Z</time>
      </trkpt>
      <trkpt lat="43.92233" lon="7.24369">
        <ele>919</ele>
        <time>2018-05-13T08:32:39.000Z</time>
      </trkpt>
      <trkpt lat="43.9223" lon="7.2437">
        <ele>919</ele>
        <time>2018-05-13T08:32:40.000Z</time>
      </trkpt>
      <trkpt lat="43.92223" lon="7.24375">
        <ele>916</ele>
        <time>2018-05-13T08:32:42.000Z</time>
      </trkpt>
      <trkpt lat="43.92217" lon="7.24377">
        <ele>914</ele>
        <time>2018-05-13T08:32:43.000Z</time>
      </trkpt>
      <trkpt lat="43.92213" lon="7.24377">
        <ele>913</ele>
        <time>2018-05-13T08:32:44.000Z</time>
      </trkpt>
      <trkpt lat="43.92209" lon="7.24368">
        <ele>915</ele>
        <time>2018-05-13T08:32:46.000Z</time>
      </trkpt>
      <trkpt lat="43.92207" lon="7.24364">
        <ele>915</ele>
        <time>2018-05-13T08:32:47.000Z</time>
      </trkpt>
      <trkpt lat="43.92206" lon="7.24362">
        <ele>915</ele>
        <time>2018-05-13T08:32:48.000Z</time>
      </trkpt>
      <trkpt lat="43.92202" lon="7.24354">
        <ele>916</ele>
        <time>2018-05-13T08:32:50.000Z</time>
      </trkpt>
      <trkpt lat="43.92199" lon="7.24349">
        <ele>917</ele>
        <time>2018-05-13T08:32:51.000Z</time>
      </trkpt>
      <trkpt lat="43.92195" lon="7.24344">
        <ele>917</ele>
        <time>2018-05-13T08:32:52.000Z</time>
      </trkpt>
      <trkpt lat="43.92191" lon="7.24337">
        <ele>918</ele>
        <time>2018-05-13T08:32:53.000Z</time>
      </trkpt>
      <trkpt lat="43.92188" lon="7.24334">
        <ele>918</ele>
        <time>2018-05-13T08:32:54.000Z</time>
      </trkpt>
      <trkpt lat="43.92186" lon="7.24333">
        <ele>935</ele>
        <time>2018-05-13T08:32:55.000Z</time>
      </trkpt>
      <trkpt lat="43.92179" lon="7.2433">
        <ele>932</ele>
        <time>2018-05-13T08:32:57.000Z</time>
      </trkpt>
      <trkpt lat="43.92173" lon="7.2433">
        <ele>928</ele>
        <time>2018-05-13T08:32:59.000Z</time>
      </trkpt>
      <trkpt lat="43.9217" lon="7.2433">
        <ele>926</ele>
        <time>2018-05-13T08:33:01.000Z</time>
      </trkpt>
      <trkpt lat="43.92165" lon="7.24331">
        <ele>920</ele>
        <time>2018-05-13T08:33:03.000Z</time>
      </trkpt>
      <trkpt lat="43.92162" lon="7.24333">
        <ele>920</ele>
        <time>2018-05-13T08:33:04.000Z</time>
      </trkpt>
      <trkpt lat="43.92159" lon="7.2434">
        <ele>908</ele>
        <time>2018-05-13T08:33:06.000Z</time>
      </trkpt>
      <trkpt lat="43.92157" lon="7.24344">
        <ele>902</ele>
        <time>2018-05-13T08:33:07.000Z</time>
      </trkpt>
      <trkpt lat="43.92154" lon="7.24348">
        <ele>899</ele>
        <time>2018-05-13T08:33:08.000Z</time>
      </trkpt>
      <trkpt lat="43.92148" lon="7.24354">
        <ele>893</ele>
        <time>2018-05-13T08:33:10.000Z</time>
      </trkpt>
      <trkpt lat="43.92145" lon="7.24354">
        <ele>892</ele>
        <time>2018-05-13T08:33:11.000Z</time>
      </trkpt>
      <trkpt lat="43.92143" lon="7.24358">
        <ele>890</ele>
        <time>2018-05-13T08:33:12.000Z</time>
      </trkpt>
      <trkpt lat="43.9214" lon="7.2436">
        <ele>888</ele>
        <time>2018-05-13T08:33:13.000Z</time>
      </trkpt>
      <trkpt lat="43.92138" lon="7.24362">
        <ele>887</ele>
        <time>2018-05-13T08:33:14.000Z</time>
      </trkpt>
      <trkpt lat="43.92138" lon="7.24366">
        <ele>886</ele>
        <time>2018-05-13T08:33:15.000Z</time>
      </trkpt>
      <trkpt lat="43.92137" lon="7.2437">
        <ele>884</ele>
        <time>2018-05-13T08:33:16.000Z</time>
      </trkpt>
      <trkpt lat="43.92133" lon="7.24376">
        <ele>882</ele>
        <time>2018-05-13T08:33:18.000Z</time>
      </trkpt>
      <trkpt lat="43.9213" lon="7.24377">
        <ele>881</ele>
        <time>2018-05-13T08:33:19.000Z</time>
      </trkpt>
      <trkpt lat="43.92128" lon="7.24378">
        <ele>880</ele>
        <time>2018-05-13T08:33:20.000Z</time>
      </trkpt>
      <trkpt lat="43.92125" lon="7.24379">
        <ele>880</ele>
        <time>2018-05-13T08:33:21.000Z</time>
      </trkpt>
      <trkpt lat="43.9212" lon="7.24377">
        <ele>879</ele>
        <time>2018-05-13T08:33:23.000Z</time>
      </trkpt>
      <trkpt lat="43.92117" lon="7.24375">
        <ele>879</ele>
        <time>2018-05-13T08:33:25.000Z</time>
      </trkpt>
      <trkpt lat="43.92114" lon="7.24374">
        <ele>879</ele>
        <time>2018-05-13T08:33:26.000Z</time>
      </trkpt>
      <trkpt lat="43.92113" lon="7.24373">
        <ele>879</ele>
        <time>2018-05-13T08:33:27.000Z</time>
      </trkpt>
      <trkpt lat="43.92113" lon="7.24374">
        <ele>879</ele>
        <time>2018-05-13T08:33:28.000Z</time>
      </trkpt>
      <trkpt lat="43.92111" lon="7.24374">
        <ele>879</ele>
        <time>2018-05-13T08:33:29.000Z</time>
      </trkpt>
      <trkpt lat="43.92108" lon="7.24373">
        <ele>878</ele>
        <time>2018-05-13T08:33:30.000Z</time>
      </trkpt>
      <trkpt lat="43.92104" lon="7.24375">
        <ele>877</ele>
        <time>2018-05-13T08:33:32.000Z</time>
      </trkpt>
      <trkpt lat="43.92102" lon="7.2438">
        <ele>875</ele>
        <time>2018-05-13T08:33:34.000Z</time>
      </trkpt>
      <trkpt lat="43.92098" lon="7.24379">
        <ele>875</ele>
        <time>2018-05-13T08:33:36.000Z</time>
      </trkpt>
      <trkpt lat="43.92095" lon="7.24379">
        <ele>875</ele>
        <time>2018-05-13T08:33:38.000Z</time>
      </trkpt>
      <trkpt lat="43.9209" lon="7.2438">
        <ele>874</ele>
        <time>2018-05-13T08:33:40.000Z</time>
      </trkpt>
      <trkpt lat="43.92086" lon="7.24379">
        <ele>874</ele>
        <time>2018-05-13T08:33:41.000Z</time>
      </trkpt>
      <trkpt lat="43.92084" lon="7.24377">
        <ele>875</ele>
        <time>2018-05-13T08:33:42.000Z</time>
      </trkpt>
      <trkpt lat="43.9208" lon="7.24372">
        <ele>858</ele>
        <time>2018-05-13T08:33:44.000Z</time>
      </trkpt>
      <trkpt lat="43.92077" lon="7.2437">
        <ele>859</ele>
        <time>2018-05-13T08:33:45.000Z</time>
      </trkpt>
      <trkpt lat="43.92076" lon="7.24369">
        <ele>859</ele>
        <time>2018-05-13T08:33:46.000Z</time>
      </trkpt>
      <trkpt lat="43.92074" lon="7.24367">
        <ele>860</ele>
        <time>2018-05-13T08:33:47.000Z</time>
      </trkpt>
      <trkpt lat="43.92072" lon="7.24367">
        <ele>859</ele>
        <time>2018-05-13T08:33:48.000Z</time>
      </trkpt>
      <trkpt lat="43.9207" lon="7.24368">
        <ele>859</ele>
        <time>2018-05-13T08:33:49.000Z</time>
      </trkpt>
      <trkpt lat="43.9207" lon="7.24371">
        <ele>858</ele>
        <time>2018-05-13T08:33:50.000Z</time>
      </trkpt>
      <trkpt lat="43.92068" lon="7.24374">
        <ele>857</ele>
        <time>2018-05-13T08:33:52.000Z</time>
      </trkpt>
      <trkpt lat="43.92067" lon="7.24374">
        <ele>856</ele>
        <time>2018-05-13T08:33:53.000Z</time>
      </trkpt>
      <trkpt lat="43.92066" lon="7.24379">
        <ele>855</ele>
        <time>2018-05-13T08:33:55.000Z</time>
      </trkpt>
      <trkpt lat="43.92067" lon="7.24383">
        <ele>855</ele>
        <time>2018-05-13T08:33:57.000Z</time>
      </trkpt>
      <trkpt lat="43.92068" lon="7.24386">
        <ele>854</ele>
        <time>2018-05-13T08:33:58.000Z</time>
      </trkpt>
      <trkpt lat="43.92069" lon="7.24394">
        <ele>853</ele>
        <time>2018-05-13T08:34:00.000Z</time>
      </trkpt>
      <trkpt lat="43.9207" lon="7.24399">
        <ele>852</ele>
        <time>2018-05-13T08:34:01.000Z</time>
      </trkpt>
      <trkpt lat="43.92073" lon="7.24404">
        <ele>852</ele>
        <time>2018-05-13T08:34:02.000Z</time>
      </trkpt>
      <trkpt lat="43.92075" lon="7.24409">
        <ele>851</ele>
        <time>2018-05-13T08:34:03.000Z</time>
      </trkpt>
      <trkpt lat="43.92076" lon="7.24411">
        <ele>851</ele>
        <time>2018-05-13T08:34:04.000Z</time>
      </trkpt>
      <trkpt lat="43.92077" lon="7.24413">
        <ele>851</ele>
        <time>2018-05-13T08:34:05.000Z</time>
      </trkpt>
      <trkpt lat="43.92078" lon="7.24414">
        <ele>851</ele>
        <time>2018-05-13T08:34:06.000Z</time>
      </trkpt>
      <trkpt lat="43.92077" lon="7.24413">
        <ele>851</ele>
        <time>2018-05-13T08:34:07.000Z</time>
      </trkpt>
      <trkpt lat="43.92078" lon="7.24413">
        <ele>851</ele>
        <time>2018-05-13T08:34:08.000Z</time>
      </trkpt>
      <trkpt lat="43.92077" lon="7.24414">
        <ele>851</ele>
        <time>2018-05-13T08:34:09.000Z</time>
      </trkpt>
      <trkpt lat="43.92077" lon="7.24419">
        <ele>844</ele>
        <time>2018-05-13T08:34:15.000Z</time>
      </trkpt>
      <trkpt lat="43.92077" lon="7.24421">
        <ele>844</ele>
        <time>2018-05-13T08:34:17.000Z</time>
      </trkpt>
      <trkpt lat="43.92078" lon="7.24423">
        <ele>843</ele>
        <time>2018-05-13T08:34:18.000Z</time>
      </trkpt>
      <trkpt lat="43.92078" lon="7.24425">
        <ele>842</ele>
        <time>2018-05-13T08:34:20.000Z</time>
      </trkpt>
      <trkpt lat="43.92079" lon="7.24426">
        <ele>842</ele>
        <time>2018-05-13T08:34:21.000Z</time>
      </trkpt>
      <trkpt lat="43.92079" lon="7.24428">
        <ele>841</ele>
        <time>2018-05-13T08:34:23.000Z</time>
      </trkpt>
      <trkpt lat="43.92078" lon="7.24429">
        <ele>840</ele>
        <time>2018-05-13T08:34:25.000Z</time>
      </trkpt>
      <trkpt lat="43.92077" lon="7.24429">
        <ele>840</ele>
        <time>2018-05-13T08:34:26.000Z</time>
      </trkpt>
      <trkpt lat="43.92075" lon="7.24429">
        <ele>840</ele>
        <time>2018-05-13T08:34:28.000Z</time>
      </trkpt>
      <trkpt lat="43.92072" lon="7.24429">
        <ele>839</ele>
        <time>2018-05-13T08:34:31.000Z</time>
      </trkpt>
      <trkpt lat="43.92071" lon="7.24429">
        <ele>838</ele>
        <time>2018-05-13T08:34:33.000Z</time>
      </trkpt>
      <trkpt lat="43.92069" lon="7.2443">
        <ele>837</ele>
        <time>2018-05-13T08:34:41.000Z</time>
      </trkpt>
      <trkpt lat="43.92069" lon="7.24431">
        <ele>837</ele>
        <time>2018-05-13T08:34:43.000Z</time>
      </trkpt>
      <trkpt lat="43.92066" lon="7.24431">
        <ele>836</ele>
        <time>2018-05-13T08:34:48.000Z</time>
      </trkpt>
      <trkpt lat="43.9206" lon="7.24433">
        <ele>835</ele>
        <time>2018-05-13T08:34:54.000Z</time>
      </trkpt>
      <trkpt lat="43.92059" lon="7.24434">
        <ele>834</ele>
        <time>2018-05-13T08:34:56.000Z</time>
      </trkpt>
      <trkpt lat="43.92059" lon="7.24435">
        <ele>834</ele>
        <time>2018-05-13T08:34:57.000Z</time>
      </trkpt>
      <trkpt lat="43.92058" lon="7.24438">
        <ele>833</ele>
        <time>2018-05-13T08:34:59.000Z</time>
      </trkpt>
      <trkpt lat="43.92058" lon="7.24437">
        <ele>833</ele>
        <time>2018-05-13T08:35:01.000Z</time>
      </trkpt>
      <trkpt lat="43.92053" lon="7.24444">
        <ele>831</ele>
        <time>2018-05-13T08:35:05.000Z</time>
      </trkpt>
      <trkpt lat="43.92052" lon="7.24447">
        <ele>830</ele>
        <time>2018-05-13T08:35:06.000Z</time>
      </trkpt>
      <trkpt lat="43.9205" lon="7.24453">
        <ele>829</ele>
        <time>2018-05-13T08:35:08.000Z</time>
      </trkpt>
      <trkpt lat="43.92049" lon="7.24458">
        <ele>828</ele>
        <time>2018-05-13T08:35:10.000Z</time>
      </trkpt>
      <trkpt lat="43.92047" lon="7.24461">
        <ele>827</ele>
        <time>2018-05-13T08:35:12.000Z</time>
      </trkpt>
      <trkpt lat="43.92047" lon="7.24464">
        <ele>827</ele>
        <time>2018-05-13T08:35:13.000Z</time>
      </trkpt>
      <trkpt lat="43.92047" lon="7.24467">
        <ele>826</ele>
        <time>2018-05-13T08:35:14.000Z</time>
      </trkpt>
      <trkpt lat="43.92047" lon="7.24471">
        <ele>826</ele>
        <time>2018-05-13T08:35:15.000Z</time>
      </trkpt>
      <trkpt lat="43.92046" lon="7.24476">
        <ele>825</ele>
        <time>2018-05-13T08:35:16.000Z</time>
      </trkpt>
      <trkpt lat="43.92041" lon="7.24483">
        <ele>824</ele>
        <time>2018-05-13T08:35:18.000Z</time>
      </trkpt>
      <trkpt lat="43.9204" lon="7.24488">
        <ele>824</ele>
        <time>2018-05-13T08:35:19.000Z</time>
      </trkpt>
      <trkpt lat="43.92037" lon="7.24493">
        <ele>823</ele>
        <time>2018-05-13T08:35:20.000Z</time>
      </trkpt>
      <trkpt lat="43.92034" lon="7.24498">
        <ele>823</ele>
        <time>2018-05-13T08:35:21.000Z</time>
      </trkpt>
      <trkpt lat="43.92031" lon="7.24501">
        <ele>805</ele>
        <time>2018-05-13T08:35:22.000Z</time>
      </trkpt>
      <trkpt lat="43.92028" lon="7.24502">
        <ele>805</ele>
        <time>2018-05-13T08:35:23.000Z</time>
      </trkpt>
      <trkpt lat="43.92025" lon="7.24505">
        <ele>806</ele>
        <time>2018-05-13T08:35:24.000Z</time>
      </trkpt>
      <trkpt lat="43.92022" lon="7.24508">
        <ele>806</ele>
        <time>2018-05-13T08:35:25.000Z</time>
      </trkpt>
      <trkpt lat="43.92012" lon="7.24514">
        <ele>807</ele>
        <time>2018-05-13T08:35:28.000Z</time>
      </trkpt>
      <trkpt lat="43.92002" lon="7.24523">
        <ele>805</ele>
        <time>2018-05-13T08:35:31.000Z</time>
      </trkpt>
      <trkpt lat="43.91997" lon="7.24527">
        <ele>807</ele>
        <time>2018-05-13T08:35:32.000Z</time>
      </trkpt>
      <trkpt lat="43.91972" lon="7.24534">
        <ele>805</ele>
        <time>2018-05-13T08:35:36.000Z</time>
      </trkpt>
      <trkpt lat="43.91964" lon="7.24535">
        <ele>805</ele>
        <time>2018-05-13T08:35:38.000Z</time>
      </trkpt>
      <trkpt lat="43.91965" lon="7.24535">
        <ele>804</ele>
        <time>2018-05-13T08:35:39.000Z</time>
      </trkpt>
      <trkpt lat="43.91967" lon="7.24537">
        <ele>804</ele>
        <time>2018-05-13T08:35:41.000Z</time>
      </trkpt>
      <trkpt lat="43.91972" lon="7.24538">
        <ele>804</ele>
        <time>2018-05-13T08:35:43.000Z</time>
      </trkpt>
      <trkpt lat="43.91975" lon="7.24538">
        <ele>804</ele>
        <time>2018-05-13T08:35:44.000Z</time>
      </trkpt>
      <trkpt lat="43.91988" lon="7.24539">
        <ele>803</ele>
        <time>2018-05-13T08:35:47.000Z</time>
      </trkpt>
      <trkpt lat="43.91995" lon="7.24539">
        <ele>803</ele>
        <time>2018-05-13T08:35:49.000Z</time>
      </trkpt>
      <trkpt lat="43.91999" lon="7.2454">
        <ele>803</ele>
        <time>2018-05-13T08:35:51.000Z</time>
      </trkpt>
      <trkpt lat="43.92007" lon="7.2454">
        <ele>798</ele>
        <time>2018-05-13T08:35:53.000Z</time>
      </trkpt>
      <trkpt lat="43.92011" lon="7.24541">
        <ele>798</ele>
        <time>2018-05-13T08:35:54.000Z</time>
      </trkpt>
      <trkpt lat="43.92015" lon="7.24542">
        <ele>798</ele>
        <time>2018-05-13T08:35:55.000Z</time>
      </trkpt>
      <trkpt lat="43.9202" lon="7.24541">
        <ele>798</ele>
        <time>2018-05-13T08:35:56.000Z</time>
      </trkpt>
      <trkpt lat="43.92031" lon="7.2454">
        <ele>797</ele>
        <time>2018-05-13T08:35:58.000Z</time>
      </trkpt>
      <trkpt lat="43.92035" lon="7.24538">
        <ele>798</ele>
        <time>2018-05-13T08:35:59.000Z</time>
      </trkpt>
      <trkpt lat="43.9204" lon="7.24536">
        <ele>798</ele>
        <time>2018-05-13T08:36:00.000Z</time>
      </trkpt>
      <trkpt lat="43.92051" lon="7.24534">
        <ele>798</ele>
        <time>2018-05-13T08:36:02.000Z</time>
      </trkpt>
      <trkpt lat="43.92054" lon="7.24536">
        <ele>797</ele>
        <time>2018-05-13T08:36:03.000Z</time>
      </trkpt>
      <trkpt lat="43.92058" lon="7.24539">
        <ele>797</ele>
        <time>2018-05-13T08:36:04.000Z</time>
      </trkpt>
      <trkpt lat="43.92064" lon="7.24542">
        <ele>796</ele>
        <time>2018-05-13T08:36:06.000Z</time>
      </trkpt>
      <trkpt lat="43.92068" lon="7.24544">
        <ele>795</ele>
        <time>2018-05-13T08:36:07.000Z</time>
      </trkpt>
      <trkpt lat="43.92067" lon="7.24543">
        <ele>795</ele>
        <time>2018-05-13T08:36:09.000Z</time>
      </trkpt>
      <trkpt lat="43.92068" lon="7.24544">
        <ele>795</ele>
        <time>2018-05-13T08:36:10.000Z</time>
      </trkpt>
      <trkpt lat="43.92069" lon="7.24545">
        <ele>795</ele>
        <time>2018-05-13T08:36:11.000Z</time>
      </trkpt>
      <trkpt lat="43.9207" lon="7.24546">
        <ele>794</ele>
        <time>2018-05-13T08:36:12.000Z</time>
      </trkpt>
      <trkpt lat="43.92069" lon="7.24548">
        <ele>794</ele>
        <time>2018-05-13T08:36:13.000Z</time>
      </trkpt>
      <trkpt lat="43.92067" lon="7.2455">
        <ele>793</ele>
        <time>2018-05-13T08:36:15.000Z</time>
      </trkpt>
      <trkpt lat="43.92065" lon="7.24552">
        <ele>793</ele>
        <time>2018-05-13T08:36:16.000Z</time>
      </trkpt>
      <trkpt lat="43.92063" lon="7.24552">
        <ele>793</ele>
        <time>2018-05-13T08:36:17.000Z</time>
      </trkpt>
      <trkpt lat="43.92061" lon="7.24551">
        <ele>793</ele>
        <time>2018-05-13T08:36:18.000Z</time>
      </trkpt>
      <trkpt lat="43.92059" lon="7.24551">
        <ele>793</ele>
        <time>2018-05-13T08:36:19.000Z</time>
      </trkpt>
      <trkpt lat="43.92051" lon="7.24552">
        <ele>794</ele>
        <time>2018-05-13T08:36:24.000Z</time>
      </trkpt>
      <trkpt lat="43.92046" lon="7.24552">
        <ele>794</ele>
        <time>2018-05-13T08:36:27.000Z</time>
      </trkpt>
      <trkpt lat="43.92043" lon="7.24554">
        <ele>794</ele>
        <time>2018-05-13T08:36:29.000Z</time>
      </trkpt>
      <trkpt lat="43.92042" lon="7.24555">
        <ele>794</ele>
        <time>2018-05-13T08:36:31.000Z</time>
      </trkpt>
      <trkpt lat="43.9204" lon="7.24558">
        <ele>793</ele>
        <time>2018-05-13T08:36:32.000Z</time>
      </trkpt>
      <trkpt lat="43.92039" lon="7.24561">
        <ele>793</ele>
        <time>2018-05-13T08:36:34.000Z</time>
      </trkpt>
      <trkpt lat="43.92038" lon="7.24563">
        <ele>792</ele>
        <time>2018-05-13T08:36:36.000Z</time>
      </trkpt>
      <trkpt lat="43.92035" lon="7.24573">
        <ele>791</ele>
        <time>2018-05-13T08:36:41.000Z</time>
      </trkpt>
      <trkpt lat="43.92035" lon="7.24578">
        <ele>790</ele>
        <time>2018-05-13T08:36:43.000Z</time>
      </trkpt>
      <trkpt lat="43.92033" lon="7.24589">
        <ele>769</ele>
        <time>2018-05-13T08:36:46.000Z</time>
      </trkpt>
      <trkpt lat="43.92025" lon="7.24593">
        <ele>770</ele>
        <time>2018-05-13T08:36:48.000Z</time>
      </trkpt>
      <trkpt lat="43.92021" lon="7.24595">
        <ele>770</ele>
        <time>2018-05-13T08:36:49.000Z</time>
      </trkpt>
      <trkpt lat="43.92017" lon="7.24596">
        <ele>771</ele>
        <time>2018-05-13T08:36:50.000Z</time>
      </trkpt>
      <trkpt lat="43.92014" lon="7.24595">
        <ele>772</ele>
        <time>2018-05-13T08:36:51.000Z</time>
      </trkpt>
      <trkpt lat="43.92007" lon="7.24594">
        <ele>774</ele>
        <time>2018-05-13T08:36:53.000Z</time>
      </trkpt>
      <trkpt lat="43.91995" lon="7.24593">
        <ele>778</ele>
        <time>2018-05-13T08:36:56.000Z</time>
      </trkpt>
      <trkpt lat="43.91991" lon="7.24592">
        <ele>778</ele>
        <time>2018-05-13T08:36:57.000Z</time>
      </trkpt>
      <trkpt lat="43.91988" lon="7.24594">
        <ele>777</ele>
        <time>2018-05-13T08:36:58.000Z</time>
      </trkpt>
      <trkpt lat="43.91982" lon="7.24598">
        <ele>777</ele>
        <time>2018-05-13T08:37:00.000Z</time>
      </trkpt>
      <trkpt lat="43.9198" lon="7.24609">
        <ele>775</ele>
        <time>2018-05-13T08:37:03.000Z</time>
      </trkpt>
      <trkpt lat="43.91978" lon="7.24612">
        <ele>774</ele>
        <time>2018-05-13T08:37:04.000Z</time>
      </trkpt>
      <trkpt lat="43.91974" lon="7.24619">
        <ele>773</ele>
        <time>2018-05-13T08:37:06.000Z</time>
      </trkpt>
      <trkpt lat="43.91972" lon="7.24618">
        <ele>773</ele>
        <time>2018-05-13T08:37:07.000Z</time>
      </trkpt>
      <trkpt lat="43.91968" lon="7.24617">
        <ele>774</ele>
        <time>2018-05-13T08:37:11.000Z</time>
      </trkpt>
      <trkpt lat="43.91962" lon="7.24615">
        <ele>775</ele>
        <time>2018-05-13T08:37:18.000Z</time>
      </trkpt>
      <trkpt lat="43.91956" lon="7.24612">
        <ele>776</ele>
        <time>2018-05-13T08:37:24.000Z</time>
      </trkpt>
      <trkpt lat="43.91954" lon="7.24613">
        <ele>776</ele>
        <time>2018-05-13T08:37:26.000Z</time>
      </trkpt>
      <trkpt lat="43.91952" lon="7.24615">
        <ele>776</ele>
        <time>2018-05-13T08:37:29.000Z</time>
      </trkpt>
      <trkpt lat="43.91949" lon="7.24617">
        <ele>776</ele>
        <time>2018-05-13T08:37:33.000Z</time>
      </trkpt>
      <trkpt lat="43.91946" lon="7.24619">
        <ele>776</ele>
        <time>2018-05-13T08:37:36.000Z</time>
      </trkpt>
      <trkpt lat="43.91943" lon="7.2462">
        <ele>777</ele>
        <time>2018-05-13T08:37:39.000Z</time>
      </trkpt>
      <trkpt lat="43.91939" lon="7.24622">
        <ele>777</ele>
        <time>2018-05-13T08:37:43.000Z</time>
      </trkpt>
      <trkpt lat="43.91937" lon="7.24624">
        <ele>776</ele>
        <time>2018-05-13T08:37:45.000Z</time>
      </trkpt>
      <trkpt lat="43.91933" lon="7.24631">
        <ele>775</ele>
        <time>2018-05-13T08:37:50.000Z</time>
      </trkpt>
      <trkpt lat="43.91927" lon="7.24642">
        <ele>774</ele>
        <time>2018-05-13T08:37:58.000Z</time>
      </trkpt>
      <trkpt lat="43.91926" lon="7.24643">
        <ele>774</ele>
        <time>2018-05-13T08:37:59.000Z</time>
      </trkpt>
      <trkpt lat="43.9192" lon="7.24646">
        <ele>774</ele>
        <time>2018-05-13T08:38:04.000Z</time>
      </trkpt>
      <trkpt lat="43.91912" lon="7.24646">
        <ele>785</ele>
        <time>2018-05-13T08:38:10.000Z</time>
      </trkpt>
      <trkpt lat="43.9191" lon="7.24646">
        <ele>785</ele>
        <time>2018-05-13T08:38:12.000Z</time>
      </trkpt>
      <trkpt lat="43.91903" lon="7.24648">
        <ele>786</ele>
        <time>2018-05-13T08:38:18.000Z</time>
      </trkpt>
      <trkpt lat="43.91898" lon="7.24652">
        <ele>786</ele>
        <time>2018-05-13T08:38:25.000Z</time>
      </trkpt>
      <trkpt lat="43.91892" lon="7.24658">
        <ele>787</ele>
        <time>2018-05-13T08:38:30.000Z</time>
      </trkpt>
      <trkpt lat="43.91884" lon="7.24668">
        <ele>776</ele>
        <time>2018-05-13T08:38:36.000Z</time>
      </trkpt>
      <trkpt lat="43.91881" lon="7.24671">
        <ele>777</ele>
        <time>2018-05-13T08:38:38.000Z</time>
      </trkpt>
      <trkpt lat="43.91871" lon="7.2468">
        <ele>779</ele>
        <time>2018-05-13T08:38:44.000Z</time>
      </trkpt>
      <trkpt lat="43.91867" lon="7.24684">
        <ele>779</ele>
        <time>2018-05-13T08:38:46.000Z</time>
      </trkpt>
      <trkpt lat="43.91855" lon="7.24692">
        <ele>780</ele>
        <time>2018-05-13T08:38:52.000Z</time>
      </trkpt>
      <trkpt lat="43.91847" lon="7.24696">
        <ele>781</ele>
        <time>2018-05-13T08:38:56.000Z</time>
      </trkpt>
      <trkpt lat="43.9184" lon="7.24699">
        <ele>781</ele>
        <time>2018-05-13T08:38:59.000Z</time>
      </trkpt>
      <trkpt lat="43.91834" lon="7.24702">
        <ele>781</ele>
        <time>2018-05-13T08:39:02.000Z</time>
      </trkpt>
      <trkpt lat="43.91825" lon="7.24708">
        <ele>794</ele>
        <time>2018-05-13T08:39:07.000Z</time>
      </trkpt>
      <trkpt lat="43.91823" lon="7.2471">
        <ele>794</ele>
        <time>2018-05-13T08:39:08.000Z</time>
      </trkpt>
      <trkpt lat="43.91815" lon="7.24718">
        <ele>793</ele>
        <time>2018-05-13T08:39:13.000Z</time>
      </trkpt>
      <trkpt lat="43.91814" lon="7.2472">
        <ele>793</ele>
        <time>2018-05-13T08:39:14.000Z</time>
      </trkpt>
      <trkpt lat="43.91808" lon="7.24726">
        <ele>793</ele>
        <time>2018-05-13T08:39:18.000Z</time>
      </trkpt>
      <trkpt lat="43.91804" lon="7.24731">
        <ele>793</ele>
        <time>2018-05-13T08:39:21.000Z</time>
      </trkpt>
      <trkpt lat="43.91797" lon="7.24737">
        <ele>794</ele>
        <time>2018-05-13T08:39:26.000Z</time>
      </trkpt>
      <trkpt lat="43.91796" lon="7.24737">
        <ele>795</ele>
        <time>2018-05-13T08:39:28.000Z</time>
      </trkpt>
      <trkpt lat="43.91795" lon="7.24738">
        <ele>795</ele>
        <time>2018-05-13T08:39:29.000Z</time>
      </trkpt>
      <trkpt lat="43.91794" lon="7.24739">
        <ele>795</ele>
        <time>2018-05-13T08:39:30.000Z</time>
      </trkpt>
      <trkpt lat="43.91793" lon="7.2474">
        <ele>795</ele>
        <time>2018-05-13T08:39:32.000Z</time>
      </trkpt>
      <trkpt lat="43.91789" lon="7.24743">
        <ele>796</ele>
        <time>2018-05-13T08:39:35.000Z</time>
      </trkpt>
      <trkpt lat="43.91785" lon="7.24746">
        <ele>796</ele>
        <time>2018-05-13T08:39:39.000Z</time>
      </trkpt>
      <trkpt lat="43.91784" lon="7.24746">
        <ele>797</ele>
        <time>2018-05-13T08:39:40.000Z</time>
      </trkpt>
      <trkpt lat="43.91779" lon="7.24749">
        <ele>798</ele>
        <time>2018-05-13T08:39:45.000Z</time>
      </trkpt>
      <trkpt lat="43.91776" lon="7.24751">
        <ele>788</ele>
        <time>2018-05-13T08:39:48.000Z</time>
      </trkpt>
      <trkpt lat="43.91775" lon="7.24752">
        <ele>788</ele>
        <time>2018-05-13T08:39:50.000Z</time>
      </trkpt>
      <trkpt lat="43.91771" lon="7.24753">
        <ele>790</ele>
        <time>2018-05-13T08:39:54.000Z</time>
      </trkpt>
      <trkpt lat="43.91768" lon="7.24752">
        <ele>791</ele>
        <time>2018-05-13T08:39:57.000Z</time>
      </trkpt>
      <trkpt lat="43.91766" lon="7.24754">
        <ele>792</ele>
        <time>2018-05-13T08:39:59.000Z</time>
      </trkpt>
      <trkpt lat="43.91762" lon="7.24757">
        <ele>793</ele>
        <time>2018-05-13T08:40:01.000Z</time>
      </trkpt>
      <trkpt lat="43.91756" lon="7.24762">
        <ele>793</ele>
        <time>2018-05-13T08:40:03.000Z</time>
      </trkpt>
      <trkpt lat="43.91743" lon="7.24773">
        <ele>799</ele>
        <time>2018-05-13T08:40:07.000Z</time>
      </trkpt>
      <trkpt lat="43.91739" lon="7.24775">
        <ele>798</ele>
        <time>2018-05-13T08:40:08.000Z</time>
      </trkpt>
      <trkpt lat="43.91728" lon="7.24779">
        <ele>798</ele>
        <time>2018-05-13T08:40:12.000Z</time>
      </trkpt>
      <trkpt lat="43.91723" lon="7.24777">
        <ele>798</ele>
        <time>2018-05-13T08:40:14.000Z</time>
      </trkpt>
      <trkpt lat="43.91719" lon="7.24775">
        <ele>798</ele>
        <time>2018-05-13T08:40:16.000Z</time>
      </trkpt>
      <trkpt lat="43.91718" lon="7.24772">
        <ele>798</ele>
        <time>2018-05-13T08:40:18.000Z</time>
      </trkpt>
      <trkpt lat="43.91718" lon="7.24772">
        <ele>798</ele>
        <time>2018-05-13T08:40:20.000Z</time>
      </trkpt>
      <trkpt lat="43.91716" lon="7.2477">
        <ele>798</ele>
        <time>2018-05-13T08:40:24.000Z</time>
      </trkpt>
      <trkpt lat="43.91716" lon="7.24771">
        <ele>798</ele>
        <time>2018-05-13T08:40:26.000Z</time>
      </trkpt>
      <trkpt lat="43.91715" lon="7.24773">
        <ele>798</ele>
        <time>2018-05-13T08:40:33.000Z</time>
      </trkpt>
      <trkpt lat="43.91714" lon="7.24771">
        <ele>798</ele>
        <time>2018-05-13T08:40:36.000Z</time>
      </trkpt>
      <trkpt lat="43.91714" lon="7.24771">
        <ele>798</ele>
        <time>2018-05-13T08:40:37.000Z</time>
      </trkpt>
      <trkpt lat="43.91712" lon="7.24772">
        <ele>798</ele>
        <time>2018-05-13T08:40:42.000Z</time>
      </trkpt>
      <trkpt lat="43.9171" lon="7.24771">
        <ele>798</ele>
        <time>2018-05-13T08:40:49.000Z</time>
      </trkpt>
      <trkpt lat="43.91709" lon="7.24771">
        <ele>798</ele>
        <time>2018-05-13T08:40:56.000Z</time>
      </trkpt>
      <trkpt lat="43.91708" lon="7.24771">
        <ele>798</ele>
        <time>2018-05-13T08:41:02.000Z</time>
      </trkpt>
      <trkpt lat="43.91706" lon="7.24771">
        <ele>798</ele>
        <time>2018-05-13T08:41:08.000Z</time>
      </trkpt>
      <trkpt lat="43.91708" lon="7.24769">
        <ele>798</ele>
        <time>2018-05-13T08:41:14.000Z</time>
      </trkpt>
      <trkpt lat="43.91704" lon="7.24771">
        <ele>798</ele>
        <time>2018-05-13T08:41:21.000Z</time>
      </trkpt>
      <trkpt lat="43.91702" lon="7.24771">
        <ele>798</ele>
        <time>2018-05-13T08:41:26.000Z</time>
      </trkpt>
      <trkpt lat="43.91702" lon="7.2477">
        <ele>798</ele>
        <time>2018-05-13T08:41:32.000Z</time>
      </trkpt>
      <trkpt lat="43.91701" lon="7.24771">
        <ele>799</ele>
        <time>2018-05-13T08:41:39.000Z</time>
      </trkpt>
      <trkpt lat="43.91702" lon="7.24769">
        <ele>799</ele>
        <time>2018-05-13T08:41:46.000Z</time>
      </trkpt>
      <trkpt lat="43.91702" lon="7.24769">
        <ele>799</ele>
        <time>2018-05-13T08:41:52.000Z</time>
      </trkpt>
      <trkpt lat="43.91701" lon="7.24769">
        <ele>799</ele>
        <time>2018-05-13T08:41:57.000Z</time>
      </trkpt>
      <trkpt lat="43.917" lon="7.2477">
        <ele>799</ele>
        <time>2018-05-13T08:42:05.000Z</time>
      </trkpt>
      <trkpt lat="43.91699" lon="7.24771">
        <ele>799</ele>
        <time>2018-05-13T08:42:07.000Z</time>
      </trkpt>
      <trkpt lat="43.91699" lon="7.2477">
        <ele>799</ele>
        <time>2018-05-13T08:42:10.000Z</time>
      </trkpt>
      <trkpt lat="43.91702" lon="7.24768">
        <ele>799</ele>
        <time>2018-05-13T08:42:17.000Z</time>
      </trkpt>
      <trkpt lat="43.91701" lon="7.24767">
        <ele>799</ele>
        <time>2018-05-13T08:42:20.000Z</time>
      </trkpt>
      <trkpt lat="43.91699" lon="7.24767">
        <ele>799</ele>
        <time>2018-05-13T08:42:22.000Z</time>
      </trkpt>
      <trkpt lat="43.91698" lon="7.24764">
        <ele>799</ele>
        <time>2018-05-13T08:42:25.000Z</time>
      </trkpt>
      <trkpt lat="43.91697" lon="7.24762">
        <ele>799</ele>
        <time>2018-05-13T08:42:27.000Z</time>
      </trkpt>
      <trkpt lat="43.91696" lon="7.24761">
        <ele>799</ele>
        <time>2018-05-13T08:42:28.000Z</time>
      </trkpt>
      <trkpt lat="43.91694" lon="7.24759">
        <ele>799</ele>
        <time>2018-05-13T08:42:34.000Z</time>
      </trkpt>
      <trkpt lat="43.91693" lon="7.24761">
        <ele>799</ele>
        <time>2018-05-13T08:42:42.000Z</time>
      </trkpt>
      <trkpt lat="43.91693" lon="7.24763">
        <ele>799</ele>
        <time>2018-05-13T08:42:47.000Z</time>
      </trkpt>
      <trkpt lat="43.91693" lon="7.24763">
        <ele>799</ele>
        <time>2018-05-13T08:42:53.000Z</time>
      </trkpt>
      <trkpt lat="43.91693" lon="7.24763">
        <ele>799</ele>
        <time>2018-05-13T08:43:01.000Z</time>
      </trkpt>
      <trkpt lat="43.91693" lon="7.24763">
        <ele>799</ele>
        <time>2018-05-13T08:43:10.000Z</time>
      </trkpt>
      <trkpt lat="43.91694" lon="7.24763">
        <ele>799</ele>
        <time>2018-05-13T08:43:19.000Z</time>
      </trkpt>
      <trkpt lat="43.91695" lon="7.24764">
        <ele>799</ele>
        <time>2018-05-13T08:43:35.000Z</time>
      </trkpt>
      <trkpt lat="43.91695" lon="7.24765">
        <ele>799</ele>
        <time>2018-05-13T08:43:52.000Z</time>
      </trkpt>
      <trkpt lat="43.91695" lon="7.24765">
        <ele>799</ele>
        <time>2018-05-13T08:44:09.000Z</time>
      </trkpt>
      <trkpt lat="43.91695" lon="7.24766">
        <ele>799</ele>
        <time>2018-05-13T08:44:31.000Z</time>
      </trkpt>
      <trkpt lat="43.91695" lon="7.24766">
        <ele>799</ele>
        <time>2018-05-13T08:44:38.000Z</time>
      </trkpt>
      <trkpt lat="43.91695" lon="7.24765">
        <ele>799</ele>
        <time>2018-05-13T08:44:49.000Z</time>
      </trkpt>
      <trkpt lat="43.91695" lon="7.24765">
        <ele>799</ele>
        <time>2018-05-13T08:45:01.000Z</time>
      </trkpt>
      <trkpt lat="43.91695" lon="7.24765">
        <ele>799</ele>
        <time>2018-05-13T08:45:10.000Z</time>
      </trkpt>
      <trkpt lat="43.91695" lon="7.24765">
        <ele>799</ele>
        <time>2018-05-13T08:45:18.000Z</time>
      </trkpt>
      <trkpt lat="43.91695" lon="7.24765">
        <ele>799</ele>
        <time>2018-05-13T08:45:32.000Z</time>
      </trkpt>
      <trkpt lat="43.91697" lon="7.24763">
        <ele>799</ele>
        <time>2018-05-13T08:45:35.000Z</time>
      </trkpt>
      <trkpt lat="43.91697" lon="7.24762">
        <ele>799</ele>
        <time>2018-05-13T08:45:38.000Z</time>
      </trkpt>
      <trkpt lat="43.91697" lon="7.24763">
        <ele>799</ele>
        <time>2018-05-13T08:45:45.000Z</time>
      </trkpt>
      <trkpt lat="43.91699" lon="7.24763">
        <ele>799</ele>
        <time>2018-05-13T08:45:52.000Z</time>
      </trkpt>
      <trkpt lat="43.917" lon="7.24767">
        <ele>799</ele>
        <time>2018-05-13T08:45:58.000Z</time>
      </trkpt>
      <trkpt lat="43.91703" lon="7.24772">
        <ele>798</ele>
        <time>2018-05-13T08:46:05.000Z</time>
      </trkpt>
      <trkpt lat="43.91705" lon="7.24775">
        <ele>798</ele>
        <time>2018-05-13T08:46:13.000Z</time>
      </trkpt>
      <trkpt lat="43.91705" lon="7.24774">
        <ele>798</ele>
        <time>2018-05-13T08:46:23.000Z</time>
      </trkpt>
      <trkpt lat="43.91703" lon="7.24774">
        <ele>798</ele>
        <time>2018-05-13T08:46:32.000Z</time>
      </trkpt>
      <trkpt lat="43.917" lon="7.24772">
        <ele>798</ele>
        <time>2018-05-13T08:46:39.000Z</time>
      </trkpt>
      <trkpt lat="43.91696" lon="7.24769">
        <ele>799</ele>
        <time>2018-05-13T08:46:54.000Z</time>
      </trkpt>
      <trkpt lat="43.91695" lon="7.24768">
        <ele>799</ele>
        <time>2018-05-13T08:47:01.000Z</time>
      </trkpt>
      <trkpt lat="43.91695" lon="7.24771">
        <ele>799</ele>
        <time>2018-05-13T08:47:07.000Z</time>
      </trkpt>
      <trkpt lat="43.91695" lon="7.24769">
        <ele>799</ele>
        <time>2018-05-13T08:47:08.000Z</time>
      </trkpt>
      <trkpt lat="43.91694" lon="7.24771">
        <ele>799</ele>
        <time>2018-05-13T08:47:16.000Z</time>
      </trkpt>
      <trkpt lat="43.91693" lon="7.2477">
        <ele>799</ele>
        <time>2018-05-13T08:47:21.000Z</time>
      </trkpt>
      <trkpt lat="43.91693" lon="7.24767">
        <ele>799</ele>
        <time>2018-05-13T08:47:28.000Z</time>
      </trkpt>
      <trkpt lat="43.91694" lon="7.24766">
        <ele>799</ele>
        <time>2018-05-13T08:47:34.000Z</time>
      </trkpt>
      <trkpt lat="43.91693" lon="7.24764">
        <ele>799</ele>
        <time>2018-05-13T08:47:38.000Z</time>
      </trkpt>
      <trkpt lat="43.91694" lon="7.24759">
        <ele>799</ele>
        <time>2018-05-13T08:47:40.000Z</time>
      </trkpt>
      <trkpt lat="43.91698" lon="7.24759">
        <ele>799</ele>
        <time>2018-05-13T08:47:43.000Z</time>
      </trkpt>
      <trkpt lat="43.91699" lon="7.24758">
        <ele>799</ele>
        <time>2018-05-13T08:47:44.000Z</time>
      </trkpt>
      <trkpt lat="43.91703" lon="7.24756">
        <ele>799</ele>
        <time>2018-05-13T08:47:48.000Z</time>
      </trkpt>
      <trkpt lat="43.91704" lon="7.24755">
        <ele>799</ele>
        <time>2018-05-13T08:47:49.000Z</time>
      </trkpt>
      <trkpt lat="43.91706" lon="7.24753">
        <ele>799</ele>
        <time>2018-05-13T08:47:51.000Z</time>
      </trkpt>
      <trkpt lat="43.91711" lon="7.24751">
        <ele>799</ele>
        <time>2018-05-13T08:47:54.000Z</time>
      </trkpt>
      <trkpt lat="43.91712" lon="7.24751">
        <ele>799</ele>
        <time>2018-05-13T08:47:55.000Z</time>
      </trkpt>
      <trkpt lat="43.91714" lon="7.24751">
        <ele>799</ele>
        <time>2018-05-13T08:47:56.000Z</time>
      </trkpt>
      <trkpt lat="43.91717" lon="7.2475">
        <ele>803</ele>
        <time>2018-05-13T08:47:58.000Z</time>
      </trkpt>
      <trkpt lat="43.91718" lon="7.24748">
        <ele>803</ele>
        <time>2018-05-13T08:47:59.000Z</time>
      </trkpt>
      <trkpt lat="43.91721" lon="7.24744">
        <ele>803</ele>
        <time>2018-05-13T08:48:02.000Z</time>
      </trkpt>
      <trkpt lat="43.91722" lon="7.24742">
        <ele>803</ele>
        <time>2018-05-13T08:48:03.000Z</time>
      </trkpt>
      <trkpt lat="43.91728" lon="7.24736">
        <ele>803</ele>
        <time>2018-05-13T08:48:08.000Z</time>
      </trkpt>
      <trkpt lat="43.91729" lon="7.24734">
        <ele>803</ele>
        <time>2018-05-13T08:48:09.000Z</time>
      </trkpt>
      <trkpt lat="43.91731" lon="7.24733">
        <ele>803</ele>
        <time>2018-05-13T08:48:10.000Z</time>
      </trkpt>
      <trkpt lat="43.91738" lon="7.24727">
        <ele>803</ele>
        <time>2018-05-13T08:48:14.000Z</time>
      </trkpt>
      <trkpt lat="43.91747" lon="7.24723">
        <ele>804</ele>
        <time>2018-05-13T08:48:19.000Z</time>
      </trkpt>
      <trkpt lat="43.91748" lon="7.24721">
        <ele>804</ele>
        <time>2018-05-13T08:48:20.000Z</time>
      </trkpt>
      <trkpt lat="43.91755" lon="7.24715">
        <ele>801</ele>
        <time>2018-05-13T08:48:25.000Z</time>
      </trkpt>
      <trkpt lat="43.91756" lon="7.24713">
        <ele>801</ele>
        <time>2018-05-13T08:48:26.000Z</time>
      </trkpt>
      <trkpt lat="43.91762" lon="7.24706">
        <ele>801</ele>
        <time>2018-05-13T08:48:30.000Z</time>
      </trkpt>
      <trkpt lat="43.91768" lon="7.24702">
        <ele>801</ele>
        <time>2018-05-13T08:48:33.000Z</time>
      </trkpt>
      <trkpt lat="43.91768" lon="7.24699">
        <ele>801</ele>
        <time>2018-05-13T08:48:34.000Z</time>
      </trkpt>
      <trkpt lat="43.91776" lon="7.24696">
        <ele>800</ele>
        <time>2018-05-13T08:48:37.000Z</time>
      </trkpt>
      <trkpt lat="43.91776" lon="7.24693">
        <ele>800</ele>
        <time>2018-05-13T08:48:38.000Z</time>
      </trkpt>
      <trkpt lat="43.91777" lon="7.2469">
        <ele>801</ele>
        <time>2018-05-13T08:48:39.000Z</time>
      </trkpt>
      <trkpt lat="43.9178" lon="7.24683">
        <ele>801</ele>
        <time>2018-05-13T08:48:42.000Z</time>
      </trkpt>
      <trkpt lat="43.91781" lon="7.24682">
        <ele>801</ele>
        <time>2018-05-13T08:48:43.000Z</time>
      </trkpt>
      <trkpt lat="43.91786" lon="7.24675">
        <ele>801</ele>
        <time>2018-05-13T08:48:46.000Z</time>
      </trkpt>
      <trkpt lat="43.91792" lon="7.24662">
        <ele>804</ele>
        <time>2018-05-13T08:48:51.000Z</time>
      </trkpt>
      <trkpt lat="43.91799" lon="7.24645">
        <ele>804</ele>
        <time>2018-05-13T08:48:56.000Z</time>
      </trkpt>
      <trkpt lat="43.9181" lon="7.2463">
        <ele>804</ele>
        <time>2018-05-13T08:49:00.000Z</time>
      </trkpt>
      <trkpt lat="43.91827" lon="7.24608">
        <ele>805</ele>
        <time>2018-05-13T08:49:05.000Z</time>
      </trkpt>
      <trkpt lat="43.91837" lon="7.24583">
        <ele>809</ele>
        <time>2018-05-13T08:49:10.000Z</time>
      </trkpt>
      <trkpt lat="43.91848" lon="7.2456">
        <ele>807</ele>
        <time>2018-05-13T08:49:16.000Z</time>
      </trkpt>
      <trkpt lat="43.91852" lon="7.24554">
        <ele>807</ele>
        <time>2018-05-13T08:49:18.000Z</time>
      </trkpt>
      <trkpt lat="43.91862" lon="7.24543">
        <ele>807</ele>
        <time>2018-05-13T08:49:22.000Z</time>
      </trkpt>
      <trkpt lat="43.91864" lon="7.24541">
        <ele>807</ele>
        <time>2018-05-13T08:49:23.000Z</time>
      </trkpt>
      <trkpt lat="43.91876" lon="7.24536">
        <ele>808</ele>
        <time>2018-05-13T08:49:26.000Z</time>
      </trkpt>
      <trkpt lat="43.9188" lon="7.24536">
        <ele>808</ele>
        <time>2018-05-13T08:49:27.000Z</time>
      </trkpt>
      <trkpt lat="43.91888" lon="7.24534">
        <ele>808</ele>
        <time>2018-05-13T08:49:31.000Z</time>
      </trkpt>
      <trkpt lat="43.91892" lon="7.24532">
        <ele>808</ele>
        <time>2018-05-13T08:49:34.000Z</time>
      </trkpt>
      <trkpt lat="43.91897" lon="7.24529">
        <ele>809</ele>
        <time>2018-05-13T08:49:38.000Z</time>
      </trkpt>
      <trkpt lat="43.919" lon="7.24527">
        <ele>809</ele>
        <time>2018-05-13T08:49:40.000Z</time>
      </trkpt>
      <trkpt lat="43.91901" lon="7.24527">
        <ele>809</ele>
        <time>2018-05-13T08:49:41.000Z</time>
      </trkpt>
      <trkpt lat="43.91902" lon="7.24527">
        <ele>809</ele>
        <time>2018-05-13T08:49:42.000Z</time>
      </trkpt>
      <trkpt lat="43.91908" lon="7.24527">
        <ele>810</ele>
        <time>2018-05-13T08:49:46.000Z</time>
      </trkpt>
      <trkpt lat="43.91912" lon="7.24525">
        <ele>810</ele>
        <time>2018-05-13T08:49:50.000Z</time>
      </trkpt>
      <trkpt lat="43.91914" lon="7.24524">
        <ele>810</ele>
        <time>2018-05-13T08:49:51.000Z</time>
      </trkpt>
      <trkpt lat="43.91917" lon="7.24525">
        <ele>809</ele>
        <time>2018-05-13T08:49:54.000Z</time>
      </trkpt>
      <trkpt lat="43.91919" lon="7.24523">
        <ele>809</ele>
        <time>2018-05-13T08:49:56.000Z</time>
      </trkpt>
      <trkpt lat="43.91921" lon="7.2452">
        <ele>810</ele>
        <time>2018-05-13T08:49:58.000Z</time>
      </trkpt>
      <trkpt lat="43.91926" lon="7.24517">
        <ele>810</ele>
        <time>2018-05-13T08:50:02.000Z</time>
      </trkpt>
      <trkpt lat="43.91927" lon="7.24517">
        <ele>810</ele>
        <time>2018-05-13T08:50:03.000Z</time>
      </trkpt>
      <trkpt lat="43.91932" lon="7.24509">
        <ele>811</ele>
        <time>2018-05-13T08:50:09.000Z</time>
      </trkpt>
      <trkpt lat="43.91936" lon="7.24505">
        <ele>811</ele>
        <time>2018-05-13T08:50:13.000Z</time>
      </trkpt>
      <trkpt lat="43.91937" lon="7.24504">
        <ele>811</ele>
        <time>2018-05-13T08:50:14.000Z</time>
      </trkpt>
      <trkpt lat="43.91938" lon="7.24498">
        <ele>819</ele>
        <time>2018-05-13T08:50:18.000Z</time>
      </trkpt>
      <trkpt lat="43.9194" lon="7.24496">
        <ele>819</ele>
        <time>2018-05-13T08:50:20.000Z</time>
      </trkpt>
      <trkpt lat="43.91941" lon="7.24494">
        <ele>819</ele>
        <time>2018-05-13T08:50:22.000Z</time>
      </trkpt>
      <trkpt lat="43.91943" lon="7.24491">
        <ele>819</ele>
        <time>2018-05-13T08:50:24.000Z</time>
      </trkpt>
      <trkpt lat="43.91943" lon="7.2449">
        <ele>820</ele>
        <time>2018-05-13T08:50:25.000Z</time>
      </trkpt>
      <trkpt lat="43.91947" lon="7.24487">
        <ele>820</ele>
        <time>2018-05-13T08:50:28.000Z</time>
      </trkpt>
      <trkpt lat="43.91953" lon="7.24484">
        <ele>820</ele>
        <time>2018-05-13T08:50:33.000Z</time>
      </trkpt>
      <trkpt lat="43.91958" lon="7.24482">
        <ele>820</ele>
        <time>2018-05-13T08:50:37.000Z</time>
      </trkpt>
      <trkpt lat="43.91963" lon="7.24481">
        <ele>820</ele>
        <time>2018-05-13T08:50:41.000Z</time>
      </trkpt>
      <trkpt lat="43.91966" lon="7.24481">
        <ele>820</ele>
        <time>2018-05-13T08:50:43.000Z</time>
      </trkpt>
      <trkpt lat="43.91971" lon="7.24479">
        <ele>821</ele>
        <time>2018-05-13T08:50:47.000Z</time>
      </trkpt>
      <trkpt lat="43.91971" lon="7.24479">
        <ele>821</ele>
        <time>2018-05-13T08:50:49.000Z</time>
      </trkpt>
      <trkpt lat="43.91972" lon="7.24479">
        <ele>821</ele>
        <time>2018-05-13T08:50:51.000Z</time>
      </trkpt>
      <trkpt lat="43.91977" lon="7.24475">
        <ele>821</ele>
        <time>2018-05-13T08:50:58.000Z</time>
      </trkpt>
      <trkpt lat="43.91978" lon="7.24475">
        <ele>821</ele>
        <time>2018-05-13T08:50:59.000Z</time>
      </trkpt>
      <trkpt lat="43.9198" lon="7.24474">
        <ele>821</ele>
        <time>2018-05-13T08:51:02.000Z</time>
      </trkpt>
      <trkpt lat="43.91985" lon="7.24474">
        <ele>821</ele>
        <time>2018-05-13T08:51:08.000Z</time>
      </trkpt>
      <trkpt lat="43.91989" lon="7.2447">
        <ele>821</ele>
        <time>2018-05-13T08:51:14.000Z</time>
      </trkpt>
      <trkpt lat="43.91991" lon="7.24469">
        <ele>821</ele>
        <time>2018-05-13T08:51:16.000Z</time>
      </trkpt>
      <trkpt lat="43.91994" lon="7.24465">
        <ele>822</ele>
        <time>2018-05-13T08:51:20.000Z</time>
      </trkpt>
      <trkpt lat="43.91998" lon="7.24462">
        <ele>822</ele>
        <time>2018-05-13T08:51:25.000Z</time>
      </trkpt>
      <trkpt lat="43.91998" lon="7.24461">
        <ele>822</ele>
        <time>2018-05-13T08:51:26.000Z</time>
      </trkpt>
      <trkpt lat="43.92006" lon="7.24456">
        <ele>827</ele>
        <time>2018-05-13T08:51:34.000Z</time>
      </trkpt>
      <trkpt lat="43.92006" lon="7.24455">
        <ele>827</ele>
        <time>2018-05-13T08:51:35.000Z</time>
      </trkpt>
      <trkpt lat="43.9201" lon="7.24446">
        <ele>829</ele>
        <time>2018-05-13T08:51:42.000Z</time>
      </trkpt>
      <trkpt lat="43.92015" lon="7.24437">
        <ele>830</ele>
        <time>2018-05-13T08:51:50.000Z</time>
      </trkpt>
      <trkpt lat="43.92015" lon="7.24435">
        <ele>830</ele>
        <time>2018-05-13T08:51:51.000Z</time>
      </trkpt>
      <trkpt lat="43.92019" lon="7.24428">
        <ele>831</ele>
        <time>2018-05-13T08:51:57.000Z</time>
      </trkpt>
      <trkpt lat="43.9202" lon="7.24426">
        <ele>831</ele>
        <time>2018-05-13T08:51:59.000Z</time>
      </trkpt>
      <trkpt lat="43.92023" lon="7.2442">
        <ele>831</ele>
        <time>2018-05-13T08:52:06.000Z</time>
      </trkpt>
      <trkpt lat="43.92024" lon="7.24419">
        <ele>831</ele>
        <time>2018-05-13T08:52:08.000Z</time>
      </trkpt>
      <trkpt lat="43.92026" lon="7.24414">
        <ele>845</ele>
        <time>2018-05-13T08:52:21.000Z</time>
      </trkpt>
      <trkpt lat="43.92026" lon="7.24414">
        <ele>845</ele>
        <time>2018-05-13T08:52:24.000Z</time>
      </trkpt>
      <trkpt lat="43.92027" lon="7.24409">
        <ele>845</ele>
        <time>2018-05-13T08:52:28.000Z</time>
      </trkpt>
      <trkpt lat="43.92029" lon="7.24407">
        <ele>846</ele>
        <time>2018-05-13T08:52:30.000Z</time>
      </trkpt>
      <trkpt lat="43.92032" lon="7.24401">
        <ele>847</ele>
        <time>2018-05-13T08:52:36.000Z</time>
      </trkpt>
      <trkpt lat="43.92033" lon="7.24399">
        <ele>848</ele>
        <time>2018-05-13T08:52:38.000Z</time>
      </trkpt>
      <trkpt lat="43.92037" lon="7.24396">
        <ele>849</ele>
        <time>2018-05-13T08:52:42.000Z</time>
      </trkpt>
      <trkpt lat="43.92038" lon="7.24393">
        <ele>850</ele>
        <time>2018-05-13T08:52:45.000Z</time>
      </trkpt>
      <trkpt lat="43.9204" lon="7.2439">
        <ele>850</ele>
        <time>2018-05-13T08:52:47.000Z</time>
      </trkpt>
      <trkpt lat="43.92043" lon="7.24383">
        <ele>852</ele>
        <time>2018-05-13T08:52:53.000Z</time>
      </trkpt>
      <trkpt lat="43.92044" lon="7.24381">
        <ele>852</ele>
        <time>2018-05-13T08:52:54.000Z</time>
      </trkpt>
      <trkpt lat="43.92049" lon="7.24376">
        <ele>854</ele>
        <time>2018-05-13T08:53:00.000Z</time>
      </trkpt>
      <trkpt lat="43.92053" lon="7.24367">
        <ele>856</ele>
        <time>2018-05-13T08:53:07.000Z</time>
      </trkpt>
      <trkpt lat="43.92053" lon="7.24366">
        <ele>856</ele>
        <time>2018-05-13T08:53:08.000Z</time>
      </trkpt>
      <trkpt lat="43.92051" lon="7.24361">
        <ele>857</ele>
        <time>2018-05-13T08:53:12.000Z</time>
      </trkpt>
      <trkpt lat="43.9205" lon="7.24358">
        <ele>857</ele>
        <time>2018-05-13T08:53:14.000Z</time>
      </trkpt>
      <trkpt lat="43.9205" lon="7.24353">
        <ele>857</ele>
        <time>2018-05-13T08:53:18.000Z</time>
      </trkpt>
      <trkpt lat="43.92049" lon="7.24345">
        <ele>858</ele>
        <time>2018-05-13T08:53:23.000Z</time>
      </trkpt>
      <trkpt lat="43.92049" lon="7.2434">
        <ele>859</ele>
        <time>2018-05-13T08:53:26.000Z</time>
      </trkpt>
      <trkpt lat="43.92048" lon="7.24332">
        <ele>872</ele>
        <time>2018-05-13T08:53:32.000Z</time>
      </trkpt>
      <trkpt lat="43.92047" lon="7.2433">
        <ele>872</ele>
        <time>2018-05-13T08:53:34.000Z</time>
      </trkpt>
      <trkpt lat="43.92047" lon="7.24329">
        <ele>871</ele>
        <time>2018-05-13T08:53:35.000Z</time>
      </trkpt>
      <trkpt lat="43.92045" lon="7.24326">
        <ele>871</ele>
        <time>2018-05-13T08:53:38.000Z</time>
      </trkpt>
      <trkpt lat="43.92044" lon="7.24321">
        <ele>871</ele>
        <time>2018-05-13T08:53:42.000Z</time>
      </trkpt>
      <trkpt lat="43.92042" lon="7.24317">
        <ele>871</ele>
        <time>2018-05-13T08:53:45.000Z</time>
      </trkpt>
      <trkpt lat="43.92039" lon="7.24312">
        <ele>870</ele>
        <time>2018-05-13T08:53:49.000Z</time>
      </trkpt>
      <trkpt lat="43.92036" lon="7.2431">
        <ele>870</ele>
        <time>2018-05-13T08:53:53.000Z</time>
      </trkpt>
      <trkpt lat="43.92035" lon="7.24309">
        <ele>869</ele>
        <time>2018-05-13T08:53:55.000Z</time>
      </trkpt>
      <trkpt lat="43.92035" lon="7.24308">
        <ele>870</ele>
        <time>2018-05-13T08:53:58.000Z</time>
      </trkpt>
      <trkpt lat="43.92031" lon="7.24298">
        <ele>870</ele>
        <time>2018-05-13T08:54:04.000Z</time>
      </trkpt>
      <trkpt lat="43.92029" lon="7.24292">
        <ele>870</ele>
        <time>2018-05-13T08:54:08.000Z</time>
      </trkpt>
      <trkpt lat="43.92027" lon="7.24291">
        <ele>870</ele>
        <time>2018-05-13T08:54:10.000Z</time>
      </trkpt>
      <trkpt lat="43.92024" lon="7.24288">
        <ele>870</ele>
        <time>2018-05-13T08:54:12.000Z</time>
      </trkpt>
      <trkpt lat="43.92019" lon="7.24283">
        <ele>870</ele>
        <time>2018-05-13T08:54:17.000Z</time>
      </trkpt>
      <trkpt lat="43.92015" lon="7.2428">
        <ele>870</ele>
        <time>2018-05-13T08:54:20.000Z</time>
      </trkpt>
      <trkpt lat="43.92013" lon="7.24279">
        <ele>869</ele>
        <time>2018-05-13T08:54:22.000Z</time>
      </trkpt>
      <trkpt lat="43.92005" lon="7.24276">
        <ele>869</ele>
        <time>2018-05-13T08:54:28.000Z</time>
      </trkpt>
      <trkpt lat="43.91994" lon="7.2427">
        <ele>854</ele>
        <time>2018-05-13T08:54:36.000Z</time>
      </trkpt>
      <trkpt lat="43.91988" lon="7.24264">
        <ele>855</ele>
        <time>2018-05-13T08:54:41.000Z</time>
      </trkpt>
      <trkpt lat="43.91987" lon="7.24263">
        <ele>854</ele>
        <time>2018-05-13T08:54:42.000Z</time>
      </trkpt>
      <trkpt lat="43.91985" lon="7.24261">
        <ele>854</ele>
        <time>2018-05-13T08:54:44.000Z</time>
      </trkpt>
      <trkpt lat="43.91982" lon="7.24259">
        <ele>854</ele>
        <time>2018-05-13T08:54:46.000Z</time>
      </trkpt>
      <trkpt lat="43.9198" lon="7.24256">
        <ele>853</ele>
        <time>2018-05-13T08:54:49.000Z</time>
      </trkpt>
      <trkpt lat="43.91976" lon="7.2425">
        <ele>858</ele>
        <time>2018-05-13T08:54:54.000Z</time>
      </trkpt>
      <trkpt lat="43.91973" lon="7.24245">
        <ele>857</ele>
        <time>2018-05-13T08:54:58.000Z</time>
      </trkpt>
      <trkpt lat="43.9197" lon="7.24239">
        <ele>856</ele>
        <time>2018-05-13T08:55:03.000Z</time>
      </trkpt>
      <trkpt lat="43.91969" lon="7.24238">
        <ele>856</ele>
        <time>2018-05-13T08:55:04.000Z</time>
      </trkpt>
      <trkpt lat="43.91967" lon="7.24234">
        <ele>855</ele>
        <time>2018-05-13T08:55:07.000Z</time>
      </trkpt>
      <trkpt lat="43.91966" lon="7.2423">
        <ele>854</ele>
        <time>2018-05-13T08:55:10.000Z</time>
      </trkpt>
      <trkpt lat="43.91967" lon="7.24228">
        <ele>855</ele>
        <time>2018-05-13T08:55:11.000Z</time>
      </trkpt>
      <trkpt lat="43.9197" lon="7.24231">
        <ele>855</ele>
        <time>2018-05-13T08:55:13.000Z</time>
      </trkpt>
      <trkpt lat="43.91973" lon="7.24233">
        <ele>856</ele>
        <time>2018-05-13T08:55:17.000Z</time>
      </trkpt>
      <trkpt lat="43.91974" lon="7.24233">
        <ele>856</ele>
        <time>2018-05-13T08:55:18.000Z</time>
      </trkpt>
      <trkpt lat="43.91977" lon="7.24234">
        <ele>857</ele>
        <time>2018-05-13T08:55:21.000Z</time>
      </trkpt>
      <trkpt lat="43.91978" lon="7.24236">
        <ele>857</ele>
        <time>2018-05-13T08:55:22.000Z</time>
      </trkpt>
      <trkpt lat="43.91979" lon="7.24238">
        <ele>858</ele>
        <time>2018-05-13T08:55:24.000Z</time>
      </trkpt>
      <trkpt lat="43.9198" lon="7.24239">
        <ele>858</ele>
        <time>2018-05-13T08:55:25.000Z</time>
      </trkpt>
      <trkpt lat="43.91984" lon="7.2424">
        <ele>859</ele>
        <time>2018-05-13T08:55:29.000Z</time>
      </trkpt>
      <trkpt lat="43.91987" lon="7.24241">
        <ele>860</ele>
        <time>2018-05-13T08:55:32.000Z</time>
      </trkpt>
      <trkpt lat="43.9199" lon="7.24241">
        <ele>861</ele>
        <time>2018-05-13T08:55:35.000Z</time>
      </trkpt>
      <trkpt lat="43.91996" lon="7.24238">
        <ele>861</ele>
        <time>2018-05-13T08:55:40.000Z</time>
      </trkpt>
      <trkpt lat="43.91997" lon="7.24237">
        <ele>861</ele>
        <time>2018-05-13T08:55:41.000Z</time>
      </trkpt>
      <trkpt lat="43.92" lon="7.24229">
        <ele>873</ele>
        <time>2018-05-13T08:55:46.000Z</time>
      </trkpt>
      <trkpt lat="43.92002" lon="7.24225">
        <ele>873</ele>
        <time>2018-05-13T08:55:48.000Z</time>
      </trkpt>
      <trkpt lat="43.92005" lon="7.2422">
        <ele>874</ele>
        <time>2018-05-13T08:55:51.000Z</time>
      </trkpt>
      <trkpt lat="43.92009" lon="7.24217">
        <ele>874</ele>
        <time>2018-05-13T08:55:54.000Z</time>
      </trkpt>
      <trkpt lat="43.92015" lon="7.24215">
        <ele>875</ele>
        <time>2018-05-13T08:55:57.000Z</time>
      </trkpt>
      <trkpt lat="43.92034" lon="7.24214">
        <ele>878</ele>
        <time>2018-05-13T08:56:04.000Z</time>
      </trkpt>
      <trkpt lat="43.92056" lon="7.24208">
        <ele>882</ele>
        <time>2018-05-13T08:56:12.000Z</time>
      </trkpt>
      <trkpt lat="43.92064" lon="7.24195">
        <ele>883</ele>
        <time>2018-05-13T08:56:17.000Z</time>
      </trkpt>
      <trkpt lat="43.92065" lon="7.24192">
        <ele>883</ele>
        <time>2018-05-13T08:56:19.000Z</time>
      </trkpt>
      <trkpt lat="43.92068" lon="7.2418">
        <ele>884</ele>
        <time>2018-05-13T08:56:23.000Z</time>
      </trkpt>
      <trkpt lat="43.92071" lon="7.24153">
        <ele>879</ele>
        <time>2018-05-13T08:56:29.000Z</time>
      </trkpt>
      <trkpt lat="43.92071" lon="7.24131">
        <ele>873</ele>
        <time>2018-05-13T08:56:35.000Z</time>
      </trkpt>
      <trkpt lat="43.92074" lon="7.2412">
        <ele>872</ele>
        <time>2018-05-13T08:56:39.000Z</time>
      </trkpt>
      <trkpt lat="43.92074" lon="7.24117">
        <ele>872</ele>
        <time>2018-05-13T08:56:40.000Z</time>
      </trkpt>
      <trkpt lat="43.92084" lon="7.24103">
        <ele>891</ele>
        <time>2018-05-13T08:56:46.000Z</time>
      </trkpt>
      <trkpt lat="43.92097" lon="7.24093">
        <ele>890</ele>
        <time>2018-05-13T08:56:52.000Z</time>
      </trkpt>
      <trkpt lat="43.92099" lon="7.24092">
        <ele>891</ele>
        <time>2018-05-13T08:56:53.000Z</time>
      </trkpt>
      <trkpt lat="43.92113" lon="7.24085">
        <ele>898</ele>
        <time>2018-05-13T08:56:58.000Z</time>
      </trkpt>
      <trkpt lat="43.92124" lon="7.24066">
        <ele>890</ele>
        <time>2018-05-13T08:57:03.000Z</time>
      </trkpt>
      <trkpt lat="43.92134" lon="7.2404">
        <ele>890</ele>
        <time>2018-05-13T08:57:10.000Z</time>
      </trkpt>
      <trkpt lat="43.92137" lon="7.24019">
        <ele>888</ele>
        <time>2018-05-13T08:57:16.000Z</time>
      </trkpt>
      <trkpt lat="43.92135" lon="7.24009">
        <ele>888</ele>
        <time>2018-05-13T08:57:18.000Z</time>
      </trkpt>
      <trkpt lat="43.92134" lon="7.23994">
        <ele>882</ele>
        <time>2018-05-13T08:57:20.000Z</time>
      </trkpt>
      <trkpt lat="43.92138" lon="7.23978">
        <ele>881</ele>
        <time>2018-05-13T08:57:22.000Z</time>
      </trkpt>
      <trkpt lat="43.92138" lon="7.23965">
        <ele>881</ele>
        <time>2018-05-13T08:57:24.000Z</time>
      </trkpt>
      <trkpt lat="43.92137" lon="7.2395">
        <ele>880</ele>
        <time>2018-05-13T08:57:27.000Z</time>
      </trkpt>
      <trkpt lat="43.92137" lon="7.23941">
        <ele>880</ele>
        <time>2018-05-13T08:57:29.000Z</time>
      </trkpt>
      <trkpt lat="43.92137" lon="7.23937">
        <ele>880</ele>
        <time>2018-05-13T08:57:30.000Z</time>
      </trkpt>
      <trkpt lat="43.92131" lon="7.23915">
        <ele>880</ele>
        <time>2018-05-13T08:57:35.000Z</time>
      </trkpt>
      <trkpt lat="43.92124" lon="7.23897">
        <ele>881</ele>
        <time>2018-05-13T08:57:40.000Z</time>
      </trkpt>
      <trkpt lat="43.92116" lon="7.23893">
        <ele>882</ele>
        <time>2018-05-13T08:57:44.000Z</time>
      </trkpt>
      <trkpt lat="43.92114" lon="7.23893">
        <ele>882</ele>
        <time>2018-05-13T08:57:45.000Z</time>
      </trkpt>
      <trkpt lat="43.92106" lon="7.23893">
        <ele>883</ele>
        <time>2018-05-13T08:57:49.000Z</time>
      </trkpt>
      <trkpt lat="43.92105" lon="7.23894">
        <ele>883</ele>
        <time>2018-05-13T08:57:50.000Z</time>
      </trkpt>
      <trkpt lat="43.92103" lon="7.23895">
        <ele>883</ele>
        <time>2018-05-13T08:57:51.000Z</time>
      </trkpt>
      <trkpt lat="43.92102" lon="7.23895">
        <ele>884</ele>
        <time>2018-05-13T08:57:52.000Z</time>
      </trkpt>
      <trkpt lat="43.92099" lon="7.23897">
        <ele>884</ele>
        <time>2018-05-13T08:57:55.000Z</time>
      </trkpt>
      <trkpt lat="43.92098" lon="7.23898">
        <ele>884</ele>
        <time>2018-05-13T08:57:56.000Z</time>
      </trkpt>
      <trkpt lat="43.92094" lon="7.23899">
        <ele>884</ele>
        <time>2018-05-13T08:57:59.000Z</time>
      </trkpt>
      <trkpt lat="43.92086" lon="7.239">
        <ele>885</ele>
        <time>2018-05-13T08:58:04.000Z</time>
      </trkpt>
      <trkpt lat="43.92082" lon="7.239">
        <ele>889</ele>
        <time>2018-05-13T08:58:07.000Z</time>
      </trkpt>
      <trkpt lat="43.92074" lon="7.23899">
        <ele>889</ele>
        <time>2018-05-13T08:58:12.000Z</time>
      </trkpt>
      <trkpt lat="43.92068" lon="7.23897">
        <ele>889</ele>
        <time>2018-05-13T08:58:17.000Z</time>
      </trkpt>
      <trkpt lat="43.92067" lon="7.23896">
        <ele>889</ele>
        <time>2018-05-13T08:58:18.000Z</time>
      </trkpt>
      <trkpt lat="43.92063" lon="7.23896">
        <ele>889</ele>
        <time>2018-05-13T08:58:22.000Z</time>
      </trkpt>
      <trkpt lat="43.9206" lon="7.23895">
        <ele>889</ele>
        <time>2018-05-13T08:58:24.000Z</time>
      </trkpt>
      <trkpt lat="43.92056" lon="7.23893">
        <ele>889</ele>
        <time>2018-05-13T08:58:28.000Z</time>
      </trkpt>
      <trkpt lat="43.92055" lon="7.23891">
        <ele>889</ele>
        <time>2018-05-13T08:58:29.000Z</time>
      </trkpt>
      <trkpt lat="43.9205" lon="7.23884">
        <ele>890</ele>
        <time>2018-05-13T08:58:35.000Z</time>
      </trkpt>
      <trkpt lat="43.9205" lon="7.23882">
        <ele>890</ele>
        <time>2018-05-13T08:58:36.000Z</time>
      </trkpt>
      <trkpt lat="43.92046" lon="7.23874">
        <ele>891</ele>
        <time>2018-05-13T08:58:41.000Z</time>
      </trkpt>
      <trkpt lat="43.92045" lon="7.2387">
        <ele>891</ele>
        <time>2018-05-13T08:58:43.000Z</time>
      </trkpt>
      <trkpt lat="43.92039" lon="7.23856">
        <ele>892</ele>
        <time>2018-05-13T08:58:49.000Z</time>
      </trkpt>
      <trkpt lat="43.92032" lon="7.23851">
        <ele>892</ele>
        <time>2018-05-13T08:58:54.000Z</time>
      </trkpt>
      <trkpt lat="43.92028" lon="7.23848">
        <ele>892</ele>
        <time>2018-05-13T08:58:57.000Z</time>
      </trkpt>
      <trkpt lat="43.92026" lon="7.23845">
        <ele>892</ele>
        <time>2018-05-13T08:58:59.000Z</time>
      </trkpt>
      <trkpt lat="43.92026" lon="7.23844">
        <ele>892</ele>
        <time>2018-05-13T08:59:00.000Z</time>
      </trkpt>
      <trkpt lat="43.92025" lon="7.23843">
        <ele>892</ele>
        <time>2018-05-13T08:59:01.000Z</time>
      </trkpt>
      <trkpt lat="43.92024" lon="7.23838">
        <ele>893</ele>
        <time>2018-05-13T08:59:04.000Z</time>
      </trkpt>
      <trkpt lat="43.92024" lon="7.23836">
        <ele>893</ele>
        <time>2018-05-13T08:59:05.000Z</time>
      </trkpt>
      <trkpt lat="43.92025" lon="7.2383">
        <ele>897</ele>
        <time>2018-05-13T08:59:08.000Z</time>
      </trkpt>
      <trkpt lat="43.92028" lon="7.23819">
        <ele>898</ele>
        <time>2018-05-13T08:59:13.000Z</time>
      </trkpt>
      <trkpt lat="43.92031" lon="7.23816">
        <ele>898</ele>
        <time>2018-05-13T08:59:14.000Z</time>
      </trkpt>
      <trkpt lat="43.92039" lon="7.23805">
        <ele>899</ele>
        <time>2018-05-13T08:59:17.000Z</time>
      </trkpt>
      <trkpt lat="43.92042" lon="7.23794">
        <ele>899</ele>
        <time>2018-05-13T08:59:19.000Z</time>
      </trkpt>
      <trkpt lat="43.92043" lon="7.23781">
        <ele>899</ele>
        <time>2018-05-13T08:59:21.000Z</time>
      </trkpt>
      <trkpt lat="43.92042" lon="7.23776">
        <ele>899</ele>
        <time>2018-05-13T08:59:22.000Z</time>
      </trkpt>
      <trkpt lat="43.92041" lon="7.2377">
        <ele>899</ele>
        <time>2018-05-13T08:59:23.000Z</time>
      </trkpt>
      <trkpt lat="43.92039" lon="7.23761">
        <ele>899</ele>
        <time>2018-05-13T08:59:25.000Z</time>
      </trkpt>
      <trkpt lat="43.92037" lon="7.23756">
        <ele>899</ele>
        <time>2018-05-13T08:59:26.000Z</time>
      </trkpt>
      <trkpt lat="43.92032" lon="7.23732">
        <ele>899</ele>
        <time>2018-05-13T08:59:32.000Z</time>
      </trkpt>
      <trkpt lat="43.92033" lon="7.23713">
        <ele>899</ele>
        <time>2018-05-13T08:59:37.000Z</time>
      </trkpt>
      <trkpt lat="43.92036" lon="7.23694">
        <ele>899</ele>
        <time>2018-05-13T08:59:42.000Z</time>
      </trkpt>
      <trkpt lat="43.92041" lon="7.23676">
        <ele>900</ele>
        <time>2018-05-13T08:59:47.000Z</time>
      </trkpt>
      <trkpt lat="43.92047" lon="7.23652">
        <ele>900</ele>
        <time>2018-05-13T08:59:53.000Z</time>
      </trkpt>
      <trkpt lat="43.92049" lon="7.23637">
        <ele>900</ele>
        <time>2018-05-13T08:59:56.000Z</time>
      </trkpt>
      <trkpt lat="43.92048" lon="7.23629">
        <ele>899</ele>
        <time>2018-05-13T08:59:58.000Z</time>
      </trkpt>
      <trkpt lat="43.92047" lon="7.23605">
        <ele>899</ele>
        <time>2018-05-13T09:00:04.000Z</time>
      </trkpt>
      <trkpt lat="43.92047" lon="7.23602">
        <ele>899</ele>
        <time>2018-05-13T09:00:05.000Z</time>
      </trkpt>
      <trkpt lat="43.92043" lon="7.23584">
        <ele>899</ele>
        <time>2018-05-13T09:00:09.000Z</time>
      </trkpt>
      <trkpt lat="43.92038" lon="7.23553">
        <ele>901</ele>
        <time>2018-05-13T09:00:16.000Z</time>
      </trkpt>
      <trkpt lat="43.9204" lon="7.23539">
        <ele>901</ele>
        <time>2018-05-13T09:00:20.000Z</time>
      </trkpt>
      <trkpt lat="43.9204" lon="7.23537">
        <ele>901</ele>
        <time>2018-05-13T09:00:21.000Z</time>
      </trkpt>
      <trkpt lat="43.92038" lon="7.23523">
        <ele>902</ele>
        <time>2018-05-13T09:00:26.000Z</time>
      </trkpt>
      <trkpt lat="43.92038" lon="7.2352">
        <ele>902</ele>
        <time>2018-05-13T09:00:27.000Z</time>
      </trkpt>
      <trkpt lat="43.92037" lon="7.23514">
        <ele>902</ele>
        <time>2018-05-13T09:00:30.000Z</time>
      </trkpt>
      <trkpt lat="43.92035" lon="7.23507">
        <ele>903</ele>
        <time>2018-05-13T09:00:33.000Z</time>
      </trkpt>
      <trkpt lat="43.92033" lon="7.23503">
        <ele>903</ele>
        <time>2018-05-13T09:00:35.000Z</time>
      </trkpt>
      <trkpt lat="43.92029" lon="7.23493">
        <ele>913</ele>
        <time>2018-05-13T09:00:41.000Z</time>
      </trkpt>
      <trkpt lat="43.92025" lon="7.23482">
        <ele>914</ele>
        <time>2018-05-13T09:00:47.000Z</time>
      </trkpt>
      <trkpt lat="43.92022" lon="7.23474">
        <ele>915</ele>
        <time>2018-05-13T09:00:52.000Z</time>
      </trkpt>
      <trkpt lat="43.9202" lon="7.23464">
        <ele>916</ele>
        <time>2018-05-13T09:00:57.000Z</time>
      </trkpt>
      <trkpt lat="43.92019" lon="7.23458">
        <ele>918</ele>
        <time>2018-05-13T09:01:01.000Z</time>
      </trkpt>
      <trkpt lat="43.92018" lon="7.23454">
        <ele>919</ele>
        <time>2018-05-13T09:01:04.000Z</time>
      </trkpt>
      <trkpt lat="43.92018" lon="7.23451">
        <ele>919</ele>
        <time>2018-05-13T09:01:06.000Z</time>
      </trkpt>
      <trkpt lat="43.92017" lon="7.23449">
        <ele>920</ele>
        <time>2018-05-13T09:01:08.000Z</time>
      </trkpt>
      <trkpt lat="43.92016" lon="7.23446">
        <ele>921</ele>
        <time>2018-05-13T09:01:10.000Z</time>
      </trkpt>
      <trkpt lat="43.92016" lon="7.23445">
        <ele>921</ele>
        <time>2018-05-13T09:01:11.000Z</time>
      </trkpt>
      <trkpt lat="43.92018" lon="7.23439">
        <ele>922</ele>
        <time>2018-05-13T09:01:15.000Z</time>
      </trkpt>
      <trkpt lat="43.92021" lon="7.23433">
        <ele>923</ele>
        <time>2018-05-13T09:01:19.000Z</time>
      </trkpt>
      <trkpt lat="43.92021" lon="7.23432">
        <ele>923</ele>
        <time>2018-05-13T09:01:20.000Z</time>
      </trkpt>
      <trkpt lat="43.92026" lon="7.23426">
        <ele>923</ele>
        <time>2018-05-13T09:01:26.000Z</time>
      </trkpt>
      <trkpt lat="43.92034" lon="7.23419">
        <ele>920</ele>
        <time>2018-05-13T09:01:32.000Z</time>
      </trkpt>
      <trkpt lat="43.92038" lon="7.23417">
        <ele>919</ele>
        <time>2018-05-13T09:01:35.000Z</time>
      </trkpt>
      <trkpt lat="43.92041" lon="7.23416">
        <ele>934</ele>
        <time>2018-05-13T09:01:38.000Z</time>
      </trkpt>
      <trkpt lat="43.92043" lon="7.23416">
        <ele>933</ele>
        <time>2018-05-13T09:01:39.000Z</time>
      </trkpt>
      <trkpt lat="43.92044" lon="7.23416">
        <ele>933</ele>
        <time>2018-05-13T09:01:40.000Z</time>
      </trkpt>
      <trkpt lat="43.92047" lon="7.23417">
        <ele>917</ele>
        <time>2018-05-13T09:01:43.000Z</time>
      </trkpt>
      <trkpt lat="43.92051" lon="7.23418">
        <ele>916</ele>
        <time>2018-05-13T09:01:45.000Z</time>
      </trkpt>
      <trkpt lat="43.92054" lon="7.23418">
        <ele>915</ele>
        <time>2018-05-13T09:01:46.000Z</time>
      </trkpt>
      <trkpt lat="43.92057" lon="7.23416">
        <ele>928</ele>
        <time>2018-05-13T09:01:47.000Z</time>
      </trkpt>
      <trkpt lat="43.92068" lon="7.23411">
        <ele>923</ele>
        <time>2018-05-13T09:01:50.000Z</time>
      </trkpt>
      <trkpt lat="43.92071" lon="7.23409">
        <ele>922</ele>
        <time>2018-05-13T09:01:51.000Z</time>
      </trkpt>
      <trkpt lat="43.92075" lon="7.23405">
        <ele>922</ele>
        <time>2018-05-13T09:01:54.000Z</time>
      </trkpt>
      <trkpt lat="43.9208" lon="7.234">
        <ele>923</ele>
        <time>2018-05-13T09:01:58.000Z</time>
      </trkpt>
      <trkpt lat="43.92084" lon="7.23398">
        <ele>905</ele>
        <time>2018-05-13T09:02:01.000Z</time>
      </trkpt>
      <trkpt lat="43.92085" lon="7.23397">
        <ele>905</ele>
        <time>2018-05-13T09:02:02.000Z</time>
      </trkpt>
      <trkpt lat="43.92086" lon="7.23394">
        <ele>905</ele>
        <time>2018-05-13T09:02:06.000Z</time>
      </trkpt>
      <trkpt lat="43.92087" lon="7.23394">
        <ele>905</ele>
        <time>2018-05-13T09:02:07.000Z</time>
      </trkpt>
      <trkpt lat="43.92092" lon="7.2339">
        <ele>904</ele>
        <time>2018-05-13T09:02:13.000Z</time>
      </trkpt>
      <trkpt lat="43.92096" lon="7.23388">
        <ele>903</ele>
        <time>2018-05-13T09:02:17.000Z</time>
      </trkpt>
      <trkpt lat="43.92098" lon="7.23387">
        <ele>903</ele>
        <time>2018-05-13T09:02:18.000Z</time>
      </trkpt>
      <trkpt lat="43.92099" lon="7.23386">
        <ele>903</ele>
        <time>2018-05-13T09:02:19.000Z</time>
      </trkpt>
      <trkpt lat="43.92102" lon="7.23383">
        <ele>903</ele>
        <time>2018-05-13T09:02:22.000Z</time>
      </trkpt>
      <trkpt lat="43.92103" lon="7.2338">
        <ele>903</ele>
        <time>2018-05-13T09:02:25.000Z</time>
      </trkpt>
      <trkpt lat="43.92103" lon="7.23379">
        <ele>903</ele>
        <time>2018-05-13T09:02:26.000Z</time>
      </trkpt>
      <trkpt lat="43.92101" lon="7.23365">
        <ele>906</ele>
        <time>2018-05-13T09:02:30.000Z</time>
      </trkpt>
      <trkpt lat="43.92089" lon="7.23348">
        <ele>916</ele>
        <time>2018-05-13T09:02:34.000Z</time>
      </trkpt>
      <trkpt lat="43.92083" lon="7.23337">
        <ele>933</ele>
        <time>2018-05-13T09:02:36.000Z</time>
      </trkpt>
      <trkpt lat="43.92082" lon="7.23331">
        <ele>935</ele>
        <time>2018-05-13T09:02:37.000Z</time>
      </trkpt>
      <trkpt lat="43.92083" lon="7.23324">
        <ele>942</ele>
        <time>2018-05-13T09:02:38.000Z</time>
      </trkpt>
      <trkpt lat="43.92085" lon="7.23317">
        <ele>927</ele>
        <time>2018-05-13T09:02:39.000Z</time>
      </trkpt>
      <trkpt lat="43.92095" lon="7.23304">
        <ele>925</ele>
        <time>2018-05-13T09:02:41.000Z</time>
      </trkpt>
      <trkpt lat="43.92103" lon="7.23289">
        <ele>925</ele>
        <time>2018-05-13T09:02:43.000Z</time>
      </trkpt>
      <trkpt lat="43.92103" lon="7.23278">
        <ele>927</ele>
        <time>2018-05-13T09:02:44.000Z</time>
      </trkpt>
      <trkpt lat="43.92105" lon="7.2327">
        <ele>928</ele>
        <time>2018-05-13T09:02:45.000Z</time>
      </trkpt>
      <trkpt lat="43.92114" lon="7.23265">
        <ele>926</ele>
        <time>2018-05-13T09:02:47.000Z</time>
      </trkpt>
      <trkpt lat="43.92117" lon="7.23263">
        <ele>925</ele>
        <time>2018-05-13T09:02:48.000Z</time>
      </trkpt>
      <trkpt lat="43.9212" lon="7.23261">
        <ele>924</ele>
        <time>2018-05-13T09:02:49.000Z</time>
      </trkpt>
      <trkpt lat="43.92124" lon="7.23255">
        <ele>924</ele>
        <time>2018-05-13T09:02:51.000Z</time>
      </trkpt>
      <trkpt lat="43.92127" lon="7.2325">
        <ele>939</ele>
        <time>2018-05-13T09:02:53.000Z</time>
      </trkpt>
      <trkpt lat="43.92131" lon="7.23241">
        <ele>938</ele>
        <time>2018-05-13T09:02:56.000Z</time>
      </trkpt>
      <trkpt lat="43.92133" lon="7.23237">
        <ele>938</ele>
        <time>2018-05-13T09:02:58.000Z</time>
      </trkpt>
      <trkpt lat="43.92134" lon="7.23235">
        <ele>938</ele>
        <time>2018-05-13T09:03:00.000Z</time>
      </trkpt>
      <trkpt lat="43.92135" lon="7.23233">
        <ele>938</ele>
        <time>2018-05-13T09:03:01.000Z</time>
      </trkpt>
      <trkpt lat="43.92138" lon="7.2323">
        <ele>937</ele>
        <time>2018-05-13T09:03:03.000Z</time>
      </trkpt>
      <trkpt lat="43.92145" lon="7.23226">
        <ele>936</ele>
        <time>2018-05-13T09:03:05.000Z</time>
      </trkpt>
      <trkpt lat="43.92155" lon="7.23219">
        <ele>935</ele>
        <time>2018-05-13T09:03:08.000Z</time>
      </trkpt>
      <trkpt lat="43.92158" lon="7.23215">
        <ele>936</ele>
        <time>2018-05-13T09:03:10.000Z</time>
      </trkpt>
      <trkpt lat="43.92165" lon="7.23204">
        <ele>939</ele>
        <time>2018-05-13T09:03:15.000Z</time>
      </trkpt>
      <trkpt lat="43.92167" lon="7.23201">
        <ele>915</ele>
        <time>2018-05-13T09:03:17.000Z</time>
      </trkpt>
      <trkpt lat="43.9217" lon="7.23197">
        <ele>917</ele>
        <time>2018-05-13T09:03:20.000Z</time>
      </trkpt>
      <trkpt lat="43.92172" lon="7.23195">
        <ele>917</ele>
        <time>2018-05-13T09:03:21.000Z</time>
      </trkpt>
      <trkpt lat="43.92175" lon="7.23191">
        <ele>918</ele>
        <time>2018-05-13T09:03:24.000Z</time>
      </trkpt>
      <trkpt lat="43.92177" lon="7.23188">
        <ele>919</ele>
        <time>2018-05-13T09:03:26.000Z</time>
      </trkpt>
      <trkpt lat="43.92183" lon="7.23183">
        <ele>920</ele>
        <time>2018-05-13T09:03:31.000Z</time>
      </trkpt>
      <trkpt lat="43.92184" lon="7.23182">
        <ele>920</ele>
        <time>2018-05-13T09:03:32.000Z</time>
      </trkpt>
      <trkpt lat="43.92188" lon="7.23176">
        <ele>919</ele>
        <time>2018-05-13T09:03:37.000Z</time>
      </trkpt>
      <trkpt lat="43.92189" lon="7.23174">
        <ele>919</ele>
        <time>2018-05-13T09:03:38.000Z</time>
      </trkpt>
      <trkpt lat="43.92193" lon="7.23168">
        <ele>918</ele>
        <time>2018-05-13T09:03:42.000Z</time>
      </trkpt>
      <trkpt lat="43.92194" lon="7.23165">
        <ele>935</ele>
        <time>2018-05-13T09:03:44.000Z</time>
      </trkpt>
      <trkpt lat="43.92194" lon="7.23164">
        <ele>935</ele>
        <time>2018-05-13T09:03:45.000Z</time>
      </trkpt>
      <trkpt lat="43.92195" lon="7.23163">
        <ele>934</ele>
        <time>2018-05-13T09:03:46.000Z</time>
      </trkpt>
      <trkpt lat="43.92197" lon="7.23156">
        <ele>934</ele>
        <time>2018-05-13T09:03:50.000Z</time>
      </trkpt>
      <trkpt lat="43.92201" lon="7.23148">
        <ele>934</ele>
        <time>2018-05-13T09:03:53.000Z</time>
      </trkpt>
      <trkpt lat="43.92202" lon="7.23145">
        <ele>934</ele>
        <time>2018-05-13T09:03:54.000Z</time>
      </trkpt>
      <trkpt lat="43.92204" lon="7.23142">
        <ele>934</ele>
        <time>2018-05-13T09:03:55.000Z</time>
      </trkpt>
      <trkpt lat="43.92206" lon="7.23138">
        <ele>934</ele>
        <time>2018-05-13T09:03:58.000Z</time>
      </trkpt>
      <trkpt lat="43.92213" lon="7.23126">
        <ele>934</ele>
        <time>2018-05-13T09:04:04.000Z</time>
      </trkpt>
      <trkpt lat="43.92214" lon="7.23125">
        <ele>934</ele>
        <time>2018-05-13T09:04:05.000Z</time>
      </trkpt>
      <trkpt lat="43.92218" lon="7.23121">
        <ele>934</ele>
        <time>2018-05-13T09:04:08.000Z</time>
      </trkpt>
      <trkpt lat="43.9222" lon="7.23119">
        <ele>934</ele>
        <time>2018-05-13T09:04:10.000Z</time>
      </trkpt>
      <trkpt lat="43.92221" lon="7.23117">
        <ele>934</ele>
        <time>2018-05-13T09:04:11.000Z</time>
      </trkpt>
      <trkpt lat="43.92226" lon="7.23113">
        <ele>934</ele>
        <time>2018-05-13T09:04:15.000Z</time>
      </trkpt>
      <trkpt lat="43.92227" lon="7.23112">
        <ele>934</ele>
        <time>2018-05-13T09:04:16.000Z</time>
      </trkpt>
      <trkpt lat="43.92237" lon="7.23101">
        <ele>934</ele>
        <time>2018-05-13T09:04:20.000Z</time>
      </trkpt>
      <trkpt lat="43.92241" lon="7.23091">
        <ele>935</ele>
        <time>2018-05-13T09:04:23.000Z</time>
      </trkpt>
      <trkpt lat="43.92241" lon="7.23089">
        <ele>935</ele>
        <time>2018-05-13T09:04:24.000Z</time>
      </trkpt>
      <trkpt lat="43.92241" lon="7.23088">
        <ele>935</ele>
        <time>2018-05-13T09:04:27.000Z</time>
      </trkpt>
      <trkpt lat="43.92243" lon="7.23082">
        <ele>941</ele>
        <time>2018-05-13T09:04:34.000Z</time>
      </trkpt>
      <trkpt lat="43.92243" lon="7.23078">
        <ele>942</ele>
        <time>2018-05-13T09:04:38.000Z</time>
      </trkpt>
      <trkpt lat="43.92244" lon="7.23074">
        <ele>943</ele>
        <time>2018-05-13T09:04:41.000Z</time>
      </trkpt>
      <trkpt lat="43.92244" lon="7.23074">
        <ele>943</ele>
        <time>2018-05-13T09:04:43.000Z</time>
      </trkpt>
      <trkpt lat="43.92245" lon="7.2307">
        <ele>945</ele>
        <time>2018-05-13T09:04:46.000Z</time>
      </trkpt>
      <trkpt lat="43.92246" lon="7.23068">
        <ele>945</ele>
        <time>2018-05-13T09:04:48.000Z</time>
      </trkpt>
      <trkpt lat="43.92248" lon="7.23066">
        <ele>946</ele>
        <time>2018-05-13T09:04:49.000Z</time>
      </trkpt>
      <trkpt lat="43.92249" lon="7.23064">
        <ele>947</ele>
        <time>2018-05-13T09:04:52.000Z</time>
      </trkpt>
      <trkpt lat="43.92253" lon="7.23057">
        <ele>929</ele>
        <time>2018-05-13T09:04:55.000Z</time>
      </trkpt>
      <trkpt lat="43.92253" lon="7.23056">
        <ele>929</ele>
        <time>2018-05-13T09:04:56.000Z</time>
      </trkpt>
      <trkpt lat="43.92254" lon="7.23046">
        <ele>929</ele>
        <time>2018-05-13T09:05:01.000Z</time>
      </trkpt>
      <trkpt lat="43.92255" lon="7.23036">
        <ele>931</ele>
        <time>2018-05-13T09:05:05.000Z</time>
      </trkpt>
      <trkpt lat="43.92254" lon="7.23023">
        <ele>935</ele>
        <time>2018-05-13T09:05:09.000Z</time>
      </trkpt>
      <trkpt lat="43.92257" lon="7.23013">
        <ele>939</ele>
        <time>2018-05-13T09:05:11.000Z</time>
      </trkpt>
      <trkpt lat="43.92259" lon="7.23011">
        <ele>939</ele>
        <time>2018-05-13T09:05:12.000Z</time>
      </trkpt>
      <trkpt lat="43.92261" lon="7.23005">
        <ele>941</ele>
        <time>2018-05-13T09:05:13.000Z</time>
      </trkpt>
      <trkpt lat="43.92264" lon="7.22996">
        <ele>948</ele>
        <time>2018-05-13T09:05:15.000Z</time>
      </trkpt>
      <trkpt lat="43.92268" lon="7.22991">
        <ele>948</ele>
        <time>2018-05-13T09:05:16.000Z</time>
      </trkpt>
      <trkpt lat="43.92277" lon="7.22978">
        <ele>946</ele>
        <time>2018-05-13T09:05:20.000Z</time>
      </trkpt>
      <trkpt lat="43.92279" lon="7.22971">
        <ele>946</ele>
        <time>2018-05-13T09:05:22.000Z</time>
      </trkpt>
      <trkpt lat="43.92282" lon="7.22969">
        <ele>946</ele>
        <time>2018-05-13T09:05:23.000Z</time>
      </trkpt>
      <trkpt lat="43.92286" lon="7.22962">
        <ele>946</ele>
        <time>2018-05-13T09:05:25.000Z</time>
      </trkpt>
      <trkpt lat="43.92288" lon="7.22956">
        <ele>946</ele>
        <time>2018-05-13T09:05:27.000Z</time>
      </trkpt>
      <trkpt lat="43.92289" lon="7.22953">
        <ele>947</ele>
        <time>2018-05-13T09:05:28.000Z</time>
      </trkpt>
      <trkpt lat="43.9229" lon="7.22952">
        <ele>947</ele>
        <time>2018-05-13T09:05:29.000Z</time>
      </trkpt>
      <trkpt lat="43.92291" lon="7.22949">
        <ele>947</ele>
        <time>2018-05-13T09:05:32.000Z</time>
      </trkpt>
      <trkpt lat="43.92293" lon="7.22945">
        <ele>947</ele>
        <time>2018-05-13T09:05:34.000Z</time>
      </trkpt>
      <trkpt lat="43.92294" lon="7.22942">
        <ele>947</ele>
        <time>2018-05-13T09:05:36.000Z</time>
      </trkpt>
      <trkpt lat="43.92295" lon="7.2294">
        <ele>947</ele>
        <time>2018-05-13T09:05:37.000Z</time>
      </trkpt>
      <trkpt lat="43.92296" lon="7.22936">
        <ele>947</ele>
        <time>2018-05-13T09:05:40.000Z</time>
      </trkpt>
      <trkpt lat="43.92297" lon="7.22935">
        <ele>947</ele>
        <time>2018-05-13T09:05:41.000Z</time>
      </trkpt>
      <trkpt lat="43.92299" lon="7.22928">
        <ele>947</ele>
        <time>2018-05-13T09:05:46.000Z</time>
      </trkpt>
      <trkpt lat="43.923" lon="7.22927">
        <ele>947</ele>
        <time>2018-05-13T09:05:47.000Z</time>
      </trkpt>
      <trkpt lat="43.923" lon="7.22924">
        <ele>947</ele>
        <time>2018-05-13T09:05:48.000Z</time>
      </trkpt>
      <trkpt lat="43.92301" lon="7.2292">
        <ele>947</ele>
        <time>2018-05-13T09:05:51.000Z</time>
      </trkpt>
      <trkpt lat="43.92302" lon="7.22917">
        <ele>947</ele>
        <time>2018-05-13T09:05:53.000Z</time>
      </trkpt>
      <trkpt lat="43.92303" lon="7.22913">
        <ele>965</ele>
        <time>2018-05-13T09:05:56.000Z</time>
      </trkpt>
      <trkpt lat="43.92306" lon="7.22908">
        <ele>964</ele>
        <time>2018-05-13T09:06:00.000Z</time>
      </trkpt>
      <trkpt lat="43.92306" lon="7.22907">
        <ele>964</ele>
        <time>2018-05-13T09:06:01.000Z</time>
      </trkpt>
      <trkpt lat="43.92308" lon="7.22903">
        <ele>964</ele>
        <time>2018-05-13T09:06:06.000Z</time>
      </trkpt>
      <trkpt lat="43.9231" lon="7.22902">
        <ele>964</ele>
        <time>2018-05-13T09:06:08.000Z</time>
      </trkpt>
      <trkpt lat="43.92311" lon="7.22899">
        <ele>964</ele>
        <time>2018-05-13T09:06:10.000Z</time>
      </trkpt>
      <trkpt lat="43.92311" lon="7.22896">
        <ele>965</ele>
        <time>2018-05-13T09:06:11.000Z</time>
      </trkpt>
      <trkpt lat="43.92312" lon="7.22891">
        <ele>967</ele>
        <time>2018-05-13T09:06:14.000Z</time>
      </trkpt>
      <trkpt lat="43.92312" lon="7.22889">
        <ele>967</ele>
        <time>2018-05-13T09:06:15.000Z</time>
      </trkpt>
      <trkpt lat="43.92312" lon="7.22882">
        <ele>969</ele>
        <time>2018-05-13T09:06:18.000Z</time>
      </trkpt>
      <trkpt lat="43.92314" lon="7.22877">
        <ele>970</ele>
        <time>2018-05-13T09:06:21.000Z</time>
      </trkpt>
      <trkpt lat="43.92316" lon="7.22875">
        <ele>971</ele>
        <time>2018-05-13T09:06:23.000Z</time>
      </trkpt>
      <trkpt lat="43.9232" lon="7.22875">
        <ele>970</ele>
        <time>2018-05-13T09:06:25.000Z</time>
      </trkpt>
      <trkpt lat="43.92325" lon="7.22873">
        <ele>970</ele>
        <time>2018-05-13T09:06:27.000Z</time>
      </trkpt>
      <trkpt lat="43.9233" lon="7.22867">
        <ele>971</ele>
        <time>2018-05-13T09:06:30.000Z</time>
      </trkpt>
      <trkpt lat="43.92338" lon="7.2286">
        <ele>958</ele>
        <time>2018-05-13T09:06:34.000Z</time>
      </trkpt>
      <trkpt lat="43.92342" lon="7.22859">
        <ele>958</ele>
        <time>2018-05-13T09:06:37.000Z</time>
      </trkpt>
      <trkpt lat="43.92345" lon="7.22857">
        <ele>958</ele>
        <time>2018-05-13T09:06:39.000Z</time>
      </trkpt>
      <trkpt lat="43.92349" lon="7.22858">
        <ele>957</ele>
        <time>2018-05-13T09:06:41.000Z</time>
      </trkpt>
      <trkpt lat="43.92356" lon="7.2286">
        <ele>956</ele>
        <time>2018-05-13T09:06:43.000Z</time>
      </trkpt>
      <trkpt lat="43.92363" lon="7.22859">
        <ele>955</ele>
        <time>2018-05-13T09:06:46.000Z</time>
      </trkpt>
      <trkpt lat="43.92366" lon="7.22858">
        <ele>955</ele>
        <time>2018-05-13T09:06:47.000Z</time>
      </trkpt>
      <trkpt lat="43.92382" lon="7.22848">
        <ele>955</ele>
        <time>2018-05-13T09:06:52.000Z</time>
      </trkpt>
      <trkpt lat="43.92399" lon="7.22847">
        <ele>956</ele>
        <time>2018-05-13T09:06:58.000Z</time>
      </trkpt>
      <trkpt lat="43.92402" lon="7.22849">
        <ele>956</ele>
        <time>2018-05-13T09:06:59.000Z</time>
      </trkpt>
      <trkpt lat="43.92413" lon="7.22858">
        <ele>954</ele>
        <time>2018-05-13T09:07:03.000Z</time>
      </trkpt>
      <trkpt lat="43.92428" lon="7.22865">
        <ele>945</ele>
        <time>2018-05-13T09:07:07.000Z</time>
      </trkpt>
      <trkpt lat="43.92447" lon="7.22859">
        <ele>945</ele>
        <time>2018-05-13T09:07:12.000Z</time>
      </trkpt>
      <trkpt lat="43.92462" lon="7.22853">
        <ele>945</ele>
        <time>2018-05-13T09:07:17.000Z</time>
      </trkpt>
      <trkpt lat="43.92464" lon="7.22852">
        <ele>945</ele>
        <time>2018-05-13T09:07:18.000Z</time>
      </trkpt>
      <trkpt lat="43.92469" lon="7.22846">
        <ele>946</ele>
        <time>2018-05-13T09:07:21.000Z</time>
      </trkpt>
      <trkpt lat="43.92474" lon="7.22841">
        <ele>947</ele>
        <time>2018-05-13T09:07:23.000Z</time>
      </trkpt>
      <trkpt lat="43.92478" lon="7.22832">
        <ele>965</ele>
        <time>2018-05-13T09:07:26.000Z</time>
      </trkpt>
      <trkpt lat="43.9248" lon="7.22824">
        <ele>966</ele>
        <time>2018-05-13T09:07:28.000Z</time>
      </trkpt>
      <trkpt lat="43.92481" lon="7.22823">
        <ele>966</ele>
        <time>2018-05-13T09:07:29.000Z</time>
      </trkpt>
      <trkpt lat="43.92483" lon="7.22823">
        <ele>965</ele>
        <time>2018-05-13T09:07:31.000Z</time>
      </trkpt>
      <trkpt lat="43.92484" lon="7.22822">
        <ele>965</ele>
        <time>2018-05-13T09:07:32.000Z</time>
      </trkpt>
      <trkpt lat="43.92489" lon="7.22822">
        <ele>964</ele>
        <time>2018-05-13T09:07:33.000Z</time>
      </trkpt>
      <trkpt lat="43.92495" lon="7.22816">
        <ele>965</ele>
        <time>2018-05-13T09:07:35.000Z</time>
      </trkpt>
      <trkpt lat="43.92499" lon="7.22812">
        <ele>966</ele>
        <time>2018-05-13T09:07:37.000Z</time>
      </trkpt>
      <trkpt lat="43.92503" lon="7.22811">
        <ele>955</ele>
        <time>2018-05-13T09:07:39.000Z</time>
      </trkpt>
      <trkpt lat="43.92515" lon="7.22807">
        <ele>955</ele>
        <time>2018-05-13T09:07:45.000Z</time>
      </trkpt>
      <trkpt lat="43.92523" lon="7.22802">
        <ele>955</ele>
        <time>2018-05-13T09:07:48.000Z</time>
      </trkpt>
      <trkpt lat="43.92526" lon="7.22799">
        <ele>955</ele>
        <time>2018-05-13T09:07:50.000Z</time>
      </trkpt>
      <trkpt lat="43.9253" lon="7.22795">
        <ele>956</ele>
        <time>2018-05-13T09:07:53.000Z</time>
      </trkpt>
      <trkpt lat="43.92533" lon="7.22791">
        <ele>956</ele>
        <time>2018-05-13T09:07:55.000Z</time>
      </trkpt>
      <trkpt lat="43.92533" lon="7.22788">
        <ele>956</ele>
        <time>2018-05-13T09:07:56.000Z</time>
      </trkpt>
      <trkpt lat="43.92535" lon="7.2278">
        <ele>957</ele>
        <time>2018-05-13T09:07:59.000Z</time>
      </trkpt>
      <trkpt lat="43.92538" lon="7.22771">
        <ele>958</ele>
        <time>2018-05-13T09:08:03.000Z</time>
      </trkpt>
      <trkpt lat="43.92539" lon="7.22768">
        <ele>958</ele>
        <time>2018-05-13T09:08:05.000Z</time>
      </trkpt>
      <trkpt lat="43.92539" lon="7.22765">
        <ele>959</ele>
        <time>2018-05-13T09:08:06.000Z</time>
      </trkpt>
      <trkpt lat="43.92539" lon="7.22758">
        <ele>959</ele>
        <time>2018-05-13T09:08:08.000Z</time>
      </trkpt>
      <trkpt lat="43.92537" lon="7.22743">
        <ele>967</ele>
        <time>2018-05-13T09:08:13.000Z</time>
      </trkpt>
      <trkpt lat="43.92533" lon="7.22723">
        <ele>967</ele>
        <time>2018-05-13T09:08:17.000Z</time>
      </trkpt>
      <trkpt lat="43.92525" lon="7.22689">
        <ele>968</ele>
        <time>2018-05-13T09:08:22.000Z</time>
      </trkpt>
      <trkpt lat="43.9252" lon="7.22666">
        <ele>964</ele>
        <time>2018-05-13T09:08:25.000Z</time>
      </trkpt>
      <trkpt lat="43.92518" lon="7.2266">
        <ele>965</ele>
        <time>2018-05-13T09:08:26.000Z</time>
      </trkpt>
      <trkpt lat="43.92508" lon="7.22631">
        <ele>960</ele>
        <time>2018-05-13T09:08:31.000Z</time>
      </trkpt>
      <trkpt lat="43.92495" lon="7.22601">
        <ele>969</ele>
        <time>2018-05-13T09:08:35.000Z</time>
      </trkpt>
      <trkpt lat="43.92493" lon="7.22594">
        <ele>967</ele>
        <time>2018-05-13T09:08:36.000Z</time>
      </trkpt>
      <trkpt lat="43.9249" lon="7.22587">
        <ele>966</ele>
        <time>2018-05-13T09:08:37.000Z</time>
      </trkpt>
      <trkpt lat="43.92483" lon="7.22567">
        <ele>953</ele>
        <time>2018-05-13T09:08:40.000Z</time>
      </trkpt>
      <trkpt lat="43.9248" lon="7.22561">
        <ele>952</ele>
        <time>2018-05-13T09:08:41.000Z</time>
      </trkpt>
      <trkpt lat="43.9247" lon="7.22556">
        <ele>951</ele>
        <time>2018-05-13T09:08:43.000Z</time>
      </trkpt>
      <trkpt lat="43.92454" lon="7.22561">
        <ele>952</ele>
        <time>2018-05-13T09:08:46.000Z</time>
      </trkpt>
      <trkpt lat="43.92448" lon="7.22565">
        <ele>953</ele>
        <time>2018-05-13T09:08:47.000Z</time>
      </trkpt>
      <trkpt lat="43.92432" lon="7.22577">
        <ele>957</ele>
        <time>2018-05-13T09:08:50.000Z</time>
      </trkpt>
      <trkpt lat="43.92428" lon="7.22583">
        <ele>959</ele>
        <time>2018-05-13T09:08:51.000Z</time>
      </trkpt>
      <trkpt lat="43.92422" lon="7.22591">
        <ele>969</ele>
        <time>2018-05-13T09:08:53.000Z</time>
      </trkpt>
      <trkpt lat="43.92415" lon="7.22596">
        <ele>976</ele>
        <time>2018-05-13T09:08:55.000Z</time>
      </trkpt>
      <trkpt lat="43.92407" lon="7.22594">
        <ele>977</ele>
        <time>2018-05-13T09:08:57.000Z</time>
      </trkpt>
      <trkpt lat="43.92403" lon="7.22592">
        <ele>978</ele>
        <time>2018-05-13T09:08:58.000Z</time>
      </trkpt>
      <trkpt lat="43.92391" lon="7.22585">
        <ele>982</ele>
        <time>2018-05-13T09:09:01.000Z</time>
      </trkpt>
      <trkpt lat="43.92383" lon="7.22584">
        <ele>984</ele>
        <time>2018-05-13T09:09:03.000Z</time>
      </trkpt>
      <trkpt lat="43.92377" lon="7.22584">
        <ele>986</ele>
        <time>2018-05-13T09:09:05.000Z</time>
      </trkpt>
      <trkpt lat="43.92374" lon="7.22585">
        <ele>986</ele>
        <time>2018-05-13T09:09:06.000Z</time>
      </trkpt>
      <trkpt lat="43.92366" lon="7.22582">
        <ele>971</ele>
        <time>2018-05-13T09:09:09.000Z</time>
      </trkpt>
      <trkpt lat="43.92364" lon="7.22582">
        <ele>971</ele>
        <time>2018-05-13T09:09:10.000Z</time>
      </trkpt>
      <trkpt lat="43.92356" lon="7.22585">
        <ele>989</ele>
        <time>2018-05-13T09:09:14.000Z</time>
      </trkpt>
      <trkpt lat="43.92354" lon="7.22585">
        <ele>989</ele>
        <time>2018-05-13T09:09:15.000Z</time>
      </trkpt>
      <trkpt lat="43.92348" lon="7.2258">
        <ele>978</ele>
        <time>2018-05-13T09:09:18.000Z</time>
      </trkpt>
      <trkpt lat="43.92346" lon="7.22577">
        <ele>978</ele>
        <time>2018-05-13T09:09:19.000Z</time>
      </trkpt>
      <trkpt lat="43.92345" lon="7.22575">
        <ele>978</ele>
        <time>2018-05-13T09:09:20.000Z</time>
      </trkpt>
      <trkpt lat="43.92337" lon="7.2255">
        <ele>971</ele>
        <time>2018-05-13T09:09:25.000Z</time>
      </trkpt>
      <trkpt lat="43.92333" lon="7.22535">
        <ele>990</ele>
        <time>2018-05-13T09:09:27.000Z</time>
      </trkpt>
      <trkpt lat="43.92327" lon="7.22528">
        <ele>989</ele>
        <time>2018-05-13T09:09:29.000Z</time>
      </trkpt>
      <trkpt lat="43.92326" lon="7.22516">
        <ele>984</ele>
        <time>2018-05-13T09:09:33.000Z</time>
      </trkpt>
      <trkpt lat="43.92328" lon="7.22514">
        <ele>982</ele>
        <time>2018-05-13T09:09:34.000Z</time>
      </trkpt>
      <trkpt lat="43.92334" lon="7.22504">
        <ele>967</ele>
        <time>2018-05-13T09:09:37.000Z</time>
      </trkpt>
      <trkpt lat="43.92335" lon="7.22492">
        <ele>961</ele>
        <time>2018-05-13T09:09:39.000Z</time>
      </trkpt>
      <trkpt lat="43.92336" lon="7.22485">
        <ele>957</ele>
        <time>2018-05-13T09:09:40.000Z</time>
      </trkpt>
      <trkpt lat="43.92335" lon="7.22468">
        <ele>951</ele>
        <time>2018-05-13T09:09:43.000Z</time>
      </trkpt>
      <trkpt lat="43.92335" lon="7.22466">
        <ele>951</ele>
        <time>2018-05-13T09:09:44.000Z</time>
      </trkpt>
      <trkpt lat="43.92333" lon="7.22456">
        <ele>975</ele>
        <time>2018-05-13T09:09:49.000Z</time>
      </trkpt>
      <trkpt lat="43.92331" lon="7.22453">
        <ele>975</ele>
        <time>2018-05-13T09:09:51.000Z</time>
      </trkpt>
      <trkpt lat="43.92325" lon="7.22446">
        <ele>974</ele>
        <time>2018-05-13T09:09:55.000Z</time>
      </trkpt>
      <trkpt lat="43.92319" lon="7.22442">
        <ele>974</ele>
        <time>2018-05-13T09:09:58.000Z</time>
      </trkpt>
      <trkpt lat="43.9231" lon="7.22441">
        <ele>977</ele>
        <time>2018-05-13T09:10:01.000Z</time>
      </trkpt>
      <trkpt lat="43.92299" lon="7.22437">
        <ele>979</ele>
        <time>2018-05-13T09:10:04.000Z</time>
      </trkpt>
      <trkpt lat="43.92297" lon="7.22427">
        <ele>979</ele>
        <time>2018-05-13T09:10:06.000Z</time>
      </trkpt>
      <trkpt lat="43.92296" lon="7.22421">
        <ele>979</ele>
        <time>2018-05-13T09:10:08.000Z</time>
      </trkpt>
      <trkpt lat="43.92295" lon="7.22418">
        <ele>980</ele>
        <time>2018-05-13T09:10:10.000Z</time>
      </trkpt>
      <trkpt lat="43.92295" lon="7.22414">
        <ele>968</ele>
        <time>2018-05-13T09:10:13.000Z</time>
      </trkpt>
      <trkpt lat="43.92295" lon="7.22412">
        <ele>968</ele>
        <time>2018-05-13T09:10:15.000Z</time>
      </trkpt>
      <trkpt lat="43.92295" lon="7.22409">
        <ele>968</ele>
        <time>2018-05-13T09:10:17.000Z</time>
      </trkpt>
      <trkpt lat="43.92296" lon="7.22407">
        <ele>968</ele>
        <time>2018-05-13T09:10:19.000Z</time>
      </trkpt>
      <trkpt lat="43.92295" lon="7.22405">
        <ele>968</ele>
        <time>2018-05-13T09:10:21.000Z</time>
      </trkpt>
      <trkpt lat="43.92293" lon="7.224">
        <ele>968</ele>
        <time>2018-05-13T09:10:26.000Z</time>
      </trkpt>
      <trkpt lat="43.92291" lon="7.22398">
        <ele>968</ele>
        <time>2018-05-13T09:10:28.000Z</time>
      </trkpt>
      <trkpt lat="43.92289" lon="7.22395">
        <ele>969</ele>
        <time>2018-05-13T09:10:32.000Z</time>
      </trkpt>
      <trkpt lat="43.92287" lon="7.22393">
        <ele>969</ele>
        <time>2018-05-13T09:10:34.000Z</time>
      </trkpt>
      <trkpt lat="43.92287" lon="7.22392">
        <ele>969</ele>
        <time>2018-05-13T09:10:35.000Z</time>
      </trkpt>
      <trkpt lat="43.92285" lon="7.22389">
        <ele>969</ele>
        <time>2018-05-13T09:10:38.000Z</time>
      </trkpt>
      <trkpt lat="43.92282" lon="7.22385">
        <ele>969</ele>
        <time>2018-05-13T09:10:43.000Z</time>
      </trkpt>
      <trkpt lat="43.92282" lon="7.22385">
        <ele>969</ele>
        <time>2018-05-13T09:10:44.000Z</time>
      </trkpt>
      <trkpt lat="43.9228" lon="7.22382">
        <ele>969</ele>
        <time>2018-05-13T09:10:48.000Z</time>
      </trkpt>
      <trkpt lat="43.92279" lon="7.2238">
        <ele>969</ele>
        <time>2018-05-13T09:10:50.000Z</time>
      </trkpt>
      <trkpt lat="43.92276" lon="7.22376">
        <ele>969</ele>
        <time>2018-05-13T09:10:53.000Z</time>
      </trkpt>
      <trkpt lat="43.92275" lon="7.22376">
        <ele>969</ele>
        <time>2018-05-13T09:10:54.000Z</time>
      </trkpt>
      <trkpt lat="43.92273" lon="7.22373">
        <ele>969</ele>
        <time>2018-05-13T09:10:56.000Z</time>
      </trkpt>
      <trkpt lat="43.92272" lon="7.22372">
        <ele>969</ele>
        <time>2018-05-13T09:10:58.000Z</time>
      </trkpt>
      <trkpt lat="43.9227" lon="7.22371">
        <ele>969</ele>
        <time>2018-05-13T09:10:59.000Z</time>
      </trkpt>
      <trkpt lat="43.92267" lon="7.22368">
        <ele>969</ele>
        <time>2018-05-13T09:11:02.000Z</time>
      </trkpt>
      <trkpt lat="43.92265" lon="7.22367">
        <ele>970</ele>
        <time>2018-05-13T09:11:04.000Z</time>
      </trkpt>
      <trkpt lat="43.92265" lon="7.22367">
        <ele>970</ele>
        <time>2018-05-13T09:11:07.000Z</time>
      </trkpt>
      <trkpt lat="43.92261" lon="7.22366">
        <ele>970</ele>
        <time>2018-05-13T09:11:10.000Z</time>
      </trkpt>
      <trkpt lat="43.92258" lon="7.22366">
        <ele>970</ele>
        <time>2018-05-13T09:11:13.000Z</time>
      </trkpt>
      <trkpt lat="43.92256" lon="7.22364">
        <ele>970</ele>
        <time>2018-05-13T09:11:15.000Z</time>
      </trkpt>
      <trkpt lat="43.92252" lon="7.22363">
        <ele>971</ele>
        <time>2018-05-13T09:11:19.000Z</time>
      </trkpt>
      <trkpt lat="43.92249" lon="7.22362">
        <ele>990</ele>
        <time>2018-05-13T09:11:22.000Z</time>
      </trkpt>
      <trkpt lat="43.92246" lon="7.22361">
        <ele>990</ele>
        <time>2018-05-13T09:11:27.000Z</time>
      </trkpt>
      <trkpt lat="43.92244" lon="7.22357">
        <ele>989</ele>
        <time>2018-05-13T09:11:30.000Z</time>
      </trkpt>
      <trkpt lat="43.92243" lon="7.22356">
        <ele>988</ele>
        <time>2018-05-13T09:11:31.000Z</time>
      </trkpt>
      <trkpt lat="43.92242" lon="7.22354">
        <ele>988</ele>
        <time>2018-05-13T09:11:33.000Z</time>
      </trkpt>
      <trkpt lat="43.92242" lon="7.22353">
        <ele>987</ele>
        <time>2018-05-13T09:11:35.000Z</time>
      </trkpt>
      <trkpt lat="43.92241" lon="7.22351">
        <ele>987</ele>
        <time>2018-05-13T09:11:38.000Z</time>
      </trkpt>
      <trkpt lat="43.92239" lon="7.22348">
        <ele>986</ele>
        <time>2018-05-13T09:11:42.000Z</time>
      </trkpt>
      <trkpt lat="43.92236" lon="7.22346">
        <ele>986</ele>
        <time>2018-05-13T09:11:44.000Z</time>
      </trkpt>
      <trkpt lat="43.92226" lon="7.22343">
        <ele>989</ele>
        <time>2018-05-13T09:11:53.000Z</time>
      </trkpt>
      <trkpt lat="43.9222" lon="7.22341">
        <ele>991</ele>
        <time>2018-05-13T09:11:58.000Z</time>
      </trkpt>
      <trkpt lat="43.92219" lon="7.22341">
        <ele>991</ele>
        <time>2018-05-13T09:11:59.000Z</time>
      </trkpt>
      <trkpt lat="43.92215" lon="7.22341">
        <ele>993</ele>
        <time>2018-05-13T09:12:03.000Z</time>
      </trkpt>
      <trkpt lat="43.92214" lon="7.2234">
        <ele>993</ele>
        <time>2018-05-13T09:12:05.000Z</time>
      </trkpt>
      <trkpt lat="43.92212" lon="7.2234">
        <ele>993</ele>
        <time>2018-05-13T09:12:08.000Z</time>
      </trkpt>
      <trkpt lat="43.92211" lon="7.22339">
        <ele>994</ele>
        <time>2018-05-13T09:12:11.000Z</time>
      </trkpt>
      <trkpt lat="43.92207" lon="7.22336">
        <ele>994</ele>
        <time>2018-05-13T09:12:17.000Z</time>
      </trkpt>
      <trkpt lat="43.92202" lon="7.22333">
        <ele>977</ele>
        <time>2018-05-13T09:12:24.000Z</time>
      </trkpt>
      <trkpt lat="43.92199" lon="7.22331">
        <ele>977</ele>
        <time>2018-05-13T09:12:28.000Z</time>
      </trkpt>
      <trkpt lat="43.92197" lon="7.22331">
        <ele>978</ele>
        <time>2018-05-13T09:12:33.000Z</time>
      </trkpt>
      <trkpt lat="43.92193" lon="7.2233">
        <ele>979</ele>
        <time>2018-05-13T09:12:38.000Z</time>
      </trkpt>
      <trkpt lat="43.92192" lon="7.2233">
        <ele>980</ele>
        <time>2018-05-13T09:12:41.000Z</time>
      </trkpt>
      <trkpt lat="43.9219" lon="7.22329">
        <ele>981</ele>
        <time>2018-05-13T09:12:44.000Z</time>
      </trkpt>
      <trkpt lat="43.92187" lon="7.22329">
        <ele>982</ele>
        <time>2018-05-13T09:12:48.000Z</time>
      </trkpt>
      <trkpt lat="43.92185" lon="7.22329">
        <ele>983</ele>
        <time>2018-05-13T09:12:51.000Z</time>
      </trkpt>
      <trkpt lat="43.92182" lon="7.22329">
        <ele>985</ele>
        <time>2018-05-13T09:12:55.000Z</time>
      </trkpt>
      <trkpt lat="43.92181" lon="7.2233">
        <ele>986</ele>
        <time>2018-05-13T09:12:56.000Z</time>
      </trkpt>
      <trkpt lat="43.92176" lon="7.2233">
        <ele>990</ele>
        <time>2018-05-13T09:13:02.000Z</time>
      </trkpt>
      <trkpt lat="43.92171" lon="7.2233">
        <ele>993</ele>
        <time>2018-05-13T09:13:08.000Z</time>
      </trkpt>
      <trkpt lat="43.92169" lon="7.22329">
        <ele>994</ele>
        <time>2018-05-13T09:13:11.000Z</time>
      </trkpt>
      <trkpt lat="43.92167" lon="7.22328">
        <ele>994</ele>
        <time>2018-05-13T09:13:14.000Z</time>
      </trkpt>
      <trkpt lat="43.92164" lon="7.22328">
        <ele>999</ele>
        <time>2018-05-13T09:13:19.000Z</time>
      </trkpt>
      <trkpt lat="43.92163" lon="7.22328">
        <ele>999</ele>
        <time>2018-05-13T09:13:20.000Z</time>
      </trkpt>
      <trkpt lat="43.92159" lon="7.22327">
        <ele>999</ele>
        <time>2018-05-13T09:13:25.000Z</time>
      </trkpt>
      <trkpt lat="43.92157" lon="7.22325">
        <ele>999</ele>
        <time>2018-05-13T09:13:28.000Z</time>
      </trkpt>
      <trkpt lat="43.92154" lon="7.22324">
        <ele>999</ele>
        <time>2018-05-13T09:13:32.000Z</time>
      </trkpt>
      <trkpt lat="43.9215" lon="7.22323">
        <ele>999</ele>
        <time>2018-05-13T09:13:37.000Z</time>
      </trkpt>
      <trkpt lat="43.92149" lon="7.22322">
        <ele>999</ele>
        <time>2018-05-13T09:13:39.000Z</time>
      </trkpt>
      <trkpt lat="43.92146" lon="7.22319">
        <ele>999</ele>
        <time>2018-05-13T09:13:44.000Z</time>
      </trkpt>
      <trkpt lat="43.92145" lon="7.22318">
        <ele>999</ele>
        <time>2018-05-13T09:13:46.000Z</time>
      </trkpt>
      <trkpt lat="43.9214" lon="7.22315">
        <ele>999</ele>
        <time>2018-05-13T09:13:53.000Z</time>
      </trkpt>
      <trkpt lat="43.92139" lon="7.22313">
        <ele>998</ele>
        <time>2018-05-13T09:13:59.000Z</time>
      </trkpt>
      <trkpt lat="43.92137" lon="7.22312">
        <ele>999</ele>
        <time>2018-05-13T09:14:00.000Z</time>
      </trkpt>
      <trkpt lat="43.92134" lon="7.22311">
        <ele>999</ele>
        <time>2018-05-13T09:14:04.000Z</time>
      </trkpt>
      <trkpt lat="43.92131" lon="7.2231">
        <ele>999</ele>
        <time>2018-05-13T09:14:09.000Z</time>
      </trkpt>
      <trkpt lat="43.92131" lon="7.2231">
        <ele>999</ele>
        <time>2018-05-13T09:14:10.000Z</time>
      </trkpt>
      <trkpt lat="43.92127" lon="7.2231">
        <ele>1000</ele>
        <time>2018-05-13T09:14:15.000Z</time>
      </trkpt>
      <trkpt lat="43.92124" lon="7.22309">
        <ele>1000</ele>
        <time>2018-05-13T09:14:18.000Z</time>
      </trkpt>
      <trkpt lat="43.92122" lon="7.22309">
        <ele>1001</ele>
        <time>2018-05-13T09:14:20.000Z</time>
      </trkpt>
      <trkpt lat="43.92116" lon="7.22308">
        <ele>1002</ele>
        <time>2018-05-13T09:14:27.000Z</time>
      </trkpt>
      <trkpt lat="43.92114" lon="7.22308">
        <ele>1002</ele>
        <time>2018-05-13T09:14:28.000Z</time>
      </trkpt>
      <trkpt lat="43.92108" lon="7.2231">
        <ele>1004</ele>
        <time>2018-05-13T09:14:35.000Z</time>
      </trkpt>
      <trkpt lat="43.92107" lon="7.2231">
        <ele>1004</ele>
        <time>2018-05-13T09:14:36.000Z</time>
      </trkpt>
      <trkpt lat="43.92102" lon="7.22311">
        <ele>1006</ele>
        <time>2018-05-13T09:14:43.000Z</time>
      </trkpt>
      <trkpt lat="43.92102" lon="7.22311">
        <ele>1006</ele>
        <time>2018-05-13T09:14:44.000Z</time>
      </trkpt>
      <trkpt lat="43.92099" lon="7.2231">
        <ele>1006</ele>
        <time>2018-05-13T09:14:49.000Z</time>
      </trkpt>
      <trkpt lat="43.92099" lon="7.2231">
        <ele>1006</ele>
        <time>2018-05-13T09:14:52.000Z</time>
      </trkpt>
      <trkpt lat="43.92097" lon="7.22309">
        <ele>1007</ele>
        <time>2018-05-13T09:14:58.000Z</time>
      </trkpt>
      <trkpt lat="43.92096" lon="7.22308">
        <ele>1007</ele>
        <time>2018-05-13T09:15:00.000Z</time>
      </trkpt>
      <trkpt lat="43.92094" lon="7.22307">
        <ele>1007</ele>
        <time>2018-05-13T09:15:05.000Z</time>
      </trkpt>
      <trkpt lat="43.92093" lon="7.22307">
        <ele>1007</ele>
        <time>2018-05-13T09:15:06.000Z</time>
      </trkpt>
      <trkpt lat="43.9209" lon="7.22306">
        <ele>1007</ele>
        <time>2018-05-13T09:15:11.000Z</time>
      </trkpt>
      <trkpt lat="43.92089" lon="7.22306">
        <ele>1007</ele>
        <time>2018-05-13T09:15:12.000Z</time>
      </trkpt>
      <trkpt lat="43.92087" lon="7.22306">
        <ele>1007</ele>
        <time>2018-05-13T09:15:15.000Z</time>
      </trkpt>
      <trkpt lat="43.92086" lon="7.22306">
        <ele>1007</ele>
        <time>2018-05-13T09:15:17.000Z</time>
      </trkpt>
      <trkpt lat="43.92085" lon="7.22306">
        <ele>1007</ele>
        <time>2018-05-13T09:15:20.000Z</time>
      </trkpt>
      <trkpt lat="43.92084" lon="7.22307">
        <ele>1008</ele>
        <time>2018-05-13T09:15:21.000Z</time>
      </trkpt>
      <trkpt lat="43.92081" lon="7.22307">
        <ele>1024</ele>
        <time>2018-05-13T09:15:26.000Z</time>
      </trkpt>
      <trkpt lat="43.9208" lon="7.22307">
        <ele>1024</ele>
        <time>2018-05-13T09:15:28.000Z</time>
      </trkpt>
      <trkpt lat="43.92079" lon="7.22307">
        <ele>1024</ele>
        <time>2018-05-13T09:15:32.000Z</time>
      </trkpt>
      <trkpt lat="43.92076" lon="7.22307">
        <ele>1025</ele>
        <time>2018-05-13T09:15:35.000Z</time>
      </trkpt>
      <trkpt lat="43.92075" lon="7.22308">
        <ele>1025</ele>
        <time>2018-05-13T09:15:36.000Z</time>
      </trkpt>
      <trkpt lat="43.92073" lon="7.22308">
        <ele>1025</ele>
        <time>2018-05-13T09:15:38.000Z</time>
      </trkpt>
      <trkpt lat="43.92072" lon="7.22308">
        <ele>1025</ele>
        <time>2018-05-13T09:15:40.000Z</time>
      </trkpt>
      <trkpt lat="43.92069" lon="7.22307">
        <ele>1025</ele>
        <time>2018-05-13T09:15:45.000Z</time>
      </trkpt>
      <trkpt lat="43.92066" lon="7.22305">
        <ele>1025</ele>
        <time>2018-05-13T09:15:50.000Z</time>
      </trkpt>
      <trkpt lat="43.92065" lon="7.22306">
        <ele>1025</ele>
        <time>2018-05-13T09:15:52.000Z</time>
      </trkpt>
      <trkpt lat="43.92062" lon="7.22306">
        <ele>1026</ele>
        <time>2018-05-13T09:15:56.000Z</time>
      </trkpt>
      <trkpt lat="43.9206" lon="7.22305">
        <ele>1026</ele>
        <time>2018-05-13T09:16:00.000Z</time>
      </trkpt>
      <trkpt lat="43.92059" lon="7.22305">
        <ele>1026</ele>
        <time>2018-05-13T09:16:01.000Z</time>
      </trkpt>
      <trkpt lat="43.92054" lon="7.22304">
        <ele>1026</ele>
        <time>2018-05-13T09:16:06.000Z</time>
      </trkpt>
      <trkpt lat="43.92054" lon="7.22305">
        <ele>1026</ele>
        <time>2018-05-13T09:16:07.000Z</time>
      </trkpt>
      <trkpt lat="43.92051" lon="7.22305">
        <ele>1027</ele>
        <time>2018-05-13T09:16:11.000Z</time>
      </trkpt>
      <trkpt lat="43.92051" lon="7.22305">
        <ele>1027</ele>
        <time>2018-05-13T09:16:12.000Z</time>
      </trkpt>
      <trkpt lat="43.92046" lon="7.22305">
        <ele>1028</ele>
        <time>2018-05-13T09:16:18.000Z</time>
      </trkpt>
      <trkpt lat="43.92045" lon="7.22305">
        <ele>1028</ele>
        <time>2018-05-13T09:16:19.000Z</time>
      </trkpt>
      <trkpt lat="43.92042" lon="7.22304">
        <ele>1028</ele>
        <time>2018-05-13T09:16:23.000Z</time>
      </trkpt>
      <trkpt lat="43.9204" lon="7.22303">
        <ele>1028</ele>
        <time>2018-05-13T09:16:26.000Z</time>
      </trkpt>
      <trkpt lat="43.92038" lon="7.22302">
        <ele>1029</ele>
        <time>2018-05-13T09:16:29.000Z</time>
      </trkpt>
      <trkpt lat="43.92037" lon="7.22302">
        <ele>1029</ele>
        <time>2018-05-13T09:16:30.000Z</time>
      </trkpt>
      <trkpt lat="43.92035" lon="7.22302">
        <ele>1029</ele>
        <time>2018-05-13T09:16:32.000Z</time>
      </trkpt>
      <trkpt lat="43.92033" lon="7.22301">
        <ele>1029</ele>
        <time>2018-05-13T09:16:35.000Z</time>
      </trkpt>
      <trkpt lat="43.92032" lon="7.22301">
        <ele>1030</ele>
        <time>2018-05-13T09:16:36.000Z</time>
      </trkpt>
      <trkpt lat="43.92031" lon="7.223">
        <ele>1030</ele>
        <time>2018-05-13T09:16:38.000Z</time>
      </trkpt>
      <trkpt lat="43.9203" lon="7.22299">
        <ele>1030</ele>
        <time>2018-05-13T09:16:40.000Z</time>
      </trkpt>
      <trkpt lat="43.92025" lon="7.22297">
        <ele>1030</ele>
        <time>2018-05-13T09:16:46.000Z</time>
      </trkpt>
      <trkpt lat="43.92021" lon="7.22296">
        <ele>1030</ele>
        <time>2018-05-13T09:16:51.000Z</time>
      </trkpt>
      <trkpt lat="43.9202" lon="7.22296">
        <ele>1031</ele>
        <time>2018-05-13T09:16:52.000Z</time>
      </trkpt>
      <trkpt lat="43.92014" lon="7.22293">
        <ele>1031</ele>
        <time>2018-05-13T09:16:58.000Z</time>
      </trkpt>
      <trkpt lat="43.92011" lon="7.22292">
        <ele>1031</ele>
        <time>2018-05-13T09:17:01.000Z</time>
      </trkpt>
      <trkpt lat="43.92007" lon="7.22291">
        <ele>1031</ele>
        <time>2018-05-13T09:17:05.000Z</time>
      </trkpt>
      <trkpt lat="43.92002" lon="7.22292">
        <ele>1032</ele>
        <time>2018-05-13T09:17:10.000Z</time>
      </trkpt>
      <trkpt lat="43.91999" lon="7.22292">
        <ele>1044</ele>
        <time>2018-05-13T09:17:13.000Z</time>
      </trkpt>
      <trkpt lat="43.91994" lon="7.2229">
        <ele>1044</ele>
        <time>2018-05-13T09:17:18.000Z</time>
      </trkpt>
      <trkpt lat="43.91993" lon="7.2229">
        <ele>1044</ele>
        <time>2018-05-13T09:17:19.000Z</time>
      </trkpt>
      <trkpt lat="43.91989" lon="7.22288">
        <ele>1044</ele>
        <time>2018-05-13T09:17:24.000Z</time>
      </trkpt>
      <trkpt lat="43.91984" lon="7.22288">
        <ele>1044</ele>
        <time>2018-05-13T09:17:30.000Z</time>
      </trkpt>
      <trkpt lat="43.91976" lon="7.22292">
        <ele>1045</ele>
        <time>2018-05-13T09:17:37.000Z</time>
      </trkpt>
      <trkpt lat="43.91972" lon="7.22293">
        <ele>1046</ele>
        <time>2018-05-13T09:17:41.000Z</time>
      </trkpt>
      <trkpt lat="43.9197" lon="7.22292">
        <ele>1046</ele>
        <time>2018-05-13T09:17:43.000Z</time>
      </trkpt>
      <trkpt lat="43.9197" lon="7.22291">
        <ele>1046</ele>
        <time>2018-05-13T09:17:44.000Z</time>
      </trkpt>
      <trkpt lat="43.91967" lon="7.22288">
        <ele>1046</ele>
        <time>2018-05-13T09:17:48.000Z</time>
      </trkpt>
      <trkpt lat="43.91967" lon="7.22289">
        <ele>1046</ele>
        <time>2018-05-13T09:17:50.000Z</time>
      </trkpt>
      <trkpt lat="43.91963" lon="7.22283">
        <ele>1046</ele>
        <time>2018-05-13T09:17:55.000Z</time>
      </trkpt>
      <trkpt lat="43.91957" lon="7.22279">
        <ele>1046</ele>
        <time>2018-05-13T09:18:01.000Z</time>
      </trkpt>
      <trkpt lat="43.91956" lon="7.22277">
        <ele>1046</ele>
        <time>2018-05-13T09:18:02.000Z</time>
      </trkpt>
      <trkpt lat="43.91954" lon="7.22276">
        <ele>1046</ele>
        <time>2018-05-13T09:18:04.000Z</time>
      </trkpt>
      <trkpt lat="43.91952" lon="7.22275">
        <ele>1046</ele>
        <time>2018-05-13T09:18:07.000Z</time>
      </trkpt>
      <trkpt lat="43.91949" lon="7.22275">
        <ele>1046</ele>
        <time>2018-05-13T09:18:09.000Z</time>
      </trkpt>
      <trkpt lat="43.91947" lon="7.22276">
        <ele>1047</ele>
        <time>2018-05-13T09:18:11.000Z</time>
      </trkpt>
      <trkpt lat="43.91945" lon="7.22277">
        <ele>1047</ele>
        <time>2018-05-13T09:18:13.000Z</time>
      </trkpt>
      <trkpt lat="43.91944" lon="7.22278">
        <ele>1047</ele>
        <time>2018-05-13T09:18:14.000Z</time>
      </trkpt>
      <trkpt lat="43.9194" lon="7.22284">
        <ele>1048</ele>
        <time>2018-05-13T09:18:19.000Z</time>
      </trkpt>
      <trkpt lat="43.9194" lon="7.22286">
        <ele>1048</ele>
        <time>2018-05-13T09:18:20.000Z</time>
      </trkpt>
      <trkpt lat="43.91941" lon="7.223">
        <ele>1049</ele>
        <time>2018-05-13T09:18:27.000Z</time>
      </trkpt>
      <trkpt lat="43.91939" lon="7.2231">
        <ele>1050</ele>
        <time>2018-05-13T09:18:32.000Z</time>
      </trkpt>
      <trkpt lat="43.91939" lon="7.22311">
        <ele>1050</ele>
        <time>2018-05-13T09:18:33.000Z</time>
      </trkpt>
      <trkpt lat="43.91938" lon="7.22315">
        <ele>1050</ele>
        <time>2018-05-13T09:18:35.000Z</time>
      </trkpt>
      <trkpt lat="43.91936" lon="7.22318">
        <ele>1051</ele>
        <time>2018-05-13T09:18:37.000Z</time>
      </trkpt>
      <trkpt lat="43.91935" lon="7.2232">
        <ele>1051</ele>
        <time>2018-05-13T09:18:38.000Z</time>
      </trkpt>
      <trkpt lat="43.91934" lon="7.22321">
        <ele>1051</ele>
        <time>2018-05-13T09:18:39.000Z</time>
      </trkpt>
      <trkpt lat="43.91928" lon="7.22327">
        <ele>1052</ele>
        <time>2018-05-13T09:18:44.000Z</time>
      </trkpt>
      <trkpt lat="43.91927" lon="7.22328">
        <ele>1053</ele>
        <time>2018-05-13T09:18:45.000Z</time>
      </trkpt>
      <trkpt lat="43.91921" lon="7.22337">
        <ele>1056</ele>
        <time>2018-05-13T09:18:52.000Z</time>
      </trkpt>
      <trkpt lat="43.91916" lon="7.22343">
        <ele>1052</ele>
        <time>2018-05-13T09:18:58.000Z</time>
      </trkpt>
      <trkpt lat="43.91915" lon="7.22344">
        <ele>1052</ele>
        <time>2018-05-13T09:18:59.000Z</time>
      </trkpt>
      <trkpt lat="43.9191" lon="7.22353">
        <ele>1049</ele>
        <time>2018-05-13T09:19:05.000Z</time>
      </trkpt>
      <trkpt lat="43.9191" lon="7.22356">
        <ele>1049</ele>
        <time>2018-05-13T09:19:06.000Z</time>
      </trkpt>
      <trkpt lat="43.91912" lon="7.22362">
        <ele>1048</ele>
        <time>2018-05-13T09:19:09.000Z</time>
      </trkpt>
      <trkpt lat="43.91914" lon="7.22367">
        <ele>1048</ele>
        <time>2018-05-13T09:19:12.000Z</time>
      </trkpt>
      <trkpt lat="43.91913" lon="7.22369">
        <ele>1048</ele>
        <time>2018-05-13T09:19:13.000Z</time>
      </trkpt>
      <trkpt lat="43.91913" lon="7.22377">
        <ele>1048</ele>
        <time>2018-05-13T09:19:17.000Z</time>
      </trkpt>
      <trkpt lat="43.91913" lon="7.22401">
        <ele>1051</ele>
        <time>2018-05-13T09:19:23.000Z</time>
      </trkpt>
      <trkpt lat="43.91913" lon="7.22412">
        <ele>1054</ele>
        <time>2018-05-13T09:19:25.000Z</time>
      </trkpt>
      <trkpt lat="43.91909" lon="7.22423">
        <ele>1055</ele>
        <time>2018-05-13T09:19:27.000Z</time>
      </trkpt>
      <trkpt lat="43.91906" lon="7.22429">
        <ele>1054</ele>
        <time>2018-05-13T09:19:28.000Z</time>
      </trkpt>
      <trkpt lat="43.91904" lon="7.22435">
        <ele>1053</ele>
        <time>2018-05-13T09:19:29.000Z</time>
      </trkpt>
      <trkpt lat="43.919" lon="7.22446">
        <ele>1053</ele>
        <time>2018-05-13T09:19:31.000Z</time>
      </trkpt>
      <trkpt lat="43.91895" lon="7.22451">
        <ele>1053</ele>
        <time>2018-05-13T09:19:32.000Z</time>
      </trkpt>
      <trkpt lat="43.91889" lon="7.22459">
        <ele>1053</ele>
        <time>2018-05-13T09:19:34.000Z</time>
      </trkpt>
      <trkpt lat="43.9188" lon="7.22468">
        <ele>1052</ele>
        <time>2018-05-13T09:19:37.000Z</time>
      </trkpt>
      <trkpt lat="43.91866" lon="7.22478">
        <ele>1050</ele>
        <time>2018-05-13T09:19:42.000Z</time>
      </trkpt>
      <trkpt lat="43.91863" lon="7.22479">
        <ele>1050</ele>
        <time>2018-05-13T09:19:43.000Z</time>
      </trkpt>
      <trkpt lat="43.91851" lon="7.22488">
        <ele>1048</ele>
        <time>2018-05-13T09:19:48.000Z</time>
      </trkpt>
      <trkpt lat="43.91845" lon="7.22493">
        <ele>1046</ele>
        <time>2018-05-13T09:19:50.000Z</time>
      </trkpt>
      <trkpt lat="43.91834" lon="7.22505">
        <ele>1048</ele>
        <time>2018-05-13T09:19:53.000Z</time>
      </trkpt>
      <trkpt lat="43.91822" lon="7.2252">
        <ele>1046</ele>
        <time>2018-05-13T09:19:56.000Z</time>
      </trkpt>
      <trkpt lat="43.91814" lon="7.22529">
        <ele>1047</ele>
        <time>2018-05-13T09:19:58.000Z</time>
      </trkpt>
      <trkpt lat="43.91807" lon="7.22538">
        <ele>1048</ele>
        <time>2018-05-13T09:20:00.000Z</time>
      </trkpt>
      <trkpt lat="43.9179" lon="7.22563">
        <ele>1049</ele>
        <time>2018-05-13T09:20:04.000Z</time>
      </trkpt>
      <trkpt lat="43.91785" lon="7.22566">
        <ele>1049</ele>
        <time>2018-05-13T09:20:05.000Z</time>
      </trkpt>
      <trkpt lat="43.91775" lon="7.22567">
        <ele>1048</ele>
        <time>2018-05-13T09:20:07.000Z</time>
      </trkpt>
      <trkpt lat="43.91771" lon="7.22569">
        <ele>1048</ele>
        <time>2018-05-13T09:20:08.000Z</time>
      </trkpt>
      <trkpt lat="43.91766" lon="7.22571">
        <ele>1048</ele>
        <time>2018-05-13T09:20:09.000Z</time>
      </trkpt>
      <trkpt lat="43.91762" lon="7.22574">
        <ele>1048</ele>
        <time>2018-05-13T09:20:10.000Z</time>
      </trkpt>
      <trkpt lat="43.91743" lon="7.22587">
        <ele>1047</ele>
        <time>2018-05-13T09:20:14.000Z</time>
      </trkpt>
      <trkpt lat="43.9173" lon="7.22598">
        <ele>1044</ele>
        <time>2018-05-13T09:20:17.000Z</time>
      </trkpt>
      <trkpt lat="43.91726" lon="7.22602">
        <ele>1044</ele>
        <time>2018-05-13T09:20:18.000Z</time>
      </trkpt>
      <trkpt lat="43.91722" lon="7.22607">
        <ele>1043</ele>
        <time>2018-05-13T09:20:19.000Z</time>
      </trkpt>
      <trkpt lat="43.91709" lon="7.22639">
        <ele>1043</ele>
        <time>2018-05-13T09:20:23.000Z</time>
      </trkpt>
      <trkpt lat="43.91706" lon="7.22647">
        <ele>1042</ele>
        <time>2018-05-13T09:20:24.000Z</time>
      </trkpt>
      <trkpt lat="43.91703" lon="7.22657">
        <ele>1042</ele>
        <time>2018-05-13T09:20:25.000Z</time>
      </trkpt>
      <trkpt lat="43.917" lon="7.22666">
        <ele>1041</ele>
        <time>2018-05-13T09:20:26.000Z</time>
      </trkpt>
      <trkpt lat="43.91698" lon="7.22676">
        <ele>1042</ele>
        <time>2018-05-13T09:20:27.000Z</time>
      </trkpt>
      <trkpt lat="43.91696" lon="7.22686">
        <ele>1042</ele>
        <time>2018-05-13T09:20:28.000Z</time>
      </trkpt>
      <trkpt lat="43.91694" lon="7.22695">
        <ele>1041</ele>
        <time>2018-05-13T09:20:29.000Z</time>
      </trkpt>
      <trkpt lat="43.91691" lon="7.22701">
        <ele>1041</ele>
        <time>2018-05-13T09:20:30.000Z</time>
      </trkpt>
      <trkpt lat="43.91686" lon="7.22708">
        <ele>1040</ele>
        <time>2018-05-13T09:20:31.000Z</time>
      </trkpt>
      <trkpt lat="43.91684" lon="7.22715">
        <ele>1040</ele>
        <time>2018-05-13T09:20:32.000Z</time>
      </trkpt>
      <trkpt lat="43.91683" lon="7.22723">
        <ele>1039</ele>
        <time>2018-05-13T09:20:33.000Z</time>
      </trkpt>
      <trkpt lat="43.91684" lon="7.22738">
        <ele>1036</ele>
        <time>2018-05-13T09:20:35.000Z</time>
      </trkpt>
      <trkpt lat="43.91682" lon="7.22756">
        <ele>1036</ele>
        <time>2018-05-13T09:20:37.000Z</time>
      </trkpt>
      <trkpt lat="43.91681" lon="7.22765">
        <ele>1038</ele>
        <time>2018-05-13T09:20:38.000Z</time>
      </trkpt>
      <trkpt lat="43.91679" lon="7.22774">
        <ele>1039</ele>
        <time>2018-05-13T09:20:39.000Z</time>
      </trkpt>
      <trkpt lat="43.91663" lon="7.22787">
        <ele>1023</ele>
        <time>2018-05-13T09:20:42.000Z</time>
      </trkpt>
      <trkpt lat="43.91659" lon="7.22793">
        <ele>1023</ele>
        <time>2018-05-13T09:20:43.000Z</time>
      </trkpt>
      <trkpt lat="43.9165" lon="7.22806">
        <ele>1023</ele>
        <time>2018-05-13T09:20:45.000Z</time>
      </trkpt>
      <trkpt lat="43.91646" lon="7.22812">
        <ele>1023</ele>
        <time>2018-05-13T09:20:46.000Z</time>
      </trkpt>
      <trkpt lat="43.91638" lon="7.22828">
        <ele>1023</ele>
        <time>2018-05-13T09:20:49.000Z</time>
      </trkpt>
      <trkpt lat="43.91635" lon="7.22845">
        <ele>1028</ele>
        <time>2018-05-13T09:20:53.000Z</time>
      </trkpt>
      <trkpt lat="43.91633" lon="7.22858">
        <ele>1028</ele>
        <time>2018-05-13T09:20:58.000Z</time>
      </trkpt>
      <trkpt lat="43.91632" lon="7.22861">
        <ele>1028</ele>
        <time>2018-05-13T09:20:59.000Z</time>
      </trkpt>
      <trkpt lat="43.91629" lon="7.22871">
        <ele>1029</ele>
        <time>2018-05-13T09:21:05.000Z</time>
      </trkpt>
      <trkpt lat="43.91628" lon="7.22874">
        <ele>1029</ele>
        <time>2018-05-13T09:21:06.000Z</time>
      </trkpt>
      <trkpt lat="43.91621" lon="7.22885">
        <ele>1028</ele>
        <time>2018-05-13T09:21:12.000Z</time>
      </trkpt>
      <trkpt lat="43.91618" lon="7.22891">
        <ele>1028</ele>
        <time>2018-05-13T09:21:15.000Z</time>
      </trkpt>
      <trkpt lat="43.91609" lon="7.22913">
        <ele>1027</ele>
        <time>2018-05-13T09:21:23.000Z</time>
      </trkpt>
      <trkpt lat="43.91608" lon="7.22916">
        <ele>1026</ele>
        <time>2018-05-13T09:21:24.000Z</time>
      </trkpt>
      <trkpt lat="43.91597" lon="7.2294">
        <ele>1031</ele>
        <time>2018-05-13T09:21:33.000Z</time>
      </trkpt>
      <trkpt lat="43.91598" lon="7.22953">
        <ele>1033</ele>
        <time>2018-05-13T09:21:37.000Z</time>
      </trkpt>
      <trkpt lat="43.91598" lon="7.2296">
        <ele>1033</ele>
        <time>2018-05-13T09:21:39.000Z</time>
      </trkpt>
      <trkpt lat="43.91599" lon="7.22969">
        <ele>1033</ele>
        <time>2018-05-13T09:21:43.000Z</time>
      </trkpt>
      <trkpt lat="43.91599" lon="7.22973">
        <ele>1033</ele>
        <time>2018-05-13T09:21:45.000Z</time>
      </trkpt>
      <trkpt lat="43.91599" lon="7.22983">
        <ele>1033</ele>
        <time>2018-05-13T09:21:50.000Z</time>
      </trkpt>
      <trkpt lat="43.916" lon="7.2299">
        <ele>1033</ele>
        <time>2018-05-13T09:21:53.000Z</time>
      </trkpt>
      <trkpt lat="43.916" lon="7.22992">
        <ele>1033</ele>
        <time>2018-05-13T09:21:54.000Z</time>
      </trkpt>
      <trkpt lat="43.91602" lon="7.23002">
        <ele>1034</ele>
        <time>2018-05-13T09:21:59.000Z</time>
      </trkpt>
      <trkpt lat="43.91602" lon="7.23006">
        <ele>1034</ele>
        <time>2018-05-13T09:22:01.000Z</time>
      </trkpt>
      <trkpt lat="43.91607" lon="7.23021">
        <ele>1036</ele>
        <time>2018-05-13T09:22:08.000Z</time>
      </trkpt>
      <trkpt lat="43.91607" lon="7.23023">
        <ele>1036</ele>
        <time>2018-05-13T09:22:09.000Z</time>
      </trkpt>
      <trkpt lat="43.91607" lon="7.23026">
        <ele>1036</ele>
        <time>2018-05-13T09:22:10.000Z</time>
      </trkpt>
      <trkpt lat="43.91608" lon="7.23036">
        <ele>1037</ele>
        <time>2018-05-13T09:22:14.000Z</time>
      </trkpt>
      <trkpt lat="43.91609" lon="7.23038">
        <ele>1037</ele>
        <time>2018-05-13T09:22:15.000Z</time>
      </trkpt>
      <trkpt lat="43.91609" lon="7.2304">
        <ele>1037</ele>
        <time>2018-05-13T09:22:16.000Z</time>
      </trkpt>
      <trkpt lat="43.91611" lon="7.23046">
        <ele>1037</ele>
        <time>2018-05-13T09:22:20.000Z</time>
      </trkpt>
      <trkpt lat="43.91612" lon="7.23048">
        <ele>1037</ele>
        <time>2018-05-13T09:22:21.000Z</time>
      </trkpt>
      <trkpt lat="43.91615" lon="7.23055">
        <ele>1038</ele>
        <time>2018-05-13T09:22:26.000Z</time>
      </trkpt>
      <trkpt lat="43.91617" lon="7.23057">
        <ele>1038</ele>
        <time>2018-05-13T09:22:28.000Z</time>
      </trkpt>
      <trkpt lat="43.91618" lon="7.2306">
        <ele>1038</ele>
        <time>2018-05-13T09:22:30.000Z</time>
      </trkpt>
      <trkpt lat="43.91621" lon="7.23064">
        <ele>1038</ele>
        <time>2018-05-13T09:22:33.000Z</time>
      </trkpt>
      <trkpt lat="43.91621" lon="7.23066">
        <ele>1038</ele>
        <time>2018-05-13T09:22:34.000Z</time>
      </trkpt>
      <trkpt lat="43.91623" lon="7.23071">
        <ele>1038</ele>
        <time>2018-05-13T09:22:38.000Z</time>
      </trkpt>
      <trkpt lat="43.91624" lon="7.23076">
        <ele>1038</ele>
        <time>2018-05-13T09:22:41.000Z</time>
      </trkpt>
      <trkpt lat="43.91624" lon="7.2308">
        <ele>1038</ele>
        <time>2018-05-13T09:22:44.000Z</time>
      </trkpt>
      <trkpt lat="43.91624" lon="7.23089">
        <ele>1035</ele>
        <time>2018-05-13T09:22:49.000Z</time>
      </trkpt>
      <trkpt lat="43.91624" lon="7.2309">
        <ele>1035</ele>
        <time>2018-05-13T09:22:50.000Z</time>
      </trkpt>
      <trkpt lat="43.91622" lon="7.23098">
        <ele>1035</ele>
        <time>2018-05-13T09:22:56.000Z</time>
      </trkpt>
      <trkpt lat="43.91621" lon="7.23102">
        <ele>1035</ele>
        <time>2018-05-13T09:23:01.000Z</time>
      </trkpt>
      <trkpt lat="43.91621" lon="7.23105">
        <ele>1035</ele>
        <time>2018-05-13T09:23:04.000Z</time>
      </trkpt>
      <trkpt lat="43.91619" lon="7.23109">
        <ele>1035</ele>
        <time>2018-05-13T09:23:09.000Z</time>
      </trkpt>
      <trkpt lat="43.91619" lon="7.23111">
        <ele>1035</ele>
        <time>2018-05-13T09:23:11.000Z</time>
      </trkpt>
      <trkpt lat="43.91617" lon="7.23113">
        <ele>1035</ele>
        <time>2018-05-13T09:23:14.000Z</time>
      </trkpt>
      <trkpt lat="43.91614" lon="7.23113">
        <ele>1035</ele>
        <time>2018-05-13T09:23:18.000Z</time>
      </trkpt>
      <trkpt lat="43.91611" lon="7.23112">
        <ele>1035</ele>
        <time>2018-05-13T09:23:21.000Z</time>
      </trkpt>
      <trkpt lat="43.91609" lon="7.23112">
        <ele>1035</ele>
        <time>2018-05-13T09:23:26.000Z</time>
      </trkpt>
      <trkpt lat="43.91601" lon="7.23109">
        <ele>1036</ele>
        <time>2018-05-13T09:23:32.000Z</time>
      </trkpt>
      <trkpt lat="43.91597" lon="7.23107">
        <ele>1036</ele>
        <time>2018-05-13T09:23:35.000Z</time>
      </trkpt>
      <trkpt lat="43.91592" lon="7.23105">
        <ele>1036</ele>
        <time>2018-05-13T09:23:39.000Z</time>
      </trkpt>
      <trkpt lat="43.91584" lon="7.23105">
        <ele>1036</ele>
        <time>2018-05-13T09:23:44.000Z</time>
      </trkpt>
      <trkpt lat="43.91581" lon="7.23106">
        <ele>1040</ele>
        <time>2018-05-13T09:23:46.000Z</time>
      </trkpt>
      <trkpt lat="43.91572" lon="7.23109">
        <ele>1040</ele>
        <time>2018-05-13T09:23:52.000Z</time>
      </trkpt>
      <trkpt lat="43.91569" lon="7.23112">
        <ele>1040</ele>
        <time>2018-05-13T09:23:54.000Z</time>
      </trkpt>
      <trkpt lat="43.91558" lon="7.23121">
        <ele>1041</ele>
        <time>2018-05-13T09:24:00.000Z</time>
      </trkpt>
      <trkpt lat="43.91551" lon="7.23128">
        <ele>1041</ele>
        <time>2018-05-13T09:24:04.000Z</time>
      </trkpt>
      <trkpt lat="43.91549" lon="7.2313">
        <ele>1041</ele>
        <time>2018-05-13T09:24:05.000Z</time>
      </trkpt>
      <trkpt lat="43.91536" lon="7.23139">
        <ele>1042</ele>
        <time>2018-05-13T09:24:12.000Z</time>
      </trkpt>
      <trkpt lat="43.91531" lon="7.23142">
        <ele>1042</ele>
        <time>2018-05-13T09:24:14.000Z</time>
      </trkpt>
      <trkpt lat="43.91516" lon="7.23149">
        <ele>1044</ele>
        <time>2018-05-13T09:24:21.000Z</time>
      </trkpt>
      <trkpt lat="43.91512" lon="7.23151">
        <ele>1045</ele>
        <time>2018-05-13T09:24:23.000Z</time>
      </trkpt>
      <trkpt lat="43.91501" lon="7.23155">
        <ele>1047</ele>
        <time>2018-05-13T09:24:28.000Z</time>
      </trkpt>
      <trkpt lat="43.91493" lon="7.23159">
        <ele>1051</ele>
        <time>2018-05-13T09:24:32.000Z</time>
      </trkpt>
      <trkpt lat="43.91482" lon="7.23159">
        <ele>1051</ele>
        <time>2018-05-13T09:24:37.000Z</time>
      </trkpt>
      <trkpt lat="43.9148" lon="7.23159">
        <ele>1051</ele>
        <time>2018-05-13T09:24:38.000Z</time>
      </trkpt>
      <trkpt lat="43.91475" lon="7.2316">
        <ele>1052</ele>
        <time>2018-05-13T09:24:41.000Z</time>
      </trkpt>
      <trkpt lat="43.91469" lon="7.23163">
        <ele>1053</ele>
        <time>2018-05-13T09:24:46.000Z</time>
      </trkpt>
      <trkpt lat="43.91461" lon="7.23163">
        <ele>1054</ele>
        <time>2018-05-13T09:24:51.000Z</time>
      </trkpt>
      <trkpt lat="43.91459" lon="7.23162">
        <ele>1054</ele>
        <time>2018-05-13T09:24:52.000Z</time>
      </trkpt>
      <trkpt lat="43.91458" lon="7.23161">
        <ele>1054</ele>
        <time>2018-05-13T09:24:56.000Z</time>
      </trkpt>
      <trkpt lat="43.91456" lon="7.23161">
        <ele>1054</ele>
        <time>2018-05-13T09:24:58.000Z</time>
      </trkpt>
      <trkpt lat="43.91451" lon="7.23158">
        <ele>1055</ele>
        <time>2018-05-13T09:25:04.000Z</time>
      </trkpt>
      <trkpt lat="43.91447" lon="7.23157">
        <ele>1055</ele>
        <time>2018-05-13T09:25:09.000Z</time>
      </trkpt>
      <trkpt lat="43.91444" lon="7.23156">
        <ele>1056</ele>
        <time>2018-05-13T09:25:12.000Z</time>
      </trkpt>
      <trkpt lat="43.91441" lon="7.23153">
        <ele>1056</ele>
        <time>2018-05-13T09:25:16.000Z</time>
      </trkpt>
      <trkpt lat="43.91438" lon="7.23151">
        <ele>1056</ele>
        <time>2018-05-13T09:25:20.000Z</time>
      </trkpt>
      <trkpt lat="43.91435" lon="7.2315">
        <ele>1057</ele>
        <time>2018-05-13T09:25:24.000Z</time>
      </trkpt>
      <trkpt lat="43.91432" lon="7.23148">
        <ele>1057</ele>
        <time>2018-05-13T09:25:28.000Z</time>
      </trkpt>
      <trkpt lat="43.91431" lon="7.23148">
        <ele>1057</ele>
        <time>2018-05-13T09:25:29.000Z</time>
      </trkpt>
      <trkpt lat="43.91426" lon="7.23145">
        <ele>1057</ele>
        <time>2018-05-13T09:25:34.000Z</time>
      </trkpt>
      <trkpt lat="43.91423" lon="7.23142">
        <ele>1057</ele>
        <time>2018-05-13T09:25:38.000Z</time>
      </trkpt>
      <trkpt lat="43.91421" lon="7.23139">
        <ele>1057</ele>
        <time>2018-05-13T09:25:41.000Z</time>
      </trkpt>
      <trkpt lat="43.91417" lon="7.23135">
        <ele>1056</ele>
        <time>2018-05-13T09:25:45.000Z</time>
      </trkpt>
      <trkpt lat="43.91416" lon="7.23135">
        <ele>1073</ele>
        <time>2018-05-13T09:25:46.000Z</time>
      </trkpt>
      <trkpt lat="43.91412" lon="7.23129">
        <ele>1073</ele>
        <time>2018-05-13T09:25:52.000Z</time>
      </trkpt>
      <trkpt lat="43.91411" lon="7.23128">
        <ele>1073</ele>
        <time>2018-05-13T09:25:53.000Z</time>
      </trkpt>
      <trkpt lat="43.91407" lon="7.23124">
        <ele>1073</ele>
        <time>2018-05-13T09:25:59.000Z</time>
      </trkpt>
      <trkpt lat="43.91407" lon="7.23123">
        <ele>1073</ele>
        <time>2018-05-13T09:26:00.000Z</time>
      </trkpt>
      <trkpt lat="43.91404" lon="7.2312">
        <ele>1074</ele>
        <time>2018-05-13T09:26:04.000Z</time>
      </trkpt>
      <trkpt lat="43.91403" lon="7.23121">
        <ele>1074</ele>
        <time>2018-05-13T09:26:05.000Z</time>
      </trkpt>
      <trkpt lat="43.91403" lon="7.23122">
        <ele>1074</ele>
        <time>2018-05-13T09:26:06.000Z</time>
      </trkpt>
      <trkpt lat="43.91403" lon="7.23123">
        <ele>1074</ele>
        <time>2018-05-13T09:26:07.000Z</time>
      </trkpt>
      <trkpt lat="43.91403" lon="7.23127">
        <ele>1074</ele>
        <time>2018-05-13T09:26:10.000Z</time>
      </trkpt>
      <trkpt lat="43.91404" lon="7.2313">
        <ele>1074</ele>
        <time>2018-05-13T09:26:12.000Z</time>
      </trkpt>
      <trkpt lat="43.91404" lon="7.23131">
        <ele>1074</ele>
        <time>2018-05-13T09:26:13.000Z</time>
      </trkpt>
      <trkpt lat="43.91404" lon="7.23133">
        <ele>1074</ele>
        <time>2018-05-13T09:26:17.000Z</time>
      </trkpt>
      <trkpt lat="43.91404" lon="7.23141">
        <ele>1074</ele>
        <time>2018-05-13T09:26:24.000Z</time>
      </trkpt>
      <trkpt lat="43.91404" lon="7.23145">
        <ele>1074</ele>
        <time>2018-05-13T09:26:27.000Z</time>
      </trkpt>
      <trkpt lat="43.91402" lon="7.23147">
        <ele>1074</ele>
        <time>2018-05-13T09:26:29.000Z</time>
      </trkpt>
      <trkpt lat="43.91401" lon="7.23147">
        <ele>1074</ele>
        <time>2018-05-13T09:26:31.000Z</time>
      </trkpt>
      <trkpt lat="43.91399" lon="7.23147">
        <ele>1074</ele>
        <time>2018-05-13T09:26:33.000Z</time>
      </trkpt>
      <trkpt lat="43.91397" lon="7.23147">
        <ele>1075</ele>
        <time>2018-05-13T09:26:37.000Z</time>
      </trkpt>
      <trkpt lat="43.91394" lon="7.23145">
        <ele>1075</ele>
        <time>2018-05-13T09:26:41.000Z</time>
      </trkpt>
      <trkpt lat="43.91391" lon="7.23143">
        <ele>1076</ele>
        <time>2018-05-13T09:26:46.000Z</time>
      </trkpt>
      <trkpt lat="43.9139" lon="7.23141">
        <ele>1076</ele>
        <time>2018-05-13T09:26:48.000Z</time>
      </trkpt>
      <trkpt lat="43.91389" lon="7.23137">
        <ele>1077</ele>
        <time>2018-05-13T09:26:52.000Z</time>
      </trkpt>
      <trkpt lat="43.91386" lon="7.23133">
        <ele>1078</ele>
        <time>2018-05-13T09:26:57.000Z</time>
      </trkpt>
      <trkpt lat="43.91384" lon="7.23132">
        <ele>1078</ele>
        <time>2018-05-13T09:26:59.000Z</time>
      </trkpt>
      <trkpt lat="43.91381" lon="7.23133">
        <ele>1078</ele>
        <time>2018-05-13T09:27:04.000Z</time>
      </trkpt>
      <trkpt lat="43.91381" lon="7.23133">
        <ele>1079</ele>
        <time>2018-05-13T09:27:05.000Z</time>
      </trkpt>
      <trkpt lat="43.91379" lon="7.23134">
        <ele>1079</ele>
        <time>2018-05-13T09:27:10.000Z</time>
      </trkpt>
      <trkpt lat="43.91379" lon="7.23136">
        <ele>1079</ele>
        <time>2018-05-13T09:27:12.000Z</time>
      </trkpt>
      <trkpt lat="43.91379" lon="7.23139">
        <ele>1079</ele>
        <time>2018-05-13T09:27:14.000Z</time>
      </trkpt>
      <trkpt lat="43.91378" lon="7.23141">
        <ele>1079</ele>
        <time>2018-05-13T09:27:16.000Z</time>
      </trkpt>
      <trkpt lat="43.91378" lon="7.23144">
        <ele>1079</ele>
        <time>2018-05-13T09:27:18.000Z</time>
      </trkpt>
      <trkpt lat="43.91378" lon="7.23148">
        <ele>1079</ele>
        <time>2018-05-13T09:27:21.000Z</time>
      </trkpt>
      <trkpt lat="43.91377" lon="7.23152">
        <ele>1079</ele>
        <time>2018-05-13T09:27:25.000Z</time>
      </trkpt>
      <trkpt lat="43.91376" lon="7.23153">
        <ele>1080</ele>
        <time>2018-05-13T09:27:26.000Z</time>
      </trkpt>
      <trkpt lat="43.91373" lon="7.23153">
        <ele>1080</ele>
        <time>2018-05-13T09:27:29.000Z</time>
      </trkpt>
      <trkpt lat="43.91373" lon="7.23151">
        <ele>1081</ele>
        <time>2018-05-13T09:27:31.000Z</time>
      </trkpt>
      <trkpt lat="43.91372" lon="7.23149">
        <ele>1081</ele>
        <time>2018-05-13T09:27:33.000Z</time>
      </trkpt>
      <trkpt lat="43.91368" lon="7.23142">
        <ele>1081</ele>
        <time>2018-05-13T09:27:39.000Z</time>
      </trkpt>
      <trkpt lat="43.91367" lon="7.2314">
        <ele>1082</ele>
        <time>2018-05-13T09:27:41.000Z</time>
      </trkpt>
      <trkpt lat="43.91364" lon="7.23138">
        <ele>1082</ele>
        <time>2018-05-13T09:27:46.000Z</time>
      </trkpt>
      <trkpt lat="43.91363" lon="7.23138">
        <ele>1083</ele>
        <time>2018-05-13T09:27:48.000Z</time>
      </trkpt>
      <trkpt lat="43.91361" lon="7.2314">
        <ele>1083</ele>
        <time>2018-05-13T09:27:52.000Z</time>
      </trkpt>
      <trkpt lat="43.91359" lon="7.23141">
        <ele>1084</ele>
        <time>2018-05-13T09:27:55.000Z</time>
      </trkpt>
      <trkpt lat="43.91359" lon="7.23142">
        <ele>1084</ele>
        <time>2018-05-13T09:27:56.000Z</time>
      </trkpt>
      <trkpt lat="43.91355" lon="7.23143">
        <ele>1085</ele>
        <time>2018-05-13T09:28:02.000Z</time>
      </trkpt>
      <trkpt lat="43.91354" lon="7.23143">
        <ele>1085</ele>
        <time>2018-05-13T09:28:03.000Z</time>
      </trkpt>
      <trkpt lat="43.91352" lon="7.23144">
        <ele>1085</ele>
        <time>2018-05-13T09:28:08.000Z</time>
      </trkpt>
      <trkpt lat="43.91349" lon="7.23145">
        <ele>1086</ele>
        <time>2018-05-13T09:28:13.000Z</time>
      </trkpt>
      <trkpt lat="43.91347" lon="7.23144">
        <ele>1086</ele>
        <time>2018-05-13T09:28:18.000Z</time>
      </trkpt>
      <trkpt lat="43.91346" lon="7.23143">
        <ele>1086</ele>
        <time>2018-05-13T09:28:20.000Z</time>
      </trkpt>
      <trkpt lat="43.91343" lon="7.23139">
        <ele>1086</ele>
        <time>2018-05-13T09:28:24.000Z</time>
      </trkpt>
      <trkpt lat="43.91341" lon="7.23137">
        <ele>1086</ele>
        <time>2018-05-13T09:28:26.000Z</time>
      </trkpt>
      <trkpt lat="43.91336" lon="7.23135">
        <ele>1087</ele>
        <time>2018-05-13T09:28:32.000Z</time>
      </trkpt>
      <trkpt lat="43.91336" lon="7.23138">
        <ele>1087</ele>
        <time>2018-05-13T09:28:35.000Z</time>
      </trkpt>
      <trkpt lat="43.91336" lon="7.2314">
        <ele>1087</ele>
        <time>2018-05-13T09:28:37.000Z</time>
      </trkpt>
      <trkpt lat="43.91336" lon="7.23145">
        <ele>1088</ele>
        <time>2018-05-13T09:28:41.000Z</time>
      </trkpt>
      <trkpt lat="43.91335" lon="7.23149">
        <ele>1089</ele>
        <time>2018-05-13T09:28:46.000Z</time>
      </trkpt>
      <trkpt lat="43.91331" lon="7.23147">
        <ele>1107</ele>
        <time>2018-05-13T09:28:52.000Z</time>
      </trkpt>
      <trkpt lat="43.9133" lon="7.23147">
        <ele>1108</ele>
        <time>2018-05-13T09:28:54.000Z</time>
      </trkpt>
      <trkpt lat="43.91327" lon="7.23148">
        <ele>1108</ele>
        <time>2018-05-13T09:28:59.000Z</time>
      </trkpt>
      <trkpt lat="43.91327" lon="7.23148">
        <ele>1108</ele>
        <time>2018-05-13T09:29:01.000Z</time>
      </trkpt>
      <trkpt lat="43.91325" lon="7.23148">
        <ele>1108</ele>
        <time>2018-05-13T09:29:03.000Z</time>
      </trkpt>
      <trkpt lat="43.91325" lon="7.23148">
        <ele>1108</ele>
        <time>2018-05-13T09:29:08.000Z</time>
      </trkpt>
      <trkpt lat="43.91322" lon="7.2315">
        <ele>1109</ele>
        <time>2018-05-13T09:29:15.000Z</time>
      </trkpt>
      <trkpt lat="43.91321" lon="7.2315">
        <ele>1108</ele>
        <time>2018-05-13T09:29:18.000Z</time>
      </trkpt>
      <trkpt lat="43.91319" lon="7.23153">
        <ele>1109</ele>
        <time>2018-05-13T09:29:22.000Z</time>
      </trkpt>
      <trkpt lat="43.91319" lon="7.23152">
        <ele>1109</ele>
        <time>2018-05-13T09:29:24.000Z</time>
      </trkpt>
      <trkpt lat="43.91317" lon="7.23152">
        <ele>1109</ele>
        <time>2018-05-13T09:29:29.000Z</time>
      </trkpt>
      <trkpt lat="43.91315" lon="7.23153">
        <ele>1110</ele>
        <time>2018-05-13T09:29:34.000Z</time>
      </trkpt>
      <trkpt lat="43.91314" lon="7.23154">
        <ele>1110</ele>
        <time>2018-05-13T09:29:36.000Z</time>
      </trkpt>
      <trkpt lat="43.91313" lon="7.23155">
        <ele>1110</ele>
        <time>2018-05-13T09:29:39.000Z</time>
      </trkpt>
      <trkpt lat="43.9131" lon="7.23157">
        <ele>1111</ele>
        <time>2018-05-13T09:29:44.000Z</time>
      </trkpt>
      <trkpt lat="43.9131" lon="7.23157">
        <ele>1112</ele>
        <time>2018-05-13T09:29:45.000Z</time>
      </trkpt>
      <trkpt lat="43.91307" lon="7.23157">
        <ele>1113</ele>
        <time>2018-05-13T09:29:50.000Z</time>
      </trkpt>
      <trkpt lat="43.91305" lon="7.23157">
        <ele>1113</ele>
        <time>2018-05-13T09:29:53.000Z</time>
      </trkpt>
      <trkpt lat="43.91304" lon="7.23157">
        <ele>1114</ele>
        <time>2018-05-13T09:29:55.000Z</time>
      </trkpt>
      <trkpt lat="43.91303" lon="7.23158">
        <ele>1114</ele>
        <time>2018-05-13T09:30:00.000Z</time>
      </trkpt>
      <trkpt lat="43.91302" lon="7.23157">
        <ele>1114</ele>
        <time>2018-05-13T09:30:01.000Z</time>
      </trkpt>
      <trkpt lat="43.913" lon="7.23157">
        <ele>1115</ele>
        <time>2018-05-13T09:30:05.000Z</time>
      </trkpt>
      <trkpt lat="43.91299" lon="7.23157">
        <ele>1115</ele>
        <time>2018-05-13T09:30:08.000Z</time>
      </trkpt>
      <trkpt lat="43.91298" lon="7.23156">
        <ele>1116</ele>
        <time>2018-05-13T09:30:10.000Z</time>
      </trkpt>
      <trkpt lat="43.91295" lon="7.23158">
        <ele>1117</ele>
        <time>2018-05-13T09:30:15.000Z</time>
      </trkpt>
      <trkpt lat="43.91291" lon="7.23154">
        <ele>1118</ele>
        <time>2018-05-13T09:30:22.000Z</time>
      </trkpt>
      <trkpt lat="43.91288" lon="7.23151">
        <ele>1120</ele>
        <time>2018-05-13T09:30:28.000Z</time>
      </trkpt>
      <trkpt lat="43.91288" lon="7.2315">
        <ele>1120</ele>
        <time>2018-05-13T09:30:29.000Z</time>
      </trkpt>
      <trkpt lat="43.91286" lon="7.23147">
        <ele>1120</ele>
        <time>2018-05-13T09:30:32.000Z</time>
      </trkpt>
      <trkpt lat="43.91283" lon="7.23144">
        <ele>1121</ele>
        <time>2018-05-13T09:30:36.000Z</time>
      </trkpt>
      <trkpt lat="43.91282" lon="7.23141">
        <ele>1121</ele>
        <time>2018-05-13T09:30:42.000Z</time>
      </trkpt>
      <trkpt lat="43.91281" lon="7.23138">
        <ele>1121</ele>
        <time>2018-05-13T09:30:44.000Z</time>
      </trkpt>
      <trkpt lat="43.9128" lon="7.23138">
        <ele>1121</ele>
        <time>2018-05-13T09:30:47.000Z</time>
      </trkpt>
      <trkpt lat="43.91279" lon="7.23139">
        <ele>1122</ele>
        <time>2018-05-13T09:30:49.000Z</time>
      </trkpt>
      <trkpt lat="43.91279" lon="7.2314">
        <ele>1122</ele>
        <time>2018-05-13T09:30:50.000Z</time>
      </trkpt>
      <trkpt lat="43.91278" lon="7.2314">
        <ele>1122</ele>
        <time>2018-05-13T09:30:52.000Z</time>
      </trkpt>
      <trkpt lat="43.91277" lon="7.23142">
        <ele>1123</ele>
        <time>2018-05-13T09:30:56.000Z</time>
      </trkpt>
      <trkpt lat="43.91276" lon="7.23142">
        <ele>1123</ele>
        <time>2018-05-13T09:30:57.000Z</time>
      </trkpt>
      <trkpt lat="43.91274" lon="7.23145">
        <ele>1123</ele>
        <time>2018-05-13T09:31:03.000Z</time>
      </trkpt>
      <trkpt lat="43.91274" lon="7.23146">
        <ele>1124</ele>
        <time>2018-05-13T09:31:04.000Z</time>
      </trkpt>
      <trkpt lat="43.91274" lon="7.23148">
        <ele>1124</ele>
        <time>2018-05-13T09:31:08.000Z</time>
      </trkpt>
      <trkpt lat="43.91273" lon="7.23149">
        <ele>1124</ele>
        <time>2018-05-13T09:31:09.000Z</time>
      </trkpt>
      <trkpt lat="43.91273" lon="7.23151">
        <ele>1124</ele>
        <time>2018-05-13T09:31:11.000Z</time>
      </trkpt>
      <trkpt lat="43.91273" lon="7.23154">
        <ele>1125</ele>
        <time>2018-05-13T09:31:15.000Z</time>
      </trkpt>
      <trkpt lat="43.91271" lon="7.23159">
        <ele>1126</ele>
        <time>2018-05-13T09:31:22.000Z</time>
      </trkpt>
      <trkpt lat="43.91268" lon="7.23161">
        <ele>1127</ele>
        <time>2018-05-13T09:31:27.000Z</time>
      </trkpt>
      <trkpt lat="43.91267" lon="7.23162">
        <ele>1128</ele>
        <time>2018-05-13T09:31:29.000Z</time>
      </trkpt>
      <trkpt lat="43.91266" lon="7.23163">
        <ele>1128</ele>
        <time>2018-05-13T09:31:31.000Z</time>
      </trkpt>
      <trkpt lat="43.91263" lon="7.23164">
        <ele>1130</ele>
        <time>2018-05-13T09:31:36.000Z</time>
      </trkpt>
      <trkpt lat="43.91262" lon="7.23163">
        <ele>1130</ele>
        <time>2018-05-13T09:31:37.000Z</time>
      </trkpt>
      <trkpt lat="43.91261" lon="7.23162">
        <ele>1131</ele>
        <time>2018-05-13T09:31:41.000Z</time>
      </trkpt>
      <trkpt lat="43.91258" lon="7.23163">
        <ele>1132</ele>
        <time>2018-05-13T09:31:47.000Z</time>
      </trkpt>
      <trkpt lat="43.91257" lon="7.23163">
        <ele>1133</ele>
        <time>2018-05-13T09:31:49.000Z</time>
      </trkpt>
      <trkpt lat="43.91256" lon="7.23164">
        <ele>1134</ele>
        <time>2018-05-13T09:31:51.000Z</time>
      </trkpt>
      <trkpt lat="43.91255" lon="7.23168">
        <ele>1133</ele>
        <time>2018-05-13T09:31:56.000Z</time>
      </trkpt>
      <trkpt lat="43.91252" lon="7.23169">
        <ele>1134</ele>
        <time>2018-05-13T09:32:01.000Z</time>
      </trkpt>
      <trkpt lat="43.91252" lon="7.23169">
        <ele>1134</ele>
        <time>2018-05-13T09:32:02.000Z</time>
      </trkpt>
      <trkpt lat="43.9125" lon="7.23172">
        <ele>1132</ele>
        <time>2018-05-13T09:32:07.000Z</time>
      </trkpt>
      <trkpt lat="43.91249" lon="7.23174">
        <ele>1139</ele>
        <time>2018-05-13T09:32:09.000Z</time>
      </trkpt>
      <trkpt lat="43.91248" lon="7.23174">
        <ele>1139</ele>
        <time>2018-05-13T09:32:12.000Z</time>
      </trkpt>
      <trkpt lat="43.91246" lon="7.23175">
        <ele>1139</ele>
        <time>2018-05-13T09:32:16.000Z</time>
      </trkpt>
      <trkpt lat="43.91246" lon="7.23175">
        <ele>1139</ele>
        <time>2018-05-13T09:32:18.000Z</time>
      </trkpt>
      <trkpt lat="43.91243" lon="7.23177">
        <ele>1140</ele>
        <time>2018-05-13T09:32:22.000Z</time>
      </trkpt>
      <trkpt lat="43.91243" lon="7.23177">
        <ele>1140</ele>
        <time>2018-05-13T09:32:23.000Z</time>
      </trkpt>
      <trkpt lat="43.91241" lon="7.23176">
        <ele>1140</ele>
        <time>2018-05-13T09:32:29.000Z</time>
      </trkpt>
      <trkpt lat="43.91239" lon="7.23177">
        <ele>1140</ele>
        <time>2018-05-13T09:32:35.000Z</time>
      </trkpt>
      <trkpt lat="43.91238" lon="7.23177">
        <ele>1140</ele>
        <time>2018-05-13T09:32:37.000Z</time>
      </trkpt>
      <trkpt lat="43.91236" lon="7.23178">
        <ele>1141</ele>
        <time>2018-05-13T09:32:40.000Z</time>
      </trkpt>
      <trkpt lat="43.91235" lon="7.23178">
        <ele>1141</ele>
        <time>2018-05-13T09:32:44.000Z</time>
      </trkpt>
      <trkpt lat="43.91233" lon="7.23181">
        <ele>1141</ele>
        <time>2018-05-13T09:32:47.000Z</time>
      </trkpt>
      <trkpt lat="43.91233" lon="7.23182">
        <ele>1141</ele>
        <time>2018-05-13T09:32:49.000Z</time>
      </trkpt>
      <trkpt lat="43.91232" lon="7.23184">
        <ele>1141</ele>
        <time>2018-05-13T09:32:50.000Z</time>
      </trkpt>
      <trkpt lat="43.91229" lon="7.23193">
        <ele>1141</ele>
        <time>2018-05-13T09:32:57.000Z</time>
      </trkpt>
      <trkpt lat="43.91227" lon="7.23195">
        <ele>1141</ele>
        <time>2018-05-13T09:32:59.000Z</time>
      </trkpt>
      <trkpt lat="43.91226" lon="7.23197">
        <ele>1141</ele>
        <time>2018-05-13T09:33:01.000Z</time>
      </trkpt>
      <trkpt lat="43.91224" lon="7.232">
        <ele>1141</ele>
        <time>2018-05-13T09:33:03.000Z</time>
      </trkpt>
      <trkpt lat="43.91218" lon="7.23204">
        <ele>1142</ele>
        <time>2018-05-13T09:33:10.000Z</time>
      </trkpt>
      <trkpt lat="43.91217" lon="7.23204">
        <ele>1142</ele>
        <time>2018-05-13T09:33:11.000Z</time>
      </trkpt>
      <trkpt lat="43.91212" lon="7.23207">
        <ele>1143</ele>
        <time>2018-05-13T09:33:16.000Z</time>
      </trkpt>
      <trkpt lat="43.91211" lon="7.23208">
        <ele>1143</ele>
        <time>2018-05-13T09:33:18.000Z</time>
      </trkpt>
      <trkpt lat="43.91207" lon="7.23209">
        <ele>1143</ele>
        <time>2018-05-13T09:33:23.000Z</time>
      </trkpt>
      <trkpt lat="43.91205" lon="7.2321">
        <ele>1144</ele>
        <time>2018-05-13T09:33:26.000Z</time>
      </trkpt>
      <trkpt lat="43.91204" lon="7.23211">
        <ele>1144</ele>
        <time>2018-05-13T09:33:28.000Z</time>
      </trkpt>
      <trkpt lat="43.91201" lon="7.23212">
        <ele>1144</ele>
        <time>2018-05-13T09:33:33.000Z</time>
      </trkpt>
      <trkpt lat="43.912" lon="7.23213">
        <ele>1144</ele>
        <time>2018-05-13T09:33:34.000Z</time>
      </trkpt>
      <trkpt lat="43.91197" lon="7.23215">
        <ele>1145</ele>
        <time>2018-05-13T09:33:40.000Z</time>
      </trkpt>
      <trkpt lat="43.91195" lon="7.23216">
        <ele>1145</ele>
        <time>2018-05-13T09:33:43.000Z</time>
      </trkpt>
      <trkpt lat="43.91193" lon="7.23218">
        <ele>1145</ele>
        <time>2018-05-13T09:33:46.000Z</time>
      </trkpt>
      <trkpt lat="43.91189" lon="7.23219">
        <ele>1146</ele>
        <time>2018-05-13T09:33:52.000Z</time>
      </trkpt>
      <trkpt lat="43.91188" lon="7.23219">
        <ele>1146</ele>
        <time>2018-05-13T09:33:53.000Z</time>
      </trkpt>
      <trkpt lat="43.91184" lon="7.23219">
        <ele>1146</ele>
        <time>2018-05-13T09:34:00.000Z</time>
      </trkpt>
      <trkpt lat="43.91182" lon="7.23218">
        <ele>1147</ele>
        <time>2018-05-13T09:34:03.000Z</time>
      </trkpt>
      <trkpt lat="43.9118" lon="7.23217">
        <ele>1147</ele>
        <time>2018-05-13T09:34:05.000Z</time>
      </trkpt>
      <trkpt lat="43.91178" lon="7.23216">
        <ele>1147</ele>
        <time>2018-05-13T09:34:08.000Z</time>
      </trkpt>
      <trkpt lat="43.91175" lon="7.23216">
        <ele>1147</ele>
        <time>2018-05-13T09:34:10.000Z</time>
      </trkpt>
      <trkpt lat="43.91168" lon="7.23218">
        <ele>1148</ele>
        <time>2018-05-13T09:34:14.000Z</time>
      </trkpt>
      <trkpt lat="43.91159" lon="7.23218">
        <ele>1152</ele>
        <time>2018-05-13T09:34:18.000Z</time>
      </trkpt>
      <trkpt lat="43.91157" lon="7.23217">
        <ele>1152</ele>
        <time>2018-05-13T09:34:19.000Z</time>
      </trkpt>
      <trkpt lat="43.91148" lon="7.23213">
        <ele>1152</ele>
        <time>2018-05-13T09:34:24.000Z</time>
      </trkpt>
      <trkpt lat="43.91141" lon="7.23205">
        <ele>1153</ele>
        <time>2018-05-13T09:34:28.000Z</time>
      </trkpt>
      <trkpt lat="43.91132" lon="7.23194">
        <ele>1153</ele>
        <time>2018-05-13T09:34:34.000Z</time>
      </trkpt>
      <trkpt lat="43.91129" lon="7.2319">
        <ele>1154</ele>
        <time>2018-05-13T09:34:36.000Z</time>
      </trkpt>
      <trkpt lat="43.91122" lon="7.23177">
        <ele>1154</ele>
        <time>2018-05-13T09:34:42.000Z</time>
      </trkpt>
      <trkpt lat="43.9112" lon="7.23172">
        <ele>1154</ele>
        <time>2018-05-13T09:34:44.000Z</time>
      </trkpt>
      <trkpt lat="43.91117" lon="7.23154">
        <ele>1162</ele>
        <time>2018-05-13T09:34:51.000Z</time>
      </trkpt>
      <trkpt lat="43.91117" lon="7.23151">
        <ele>1162</ele>
        <time>2018-05-13T09:34:52.000Z</time>
      </trkpt>
      <trkpt lat="43.91116" lon="7.23135">
        <ele>1163</ele>
        <time>2018-05-13T09:34:57.000Z</time>
      </trkpt>
      <trkpt lat="43.91114" lon="7.23125">
        <ele>1163</ele>
        <time>2018-05-13T09:35:00.000Z</time>
      </trkpt>
      <trkpt lat="43.91112" lon="7.23106">
        <ele>1164</ele>
        <time>2018-05-13T09:35:05.000Z</time>
      </trkpt>
      <trkpt lat="43.9111" lon="7.23092">
        <ele>1165</ele>
        <time>2018-05-13T09:35:09.000Z</time>
      </trkpt>
      <trkpt lat="43.91108" lon="7.23085">
        <ele>1165</ele>
        <time>2018-05-13T09:35:11.000Z</time>
      </trkpt>
      <trkpt lat="43.91101" lon="7.23063">
        <ele>1166</ele>
        <time>2018-05-13T09:35:17.000Z</time>
      </trkpt>
      <trkpt lat="43.91099" lon="7.2306">
        <ele>1166</ele>
        <time>2018-05-13T09:35:18.000Z</time>
      </trkpt>
      <trkpt lat="43.91089" lon="7.23035">
        <ele>1167</ele>
        <time>2018-05-13T09:35:25.000Z</time>
      </trkpt>
      <trkpt lat="43.91086" lon="7.23027">
        <ele>1167</ele>
        <time>2018-05-13T09:35:27.000Z</time>
      </trkpt>
      <trkpt lat="43.91072" lon="7.22994">
        <ele>1167</ele>
        <time>2018-05-13T09:35:36.000Z</time>
      </trkpt>
      <trkpt lat="43.91071" lon="7.2299">
        <ele>1166</ele>
        <time>2018-05-13T09:35:37.000Z</time>
      </trkpt>
      <trkpt lat="43.91063" lon="7.22967">
        <ele>1165</ele>
        <time>2018-05-13T09:35:43.000Z</time>
      </trkpt>
      <trkpt lat="43.91059" lon="7.22955">
        <ele>1165</ele>
        <time>2018-05-13T09:35:46.000Z</time>
      </trkpt>
      <trkpt lat="43.9105" lon="7.22939">
        <ele>1165</ele>
        <time>2018-05-13T09:35:50.000Z</time>
      </trkpt>
      <trkpt lat="43.91026" lon="7.22908">
        <ele>1168</ele>
        <time>2018-05-13T09:35:57.000Z</time>
      </trkpt>
      <trkpt lat="43.91004" lon="7.22876">
        <ele>1168</ele>
        <time>2018-05-13T09:36:03.000Z</time>
      </trkpt>
      <trkpt lat="43.90993" lon="7.22862">
        <ele>1154</ele>
        <time>2018-05-13T09:36:06.000Z</time>
      </trkpt>
      <trkpt lat="43.90985" lon="7.22855">
        <ele>1153</ele>
        <time>2018-05-13T09:36:08.000Z</time>
      </trkpt>
      <trkpt lat="43.90978" lon="7.22849">
        <ele>1153</ele>
        <time>2018-05-13T09:36:10.000Z</time>
      </trkpt>
      <trkpt lat="43.90977" lon="7.22845">
        <ele>1152</ele>
        <time>2018-05-13T09:36:11.000Z</time>
      </trkpt>
      <trkpt lat="43.90974" lon="7.22837">
        <ele>1152</ele>
        <time>2018-05-13T09:36:14.000Z</time>
      </trkpt>
      <trkpt lat="43.90973" lon="7.22833">
        <ele>1157</ele>
        <time>2018-05-13T09:36:16.000Z</time>
      </trkpt>
      <trkpt lat="43.90971" lon="7.22821">
        <ele>1156</ele>
        <time>2018-05-13T09:36:20.000Z</time>
      </trkpt>
      <trkpt lat="43.9097" lon="7.22815">
        <ele>1155</ele>
        <time>2018-05-13T09:36:22.000Z</time>
      </trkpt>
      <trkpt lat="43.90967" lon="7.22804">
        <ele>1154</ele>
        <time>2018-05-13T09:36:26.000Z</time>
      </trkpt>
      <trkpt lat="43.90967" lon="7.22805">
        <ele>1154</ele>
        <time>2018-05-13T09:36:27.000Z</time>
      </trkpt>
      <trkpt lat="43.90967" lon="7.22805">
        <ele>1154</ele>
        <time>2018-05-13T09:36:28.000Z</time>
      </trkpt>
      <trkpt lat="43.90965" lon="7.22804">
        <ele>1154</ele>
        <time>2018-05-13T09:36:31.000Z</time>
      </trkpt>
      <trkpt lat="43.90964" lon="7.22803">
        <ele>1154</ele>
        <time>2018-05-13T09:36:32.000Z</time>
      </trkpt>
      <trkpt lat="43.90963" lon="7.228">
        <ele>1154</ele>
        <time>2018-05-13T09:36:37.000Z</time>
      </trkpt>
      <trkpt lat="43.90962" lon="7.22799">
        <ele>1153</ele>
        <time>2018-05-13T09:36:38.000Z</time>
      </trkpt>
      <trkpt lat="43.90961" lon="7.22796">
        <ele>1153</ele>
        <time>2018-05-13T09:36:41.000Z</time>
      </trkpt>
      <trkpt lat="43.90961" lon="7.22794">
        <ele>1153</ele>
        <time>2018-05-13T09:36:45.000Z</time>
      </trkpt>
      <trkpt lat="43.9096" lon="7.22791">
        <ele>1153</ele>
        <time>2018-05-13T09:36:50.000Z</time>
      </trkpt>
      <trkpt lat="43.90959" lon="7.22789">
        <ele>1153</ele>
        <time>2018-05-13T09:36:53.000Z</time>
      </trkpt>
      <trkpt lat="43.90958" lon="7.22788">
        <ele>1153</ele>
        <time>2018-05-13T09:36:56.000Z</time>
      </trkpt>
      <trkpt lat="43.90956" lon="7.22787">
        <ele>1152</ele>
        <time>2018-05-13T09:37:01.000Z</time>
      </trkpt>
      <trkpt lat="43.90955" lon="7.22787">
        <ele>1152</ele>
        <time>2018-05-13T09:37:02.000Z</time>
      </trkpt>
      <trkpt lat="43.90954" lon="7.22787">
        <ele>1152</ele>
        <time>2018-05-13T09:37:03.000Z</time>
      </trkpt>
      <trkpt lat="43.90954" lon="7.22784">
        <ele>1152</ele>
        <time>2018-05-13T09:37:06.000Z</time>
      </trkpt>
      <trkpt lat="43.90954" lon="7.22782">
        <ele>1152</ele>
        <time>2018-05-13T09:37:07.000Z</time>
      </trkpt>
      <trkpt lat="43.90953" lon="7.22774">
        <ele>1152</ele>
        <time>2018-05-13T09:37:13.000Z</time>
      </trkpt>
      <trkpt lat="43.90952" lon="7.22765">
        <ele>1152</ele>
        <time>2018-05-13T09:37:21.000Z</time>
      </trkpt>
      <trkpt lat="43.90951" lon="7.22762">
        <ele>1152</ele>
        <time>2018-05-13T09:37:23.000Z</time>
      </trkpt>
      <trkpt lat="43.9095" lon="7.22758">
        <ele>1152</ele>
        <time>2018-05-13T09:37:27.000Z</time>
      </trkpt>
      <trkpt lat="43.9095" lon="7.22756">
        <ele>1152</ele>
        <time>2018-05-13T09:37:28.000Z</time>
      </trkpt>
      <trkpt lat="43.9095" lon="7.22752">
        <ele>1152</ele>
        <time>2018-05-13T09:37:32.000Z</time>
      </trkpt>
      <trkpt lat="43.90948" lon="7.22746">
        <ele>1156</ele>
        <time>2018-05-13T09:37:40.000Z</time>
      </trkpt>
      <trkpt lat="43.90947" lon="7.22743">
        <ele>1156</ele>
        <time>2018-05-13T09:37:46.000Z</time>
      </trkpt>
      <trkpt lat="43.90947" lon="7.22743">
        <ele>1156</ele>
        <time>2018-05-13T09:37:48.000Z</time>
      </trkpt>
      <trkpt lat="43.90945" lon="7.22739">
        <ele>1156</ele>
        <time>2018-05-13T09:37:53.000Z</time>
      </trkpt>
      <trkpt lat="43.90943" lon="7.22736">
        <ele>1156</ele>
        <time>2018-05-13T09:37:57.000Z</time>
      </trkpt>
      <trkpt lat="43.90942" lon="7.22733">
        <ele>1156</ele>
        <time>2018-05-13T09:37:59.000Z</time>
      </trkpt>
      <trkpt lat="43.90941" lon="7.2273">
        <ele>1156</ele>
        <time>2018-05-13T09:38:01.000Z</time>
      </trkpt>
      <trkpt lat="43.90941" lon="7.22729">
        <ele>1156</ele>
        <time>2018-05-13T09:38:05.000Z</time>
      </trkpt>
      <trkpt lat="43.90941" lon="7.22729">
        <ele>1156</ele>
        <time>2018-05-13T09:38:06.000Z</time>
      </trkpt>
      <trkpt lat="43.90939" lon="7.22724">
        <ele>1156</ele>
        <time>2018-05-13T09:38:10.000Z</time>
      </trkpt>
      <trkpt lat="43.90937" lon="7.22719">
        <ele>1157</ele>
        <time>2018-05-13T09:38:14.000Z</time>
      </trkpt>
      <trkpt lat="43.90935" lon="7.22716">
        <ele>1157</ele>
        <time>2018-05-13T09:38:19.000Z</time>
      </trkpt>
      <trkpt lat="43.90933" lon="7.22713">
        <ele>1157</ele>
        <time>2018-05-13T09:38:21.000Z</time>
      </trkpt>
      <trkpt lat="43.90933" lon="7.22713">
        <ele>1157</ele>
        <time>2018-05-13T09:38:23.000Z</time>
      </trkpt>
      <trkpt lat="43.90932" lon="7.22711">
        <ele>1157</ele>
        <time>2018-05-13T09:38:24.000Z</time>
      </trkpt>
      <trkpt lat="43.9093" lon="7.22708">
        <ele>1158</ele>
        <time>2018-05-13T09:38:28.000Z</time>
      </trkpt>
      <trkpt lat="43.9093" lon="7.22706">
        <ele>1158</ele>
        <time>2018-05-13T09:38:30.000Z</time>
      </trkpt>
      <trkpt lat="43.90929" lon="7.22701">
        <ele>1158</ele>
        <time>2018-05-13T09:38:37.000Z</time>
      </trkpt>
      <trkpt lat="43.90925" lon="7.22699">
        <ele>1158</ele>
        <time>2018-05-13T09:38:44.000Z</time>
      </trkpt>
      <trkpt lat="43.90924" lon="7.22698">
        <ele>1158</ele>
        <time>2018-05-13T09:38:45.000Z</time>
      </trkpt>
      <trkpt lat="43.90924" lon="7.22696">
        <ele>1158</ele>
        <time>2018-05-13T09:38:47.000Z</time>
      </trkpt>
      <trkpt lat="43.90923" lon="7.22695">
        <ele>1158</ele>
        <time>2018-05-13T09:38:48.000Z</time>
      </trkpt>
      <trkpt lat="43.90919" lon="7.22688">
        <ele>1159</ele>
        <time>2018-05-13T09:38:52.000Z</time>
      </trkpt>
      <trkpt lat="43.90918" lon="7.22687">
        <ele>1159</ele>
        <time>2018-05-13T09:38:53.000Z</time>
      </trkpt>
      <trkpt lat="43.90913" lon="7.22682">
        <ele>1145</ele>
        <time>2018-05-13T09:38:56.000Z</time>
      </trkpt>
      <trkpt lat="43.9091" lon="7.22678">
        <ele>1147</ele>
        <time>2018-05-13T09:38:58.000Z</time>
      </trkpt>
      <trkpt lat="43.90908" lon="7.22675">
        <ele>1148</ele>
        <time>2018-05-13T09:38:59.000Z</time>
      </trkpt>
      <trkpt lat="43.90901" lon="7.22671">
        <ele>1144</ele>
        <time>2018-05-13T09:39:02.000Z</time>
      </trkpt>
      <trkpt lat="43.90896" lon="7.22667">
        <ele>1142</ele>
        <time>2018-05-13T09:39:04.000Z</time>
      </trkpt>
      <trkpt lat="43.90892" lon="7.22664">
        <ele>1149</ele>
        <time>2018-05-13T09:39:06.000Z</time>
      </trkpt>
      <trkpt lat="43.90887" lon="7.2266">
        <ele>1147</ele>
        <time>2018-05-13T09:39:08.000Z</time>
      </trkpt>
      <trkpt lat="43.90885" lon="7.22659">
        <ele>1146</ele>
        <time>2018-05-13T09:39:09.000Z</time>
      </trkpt>
      <trkpt lat="43.90883" lon="7.22657">
        <ele>1146</ele>
        <time>2018-05-13T09:39:10.000Z</time>
      </trkpt>
      <trkpt lat="43.90881" lon="7.22656">
        <ele>1145</ele>
        <time>2018-05-13T09:39:11.000Z</time>
      </trkpt>
      <trkpt lat="43.90879" lon="7.22658">
        <ele>1144</ele>
        <time>2018-05-13T09:39:12.000Z</time>
      </trkpt>
      <trkpt lat="43.90873" lon="7.22658">
        <ele>1142</ele>
        <time>2018-05-13T09:39:14.000Z</time>
      </trkpt>
      <trkpt lat="43.90871" lon="7.22657">
        <ele>1142</ele>
        <time>2018-05-13T09:39:15.000Z</time>
      </trkpt>
      <trkpt lat="43.90866" lon="7.22652">
        <ele>1140</ele>
        <time>2018-05-13T09:39:17.000Z</time>
      </trkpt>
      <trkpt lat="43.90862" lon="7.22648">
        <ele>1139</ele>
        <time>2018-05-13T09:39:19.000Z</time>
      </trkpt>
      <trkpt lat="43.90856" lon="7.22644">
        <ele>1138</ele>
        <time>2018-05-13T09:39:21.000Z</time>
      </trkpt>
      <trkpt lat="43.90851" lon="7.2264">
        <ele>1138</ele>
        <time>2018-05-13T09:39:23.000Z</time>
      </trkpt>
      <trkpt lat="43.90846" lon="7.22639">
        <ele>1137</ele>
        <time>2018-05-13T09:39:25.000Z</time>
      </trkpt>
      <trkpt lat="43.90841" lon="7.22636">
        <ele>1137</ele>
        <time>2018-05-13T09:39:27.000Z</time>
      </trkpt>
      <trkpt lat="43.90837" lon="7.22635">
        <ele>1137</ele>
        <time>2018-05-13T09:39:29.000Z</time>
      </trkpt>
      <trkpt lat="43.90832" lon="7.22631">
        <ele>1112</ele>
        <time>2018-05-13T09:39:31.000Z</time>
      </trkpt>
      <trkpt lat="43.90829" lon="7.22629">
        <ele>1112</ele>
        <time>2018-05-13T09:39:32.000Z</time>
      </trkpt>
      <trkpt lat="43.90825" lon="7.22624">
        <ele>1112</ele>
        <time>2018-05-13T09:39:33.000Z</time>
      </trkpt>
      <trkpt lat="43.9082" lon="7.22621">
        <ele>1112</ele>
        <time>2018-05-13T09:39:34.000Z</time>
      </trkpt>
      <trkpt lat="43.90816" lon="7.22617">
        <ele>1112</ele>
        <time>2018-05-13T09:39:35.000Z</time>
      </trkpt>
      <trkpt lat="43.90812" lon="7.22612">
        <ele>1112</ele>
        <time>2018-05-13T09:39:36.000Z</time>
      </trkpt>
      <trkpt lat="43.90808" lon="7.22606">
        <ele>1113</ele>
        <time>2018-05-13T09:39:37.000Z</time>
      </trkpt>
      <trkpt lat="43.90805" lon="7.22601">
        <ele>1112</ele>
        <time>2018-05-13T09:39:38.000Z</time>
      </trkpt>
      <trkpt lat="43.90802" lon="7.22597">
        <ele>1112</ele>
        <time>2018-05-13T09:39:39.000Z</time>
      </trkpt>
      <trkpt lat="43.90799" lon="7.22593">
        <ele>1111</ele>
        <time>2018-05-13T09:39:40.000Z</time>
      </trkpt>
      <trkpt lat="43.90793" lon="7.22585">
        <ele>1109</ele>
        <time>2018-05-13T09:39:42.000Z</time>
      </trkpt>
      <trkpt lat="43.90786" lon="7.22579">
        <ele>1121</ele>
        <time>2018-05-13T09:39:44.000Z</time>
      </trkpt>
      <trkpt lat="43.90782" lon="7.22575">
        <ele>1120</ele>
        <time>2018-05-13T09:39:45.000Z</time>
      </trkpt>
      <trkpt lat="43.90778" lon="7.2257">
        <ele>1118</ele>
        <time>2018-05-13T09:39:46.000Z</time>
      </trkpt>
      <trkpt lat="43.90771" lon="7.22564">
        <ele>1117</ele>
        <time>2018-05-13T09:39:48.000Z</time>
      </trkpt>
      <trkpt lat="43.90766" lon="7.22559">
        <ele>1117</ele>
        <time>2018-05-13T09:39:50.000Z</time>
      </trkpt>
      <trkpt lat="43.90766" lon="7.22559">
        <ele>1117</ele>
        <time>2018-05-13T09:39:52.000Z</time>
      </trkpt>
      <trkpt lat="43.90765" lon="7.22559">
        <ele>1117</ele>
        <time>2018-05-13T09:39:54.000Z</time>
      </trkpt>
      <trkpt lat="43.90763" lon="7.22554">
        <ele>1118</ele>
        <time>2018-05-13T09:39:58.000Z</time>
      </trkpt>
      <trkpt lat="43.90762" lon="7.22553">
        <ele>1118</ele>
        <time>2018-05-13T09:39:59.000Z</time>
      </trkpt>
      <trkpt lat="43.90759" lon="7.22549">
        <ele>1118</ele>
        <time>2018-05-13T09:40:04.000Z</time>
      </trkpt>
      <trkpt lat="43.90757" lon="7.22548">
        <ele>1118</ele>
        <time>2018-05-13T09:40:05.000Z</time>
      </trkpt>
      <trkpt lat="43.90754" lon="7.22544">
        <ele>1119</ele>
        <time>2018-05-13T09:40:08.000Z</time>
      </trkpt>
      <trkpt lat="43.90752" lon="7.22543">
        <ele>1119</ele>
        <time>2018-05-13T09:40:11.000Z</time>
      </trkpt>
      <trkpt lat="43.90751" lon="7.22542">
        <ele>1119</ele>
        <time>2018-05-13T09:40:12.000Z</time>
      </trkpt>
      <trkpt lat="43.90749" lon="7.2254">
        <ele>1094</ele>
        <time>2018-05-13T09:40:18.000Z</time>
      </trkpt>
      <trkpt lat="43.90748" lon="7.2254">
        <ele>1094</ele>
        <time>2018-05-13T09:40:20.000Z</time>
      </trkpt>
      <trkpt lat="43.90746" lon="7.2254">
        <ele>1094</ele>
        <time>2018-05-13T09:40:25.000Z</time>
      </trkpt>
      <trkpt lat="43.90745" lon="7.22539">
        <ele>1094</ele>
        <time>2018-05-13T09:40:27.000Z</time>
      </trkpt>
      <trkpt lat="43.90743" lon="7.22537">
        <ele>1095</ele>
        <time>2018-05-13T09:40:33.000Z</time>
      </trkpt>
      <trkpt lat="43.90742" lon="7.22536">
        <ele>1094</ele>
        <time>2018-05-13T09:40:35.000Z</time>
      </trkpt>
      <trkpt lat="43.9074" lon="7.22534">
        <ele>1095</ele>
        <time>2018-05-13T09:40:38.000Z</time>
      </trkpt>
      <trkpt lat="43.90738" lon="7.22533">
        <ele>1095</ele>
        <time>2018-05-13T09:40:40.000Z</time>
      </trkpt>
      <trkpt lat="43.90737" lon="7.22532">
        <ele>1095</ele>
        <time>2018-05-13T09:40:44.000Z</time>
      </trkpt>
      <trkpt lat="43.90736" lon="7.22531">
        <ele>1095</ele>
        <time>2018-05-13T09:40:45.000Z</time>
      </trkpt>
      <trkpt lat="43.90727" lon="7.22524">
        <ele>1094</ele>
        <time>2018-05-13T09:40:48.000Z</time>
      </trkpt>
      <trkpt lat="43.90717" lon="7.22517">
        <ele>1092</ele>
        <time>2018-05-13T09:40:51.000Z</time>
      </trkpt>
      <trkpt lat="43.90712" lon="7.2251">
        <ele>1091</ele>
        <time>2018-05-13T09:40:53.000Z</time>
      </trkpt>
      <trkpt lat="43.90708" lon="7.22507">
        <ele>1090</ele>
        <time>2018-05-13T09:40:55.000Z</time>
      </trkpt>
      <trkpt lat="43.90704" lon="7.22507">
        <ele>1089</ele>
        <time>2018-05-13T09:40:57.000Z</time>
      </trkpt>
      <trkpt lat="43.90701" lon="7.22506">
        <ele>1088</ele>
        <time>2018-05-13T09:40:59.000Z</time>
      </trkpt>
      <trkpt lat="43.90697" lon="7.22503">
        <ele>1086</ele>
        <time>2018-05-13T09:41:01.000Z</time>
      </trkpt>
      <trkpt lat="43.90698" lon="7.22504">
        <ele>1087</ele>
        <time>2018-05-13T09:41:03.000Z</time>
      </trkpt>
      <trkpt lat="43.90698" lon="7.22504">
        <ele>1087</ele>
        <time>2018-05-13T09:41:04.000Z</time>
      </trkpt>
      <trkpt lat="43.90698" lon="7.22504">
        <ele>1087</ele>
        <time>2018-05-13T09:41:06.000Z</time>
      </trkpt>
      <trkpt lat="43.90698" lon="7.22503">
        <ele>1087</ele>
        <time>2018-05-13T09:41:10.000Z</time>
      </trkpt>
      <trkpt lat="43.90699" lon="7.22503">
        <ele>1087</ele>
        <time>2018-05-13T09:41:17.000Z</time>
      </trkpt>
      <trkpt lat="43.90699" lon="7.22503">
        <ele>1087</ele>
        <time>2018-05-13T09:41:23.000Z</time>
      </trkpt>
      <trkpt lat="43.90696" lon="7.22501">
        <ele>1086</ele>
        <time>2018-05-13T09:41:31.000Z</time>
      </trkpt>
      <trkpt lat="43.90687" lon="7.22495">
        <ele>1091</ele>
        <time>2018-05-13T09:41:35.000Z</time>
      </trkpt>
      <trkpt lat="43.90684" lon="7.22489">
        <ele>1091</ele>
        <time>2018-05-13T09:41:37.000Z</time>
      </trkpt>
      <trkpt lat="43.90683" lon="7.22488">
        <ele>1091</ele>
        <time>2018-05-13T09:41:39.000Z</time>
      </trkpt>
      <trkpt lat="43.90682" lon="7.22487">
        <ele>1090</ele>
        <time>2018-05-13T09:41:41.000Z</time>
      </trkpt>
      <trkpt lat="43.90677" lon="7.22483">
        <ele>1090</ele>
        <time>2018-05-13T09:41:44.000Z</time>
      </trkpt>
      <trkpt lat="43.90676" lon="7.2248">
        <ele>1090</ele>
        <time>2018-05-13T09:41:45.000Z</time>
      </trkpt>
      <trkpt lat="43.90673" lon="7.22474">
        <ele>1092</ele>
        <time>2018-05-13T09:41:47.000Z</time>
      </trkpt>
      <trkpt lat="43.9067" lon="7.22473">
        <ele>1091</ele>
        <time>2018-05-13T09:41:48.000Z</time>
      </trkpt>
      <trkpt lat="43.90667" lon="7.22471">
        <ele>1091</ele>
        <time>2018-05-13T09:41:49.000Z</time>
      </trkpt>
      <trkpt lat="43.90666" lon="7.22468">
        <ele>1067</ele>
        <time>2018-05-13T09:41:50.000Z</time>
      </trkpt>
      <trkpt lat="43.90666" lon="7.22465">
        <ele>1067</ele>
        <time>2018-05-13T09:41:51.000Z</time>
      </trkpt>
      <trkpt lat="43.90665" lon="7.22464">
        <ele>1067</ele>
        <time>2018-05-13T09:41:52.000Z</time>
      </trkpt>
      <trkpt lat="43.90664" lon="7.22463">
        <ele>1067</ele>
        <time>2018-05-13T09:41:53.000Z</time>
      </trkpt>
      <trkpt lat="43.9066" lon="7.22459">
        <ele>1066</ele>
        <time>2018-05-13T09:41:56.000Z</time>
      </trkpt>
      <trkpt lat="43.90656" lon="7.22452">
        <ele>1066</ele>
        <time>2018-05-13T09:41:58.000Z</time>
      </trkpt>
      <trkpt lat="43.90654" lon="7.22447">
        <ele>1067</ele>
        <time>2018-05-13T09:42:00.000Z</time>
      </trkpt>
      <trkpt lat="43.90653" lon="7.22447">
        <ele>1067</ele>
        <time>2018-05-13T09:42:01.000Z</time>
      </trkpt>
      <trkpt lat="43.90652" lon="7.22448">
        <ele>1066</ele>
        <time>2018-05-13T09:42:02.000Z</time>
      </trkpt>
      <trkpt lat="43.90652" lon="7.22448">
        <ele>1066</ele>
        <time>2018-05-13T09:42:03.000Z</time>
      </trkpt>
      <trkpt lat="43.9065" lon="7.2245">
        <ele>1066</ele>
        <time>2018-05-13T09:42:04.000Z</time>
      </trkpt>
      <trkpt lat="43.90647" lon="7.22452">
        <ele>1065</ele>
        <time>2018-05-13T09:42:06.000Z</time>
      </trkpt>
      <trkpt lat="43.90646" lon="7.22452">
        <ele>1064</ele>
        <time>2018-05-13T09:42:07.000Z</time>
      </trkpt>
      <trkpt lat="43.90644" lon="7.22454">
        <ele>1064</ele>
        <time>2018-05-13T09:42:09.000Z</time>
      </trkpt>
      <trkpt lat="43.90641" lon="7.22454">
        <ele>1063</ele>
        <time>2018-05-13T09:42:11.000Z</time>
      </trkpt>
      <trkpt lat="43.9064" lon="7.22452">
        <ele>1063</ele>
        <time>2018-05-13T09:42:12.000Z</time>
      </trkpt>
      <trkpt lat="43.90638" lon="7.22451">
        <ele>1063</ele>
        <time>2018-05-13T09:42:13.000Z</time>
      </trkpt>
      <trkpt lat="43.90635" lon="7.22453">
        <ele>1062</ele>
        <time>2018-05-13T09:42:15.000Z</time>
      </trkpt>
      <trkpt lat="43.90633" lon="7.22456">
        <ele>1061</ele>
        <time>2018-05-13T09:42:16.000Z</time>
      </trkpt>
      <trkpt lat="43.9063" lon="7.22462">
        <ele>1060</ele>
        <time>2018-05-13T09:42:18.000Z</time>
      </trkpt>
      <trkpt lat="43.90628" lon="7.22463">
        <ele>1060</ele>
        <time>2018-05-13T09:42:19.000Z</time>
      </trkpt>
      <trkpt lat="43.90628" lon="7.22461">
        <ele>1060</ele>
        <time>2018-05-13T09:42:20.000Z</time>
      </trkpt>
      <trkpt lat="43.90627" lon="7.22457">
        <ele>1060</ele>
        <time>2018-05-13T09:42:22.000Z</time>
      </trkpt>
      <trkpt lat="43.90625" lon="7.22453">
        <ele>1059</ele>
        <time>2018-05-13T09:42:24.000Z</time>
      </trkpt>
      <trkpt lat="43.90619" lon="7.22448">
        <ele>1058</ele>
        <time>2018-05-13T09:42:27.000Z</time>
      </trkpt>
      <trkpt lat="43.90614" lon="7.22447">
        <ele>1057</ele>
        <time>2018-05-13T09:42:29.000Z</time>
      </trkpt>
      <trkpt lat="43.90608" lon="7.22444">
        <ele>1055</ele>
        <time>2018-05-13T09:42:31.000Z</time>
      </trkpt>
      <trkpt lat="43.90606" lon="7.22441">
        <ele>1055</ele>
        <time>2018-05-13T09:42:32.000Z</time>
      </trkpt>
      <trkpt lat="43.90604" lon="7.22438">
        <ele>1054</ele>
        <time>2018-05-13T09:42:33.000Z</time>
      </trkpt>
      <trkpt lat="43.90602" lon="7.22435">
        <ele>1053</ele>
        <time>2018-05-13T09:42:34.000Z</time>
      </trkpt>
      <trkpt lat="43.90599" lon="7.22433">
        <ele>1052</ele>
        <time>2018-05-13T09:42:35.000Z</time>
      </trkpt>
      <trkpt lat="43.90597" lon="7.22429">
        <ele>1050</ele>
        <time>2018-05-13T09:42:36.000Z</time>
      </trkpt>
      <trkpt lat="43.90594" lon="7.22425">
        <ele>1049</ele>
        <time>2018-05-13T09:42:37.000Z</time>
      </trkpt>
      <trkpt lat="43.90592" lon="7.22422">
        <ele>1047</ele>
        <time>2018-05-13T09:42:38.000Z</time>
      </trkpt>
      <trkpt lat="43.9059" lon="7.22419">
        <ele>1046</ele>
        <time>2018-05-13T09:42:39.000Z</time>
      </trkpt>
      <trkpt lat="43.90588" lon="7.22419">
        <ele>1044</ele>
        <time>2018-05-13T09:42:40.000Z</time>
      </trkpt>
      <trkpt lat="43.90586" lon="7.2242">
        <ele>1044</ele>
        <time>2018-05-13T09:42:41.000Z</time>
      </trkpt>
      <trkpt lat="43.90584" lon="7.2242">
        <ele>1043</ele>
        <time>2018-05-13T09:42:42.000Z</time>
      </trkpt>
      <trkpt lat="43.90582" lon="7.2242">
        <ele>1038</ele>
        <time>2018-05-13T09:42:43.000Z</time>
      </trkpt>
      <trkpt lat="43.9058" lon="7.22419">
        <ele>1038</ele>
        <time>2018-05-13T09:42:44.000Z</time>
      </trkpt>
      <trkpt lat="43.90579" lon="7.22417">
        <ele>1038</ele>
        <time>2018-05-13T09:42:45.000Z</time>
      </trkpt>
      <trkpt lat="43.90575" lon="7.22415">
        <ele>1035</ele>
        <time>2018-05-13T09:42:47.000Z</time>
      </trkpt>
      <trkpt lat="43.90573" lon="7.22417">
        <ele>1034</ele>
        <time>2018-05-13T09:42:49.000Z</time>
      </trkpt>
      <trkpt lat="43.9057" lon="7.22417">
        <ele>1033</ele>
        <time>2018-05-13T09:42:50.000Z</time>
      </trkpt>
      <trkpt lat="43.90568" lon="7.22417">
        <ele>1031</ele>
        <time>2018-05-13T09:42:51.000Z</time>
      </trkpt>
      <trkpt lat="43.90563" lon="7.22417">
        <ele>1029</ele>
        <time>2018-05-13T09:42:53.000Z</time>
      </trkpt>
      <trkpt lat="43.90559" lon="7.22419">
        <ele>1028</ele>
        <time>2018-05-13T09:42:55.000Z</time>
      </trkpt>
      <trkpt lat="43.90557" lon="7.2242">
        <ele>1027</ele>
        <time>2018-05-13T09:42:56.000Z</time>
      </trkpt>
      <trkpt lat="43.90556" lon="7.22421">
        <ele>1026</ele>
        <time>2018-05-13T09:42:57.000Z</time>
      </trkpt>
      <trkpt lat="43.90554" lon="7.22421">
        <ele>1025</ele>
        <time>2018-05-13T09:42:58.000Z</time>
      </trkpt>
      <trkpt lat="43.90552" lon="7.22421">
        <ele>1025</ele>
        <time>2018-05-13T09:42:59.000Z</time>
      </trkpt>
      <trkpt lat="43.90548" lon="7.22423">
        <ele>1023</ele>
        <time>2018-05-13T09:43:01.000Z</time>
      </trkpt>
      <trkpt lat="43.90546" lon="7.22424">
        <ele>1023</ele>
        <time>2018-05-13T09:43:02.000Z</time>
      </trkpt>
      <trkpt lat="43.90544" lon="7.22424">
        <ele>1022</ele>
        <time>2018-05-13T09:43:03.000Z</time>
      </trkpt>
      <trkpt lat="43.9054" lon="7.22422">
        <ele>1021</ele>
        <time>2018-05-13T09:43:05.000Z</time>
      </trkpt>
      <trkpt lat="43.90538" lon="7.22421">
        <ele>1020</ele>
        <time>2018-05-13T09:43:06.000Z</time>
      </trkpt>
      <trkpt lat="43.90536" lon="7.22419">
        <ele>1020</ele>
        <time>2018-05-13T09:43:07.000Z</time>
      </trkpt>
      <trkpt lat="43.90533" lon="7.22413">
        <ele>1018</ele>
        <time>2018-05-13T09:43:09.000Z</time>
      </trkpt>
      <trkpt lat="43.90532" lon="7.22412">
        <ele>1018</ele>
        <time>2018-05-13T09:43:10.000Z</time>
      </trkpt>
      <trkpt lat="43.9053" lon="7.22411">
        <ele>1017</ele>
        <time>2018-05-13T09:43:11.000Z</time>
      </trkpt>
      <trkpt lat="43.90527" lon="7.22409">
        <ele>1016</ele>
        <time>2018-05-13T09:43:13.000Z</time>
      </trkpt>
      <trkpt lat="43.90525" lon="7.22409">
        <ele>1016</ele>
        <time>2018-05-13T09:43:14.000Z</time>
      </trkpt>
      <trkpt lat="43.90524" lon="7.22409">
        <ele>1015</ele>
        <time>2018-05-13T09:43:15.000Z</time>
      </trkpt>
      <trkpt lat="43.90521" lon="7.22408">
        <ele>1014</ele>
        <time>2018-05-13T09:43:16.000Z</time>
      </trkpt>
      <trkpt lat="43.90517" lon="7.22406">
        <ele>1013</ele>
        <time>2018-05-13T09:43:18.000Z</time>
      </trkpt>
      <trkpt lat="43.90514" lon="7.22404">
        <ele>1013</ele>
        <time>2018-05-13T09:43:19.000Z</time>
      </trkpt>
      <trkpt lat="43.90513" lon="7.22403">
        <ele>1012</ele>
        <time>2018-05-13T09:43:20.000Z</time>
      </trkpt>
      <trkpt lat="43.9051" lon="7.22401">
        <ele>1012</ele>
        <time>2018-05-13T09:43:21.000Z</time>
      </trkpt>
      <trkpt lat="43.90508" lon="7.22398">
        <ele>1012</ele>
        <time>2018-05-13T09:43:22.000Z</time>
      </trkpt>
      <trkpt lat="43.90506" lon="7.22394">
        <ele>1012</ele>
        <time>2018-05-13T09:43:23.000Z</time>
      </trkpt>
      <trkpt lat="43.90505" lon="7.22392">
        <ele>1013</ele>
        <time>2018-05-13T09:43:24.000Z</time>
      </trkpt>
      <trkpt lat="43.90503" lon="7.2239">
        <ele>1013</ele>
        <time>2018-05-13T09:43:25.000Z</time>
      </trkpt>
      <trkpt lat="43.90501" lon="7.22387">
        <ele>1013</ele>
        <time>2018-05-13T09:43:26.000Z</time>
      </trkpt>
      <trkpt lat="43.90499" lon="7.22385">
        <ele>994</ele>
        <time>2018-05-13T09:43:27.000Z</time>
      </trkpt>
      <trkpt lat="43.90498" lon="7.22385">
        <ele>994</ele>
        <time>2018-05-13T09:43:28.000Z</time>
      </trkpt>
      <trkpt lat="43.90496" lon="7.22385">
        <ele>994</ele>
        <time>2018-05-13T09:43:29.000Z</time>
      </trkpt>
      <trkpt lat="43.90493" lon="7.22382">
        <ele>994</ele>
        <time>2018-05-13T09:43:31.000Z</time>
      </trkpt>
      <trkpt lat="43.90491" lon="7.22378">
        <ele>993</ele>
        <time>2018-05-13T09:43:33.000Z</time>
      </trkpt>
      <trkpt lat="43.90489" lon="7.22379">
        <ele>993</ele>
        <time>2018-05-13T09:43:34.000Z</time>
      </trkpt>
      <trkpt lat="43.90487" lon="7.22382">
        <ele>993</ele>
        <time>2018-05-13T09:43:36.000Z</time>
      </trkpt>
      <trkpt lat="43.90485" lon="7.22385">
        <ele>993</ele>
        <time>2018-05-13T09:43:37.000Z</time>
      </trkpt>
      <trkpt lat="43.90474" lon="7.22387">
        <ele>992</ele>
        <time>2018-05-13T09:43:40.000Z</time>
      </trkpt>
      <trkpt lat="43.90468" lon="7.22387">
        <ele>991</ele>
        <time>2018-05-13T09:43:41.000Z</time>
      </trkpt>
      <trkpt lat="43.90463" lon="7.22386">
        <ele>990</ele>
        <time>2018-05-13T09:43:42.000Z</time>
      </trkpt>
      <trkpt lat="43.90456" lon="7.22384">
        <ele>989</ele>
        <time>2018-05-13T09:43:43.000Z</time>
      </trkpt>
      <trkpt lat="43.90447" lon="7.22375">
        <ele>987</ele>
        <time>2018-05-13T09:43:45.000Z</time>
      </trkpt>
      <trkpt lat="43.90436" lon="7.22368">
        <ele>986</ele>
        <time>2018-05-13T09:43:47.000Z</time>
      </trkpt>
      <trkpt lat="43.9043" lon="7.22365">
        <ele>985</ele>
        <time>2018-05-13T09:43:48.000Z</time>
      </trkpt>
      <trkpt lat="43.90423" lon="7.22364">
        <ele>984</ele>
        <time>2018-05-13T09:43:49.000Z</time>
      </trkpt>
      <trkpt lat="43.90417" lon="7.22365">
        <ele>984</ele>
        <time>2018-05-13T09:43:50.000Z</time>
      </trkpt>
      <trkpt lat="43.9041" lon="7.22364">
        <ele>973</ele>
        <time>2018-05-13T09:43:51.000Z</time>
      </trkpt>
      <trkpt lat="43.90404" lon="7.22362">
        <ele>973</ele>
        <time>2018-05-13T09:43:52.000Z</time>
      </trkpt>
      <trkpt lat="43.90398" lon="7.2236">
        <ele>973</ele>
        <time>2018-05-13T09:43:53.000Z</time>
      </trkpt>
      <trkpt lat="43.90394" lon="7.22357">
        <ele>973</ele>
        <time>2018-05-13T09:43:54.000Z</time>
      </trkpt>
      <trkpt lat="43.90382" lon="7.22352">
        <ele>972</ele>
        <time>2018-05-13T09:43:56.000Z</time>
      </trkpt>
      <trkpt lat="43.90377" lon="7.22348">
        <ele>972</ele>
        <time>2018-05-13T09:43:57.000Z</time>
      </trkpt>
      <trkpt lat="43.90369" lon="7.22347">
        <ele>971</ele>
        <time>2018-05-13T09:43:58.000Z</time>
      </trkpt>
      <trkpt lat="43.90361" lon="7.22348">
        <ele>971</ele>
        <time>2018-05-13T09:43:59.000Z</time>
      </trkpt>
      <trkpt lat="43.90354" lon="7.22349">
        <ele>970</ele>
        <time>2018-05-13T09:44:00.000Z</time>
      </trkpt>
      <trkpt lat="43.90345" lon="7.22351">
        <ele>970</ele>
        <time>2018-05-13T09:44:01.000Z</time>
      </trkpt>
      <trkpt lat="43.90336" lon="7.22352">
        <ele>969</ele>
        <time>2018-05-13T09:44:02.000Z</time>
      </trkpt>
      <trkpt lat="43.90327" lon="7.22353">
        <ele>965</ele>
        <time>2018-05-13T09:44:03.000Z</time>
      </trkpt>
      <trkpt lat="43.90318" lon="7.22355">
        <ele>964</ele>
        <time>2018-05-13T09:44:04.000Z</time>
      </trkpt>
      <trkpt lat="43.90309" lon="7.22359">
        <ele>963</ele>
        <time>2018-05-13T09:44:05.000Z</time>
      </trkpt>
      <trkpt lat="43.903" lon="7.22364">
        <ele>963</ele>
        <time>2018-05-13T09:44:06.000Z</time>
      </trkpt>
      <trkpt lat="43.90292" lon="7.2237">
        <ele>962</ele>
        <time>2018-05-13T09:44:07.000Z</time>
      </trkpt>
      <trkpt lat="43.90284" lon="7.22376">
        <ele>962</ele>
        <time>2018-05-13T09:44:08.000Z</time>
      </trkpt>
      <trkpt lat="43.90267" lon="7.22385">
        <ele>962</ele>
        <time>2018-05-13T09:44:10.000Z</time>
      </trkpt>
      <trkpt lat="43.90245" lon="7.22401">
        <ele>963</ele>
        <time>2018-05-13T09:44:13.000Z</time>
      </trkpt>
      <trkpt lat="43.90231" lon="7.22416">
        <ele>964</ele>
        <time>2018-05-13T09:44:16.000Z</time>
      </trkpt>
      <trkpt lat="43.90225" lon="7.22425">
        <ele>967</ele>
        <time>2018-05-13T09:44:18.000Z</time>
      </trkpt>
      <trkpt lat="43.9022" lon="7.22434">
        <ele>967</ele>
        <time>2018-05-13T09:44:20.000Z</time>
      </trkpt>
      <trkpt lat="43.90215" lon="7.22444">
        <ele>968</ele>
        <time>2018-05-13T09:44:22.000Z</time>
      </trkpt>
      <trkpt lat="43.90207" lon="7.22454">
        <ele>968</ele>
        <time>2018-05-13T09:44:25.000Z</time>
      </trkpt>
      <trkpt lat="43.90196" lon="7.2247">
        <ele>970</ele>
        <time>2018-05-13T09:44:29.000Z</time>
      </trkpt>
      <trkpt lat="43.90195" lon="7.22477">
        <ele>970</ele>
        <time>2018-05-13T09:44:30.000Z</time>
      </trkpt>
      <trkpt lat="43.90197" lon="7.22488">
        <ele>970</ele>
        <time>2018-05-13T09:44:32.000Z</time>
      </trkpt>
      <trkpt lat="43.902" lon="7.22506">
        <ele>969</ele>
        <time>2018-05-13T09:44:35.000Z</time>
      </trkpt>
      <trkpt lat="43.90202" lon="7.22522">
        <ele>969</ele>
        <time>2018-05-13T09:44:38.000Z</time>
      </trkpt>
      <trkpt lat="43.902" lon="7.22542">
        <ele>969</ele>
        <time>2018-05-13T09:44:42.000Z</time>
      </trkpt>
      <trkpt lat="43.90197" lon="7.22546">
        <ele>969</ele>
        <time>2018-05-13T09:44:43.000Z</time>
      </trkpt>
      <trkpt lat="43.90192" lon="7.22549">
        <ele>970</ele>
        <time>2018-05-13T09:44:45.000Z</time>
      </trkpt>
      <trkpt lat="43.90189" lon="7.22549">
        <ele>970</ele>
        <time>2018-05-13T09:44:47.000Z</time>
      </trkpt>
      <trkpt lat="43.90188" lon="7.22548">
        <ele>970</ele>
        <time>2018-05-13T09:44:51.000Z</time>
      </trkpt>
      <trkpt lat="43.90187" lon="7.22547">
        <ele>970</ele>
        <time>2018-05-13T09:44:52.000Z</time>
      </trkpt>
      <trkpt lat="43.90183" lon="7.22543">
        <ele>971</ele>
        <time>2018-05-13T09:44:58.000Z</time>
      </trkpt>
      <trkpt lat="43.90181" lon="7.22541">
        <ele>971</ele>
        <time>2018-05-13T09:45:01.000Z</time>
      </trkpt>
      <trkpt lat="43.90179" lon="7.22539">
        <ele>971</ele>
        <time>2018-05-13T09:45:04.000Z</time>
      </trkpt>
      <trkpt lat="43.90177" lon="7.22538">
        <ele>971</ele>
        <time>2018-05-13T09:45:06.000Z</time>
      </trkpt>
      <trkpt lat="43.90172" lon="7.22536">
        <ele>972</ele>
        <time>2018-05-13T09:45:11.000Z</time>
      </trkpt>
      <trkpt lat="43.90171" lon="7.22536">
        <ele>972</ele>
        <time>2018-05-13T09:45:13.000Z</time>
      </trkpt>
      <trkpt lat="43.90168" lon="7.22537">
        <ele>972</ele>
        <time>2018-05-13T09:45:16.000Z</time>
      </trkpt>
      <trkpt lat="43.90166" lon="7.22539">
        <ele>987</ele>
        <time>2018-05-13T09:45:21.000Z</time>
      </trkpt>
      <trkpt lat="43.90165" lon="7.22542">
        <ele>987</ele>
        <time>2018-05-13T09:45:25.000Z</time>
      </trkpt>
      <trkpt lat="43.90164" lon="7.22546">
        <ele>987</ele>
        <time>2018-05-13T09:45:29.000Z</time>
      </trkpt>
      <trkpt lat="43.90164" lon="7.22546">
        <ele>987</ele>
        <time>2018-05-13T09:45:30.000Z</time>
      </trkpt>
      <trkpt lat="43.90162" lon="7.2255">
        <ele>987</ele>
        <time>2018-05-13T09:45:34.000Z</time>
      </trkpt>
      <trkpt lat="43.90161" lon="7.22553">
        <ele>987</ele>
        <time>2018-05-13T09:45:37.000Z</time>
      </trkpt>
      <trkpt lat="43.90159" lon="7.22556">
        <ele>987</ele>
        <time>2018-05-13T09:45:40.000Z</time>
      </trkpt>
      <trkpt lat="43.90159" lon="7.22556">
        <ele>987</ele>
        <time>2018-05-13T09:45:41.000Z</time>
      </trkpt>
      <trkpt lat="43.90156" lon="7.22556">
        <ele>987</ele>
        <time>2018-05-13T09:45:46.000Z</time>
      </trkpt>
      <trkpt lat="43.90155" lon="7.22555">
        <ele>987</ele>
        <time>2018-05-13T09:45:48.000Z</time>
      </trkpt>
      <trkpt lat="43.90154" lon="7.22553">
        <ele>988</ele>
        <time>2018-05-13T09:45:51.000Z</time>
      </trkpt>
      <trkpt lat="43.90151" lon="7.22553">
        <ele>988</ele>
        <time>2018-05-13T09:45:55.000Z</time>
      </trkpt>
      <trkpt lat="43.90148" lon="7.22553">
        <ele>988</ele>
        <time>2018-05-13T09:45:58.000Z</time>
      </trkpt>
      <trkpt lat="43.90147" lon="7.22553">
        <ele>988</ele>
        <time>2018-05-13T09:45:59.000Z</time>
      </trkpt>
      <trkpt lat="43.90142" lon="7.22555">
        <ele>989</ele>
        <time>2018-05-13T09:46:07.000Z</time>
      </trkpt>
      <trkpt lat="43.90137" lon="7.22556">
        <ele>990</ele>
        <time>2018-05-13T09:46:14.000Z</time>
      </trkpt>
      <trkpt lat="43.90136" lon="7.22555">
        <ele>990</ele>
        <time>2018-05-13T09:46:17.000Z</time>
      </trkpt>
      <trkpt lat="43.90134" lon="7.22555">
        <ele>990</ele>
        <time>2018-05-13T09:46:20.000Z</time>
      </trkpt>
      <trkpt lat="43.90131" lon="7.22554">
        <ele>991</ele>
        <time>2018-05-13T09:46:25.000Z</time>
      </trkpt>
      <trkpt lat="43.90129" lon="7.22554">
        <ele>991</ele>
        <time>2018-05-13T09:46:27.000Z</time>
      </trkpt>
      <trkpt lat="43.90127" lon="7.22552">
        <ele>991</ele>
        <time>2018-05-13T09:46:32.000Z</time>
      </trkpt>
      <trkpt lat="43.90126" lon="7.22552">
        <ele>991</ele>
        <time>2018-05-13T09:46:33.000Z</time>
      </trkpt>
      <trkpt lat="43.90122" lon="7.22549">
        <ele>992</ele>
        <time>2018-05-13T09:46:40.000Z</time>
      </trkpt>
      <trkpt lat="43.90121" lon="7.22548">
        <ele>992</ele>
        <time>2018-05-13T09:46:42.000Z</time>
      </trkpt>
      <trkpt lat="43.90118" lon="7.22547">
        <ele>993</ele>
        <time>2018-05-13T09:46:46.000Z</time>
      </trkpt>
      <trkpt lat="43.90115" lon="7.22546">
        <ele>993</ele>
        <time>2018-05-13T09:46:51.000Z</time>
      </trkpt>
      <trkpt lat="43.9011" lon="7.22544">
        <ele>994</ele>
        <time>2018-05-13T09:46:58.000Z</time>
      </trkpt>
      <trkpt lat="43.90104" lon="7.22542">
        <ele>994</ele>
        <time>2018-05-13T09:47:05.000Z</time>
      </trkpt>
      <trkpt lat="43.90099" lon="7.22542">
        <ele>995</ele>
        <time>2018-05-13T09:47:10.000Z</time>
      </trkpt>
      <trkpt lat="43.90099" lon="7.22542">
        <ele>995</ele>
        <time>2018-05-13T09:47:11.000Z</time>
      </trkpt>
      <trkpt lat="43.90094" lon="7.22541">
        <ele>996</ele>
        <time>2018-05-13T09:47:16.000Z</time>
      </trkpt>
      <trkpt lat="43.90092" lon="7.2254">
        <ele>996</ele>
        <time>2018-05-13T09:47:18.000Z</time>
      </trkpt>
      <trkpt lat="43.90089" lon="7.22541">
        <ele>996</ele>
        <time>2018-05-13T09:47:22.000Z</time>
      </trkpt>
      <trkpt lat="43.90087" lon="7.22541">
        <ele>996</ele>
        <time>2018-05-13T09:47:25.000Z</time>
      </trkpt>
      <trkpt lat="43.90086" lon="7.22542">
        <ele>996</ele>
        <time>2018-05-13T09:47:27.000Z</time>
      </trkpt>
      <trkpt lat="43.90081" lon="7.22542">
        <ele>1011</ele>
        <time>2018-05-13T09:47:33.000Z</time>
      </trkpt>
      <trkpt lat="43.9008" lon="7.22543">
        <ele>1011</ele>
        <time>2018-05-13T09:47:34.000Z</time>
      </trkpt>
      <trkpt lat="43.90076" lon="7.22543">
        <ele>1011</ele>
        <time>2018-05-13T09:47:40.000Z</time>
      </trkpt>
      <trkpt lat="43.90075" lon="7.22543">
        <ele>1011</ele>
        <time>2018-05-13T09:47:41.000Z</time>
      </trkpt>
      <trkpt lat="43.90072" lon="7.22542">
        <ele>1012</ele>
        <time>2018-05-13T09:47:45.000Z</time>
      </trkpt>
      <trkpt lat="43.90069" lon="7.22542">
        <ele>1012</ele>
        <time>2018-05-13T09:47:48.000Z</time>
      </trkpt>
      <trkpt lat="43.90067" lon="7.22542">
        <ele>1012</ele>
        <time>2018-05-13T09:47:51.000Z</time>
      </trkpt>
      <trkpt lat="43.90066" lon="7.22542">
        <ele>1012</ele>
        <time>2018-05-13T09:47:54.000Z</time>
      </trkpt>
      <trkpt lat="43.90065" lon="7.22541">
        <ele>1012</ele>
        <time>2018-05-13T09:47:55.000Z</time>
      </trkpt>
      <trkpt lat="43.90064" lon="7.22542">
        <ele>1012</ele>
        <time>2018-05-13T09:47:57.000Z</time>
      </trkpt>
      <trkpt lat="43.90056" lon="7.2255">
        <ele>1013</ele>
        <time>2018-05-13T09:48:06.000Z</time>
      </trkpt>
      <trkpt lat="43.90051" lon="7.22557">
        <ele>1013</ele>
        <time>2018-05-13T09:48:14.000Z</time>
      </trkpt>
      <trkpt lat="43.9005" lon="7.22557">
        <ele>1014</ele>
        <time>2018-05-13T09:48:15.000Z</time>
      </trkpt>
      <trkpt lat="43.90047" lon="7.2256">
        <ele>1014</ele>
        <time>2018-05-13T09:48:20.000Z</time>
      </trkpt>
      <trkpt lat="43.90045" lon="7.22562">
        <ele>1014</ele>
        <time>2018-05-13T09:48:23.000Z</time>
      </trkpt>
      <trkpt lat="43.90043" lon="7.22565">
        <ele>1015</ele>
        <time>2018-05-13T09:48:25.000Z</time>
      </trkpt>
      <trkpt lat="43.90041" lon="7.22568">
        <ele>1015</ele>
        <time>2018-05-13T09:48:29.000Z</time>
      </trkpt>
      <trkpt lat="43.9004" lon="7.22569">
        <ele>1015</ele>
        <time>2018-05-13T09:48:32.000Z</time>
      </trkpt>
      <trkpt lat="43.90036" lon="7.22571">
        <ele>1016</ele>
        <time>2018-05-13T09:48:35.000Z</time>
      </trkpt>
      <trkpt lat="43.90028" lon="7.22577">
        <ele>1017</ele>
        <time>2018-05-13T09:48:40.000Z</time>
      </trkpt>
      <trkpt lat="43.90025" lon="7.22578">
        <ele>1018</ele>
        <time>2018-05-13T09:48:42.000Z</time>
      </trkpt>
      <trkpt lat="43.90019" lon="7.2258">
        <ele>1019</ele>
        <time>2018-05-13T09:48:45.000Z</time>
      </trkpt>
      <trkpt lat="43.90017" lon="7.22581">
        <ele>1019</ele>
        <time>2018-05-13T09:48:46.000Z</time>
      </trkpt>
      <trkpt lat="43.90013" lon="7.2258">
        <ele>1020</ele>
        <time>2018-05-13T09:48:49.000Z</time>
      </trkpt>
      <trkpt lat="43.9001" lon="7.22582">
        <ele>1021</ele>
        <time>2018-05-13T09:48:51.000Z</time>
      </trkpt>
      <trkpt lat="43.90008" lon="7.22583">
        <ele>1022</ele>
        <time>2018-05-13T09:48:54.000Z</time>
      </trkpt>
      <trkpt lat="43.90003" lon="7.22588">
        <ele>1021</ele>
        <time>2018-05-13T09:48:57.000Z</time>
      </trkpt>
      <trkpt lat="43.9" lon="7.22594">
        <ele>1025</ele>
        <time>2018-05-13T09:49:00.000Z</time>
      </trkpt>
      <trkpt lat="43.89998" lon="7.22598">
        <ele>1025</ele>
        <time>2018-05-13T09:49:02.000Z</time>
      </trkpt>
      <trkpt lat="43.89995" lon="7.22599">
        <ele>1025</ele>
        <time>2018-05-13T09:49:05.000Z</time>
      </trkpt>
      <trkpt lat="43.89995" lon="7.226">
        <ele>1025</ele>
        <time>2018-05-13T09:49:06.000Z</time>
      </trkpt>
      <trkpt lat="43.89992" lon="7.22601">
        <ele>1025</ele>
        <time>2018-05-13T09:49:08.000Z</time>
      </trkpt>
      <trkpt lat="43.89988" lon="7.22603">
        <ele>1025</ele>
        <time>2018-05-13T09:49:11.000Z</time>
      </trkpt>
      <trkpt lat="43.89987" lon="7.22604">
        <ele>1025</ele>
        <time>2018-05-13T09:49:12.000Z</time>
      </trkpt>
      <trkpt lat="43.89979" lon="7.2261">
        <ele>1026</ele>
        <time>2018-05-13T09:49:17.000Z</time>
      </trkpt>
      <trkpt lat="43.89974" lon="7.22613">
        <ele>1026</ele>
        <time>2018-05-13T09:49:21.000Z</time>
      </trkpt>
      <trkpt lat="43.8997" lon="7.22614">
        <ele>1026</ele>
        <time>2018-05-13T09:49:24.000Z</time>
      </trkpt>
      <trkpt lat="43.89967" lon="7.22615">
        <ele>1026</ele>
        <time>2018-05-13T09:49:27.000Z</time>
      </trkpt>
      <trkpt lat="43.89965" lon="7.22617">
        <ele>1027</ele>
        <time>2018-05-13T09:49:28.000Z</time>
      </trkpt>
      <trkpt lat="43.89963" lon="7.22618">
        <ele>1027</ele>
        <time>2018-05-13T09:49:29.000Z</time>
      </trkpt>
      <trkpt lat="43.89958" lon="7.22619">
        <ele>1027</ele>
        <time>2018-05-13T09:49:33.000Z</time>
      </trkpt>
      <trkpt lat="43.89953" lon="7.22628">
        <ele>1027</ele>
        <time>2018-05-13T09:49:37.000Z</time>
      </trkpt>
      <trkpt lat="43.89948" lon="7.22635">
        <ele>1027</ele>
        <time>2018-05-13T09:49:42.000Z</time>
      </trkpt>
      <trkpt lat="43.89947" lon="7.22636">
        <ele>1028</ele>
        <time>2018-05-13T09:49:43.000Z</time>
      </trkpt>
      <trkpt lat="43.89944" lon="7.22638">
        <ele>1028</ele>
        <time>2018-05-13T09:49:46.000Z</time>
      </trkpt>
      <trkpt lat="43.89941" lon="7.22642">
        <ele>1028</ele>
        <time>2018-05-13T09:49:51.000Z</time>
      </trkpt>
      <trkpt lat="43.89934" lon="7.22649">
        <ele>1029</ele>
        <time>2018-05-13T09:49:57.000Z</time>
      </trkpt>
      <trkpt lat="43.89928" lon="7.22655">
        <ele>1030</ele>
        <time>2018-05-13T09:50:03.000Z</time>
      </trkpt>
      <trkpt lat="43.89924" lon="7.22658">
        <ele>1031</ele>
        <time>2018-05-13T09:50:06.000Z</time>
      </trkpt>
      <trkpt lat="43.89924" lon="7.2266">
        <ele>1031</ele>
        <time>2018-05-13T09:50:07.000Z</time>
      </trkpt>
      <trkpt lat="43.89923" lon="7.22661">
        <ele>1031</ele>
        <time>2018-05-13T09:50:08.000Z</time>
      </trkpt>
      <trkpt lat="43.89918" lon="7.2267">
        <ele>1031</ele>
        <time>2018-05-13T09:50:15.000Z</time>
      </trkpt>
      <trkpt lat="43.89916" lon="7.22671">
        <ele>1032</ele>
        <time>2018-05-13T09:50:17.000Z</time>
      </trkpt>
      <trkpt lat="43.89912" lon="7.22676">
        <ele>1032</ele>
        <time>2018-05-13T09:50:22.000Z</time>
      </trkpt>
      <trkpt lat="43.89909" lon="7.22679">
        <ele>1032</ele>
        <time>2018-05-13T09:50:25.000Z</time>
      </trkpt>
      <trkpt lat="43.89907" lon="7.22682">
        <ele>1031</ele>
        <time>2018-05-13T09:50:28.000Z</time>
      </trkpt>
      <trkpt lat="43.89902" lon="7.22685">
        <ele>1031</ele>
        <time>2018-05-13T09:50:34.000Z</time>
      </trkpt>
      <trkpt lat="43.89901" lon="7.22687">
        <ele>1031</ele>
        <time>2018-05-13T09:50:36.000Z</time>
      </trkpt>
      <trkpt lat="43.89898" lon="7.22689">
        <ele>1031</ele>
        <time>2018-05-13T09:50:39.000Z</time>
      </trkpt>
      <trkpt lat="43.89897" lon="7.2269">
        <ele>1031</ele>
        <time>2018-05-13T09:50:40.000Z</time>
      </trkpt>
      <trkpt lat="43.89895" lon="7.2269">
        <ele>1031</ele>
        <time>2018-05-13T09:50:42.000Z</time>
      </trkpt>
      <trkpt lat="43.89892" lon="7.22692">
        <ele>1031</ele>
        <time>2018-05-13T09:50:45.000Z</time>
      </trkpt>
      <trkpt lat="43.89884" lon="7.22695">
        <ele>1031</ele>
        <time>2018-05-13T09:50:52.000Z</time>
      </trkpt>
      <trkpt lat="43.89881" lon="7.22695">
        <ele>1031</ele>
        <time>2018-05-13T09:50:54.000Z</time>
      </trkpt>
      <trkpt lat="43.89875" lon="7.22696">
        <ele>1031</ele>
        <time>2018-05-13T09:50:59.000Z</time>
      </trkpt>
      <trkpt lat="43.89875" lon="7.22695">
        <ele>1031</ele>
        <time>2018-05-13T09:51:00.000Z</time>
      </trkpt>
      <trkpt lat="43.89874" lon="7.22695">
        <ele>1031</ele>
        <time>2018-05-13T09:51:02.000Z</time>
      </trkpt>
      <trkpt lat="43.89872" lon="7.22695">
        <ele>1031</ele>
        <time>2018-05-13T09:51:05.000Z</time>
      </trkpt>
      <trkpt lat="43.8987" lon="7.22693">
        <ele>1031</ele>
        <time>2018-05-13T09:51:07.000Z</time>
      </trkpt>
      <trkpt lat="43.89864" lon="7.22688">
        <ele>1032</ele>
        <time>2018-05-13T09:51:11.000Z</time>
      </trkpt>
      <trkpt lat="43.89863" lon="7.22688">
        <ele>1032</ele>
        <time>2018-05-13T09:51:12.000Z</time>
      </trkpt>
      <trkpt lat="43.8986" lon="7.22685">
        <ele>1032</ele>
        <time>2018-05-13T09:51:15.000Z</time>
      </trkpt>
      <trkpt lat="43.89855" lon="7.22682">
        <ele>1033</ele>
        <time>2018-05-13T09:51:18.000Z</time>
      </trkpt>
      <trkpt lat="43.89851" lon="7.22678">
        <ele>1034</ele>
        <time>2018-05-13T09:51:21.000Z</time>
      </trkpt>
      <trkpt lat="43.89847" lon="7.22669">
        <ele>1035</ele>
        <time>2018-05-13T09:51:25.000Z</time>
      </trkpt>
      <trkpt lat="43.89846" lon="7.22658">
        <ele>1037</ele>
        <time>2018-05-13T09:51:29.000Z</time>
      </trkpt>
      <trkpt lat="43.89848" lon="7.22655">
        <ele>1037</ele>
        <time>2018-05-13T09:51:31.000Z</time>
      </trkpt>
      <trkpt lat="43.89854" lon="7.22648">
        <ele>1037</ele>
        <time>2018-05-13T09:51:35.000Z</time>
      </trkpt>
      <trkpt lat="43.89857" lon="7.22643">
        <ele>1037</ele>
        <time>2018-05-13T09:51:37.000Z</time>
      </trkpt>
      <trkpt lat="43.89869" lon="7.22618">
        <ele>1037</ele>
        <time>2018-05-13T09:51:46.000Z</time>
      </trkpt>
      <trkpt lat="43.8987" lon="7.22615">
        <ele>1037</ele>
        <time>2018-05-13T09:51:47.000Z</time>
      </trkpt>
      <trkpt lat="43.89873" lon="7.22593">
        <ele>1037</ele>
        <time>2018-05-13T09:51:54.000Z</time>
      </trkpt>
      <trkpt lat="43.89874" lon="7.22584">
        <ele>1037</ele>
        <time>2018-05-13T09:51:57.000Z</time>
      </trkpt>
      <trkpt lat="43.89875" lon="7.22569">
        <ele>1038</ele>
        <time>2018-05-13T09:52:02.000Z</time>
      </trkpt>
      <trkpt lat="43.89876" lon="7.22561">
        <ele>1038</ele>
        <time>2018-05-13T09:52:05.000Z</time>
      </trkpt>
      <trkpt lat="43.89878" lon="7.22547">
        <ele>1039</ele>
        <time>2018-05-13T09:52:10.000Z</time>
      </trkpt>
      <trkpt lat="43.89878" lon="7.22545">
        <ele>1039</ele>
        <time>2018-05-13T09:52:11.000Z</time>
      </trkpt>
      <trkpt lat="43.8988" lon="7.22534">
        <ele>1039</ele>
        <time>2018-05-13T09:52:15.000Z</time>
      </trkpt>
      <trkpt lat="43.89883" lon="7.22522">
        <ele>1039</ele>
        <time>2018-05-13T09:52:20.000Z</time>
      </trkpt>
      <trkpt lat="43.89884" lon="7.22515">
        <ele>1039</ele>
        <time>2018-05-13T09:52:23.000Z</time>
      </trkpt>
      <trkpt lat="43.89884" lon="7.22501">
        <ele>1039</ele>
        <time>2018-05-13T09:52:28.000Z</time>
      </trkpt>
      <trkpt lat="43.89882" lon="7.2248">
        <ele>1042</ele>
        <time>2018-05-13T09:52:36.000Z</time>
      </trkpt>
      <trkpt lat="43.89881" lon="7.22473">
        <ele>1042</ele>
        <time>2018-05-13T09:52:39.000Z</time>
      </trkpt>
      <trkpt lat="43.89879" lon="7.22463">
        <ele>1042</ele>
        <time>2018-05-13T09:52:44.000Z</time>
      </trkpt>
      <trkpt lat="43.89879" lon="7.22458">
        <ele>1042</ele>
        <time>2018-05-13T09:52:46.000Z</time>
      </trkpt>
      <trkpt lat="43.89878" lon="7.22452">
        <ele>1042</ele>
        <time>2018-05-13T09:52:49.000Z</time>
      </trkpt>
      <trkpt lat="43.89876" lon="7.22435">
        <ele>1043</ele>
        <time>2018-05-13T09:52:56.000Z</time>
      </trkpt>
      <trkpt lat="43.89876" lon="7.22433">
        <ele>1043</ele>
        <time>2018-05-13T09:52:57.000Z</time>
      </trkpt>
      <trkpt lat="43.89875" lon="7.2242">
        <ele>1043</ele>
        <time>2018-05-13T09:53:03.000Z</time>
      </trkpt>
      <trkpt lat="43.89874" lon="7.22417">
        <ele>1043</ele>
        <time>2018-05-13T09:53:04.000Z</time>
      </trkpt>
      <trkpt lat="43.89872" lon="7.22406">
        <ele>1046</ele>
        <time>2018-05-13T09:53:09.000Z</time>
      </trkpt>
      <trkpt lat="43.89872" lon="7.22401">
        <ele>1046</ele>
        <time>2018-05-13T09:53:11.000Z</time>
      </trkpt>
      <trkpt lat="43.89865" lon="7.22382">
        <ele>1046</ele>
        <time>2018-05-13T09:53:17.000Z</time>
      </trkpt>
      <trkpt lat="43.8986" lon="7.22367">
        <ele>1046</ele>
        <time>2018-05-13T09:53:23.000Z</time>
      </trkpt>
      <trkpt lat="43.89859" lon="7.22365">
        <ele>1046</ele>
        <time>2018-05-13T09:53:24.000Z</time>
      </trkpt>
      <trkpt lat="43.89854" lon="7.22345">
        <ele>1046</ele>
        <time>2018-05-13T09:53:31.000Z</time>
      </trkpt>
      <trkpt lat="43.89844" lon="7.22327">
        <ele>1045</ele>
        <time>2018-05-13T09:53:36.000Z</time>
      </trkpt>
      <trkpt lat="43.89837" lon="7.22303">
        <ele>1045</ele>
        <time>2018-05-13T09:53:41.000Z</time>
      </trkpt>
      <trkpt lat="43.89827" lon="7.22274">
        <ele>1039</ele>
        <time>2018-05-13T09:53:46.000Z</time>
      </trkpt>
      <trkpt lat="43.8982" lon="7.22238">
        <ele>1041</ele>
        <time>2018-05-13T09:53:52.000Z</time>
      </trkpt>
      <trkpt lat="43.8982" lon="7.22233">
        <ele>1041</ele>
        <time>2018-05-13T09:53:53.000Z</time>
      </trkpt>
      <trkpt lat="43.89817" lon="7.22211">
        <ele>1040</ele>
        <time>2018-05-13T09:53:57.000Z</time>
      </trkpt>
      <trkpt lat="43.89806" lon="7.22183">
        <ele>1040</ele>
        <time>2018-05-13T09:54:03.000Z</time>
      </trkpt>
      <trkpt lat="43.89798" lon="7.2216">
        <ele>1044</ele>
        <time>2018-05-13T09:54:09.000Z</time>
      </trkpt>
      <trkpt lat="43.89794" lon="7.22152">
        <ele>1044</ele>
        <time>2018-05-13T09:54:11.000Z</time>
      </trkpt>
      <trkpt lat="43.89786" lon="7.22137">
        <ele>1044</ele>
        <time>2018-05-13T09:54:15.000Z</time>
      </trkpt>
      <trkpt lat="43.89781" lon="7.22114">
        <ele>1045</ele>
        <time>2018-05-13T09:54:21.000Z</time>
      </trkpt>
      <trkpt lat="43.89775" lon="7.22083">
        <ele>1048</ele>
        <time>2018-05-13T09:54:28.000Z</time>
      </trkpt>
      <trkpt lat="43.89769" lon="7.22054">
        <ele>1048</ele>
        <time>2018-05-13T09:54:35.000Z</time>
      </trkpt>
      <trkpt lat="43.89767" lon="7.22046">
        <ele>1048</ele>
        <time>2018-05-13T09:54:37.000Z</time>
      </trkpt>
      <trkpt lat="43.89766" lon="7.22031">
        <ele>1049</ele>
        <time>2018-05-13T09:54:41.000Z</time>
      </trkpt>
      <trkpt lat="43.89762" lon="7.22021">
        <ele>1049</ele>
        <time>2018-05-13T09:54:44.000Z</time>
      </trkpt>
      <trkpt lat="43.89753" lon="7.22006">
        <ele>1052</ele>
        <time>2018-05-13T09:54:50.000Z</time>
      </trkpt>
      <trkpt lat="43.89751" lon="7.22">
        <ele>1053</ele>
        <time>2018-05-13T09:54:52.000Z</time>
      </trkpt>
      <trkpt lat="43.89745" lon="7.21981">
        <ele>1044</ele>
        <time>2018-05-13T09:54:59.000Z</time>
      </trkpt>
      <trkpt lat="43.89737" lon="7.21965">
        <ele>1041</ele>
        <time>2018-05-13T09:55:05.000Z</time>
      </trkpt>
      <trkpt lat="43.89735" lon="7.21959">
        <ele>1040</ele>
        <time>2018-05-13T09:55:07.000Z</time>
      </trkpt>
      <trkpt lat="43.89725" lon="7.21937">
        <ele>1040</ele>
        <time>2018-05-13T09:55:14.000Z</time>
      </trkpt>
      <trkpt lat="43.89717" lon="7.21915">
        <ele>1042</ele>
        <time>2018-05-13T09:55:19.000Z</time>
      </trkpt>
      <trkpt lat="43.89713" lon="7.21902">
        <ele>1040</ele>
        <time>2018-05-13T09:55:22.000Z</time>
      </trkpt>
      <trkpt lat="43.89711" lon="7.2189">
        <ele>1040</ele>
        <time>2018-05-13T09:55:25.000Z</time>
      </trkpt>
      <trkpt lat="43.89704" lon="7.21873">
        <ele>1039</ele>
        <time>2018-05-13T09:55:30.000Z</time>
      </trkpt>
      <trkpt lat="43.897" lon="7.21864">
        <ele>1039</ele>
        <time>2018-05-13T09:55:32.000Z</time>
      </trkpt>
      <trkpt lat="43.89701" lon="7.2186">
        <ele>1039</ele>
        <time>2018-05-13T09:55:33.000Z</time>
      </trkpt>
      <trkpt lat="43.897" lon="7.21845">
        <ele>1039</ele>
        <time>2018-05-13T09:55:37.000Z</time>
      </trkpt>
      <trkpt lat="43.89698" lon="7.21838">
        <ele>1039</ele>
        <time>2018-05-13T09:55:38.000Z</time>
      </trkpt>
      <trkpt lat="43.89694" lon="7.21833">
        <ele>1043</ele>
        <time>2018-05-13T09:55:40.000Z</time>
      </trkpt>
      <trkpt lat="43.89691" lon="7.21833">
        <ele>1042</ele>
        <time>2018-05-13T09:55:41.000Z</time>
      </trkpt>
      <trkpt lat="43.89687" lon="7.21829">
        <ele>1041</ele>
        <time>2018-05-13T09:55:43.000Z</time>
      </trkpt>
      <trkpt lat="43.89683" lon="7.21822">
        <ele>1041</ele>
        <time>2018-05-13T09:55:45.000Z</time>
      </trkpt>
      <trkpt lat="43.89681" lon="7.21818">
        <ele>1041</ele>
        <time>2018-05-13T09:55:46.000Z</time>
      </trkpt>
      <trkpt lat="43.89679" lon="7.21812">
        <ele>1042</ele>
        <time>2018-05-13T09:55:47.000Z</time>
      </trkpt>
      <trkpt lat="43.89679" lon="7.21805">
        <ele>1043</ele>
        <time>2018-05-13T09:55:48.000Z</time>
      </trkpt>
      <trkpt lat="43.89677" lon="7.21797">
        <ele>1045</ele>
        <time>2018-05-13T09:55:49.000Z</time>
      </trkpt>
      <trkpt lat="43.89676" lon="7.21783">
        <ele>1046</ele>
        <time>2018-05-13T09:55:51.000Z</time>
      </trkpt>
      <trkpt lat="43.89678" lon="7.21779">
        <ele>1047</ele>
        <time>2018-05-13T09:55:52.000Z</time>
      </trkpt>
      <trkpt lat="43.89679" lon="7.21776">
        <ele>1047</ele>
        <time>2018-05-13T09:55:53.000Z</time>
      </trkpt>
      <trkpt lat="43.89679" lon="7.21776">
        <ele>1047</ele>
        <time>2018-05-13T09:55:55.000Z</time>
      </trkpt>
      <trkpt lat="43.89679" lon="7.21776">
        <ele>1047</ele>
        <time>2018-05-13T09:55:56.000Z</time>
      </trkpt>
      <trkpt lat="43.89679" lon="7.21776">
        <ele>1047</ele>
        <time>2018-05-13T09:55:57.000Z</time>
      </trkpt>
      <trkpt lat="43.89678" lon="7.21775">
        <ele>1047</ele>
        <time>2018-05-13T09:56:01.000Z</time>
      </trkpt>
      <trkpt lat="43.89677" lon="7.21774">
        <ele>1047</ele>
        <time>2018-05-13T09:56:02.000Z</time>
      </trkpt>
      <trkpt lat="43.89676" lon="7.21772">
        <ele>1047</ele>
        <time>2018-05-13T09:56:06.000Z</time>
      </trkpt>
      <trkpt lat="43.89675" lon="7.21773">
        <ele>1047</ele>
        <time>2018-05-13T09:56:08.000Z</time>
      </trkpt>
      <trkpt lat="43.89671" lon="7.21775">
        <ele>1047</ele>
        <time>2018-05-13T09:56:10.000Z</time>
      </trkpt>
      <trkpt lat="43.89667" lon="7.21772">
        <ele>1047</ele>
        <time>2018-05-13T09:56:12.000Z</time>
      </trkpt>
      <trkpt lat="43.89664" lon="7.2177">
        <ele>1037</ele>
        <time>2018-05-13T09:56:13.000Z</time>
      </trkpt>
      <trkpt lat="43.89662" lon="7.21768">
        <ele>1038</ele>
        <time>2018-05-13T09:56:14.000Z</time>
      </trkpt>
      <trkpt lat="43.89655" lon="7.21766">
        <ele>1037</ele>
        <time>2018-05-13T09:56:16.000Z</time>
      </trkpt>
      <trkpt lat="43.8965" lon="7.21763">
        <ele>1037</ele>
        <time>2018-05-13T09:56:18.000Z</time>
      </trkpt>
      <trkpt lat="43.89647" lon="7.21763">
        <ele>1036</ele>
        <time>2018-05-13T09:56:19.000Z</time>
      </trkpt>
      <trkpt lat="43.89643" lon="7.21764">
        <ele>1035</ele>
        <time>2018-05-13T09:56:20.000Z</time>
      </trkpt>
      <trkpt lat="43.89639" lon="7.21763">
        <ele>1034</ele>
        <time>2018-05-13T09:56:21.000Z</time>
      </trkpt>
      <trkpt lat="43.89637" lon="7.21761">
        <ele>1034</ele>
        <time>2018-05-13T09:56:22.000Z</time>
      </trkpt>
      <trkpt lat="43.89634" lon="7.2176">
        <ele>1033</ele>
        <time>2018-05-13T09:56:25.000Z</time>
      </trkpt>
      <trkpt lat="43.89632" lon="7.21759">
        <ele>1033</ele>
        <time>2018-05-13T09:56:26.000Z</time>
      </trkpt>
      <trkpt lat="43.89627" lon="7.21756">
        <ele>1033</ele>
        <time>2018-05-13T09:56:29.000Z</time>
      </trkpt>
      <trkpt lat="43.8962" lon="7.21752">
        <ele>1032</ele>
        <time>2018-05-13T09:56:32.000Z</time>
      </trkpt>
      <trkpt lat="43.89605" lon="7.21741">
        <ele>1037</ele>
        <time>2018-05-13T09:56:36.000Z</time>
      </trkpt>
      <trkpt lat="43.89597" lon="7.21731">
        <ele>1037</ele>
        <time>2018-05-13T09:56:38.000Z</time>
      </trkpt>
      <trkpt lat="43.8959" lon="7.2172">
        <ele>1038</ele>
        <time>2018-05-13T09:56:40.000Z</time>
      </trkpt>
      <trkpt lat="43.89586" lon="7.21715">
        <ele>1038</ele>
        <time>2018-05-13T09:56:41.000Z</time>
      </trkpt>
      <trkpt lat="43.89583" lon="7.21713">
        <ele>1033</ele>
        <time>2018-05-13T09:56:42.000Z</time>
      </trkpt>
      <trkpt lat="43.89577" lon="7.21705">
        <ele>1034</ele>
        <time>2018-05-13T09:56:44.000Z</time>
      </trkpt>
      <trkpt lat="43.89574" lon="7.21701">
        <ele>1034</ele>
        <time>2018-05-13T09:56:45.000Z</time>
      </trkpt>
      <trkpt lat="43.89571" lon="7.21697">
        <ele>1034</ele>
        <time>2018-05-13T09:56:46.000Z</time>
      </trkpt>
      <trkpt lat="43.89568" lon="7.21691">
        <ele>1035</ele>
        <time>2018-05-13T09:56:47.000Z</time>
      </trkpt>
      <trkpt lat="43.89567" lon="7.21685">
        <ele>1035</ele>
        <time>2018-05-13T09:56:48.000Z</time>
      </trkpt>
      <trkpt lat="43.89565" lon="7.21678">
        <ele>1035</ele>
        <time>2018-05-13T09:56:49.000Z</time>
      </trkpt>
      <trkpt lat="43.89563" lon="7.21674">
        <ele>1035</ele>
        <time>2018-05-13T09:56:50.000Z</time>
      </trkpt>
      <trkpt lat="43.89562" lon="7.21668">
        <ele>1035</ele>
        <time>2018-05-13T09:56:51.000Z</time>
      </trkpt>
      <trkpt lat="43.89561" lon="7.21661">
        <ele>1034</ele>
        <time>2018-05-13T09:56:52.000Z</time>
      </trkpt>
      <trkpt lat="43.8956" lon="7.21655">
        <ele>1033</ele>
        <time>2018-05-13T09:56:53.000Z</time>
      </trkpt>
      <trkpt lat="43.89559" lon="7.21649">
        <ele>1033</ele>
        <time>2018-05-13T09:56:54.000Z</time>
      </trkpt>
      <trkpt lat="43.89558" lon="7.21641">
        <ele>1032</ele>
        <time>2018-05-13T09:56:55.000Z</time>
      </trkpt>
      <trkpt lat="43.89558" lon="7.21636">
        <ele>1032</ele>
        <time>2018-05-13T09:56:56.000Z</time>
      </trkpt>
      <trkpt lat="43.89557" lon="7.21632">
        <ele>1032</ele>
        <time>2018-05-13T09:56:57.000Z</time>
      </trkpt>
      <trkpt lat="43.89557" lon="7.21628">
        <ele>1031</ele>
        <time>2018-05-13T09:56:58.000Z</time>
      </trkpt>
      <trkpt lat="43.89555" lon="7.21619">
        <ele>1031</ele>
        <time>2018-05-13T09:57:00.000Z</time>
      </trkpt>
      <trkpt lat="43.89554" lon="7.21609">
        <ele>1030</ele>
        <time>2018-05-13T09:57:02.000Z</time>
      </trkpt>
      <trkpt lat="43.89551" lon="7.21601">
        <ele>1029</ele>
        <time>2018-05-13T09:57:04.000Z</time>
      </trkpt>
      <trkpt lat="43.89548" lon="7.21592">
        <ele>1029</ele>
        <time>2018-05-13T09:57:06.000Z</time>
      </trkpt>
      <trkpt lat="43.89543" lon="7.21582">
        <ele>1020</ele>
        <time>2018-05-13T09:57:09.000Z</time>
      </trkpt>
      <trkpt lat="43.89542" lon="7.21579">
        <ele>1020</ele>
        <time>2018-05-13T09:57:11.000Z</time>
      </trkpt>
      <trkpt lat="43.89541" lon="7.21576">
        <ele>1020</ele>
        <time>2018-05-13T09:57:13.000Z</time>
      </trkpt>
      <trkpt lat="43.89538" lon="7.2157">
        <ele>1020</ele>
        <time>2018-05-13T09:57:16.000Z</time>
      </trkpt>
      <trkpt lat="43.89537" lon="7.21568">
        <ele>1020</ele>
        <time>2018-05-13T09:57:18.000Z</time>
      </trkpt>
      <trkpt lat="43.89535" lon="7.21558">
        <ele>1019</ele>
        <time>2018-05-13T09:57:21.000Z</time>
      </trkpt>
      <trkpt lat="43.89531" lon="7.21544">
        <ele>1018</ele>
        <time>2018-05-13T09:57:25.000Z</time>
      </trkpt>
      <trkpt lat="43.8953" lon="7.2154">
        <ele>1018</ele>
        <time>2018-05-13T09:57:26.000Z</time>
      </trkpt>
      <trkpt lat="43.89532" lon="7.21532">
        <ele>1017</ele>
        <time>2018-05-13T09:57:28.000Z</time>
      </trkpt>
      <trkpt lat="43.89533" lon="7.21529">
        <ele>1017</ele>
        <time>2018-05-13T09:57:29.000Z</time>
      </trkpt>
      <trkpt lat="43.89533" lon="7.21525">
        <ele>1016</ele>
        <time>2018-05-13T09:57:30.000Z</time>
      </trkpt>
      <trkpt lat="43.89532" lon="7.21521">
        <ele>1016</ele>
        <time>2018-05-13T09:57:31.000Z</time>
      </trkpt>
      <trkpt lat="43.89532" lon="7.21515">
        <ele>1016</ele>
        <time>2018-05-13T09:57:32.000Z</time>
      </trkpt>
      <trkpt lat="43.89532" lon="7.21509">
        <ele>1015</ele>
        <time>2018-05-13T09:57:33.000Z</time>
      </trkpt>
      <trkpt lat="43.89532" lon="7.21503">
        <ele>1015</ele>
        <time>2018-05-13T09:57:34.000Z</time>
      </trkpt>
      <trkpt lat="43.89531" lon="7.21497">
        <ele>1005</ele>
        <time>2018-05-13T09:57:35.000Z</time>
      </trkpt>
      <trkpt lat="43.89531" lon="7.21488">
        <ele>1004</ele>
        <time>2018-05-13T09:57:36.000Z</time>
      </trkpt>
      <trkpt lat="43.89533" lon="7.21483">
        <ele>1003</ele>
        <time>2018-05-13T09:57:37.000Z</time>
      </trkpt>
      <trkpt lat="43.89533" lon="7.21465">
        <ele>1001</ele>
        <time>2018-05-13T09:57:40.000Z</time>
      </trkpt>
      <trkpt lat="43.89534" lon="7.2146">
        <ele>1001</ele>
        <time>2018-05-13T09:57:41.000Z</time>
      </trkpt>
      <trkpt lat="43.89533" lon="7.21448">
        <ele>999</ele>
        <time>2018-05-13T09:57:43.000Z</time>
      </trkpt>
      <trkpt lat="43.89532" lon="7.21437">
        <ele>999</ele>
        <time>2018-05-13T09:57:45.000Z</time>
      </trkpt>
      <trkpt lat="43.89531" lon="7.21431">
        <ele>998</ele>
        <time>2018-05-13T09:57:46.000Z</time>
      </trkpt>
      <trkpt lat="43.8953" lon="7.21425">
        <ele>998</ele>
        <time>2018-05-13T09:57:47.000Z</time>
      </trkpt>
      <trkpt lat="43.89527" lon="7.21412">
        <ele>988</ele>
        <time>2018-05-13T09:57:49.000Z</time>
      </trkpt>
      <trkpt lat="43.89527" lon="7.21405">
        <ele>987</ele>
        <time>2018-05-13T09:57:50.000Z</time>
      </trkpt>
      <trkpt lat="43.89527" lon="7.214">
        <ele>987</ele>
        <time>2018-05-13T09:57:51.000Z</time>
      </trkpt>
      <trkpt lat="43.89527" lon="7.21397">
        <ele>986</ele>
        <time>2018-05-13T09:57:52.000Z</time>
      </trkpt>
      <trkpt lat="43.89528" lon="7.21391">
        <ele>986</ele>
        <time>2018-05-13T09:57:54.000Z</time>
      </trkpt>
      <trkpt lat="43.89527" lon="7.2139">
        <ele>985</ele>
        <time>2018-05-13T09:57:55.000Z</time>
      </trkpt>
      <trkpt lat="43.89527" lon="7.21388">
        <ele>985</ele>
        <time>2018-05-13T09:57:58.000Z</time>
      </trkpt>
      <trkpt lat="43.89526" lon="7.21387">
        <ele>985</ele>
        <time>2018-05-13T09:58:00.000Z</time>
      </trkpt>
      <trkpt lat="43.89526" lon="7.21386">
        <ele>985</ele>
        <time>2018-05-13T09:58:02.000Z</time>
      </trkpt>
      <trkpt lat="43.89524" lon="7.21382">
        <ele>985</ele>
        <time>2018-05-13T09:58:05.000Z</time>
      </trkpt>
      <trkpt lat="43.89522" lon="7.2138">
        <ele>985</ele>
        <time>2018-05-13T09:58:07.000Z</time>
      </trkpt>
      <trkpt lat="43.89522" lon="7.2138">
        <ele>985</ele>
        <time>2018-05-13T09:58:08.000Z</time>
      </trkpt>
      <trkpt lat="43.8952" lon="7.21378">
        <ele>985</ele>
        <time>2018-05-13T09:58:10.000Z</time>
      </trkpt>
      <trkpt lat="43.8952" lon="7.21377">
        <ele>985</ele>
        <time>2018-05-13T09:58:11.000Z</time>
      </trkpt>
      <trkpt lat="43.89518" lon="7.21374">
        <ele>985</ele>
        <time>2018-05-13T09:58:13.000Z</time>
      </trkpt>
      <trkpt lat="43.89517" lon="7.21371">
        <ele>985</ele>
        <time>2018-05-13T09:58:15.000Z</time>
      </trkpt>
      <trkpt lat="43.89517" lon="7.21369">
        <ele>985</ele>
        <time>2018-05-13T09:58:17.000Z</time>
      </trkpt>
      <trkpt lat="43.89518" lon="7.21367">
        <ele>985</ele>
        <time>2018-05-13T09:58:19.000Z</time>
      </trkpt>
      <trkpt lat="43.8952" lon="7.21352">
        <ele>984</ele>
        <time>2018-05-13T09:58:23.000Z</time>
      </trkpt>
      <trkpt lat="43.89517" lon="7.21327">
        <ele>975</ele>
        <time>2018-05-13T09:58:28.000Z</time>
      </trkpt>
      <trkpt lat="43.89518" lon="7.21321">
        <ele>973</ele>
        <time>2018-05-13T09:58:30.000Z</time>
      </trkpt>
      <trkpt lat="43.89519" lon="7.21309">
        <ele>969</ele>
        <time>2018-05-13T09:58:33.000Z</time>
      </trkpt>
      <trkpt lat="43.8952" lon="7.21301">
        <ele>967</ele>
        <time>2018-05-13T09:58:35.000Z</time>
      </trkpt>
      <trkpt lat="43.89519" lon="7.21289">
        <ele>964</ele>
        <time>2018-05-13T09:58:38.000Z</time>
      </trkpt>
      <trkpt lat="43.89519" lon="7.21286">
        <ele>964</ele>
        <time>2018-05-13T09:58:40.000Z</time>
      </trkpt>
      <trkpt lat="43.89519" lon="7.21284">
        <ele>964</ele>
        <time>2018-05-13T09:58:43.000Z</time>
      </trkpt>
      <trkpt lat="43.89518" lon="7.21276">
        <ele>963</ele>
        <time>2018-05-13T09:58:50.000Z</time>
      </trkpt>
      <trkpt lat="43.89517" lon="7.21272">
        <ele>963</ele>
        <time>2018-05-13T09:58:52.000Z</time>
      </trkpt>
      <trkpt lat="43.89517" lon="7.2127">
        <ele>963</ele>
        <time>2018-05-13T09:58:53.000Z</time>
      </trkpt>
      <trkpt lat="43.89515" lon="7.21267">
        <ele>964</ele>
        <time>2018-05-13T09:58:56.000Z</time>
      </trkpt>
      <trkpt lat="43.89515" lon="7.21266">
        <ele>964</ele>
        <time>2018-05-13T09:58:57.000Z</time>
      </trkpt>
      <trkpt lat="43.89513" lon="7.21262">
        <ele>964</ele>
        <time>2018-05-13T09:59:00.000Z</time>
      </trkpt>
      <trkpt lat="43.89514" lon="7.2126">
        <ele>964</ele>
        <time>2018-05-13T09:59:01.000Z</time>
      </trkpt>
      <trkpt lat="43.89514" lon="7.21259">
        <ele>964</ele>
        <time>2018-05-13T09:59:02.000Z</time>
      </trkpt>
      <trkpt lat="43.89514" lon="7.21257">
        <ele>964</ele>
        <time>2018-05-13T09:59:04.000Z</time>
      </trkpt>
      <trkpt lat="43.89513" lon="7.21254">
        <ele>964</ele>
        <time>2018-05-13T09:59:08.000Z</time>
      </trkpt>
      <trkpt lat="43.8951" lon="7.21242">
        <ele>956</ele>
        <time>2018-05-13T09:59:13.000Z</time>
      </trkpt>
      <trkpt lat="43.89509" lon="7.21239">
        <ele>955</ele>
        <time>2018-05-13T09:59:14.000Z</time>
      </trkpt>
      <trkpt lat="43.89506" lon="7.21238">
        <ele>955</ele>
        <time>2018-05-13T09:59:15.000Z</time>
      </trkpt>
      <trkpt lat="43.89502" lon="7.21231">
        <ele>952</ele>
        <time>2018-05-13T09:59:18.000Z</time>
      </trkpt>
      <trkpt lat="43.89501" lon="7.21229">
        <ele>951</ele>
        <time>2018-05-13T09:59:19.000Z</time>
      </trkpt>
      <trkpt lat="43.895" lon="7.21228">
        <ele>950</ele>
        <time>2018-05-13T09:59:22.000Z</time>
      </trkpt>
      <trkpt lat="43.895" lon="7.21226">
        <ele>970</ele>
        <time>2018-05-13T09:59:23.000Z</time>
      </trkpt>
      <trkpt lat="43.89497" lon="7.21224">
        <ele>970</ele>
        <time>2018-05-13T09:59:25.000Z</time>
      </trkpt>
      <trkpt lat="43.89496" lon="7.21224">
        <ele>970</ele>
        <time>2018-05-13T09:59:27.000Z</time>
      </trkpt>
      <trkpt lat="43.89495" lon="7.21224">
        <ele>970</ele>
        <time>2018-05-13T09:59:29.000Z</time>
      </trkpt>
      <trkpt lat="43.89494" lon="7.21223">
        <ele>970</ele>
        <time>2018-05-13T09:59:30.000Z</time>
      </trkpt>
      <trkpt lat="43.89492" lon="7.21219">
        <ele>970</ele>
        <time>2018-05-13T09:59:33.000Z</time>
      </trkpt>
      <trkpt lat="43.8949" lon="7.21215">
        <ele>969</ele>
        <time>2018-05-13T09:59:37.000Z</time>
      </trkpt>
      <trkpt lat="43.89489" lon="7.21213">
        <ele>969</ele>
        <time>2018-05-13T09:59:40.000Z</time>
      </trkpt>
      <trkpt lat="43.89488" lon="7.21211">
        <ele>968</ele>
        <time>2018-05-13T09:59:41.000Z</time>
      </trkpt>
      <trkpt lat="43.8948" lon="7.21201">
        <ele>967</ele>
        <time>2018-05-13T09:59:45.000Z</time>
      </trkpt>
      <trkpt lat="43.89478" lon="7.21198">
        <ele>967</ele>
        <time>2018-05-13T09:59:46.000Z</time>
      </trkpt>
      <trkpt lat="43.89475" lon="7.21193">
        <ele>966</ele>
        <time>2018-05-13T09:59:48.000Z</time>
      </trkpt>
      <trkpt lat="43.89471" lon="7.21189">
        <ele>966</ele>
        <time>2018-05-13T09:59:50.000Z</time>
      </trkpt>
      <trkpt lat="43.89468" lon="7.21188">
        <ele>967</ele>
        <time>2018-05-13T09:59:51.000Z</time>
      </trkpt>
      <trkpt lat="43.89463" lon="7.21183">
        <ele>967</ele>
        <time>2018-05-13T09:59:53.000Z</time>
      </trkpt>
      <trkpt lat="43.8946" lon="7.21178">
        <ele>967</ele>
        <time>2018-05-13T09:59:55.000Z</time>
      </trkpt>
      <trkpt lat="43.8945" lon="7.21172">
        <ele>969</ele>
        <time>2018-05-13T09:59:59.000Z</time>
      </trkpt>
      <trkpt lat="43.89447" lon="7.2117">
        <ele>969</ele>
        <time>2018-05-13T10:00:00.000Z</time>
      </trkpt>
      <trkpt lat="43.89436" lon="7.21163">
        <ele>953</ele>
        <time>2018-05-13T10:00:04.000Z</time>
      </trkpt>
      <trkpt lat="43.89428" lon="7.21157">
        <ele>955</ele>
        <time>2018-05-13T10:00:06.000Z</time>
      </trkpt>
      <trkpt lat="43.8942" lon="7.21148">
        <ele>953</ele>
        <time>2018-05-13T10:00:08.000Z</time>
      </trkpt>
      <trkpt lat="43.89413" lon="7.21138">
        <ele>963</ele>
        <time>2018-05-13T10:00:11.000Z</time>
      </trkpt>
      <trkpt lat="43.8941" lon="7.21135">
        <ele>962</ele>
        <time>2018-05-13T10:00:12.000Z</time>
      </trkpt>
      <trkpt lat="43.89404" lon="7.21128">
        <ele>961</ele>
        <time>2018-05-13T10:00:14.000Z</time>
      </trkpt>
      <trkpt lat="43.89399" lon="7.21124">
        <ele>960</ele>
        <time>2018-05-13T10:00:16.000Z</time>
      </trkpt>
      <trkpt lat="43.89396" lon="7.21121">
        <ele>960</ele>
        <time>2018-05-13T10:00:18.000Z</time>
      </trkpt>
      <trkpt lat="43.89392" lon="7.21116">
        <ele>959</ele>
        <time>2018-05-13T10:00:20.000Z</time>
      </trkpt>
      <trkpt lat="43.8939" lon="7.21114">
        <ele>959</ele>
        <time>2018-05-13T10:00:21.000Z</time>
      </trkpt>
      <trkpt lat="43.89372" lon="7.21097">
        <ele>959</ele>
        <time>2018-05-13T10:00:27.000Z</time>
      </trkpt>
      <trkpt lat="43.8936" lon="7.21088">
        <ele>959</ele>
        <time>2018-05-13T10:00:30.000Z</time>
      </trkpt>
      <trkpt lat="43.8935" lon="7.21082">
        <ele>945</ele>
        <time>2018-05-13T10:00:32.000Z</time>
      </trkpt>
      <trkpt lat="43.89345" lon="7.21079">
        <ele>946</ele>
        <time>2018-05-13T10:00:33.000Z</time>
      </trkpt>
      <trkpt lat="43.89337" lon="7.21073">
        <ele>947</ele>
        <time>2018-05-13T10:00:35.000Z</time>
      </trkpt>
      <trkpt lat="43.89329" lon="7.21068">
        <ele>950</ele>
        <time>2018-05-13T10:00:37.000Z</time>
      </trkpt>
      <trkpt lat="43.89324" lon="7.21063">
        <ele>949</ele>
        <time>2018-05-13T10:00:39.000Z</time>
      </trkpt>
      <trkpt lat="43.8932" lon="7.21061">
        <ele>948</ele>
        <time>2018-05-13T10:00:40.000Z</time>
      </trkpt>
      <trkpt lat="43.89317" lon="7.2106">
        <ele>948</ele>
        <time>2018-05-13T10:00:41.000Z</time>
      </trkpt>
      <trkpt lat="43.8931" lon="7.21053">
        <ele>947</ele>
        <time>2018-05-13T10:00:43.000Z</time>
      </trkpt>
      <trkpt lat="43.89301" lon="7.21046">
        <ele>946</ele>
        <time>2018-05-13T10:00:45.000Z</time>
      </trkpt>
      <trkpt lat="43.8929" lon="7.21039">
        <ele>945</ele>
        <time>2018-05-13T10:00:47.000Z</time>
      </trkpt>
      <trkpt lat="43.89285" lon="7.21037">
        <ele>945</ele>
        <time>2018-05-13T10:00:48.000Z</time>
      </trkpt>
      <trkpt lat="43.8928" lon="7.21034">
        <ele>944</ele>
        <time>2018-05-13T10:00:49.000Z</time>
      </trkpt>
      <trkpt lat="43.89276" lon="7.21033">
        <ele>944</ele>
        <time>2018-05-13T10:00:50.000Z</time>
      </trkpt>
      <trkpt lat="43.89272" lon="7.21031">
        <ele>944</ele>
        <time>2018-05-13T10:00:51.000Z</time>
      </trkpt>
      <trkpt lat="43.89255" lon="7.21023">
        <ele>941</ele>
        <time>2018-05-13T10:00:55.000Z</time>
      </trkpt>
      <trkpt lat="43.89249" lon="7.2102">
        <ele>943</ele>
        <time>2018-05-13T10:00:56.000Z</time>
      </trkpt>
      <trkpt lat="43.8924" lon="7.21016">
        <ele>942</ele>
        <time>2018-05-13T10:00:58.000Z</time>
      </trkpt>
      <trkpt lat="43.89235" lon="7.21012">
        <ele>942</ele>
        <time>2018-05-13T10:01:00.000Z</time>
      </trkpt>
      <trkpt lat="43.89231" lon="7.21007">
        <ele>942</ele>
        <time>2018-05-13T10:01:02.000Z</time>
      </trkpt>
      <trkpt lat="43.89226" lon="7.21003">
        <ele>942</ele>
        <time>2018-05-13T10:01:04.000Z</time>
      </trkpt>
      <trkpt lat="43.89223" lon="7.20998">
        <ele>928</ele>
        <time>2018-05-13T10:01:05.000Z</time>
      </trkpt>
      <trkpt lat="43.89219" lon="7.20996">
        <ele>928</ele>
        <time>2018-05-13T10:01:06.000Z</time>
      </trkpt>
      <trkpt lat="43.89213" lon="7.2099">
        <ele>927</ele>
        <time>2018-05-13T10:01:08.000Z</time>
      </trkpt>
      <trkpt lat="43.8921" lon="7.20987">
        <ele>927</ele>
        <time>2018-05-13T10:01:09.000Z</time>
      </trkpt>
      <trkpt lat="43.89208" lon="7.20983">
        <ele>927</ele>
        <time>2018-05-13T10:01:10.000Z</time>
      </trkpt>
      <trkpt lat="43.89201" lon="7.20975">
        <ele>926</ele>
        <time>2018-05-13T10:01:12.000Z</time>
      </trkpt>
      <trkpt lat="43.89197" lon="7.20972">
        <ele>926</ele>
        <time>2018-05-13T10:01:13.000Z</time>
      </trkpt>
      <trkpt lat="43.89188" lon="7.20965">
        <ele>925</ele>
        <time>2018-05-13T10:01:15.000Z</time>
      </trkpt>
      <trkpt lat="43.89178" lon="7.2096">
        <ele>925</ele>
        <time>2018-05-13T10:01:17.000Z</time>
      </trkpt>
      <trkpt lat="43.89171" lon="7.20957">
        <ele>924</ele>
        <time>2018-05-13T10:01:18.000Z</time>
      </trkpt>
      <trkpt lat="43.89158" lon="7.20954">
        <ele>925</ele>
        <time>2018-05-13T10:01:20.000Z</time>
      </trkpt>
      <trkpt lat="43.89145" lon="7.20952">
        <ele>925</ele>
        <time>2018-05-13T10:01:22.000Z</time>
      </trkpt>
      <trkpt lat="43.89126" lon="7.20947">
        <ele>925</ele>
        <time>2018-05-13T10:01:25.000Z</time>
      </trkpt>
      <trkpt lat="43.89114" lon="7.20945">
        <ele>925</ele>
        <time>2018-05-13T10:01:27.000Z</time>
      </trkpt>
      <trkpt lat="43.89109" lon="7.20944">
        <ele>925</ele>
        <time>2018-05-13T10:01:28.000Z</time>
      </trkpt>
      <trkpt lat="43.89104" lon="7.20942">
        <ele>924</ele>
        <time>2018-05-13T10:01:29.000Z</time>
      </trkpt>
      <trkpt lat="43.89094" lon="7.20933">
        <ele>923</ele>
        <time>2018-05-13T10:01:32.000Z</time>
      </trkpt>
      <trkpt lat="43.89072" lon="7.20914">
        <ele>916</ele>
        <time>2018-05-13T10:01:36.000Z</time>
      </trkpt>
      <trkpt lat="43.89068" lon="7.20909">
        <ele>915</ele>
        <time>2018-05-13T10:01:37.000Z</time>
      </trkpt>
      <trkpt lat="43.89065" lon="7.20903">
        <ele>915</ele>
        <time>2018-05-13T10:01:38.000Z</time>
      </trkpt>
      <trkpt lat="43.89057" lon="7.20894">
        <ele>914</ele>
        <time>2018-05-13T10:01:40.000Z</time>
      </trkpt>
      <trkpt lat="43.89049" lon="7.20881">
        <ele>913</ele>
        <time>2018-05-13T10:01:42.000Z</time>
      </trkpt>
      <trkpt lat="43.89042" lon="7.20857">
        <ele>913</ele>
        <time>2018-05-13T10:01:46.000Z</time>
      </trkpt>
      <trkpt lat="43.8904" lon="7.20841">
        <ele>912</ele>
        <time>2018-05-13T10:01:50.000Z</time>
      </trkpt>
      <trkpt lat="43.89037" lon="7.20835">
        <ele>912</ele>
        <time>2018-05-13T10:01:51.000Z</time>
      </trkpt>
      <trkpt lat="43.89031" lon="7.20822">
        <ele>906</ele>
        <time>2018-05-13T10:01:55.000Z</time>
      </trkpt>
      <trkpt lat="43.8903" lon="7.2082">
        <ele>906</ele>
        <time>2018-05-13T10:01:56.000Z</time>
      </trkpt>
      <trkpt lat="43.89025" lon="7.2081">
        <ele>905</ele>
        <time>2018-05-13T10:02:00.000Z</time>
      </trkpt>
      <trkpt lat="43.89016" lon="7.208">
        <ele>904</ele>
        <time>2018-05-13T10:02:04.000Z</time>
      </trkpt>
      <trkpt lat="43.89016" lon="7.20799">
        <ele>904</ele>
        <time>2018-05-13T10:02:05.000Z</time>
      </trkpt>
      <trkpt lat="43.89001" lon="7.20792">
        <ele>903</ele>
        <time>2018-05-13T10:02:10.000Z</time>
      </trkpt>
      <trkpt lat="43.88994" lon="7.20791">
        <ele>903</ele>
        <time>2018-05-13T10:02:12.000Z</time>
      </trkpt>
      <trkpt lat="43.88987" lon="7.20786">
        <ele>903</ele>
        <time>2018-05-13T10:02:14.000Z</time>
      </trkpt>
      <trkpt lat="43.88977" lon="7.20783">
        <ele>902</ele>
        <time>2018-05-13T10:02:16.000Z</time>
      </trkpt>
      <trkpt lat="43.88972" lon="7.2078">
        <ele>902</ele>
        <time>2018-05-13T10:02:18.000Z</time>
      </trkpt>
      <trkpt lat="43.88968" lon="7.20777">
        <ele>902</ele>
        <time>2018-05-13T10:02:20.000Z</time>
      </trkpt>
      <trkpt lat="43.8896" lon="7.20773">
        <ele>901</ele>
        <time>2018-05-13T10:02:22.000Z</time>
      </trkpt>
      <trkpt lat="43.88956" lon="7.20772">
        <ele>901</ele>
        <time>2018-05-13T10:02:23.000Z</time>
      </trkpt>
      <trkpt lat="43.88955" lon="7.2077">
        <ele>901</ele>
        <time>2018-05-13T10:02:24.000Z</time>
      </trkpt>
      <trkpt lat="43.88954" lon="7.20767">
        <ele>901</ele>
        <time>2018-05-13T10:02:25.000Z</time>
      </trkpt>
      <trkpt lat="43.88952" lon="7.20764">
        <ele>901</ele>
        <time>2018-05-13T10:02:26.000Z</time>
      </trkpt>
      <trkpt lat="43.88948" lon="7.20761">
        <ele>900</ele>
        <time>2018-05-13T10:02:27.000Z</time>
      </trkpt>
      <trkpt lat="43.8894" lon="7.20754">
        <ele>899</ele>
        <time>2018-05-13T10:02:29.000Z</time>
      </trkpt>
      <trkpt lat="43.88938" lon="7.20751">
        <ele>899</ele>
        <time>2018-05-13T10:02:30.000Z</time>
      </trkpt>
      <trkpt lat="43.88935" lon="7.20748">
        <ele>888</ele>
        <time>2018-05-13T10:02:31.000Z</time>
      </trkpt>
      <trkpt lat="43.88933" lon="7.20746">
        <ele>888</ele>
        <time>2018-05-13T10:02:32.000Z</time>
      </trkpt>
      <trkpt lat="43.8893" lon="7.20743">
        <ele>888</ele>
        <time>2018-05-13T10:02:34.000Z</time>
      </trkpt>
      <trkpt lat="43.88929" lon="7.20741">
        <ele>888</ele>
        <time>2018-05-13T10:02:35.000Z</time>
      </trkpt>
      <trkpt lat="43.88929" lon="7.20742">
        <ele>888</ele>
        <time>2018-05-13T10:02:36.000Z</time>
      </trkpt>
      <trkpt lat="43.88928" lon="7.20742">
        <ele>888</ele>
        <time>2018-05-13T10:02:38.000Z</time>
      </trkpt>
      <trkpt lat="43.88927" lon="7.20741">
        <ele>888</ele>
        <time>2018-05-13T10:02:40.000Z</time>
      </trkpt>
      <trkpt lat="43.88926" lon="7.20742">
        <ele>889</ele>
        <time>2018-05-13T10:02:44.000Z</time>
      </trkpt>
      <trkpt lat="43.88923" lon="7.20739">
        <ele>889</ele>
        <time>2018-05-13T10:02:49.000Z</time>
      </trkpt>
      <trkpt lat="43.88922" lon="7.20738">
        <ele>888</ele>
        <time>2018-05-13T10:02:51.000Z</time>
      </trkpt>
      <trkpt lat="43.88921" lon="7.20736">
        <ele>888</ele>
        <time>2018-05-13T10:02:52.000Z</time>
      </trkpt>
      <trkpt lat="43.88916" lon="7.20731">
        <ele>883</ele>
        <time>2018-05-13T10:02:56.000Z</time>
      </trkpt>
      <trkpt lat="43.88916" lon="7.20728">
        <ele>882</ele>
        <time>2018-05-13T10:02:57.000Z</time>
      </trkpt>
      <trkpt lat="43.88913" lon="7.20722">
        <ele>879</ele>
        <time>2018-05-13T10:02:59.000Z</time>
      </trkpt>
      <trkpt lat="43.88911" lon="7.2072">
        <ele>879</ele>
        <time>2018-05-13T10:03:00.000Z</time>
      </trkpt>
      <trkpt lat="43.88909" lon="7.20718">
        <ele>878</ele>
        <time>2018-05-13T10:03:01.000Z</time>
      </trkpt>
      <trkpt lat="43.88903" lon="7.20713">
        <ele>876</ele>
        <time>2018-05-13T10:03:03.000Z</time>
      </trkpt>
      <trkpt lat="43.88899" lon="7.2071">
        <ele>875</ele>
        <time>2018-05-13T10:03:04.000Z</time>
      </trkpt>
      <trkpt lat="43.88895" lon="7.20707">
        <ele>874</ele>
        <time>2018-05-13T10:03:05.000Z</time>
      </trkpt>
      <trkpt lat="43.88891" lon="7.20704">
        <ele>874</ele>
        <time>2018-05-13T10:03:06.000Z</time>
      </trkpt>
      <trkpt lat="43.8889" lon="7.20703">
        <ele>873</ele>
        <time>2018-05-13T10:03:07.000Z</time>
      </trkpt>
      <trkpt lat="43.88887" lon="7.20701">
        <ele>873</ele>
        <time>2018-05-13T10:03:08.000Z</time>
      </trkpt>
      <trkpt lat="43.88879" lon="7.20696">
        <ele>872</ele>
        <time>2018-05-13T10:03:10.000Z</time>
      </trkpt>
      <trkpt lat="43.88871" lon="7.2069">
        <ele>872</ele>
        <time>2018-05-13T10:03:12.000Z</time>
      </trkpt>
      <trkpt lat="43.88865" lon="7.20688">
        <ele>872</ele>
        <time>2018-05-13T10:03:13.000Z</time>
      </trkpt>
      <trkpt lat="43.8886" lon="7.20687">
        <ele>871</ele>
        <time>2018-05-13T10:03:14.000Z</time>
      </trkpt>
      <trkpt lat="43.88854" lon="7.20686">
        <ele>871</ele>
        <time>2018-05-13T10:03:15.000Z</time>
      </trkpt>
      <trkpt lat="43.88849" lon="7.20683">
        <ele>871</ele>
        <time>2018-05-13T10:03:16.000Z</time>
      </trkpt>
      <trkpt lat="43.88843" lon="7.20672">
        <ele>870</ele>
        <time>2018-05-13T10:03:18.000Z</time>
      </trkpt>
      <trkpt lat="43.88842" lon="7.20666">
        <ele>867</ele>
        <time>2018-05-13T10:03:19.000Z</time>
      </trkpt>
      <trkpt lat="43.88845" lon="7.2066">
        <ele>866</ele>
        <time>2018-05-13T10:03:20.000Z</time>
      </trkpt>
      <trkpt lat="43.88843" lon="7.20647">
        <ele>865</ele>
        <time>2018-05-13T10:03:22.000Z</time>
      </trkpt>
      <trkpt lat="43.88844" lon="7.20639">
        <ele>865</ele>
        <time>2018-05-13T10:03:23.000Z</time>
      </trkpt>
      <trkpt lat="43.88843" lon="7.2063">
        <ele>864</ele>
        <time>2018-05-13T10:03:24.000Z</time>
      </trkpt>
      <trkpt lat="43.88844" lon="7.20619">
        <ele>864</ele>
        <time>2018-05-13T10:03:25.000Z</time>
      </trkpt>
      <trkpt lat="43.88845" lon="7.2061">
        <ele>865</ele>
        <time>2018-05-13T10:03:26.000Z</time>
      </trkpt>
      <trkpt lat="43.88852" lon="7.20582">
        <ele>860</ele>
        <time>2018-05-13T10:03:29.000Z</time>
      </trkpt>
      <trkpt lat="43.88855" lon="7.20574">
        <ele>858</ele>
        <time>2018-05-13T10:03:30.000Z</time>
      </trkpt>
      <trkpt lat="43.88857" lon="7.20567">
        <ele>856</ele>
        <time>2018-05-13T10:03:31.000Z</time>
      </trkpt>
      <trkpt lat="43.88859" lon="7.2056">
        <ele>854</ele>
        <time>2018-05-13T10:03:32.000Z</time>
      </trkpt>
      <trkpt lat="43.88861" lon="7.20547">
        <ele>852</ele>
        <time>2018-05-13T10:03:34.000Z</time>
      </trkpt>
      <trkpt lat="43.88859" lon="7.20533">
        <ele>851</ele>
        <time>2018-05-13T10:03:36.000Z</time>
      </trkpt>
      <trkpt lat="43.88852" lon="7.2052">
        <ele>851</ele>
        <time>2018-05-13T10:03:38.000Z</time>
      </trkpt>
      <trkpt lat="43.88848" lon="7.20515">
        <ele>851</ele>
        <time>2018-05-13T10:03:39.000Z</time>
      </trkpt>
      <trkpt lat="43.88843" lon="7.2051">
        <ele>852</ele>
        <time>2018-05-13T10:03:40.000Z</time>
      </trkpt>
      <trkpt lat="43.88838" lon="7.20506">
        <ele>853</ele>
        <time>2018-05-13T10:03:41.000Z</time>
      </trkpt>
      <trkpt lat="43.88827" lon="7.20496">
        <ele>852</ele>
        <time>2018-05-13T10:03:43.000Z</time>
      </trkpt>
      <trkpt lat="43.88821" lon="7.20492">
        <ele>850</ele>
        <time>2018-05-13T10:03:44.000Z</time>
      </trkpt>
      <trkpt lat="43.88816" lon="7.20487">
        <ele>849</ele>
        <time>2018-05-13T10:03:45.000Z</time>
      </trkpt>
      <trkpt lat="43.8881" lon="7.20483">
        <ele>848</ele>
        <time>2018-05-13T10:03:46.000Z</time>
      </trkpt>
      <trkpt lat="43.88799" lon="7.20474">
        <ele>847</ele>
        <time>2018-05-13T10:03:48.000Z</time>
      </trkpt>
      <trkpt lat="43.88794" lon="7.20471">
        <ele>847</ele>
        <time>2018-05-13T10:03:49.000Z</time>
      </trkpt>
      <trkpt lat="43.88789" lon="7.20468">
        <ele>847</ele>
        <time>2018-05-13T10:03:50.000Z</time>
      </trkpt>
      <trkpt lat="43.88783" lon="7.20466">
        <ele>847</ele>
        <time>2018-05-13T10:03:51.000Z</time>
      </trkpt>
      <trkpt lat="43.8877" lon="7.20461">
        <ele>847</ele>
        <time>2018-05-13T10:03:53.000Z</time>
      </trkpt>
      <trkpt lat="43.88762" lon="7.20458">
        <ele>847</ele>
        <time>2018-05-13T10:03:54.000Z</time>
      </trkpt>
      <trkpt lat="43.88755" lon="7.20455">
        <ele>847</ele>
        <time>2018-05-13T10:03:55.000Z</time>
      </trkpt>
      <trkpt lat="43.88747" lon="7.20453">
        <ele>845</ele>
        <time>2018-05-13T10:03:56.000Z</time>
      </trkpt>
      <trkpt lat="43.8874" lon="7.20451">
        <ele>845</ele>
        <time>2018-05-13T10:03:57.000Z</time>
      </trkpt>
      <trkpt lat="43.88733" lon="7.20449">
        <ele>845</ele>
        <time>2018-05-13T10:03:58.000Z</time>
      </trkpt>
      <trkpt lat="43.88726" lon="7.20447">
        <ele>844</ele>
        <time>2018-05-13T10:03:59.000Z</time>
      </trkpt>
      <trkpt lat="43.88719" lon="7.2045">
        <ele>844</ele>
        <time>2018-05-13T10:04:00.000Z</time>
      </trkpt>
      <trkpt lat="43.88713" lon="7.20452">
        <ele>843</ele>
        <time>2018-05-13T10:04:01.000Z</time>
      </trkpt>
      <trkpt lat="43.88706" lon="7.20454">
        <ele>843</ele>
        <time>2018-05-13T10:04:02.000Z</time>
      </trkpt>
      <trkpt lat="43.88699" lon="7.20454">
        <ele>842</ele>
        <time>2018-05-13T10:04:03.000Z</time>
      </trkpt>
      <trkpt lat="43.88688" lon="7.20455">
        <ele>842</ele>
        <time>2018-05-13T10:04:05.000Z</time>
      </trkpt>
      <trkpt lat="43.88683" lon="7.20456">
        <ele>841</ele>
        <time>2018-05-13T10:04:06.000Z</time>
      </trkpt>
      <trkpt lat="43.88678" lon="7.20456">
        <ele>841</ele>
        <time>2018-05-13T10:04:07.000Z</time>
      </trkpt>
      <trkpt lat="43.88674" lon="7.20458">
        <ele>841</ele>
        <time>2018-05-13T10:04:08.000Z</time>
      </trkpt>
      <trkpt lat="43.88671" lon="7.2046">
        <ele>840</ele>
        <time>2018-05-13T10:04:09.000Z</time>
      </trkpt>
      <trkpt lat="43.88665" lon="7.20461">
        <ele>832</ele>
        <time>2018-05-13T10:04:10.000Z</time>
      </trkpt>
      <trkpt lat="43.88656" lon="7.20463">
        <ele>831</ele>
        <time>2018-05-13T10:04:12.000Z</time>
      </trkpt>
      <trkpt lat="43.88651" lon="7.20465">
        <ele>830</ele>
        <time>2018-05-13T10:04:13.000Z</time>
      </trkpt>
      <trkpt lat="43.88637" lon="7.20469">
        <ele>829</ele>
        <time>2018-05-13T10:04:16.000Z</time>
      </trkpt>
      <trkpt lat="43.88631" lon="7.2047">
        <ele>828</ele>
        <time>2018-05-13T10:04:17.000Z</time>
      </trkpt>
      <trkpt lat="43.88621" lon="7.20472">
        <ele>827</ele>
        <time>2018-05-13T10:04:19.000Z</time>
      </trkpt>
      <trkpt lat="43.88609" lon="7.20472">
        <ele>825</ele>
        <time>2018-05-13T10:04:21.000Z</time>
      </trkpt>
      <trkpt lat="43.88603" lon="7.20472">
        <ele>824</ele>
        <time>2018-05-13T10:04:22.000Z</time>
      </trkpt>
      <trkpt lat="43.88599" lon="7.20471">
        <ele>824</ele>
        <time>2018-05-13T10:04:23.000Z</time>
      </trkpt>
      <trkpt lat="43.88593" lon="7.2047">
        <ele>824</ele>
        <time>2018-05-13T10:04:25.000Z</time>
      </trkpt>
      <trkpt lat="43.88592" lon="7.2047">
        <ele>824</ele>
        <time>2018-05-13T10:04:28.000Z</time>
      </trkpt>
      <trkpt lat="43.8859" lon="7.2047">
        <ele>823</ele>
        <time>2018-05-13T10:04:30.000Z</time>
      </trkpt>
      <trkpt lat="43.88587" lon="7.2047">
        <ele>823</ele>
        <time>2018-05-13T10:04:33.000Z</time>
      </trkpt>
      <trkpt lat="43.88586" lon="7.2047">
        <ele>823</ele>
        <time>2018-05-13T10:04:38.000Z</time>
      </trkpt>
      <trkpt lat="43.8858" lon="7.2047">
        <ele>819</ele>
        <time>2018-05-13T10:04:43.000Z</time>
      </trkpt>
      <trkpt lat="43.88576" lon="7.20469">
        <ele>820</ele>
        <time>2018-05-13T10:04:48.000Z</time>
      </trkpt>
      <trkpt lat="43.88571" lon="7.20468">
        <ele>820</ele>
        <time>2018-05-13T10:04:50.000Z</time>
      </trkpt>
      <trkpt lat="43.88565" lon="7.20469">
        <ele>820</ele>
        <time>2018-05-13T10:04:52.000Z</time>
      </trkpt>
      <trkpt lat="43.88555" lon="7.20471">
        <ele>820</ele>
        <time>2018-05-13T10:04:55.000Z</time>
      </trkpt>
      <trkpt lat="43.88548" lon="7.20473">
        <ele>820</ele>
        <time>2018-05-13T10:04:57.000Z</time>
      </trkpt>
      <trkpt lat="43.88545" lon="7.20473">
        <ele>820</ele>
        <time>2018-05-13T10:04:58.000Z</time>
      </trkpt>
      <trkpt lat="43.8854" lon="7.20475">
        <ele>820</ele>
        <time>2018-05-13T10:04:59.000Z</time>
      </trkpt>
      <trkpt lat="43.8853" lon="7.20476">
        <ele>819</ele>
        <time>2018-05-13T10:05:01.000Z</time>
      </trkpt>
      <trkpt lat="43.88526" lon="7.20477">
        <ele>819</ele>
        <time>2018-05-13T10:05:02.000Z</time>
      </trkpt>
      <trkpt lat="43.88514" lon="7.20481">
        <ele>816</ele>
        <time>2018-05-13T10:05:05.000Z</time>
      </trkpt>
      <trkpt lat="43.88508" lon="7.20481">
        <ele>816</ele>
        <time>2018-05-13T10:05:06.000Z</time>
      </trkpt>
      <trkpt lat="43.88497" lon="7.20478">
        <ele>823</ele>
        <time>2018-05-13T10:05:08.000Z</time>
      </trkpt>
      <trkpt lat="43.88492" lon="7.20475">
        <ele>824</ele>
        <time>2018-05-13T10:05:09.000Z</time>
      </trkpt>
      <trkpt lat="43.88485" lon="7.20472">
        <ele>827</ele>
        <time>2018-05-13T10:05:12.000Z</time>
      </trkpt>
      <trkpt lat="43.88472" lon="7.20477">
        <ele>828</ele>
        <time>2018-05-13T10:05:18.000Z</time>
      </trkpt>
      <trkpt lat="43.88465" lon="7.2048">
        <ele>829</ele>
        <time>2018-05-13T10:05:20.000Z</time>
      </trkpt>
      <trkpt lat="43.8846" lon="7.20487">
        <ele>829</ele>
        <time>2018-05-13T10:05:22.000Z</time>
      </trkpt>
      <trkpt lat="43.88459" lon="7.20493">
        <ele>829</ele>
        <time>2018-05-13T10:05:23.000Z</time>
      </trkpt>
      <trkpt lat="43.88456" lon="7.20496">
        <ele>829</ele>
        <time>2018-05-13T10:05:24.000Z</time>
      </trkpt>
      <trkpt lat="43.88448" lon="7.20504">
        <ele>811</ele>
        <time>2018-05-13T10:05:26.000Z</time>
      </trkpt>
      <trkpt lat="43.88442" lon="7.20515">
        <ele>812</ele>
        <time>2018-05-13T10:05:29.000Z</time>
      </trkpt>
      <trkpt lat="43.8844" lon="7.20517">
        <ele>812</ele>
        <time>2018-05-13T10:05:30.000Z</time>
      </trkpt>
      <trkpt lat="43.88433" lon="7.20524">
        <ele>812</ele>
        <time>2018-05-13T10:05:33.000Z</time>
      </trkpt>
      <trkpt lat="43.88431" lon="7.20527">
        <ele>811</ele>
        <time>2018-05-13T10:05:34.000Z</time>
      </trkpt>
      <trkpt lat="43.88419" lon="7.20541">
        <ele>808</ele>
        <time>2018-05-13T10:05:39.000Z</time>
      </trkpt>
      <trkpt lat="43.88408" lon="7.2055">
        <ele>821</ele>
        <time>2018-05-13T10:05:43.000Z</time>
      </trkpt>
      <trkpt lat="43.88396" lon="7.20558">
        <ele>820</ele>
        <time>2018-05-13T10:05:47.000Z</time>
      </trkpt>
      <trkpt lat="43.88388" lon="7.20563">
        <ele>821</ele>
        <time>2018-05-13T10:05:50.000Z</time>
      </trkpt>
      <trkpt lat="43.88384" lon="7.20566">
        <ele>821</ele>
        <time>2018-05-13T10:05:52.000Z</time>
      </trkpt>
      <trkpt lat="43.88381" lon="7.2057">
        <ele>821</ele>
        <time>2018-05-13T10:05:54.000Z</time>
      </trkpt>
      <trkpt lat="43.88366" lon="7.2058">
        <ele>823</ele>
        <time>2018-05-13T10:05:59.000Z</time>
      </trkpt>
      <trkpt lat="43.88351" lon="7.20587">
        <ele>811</ele>
        <time>2018-05-13T10:06:05.000Z</time>
      </trkpt>
      <trkpt lat="43.88333" lon="7.20591">
        <ele>820</ele>
        <time>2018-05-13T10:06:11.000Z</time>
      </trkpt>
      <trkpt lat="43.88323" lon="7.20594">
        <ele>818</ele>
        <time>2018-05-13T10:06:15.000Z</time>
      </trkpt>
      <trkpt lat="43.88321" lon="7.20595">
        <ele>817</ele>
        <time>2018-05-13T10:06:16.000Z</time>
      </trkpt>
      <trkpt lat="43.88314" lon="7.20596">
        <ele>816</ele>
        <time>2018-05-13T10:06:20.000Z</time>
      </trkpt>
      <trkpt lat="43.88305" lon="7.20597">
        <ele>816</ele>
        <time>2018-05-13T10:06:24.000Z</time>
      </trkpt>
      <trkpt lat="43.88293" lon="7.20601">
        <ele>815</ele>
        <time>2018-05-13T10:06:29.000Z</time>
      </trkpt>
      <trkpt lat="43.88289" lon="7.20602">
        <ele>815</ele>
        <time>2018-05-13T10:06:31.000Z</time>
      </trkpt>
      <trkpt lat="43.88275" lon="7.20609">
        <ele>815</ele>
        <time>2018-05-13T10:06:34.000Z</time>
      </trkpt>
      <trkpt lat="43.8826" lon="7.20618">
        <ele>814</ele>
        <time>2018-05-13T10:06:37.000Z</time>
      </trkpt>
      <trkpt lat="43.88255" lon="7.2062">
        <ele>814</ele>
        <time>2018-05-13T10:06:38.000Z</time>
      </trkpt>
      <trkpt lat="43.88249" lon="7.20622">
        <ele>815</ele>
        <time>2018-05-13T10:06:39.000Z</time>
      </trkpt>
      <trkpt lat="43.88244" lon="7.20622">
        <ele>815</ele>
        <time>2018-05-13T10:06:40.000Z</time>
      </trkpt>
      <trkpt lat="43.88238" lon="7.20623">
        <ele>814</ele>
        <time>2018-05-13T10:06:41.000Z</time>
      </trkpt>
      <trkpt lat="43.88233" lon="7.20626">
        <ele>814</ele>
        <time>2018-05-13T10:06:42.000Z</time>
      </trkpt>
      <trkpt lat="43.88222" lon="7.20632">
        <ele>814</ele>
        <time>2018-05-13T10:06:44.000Z</time>
      </trkpt>
      <trkpt lat="43.88217" lon="7.20635">
        <ele>813</ele>
        <time>2018-05-13T10:06:45.000Z</time>
      </trkpt>
      <trkpt lat="43.88214" lon="7.2064">
        <ele>813</ele>
        <time>2018-05-13T10:06:46.000Z</time>
      </trkpt>
      <trkpt lat="43.88212" lon="7.2065">
        <ele>813</ele>
        <time>2018-05-13T10:06:48.000Z</time>
      </trkpt>
      <trkpt lat="43.88209" lon="7.20651">
        <ele>813</ele>
        <time>2018-05-13T10:06:49.000Z</time>
      </trkpt>
      <trkpt lat="43.88202" lon="7.20649">
        <ele>813</ele>
        <time>2018-05-13T10:06:51.000Z</time>
      </trkpt>
      <trkpt lat="43.88194" lon="7.20645">
        <ele>813</ele>
        <time>2018-05-13T10:06:53.000Z</time>
      </trkpt>
      <trkpt lat="43.8819" lon="7.20645">
        <ele>813</ele>
        <time>2018-05-13T10:06:54.000Z</time>
      </trkpt>
      <trkpt lat="43.88186" lon="7.20647">
        <ele>813</ele>
        <time>2018-05-13T10:06:55.000Z</time>
      </trkpt>
      <trkpt lat="43.88168" lon="7.20649">
        <ele>813</ele>
        <time>2018-05-13T10:07:00.000Z</time>
      </trkpt>
      <trkpt lat="43.88155" lon="7.20648">
        <ele>813</ele>
        <time>2018-05-13T10:07:02.000Z</time>
      </trkpt>
      <trkpt lat="43.88146" lon="7.20649">
        <ele>813</ele>
        <time>2018-05-13T10:07:04.000Z</time>
      </trkpt>
      <trkpt lat="43.88142" lon="7.20649">
        <ele>813</ele>
        <time>2018-05-13T10:07:05.000Z</time>
      </trkpt>
      <trkpt lat="43.88127" lon="7.20646">
        <ele>813</ele>
        <time>2018-05-13T10:07:08.000Z</time>
      </trkpt>
      <trkpt lat="43.88122" lon="7.20644">
        <ele>813</ele>
        <time>2018-05-13T10:07:09.000Z</time>
      </trkpt>
      <trkpt lat="43.88112" lon="7.20642">
        <ele>813</ele>
        <time>2018-05-13T10:07:11.000Z</time>
      </trkpt>
      <trkpt lat="43.88102" lon="7.20639">
        <ele>813</ele>
        <time>2018-05-13T10:07:13.000Z</time>
      </trkpt>
      <trkpt lat="43.88098" lon="7.20637">
        <ele>813</ele>
        <time>2018-05-13T10:07:14.000Z</time>
      </trkpt>
      <trkpt lat="43.88085" lon="7.20633">
        <ele>813</ele>
        <time>2018-05-13T10:07:17.000Z</time>
      </trkpt>
      <trkpt lat="43.88081" lon="7.20633">
        <ele>814</ele>
        <time>2018-05-13T10:07:18.000Z</time>
      </trkpt>
      <trkpt lat="43.88067" lon="7.20633">
        <ele>814</ele>
        <time>2018-05-13T10:07:22.000Z</time>
      </trkpt>
      <trkpt lat="43.88057" lon="7.20632">
        <ele>814</ele>
        <time>2018-05-13T10:07:25.000Z</time>
      </trkpt>
      <trkpt lat="43.88043" lon="7.20635">
        <ele>814</ele>
        <time>2018-05-13T10:07:29.000Z</time>
      </trkpt>
      <trkpt lat="43.88017" lon="7.20633">
        <ele>815</ele>
        <time>2018-05-13T10:07:36.000Z</time>
      </trkpt>
      <trkpt lat="43.87995" lon="7.20624">
        <ele>813</ele>
        <time>2018-05-13T10:07:42.000Z</time>
      </trkpt>
      <trkpt lat="43.8799" lon="7.20623">
        <ele>813</ele>
        <time>2018-05-13T10:07:43.000Z</time>
      </trkpt>
      <trkpt lat="43.87976" lon="7.2062">
        <ele>812</ele>
        <time>2018-05-13T10:07:46.000Z</time>
      </trkpt>
      <trkpt lat="43.87959" lon="7.20623">
        <ele>812</ele>
        <time>2018-05-13T10:07:50.000Z</time>
      </trkpt>
      <trkpt lat="43.87954" lon="7.20622">
        <ele>812</ele>
        <time>2018-05-13T10:07:51.000Z</time>
      </trkpt>
      <trkpt lat="43.87932" lon="7.20624">
        <ele>811</ele>
        <time>2018-05-13T10:07:55.000Z</time>
      </trkpt>
      <trkpt lat="43.8792" lon="7.20626">
        <ele>811</ele>
        <time>2018-05-13T10:07:57.000Z</time>
      </trkpt>
      <trkpt lat="43.8791" lon="7.20631">
        <ele>802</ele>
        <time>2018-05-13T10:07:59.000Z</time>
      </trkpt>
      <trkpt lat="43.87895" lon="7.20638">
        <ele>802</ele>
        <time>2018-05-13T10:08:02.000Z</time>
      </trkpt>
      <trkpt lat="43.87879" lon="7.20656">
        <ele>801</ele>
        <time>2018-05-13T10:08:06.000Z</time>
      </trkpt>
      <trkpt lat="43.87873" lon="7.20664">
        <ele>800</ele>
        <time>2018-05-13T10:08:07.000Z</time>
      </trkpt>
      <trkpt lat="43.87867" lon="7.20675">
        <ele>806</ele>
        <time>2018-05-13T10:08:09.000Z</time>
      </trkpt>
      <trkpt lat="43.87866" lon="7.20682">
        <ele>807</ele>
        <time>2018-05-13T10:08:10.000Z</time>
      </trkpt>
      <trkpt lat="43.87865" lon="7.20689">
        <ele>807</ele>
        <time>2018-05-13T10:08:11.000Z</time>
      </trkpt>
      <trkpt lat="43.87857" lon="7.20707">
        <ele>807</ele>
        <time>2018-05-13T10:08:14.000Z</time>
      </trkpt>
      <trkpt lat="43.87844" lon="7.20716">
        <ele>807</ele>
        <time>2018-05-13T10:08:17.000Z</time>
      </trkpt>
      <trkpt lat="43.87836" lon="7.20729">
        <ele>807</ele>
        <time>2018-05-13T10:08:20.000Z</time>
      </trkpt>
      <trkpt lat="43.87821" lon="7.20741">
        <ele>799</ele>
        <time>2018-05-13T10:08:23.000Z</time>
      </trkpt>
      <trkpt lat="43.87816" lon="7.20745">
        <ele>798</ele>
        <time>2018-05-13T10:08:24.000Z</time>
      </trkpt>
      <trkpt lat="43.87805" lon="7.20751">
        <ele>803</ele>
        <time>2018-05-13T10:08:26.000Z</time>
      </trkpt>
      <trkpt lat="43.87789" lon="7.20759">
        <ele>802</ele>
        <time>2018-05-13T10:08:29.000Z</time>
      </trkpt>
      <trkpt lat="43.87784" lon="7.2076">
        <ele>801</ele>
        <time>2018-05-13T10:08:30.000Z</time>
      </trkpt>
      <trkpt lat="43.87779" lon="7.20759">
        <ele>800</ele>
        <time>2018-05-13T10:08:31.000Z</time>
      </trkpt>
      <trkpt lat="43.87766" lon="7.20759">
        <ele>798</ele>
        <time>2018-05-13T10:08:33.000Z</time>
      </trkpt>
      <trkpt lat="43.87755" lon="7.20772">
        <ele>799</ele>
        <time>2018-05-13T10:08:35.000Z</time>
      </trkpt>
      <trkpt lat="43.87749" lon="7.20775">
        <ele>788</ele>
        <time>2018-05-13T10:08:36.000Z</time>
      </trkpt>
      <trkpt lat="43.87735" lon="7.20781">
        <ele>787</ele>
        <time>2018-05-13T10:08:38.000Z</time>
      </trkpt>
      <trkpt lat="43.87729" lon="7.20781">
        <ele>787</ele>
        <time>2018-05-13T10:08:39.000Z</time>
      </trkpt>
      <trkpt lat="43.87722" lon="7.20782">
        <ele>786</ele>
        <time>2018-05-13T10:08:40.000Z</time>
      </trkpt>
      <trkpt lat="43.87714" lon="7.20785">
        <ele>785</ele>
        <time>2018-05-13T10:08:41.000Z</time>
      </trkpt>
      <trkpt lat="43.87707" lon="7.20789">
        <ele>784</ele>
        <time>2018-05-13T10:08:42.000Z</time>
      </trkpt>
      <trkpt lat="43.87699" lon="7.20793">
        <ele>783</ele>
        <time>2018-05-13T10:08:43.000Z</time>
      </trkpt>
      <trkpt lat="43.87693" lon="7.20796">
        <ele>782</ele>
        <time>2018-05-13T10:08:44.000Z</time>
      </trkpt>
      <trkpt lat="43.87688" lon="7.20798">
        <ele>781</ele>
        <time>2018-05-13T10:08:45.000Z</time>
      </trkpt>
      <trkpt lat="43.87683" lon="7.20798">
        <ele>780</ele>
        <time>2018-05-13T10:08:46.000Z</time>
      </trkpt>
      <trkpt lat="43.87679" lon="7.208">
        <ele>780</ele>
        <time>2018-05-13T10:08:47.000Z</time>
      </trkpt>
      <trkpt lat="43.8767" lon="7.20802">
        <ele>779</ele>
        <time>2018-05-13T10:08:49.000Z</time>
      </trkpt>
      <trkpt lat="43.87663" lon="7.20806">
        <ele>766</ele>
        <time>2018-05-13T10:08:51.000Z</time>
      </trkpt>
      <trkpt lat="43.87647" lon="7.20801">
        <ele>764</ele>
        <time>2018-05-13T10:08:55.000Z</time>
      </trkpt>
      <trkpt lat="43.87642" lon="7.20799">
        <ele>763</ele>
        <time>2018-05-13T10:08:56.000Z</time>
      </trkpt>
      <trkpt lat="43.8763" lon="7.20801">
        <ele>762</ele>
        <time>2018-05-13T10:08:58.000Z</time>
      </trkpt>
      <trkpt lat="43.87625" lon="7.20802">
        <ele>762</ele>
        <time>2018-05-13T10:08:59.000Z</time>
      </trkpt>
      <trkpt lat="43.87621" lon="7.20802">
        <ele>761</ele>
        <time>2018-05-13T10:09:00.000Z</time>
      </trkpt>
      <trkpt lat="43.87617" lon="7.20801">
        <ele>761</ele>
        <time>2018-05-13T10:09:01.000Z</time>
      </trkpt>
      <trkpt lat="43.87617" lon="7.208">
        <ele>761</ele>
        <time>2018-05-13T10:09:02.000Z</time>
      </trkpt>
      <trkpt lat="43.87617" lon="7.20802">
        <ele>761</ele>
        <time>2018-05-13T10:09:03.000Z</time>
      </trkpt>
      <trkpt lat="43.87612" lon="7.20803">
        <ele>760</ele>
        <time>2018-05-13T10:09:05.000Z</time>
      </trkpt>
      <trkpt lat="43.87604" lon="7.20806">
        <ele>759</ele>
        <time>2018-05-13T10:09:07.000Z</time>
      </trkpt>
      <trkpt lat="43.87595" lon="7.20809">
        <ele>758</ele>
        <time>2018-05-13T10:09:09.000Z</time>
      </trkpt>
      <trkpt lat="43.87585" lon="7.20812">
        <ele>758</ele>
        <time>2018-05-13T10:09:12.000Z</time>
      </trkpt>
      <trkpt lat="43.87578" lon="7.20809">
        <ele>747</ele>
        <time>2018-05-13T10:09:14.000Z</time>
      </trkpt>
      <trkpt lat="43.87574" lon="7.20812">
        <ele>747</ele>
        <time>2018-05-13T10:09:15.000Z</time>
      </trkpt>
      <trkpt lat="43.87567" lon="7.20814">
        <ele>746</ele>
        <time>2018-05-13T10:09:17.000Z</time>
      </trkpt>
      <trkpt lat="43.8756" lon="7.2081">
        <ele>745</ele>
        <time>2018-05-13T10:09:19.000Z</time>
      </trkpt>
      <trkpt lat="43.87553" lon="7.2081">
        <ele>744</ele>
        <time>2018-05-13T10:09:21.000Z</time>
      </trkpt>
      <trkpt lat="43.8755" lon="7.2081">
        <ele>744</ele>
        <time>2018-05-13T10:09:22.000Z</time>
      </trkpt>
      <trkpt lat="43.87545" lon="7.20809">
        <ele>743</ele>
        <time>2018-05-13T10:09:23.000Z</time>
      </trkpt>
      <trkpt lat="43.8754" lon="7.20809">
        <ele>743</ele>
        <time>2018-05-13T10:09:24.000Z</time>
      </trkpt>
      <trkpt lat="43.87535" lon="7.20808">
        <ele>742</ele>
        <time>2018-05-13T10:09:25.000Z</time>
      </trkpt>
      <trkpt lat="43.87525" lon="7.20808">
        <ele>741</ele>
        <time>2018-05-13T10:09:27.000Z</time>
      </trkpt>
      <trkpt lat="43.87521" lon="7.20806">
        <ele>740</ele>
        <time>2018-05-13T10:09:28.000Z</time>
      </trkpt>
      <trkpt lat="43.87518" lon="7.20806">
        <ele>740</ele>
        <time>2018-05-13T10:09:29.000Z</time>
      </trkpt>
      <trkpt lat="43.8751" lon="7.20805">
        <ele>740</ele>
        <time>2018-05-13T10:09:31.000Z</time>
      </trkpt>
      <trkpt lat="43.87504" lon="7.20805">
        <ele>739</ele>
        <time>2018-05-13T10:09:32.000Z</time>
      </trkpt>
      <trkpt lat="43.87495" lon="7.20805">
        <ele>729</ele>
        <time>2018-05-13T10:09:34.000Z</time>
      </trkpt>
      <trkpt lat="43.87492" lon="7.20807">
        <ele>729</ele>
        <time>2018-05-13T10:09:35.000Z</time>
      </trkpt>
      <trkpt lat="43.87486" lon="7.20807">
        <ele>728</ele>
        <time>2018-05-13T10:09:37.000Z</time>
      </trkpt>
      <trkpt lat="43.87484" lon="7.20805">
        <ele>728</ele>
        <time>2018-05-13T10:09:38.000Z</time>
      </trkpt>
      <trkpt lat="43.87483" lon="7.20804">
        <ele>727</ele>
        <time>2018-05-13T10:09:39.000Z</time>
      </trkpt>
      <trkpt lat="43.87471" lon="7.20803">
        <ele>726</ele>
        <time>2018-05-13T10:09:42.000Z</time>
      </trkpt>
      <trkpt lat="43.87466" lon="7.20804">
        <ele>726</ele>
        <time>2018-05-13T10:09:43.000Z</time>
      </trkpt>
      <trkpt lat="43.87459" lon="7.20804">
        <ele>725</ele>
        <time>2018-05-13T10:09:45.000Z</time>
      </trkpt>
      <trkpt lat="43.87456" lon="7.20803">
        <ele>725</ele>
        <time>2018-05-13T10:09:46.000Z</time>
      </trkpt>
      <trkpt lat="43.87452" lon="7.20803">
        <ele>724</ele>
        <time>2018-05-13T10:09:47.000Z</time>
      </trkpt>
      <trkpt lat="43.87448" lon="7.20803">
        <ele>724</ele>
        <time>2018-05-13T10:09:48.000Z</time>
      </trkpt>
      <trkpt lat="43.87438" lon="7.20803">
        <ele>723</ele>
        <time>2018-05-13T10:09:50.000Z</time>
      </trkpt>
      <trkpt lat="43.87429" lon="7.20802">
        <ele>722</ele>
        <time>2018-05-13T10:09:51.000Z</time>
      </trkpt>
      <trkpt lat="43.87422" lon="7.20802">
        <ele>722</ele>
        <time>2018-05-13T10:09:52.000Z</time>
      </trkpt>
      <trkpt lat="43.87415" lon="7.20799">
        <ele>711</ele>
        <time>2018-05-13T10:09:53.000Z</time>
      </trkpt>
      <trkpt lat="43.8741" lon="7.20798">
        <ele>710</ele>
        <time>2018-05-13T10:09:54.000Z</time>
      </trkpt>
      <trkpt lat="43.87405" lon="7.20798">
        <ele>710</ele>
        <time>2018-05-13T10:09:55.000Z</time>
      </trkpt>
      <trkpt lat="43.87394" lon="7.20799">
        <ele>709</ele>
        <time>2018-05-13T10:09:57.000Z</time>
      </trkpt>
      <trkpt lat="43.87388" lon="7.20799">
        <ele>709</ele>
        <time>2018-05-13T10:09:58.000Z</time>
      </trkpt>
      <trkpt lat="43.8737" lon="7.20797">
        <ele>706</ele>
        <time>2018-05-13T10:10:02.000Z</time>
      </trkpt>
      <trkpt lat="43.87363" lon="7.208">
        <ele>706</ele>
        <time>2018-05-13T10:10:04.000Z</time>
      </trkpt>
      <trkpt lat="43.87361" lon="7.20803">
        <ele>706</ele>
        <time>2018-05-13T10:10:05.000Z</time>
      </trkpt>
      <trkpt lat="43.87357" lon="7.20809">
        <ele>706</ele>
        <time>2018-05-13T10:10:07.000Z</time>
      </trkpt>
      <trkpt lat="43.87353" lon="7.20811">
        <ele>706</ele>
        <time>2018-05-13T10:10:08.000Z</time>
      </trkpt>
      <trkpt lat="43.8735" lon="7.20814">
        <ele>706</ele>
        <time>2018-05-13T10:10:09.000Z</time>
      </trkpt>
      <trkpt lat="43.87346" lon="7.20815">
        <ele>706</ele>
        <time>2018-05-13T10:10:10.000Z</time>
      </trkpt>
      <trkpt lat="43.87341" lon="7.20817">
        <ele>706</ele>
        <time>2018-05-13T10:10:11.000Z</time>
      </trkpt>
      <trkpt lat="43.87338" lon="7.20818">
        <ele>706</ele>
        <time>2018-05-13T10:10:12.000Z</time>
      </trkpt>
      <trkpt lat="43.87334" lon="7.20821">
        <ele>706</ele>
        <time>2018-05-13T10:10:13.000Z</time>
      </trkpt>
      <trkpt lat="43.87332" lon="7.20823">
        <ele>701</ele>
        <time>2018-05-13T10:10:14.000Z</time>
      </trkpt>
      <trkpt lat="43.87327" lon="7.20822">
        <ele>699</ele>
        <time>2018-05-13T10:10:16.000Z</time>
      </trkpt>
      <trkpt lat="43.87322" lon="7.20819">
        <ele>697</ele>
        <time>2018-05-13T10:10:18.000Z</time>
      </trkpt>
      <trkpt lat="43.87313" lon="7.20824">
        <ele>696</ele>
        <time>2018-05-13T10:10:20.000Z</time>
      </trkpt>
      <trkpt lat="43.87302" lon="7.20827">
        <ele>694</ele>
        <time>2018-05-13T10:10:22.000Z</time>
      </trkpt>
      <trkpt lat="43.87297" lon="7.2083">
        <ele>693</ele>
        <time>2018-05-13T10:10:23.000Z</time>
      </trkpt>
      <trkpt lat="43.8729" lon="7.20833">
        <ele>692</ele>
        <time>2018-05-13T10:10:24.000Z</time>
      </trkpt>
      <trkpt lat="43.87283" lon="7.20836">
        <ele>692</ele>
        <time>2018-05-13T10:10:25.000Z</time>
      </trkpt>
      <trkpt lat="43.87279" lon="7.20839">
        <ele>692</ele>
        <time>2018-05-13T10:10:26.000Z</time>
      </trkpt>
      <trkpt lat="43.87277" lon="7.2084">
        <ele>692</ele>
        <time>2018-05-13T10:10:27.000Z</time>
      </trkpt>
      <trkpt lat="43.87275" lon="7.20839">
        <ele>692</ele>
        <time>2018-05-13T10:10:28.000Z</time>
      </trkpt>
      <trkpt lat="43.87273" lon="7.20837">
        <ele>692</ele>
        <time>2018-05-13T10:10:29.000Z</time>
      </trkpt>
      <trkpt lat="43.87268" lon="7.20834">
        <ele>692</ele>
        <time>2018-05-13T10:10:31.000Z</time>
      </trkpt>
      <trkpt lat="43.87264" lon="7.20834">
        <ele>692</ele>
        <time>2018-05-13T10:10:32.000Z</time>
      </trkpt>
      <trkpt lat="43.87259" lon="7.20834">
        <ele>692</ele>
        <time>2018-05-13T10:10:33.000Z</time>
      </trkpt>
      <trkpt lat="43.87255" lon="7.20835">
        <ele>692</ele>
        <time>2018-05-13T10:10:34.000Z</time>
      </trkpt>
      <trkpt lat="43.87246" lon="7.20837">
        <ele>690</ele>
        <time>2018-05-13T10:10:36.000Z</time>
      </trkpt>
      <trkpt lat="43.87239" lon="7.20836">
        <ele>688</ele>
        <time>2018-05-13T10:10:37.000Z</time>
      </trkpt>
      <trkpt lat="43.87233" lon="7.20835">
        <ele>686</ele>
        <time>2018-05-13T10:10:38.000Z</time>
      </trkpt>
      <trkpt lat="43.87222" lon="7.20834">
        <ele>684</ele>
        <time>2018-05-13T10:10:40.000Z</time>
      </trkpt>
      <trkpt lat="43.87213" lon="7.20837">
        <ele>682</ele>
        <time>2018-05-13T10:10:42.000Z</time>
      </trkpt>
      <trkpt lat="43.87211" lon="7.20836">
        <ele>682</ele>
        <time>2018-05-13T10:10:43.000Z</time>
      </trkpt>
      <trkpt lat="43.87209" lon="7.20834">
        <ele>682</ele>
        <time>2018-05-13T10:10:44.000Z</time>
      </trkpt>
      <trkpt lat="43.87206" lon="7.20832">
        <ele>678</ele>
        <time>2018-05-13T10:10:46.000Z</time>
      </trkpt>
      <trkpt lat="43.87203" lon="7.20829">
        <ele>678</ele>
        <time>2018-05-13T10:10:47.000Z</time>
      </trkpt>
      <trkpt lat="43.872" lon="7.20827">
        <ele>678</ele>
        <time>2018-05-13T10:10:48.000Z</time>
      </trkpt>
      <trkpt lat="43.87187" lon="7.20819">
        <ele>677</ele>
        <time>2018-05-13T10:10:51.000Z</time>
      </trkpt>
      <trkpt lat="43.87183" lon="7.20817">
        <ele>677</ele>
        <time>2018-05-13T10:10:52.000Z</time>
      </trkpt>
      <trkpt lat="43.87178" lon="7.20816">
        <ele>677</ele>
        <time>2018-05-13T10:10:53.000Z</time>
      </trkpt>
      <trkpt lat="43.87174" lon="7.20814">
        <ele>677</ele>
        <time>2018-05-13T10:10:54.000Z</time>
      </trkpt>
      <trkpt lat="43.8717" lon="7.20814">
        <ele>677</ele>
        <time>2018-05-13T10:10:55.000Z</time>
      </trkpt>
      <trkpt lat="43.87167" lon="7.20816">
        <ele>673</ele>
        <time>2018-05-13T10:10:56.000Z</time>
      </trkpt>
      <trkpt lat="43.87166" lon="7.20819">
        <ele>674</ele>
        <time>2018-05-13T10:10:57.000Z</time>
      </trkpt>
      <trkpt lat="43.87165" lon="7.20822">
        <ele>675</ele>
        <time>2018-05-13T10:10:58.000Z</time>
      </trkpt>
      <trkpt lat="43.87166" lon="7.20827">
        <ele>677</ele>
        <time>2018-05-13T10:10:59.000Z</time>
      </trkpt>
      <trkpt lat="43.87166" lon="7.2083">
        <ele>679</ele>
        <time>2018-05-13T10:11:00.000Z</time>
      </trkpt>
      <trkpt lat="43.87166" lon="7.2084">
        <ele>675</ele>
        <time>2018-05-13T10:11:02.000Z</time>
      </trkpt>
      <trkpt lat="43.87168" lon="7.20843">
        <ele>680</ele>
        <time>2018-05-13T10:11:03.000Z</time>
      </trkpt>
      <trkpt lat="43.8717" lon="7.20849">
        <ele>680</ele>
        <time>2018-05-13T10:11:05.000Z</time>
      </trkpt>
      <trkpt lat="43.87178" lon="7.20871">
        <ele>677</ele>
        <time>2018-05-13T10:11:10.000Z</time>
      </trkpt>
      <trkpt lat="43.8719" lon="7.20881">
        <ele>677</ele>
        <time>2018-05-13T10:11:13.000Z</time>
      </trkpt>
      <trkpt lat="43.87196" lon="7.20881">
        <ele>677</ele>
        <time>2018-05-13T10:11:15.000Z</time>
      </trkpt>
      <trkpt lat="43.872" lon="7.20882">
        <ele>677</ele>
        <time>2018-05-13T10:11:16.000Z</time>
      </trkpt>
      <trkpt lat="43.87203" lon="7.20882">
        <ele>678</ele>
        <time>2018-05-13T10:11:17.000Z</time>
      </trkpt>
      <trkpt lat="43.87219" lon="7.20883">
        <ele>679</ele>
        <time>2018-05-13T10:11:21.000Z</time>
      </trkpt>
      <trkpt lat="43.87224" lon="7.20883">
        <ele>679</ele>
        <time>2018-05-13T10:11:22.000Z</time>
      </trkpt>
      <trkpt lat="43.87231" lon="7.20888">
        <ele>679</ele>
        <time>2018-05-13T10:11:24.000Z</time>
      </trkpt>
      <trkpt lat="43.87242" lon="7.20889">
        <ele>679</ele>
        <time>2018-05-13T10:11:26.000Z</time>
      </trkpt>
      <trkpt lat="43.87263" lon="7.20893">
        <ele>685</ele>
        <time>2018-05-13T10:11:30.000Z</time>
      </trkpt>
      <trkpt lat="43.87271" lon="7.20895">
        <ele>685</ele>
        <time>2018-05-13T10:11:31.000Z</time>
      </trkpt>
      <trkpt lat="43.87277" lon="7.20895">
        <ele>686</ele>
        <time>2018-05-13T10:11:32.000Z</time>
      </trkpt>
      <trkpt lat="43.87284" lon="7.20895">
        <ele>686</ele>
        <time>2018-05-13T10:11:33.000Z</time>
      </trkpt>
      <trkpt lat="43.87289" lon="7.20895">
        <ele>686</ele>
        <time>2018-05-13T10:11:34.000Z</time>
      </trkpt>
      <trkpt lat="43.87298" lon="7.20895">
        <ele>687</ele>
        <time>2018-05-13T10:11:36.000Z</time>
      </trkpt>
      <trkpt lat="43.87308" lon="7.20897">
        <ele>686</ele>
        <time>2018-05-13T10:11:38.000Z</time>
      </trkpt>
      <trkpt lat="43.87329" lon="7.20901">
        <ele>685</ele>
        <time>2018-05-13T10:11:42.000Z</time>
      </trkpt>
      <trkpt lat="43.87336" lon="7.20903">
        <ele>689</ele>
        <time>2018-05-13T10:11:43.000Z</time>
      </trkpt>
      <trkpt lat="43.87354" lon="7.20907">
        <ele>692</ele>
        <time>2018-05-13T10:11:46.000Z</time>
      </trkpt>
      <trkpt lat="43.87361" lon="7.20908">
        <ele>694</ele>
        <time>2018-05-13T10:11:47.000Z</time>
      </trkpt>
      <trkpt lat="43.87374" lon="7.20908">
        <ele>696</ele>
        <time>2018-05-13T10:11:49.000Z</time>
      </trkpt>
      <trkpt lat="43.87379" lon="7.20909">
        <ele>697</ele>
        <time>2018-05-13T10:11:50.000Z</time>
      </trkpt>
      <trkpt lat="43.87394" lon="7.20917">
        <ele>680</ele>
        <time>2018-05-13T10:11:53.000Z</time>
      </trkpt>
      <trkpt lat="43.87397" lon="7.20922">
        <ele>681</ele>
        <time>2018-05-13T10:11:54.000Z</time>
      </trkpt>
      <trkpt lat="43.87409" lon="7.2094">
        <ele>678</ele>
        <time>2018-05-13T10:11:57.000Z</time>
      </trkpt>
      <trkpt lat="43.87413" lon="7.20944">
        <ele>676</ele>
        <time>2018-05-13T10:11:58.000Z</time>
      </trkpt>
      <trkpt lat="43.87421" lon="7.20954">
        <ele>688</ele>
        <time>2018-05-13T10:12:00.000Z</time>
      </trkpt>
      <trkpt lat="43.87429" lon="7.20961">
        <ele>687</ele>
        <time>2018-05-13T10:12:02.000Z</time>
      </trkpt>
      <trkpt lat="43.87438" lon="7.20967">
        <ele>687</ele>
        <time>2018-05-13T10:12:04.000Z</time>
      </trkpt>
      <trkpt lat="43.87446" lon="7.2097">
        <ele>687</ele>
        <time>2018-05-13T10:12:06.000Z</time>
      </trkpt>
      <trkpt lat="43.87455" lon="7.20975">
        <ele>689</ele>
        <time>2018-05-13T10:12:08.000Z</time>
      </trkpt>
      <trkpt lat="43.87459" lon="7.20977">
        <ele>689</ele>
        <time>2018-05-13T10:12:09.000Z</time>
      </trkpt>
      <trkpt lat="43.87474" lon="7.20986">
        <ele>691</ele>
        <time>2018-05-13T10:12:13.000Z</time>
      </trkpt>
      <trkpt lat="43.87481" lon="7.20993">
        <ele>693</ele>
        <time>2018-05-13T10:12:15.000Z</time>
      </trkpt>
      <trkpt lat="43.8749" lon="7.20998">
        <ele>694</ele>
        <time>2018-05-13T10:12:18.000Z</time>
      </trkpt>
      <trkpt lat="43.87496" lon="7.21003">
        <ele>690</ele>
        <time>2018-05-13T10:12:20.000Z</time>
      </trkpt>
      <trkpt lat="43.87504" lon="7.21007">
        <ele>695</ele>
        <time>2018-05-13T10:12:22.000Z</time>
      </trkpt>
      <trkpt lat="43.87515" lon="7.21018">
        <ele>694</ele>
        <time>2018-05-13T10:12:25.000Z</time>
      </trkpt>
      <trkpt lat="43.87517" lon="7.21021">
        <ele>694</ele>
        <time>2018-05-13T10:12:26.000Z</time>
      </trkpt>
      <trkpt lat="43.87519" lon="7.21027">
        <ele>693</ele>
        <time>2018-05-13T10:12:28.000Z</time>
      </trkpt>
      <trkpt lat="43.87521" lon="7.21033">
        <ele>692</ele>
        <time>2018-05-13T10:12:30.000Z</time>
      </trkpt>
      <trkpt lat="43.87525" lon="7.2105">
        <ele>689</ele>
        <time>2018-05-13T10:12:35.000Z</time>
      </trkpt>
      <trkpt lat="43.8753" lon="7.21058">
        <ele>689</ele>
        <time>2018-05-13T10:12:39.000Z</time>
      </trkpt>
      <trkpt lat="43.87532" lon="7.21063">
        <ele>688</ele>
        <time>2018-05-13T10:12:41.000Z</time>
      </trkpt>
      <trkpt lat="43.87534" lon="7.21063">
        <ele>688</ele>
        <time>2018-05-13T10:12:42.000Z</time>
      </trkpt>
      <trkpt lat="43.87537" lon="7.21064">
        <ele>689</ele>
        <time>2018-05-13T10:12:44.000Z</time>
      </trkpt>
      <trkpt lat="43.87537" lon="7.21064">
        <ele>689</ele>
        <time>2018-05-13T10:12:45.000Z</time>
      </trkpt>
      <trkpt lat="43.87539" lon="7.21063">
        <ele>689</ele>
        <time>2018-05-13T10:12:48.000Z</time>
      </trkpt>
      <trkpt lat="43.87544" lon="7.21067">
        <ele>690</ele>
        <time>2018-05-13T10:12:53.000Z</time>
      </trkpt>
      <trkpt lat="43.87545" lon="7.21067">
        <ele>690</ele>
        <time>2018-05-13T10:12:54.000Z</time>
      </trkpt>
      <trkpt lat="43.8755" lon="7.21071">
        <ele>690</ele>
        <time>2018-05-13T10:12:59.000Z</time>
      </trkpt>
      <trkpt lat="43.87557" lon="7.2107">
        <ele>691</ele>
        <time>2018-05-13T10:13:03.000Z</time>
      </trkpt>
      <trkpt lat="43.87557" lon="7.21071">
        <ele>691</ele>
        <time>2018-05-13T10:13:04.000Z</time>
      </trkpt>
      <trkpt lat="43.87564" lon="7.21074">
        <ele>692</ele>
        <time>2018-05-13T10:13:08.000Z</time>
      </trkpt>
      <trkpt lat="43.87572" lon="7.21078">
        <ele>692</ele>
        <time>2018-05-13T10:13:12.000Z</time>
      </trkpt>
      <trkpt lat="43.87589" lon="7.21084">
        <ele>690</ele>
        <time>2018-05-13T10:13:19.000Z</time>
      </trkpt>
      <trkpt lat="43.87592" lon="7.21085">
        <ele>690</ele>
        <time>2018-05-13T10:13:21.000Z</time>
      </trkpt>
      <trkpt lat="43.87598" lon="7.21088">
        <ele>690</ele>
        <time>2018-05-13T10:13:24.000Z</time>
      </trkpt>
      <trkpt lat="43.87601" lon="7.21089">
        <ele>690</ele>
        <time>2018-05-13T10:13:25.000Z</time>
      </trkpt>
      <trkpt lat="43.87615" lon="7.21094">
        <ele>690</ele>
        <time>2018-05-13T10:13:32.000Z</time>
      </trkpt>
      <trkpt lat="43.87629" lon="7.211">
        <ele>692</ele>
        <time>2018-05-13T10:13:38.000Z</time>
      </trkpt>
      <trkpt lat="43.87647" lon="7.21108">
        <ele>695</ele>
        <time>2018-05-13T10:13:44.000Z</time>
      </trkpt>
      <trkpt lat="43.87659" lon="7.21117">
        <ele>694</ele>
        <time>2018-05-13T10:13:49.000Z</time>
      </trkpt>
      <trkpt lat="43.87663" lon="7.21123">
        <ele>693</ele>
        <time>2018-05-13T10:13:52.000Z</time>
      </trkpt>
      <trkpt lat="43.87668" lon="7.2113">
        <ele>709</ele>
        <time>2018-05-13T10:13:55.000Z</time>
      </trkpt>
      <trkpt lat="43.87669" lon="7.21133">
        <ele>708</ele>
        <time>2018-05-13T10:13:56.000Z</time>
      </trkpt>
      <trkpt lat="43.87674" lon="7.21148">
        <ele>703</ele>
        <time>2018-05-13T10:14:01.000Z</time>
      </trkpt>
      <trkpt lat="43.87675" lon="7.21151">
        <ele>702</ele>
        <time>2018-05-13T10:14:02.000Z</time>
      </trkpt>
      <trkpt lat="43.87687" lon="7.21167">
        <ele>703</ele>
        <time>2018-05-13T10:14:07.000Z</time>
      </trkpt>
      <trkpt lat="43.87704" lon="7.21177">
        <ele>689</ele>
        <time>2018-05-13T10:14:12.000Z</time>
      </trkpt>
      <trkpt lat="43.87711" lon="7.21177">
        <ele>691</ele>
        <time>2018-05-13T10:14:14.000Z</time>
      </trkpt>
      <trkpt lat="43.87714" lon="7.21178">
        <ele>692</ele>
        <time>2018-05-13T10:14:15.000Z</time>
      </trkpt>
      <trkpt lat="43.87723" lon="7.21188">
        <ele>692</ele>
        <time>2018-05-13T10:14:19.000Z</time>
      </trkpt>
      <trkpt lat="43.87732" lon="7.21202">
        <ele>691</ele>
        <time>2018-05-13T10:14:23.000Z</time>
      </trkpt>
      <trkpt lat="43.87738" lon="7.21213">
        <ele>689</ele>
        <time>2018-05-13T10:14:28.000Z</time>
      </trkpt>
      <trkpt lat="43.87741" lon="7.21218">
        <ele>688</ele>
        <time>2018-05-13T10:14:30.000Z</time>
      </trkpt>
      <trkpt lat="43.87743" lon="7.21227">
        <ele>687</ele>
        <time>2018-05-13T10:14:36.000Z</time>
      </trkpt>
      <trkpt lat="43.87744" lon="7.21228">
        <ele>686</ele>
        <time>2018-05-13T10:14:38.000Z</time>
      </trkpt>
      <trkpt lat="43.87745" lon="7.21231">
        <ele>686</ele>
        <time>2018-05-13T10:14:42.000Z</time>
      </trkpt>
      <trkpt lat="43.87749" lon="7.21237">
        <ele>686</ele>
        <time>2018-05-13T10:14:47.000Z</time>
      </trkpt>
      <trkpt lat="43.87751" lon="7.2124">
        <ele>692</ele>
        <time>2018-05-13T10:14:50.000Z</time>
      </trkpt>
      <trkpt lat="43.87751" lon="7.21241">
        <ele>691</ele>
        <time>2018-05-13T10:14:51.000Z</time>
      </trkpt>
      <trkpt lat="43.87754" lon="7.21246">
        <ele>689</ele>
        <time>2018-05-13T10:14:56.000Z</time>
      </trkpt>
      <trkpt lat="43.87755" lon="7.21247">
        <ele>689</ele>
        <time>2018-05-13T10:14:58.000Z</time>
      </trkpt>
      <trkpt lat="43.87757" lon="7.21249">
        <ele>690</ele>
        <time>2018-05-13T10:15:01.000Z</time>
      </trkpt>
      <trkpt lat="43.8776" lon="7.21252">
        <ele>682</ele>
        <time>2018-05-13T10:15:06.000Z</time>
      </trkpt>
      <trkpt lat="43.87761" lon="7.21252">
        <ele>682</ele>
        <time>2018-05-13T10:15:07.000Z</time>
      </trkpt>
      <trkpt lat="43.87767" lon="7.21254">
        <ele>681</ele>
        <time>2018-05-13T10:15:13.000Z</time>
      </trkpt>
      <trkpt lat="43.87769" lon="7.21256">
        <ele>681</ele>
        <time>2018-05-13T10:15:16.000Z</time>
      </trkpt>
      <trkpt lat="43.87772" lon="7.21257">
        <ele>680</ele>
        <time>2018-05-13T10:15:18.000Z</time>
      </trkpt>
      <trkpt lat="43.87777" lon="7.21257">
        <ele>680</ele>
        <time>2018-05-13T10:15:22.000Z</time>
      </trkpt>
      <trkpt lat="43.87778" lon="7.21257">
        <ele>680</ele>
        <time>2018-05-13T10:15:27.000Z</time>
      </trkpt>
      <trkpt lat="43.87784" lon="7.21255">
        <ele>680</ele>
        <time>2018-05-13T10:15:31.000Z</time>
      </trkpt>
      <trkpt lat="43.87786" lon="7.21255">
        <ele>680</ele>
        <time>2018-05-13T10:15:32.000Z</time>
      </trkpt>
      <trkpt lat="43.87793" lon="7.21252">
        <ele>681</ele>
        <time>2018-05-13T10:15:37.000Z</time>
      </trkpt>
      <trkpt lat="43.87795" lon="7.21251">
        <ele>682</ele>
        <time>2018-05-13T10:15:38.000Z</time>
      </trkpt>
      <trkpt lat="43.87799" lon="7.21247">
        <ele>699</ele>
        <time>2018-05-13T10:15:41.000Z</time>
      </trkpt>
      <trkpt lat="43.87805" lon="7.21243">
        <ele>700</ele>
        <time>2018-05-13T10:15:45.000Z</time>
      </trkpt>
      <trkpt lat="43.87809" lon="7.21239">
        <ele>700</ele>
        <time>2018-05-13T10:15:48.000Z</time>
      </trkpt>
      <trkpt lat="43.87815" lon="7.2123">
        <ele>701</ele>
        <time>2018-05-13T10:15:54.000Z</time>
      </trkpt>
      <trkpt lat="43.87816" lon="7.21228">
        <ele>701</ele>
        <time>2018-05-13T10:15:55.000Z</time>
      </trkpt>
      <trkpt lat="43.87825" lon="7.21219">
        <ele>703</ele>
        <time>2018-05-13T10:16:01.000Z</time>
      </trkpt>
      <trkpt lat="43.87827" lon="7.21217">
        <ele>704</ele>
        <time>2018-05-13T10:16:02.000Z</time>
      </trkpt>
      <trkpt lat="43.87835" lon="7.21208">
        <ele>701</ele>
        <time>2018-05-13T10:16:07.000Z</time>
      </trkpt>
      <trkpt lat="43.87836" lon="7.21206">
        <ele>701</ele>
        <time>2018-05-13T10:16:08.000Z</time>
      </trkpt>
      <trkpt lat="43.87837" lon="7.21203">
        <ele>702</ele>
        <time>2018-05-13T10:16:09.000Z</time>
      </trkpt>
      <trkpt lat="43.87839" lon="7.21199">
        <ele>703</ele>
        <time>2018-05-13T10:16:11.000Z</time>
      </trkpt>
      <trkpt lat="43.87842" lon="7.21194">
        <ele>704</ele>
        <time>2018-05-13T10:16:13.000Z</time>
      </trkpt>
      <trkpt lat="43.87846" lon="7.21189">
        <ele>705</ele>
        <time>2018-05-13T10:16:15.000Z</time>
      </trkpt>
      <trkpt lat="43.8785" lon="7.21183">
        <ele>706</ele>
        <time>2018-05-13T10:16:18.000Z</time>
      </trkpt>
      <trkpt lat="43.87861" lon="7.21171">
        <ele>705</ele>
        <time>2018-05-13T10:16:23.000Z</time>
      </trkpt>
      <trkpt lat="43.87867" lon="7.21164">
        <ele>723</ele>
        <time>2018-05-13T10:16:27.000Z</time>
      </trkpt>
      <trkpt lat="43.87868" lon="7.21162">
        <ele>723</ele>
        <time>2018-05-13T10:16:28.000Z</time>
      </trkpt>
      <trkpt lat="43.87873" lon="7.2116">
        <ele>723</ele>
        <time>2018-05-13T10:16:30.000Z</time>
      </trkpt>
      <trkpt lat="43.87878" lon="7.21158">
        <ele>722</ele>
        <time>2018-05-13T10:16:31.000Z</time>
      </trkpt>
      <trkpt lat="43.87882" lon="7.21156">
        <ele>721</ele>
        <time>2018-05-13T10:16:32.000Z</time>
      </trkpt>
      <trkpt lat="43.87895" lon="7.21147">
        <ele>720</ele>
        <time>2018-05-13T10:16:36.000Z</time>
      </trkpt>
      <trkpt lat="43.87903" lon="7.21145">
        <ele>719</ele>
        <time>2018-05-13T10:16:38.000Z</time>
      </trkpt>
      <trkpt lat="43.87911" lon="7.21141">
        <ele>719</ele>
        <time>2018-05-13T10:16:40.000Z</time>
      </trkpt>
      <trkpt lat="43.87916" lon="7.2114">
        <ele>719</ele>
        <time>2018-05-13T10:16:41.000Z</time>
      </trkpt>
      <trkpt lat="43.87925" lon="7.21136">
        <ele>712</ele>
        <time>2018-05-13T10:16:43.000Z</time>
      </trkpt>
      <trkpt lat="43.87929" lon="7.21134">
        <ele>713</ele>
        <time>2018-05-13T10:16:44.000Z</time>
      </trkpt>
      <trkpt lat="43.87933" lon="7.21132">
        <ele>713</ele>
        <time>2018-05-13T10:16:45.000Z</time>
      </trkpt>
      <trkpt lat="43.87946" lon="7.21132">
        <ele>713</ele>
        <time>2018-05-13T10:16:49.000Z</time>
      </trkpt>
      <trkpt lat="43.87954" lon="7.21135">
        <ele>712</ele>
        <time>2018-05-13T10:16:51.000Z</time>
      </trkpt>
      <trkpt lat="43.87963" lon="7.21137">
        <ele>711</ele>
        <time>2018-05-13T10:16:53.000Z</time>
      </trkpt>
      <trkpt lat="43.8799" lon="7.21142">
        <ele>708</ele>
        <time>2018-05-13T10:16:58.000Z</time>
      </trkpt>
      <trkpt lat="43.88004" lon="7.21135">
        <ele>700</ele>
        <time>2018-05-13T10:17:01.000Z</time>
      </trkpt>
      <trkpt lat="43.88008" lon="7.21135">
        <ele>700</ele>
        <time>2018-05-13T10:17:02.000Z</time>
      </trkpt>
      <trkpt lat="43.88019" lon="7.21132">
        <ele>700</ele>
        <time>2018-05-13T10:17:04.000Z</time>
      </trkpt>
      <trkpt lat="43.88024" lon="7.21129">
        <ele>700</ele>
        <time>2018-05-13T10:17:05.000Z</time>
      </trkpt>
      <trkpt lat="43.88029" lon="7.21126">
        <ele>700</ele>
        <time>2018-05-13T10:17:06.000Z</time>
      </trkpt>
      <trkpt lat="43.88033" lon="7.21122">
        <ele>700</ele>
        <time>2018-05-13T10:17:07.000Z</time>
      </trkpt>
      <trkpt lat="43.88041" lon="7.21115">
        <ele>701</ele>
        <time>2018-05-13T10:17:09.000Z</time>
      </trkpt>
      <trkpt lat="43.88047" lon="7.21111">
        <ele>701</ele>
        <time>2018-05-13T10:17:11.000Z</time>
      </trkpt>
      <trkpt lat="43.88054" lon="7.21104">
        <ele>701</ele>
        <time>2018-05-13T10:17:13.000Z</time>
      </trkpt>
      <trkpt lat="43.88063" lon="7.21096">
        <ele>702</ele>
        <time>2018-05-13T10:17:16.000Z</time>
      </trkpt>
      <trkpt lat="43.8807" lon="7.21095">
        <ele>702</ele>
        <time>2018-05-13T10:17:18.000Z</time>
      </trkpt>
      <trkpt lat="43.88076" lon="7.21094">
        <ele>703</ele>
        <time>2018-05-13T10:17:20.000Z</time>
      </trkpt>
      <trkpt lat="43.88078" lon="7.21093">
        <ele>703</ele>
        <time>2018-05-13T10:17:21.000Z</time>
      </trkpt>
      <trkpt lat="43.88094" lon="7.21089">
        <ele>696</ele>
        <time>2018-05-13T10:17:27.000Z</time>
      </trkpt>
      <trkpt lat="43.88104" lon="7.21084">
        <ele>691</ele>
        <time>2018-05-13T10:17:31.000Z</time>
      </trkpt>
      <trkpt lat="43.88121" lon="7.21084">
        <ele>686</ele>
        <time>2018-05-13T10:17:36.000Z</time>
      </trkpt>
      <trkpt lat="43.88129" lon="7.2108">
        <ele>708</ele>
        <time>2018-05-13T10:17:38.000Z</time>
      </trkpt>
      <trkpt lat="43.88132" lon="7.21076">
        <ele>708</ele>
        <time>2018-05-13T10:17:39.000Z</time>
      </trkpt>
      <trkpt lat="43.88137" lon="7.21074">
        <ele>707</ele>
        <time>2018-05-13T10:17:41.000Z</time>
      </trkpt>
      <trkpt lat="43.88141" lon="7.21073">
        <ele>706</ele>
        <time>2018-05-13T10:17:42.000Z</time>
      </trkpt>
      <trkpt lat="43.8815" lon="7.21068">
        <ele>704</ele>
        <time>2018-05-13T10:17:44.000Z</time>
      </trkpt>
      <trkpt lat="43.88154" lon="7.21067">
        <ele>703</ele>
        <time>2018-05-13T10:17:45.000Z</time>
      </trkpt>
      <trkpt lat="43.88163" lon="7.21065">
        <ele>703</ele>
        <time>2018-05-13T10:17:47.000Z</time>
      </trkpt>
      <trkpt lat="43.8817" lon="7.21065">
        <ele>695</ele>
        <time>2018-05-13T10:17:49.000Z</time>
      </trkpt>
      <trkpt lat="43.8818" lon="7.21061">
        <ele>696</ele>
        <time>2018-05-13T10:17:51.000Z</time>
      </trkpt>
      <trkpt lat="43.88185" lon="7.21059">
        <ele>697</ele>
        <time>2018-05-13T10:17:52.000Z</time>
      </trkpt>
      <trkpt lat="43.88192" lon="7.21054">
        <ele>698</ele>
        <time>2018-05-13T10:17:54.000Z</time>
      </trkpt>
      <trkpt lat="43.88193" lon="7.21054">
        <ele>698</ele>
        <time>2018-05-13T10:17:57.000Z</time>
      </trkpt>
      <trkpt lat="43.88195" lon="7.21052">
        <ele>698</ele>
        <time>2018-05-13T10:18:04.000Z</time>
      </trkpt>
      <trkpt lat="43.882" lon="7.21047">
        <ele>699</ele>
        <time>2018-05-13T10:18:09.000Z</time>
      </trkpt>
      <trkpt lat="43.88205" lon="7.21045">
        <ele>699</ele>
        <time>2018-05-13T10:18:13.000Z</time>
      </trkpt>
      <trkpt lat="43.88208" lon="7.21044">
        <ele>699</ele>
        <time>2018-05-13T10:18:15.000Z</time>
      </trkpt>
      <trkpt lat="43.88222" lon="7.21037">
        <ele>699</ele>
        <time>2018-05-13T10:18:20.000Z</time>
      </trkpt>
      <trkpt lat="43.88239" lon="7.21032">
        <ele>700</ele>
        <time>2018-05-13T10:18:26.000Z</time>
      </trkpt>
      <trkpt lat="43.88244" lon="7.21033">
        <ele>699</ele>
        <time>2018-05-13T10:18:31.000Z</time>
      </trkpt>
      <trkpt lat="43.88258" lon="7.21036">
        <ele>690</ele>
        <time>2018-05-13T10:18:36.000Z</time>
      </trkpt>
      <trkpt lat="43.88264" lon="7.21035">
        <ele>690</ele>
        <time>2018-05-13T10:18:40.000Z</time>
      </trkpt>
      <trkpt lat="43.88275" lon="7.21038">
        <ele>689</ele>
        <time>2018-05-13T10:18:44.000Z</time>
      </trkpt>
      <trkpt lat="43.88285" lon="7.21038">
        <ele>688</ele>
        <time>2018-05-13T10:18:46.000Z</time>
      </trkpt>
      <trkpt lat="43.88294" lon="7.21035">
        <ele>688</ele>
        <time>2018-05-13T10:18:48.000Z</time>
      </trkpt>
      <trkpt lat="43.883" lon="7.21032">
        <ele>688</ele>
        <time>2018-05-13T10:18:49.000Z</time>
      </trkpt>
      <trkpt lat="43.88309" lon="7.21025">
        <ele>689</ele>
        <time>2018-05-13T10:18:51.000Z</time>
      </trkpt>
      <trkpt lat="43.88313" lon="7.21022">
        <ele>689</ele>
        <time>2018-05-13T10:18:52.000Z</time>
      </trkpt>
      <trkpt lat="43.88317" lon="7.21017">
        <ele>690</ele>
        <time>2018-05-13T10:18:53.000Z</time>
      </trkpt>
      <trkpt lat="43.88321" lon="7.2101">
        <ele>691</ele>
        <time>2018-05-13T10:18:55.000Z</time>
      </trkpt>
      <trkpt lat="43.88331" lon="7.21001">
        <ele>693</ele>
        <time>2018-05-13T10:18:58.000Z</time>
      </trkpt>
      <trkpt lat="43.88335" lon="7.20999">
        <ele>695</ele>
        <time>2018-05-13T10:18:59.000Z</time>
      </trkpt>
      <trkpt lat="43.8834" lon="7.20995">
        <ele>697</ele>
        <time>2018-05-13T10:19:00.000Z</time>
      </trkpt>
      <trkpt lat="43.88349" lon="7.20986">
        <ele>701</ele>
        <time>2018-05-13T10:19:02.000Z</time>
      </trkpt>
      <trkpt lat="43.88357" lon="7.20977">
        <ele>703</ele>
        <time>2018-05-13T10:19:04.000Z</time>
      </trkpt>
      <trkpt lat="43.8836" lon="7.20973">
        <ele>704</ele>
        <time>2018-05-13T10:19:05.000Z</time>
      </trkpt>
      <trkpt lat="43.88364" lon="7.20972">
        <ele>704</ele>
        <time>2018-05-13T10:19:06.000Z</time>
      </trkpt>
      <trkpt lat="43.88375" lon="7.20966">
        <ele>705</ele>
        <time>2018-05-13T10:19:09.000Z</time>
      </trkpt>
      <trkpt lat="43.88377" lon="7.20966">
        <ele>705</ele>
        <time>2018-05-13T10:19:10.000Z</time>
      </trkpt>
      <trkpt lat="43.88379" lon="7.20966">
        <ele>705</ele>
        <time>2018-05-13T10:19:11.000Z</time>
      </trkpt>
      <trkpt lat="43.88379" lon="7.20966">
        <ele>705</ele>
        <time>2018-05-13T10:19:12.000Z</time>
      </trkpt>
      <trkpt lat="43.8838" lon="7.20966">
        <ele>705</ele>
        <time>2018-05-13T10:19:13.000Z</time>
      </trkpt>
      <trkpt lat="43.88386" lon="7.20967">
        <ele>705</ele>
        <time>2018-05-13T10:19:18.000Z</time>
      </trkpt>
      <trkpt lat="43.88392" lon="7.20968">
        <ele>705</ele>
        <time>2018-05-13T10:19:21.000Z</time>
      </trkpt>
      <trkpt lat="43.88393" lon="7.20969">
        <ele>705</ele>
        <time>2018-05-13T10:19:23.000Z</time>
      </trkpt>
      <trkpt lat="43.88399" lon="7.20973">
        <ele>704</ele>
        <time>2018-05-13T10:19:28.000Z</time>
      </trkpt>
      <trkpt lat="43.88403" lon="7.20976">
        <ele>704</ele>
        <time>2018-05-13T10:19:34.000Z</time>
      </trkpt>
      <trkpt lat="43.88403" lon="7.20979">
        <ele>703</ele>
        <time>2018-05-13T10:19:36.000Z</time>
      </trkpt>
      <trkpt lat="43.88402" lon="7.20982">
        <ele>703</ele>
        <time>2018-05-13T10:19:39.000Z</time>
      </trkpt>
      <trkpt lat="43.884" lon="7.20982">
        <ele>703</ele>
        <time>2018-05-13T10:19:40.000Z</time>
      </trkpt>
      <trkpt lat="43.88395" lon="7.20985">
        <ele>703</ele>
        <time>2018-05-13T10:19:45.000Z</time>
      </trkpt>
      <trkpt lat="43.88393" lon="7.20987">
        <ele>703</ele>
        <time>2018-05-13T10:19:48.000Z</time>
      </trkpt>
      <trkpt lat="43.88389" lon="7.20992">
        <ele>703</ele>
        <time>2018-05-13T10:19:52.000Z</time>
      </trkpt>
      <trkpt lat="43.88387" lon="7.20995">
        <ele>703</ele>
        <time>2018-05-13T10:19:53.000Z</time>
      </trkpt>
      <trkpt lat="43.88382" lon="7.21003">
        <ele>694</ele>
        <time>2018-05-13T10:19:55.000Z</time>
      </trkpt>
      <trkpt lat="43.8838" lon="7.21009">
        <ele>694</ele>
        <time>2018-05-13T10:19:56.000Z</time>
      </trkpt>
      <trkpt lat="43.88381" lon="7.21028">
        <ele>693</ele>
        <time>2018-05-13T10:19:59.000Z</time>
      </trkpt>
      <trkpt lat="43.88382" lon="7.21036">
        <ele>693</ele>
        <time>2018-05-13T10:20:00.000Z</time>
      </trkpt>
      <trkpt lat="43.88382" lon="7.21043">
        <ele>692</ele>
        <time>2018-05-13T10:20:01.000Z</time>
      </trkpt>
      <trkpt lat="43.88383" lon="7.2105">
        <ele>692</ele>
        <time>2018-05-13T10:20:02.000Z</time>
      </trkpt>
      <trkpt lat="43.88384" lon="7.21062">
        <ele>692</ele>
        <time>2018-05-13T10:20:04.000Z</time>
      </trkpt>
      <trkpt lat="43.88387" lon="7.21067">
        <ele>692</ele>
        <time>2018-05-13T10:20:05.000Z</time>
      </trkpt>
      <trkpt lat="43.8839" lon="7.2107">
        <ele>693</ele>
        <time>2018-05-13T10:20:06.000Z</time>
      </trkpt>
      <trkpt lat="43.88392" lon="7.2107">
        <ele>693</ele>
        <time>2018-05-13T10:20:07.000Z</time>
      </trkpt>
      <trkpt lat="43.88396" lon="7.21071">
        <ele>694</ele>
        <time>2018-05-13T10:20:08.000Z</time>
      </trkpt>
      <trkpt lat="43.884" lon="7.21073">
        <ele>695</ele>
        <time>2018-05-13T10:20:09.000Z</time>
      </trkpt>
      <trkpt lat="43.884" lon="7.21079">
        <ele>695</ele>
        <time>2018-05-13T10:20:10.000Z</time>
      </trkpt>
      <trkpt lat="43.88397" lon="7.21094">
        <ele>691</ele>
        <time>2018-05-13T10:20:13.000Z</time>
      </trkpt>
      <trkpt lat="43.88393" lon="7.21113">
        <ele>688</ele>
        <time>2018-05-13T10:20:16.000Z</time>
      </trkpt>
      <trkpt lat="43.88392" lon="7.21127">
        <ele>688</ele>
        <time>2018-05-13T10:20:18.000Z</time>
      </trkpt>
      <trkpt lat="43.88395" lon="7.2114">
        <ele>689</ele>
        <time>2018-05-13T10:20:20.000Z</time>
      </trkpt>
      <trkpt lat="43.88403" lon="7.21161">
        <ele>693</ele>
        <time>2018-05-13T10:20:24.000Z</time>
      </trkpt>
      <trkpt lat="43.88401" lon="7.21165">
        <ele>693</ele>
        <time>2018-05-13T10:20:25.000Z</time>
      </trkpt>
      <trkpt lat="43.88396" lon="7.21169">
        <ele>694</ele>
        <time>2018-05-13T10:20:29.000Z</time>
      </trkpt>
      <trkpt lat="43.88384" lon="7.21178">
        <ele>690</ele>
        <time>2018-05-13T10:20:35.000Z</time>
      </trkpt>
      <trkpt lat="43.88382" lon="7.21181">
        <ele>690</ele>
        <time>2018-05-13T10:20:36.000Z</time>
      </trkpt>
      <trkpt lat="43.88372" lon="7.21187">
        <ele>687</ele>
        <time>2018-05-13T10:20:40.000Z</time>
      </trkpt>
      <trkpt lat="43.8837" lon="7.21189">
        <ele>687</ele>
        <time>2018-05-13T10:20:41.000Z</time>
      </trkpt>
      <trkpt lat="43.88364" lon="7.21197">
        <ele>686</ele>
        <time>2018-05-13T10:20:44.000Z</time>
      </trkpt>
      <trkpt lat="43.88361" lon="7.21201">
        <ele>686</ele>
        <time>2018-05-13T10:20:46.000Z</time>
      </trkpt>
      <trkpt lat="43.88354" lon="7.21221">
        <ele>685</ele>
        <time>2018-05-13T10:20:51.000Z</time>
      </trkpt>
      <trkpt lat="43.88353" lon="7.21242">
        <ele>684</ele>
        <time>2018-05-13T10:20:56.000Z</time>
      </trkpt>
      <trkpt lat="43.88351" lon="7.2126">
        <ele>688</ele>
        <time>2018-05-13T10:21:01.000Z</time>
      </trkpt>
      <trkpt lat="43.88349" lon="7.21263">
        <ele>688</ele>
        <time>2018-05-13T10:21:02.000Z</time>
      </trkpt>
      <trkpt lat="43.88344" lon="7.2127">
        <ele>688</ele>
        <time>2018-05-13T10:21:04.000Z</time>
      </trkpt>
      <trkpt lat="43.88339" lon="7.21281">
        <ele>689</ele>
        <time>2018-05-13T10:21:06.000Z</time>
      </trkpt>
      <trkpt lat="43.88338" lon="7.21286">
        <ele>690</ele>
        <time>2018-05-13T10:21:07.000Z</time>
      </trkpt>
      <trkpt lat="43.88338" lon="7.21292">
        <ele>690</ele>
        <time>2018-05-13T10:21:08.000Z</time>
      </trkpt>
      <trkpt lat="43.88338" lon="7.21297">
        <ele>690</ele>
        <time>2018-05-13T10:21:09.000Z</time>
      </trkpt>
      <trkpt lat="43.88339" lon="7.21304">
        <ele>689</ele>
        <time>2018-05-13T10:21:10.000Z</time>
      </trkpt>
      <trkpt lat="43.8834" lon="7.21316">
        <ele>687</ele>
        <time>2018-05-13T10:21:12.000Z</time>
      </trkpt>
      <trkpt lat="43.8834" lon="7.21326">
        <ele>684</ele>
        <time>2018-05-13T10:21:14.000Z</time>
      </trkpt>
      <trkpt lat="43.88337" lon="7.21351">
        <ele>684</ele>
        <time>2018-05-13T10:21:20.000Z</time>
      </trkpt>
      <trkpt lat="43.88335" lon="7.21357">
        <ele>684</ele>
        <time>2018-05-13T10:21:22.000Z</time>
      </trkpt>
      <trkpt lat="43.88337" lon="7.21359">
        <ele>685</ele>
        <time>2018-05-13T10:21:23.000Z</time>
      </trkpt>
      <trkpt lat="43.88338" lon="7.21362">
        <ele>685</ele>
        <time>2018-05-13T10:21:24.000Z</time>
      </trkpt>
      <trkpt lat="43.88337" lon="7.21366">
        <ele>685</ele>
        <time>2018-05-13T10:21:25.000Z</time>
      </trkpt>
      <trkpt lat="43.88335" lon="7.21373">
        <ele>685</ele>
        <time>2018-05-13T10:21:27.000Z</time>
      </trkpt>
      <trkpt lat="43.88335" lon="7.21376">
        <ele>684</ele>
        <time>2018-05-13T10:21:28.000Z</time>
      </trkpt>
      <trkpt lat="43.88338" lon="7.21385">
        <ele>683</ele>
        <time>2018-05-13T10:21:31.000Z</time>
      </trkpt>
      <trkpt lat="43.88338" lon="7.21387">
        <ele>683</ele>
        <time>2018-05-13T10:21:33.000Z</time>
      </trkpt>
      <trkpt lat="43.88339" lon="7.21389">
        <ele>682</ele>
        <time>2018-05-13T10:21:35.000Z</time>
      </trkpt>
      <trkpt lat="43.88344" lon="7.21393">
        <ele>682</ele>
        <time>2018-05-13T10:21:38.000Z</time>
      </trkpt>
      <trkpt lat="43.88348" lon="7.21395">
        <ele>682</ele>
        <time>2018-05-13T10:21:40.000Z</time>
      </trkpt>
      <trkpt lat="43.88348" lon="7.21399">
        <ele>681</ele>
        <time>2018-05-13T10:21:41.000Z</time>
      </trkpt>
      <trkpt lat="43.8835" lon="7.21405">
        <ele>680</ele>
        <time>2018-05-13T10:21:44.000Z</time>
      </trkpt>
      <trkpt lat="43.88351" lon="7.21405">
        <ele>680</ele>
        <time>2018-05-13T10:21:45.000Z</time>
      </trkpt>
      <trkpt lat="43.8835" lon="7.21407">
        <ele>680</ele>
        <time>2018-05-13T10:21:46.000Z</time>
      </trkpt>
      <trkpt lat="43.8835" lon="7.21409">
        <ele>679</ele>
        <time>2018-05-13T10:21:47.000Z</time>
      </trkpt>
      <trkpt lat="43.88349" lon="7.21411">
        <ele>678</ele>
        <time>2018-05-13T10:21:48.000Z</time>
      </trkpt>
      <trkpt lat="43.88349" lon="7.21413">
        <ele>677</ele>
        <time>2018-05-13T10:21:49.000Z</time>
      </trkpt>
      <trkpt lat="43.88349" lon="7.21421">
        <ele>667</ele>
        <time>2018-05-13T10:21:51.000Z</time>
      </trkpt>
      <trkpt lat="43.88349" lon="7.21427">
        <ele>667</ele>
        <time>2018-05-13T10:21:52.000Z</time>
      </trkpt>
      <trkpt lat="43.88351" lon="7.21433">
        <ele>667</ele>
        <time>2018-05-13T10:21:53.000Z</time>
      </trkpt>
      <trkpt lat="43.88351" lon="7.21437">
        <ele>667</ele>
        <time>2018-05-13T10:21:54.000Z</time>
      </trkpt>
      <trkpt lat="43.88355" lon="7.21442">
        <ele>667</ele>
        <time>2018-05-13T10:21:55.000Z</time>
      </trkpt>
      <trkpt lat="43.8836" lon="7.21457">
        <ele>666</ele>
        <time>2018-05-13T10:21:57.000Z</time>
      </trkpt>
      <trkpt lat="43.88362" lon="7.21462">
        <ele>665</ele>
        <time>2018-05-13T10:21:58.000Z</time>
      </trkpt>
      <trkpt lat="43.88364" lon="7.2148">
        <ele>661</ele>
        <time>2018-05-13T10:22:03.000Z</time>
      </trkpt>
      <trkpt lat="43.88364" lon="7.21483">
        <ele>661</ele>
        <time>2018-05-13T10:22:04.000Z</time>
      </trkpt>
      <trkpt lat="43.88363" lon="7.21492">
        <ele>659</ele>
        <time>2018-05-13T10:22:06.000Z</time>
      </trkpt>
      <trkpt lat="43.88364" lon="7.21499">
        <ele>658</ele>
        <time>2018-05-13T10:22:08.000Z</time>
      </trkpt>
      <trkpt lat="43.88365" lon="7.21503">
        <ele>638</ele>
        <time>2018-05-13T10:22:09.000Z</time>
      </trkpt>
      <trkpt lat="43.88367" lon="7.21511">
        <ele>638</ele>
        <time>2018-05-13T10:22:11.000Z</time>
      </trkpt>
      <trkpt lat="43.88369" lon="7.21518">
        <ele>637</ele>
        <time>2018-05-13T10:22:13.000Z</time>
      </trkpt>
      <trkpt lat="43.8837" lon="7.2152">
        <ele>637</ele>
        <time>2018-05-13T10:22:14.000Z</time>
      </trkpt>
      <trkpt lat="43.8837" lon="7.21525">
        <ele>636</ele>
        <time>2018-05-13T10:22:16.000Z</time>
      </trkpt>
      <trkpt lat="43.88372" lon="7.21529">
        <ele>636</ele>
        <time>2018-05-13T10:22:18.000Z</time>
      </trkpt>
      <trkpt lat="43.88378" lon="7.21536">
        <ele>636</ele>
        <time>2018-05-13T10:22:20.000Z</time>
      </trkpt>
      <trkpt lat="43.88382" lon="7.21541">
        <ele>636</ele>
        <time>2018-05-13T10:22:21.000Z</time>
      </trkpt>
      <trkpt lat="43.88386" lon="7.21548">
        <ele>635</ele>
        <time>2018-05-13T10:22:22.000Z</time>
      </trkpt>
      <trkpt lat="43.88397" lon="7.21565">
        <ele>635</ele>
        <time>2018-05-13T10:22:24.000Z</time>
      </trkpt>
      <trkpt lat="43.88403" lon="7.21573">
        <ele>635</ele>
        <time>2018-05-13T10:22:25.000Z</time>
      </trkpt>
      <trkpt lat="43.88408" lon="7.2158">
        <ele>635</ele>
        <time>2018-05-13T10:22:26.000Z</time>
      </trkpt>
      <trkpt lat="43.8842" lon="7.21594">
        <ele>636</ele>
        <time>2018-05-13T10:22:28.000Z</time>
      </trkpt>
      <trkpt lat="43.88426" lon="7.21601">
        <ele>636</ele>
        <time>2018-05-13T10:22:29.000Z</time>
      </trkpt>
      <trkpt lat="43.88432" lon="7.21607">
        <ele>635</ele>
        <time>2018-05-13T10:22:30.000Z</time>
      </trkpt>
      <trkpt lat="43.88436" lon="7.21613">
        <ele>635</ele>
        <time>2018-05-13T10:22:31.000Z</time>
      </trkpt>
      <trkpt lat="43.88444" lon="7.21621">
        <ele>635</ele>
        <time>2018-05-13T10:22:33.000Z</time>
      </trkpt>
      <trkpt lat="43.88448" lon="7.21628">
        <ele>634</ele>
        <time>2018-05-13T10:22:35.000Z</time>
      </trkpt>
      <trkpt lat="43.88452" lon="7.21638">
        <ele>633</ele>
        <time>2018-05-13T10:22:37.000Z</time>
      </trkpt>
      <trkpt lat="43.88456" lon="7.21643">
        <ele>634</ele>
        <time>2018-05-13T10:22:39.000Z</time>
      </trkpt>
      <trkpt lat="43.88462" lon="7.21648">
        <ele>634</ele>
        <time>2018-05-13T10:22:41.000Z</time>
      </trkpt>
      <trkpt lat="43.88466" lon="7.21652">
        <ele>635</ele>
        <time>2018-05-13T10:22:42.000Z</time>
      </trkpt>
      <trkpt lat="43.88472" lon="7.21669">
        <ele>625</ele>
        <time>2018-05-13T10:22:45.000Z</time>
      </trkpt>
      <trkpt lat="43.88474" lon="7.21675">
        <ele>626</ele>
        <time>2018-05-13T10:22:46.000Z</time>
      </trkpt>
      <trkpt lat="43.88486" lon="7.21704">
        <ele>625</ele>
        <time>2018-05-13T10:22:51.000Z</time>
      </trkpt>
      <trkpt lat="43.8849" lon="7.2171">
        <ele>625</ele>
        <time>2018-05-13T10:22:52.000Z</time>
      </trkpt>
      <trkpt lat="43.88494" lon="7.21724">
        <ele>625</ele>
        <time>2018-05-13T10:22:54.000Z</time>
      </trkpt>
      <trkpt lat="43.88493" lon="7.21732">
        <ele>625</ele>
        <time>2018-05-13T10:22:55.000Z</time>
      </trkpt>
      <trkpt lat="43.88491" lon="7.21739">
        <ele>626</ele>
        <time>2018-05-13T10:22:56.000Z</time>
      </trkpt>
      <trkpt lat="43.8849" lon="7.21754">
        <ele>628</ele>
        <time>2018-05-13T10:22:58.000Z</time>
      </trkpt>
      <trkpt lat="43.8849" lon="7.21762">
        <ele>627</ele>
        <time>2018-05-13T10:22:59.000Z</time>
      </trkpt>
      <trkpt lat="43.88489" lon="7.21767">
        <ele>626</ele>
        <time>2018-05-13T10:23:00.000Z</time>
      </trkpt>
      <trkpt lat="43.88484" lon="7.21783">
        <ele>625</ele>
        <time>2018-05-13T10:23:03.000Z</time>
      </trkpt>
      <trkpt lat="43.88477" lon="7.21792">
        <ele>624</ele>
        <time>2018-05-13T10:23:06.000Z</time>
      </trkpt>
      <trkpt lat="43.88472" lon="7.21803">
        <ele>625</ele>
        <time>2018-05-13T10:23:12.000Z</time>
      </trkpt>
      <trkpt lat="43.88471" lon="7.21805">
        <ele>625</ele>
        <time>2018-05-13T10:23:13.000Z</time>
      </trkpt>
      <trkpt lat="43.88471" lon="7.21811">
        <ele>625</ele>
        <time>2018-05-13T10:23:16.000Z</time>
      </trkpt>
      <trkpt lat="43.8847" lon="7.21816">
        <ele>626</ele>
        <time>2018-05-13T10:23:18.000Z</time>
      </trkpt>
      <trkpt lat="43.88468" lon="7.21831">
        <ele>626</ele>
        <time>2018-05-13T10:23:23.000Z</time>
      </trkpt>
      <trkpt lat="43.88466" lon="7.21839">
        <ele>631</ele>
        <time>2018-05-13T10:23:25.000Z</time>
      </trkpt>
      <trkpt lat="43.88465" lon="7.21854">
        <ele>631</ele>
        <time>2018-05-13T10:23:29.000Z</time>
      </trkpt>
      <trkpt lat="43.88463" lon="7.21866">
        <ele>631</ele>
        <time>2018-05-13T10:23:32.000Z</time>
      </trkpt>
      <trkpt lat="43.88461" lon="7.21892">
        <ele>632</ele>
        <time>2018-05-13T10:23:38.000Z</time>
      </trkpt>
      <trkpt lat="43.8846" lon="7.21896">
        <ele>632</ele>
        <time>2018-05-13T10:23:39.000Z</time>
      </trkpt>
      <trkpt lat="43.88457" lon="7.21928">
        <ele>633</ele>
        <time>2018-05-13T10:23:45.000Z</time>
      </trkpt>
      <trkpt lat="43.88457" lon="7.21934">
        <ele>633</ele>
        <time>2018-05-13T10:23:46.000Z</time>
      </trkpt>
      <trkpt lat="43.88458" lon="7.21948">
        <ele>633</ele>
        <time>2018-05-13T10:23:50.000Z</time>
      </trkpt>
      <trkpt lat="43.88459" lon="7.21956">
        <ele>633</ele>
        <time>2018-05-13T10:23:54.000Z</time>
      </trkpt>
      <trkpt lat="43.8846" lon="7.21961">
        <ele>633</ele>
        <time>2018-05-13T10:23:57.000Z</time>
      </trkpt>
      <trkpt lat="43.88461" lon="7.21963">
        <ele>633</ele>
        <time>2018-05-13T10:23:58.000Z</time>
      </trkpt>
      <trkpt lat="43.88463" lon="7.21972">
        <ele>633</ele>
        <time>2018-05-13T10:24:03.000Z</time>
      </trkpt>
      <trkpt lat="43.88465" lon="7.21975">
        <ele>633</ele>
        <time>2018-05-13T10:24:05.000Z</time>
      </trkpt>
      <trkpt lat="43.88466" lon="7.2198">
        <ele>634</ele>
        <time>2018-05-13T10:24:08.000Z</time>
      </trkpt>
      <trkpt lat="43.88467" lon="7.21983">
        <ele>634</ele>
        <time>2018-05-13T10:24:10.000Z</time>
      </trkpt>
      <trkpt lat="43.88468" lon="7.21984">
        <ele>634</ele>
        <time>2018-05-13T10:24:11.000Z</time>
      </trkpt>
      <trkpt lat="43.88469" lon="7.21992">
        <ele>634</ele>
        <time>2018-05-13T10:24:16.000Z</time>
      </trkpt>
      <trkpt lat="43.8847" lon="7.21993">
        <ele>635</ele>
        <time>2018-05-13T10:24:17.000Z</time>
      </trkpt>
      <trkpt lat="43.88472" lon="7.21997">
        <ele>635</ele>
        <time>2018-05-13T10:24:22.000Z</time>
      </trkpt>
      <trkpt lat="43.88475" lon="7.22001">
        <ele>631</ele>
        <time>2018-05-13T10:24:27.000Z</time>
      </trkpt>
      <trkpt lat="43.88476" lon="7.22004">
        <ele>632</ele>
        <time>2018-05-13T10:24:30.000Z</time>
      </trkpt>
      <trkpt lat="43.88478" lon="7.22007">
        <ele>632</ele>
        <time>2018-05-13T10:24:33.000Z</time>
      </trkpt>
      <trkpt lat="43.88482" lon="7.2201">
        <ele>633</ele>
        <time>2018-05-13T10:24:38.000Z</time>
      </trkpt>
      <trkpt lat="43.88487" lon="7.22013">
        <ele>634</ele>
        <time>2018-05-13T10:24:44.000Z</time>
      </trkpt>
      <trkpt lat="43.88488" lon="7.22013">
        <ele>634</ele>
        <time>2018-05-13T10:24:46.000Z</time>
      </trkpt>
      <trkpt lat="43.8849" lon="7.22016">
        <ele>634</ele>
        <time>2018-05-13T10:24:49.000Z</time>
      </trkpt>
      <trkpt lat="43.8849" lon="7.22017">
        <ele>634</ele>
        <time>2018-05-13T10:24:50.000Z</time>
      </trkpt>
      <trkpt lat="43.88492" lon="7.2202">
        <ele>633</ele>
        <time>2018-05-13T10:24:54.000Z</time>
      </trkpt>
      <trkpt lat="43.88495" lon="7.22024">
        <ele>633</ele>
        <time>2018-05-13T10:24:58.000Z</time>
      </trkpt>
      <trkpt lat="43.88497" lon="7.22028">
        <ele>632</ele>
        <time>2018-05-13T10:25:02.000Z</time>
      </trkpt>
      <trkpt lat="43.88499" lon="7.22033">
        <ele>631</ele>
        <time>2018-05-13T10:25:07.000Z</time>
      </trkpt>
      <trkpt lat="43.88502" lon="7.2204">
        <ele>654</ele>
        <time>2018-05-13T10:25:14.000Z</time>
      </trkpt>
      <trkpt lat="43.88507" lon="7.2205">
        <ele>653</ele>
        <time>2018-05-13T10:25:23.000Z</time>
      </trkpt>
      <trkpt lat="43.88508" lon="7.22051">
        <ele>653</ele>
        <time>2018-05-13T10:25:24.000Z</time>
      </trkpt>
      <trkpt lat="43.8851" lon="7.22055">
        <ele>653</ele>
        <time>2018-05-13T10:25:28.000Z</time>
      </trkpt>
      <trkpt lat="43.88512" lon="7.22058">
        <ele>652</ele>
        <time>2018-05-13T10:25:31.000Z</time>
      </trkpt>
      <trkpt lat="43.88515" lon="7.22063">
        <ele>652</ele>
        <time>2018-05-13T10:25:36.000Z</time>
      </trkpt>
      <trkpt lat="43.88517" lon="7.22067">
        <ele>651</ele>
        <time>2018-05-13T10:25:40.000Z</time>
      </trkpt>
      <trkpt lat="43.88518" lon="7.22069">
        <ele>651</ele>
        <time>2018-05-13T10:25:41.000Z</time>
      </trkpt>
      <trkpt lat="43.88522" lon="7.22073">
        <ele>652</ele>
        <time>2018-05-13T10:25:46.000Z</time>
      </trkpt>
      <trkpt lat="43.88524" lon="7.22075">
        <ele>652</ele>
        <time>2018-05-13T10:25:49.000Z</time>
      </trkpt>
      <trkpt lat="43.88524" lon="7.22076">
        <ele>653</ele>
        <time>2018-05-13T10:25:53.000Z</time>
      </trkpt>
      <trkpt lat="43.88525" lon="7.22077">
        <ele>653</ele>
        <time>2018-05-13T10:25:55.000Z</time>
      </trkpt>
      <trkpt lat="43.88528" lon="7.22079">
        <ele>654</ele>
        <time>2018-05-13T10:25:59.000Z</time>
      </trkpt>
      <trkpt lat="43.8853" lon="7.22081">
        <ele>655</ele>
        <time>2018-05-13T10:26:02.000Z</time>
      </trkpt>
      <trkpt lat="43.88532" lon="7.22083">
        <ele>646</ele>
        <time>2018-05-13T10:26:05.000Z</time>
      </trkpt>
      <trkpt lat="43.88533" lon="7.22088">
        <ele>647</ele>
        <time>2018-05-13T10:26:09.000Z</time>
      </trkpt>
      <trkpt lat="43.88535" lon="7.22092">
        <ele>647</ele>
        <time>2018-05-13T10:26:12.000Z</time>
      </trkpt>
      <trkpt lat="43.88538" lon="7.22097">
        <ele>648</ele>
        <time>2018-05-13T10:26:16.000Z</time>
      </trkpt>
      <trkpt lat="43.88539" lon="7.22099">
        <ele>648</ele>
        <time>2018-05-13T10:26:18.000Z</time>
      </trkpt>
      <trkpt lat="43.88542" lon="7.22105">
        <ele>649</ele>
        <time>2018-05-13T10:26:23.000Z</time>
      </trkpt>
      <trkpt lat="43.88544" lon="7.22109">
        <ele>649</ele>
        <time>2018-05-13T10:26:26.000Z</time>
      </trkpt>
      <trkpt lat="43.88548" lon="7.22116">
        <ele>649</ele>
        <time>2018-05-13T10:26:32.000Z</time>
      </trkpt>
      <trkpt lat="43.88549" lon="7.22118">
        <ele>649</ele>
        <time>2018-05-13T10:26:34.000Z</time>
      </trkpt>
      <trkpt lat="43.88552" lon="7.22123">
        <ele>649</ele>
        <time>2018-05-13T10:26:37.000Z</time>
      </trkpt>
      <trkpt lat="43.88557" lon="7.22129">
        <ele>650</ele>
        <time>2018-05-13T10:26:41.000Z</time>
      </trkpt>
      <trkpt lat="43.88564" lon="7.22138">
        <ele>650</ele>
        <time>2018-05-13T10:26:49.000Z</time>
      </trkpt>
      <trkpt lat="43.88569" lon="7.22143">
        <ele>651</ele>
        <time>2018-05-13T10:26:55.000Z</time>
      </trkpt>
      <trkpt lat="43.8857" lon="7.22144">
        <ele>651</ele>
        <time>2018-05-13T10:26:56.000Z</time>
      </trkpt>
      <trkpt lat="43.88579" lon="7.22149">
        <ele>653</ele>
        <time>2018-05-13T10:27:04.000Z</time>
      </trkpt>
      <trkpt lat="43.88578" lon="7.22149">
        <ele>653</ele>
        <time>2018-05-13T10:27:05.000Z</time>
      </trkpt>
      <trkpt lat="43.88581" lon="7.22153">
        <ele>653</ele>
        <time>2018-05-13T10:27:08.000Z</time>
      </trkpt>
      <trkpt lat="43.8859" lon="7.22166">
        <ele>664</ele>
        <time>2018-05-13T10:27:14.000Z</time>
      </trkpt>
      <trkpt lat="43.886" lon="7.22179">
        <ele>661</ele>
        <time>2018-05-13T10:27:20.000Z</time>
      </trkpt>
      <trkpt lat="43.88604" lon="7.22185">
        <ele>661</ele>
        <time>2018-05-13T10:27:23.000Z</time>
      </trkpt>
      <trkpt lat="43.88605" lon="7.22186">
        <ele>661</ele>
        <time>2018-05-13T10:27:26.000Z</time>
      </trkpt>
      <trkpt lat="43.88607" lon="7.22189">
        <ele>662</ele>
        <time>2018-05-13T10:27:31.000Z</time>
      </trkpt>
      <trkpt lat="43.88608" lon="7.22191">
        <ele>662</ele>
        <time>2018-05-13T10:27:33.000Z</time>
      </trkpt>
      <trkpt lat="43.88614" lon="7.22198">
        <ele>662</ele>
        <time>2018-05-13T10:27:40.000Z</time>
      </trkpt>
      <trkpt lat="43.88616" lon="7.22199">
        <ele>662</ele>
        <time>2018-05-13T10:27:43.000Z</time>
      </trkpt>
      <trkpt lat="43.88618" lon="7.22201">
        <ele>663</ele>
        <time>2018-05-13T10:27:46.000Z</time>
      </trkpt>
      <trkpt lat="43.88622" lon="7.22205">
        <ele>663</ele>
        <time>2018-05-13T10:27:50.000Z</time>
      </trkpt>
      <trkpt lat="43.88623" lon="7.22207">
        <ele>663</ele>
        <time>2018-05-13T10:27:52.000Z</time>
      </trkpt>
      <trkpt lat="43.88628" lon="7.22213">
        <ele>663</ele>
        <time>2018-05-13T10:27:58.000Z</time>
      </trkpt>
      <trkpt lat="43.88631" lon="7.22215">
        <ele>663</ele>
        <time>2018-05-13T10:28:00.000Z</time>
      </trkpt>
      <trkpt lat="43.88637" lon="7.22216">
        <ele>664</ele>
        <time>2018-05-13T10:28:02.000Z</time>
      </trkpt>
      <trkpt lat="43.88647" lon="7.22219">
        <ele>665</ele>
        <time>2018-05-13T10:28:06.000Z</time>
      </trkpt>
      <trkpt lat="43.8865" lon="7.22222">
        <ele>666</ele>
        <time>2018-05-13T10:28:08.000Z</time>
      </trkpt>
      <trkpt lat="43.88662" lon="7.22231">
        <ele>666</ele>
        <time>2018-05-13T10:28:15.000Z</time>
      </trkpt>
      <trkpt lat="43.88666" lon="7.22233">
        <ele>666</ele>
        <time>2018-05-13T10:28:18.000Z</time>
      </trkpt>
      <trkpt lat="43.8867" lon="7.22235">
        <ele>680</ele>
        <time>2018-05-13T10:28:21.000Z</time>
      </trkpt>
      <trkpt lat="43.88675" lon="7.22237">
        <ele>680</ele>
        <time>2018-05-13T10:28:24.000Z</time>
      </trkpt>
      <trkpt lat="43.88676" lon="7.22238">
        <ele>680</ele>
        <time>2018-05-13T10:28:25.000Z</time>
      </trkpt>
      <trkpt lat="43.88678" lon="7.2224">
        <ele>680</ele>
        <time>2018-05-13T10:28:28.000Z</time>
      </trkpt>
      <trkpt lat="43.88679" lon="7.2224">
        <ele>681</ele>
        <time>2018-05-13T10:28:29.000Z</time>
      </trkpt>
      <trkpt lat="43.88679" lon="7.22241">
        <ele>680</ele>
        <time>2018-05-13T10:28:30.000Z</time>
      </trkpt>
      <trkpt lat="43.88684" lon="7.22245">
        <ele>682</ele>
        <time>2018-05-13T10:28:36.000Z</time>
      </trkpt>
      <trkpt lat="43.88684" lon="7.22246">
        <ele>682</ele>
        <time>2018-05-13T10:28:37.000Z</time>
      </trkpt>
      <trkpt lat="43.88685" lon="7.22246">
        <ele>682</ele>
        <time>2018-05-13T10:28:38.000Z</time>
      </trkpt>
      <trkpt lat="43.8869" lon="7.22248">
        <ele>684</ele>
        <time>2018-05-13T10:28:44.000Z</time>
      </trkpt>
      <trkpt lat="43.8869" lon="7.22249">
        <ele>684</ele>
        <time>2018-05-13T10:28:45.000Z</time>
      </trkpt>
      <trkpt lat="43.88692" lon="7.22253">
        <ele>674</ele>
        <time>2018-05-13T10:28:48.000Z</time>
      </trkpt>
      <trkpt lat="43.88692" lon="7.22256">
        <ele>674</ele>
        <time>2018-05-13T10:28:51.000Z</time>
      </trkpt>
      <trkpt lat="43.88692" lon="7.2226">
        <ele>674</ele>
        <time>2018-05-13T10:28:54.000Z</time>
      </trkpt>
      <trkpt lat="43.88693" lon="7.22263">
        <ele>674</ele>
        <time>2018-05-13T10:28:55.000Z</time>
      </trkpt>
      <trkpt lat="43.88695" lon="7.22266">
        <ele>674</ele>
        <time>2018-05-13T10:28:56.000Z</time>
      </trkpt>
      <trkpt lat="43.88696" lon="7.22269">
        <ele>674</ele>
        <time>2018-05-13T10:28:57.000Z</time>
      </trkpt>
      <trkpt lat="43.88703" lon="7.2229">
        <ele>674</ele>
        <time>2018-05-13T10:29:03.000Z</time>
      </trkpt>
      <trkpt lat="43.88713" lon="7.22314">
        <ele>674</ele>
        <time>2018-05-13T10:29:09.000Z</time>
      </trkpt>
      <trkpt lat="43.88717" lon="7.22315">
        <ele>675</ele>
        <time>2018-05-13T10:29:10.000Z</time>
      </trkpt>
      <trkpt lat="43.8872" lon="7.22316">
        <ele>676</ele>
        <time>2018-05-13T10:29:11.000Z</time>
      </trkpt>
      <trkpt lat="43.88721" lon="7.22317">
        <ele>676</ele>
        <time>2018-05-13T10:29:12.000Z</time>
      </trkpt>
      <trkpt lat="43.8872" lon="7.22322">
        <ele>676</ele>
        <time>2018-05-13T10:29:15.000Z</time>
      </trkpt>
      <trkpt lat="43.88719" lon="7.22324">
        <ele>676</ele>
        <time>2018-05-13T10:29:16.000Z</time>
      </trkpt>
      <trkpt lat="43.88713" lon="7.22337">
        <ele>663</ele>
        <time>2018-05-13T10:29:20.000Z</time>
      </trkpt>
      <trkpt lat="43.8871" lon="7.22341">
        <ele>661</ele>
        <time>2018-05-13T10:29:21.000Z</time>
      </trkpt>
      <trkpt lat="43.88707" lon="7.22351">
        <ele>660</ele>
        <time>2018-05-13T10:29:23.000Z</time>
      </trkpt>
      <trkpt lat="43.88706" lon="7.22357">
        <ele>659</ele>
        <time>2018-05-13T10:29:24.000Z</time>
      </trkpt>
      <trkpt lat="43.88704" lon="7.2236">
        <ele>658</ele>
        <time>2018-05-13T10:29:25.000Z</time>
      </trkpt>
      <trkpt lat="43.88698" lon="7.22361">
        <ele>656</ele>
        <time>2018-05-13T10:29:28.000Z</time>
      </trkpt>
      <trkpt lat="43.88696" lon="7.22362">
        <ele>656</ele>
        <time>2018-05-13T10:29:29.000Z</time>
      </trkpt>
      <trkpt lat="43.88694" lon="7.22366">
        <ele>655</ele>
        <time>2018-05-13T10:29:30.000Z</time>
      </trkpt>
      <trkpt lat="43.88693" lon="7.22371">
        <ele>654</ele>
        <time>2018-05-13T10:29:31.000Z</time>
      </trkpt>
      <trkpt lat="43.88693" lon="7.22381">
        <ele>653</ele>
        <time>2018-05-13T10:29:33.000Z</time>
      </trkpt>
      <trkpt lat="43.88694" lon="7.22386">
        <ele>653</ele>
        <time>2018-05-13T10:29:34.000Z</time>
      </trkpt>
      <trkpt lat="43.88695" lon="7.22391">
        <ele>652</ele>
        <time>2018-05-13T10:29:35.000Z</time>
      </trkpt>
      <trkpt lat="43.88698" lon="7.22403">
        <ele>652</ele>
        <time>2018-05-13T10:29:37.000Z</time>
      </trkpt>
      <trkpt lat="43.88701" lon="7.22417">
        <ele>642</ele>
        <time>2018-05-13T10:29:39.000Z</time>
      </trkpt>
      <trkpt lat="43.88705" lon="7.22438">
        <ele>642</ele>
        <time>2018-05-13T10:29:42.000Z</time>
      </trkpt>
      <trkpt lat="43.88705" lon="7.22446">
        <ele>642</ele>
        <time>2018-05-13T10:29:43.000Z</time>
      </trkpt>
      <trkpt lat="43.88705" lon="7.22453">
        <ele>641</ele>
        <time>2018-05-13T10:29:44.000Z</time>
      </trkpt>
      <trkpt lat="43.88705" lon="7.22459">
        <ele>641</ele>
        <time>2018-05-13T10:29:45.000Z</time>
      </trkpt>
      <trkpt lat="43.88707" lon="7.22465">
        <ele>641</ele>
        <time>2018-05-13T10:29:46.000Z</time>
      </trkpt>
      <trkpt lat="43.88711" lon="7.22477">
        <ele>641</ele>
        <time>2018-05-13T10:29:48.000Z</time>
      </trkpt>
      <trkpt lat="43.88712" lon="7.2249">
        <ele>640</ele>
        <time>2018-05-13T10:29:50.000Z</time>
      </trkpt>
      <trkpt lat="43.88712" lon="7.22495">
        <ele>640</ele>
        <time>2018-05-13T10:29:51.000Z</time>
      </trkpt>
      <trkpt lat="43.88711" lon="7.225">
        <ele>628</ele>
        <time>2018-05-13T10:29:52.000Z</time>
      </trkpt>
      <trkpt lat="43.8871" lon="7.22509">
        <ele>627</ele>
        <time>2018-05-13T10:29:54.000Z</time>
      </trkpt>
      <trkpt lat="43.88708" lon="7.22515">
        <ele>626</ele>
        <time>2018-05-13T10:29:55.000Z</time>
      </trkpt>
      <trkpt lat="43.88708" lon="7.2252">
        <ele>625</ele>
        <time>2018-05-13T10:29:56.000Z</time>
      </trkpt>
      <trkpt lat="43.88708" lon="7.22524">
        <ele>625</ele>
        <time>2018-05-13T10:29:57.000Z</time>
      </trkpt>
      <trkpt lat="43.88709" lon="7.22528">
        <ele>625</ele>
        <time>2018-05-13T10:29:58.000Z</time>
      </trkpt>
      <trkpt lat="43.8871" lon="7.22536">
        <ele>624</ele>
        <time>2018-05-13T10:30:00.000Z</time>
      </trkpt>
      <trkpt lat="43.8871" lon="7.22539">
        <ele>624</ele>
        <time>2018-05-13T10:30:01.000Z</time>
      </trkpt>
      <trkpt lat="43.8871" lon="7.22543">
        <ele>623</ele>
        <time>2018-05-13T10:30:02.000Z</time>
      </trkpt>
      <trkpt lat="43.88709" lon="7.22554">
        <ele>622</ele>
        <time>2018-05-13T10:30:04.000Z</time>
      </trkpt>
      <trkpt lat="43.88707" lon="7.22558">
        <ele>621</ele>
        <time>2018-05-13T10:30:05.000Z</time>
      </trkpt>
      <trkpt lat="43.88708" lon="7.22563">
        <ele>620</ele>
        <time>2018-05-13T10:30:06.000Z</time>
      </trkpt>
      <trkpt lat="43.88711" lon="7.22573">
        <ele>620</ele>
        <time>2018-05-13T10:30:08.000Z</time>
      </trkpt>
      <trkpt lat="43.88717" lon="7.22579">
        <ele>621</ele>
        <time>2018-05-13T10:30:10.000Z</time>
      </trkpt>
      <trkpt lat="43.88726" lon="7.22586">
        <ele>611</ele>
        <time>2018-05-13T10:30:12.000Z</time>
      </trkpt>
      <trkpt lat="43.88728" lon="7.2259">
        <ele>611</ele>
        <time>2018-05-13T10:30:13.000Z</time>
      </trkpt>
      <trkpt lat="43.88728" lon="7.22594">
        <ele>610</ele>
        <time>2018-05-13T10:30:14.000Z</time>
      </trkpt>
      <trkpt lat="43.88729" lon="7.22599">
        <ele>610</ele>
        <time>2018-05-13T10:30:15.000Z</time>
      </trkpt>
      <trkpt lat="43.88731" lon="7.22604">
        <ele>609</ele>
        <time>2018-05-13T10:30:16.000Z</time>
      </trkpt>
      <trkpt lat="43.88733" lon="7.2261">
        <ele>608</ele>
        <time>2018-05-13T10:30:17.000Z</time>
      </trkpt>
      <trkpt lat="43.88731" lon="7.22613">
        <ele>607</ele>
        <time>2018-05-13T10:30:18.000Z</time>
      </trkpt>
      <trkpt lat="43.8873" lon="7.22614">
        <ele>606</ele>
        <time>2018-05-13T10:30:19.000Z</time>
      </trkpt>
      <trkpt lat="43.8873" lon="7.22616">
        <ele>606</ele>
        <time>2018-05-13T10:30:20.000Z</time>
      </trkpt>
      <trkpt lat="43.88729" lon="7.22618">
        <ele>605</ele>
        <time>2018-05-13T10:30:21.000Z</time>
      </trkpt>
      <trkpt lat="43.8873" lon="7.22621">
        <ele>605</ele>
        <time>2018-05-13T10:30:22.000Z</time>
      </trkpt>
      <trkpt lat="43.8873" lon="7.22625">
        <ele>604</ele>
        <time>2018-05-13T10:30:23.000Z</time>
      </trkpt>
      <trkpt lat="43.88728" lon="7.22628">
        <ele>603</ele>
        <time>2018-05-13T10:30:24.000Z</time>
      </trkpt>
      <trkpt lat="43.88728" lon="7.2263">
        <ele>603</ele>
        <time>2018-05-13T10:30:25.000Z</time>
      </trkpt>
      <trkpt lat="43.88727" lon="7.22632">
        <ele>603</ele>
        <time>2018-05-13T10:30:26.000Z</time>
      </trkpt>
      <trkpt lat="43.88725" lon="7.22632">
        <ele>602</ele>
        <time>2018-05-13T10:30:27.000Z</time>
      </trkpt>
      <trkpt lat="43.8872" lon="7.2263">
        <ele>602</ele>
        <time>2018-05-13T10:30:29.000Z</time>
      </trkpt>
      <trkpt lat="43.8872" lon="7.22632">
        <ele>602</ele>
        <time>2018-05-13T10:30:30.000Z</time>
      </trkpt>
      <trkpt lat="43.88719" lon="7.22633">
        <ele>601</ele>
        <time>2018-05-13T10:30:31.000Z</time>
      </trkpt>
      <trkpt lat="43.8872" lon="7.22638">
        <ele>601</ele>
        <time>2018-05-13T10:30:33.000Z</time>
      </trkpt>
      <trkpt lat="43.88719" lon="7.22648">
        <ele>600</ele>
        <time>2018-05-13T10:30:35.000Z</time>
      </trkpt>
      <trkpt lat="43.88719" lon="7.22657">
        <ele>599</ele>
        <time>2018-05-13T10:30:37.000Z</time>
      </trkpt>
      <trkpt lat="43.88717" lon="7.22661">
        <ele>598</ele>
        <time>2018-05-13T10:30:38.000Z</time>
      </trkpt>
      <trkpt lat="43.88716" lon="7.22664">
        <ele>598</ele>
        <time>2018-05-13T10:30:39.000Z</time>
      </trkpt>
      <trkpt lat="43.88713" lon="7.22674">
        <ele>584</ele>
        <time>2018-05-13T10:30:41.000Z</time>
      </trkpt>
      <trkpt lat="43.88713" lon="7.22679">
        <ele>584</ele>
        <time>2018-05-13T10:30:42.000Z</time>
      </trkpt>
      <trkpt lat="43.88712" lon="7.22685">
        <ele>583</ele>
        <time>2018-05-13T10:30:43.000Z</time>
      </trkpt>
      <trkpt lat="43.88712" lon="7.22697">
        <ele>582</ele>
        <time>2018-05-13T10:30:45.000Z</time>
      </trkpt>
      <trkpt lat="43.88713" lon="7.22709">
        <ele>580</ele>
        <time>2018-05-13T10:30:47.000Z</time>
      </trkpt>
      <trkpt lat="43.88714" lon="7.22715">
        <ele>580</ele>
        <time>2018-05-13T10:30:48.000Z</time>
      </trkpt>
      <trkpt lat="43.88713" lon="7.22727">
        <ele>579</ele>
        <time>2018-05-13T10:30:50.000Z</time>
      </trkpt>
      <trkpt lat="43.88712" lon="7.22732">
        <ele>578</ele>
        <time>2018-05-13T10:30:51.000Z</time>
      </trkpt>
      <trkpt lat="43.88713" lon="7.22737">
        <ele>578</ele>
        <time>2018-05-13T10:30:52.000Z</time>
      </trkpt>
      <trkpt lat="43.88712" lon="7.2275">
        <ele>577</ele>
        <time>2018-05-13T10:30:55.000Z</time>
      </trkpt>
      <trkpt lat="43.88711" lon="7.22754">
        <ele>569</ele>
        <time>2018-05-13T10:30:56.000Z</time>
      </trkpt>
      <trkpt lat="43.88709" lon="7.22758">
        <ele>568</ele>
        <time>2018-05-13T10:30:57.000Z</time>
      </trkpt>
      <trkpt lat="43.88706" lon="7.22764">
        <ele>567</ele>
        <time>2018-05-13T10:30:59.000Z</time>
      </trkpt>
      <trkpt lat="43.88703" lon="7.22765">
        <ele>567</ele>
        <time>2018-05-13T10:31:00.000Z</time>
      </trkpt>
      <trkpt lat="43.88702" lon="7.22766">
        <ele>566</ele>
        <time>2018-05-13T10:31:01.000Z</time>
      </trkpt>
      <trkpt lat="43.887" lon="7.22773">
        <ele>566</ele>
        <time>2018-05-13T10:31:03.000Z</time>
      </trkpt>
      <trkpt lat="43.88699" lon="7.22776">
        <ele>566</ele>
        <time>2018-05-13T10:31:04.000Z</time>
      </trkpt>
      <trkpt lat="43.88698" lon="7.22778">
        <ele>566</ele>
        <time>2018-05-13T10:31:05.000Z</time>
      </trkpt>
      <trkpt lat="43.88696" lon="7.22781">
        <ele>565</ele>
        <time>2018-05-13T10:31:06.000Z</time>
      </trkpt>
      <trkpt lat="43.88694" lon="7.22784">
        <ele>565</ele>
        <time>2018-05-13T10:31:08.000Z</time>
      </trkpt>
      <trkpt lat="43.88694" lon="7.22785">
        <ele>565</ele>
        <time>2018-05-13T10:31:09.000Z</time>
      </trkpt>
      <trkpt lat="43.88693" lon="7.22782">
        <ele>565</ele>
        <time>2018-05-13T10:31:11.000Z</time>
      </trkpt>
      <trkpt lat="43.88694" lon="7.22782">
        <ele>565</ele>
        <time>2018-05-13T10:31:13.000Z</time>
      </trkpt>
      <trkpt lat="43.88694" lon="7.2278">
        <ele>565</ele>
        <time>2018-05-13T10:31:15.000Z</time>
      </trkpt>
      <trkpt lat="43.88695" lon="7.22773">
        <ele>565</ele>
        <time>2018-05-13T10:31:18.000Z</time>
      </trkpt>
      <trkpt lat="43.88692" lon="7.22771">
        <ele>565</ele>
        <time>2018-05-13T10:31:20.000Z</time>
      </trkpt>
      <trkpt lat="43.88691" lon="7.22773">
        <ele>565</ele>
        <time>2018-05-13T10:31:21.000Z</time>
      </trkpt>
      <trkpt lat="43.88687" lon="7.22779">
        <ele>564</ele>
        <time>2018-05-13T10:31:23.000Z</time>
      </trkpt>
      <trkpt lat="43.88685" lon="7.22785">
        <ele>564</ele>
        <time>2018-05-13T10:31:25.000Z</time>
      </trkpt>
      <trkpt lat="43.88683" lon="7.22789">
        <ele>563</ele>
        <time>2018-05-13T10:31:27.000Z</time>
      </trkpt>
      <trkpt lat="43.88683" lon="7.22793">
        <ele>563</ele>
        <time>2018-05-13T10:31:28.000Z</time>
      </trkpt>
      <trkpt lat="43.88681" lon="7.22801">
        <ele>562</ele>
        <time>2018-05-13T10:31:30.000Z</time>
      </trkpt>
      <trkpt lat="43.88678" lon="7.2281">
        <ele>561</ele>
        <time>2018-05-13T10:31:32.000Z</time>
      </trkpt>
      <trkpt lat="43.88678" lon="7.22813">
        <ele>560</ele>
        <time>2018-05-13T10:31:33.000Z</time>
      </trkpt>
      <trkpt lat="43.88678" lon="7.22817">
        <ele>560</ele>
        <time>2018-05-13T10:31:34.000Z</time>
      </trkpt>
      <trkpt lat="43.88676" lon="7.2282">
        <ele>559</ele>
        <time>2018-05-13T10:31:35.000Z</time>
      </trkpt>
      <trkpt lat="43.88674" lon="7.22823">
        <ele>558</ele>
        <time>2018-05-13T10:31:36.000Z</time>
      </trkpt>
      <trkpt lat="43.88672" lon="7.22824">
        <ele>557</ele>
        <time>2018-05-13T10:31:37.000Z</time>
      </trkpt>
      <trkpt lat="43.88669" lon="7.22824">
        <ele>557</ele>
        <time>2018-05-13T10:31:38.000Z</time>
      </trkpt>
      <trkpt lat="43.88667" lon="7.22822">
        <ele>557</ele>
        <time>2018-05-13T10:31:39.000Z</time>
      </trkpt>
      <trkpt lat="43.88667" lon="7.22827">
        <ele>550</ele>
        <time>2018-05-13T10:31:40.000Z</time>
      </trkpt>
      <trkpt lat="43.88666" lon="7.2283">
        <ele>551</ele>
        <time>2018-05-13T10:31:41.000Z</time>
      </trkpt>
      <trkpt lat="43.88666" lon="7.22836">
        <ele>550</ele>
        <time>2018-05-13T10:31:42.000Z</time>
      </trkpt>
      <trkpt lat="43.88666" lon="7.22846">
        <ele>546</ele>
        <time>2018-05-13T10:31:44.000Z</time>
      </trkpt>
      <trkpt lat="43.88664" lon="7.2285">
        <ele>545</ele>
        <time>2018-05-13T10:31:45.000Z</time>
      </trkpt>
      <trkpt lat="43.88663" lon="7.22852">
        <ele>545</ele>
        <time>2018-05-13T10:31:46.000Z</time>
      </trkpt>
      <trkpt lat="43.88659" lon="7.22858">
        <ele>543</ele>
        <time>2018-05-13T10:31:48.000Z</time>
      </trkpt>
      <trkpt lat="43.88658" lon="7.22862">
        <ele>542</ele>
        <time>2018-05-13T10:31:49.000Z</time>
      </trkpt>
      <trkpt lat="43.88655" lon="7.22864">
        <ele>542</ele>
        <time>2018-05-13T10:31:50.000Z</time>
      </trkpt>
      <trkpt lat="43.88649" lon="7.2287">
        <ele>541</ele>
        <time>2018-05-13T10:31:52.000Z</time>
      </trkpt>
      <trkpt lat="43.88644" lon="7.2287">
        <ele>540</ele>
        <time>2018-05-13T10:31:54.000Z</time>
      </trkpt>
      <trkpt lat="43.88641" lon="7.22869">
        <ele>540</ele>
        <time>2018-05-13T10:31:55.000Z</time>
      </trkpt>
      <trkpt lat="43.88634" lon="7.22871">
        <ele>539</ele>
        <time>2018-05-13T10:31:57.000Z</time>
      </trkpt>
      <trkpt lat="43.88632" lon="7.22873">
        <ele>539</ele>
        <time>2018-05-13T10:31:58.000Z</time>
      </trkpt>
      <trkpt lat="43.88626" lon="7.22878">
        <ele>538</ele>
        <time>2018-05-13T10:32:00.000Z</time>
      </trkpt>
      <trkpt lat="43.88623" lon="7.2288">
        <ele>538</ele>
        <time>2018-05-13T10:32:01.000Z</time>
      </trkpt>
      <trkpt lat="43.88622" lon="7.22882">
        <ele>538</ele>
        <time>2018-05-13T10:32:02.000Z</time>
      </trkpt>
      <trkpt lat="43.88622" lon="7.22888">
        <ele>537</ele>
        <time>2018-05-13T10:32:04.000Z</time>
      </trkpt>
      <trkpt lat="43.88624" lon="7.22889">
        <ele>537</ele>
        <time>2018-05-13T10:32:05.000Z</time>
      </trkpt>
      <trkpt lat="43.88627" lon="7.22893">
        <ele>538</ele>
        <time>2018-05-13T10:32:06.000Z</time>
      </trkpt>
      <trkpt lat="43.88633" lon="7.22896">
        <ele>538</ele>
        <time>2018-05-13T10:32:08.000Z</time>
      </trkpt>
      <trkpt lat="43.88636" lon="7.22899">
        <ele>538</ele>
        <time>2018-05-13T10:32:09.000Z</time>
      </trkpt>
      <trkpt lat="43.88634" lon="7.22904">
        <ele>538</ele>
        <time>2018-05-13T10:32:10.000Z</time>
      </trkpt>
      <trkpt lat="43.88633" lon="7.22908">
        <ele>537</ele>
        <time>2018-05-13T10:32:11.000Z</time>
      </trkpt>
      <trkpt lat="43.88632" lon="7.22913">
        <ele>537</ele>
        <time>2018-05-13T10:32:12.000Z</time>
      </trkpt>
      <trkpt lat="43.8863" lon="7.22918">
        <ele>528</ele>
        <time>2018-05-13T10:32:13.000Z</time>
      </trkpt>
      <trkpt lat="43.88628" lon="7.22923">
        <ele>528</ele>
        <time>2018-05-13T10:32:14.000Z</time>
      </trkpt>
      <trkpt lat="43.88624" lon="7.22932">
        <ele>527</ele>
        <time>2018-05-13T10:32:16.000Z</time>
      </trkpt>
      <trkpt lat="43.8862" lon="7.2294">
        <ele>526</ele>
        <time>2018-05-13T10:32:18.000Z</time>
      </trkpt>
      <trkpt lat="43.8862" lon="7.22945">
        <ele>526</ele>
        <time>2018-05-13T10:32:19.000Z</time>
      </trkpt>
      <trkpt lat="43.88619" lon="7.22951">
        <ele>525</ele>
        <time>2018-05-13T10:32:20.000Z</time>
      </trkpt>
      <trkpt lat="43.88618" lon="7.22955">
        <ele>524</ele>
        <time>2018-05-13T10:32:21.000Z</time>
      </trkpt>
      <trkpt lat="43.88618" lon="7.2296">
        <ele>524</ele>
        <time>2018-05-13T10:32:22.000Z</time>
      </trkpt>
      <trkpt lat="43.88619" lon="7.22965">
        <ele>523</ele>
        <time>2018-05-13T10:32:23.000Z</time>
      </trkpt>
      <trkpt lat="43.8862" lon="7.22972">
        <ele>523</ele>
        <time>2018-05-13T10:32:24.000Z</time>
      </trkpt>
      <trkpt lat="43.88618" lon="7.22976">
        <ele>522</ele>
        <time>2018-05-13T10:32:25.000Z</time>
      </trkpt>
      <trkpt lat="43.88618" lon="7.22981">
        <ele>522</ele>
        <time>2018-05-13T10:32:26.000Z</time>
      </trkpt>
      <trkpt lat="43.88618" lon="7.22988">
        <ele>521</ele>
        <time>2018-05-13T10:32:27.000Z</time>
      </trkpt>
      <trkpt lat="43.88618" lon="7.22994">
        <ele>521</ele>
        <time>2018-05-13T10:32:28.000Z</time>
      </trkpt>
      <trkpt lat="43.88618" lon="7.23005">
        <ele>504</ele>
        <time>2018-05-13T10:32:30.000Z</time>
      </trkpt>
      <trkpt lat="43.88618" lon="7.23009">
        <ele>503</ele>
        <time>2018-05-13T10:32:31.000Z</time>
      </trkpt>
      <trkpt lat="43.8862" lon="7.23013">
        <ele>502</ele>
        <time>2018-05-13T10:32:32.000Z</time>
      </trkpt>
      <trkpt lat="43.88623" lon="7.23016">
        <ele>502</ele>
        <time>2018-05-13T10:32:33.000Z</time>
      </trkpt>
      <trkpt lat="43.88626" lon="7.23019">
        <ele>502</ele>
        <time>2018-05-13T10:32:34.000Z</time>
      </trkpt>
      <trkpt lat="43.88627" lon="7.23021">
        <ele>501</ele>
        <time>2018-05-13T10:32:35.000Z</time>
      </trkpt>
      <trkpt lat="43.88628" lon="7.23023">
        <ele>501</ele>
        <time>2018-05-13T10:32:36.000Z</time>
      </trkpt>
      <trkpt lat="43.88629" lon="7.23029">
        <ele>500</ele>
        <time>2018-05-13T10:32:38.000Z</time>
      </trkpt>
      <trkpt lat="43.88629" lon="7.23034">
        <ele>499</ele>
        <time>2018-05-13T10:32:40.000Z</time>
      </trkpt>
      <trkpt lat="43.88627" lon="7.23039">
        <ele>498</ele>
        <time>2018-05-13T10:32:42.000Z</time>
      </trkpt>
      <trkpt lat="43.88626" lon="7.23043">
        <ele>497</ele>
        <time>2018-05-13T10:32:43.000Z</time>
      </trkpt>
      <trkpt lat="43.88624" lon="7.23046">
        <ele>496</ele>
        <time>2018-05-13T10:32:44.000Z</time>
      </trkpt>
      <trkpt lat="43.88622" lon="7.23049">
        <ele>496</ele>
        <time>2018-05-13T10:32:45.000Z</time>
      </trkpt>
      <trkpt lat="43.8862" lon="7.23053">
        <ele>495</ele>
        <time>2018-05-13T10:32:46.000Z</time>
      </trkpt>
      <trkpt lat="43.88619" lon="7.2306">
        <ele>493</ele>
        <time>2018-05-13T10:32:48.000Z</time>
      </trkpt>
      <trkpt lat="43.88618" lon="7.23064">
        <ele>493</ele>
        <time>2018-05-13T10:32:49.000Z</time>
      </trkpt>
      <trkpt lat="43.88618" lon="7.23069">
        <ele>492</ele>
        <time>2018-05-13T10:32:50.000Z</time>
      </trkpt>
      <trkpt lat="43.88619" lon="7.23072">
        <ele>491</ele>
        <time>2018-05-13T10:32:51.000Z</time>
      </trkpt>
      <trkpt lat="43.88621" lon="7.23074">
        <ele>491</ele>
        <time>2018-05-13T10:32:52.000Z</time>
      </trkpt>
      <trkpt lat="43.88624" lon="7.23077">
        <ele>491</ele>
        <time>2018-05-13T10:32:54.000Z</time>
      </trkpt>
      <trkpt lat="43.88625" lon="7.23076">
        <ele>491</ele>
        <time>2018-05-13T10:32:55.000Z</time>
      </trkpt>
      <trkpt lat="43.88631" lon="7.23074">
        <ele>492</ele>
        <time>2018-05-13T10:32:57.000Z</time>
      </trkpt>
      <trkpt lat="43.88637" lon="7.23076">
        <ele>491</ele>
        <time>2018-05-13T10:32:59.000Z</time>
      </trkpt>
      <trkpt lat="43.88641" lon="7.23078">
        <ele>491</ele>
        <time>2018-05-13T10:33:00.000Z</time>
      </trkpt>
      <trkpt lat="43.88645" lon="7.23079">
        <ele>490</ele>
        <time>2018-05-13T10:33:01.000Z</time>
      </trkpt>
      <trkpt lat="43.88648" lon="7.23079">
        <ele>490</ele>
        <time>2018-05-13T10:33:02.000Z</time>
      </trkpt>
      <trkpt lat="43.88651" lon="7.23078">
        <ele>489</ele>
        <time>2018-05-13T10:33:03.000Z</time>
      </trkpt>
      <trkpt lat="43.88658" lon="7.23074">
        <ele>489</ele>
        <time>2018-05-13T10:33:05.000Z</time>
      </trkpt>
      <trkpt lat="43.8866" lon="7.23079">
        <ele>487</ele>
        <time>2018-05-13T10:33:06.000Z</time>
      </trkpt>
      <trkpt lat="43.88662" lon="7.23085">
        <ele>480</ele>
        <time>2018-05-13T10:33:07.000Z</time>
      </trkpt>
      <trkpt lat="43.88669" lon="7.23099">
        <ele>480</ele>
        <time>2018-05-13T10:33:10.000Z</time>
      </trkpt>
      <trkpt lat="43.8867" lon="7.23102">
        <ele>479</ele>
        <time>2018-05-13T10:33:11.000Z</time>
      </trkpt>
      <trkpt lat="43.88671" lon="7.23106">
        <ele>479</ele>
        <time>2018-05-13T10:33:12.000Z</time>
      </trkpt>
      <trkpt lat="43.8867" lon="7.23112">
        <ele>477</ele>
        <time>2018-05-13T10:33:14.000Z</time>
      </trkpt>
      <trkpt lat="43.88671" lon="7.23114">
        <ele>477</ele>
        <time>2018-05-13T10:33:15.000Z</time>
      </trkpt>
      <trkpt lat="43.88672" lon="7.23117">
        <ele>476</ele>
        <time>2018-05-13T10:33:16.000Z</time>
      </trkpt>
      <trkpt lat="43.88674" lon="7.23121">
        <ele>475</ele>
        <time>2018-05-13T10:33:17.000Z</time>
      </trkpt>
      <trkpt lat="43.88676" lon="7.23126">
        <ele>474</ele>
        <time>2018-05-13T10:33:18.000Z</time>
      </trkpt>
      <trkpt lat="43.88679" lon="7.23128">
        <ele>473</ele>
        <time>2018-05-13T10:33:19.000Z</time>
      </trkpt>
      <trkpt lat="43.88687" lon="7.23132">
        <ele>473</ele>
        <time>2018-05-13T10:33:21.000Z</time>
      </trkpt>
      <trkpt lat="43.88695" lon="7.23139">
        <ele>473</ele>
        <time>2018-05-13T10:33:23.000Z</time>
      </trkpt>
      <trkpt lat="43.88704" lon="7.2315">
        <ele>472</ele>
        <time>2018-05-13T10:33:25.000Z</time>
      </trkpt>
      <trkpt lat="43.88712" lon="7.23161">
        <ele>472</ele>
        <time>2018-05-13T10:33:27.000Z</time>
      </trkpt>
      <trkpt lat="43.88714" lon="7.23168">
        <ele>450</ele>
        <time>2018-05-13T10:33:28.000Z</time>
      </trkpt>
      <trkpt lat="43.88716" lon="7.23174">
        <ele>450</ele>
        <time>2018-05-13T10:33:29.000Z</time>
      </trkpt>
      <trkpt lat="43.8872" lon="7.23179">
        <ele>450</ele>
        <time>2018-05-13T10:33:31.000Z</time>
      </trkpt>
      <trkpt lat="43.88722" lon="7.23183">
        <ele>450</ele>
        <time>2018-05-13T10:33:32.000Z</time>
      </trkpt>
      <trkpt lat="43.88729" lon="7.23189">
        <ele>450</ele>
        <time>2018-05-13T10:33:34.000Z</time>
      </trkpt>
      <trkpt lat="43.88734" lon="7.23194">
        <ele>450</ele>
        <time>2018-05-13T10:33:35.000Z</time>
      </trkpt>
      <trkpt lat="43.88738" lon="7.23199">
        <ele>449</ele>
        <time>2018-05-13T10:33:36.000Z</time>
      </trkpt>
      <trkpt lat="43.88743" lon="7.23203">
        <ele>447</ele>
        <time>2018-05-13T10:33:37.000Z</time>
      </trkpt>
      <trkpt lat="43.88746" lon="7.23208">
        <ele>446</ele>
        <time>2018-05-13T10:33:38.000Z</time>
      </trkpt>
      <trkpt lat="43.88748" lon="7.23214">
        <ele>444</ele>
        <time>2018-05-13T10:33:39.000Z</time>
      </trkpt>
      <trkpt lat="43.88751" lon="7.23224">
        <ele>455</ele>
        <time>2018-05-13T10:33:41.000Z</time>
      </trkpt>
      <trkpt lat="43.88752" lon="7.23229">
        <ele>453</ele>
        <time>2018-05-13T10:33:42.000Z</time>
      </trkpt>
      <trkpt lat="43.88751" lon="7.23236">
        <ele>449</ele>
        <time>2018-05-13T10:33:44.000Z</time>
      </trkpt>
      <trkpt lat="43.88751" lon="7.23241">
        <ele>445</ele>
        <time>2018-05-13T10:33:46.000Z</time>
      </trkpt>
      <trkpt lat="43.88752" lon="7.23244">
        <ele>443</ele>
        <time>2018-05-13T10:33:47.000Z</time>
      </trkpt>
      <trkpt lat="43.88755" lon="7.23249">
        <ele>441</ele>
        <time>2018-05-13T10:33:49.000Z</time>
      </trkpt>
      <trkpt lat="43.88756" lon="7.2325">
        <ele>439</ele>
        <time>2018-05-13T10:33:50.000Z</time>
      </trkpt>
      <trkpt lat="43.88757" lon="7.23252">
        <ele>439</ele>
        <time>2018-05-13T10:33:51.000Z</time>
      </trkpt>
      <trkpt lat="43.88759" lon="7.23258">
        <ele>441</ele>
        <time>2018-05-13T10:33:53.000Z</time>
      </trkpt>
      <trkpt lat="43.88758" lon="7.23261">
        <ele>441</ele>
        <time>2018-05-13T10:33:54.000Z</time>
      </trkpt>
      <trkpt lat="43.88756" lon="7.23262">
        <ele>441</ele>
        <time>2018-05-13T10:33:55.000Z</time>
      </trkpt>
      <trkpt lat="43.88751" lon="7.23261">
        <ele>440</ele>
        <time>2018-05-13T10:33:57.000Z</time>
      </trkpt>
      <trkpt lat="43.88749" lon="7.23263">
        <ele>429</ele>
        <time>2018-05-13T10:33:59.000Z</time>
      </trkpt>
      <trkpt lat="43.8875" lon="7.23265">
        <ele>441</ele>
        <time>2018-05-13T10:34:00.000Z</time>
      </trkpt>
      <trkpt lat="43.88752" lon="7.23267">
        <ele>441</ele>
        <time>2018-05-13T10:34:02.000Z</time>
      </trkpt>
      <trkpt lat="43.88754" lon="7.23271">
        <ele>442</ele>
        <time>2018-05-13T10:34:04.000Z</time>
      </trkpt>
      <trkpt lat="43.88755" lon="7.23272">
        <ele>442</ele>
        <time>2018-05-13T10:34:05.000Z</time>
      </trkpt>
      <trkpt lat="43.88756" lon="7.23272">
        <ele>442</ele>
        <time>2018-05-13T10:34:07.000Z</time>
      </trkpt>
      <trkpt lat="43.88757" lon="7.23274">
        <ele>443</ele>
        <time>2018-05-13T10:34:11.000Z</time>
      </trkpt>
      <trkpt lat="43.88757" lon="7.23277">
        <ele>443</ele>
        <time>2018-05-13T10:34:13.000Z</time>
      </trkpt>
      <trkpt lat="43.88756" lon="7.23279">
        <ele>443</ele>
        <time>2018-05-13T10:34:15.000Z</time>
      </trkpt>
      <trkpt lat="43.88753" lon="7.23279">
        <ele>443</ele>
        <time>2018-05-13T10:34:18.000Z</time>
      </trkpt>
      <trkpt lat="43.88752" lon="7.23279">
        <ele>443</ele>
        <time>2018-05-13T10:34:20.000Z</time>
      </trkpt>
      <trkpt lat="43.88752" lon="7.2328">
        <ele>443</ele>
        <time>2018-05-13T10:34:21.000Z</time>
      </trkpt>
      <trkpt lat="43.88753" lon="7.2328">
        <ele>443</ele>
        <time>2018-05-13T10:34:24.000Z</time>
      </trkpt>
      <trkpt lat="43.88752" lon="7.23281">
        <ele>443</ele>
        <time>2018-05-13T10:34:25.000Z</time>
      </trkpt>
      <trkpt lat="43.88752" lon="7.23281">
        <ele>443</ele>
        <time>2018-05-13T10:34:28.000Z</time>
      </trkpt>
      <trkpt lat="43.88751" lon="7.23282">
        <ele>443</ele>
        <time>2018-05-13T10:34:32.000Z</time>
      </trkpt>
      <trkpt lat="43.88746" lon="7.23282">
        <ele>424</ele>
        <time>2018-05-13T10:34:34.000Z</time>
      </trkpt>
      <trkpt lat="43.88742" lon="7.23283">
        <ele>423</ele>
        <time>2018-05-13T10:34:35.000Z</time>
      </trkpt>
      <trkpt lat="43.88733" lon="7.23283">
        <ele>422</ele>
        <time>2018-05-13T10:34:38.000Z</time>
      </trkpt>
      <trkpt lat="43.88731" lon="7.23282">
        <ele>422</ele>
        <time>2018-05-13T10:34:39.000Z</time>
      </trkpt>
      <trkpt lat="43.88729" lon="7.23282">
        <ele>421</ele>
        <time>2018-05-13T10:34:40.000Z</time>
      </trkpt>
      <trkpt lat="43.88728" lon="7.23286">
        <ele>421</ele>
        <time>2018-05-13T10:34:41.000Z</time>
      </trkpt>
      <trkpt lat="43.88725" lon="7.23289">
        <ele>420</ele>
        <time>2018-05-13T10:34:42.000Z</time>
      </trkpt>
      <trkpt lat="43.88723" lon="7.23293">
        <ele>420</ele>
        <time>2018-05-13T10:34:43.000Z</time>
      </trkpt>
      <trkpt lat="43.88721" lon="7.23297">
        <ele>419</ele>
        <time>2018-05-13T10:34:44.000Z</time>
      </trkpt>
      <trkpt lat="43.88721" lon="7.23301">
        <ele>419</ele>
        <time>2018-05-13T10:34:45.000Z</time>
      </trkpt>
      <trkpt lat="43.8872" lon="7.23305">
        <ele>419</ele>
        <time>2018-05-13T10:34:46.000Z</time>
      </trkpt>
      <trkpt lat="43.88719" lon="7.23306">
        <ele>419</ele>
        <time>2018-05-13T10:34:47.000Z</time>
      </trkpt>
      <trkpt lat="43.88716" lon="7.23303">
        <ele>418</ele>
        <time>2018-05-13T10:34:48.000Z</time>
      </trkpt>
      <trkpt lat="43.88711" lon="7.23302">
        <ele>417</ele>
        <time>2018-05-13T10:34:50.000Z</time>
      </trkpt>
      <trkpt lat="43.88708" lon="7.23302">
        <ele>416</ele>
        <time>2018-05-13T10:34:51.000Z</time>
      </trkpt>
      <trkpt lat="43.887" lon="7.23296">
        <ele>415</ele>
        <time>2018-05-13T10:34:54.000Z</time>
      </trkpt>
      <trkpt lat="43.88696" lon="7.23289">
        <ele>415</ele>
        <time>2018-05-13T10:34:56.000Z</time>
      </trkpt>
      <trkpt lat="43.88689" lon="7.23286">
        <ele>414</ele>
        <time>2018-05-13T10:34:58.000Z</time>
      </trkpt>
      <trkpt lat="43.88685" lon="7.23285">
        <ele>414</ele>
        <time>2018-05-13T10:34:59.000Z</time>
      </trkpt>
      <trkpt lat="43.8868" lon="7.23284">
        <ele>413</ele>
        <time>2018-05-13T10:35:00.000Z</time>
      </trkpt>
      <trkpt lat="43.88676" lon="7.23285">
        <ele>413</ele>
        <time>2018-05-13T10:35:01.000Z</time>
      </trkpt>
      <trkpt lat="43.88673" lon="7.23286">
        <ele>413</ele>
        <time>2018-05-13T10:35:02.000Z</time>
      </trkpt>
      <trkpt lat="43.8867" lon="7.23289">
        <ele>412</ele>
        <time>2018-05-13T10:35:03.000Z</time>
      </trkpt>
      <trkpt lat="43.88667" lon="7.23292">
        <ele>412</ele>
        <time>2018-05-13T10:35:04.000Z</time>
      </trkpt>
      <trkpt lat="43.88665" lon="7.23297">
        <ele>395</ele>
        <time>2018-05-13T10:35:05.000Z</time>
      </trkpt>
      <trkpt lat="43.8866" lon="7.233">
        <ele>394</ele>
        <time>2018-05-13T10:35:06.000Z</time>
      </trkpt>
      <trkpt lat="43.88655" lon="7.23303">
        <ele>394</ele>
        <time>2018-05-13T10:35:07.000Z</time>
      </trkpt>
      <trkpt lat="43.88648" lon="7.23307">
        <ele>393</ele>
        <time>2018-05-13T10:35:08.000Z</time>
      </trkpt>
      <trkpt lat="43.88643" lon="7.23311">
        <ele>392</ele>
        <time>2018-05-13T10:35:09.000Z</time>
      </trkpt>
      <trkpt lat="43.88636" lon="7.23316">
        <ele>391</ele>
        <time>2018-05-13T10:35:10.000Z</time>
      </trkpt>
      <trkpt lat="43.88631" lon="7.2332">
        <ele>390</ele>
        <time>2018-05-13T10:35:11.000Z</time>
      </trkpt>
      <trkpt lat="43.88625" lon="7.23324">
        <ele>389</ele>
        <time>2018-05-13T10:35:12.000Z</time>
      </trkpt>
      <trkpt lat="43.8862" lon="7.23327">
        <ele>387</ele>
        <time>2018-05-13T10:35:13.000Z</time>
      </trkpt>
      <trkpt lat="43.88612" lon="7.23331">
        <ele>385</ele>
        <time>2018-05-13T10:35:15.000Z</time>
      </trkpt>
      <trkpt lat="43.8861" lon="7.23335">
        <ele>383</ele>
        <time>2018-05-13T10:35:16.000Z</time>
      </trkpt>
      <trkpt lat="43.8861" lon="7.23337">
        <ele>383</ele>
        <time>2018-05-13T10:35:17.000Z</time>
      </trkpt>
      <trkpt lat="43.8861" lon="7.23344">
        <ele>383</ele>
        <time>2018-05-13T10:35:19.000Z</time>
      </trkpt>
      <trkpt lat="43.8861" lon="7.23349">
        <ele>384</ele>
        <time>2018-05-13T10:35:20.000Z</time>
      </trkpt>
      <trkpt lat="43.88611" lon="7.23354">
        <ele>385</ele>
        <time>2018-05-13T10:35:21.000Z</time>
      </trkpt>
      <trkpt lat="43.88611" lon="7.23361">
        <ele>385</ele>
        <time>2018-05-13T10:35:23.000Z</time>
      </trkpt>
      <trkpt lat="43.8861" lon="7.23362">
        <ele>385</ele>
        <time>2018-05-13T10:35:24.000Z</time>
      </trkpt>
      <trkpt lat="43.88608" lon="7.23363">
        <ele>385</ele>
        <time>2018-05-13T10:35:25.000Z</time>
      </trkpt>
      <trkpt lat="43.88605" lon="7.23371">
        <ele>385</ele>
        <time>2018-05-13T10:35:27.000Z</time>
      </trkpt>
      <trkpt lat="43.88605" lon="7.23377">
        <ele>386</ele>
        <time>2018-05-13T10:35:28.000Z</time>
      </trkpt>
      <trkpt lat="43.88604" lon="7.23383">
        <ele>386</ele>
        <time>2018-05-13T10:35:29.000Z</time>
      </trkpt>
      <trkpt lat="43.88602" lon="7.2339">
        <ele>386</ele>
        <time>2018-05-13T10:35:30.000Z</time>
      </trkpt>
      <trkpt lat="43.88599" lon="7.23397">
        <ele>386</ele>
        <time>2018-05-13T10:35:31.000Z</time>
      </trkpt>
      <trkpt lat="43.88596" lon="7.23403">
        <ele>385</ele>
        <time>2018-05-13T10:35:32.000Z</time>
      </trkpt>
      <trkpt lat="43.88588" lon="7.23416">
        <ele>382</ele>
        <time>2018-05-13T10:35:34.000Z</time>
      </trkpt>
      <trkpt lat="43.88579" lon="7.2343">
        <ele>378</ele>
        <time>2018-05-13T10:35:36.000Z</time>
      </trkpt>
      <trkpt lat="43.88566" lon="7.23452">
        <ele>378</ele>
        <time>2018-05-13T10:35:39.000Z</time>
      </trkpt>
      <trkpt lat="43.88557" lon="7.23465">
        <ele>379</ele>
        <time>2018-05-13T10:35:41.000Z</time>
      </trkpt>
      <trkpt lat="43.88552" lon="7.23471">
        <ele>379</ele>
        <time>2018-05-13T10:35:42.000Z</time>
      </trkpt>
      <trkpt lat="43.88544" lon="7.23481">
        <ele>378</ele>
        <time>2018-05-13T10:35:44.000Z</time>
      </trkpt>
      <trkpt lat="43.88538" lon="7.23492">
        <ele>378</ele>
        <time>2018-05-13T10:35:46.000Z</time>
      </trkpt>
      <trkpt lat="43.88531" lon="7.23498">
        <ele>376</ele>
        <time>2018-05-13T10:35:48.000Z</time>
      </trkpt>
      <trkpt lat="43.88522" lon="7.23507">
        <ele>389</ele>
        <time>2018-05-13T10:35:51.000Z</time>
      </trkpt>
      <trkpt lat="43.88511" lon="7.23516">
        <ele>388</ele>
        <time>2018-05-13T10:35:55.000Z</time>
      </trkpt>
      <trkpt lat="43.88504" lon="7.23522">
        <ele>389</ele>
        <time>2018-05-13T10:35:58.000Z</time>
      </trkpt>
      <trkpt lat="43.88502" lon="7.23524">
        <ele>390</ele>
        <time>2018-05-13T10:35:59.000Z</time>
      </trkpt>
      <trkpt lat="43.88489" lon="7.23535">
        <ele>379</ele>
        <time>2018-05-13T10:36:05.000Z</time>
      </trkpt>
      <trkpt lat="43.88484" lon="7.23541">
        <ele>379</ele>
        <time>2018-05-13T10:36:08.000Z</time>
      </trkpt>
      <trkpt lat="43.88479" lon="7.23548">
        <ele>381</ele>
        <time>2018-05-13T10:36:11.000Z</time>
      </trkpt>
      <trkpt lat="43.88475" lon="7.23552">
        <ele>381</ele>
        <time>2018-05-13T10:36:13.000Z</time>
      </trkpt>
      <trkpt lat="43.88468" lon="7.2356">
        <ele>382</ele>
        <time>2018-05-13T10:36:17.000Z</time>
      </trkpt>
      <trkpt lat="43.88466" lon="7.23562">
        <ele>382</ele>
        <time>2018-05-13T10:36:18.000Z</time>
      </trkpt>
      <trkpt lat="43.88462" lon="7.23572">
        <ele>382</ele>
        <time>2018-05-13T10:36:23.000Z</time>
      </trkpt>
      <trkpt lat="43.88461" lon="7.23573">
        <ele>382</ele>
        <time>2018-05-13T10:36:24.000Z</time>
      </trkpt>
      <trkpt lat="43.88459" lon="7.2358">
        <ele>383</ele>
        <time>2018-05-13T10:36:27.000Z</time>
      </trkpt>
      <trkpt lat="43.88459" lon="7.23585">
        <ele>395</ele>
        <time>2018-05-13T10:36:29.000Z</time>
      </trkpt>
      <trkpt lat="43.88459" lon="7.23589">
        <ele>395</ele>
        <time>2018-05-13T10:36:31.000Z</time>
      </trkpt>
      <trkpt lat="43.88458" lon="7.23599">
        <ele>395</ele>
        <time>2018-05-13T10:36:35.000Z</time>
      </trkpt>
      <trkpt lat="43.88458" lon="7.23601">
        <ele>395</ele>
        <time>2018-05-13T10:36:36.000Z</time>
      </trkpt>
      <trkpt lat="43.88459" lon="7.23609">
        <ele>395</ele>
        <time>2018-05-13T10:36:39.000Z</time>
      </trkpt>
      <trkpt lat="43.8846" lon="7.23625">
        <ele>397</ele>
        <time>2018-05-13T10:36:45.000Z</time>
      </trkpt>
      <trkpt lat="43.88458" lon="7.2364">
        <ele>397</ele>
        <time>2018-05-13T10:36:51.000Z</time>
      </trkpt>
      <trkpt lat="43.88458" lon="7.23648">
        <ele>397</ele>
        <time>2018-05-13T10:36:54.000Z</time>
      </trkpt>
      <trkpt lat="43.88457" lon="7.23648">
        <ele>397</ele>
        <time>2018-05-13T10:36:57.000Z</time>
      </trkpt>
      <trkpt lat="43.88458" lon="7.23649">
        <ele>397</ele>
        <time>2018-05-13T10:36:59.000Z</time>
      </trkpt>
      <trkpt lat="43.88459" lon="7.23648">
        <ele>398</ele>
        <time>2018-05-13T10:37:00.000Z</time>
      </trkpt>
      <trkpt lat="43.8846" lon="7.23647">
        <ele>398</ele>
        <time>2018-05-13T10:37:02.000Z</time>
      </trkpt>
      <trkpt lat="43.88461" lon="7.23645">
        <ele>398</ele>
        <time>2018-05-13T10:37:04.000Z</time>
      </trkpt>
      <trkpt lat="43.88462" lon="7.23648">
        <ele>398</ele>
        <time>2018-05-13T10:37:08.000Z</time>
      </trkpt>
      <trkpt lat="43.88461" lon="7.23649">
        <ele>398</ele>
        <time>2018-05-13T10:37:09.000Z</time>
      </trkpt>
      <trkpt lat="43.88462" lon="7.23653">
        <ele>398</ele>
        <time>2018-05-13T10:37:12.000Z</time>
      </trkpt>
      <trkpt lat="43.88462" lon="7.23654">
        <ele>399</ele>
        <time>2018-05-13T10:37:13.000Z</time>
      </trkpt>
      <trkpt lat="43.88463" lon="7.23654">
        <ele>399</ele>
        <time>2018-05-13T10:37:16.000Z</time>
      </trkpt>
      <trkpt lat="43.88465" lon="7.23656">
        <ele>400</ele>
        <time>2018-05-13T10:37:19.000Z</time>
      </trkpt>
      <trkpt lat="43.88467" lon="7.23662">
        <ele>400</ele>
        <time>2018-05-13T10:37:23.000Z</time>
      </trkpt>
      <trkpt lat="43.88467" lon="7.23664">
        <ele>401</ele>
        <time>2018-05-13T10:37:24.000Z</time>
      </trkpt>
      <trkpt lat="43.8847" lon="7.23676">
        <ele>403</ele>
        <time>2018-05-13T10:37:31.000Z</time>
      </trkpt>
      <trkpt lat="43.88471" lon="7.2368">
        <ele>403</ele>
        <time>2018-05-13T10:37:33.000Z</time>
      </trkpt>
      <trkpt lat="43.88472" lon="7.23682">
        <ele>403</ele>
        <time>2018-05-13T10:37:34.000Z</time>
      </trkpt>
      <trkpt lat="43.88473" lon="7.23685">
        <ele>403</ele>
        <time>2018-05-13T10:37:36.000Z</time>
      </trkpt>
      <trkpt lat="43.88476" lon="7.23692">
        <ele>403</ele>
        <time>2018-05-13T10:37:40.000Z</time>
      </trkpt>
      <trkpt lat="43.88477" lon="7.23696">
        <ele>403</ele>
        <time>2018-05-13T10:37:42.000Z</time>
      </trkpt>
      <trkpt lat="43.8848" lon="7.23704">
        <ele>404</ele>
        <time>2018-05-13T10:37:49.000Z</time>
      </trkpt>
      <trkpt lat="43.88481" lon="7.23712">
        <ele>404</ele>
        <time>2018-05-13T10:37:52.000Z</time>
      </trkpt>
      <trkpt lat="43.88486" lon="7.23732">
        <ele>407</ele>
        <time>2018-05-13T10:37:58.000Z</time>
      </trkpt>
      <trkpt lat="43.88491" lon="7.23747">
        <ele>413</ele>
        <time>2018-05-13T10:38:04.000Z</time>
      </trkpt>
      <trkpt lat="43.88491" lon="7.23749">
        <ele>413</ele>
        <time>2018-05-13T10:38:05.000Z</time>
      </trkpt>
      <trkpt lat="43.88492" lon="7.23754">
        <ele>414</ele>
        <time>2018-05-13T10:38:07.000Z</time>
      </trkpt>
      <trkpt lat="43.88492" lon="7.23759">
        <ele>412</ele>
        <time>2018-05-13T10:38:09.000Z</time>
      </trkpt>
      <trkpt lat="43.88491" lon="7.23764">
        <ele>410</ele>
        <time>2018-05-13T10:38:11.000Z</time>
      </trkpt>
      <trkpt lat="43.8849" lon="7.23771">
        <ele>408</ele>
        <time>2018-05-13T10:38:14.000Z</time>
      </trkpt>
      <trkpt lat="43.88489" lon="7.23783">
        <ele>407</ele>
        <time>2018-05-13T10:38:19.000Z</time>
      </trkpt>
      <trkpt lat="43.88488" lon="7.23785">
        <ele>406</ele>
        <time>2018-05-13T10:38:20.000Z</time>
      </trkpt>
      <trkpt lat="43.88484" lon="7.23796">
        <ele>406</ele>
        <time>2018-05-13T10:38:24.000Z</time>
      </trkpt>
      <trkpt lat="43.8848" lon="7.23809">
        <ele>407</ele>
        <time>2018-05-13T10:38:27.000Z</time>
      </trkpt>
      <trkpt lat="43.8848" lon="7.23812">
        <ele>407</ele>
        <time>2018-05-13T10:38:28.000Z</time>
      </trkpt>
      <trkpt lat="43.8848" lon="7.23817">
        <ele>408</ele>
        <time>2018-05-13T10:38:32.000Z</time>
      </trkpt>
      <trkpt lat="43.88481" lon="7.23821">
        <ele>409</ele>
        <time>2018-05-13T10:38:36.000Z</time>
      </trkpt>
      <trkpt lat="43.88482" lon="7.23826">
        <ele>411</ele>
        <time>2018-05-13T10:38:41.000Z</time>
      </trkpt>
      <trkpt lat="43.88482" lon="7.23827">
        <ele>411</ele>
        <time>2018-05-13T10:38:42.000Z</time>
      </trkpt>
      <trkpt lat="43.88483" lon="7.23833">
        <ele>412</ele>
        <time>2018-05-13T10:38:46.000Z</time>
      </trkpt>
      <trkpt lat="43.88483" lon="7.23836">
        <ele>414</ele>
        <time>2018-05-13T10:38:48.000Z</time>
      </trkpt>
      <trkpt lat="43.88484" lon="7.23842">
        <ele>413</ele>
        <time>2018-05-13T10:38:52.000Z</time>
      </trkpt>
      <trkpt lat="43.88484" lon="7.23848">
        <ele>412</ele>
        <time>2018-05-13T10:38:56.000Z</time>
      </trkpt>
      <trkpt lat="43.88484" lon="7.23851">
        <ele>411</ele>
        <time>2018-05-13T10:38:58.000Z</time>
      </trkpt>
      <trkpt lat="43.88484" lon="7.23856">
        <ele>410</ele>
        <time>2018-05-13T10:39:04.000Z</time>
      </trkpt>
      <trkpt lat="43.88484" lon="7.23874">
        <ele>409</ele>
        <time>2018-05-13T10:39:11.000Z</time>
      </trkpt>
      <trkpt lat="43.88482" lon="7.23894">
        <ele>410</ele>
        <time>2018-05-13T10:39:16.000Z</time>
      </trkpt>
      <trkpt lat="43.88481" lon="7.23913">
        <ele>413</ele>
        <time>2018-05-13T10:39:21.000Z</time>
      </trkpt>
      <trkpt lat="43.88478" lon="7.23931">
        <ele>408</ele>
        <time>2018-05-13T10:39:25.000Z</time>
      </trkpt>
      <trkpt lat="43.88479" lon="7.23943">
        <ele>406</ele>
        <time>2018-05-13T10:39:27.000Z</time>
      </trkpt>
      <trkpt lat="43.8848" lon="7.23956">
        <ele>404</ele>
        <time>2018-05-13T10:39:29.000Z</time>
      </trkpt>
      <trkpt lat="43.88481" lon="7.23962">
        <ele>404</ele>
        <time>2018-05-13T10:39:30.000Z</time>
      </trkpt>
      <trkpt lat="43.88483" lon="7.23974">
        <ele>405</ele>
        <time>2018-05-13T10:39:33.000Z</time>
      </trkpt>
      <trkpt lat="43.88484" lon="7.23978">
        <ele>406</ele>
        <time>2018-05-13T10:39:34.000Z</time>
      </trkpt>
      <trkpt lat="43.88484" lon="7.23993">
        <ele>408</ele>
        <time>2018-05-13T10:39:38.000Z</time>
      </trkpt>
      <trkpt lat="43.88488" lon="7.24012">
        <ele>403</ele>
        <time>2018-05-13T10:39:42.000Z</time>
      </trkpt>
      <trkpt lat="43.8849" lon="7.24018">
        <ele>401</ele>
        <time>2018-05-13T10:39:43.000Z</time>
      </trkpt>
      <trkpt lat="43.88495" lon="7.24026">
        <ele>398</ele>
        <time>2018-05-13T10:39:45.000Z</time>
      </trkpt>
      <trkpt lat="43.885" lon="7.24038">
        <ele>424</ele>
        <time>2018-05-13T10:39:49.000Z</time>
      </trkpt>
      <trkpt lat="43.88512" lon="7.24046">
        <ele>424</ele>
        <time>2018-05-13T10:39:54.000Z</time>
      </trkpt>
      <trkpt lat="43.88525" lon="7.24057">
        <ele>424</ele>
        <time>2018-05-13T10:39:58.000Z</time>
      </trkpt>
      <trkpt lat="43.88528" lon="7.24059">
        <ele>425</ele>
        <time>2018-05-13T10:39:59.000Z</time>
      </trkpt>
      <trkpt lat="43.88531" lon="7.24063">
        <ele>425</ele>
        <time>2018-05-13T10:40:00.000Z</time>
      </trkpt>
      <trkpt lat="43.88534" lon="7.24067">
        <ele>425</ele>
        <time>2018-05-13T10:40:01.000Z</time>
      </trkpt>
      <trkpt lat="43.88539" lon="7.24075">
        <ele>426</ele>
        <time>2018-05-13T10:40:03.000Z</time>
      </trkpt>
      <trkpt lat="43.88542" lon="7.24082">
        <ele>427</ele>
        <time>2018-05-13T10:40:05.000Z</time>
      </trkpt>
      <trkpt lat="43.88539" lon="7.24081">
        <ele>426</ele>
        <time>2018-05-13T10:40:07.000Z</time>
      </trkpt>
      <trkpt lat="43.88536" lon="7.24078">
        <ele>425</ele>
        <time>2018-05-13T10:40:09.000Z</time>
      </trkpt>
      <trkpt lat="43.8853" lon="7.24074">
        <ele>423</ele>
        <time>2018-05-13T10:40:11.000Z</time>
      </trkpt>
      <trkpt lat="43.88524" lon="7.2407">
        <ele>421</ele>
        <time>2018-05-13T10:40:13.000Z</time>
      </trkpt>
      <trkpt lat="43.88514" lon="7.24068">
        <ele>417</ele>
        <time>2018-05-13T10:40:16.000Z</time>
      </trkpt>
      <trkpt lat="43.88503" lon="7.2407">
        <ele>413</ele>
        <time>2018-05-13T10:40:18.000Z</time>
      </trkpt>
      <trkpt lat="43.88499" lon="7.2407">
        <ele>395</ele>
        <time>2018-05-13T10:40:19.000Z</time>
      </trkpt>
      <trkpt lat="43.88495" lon="7.2407">
        <ele>394</ele>
        <time>2018-05-13T10:40:20.000Z</time>
      </trkpt>
      <trkpt lat="43.88489" lon="7.2407">
        <ele>392</ele>
        <time>2018-05-13T10:40:22.000Z</time>
      </trkpt>
      <trkpt lat="43.88486" lon="7.2407">
        <ele>392</ele>
        <time>2018-05-13T10:40:23.000Z</time>
      </trkpt>
      <trkpt lat="43.88482" lon="7.24068">
        <ele>390</ele>
        <time>2018-05-13T10:40:24.000Z</time>
      </trkpt>
      <trkpt lat="43.88476" lon="7.24061">
        <ele>388</ele>
        <time>2018-05-13T10:40:26.000Z</time>
      </trkpt>
      <trkpt lat="43.88471" lon="7.24054">
        <ele>387</ele>
        <time>2018-05-13T10:40:28.000Z</time>
      </trkpt>
      <trkpt lat="43.88466" lon="7.24047">
        <ele>386</ele>
        <time>2018-05-13T10:40:30.000Z</time>
      </trkpt>
      <trkpt lat="43.88463" lon="7.24044">
        <ele>386</ele>
        <time>2018-05-13T10:40:31.000Z</time>
      </trkpt>
      <trkpt lat="43.88461" lon="7.24041">
        <ele>385</ele>
        <time>2018-05-13T10:40:32.000Z</time>
      </trkpt>
      <trkpt lat="43.88458" lon="7.24031">
        <ele>385</ele>
        <time>2018-05-13T10:40:34.000Z</time>
      </trkpt>
      <trkpt lat="43.88456" lon="7.24025">
        <ele>385</ele>
        <time>2018-05-13T10:40:35.000Z</time>
      </trkpt>
      <trkpt lat="43.88452" lon="7.2402">
        <ele>384</ele>
        <time>2018-05-13T10:40:36.000Z</time>
      </trkpt>
      <trkpt lat="43.88448" lon="7.24009">
        <ele>382</ele>
        <time>2018-05-13T10:40:38.000Z</time>
      </trkpt>
      <trkpt lat="43.88447" lon="7.24003">
        <ele>382</ele>
        <time>2018-05-13T10:40:39.000Z</time>
      </trkpt>
      <trkpt lat="43.88445" lon="7.23998">
        <ele>388</ele>
        <time>2018-05-13T10:40:40.000Z</time>
      </trkpt>
      <trkpt lat="43.88441" lon="7.23987">
        <ele>387</ele>
        <time>2018-05-13T10:40:42.000Z</time>
      </trkpt>
      <trkpt lat="43.88435" lon="7.2397">
        <ele>388</ele>
        <time>2018-05-13T10:40:45.000Z</time>
      </trkpt>
      <trkpt lat="43.88427" lon="7.23955">
        <ele>388</ele>
        <time>2018-05-13T10:40:48.000Z</time>
      </trkpt>
      <trkpt lat="43.88424" lon="7.23949">
        <ele>388</ele>
        <time>2018-05-13T10:40:49.000Z</time>
      </trkpt>
      <trkpt lat="43.88422" lon="7.23943">
        <ele>387</ele>
        <time>2018-05-13T10:40:50.000Z</time>
      </trkpt>
      <trkpt lat="43.88416" lon="7.23931">
        <ele>362</ele>
        <time>2018-05-13T10:40:52.000Z</time>
      </trkpt>
      <trkpt lat="43.88413" lon="7.23927">
        <ele>364</ele>
        <time>2018-05-13T10:40:53.000Z</time>
      </trkpt>
      <trkpt lat="43.8841" lon="7.23921">
        <ele>366</ele>
        <time>2018-05-13T10:40:54.000Z</time>
      </trkpt>
      <trkpt lat="43.88409" lon="7.23917">
        <ele>366</ele>
        <time>2018-05-13T10:40:55.000Z</time>
      </trkpt>
      <trkpt lat="43.88408" lon="7.23907">
        <ele>365</ele>
        <time>2018-05-13T10:40:57.000Z</time>
      </trkpt>
      <trkpt lat="43.88406" lon="7.23899">
        <ele>362</ele>
        <time>2018-05-13T10:40:59.000Z</time>
      </trkpt>
      <trkpt lat="43.88405" lon="7.23891">
        <ele>360</ele>
        <time>2018-05-13T10:41:01.000Z</time>
      </trkpt>
      <trkpt lat="43.88403" lon="7.23885">
        <ele>359</ele>
        <time>2018-05-13T10:41:03.000Z</time>
      </trkpt>
      <trkpt lat="43.88403" lon="7.23885">
        <ele>359</ele>
        <time>2018-05-13T10:41:04.000Z</time>
      </trkpt>
      <trkpt lat="43.88402" lon="7.23886">
        <ele>358</ele>
        <time>2018-05-13T10:41:06.000Z</time>
      </trkpt>
      <trkpt lat="43.88401" lon="7.23888">
        <ele>358</ele>
        <time>2018-05-13T10:41:07.000Z</time>
      </trkpt>
      <trkpt lat="43.88396" lon="7.23897">
        <ele>358</ele>
        <time>2018-05-13T10:41:11.000Z</time>
      </trkpt>
      <trkpt lat="43.88395" lon="7.23903">
        <ele>359</ele>
        <time>2018-05-13T10:41:13.000Z</time>
      </trkpt>
      <trkpt lat="43.88392" lon="7.23904">
        <ele>358</ele>
        <time>2018-05-13T10:41:15.000Z</time>
      </trkpt>
      <trkpt lat="43.88391" lon="7.23899">
        <ele>357</ele>
        <time>2018-05-13T10:41:17.000Z</time>
      </trkpt>
      <trkpt lat="43.8839" lon="7.23896">
        <ele>356</ele>
        <time>2018-05-13T10:41:18.000Z</time>
      </trkpt>
      <trkpt lat="43.88389" lon="7.23893">
        <ele>356</ele>
        <time>2018-05-13T10:41:19.000Z</time>
      </trkpt>
      <trkpt lat="43.88389" lon="7.23889">
        <ele>356</ele>
        <time>2018-05-13T10:41:20.000Z</time>
      </trkpt>
      <trkpt lat="43.8839" lon="7.23885">
        <ele>355</ele>
        <time>2018-05-13T10:41:21.000Z</time>
      </trkpt>
      <trkpt lat="43.8839" lon="7.23877">
        <ele>355</ele>
        <time>2018-05-13T10:41:23.000Z</time>
      </trkpt>
      <trkpt lat="43.88389" lon="7.2387">
        <ele>355</ele>
        <time>2018-05-13T10:41:25.000Z</time>
      </trkpt>
      <trkpt lat="43.88386" lon="7.23857">
        <ele>355</ele>
        <time>2018-05-13T10:41:28.000Z</time>
      </trkpt>
      <trkpt lat="43.88381" lon="7.23847">
        <ele>354</ele>
        <time>2018-05-13T10:41:30.000Z</time>
      </trkpt>
      <trkpt lat="43.88374" lon="7.23834">
        <ele>352</ele>
        <time>2018-05-13T10:41:32.000Z</time>
      </trkpt>
      <trkpt lat="43.88372" lon="7.23827">
        <ele>353</ele>
        <time>2018-05-13T10:41:33.000Z</time>
      </trkpt>
      <trkpt lat="43.88369" lon="7.23821">
        <ele>352</ele>
        <time>2018-05-13T10:41:34.000Z</time>
      </trkpt>
      <trkpt lat="43.88366" lon="7.23814">
        <ele>351</ele>
        <time>2018-05-13T10:41:35.000Z</time>
      </trkpt>
      <trkpt lat="43.88363" lon="7.23806">
        <ele>351</ele>
        <time>2018-05-13T10:41:36.000Z</time>
      </trkpt>
      <trkpt lat="43.88361" lon="7.23798">
        <ele>351</ele>
        <time>2018-05-13T10:41:37.000Z</time>
      </trkpt>
      <trkpt lat="43.88358" lon="7.2379">
        <ele>351</ele>
        <time>2018-05-13T10:41:38.000Z</time>
      </trkpt>
      <trkpt lat="43.88355" lon="7.23782">
        <ele>350</ele>
        <time>2018-05-13T10:41:39.000Z</time>
      </trkpt>
      <trkpt lat="43.88351" lon="7.23773">
        <ele>349</ele>
        <time>2018-05-13T10:41:40.000Z</time>
      </trkpt>
      <trkpt lat="43.88344" lon="7.23756">
        <ele>345</ele>
        <time>2018-05-13T10:41:42.000Z</time>
      </trkpt>
      <trkpt lat="43.88336" lon="7.23741">
        <ele>345</ele>
        <time>2018-05-13T10:41:44.000Z</time>
      </trkpt>
      <trkpt lat="43.88332" lon="7.23732">
        <ele>331</ele>
        <time>2018-05-13T10:41:45.000Z</time>
      </trkpt>
      <trkpt lat="43.88328" lon="7.23715">
        <ele>329</ele>
        <time>2018-05-13T10:41:47.000Z</time>
      </trkpt>
      <trkpt lat="43.88325" lon="7.23702">
        <ele>331</ele>
        <time>2018-05-13T10:41:49.000Z</time>
      </trkpt>
      <trkpt lat="43.88322" lon="7.23692">
        <ele>332</ele>
        <time>2018-05-13T10:41:51.000Z</time>
      </trkpt>
      <trkpt lat="43.88318" lon="7.23682">
        <ele>334</ele>
        <time>2018-05-13T10:41:53.000Z</time>
      </trkpt>
      <trkpt lat="43.88315" lon="7.2367">
        <ele>336</ele>
        <time>2018-05-13T10:41:55.000Z</time>
      </trkpt>
      <trkpt lat="43.88315" lon="7.23664">
        <ele>342</ele>
        <time>2018-05-13T10:41:56.000Z</time>
      </trkpt>
      <trkpt lat="43.88312" lon="7.23644">
        <ele>340</ele>
        <time>2018-05-13T10:42:00.000Z</time>
      </trkpt>
      <trkpt lat="43.8831" lon="7.23637">
        <ele>339</ele>
        <time>2018-05-13T10:42:01.000Z</time>
      </trkpt>
      <trkpt lat="43.88303" lon="7.2362">
        <ele>339</ele>
        <time>2018-05-13T10:42:04.000Z</time>
      </trkpt>
      <trkpt lat="43.883" lon="7.23615">
        <ele>339</ele>
        <time>2018-05-13T10:42:05.000Z</time>
      </trkpt>
      <trkpt lat="43.88296" lon="7.23605">
        <ele>338</ele>
        <time>2018-05-13T10:42:08.000Z</time>
      </trkpt>
      <trkpt lat="43.88293" lon="7.23595">
        <ele>338</ele>
        <time>2018-05-13T10:42:11.000Z</time>
      </trkpt>
      <trkpt lat="43.88288" lon="7.2359">
        <ele>337</ele>
        <time>2018-05-13T10:42:13.000Z</time>
      </trkpt>
      <trkpt lat="43.88282" lon="7.23585">
        <ele>336</ele>
        <time>2018-05-13T10:42:15.000Z</time>
      </trkpt>
      <trkpt lat="43.88278" lon="7.23581">
        <ele>335</ele>
        <time>2018-05-13T10:42:16.000Z</time>
      </trkpt>
      <trkpt lat="43.88269" lon="7.23575">
        <ele>334</ele>
        <time>2018-05-13T10:42:18.000Z</time>
      </trkpt>
      <trkpt lat="43.8826" lon="7.2357">
        <ele>332</ele>
        <time>2018-05-13T10:42:20.000Z</time>
      </trkpt>
      <trkpt lat="43.88255" lon="7.23567">
        <ele>332</ele>
        <time>2018-05-13T10:42:21.000Z</time>
      </trkpt>
      <trkpt lat="43.8825" lon="7.23564">
        <ele>332</ele>
        <time>2018-05-13T10:42:22.000Z</time>
      </trkpt>
      <trkpt lat="43.88245" lon="7.23559">
        <ele>319</ele>
        <time>2018-05-13T10:42:23.000Z</time>
      </trkpt>
      <trkpt lat="43.88239" lon="7.23553">
        <ele>318</ele>
        <time>2018-05-13T10:42:24.000Z</time>
      </trkpt>
      <trkpt lat="43.88233" lon="7.23548">
        <ele>317</ele>
        <time>2018-05-13T10:42:25.000Z</time>
      </trkpt>
      <trkpt lat="43.88229" lon="7.23543">
        <ele>316</ele>
        <time>2018-05-13T10:42:26.000Z</time>
      </trkpt>
      <trkpt lat="43.88227" lon="7.23537">
        <ele>316</ele>
        <time>2018-05-13T10:42:27.000Z</time>
      </trkpt>
      <trkpt lat="43.88225" lon="7.23532">
        <ele>315</ele>
        <time>2018-05-13T10:42:28.000Z</time>
      </trkpt>
      <trkpt lat="43.88222" lon="7.23526">
        <ele>315</ele>
        <time>2018-05-13T10:42:30.000Z</time>
      </trkpt>
      <trkpt lat="43.8822" lon="7.23524">
        <ele>315</ele>
        <time>2018-05-13T10:42:31.000Z</time>
      </trkpt>
      <trkpt lat="43.88219" lon="7.23522">
        <ele>315</ele>
        <time>2018-05-13T10:42:32.000Z</time>
      </trkpt>
      <trkpt lat="43.88216" lon="7.23518">
        <ele>314</ele>
        <time>2018-05-13T10:42:34.000Z</time>
      </trkpt>
      <trkpt lat="43.88211" lon="7.23516">
        <ele>313</ele>
        <time>2018-05-13T10:42:36.000Z</time>
      </trkpt>
      <trkpt lat="43.88205" lon="7.23514">
        <ele>312</ele>
        <time>2018-05-13T10:42:38.000Z</time>
      </trkpt>
      <trkpt lat="43.882" lon="7.23508">
        <ele>311</ele>
        <time>2018-05-13T10:42:40.000Z</time>
      </trkpt>
      <trkpt lat="43.88197" lon="7.23499">
        <ele>304</ele>
        <time>2018-05-13T10:42:42.000Z</time>
      </trkpt>
      <trkpt lat="43.88194" lon="7.23489">
        <ele>303</ele>
        <time>2018-05-13T10:42:44.000Z</time>
      </trkpt>
      <trkpt lat="43.88193" lon="7.23484">
        <ele>303</ele>
        <time>2018-05-13T10:42:45.000Z</time>
      </trkpt>
      <trkpt lat="43.88191" lon="7.2348">
        <ele>303</ele>
        <time>2018-05-13T10:42:46.000Z</time>
      </trkpt>
      <trkpt lat="43.8819" lon="7.23476">
        <ele>302</ele>
        <time>2018-05-13T10:42:47.000Z</time>
      </trkpt>
      <trkpt lat="43.88188" lon="7.23466">
        <ele>301</ele>
        <time>2018-05-13T10:42:49.000Z</time>
      </trkpt>
      <trkpt lat="43.8819" lon="7.23462">
        <ele>301</ele>
        <time>2018-05-13T10:42:50.000Z</time>
      </trkpt>
      <trkpt lat="43.88191" lon="7.23458">
        <ele>300</ele>
        <time>2018-05-13T10:42:51.000Z</time>
      </trkpt>
      <trkpt lat="43.88193" lon="7.23456">
        <ele>300</ele>
        <time>2018-05-13T10:42:52.000Z</time>
      </trkpt>
      <trkpt lat="43.88195" lon="7.23455">
        <ele>300</ele>
        <time>2018-05-13T10:42:53.000Z</time>
      </trkpt>
      <trkpt lat="43.88194" lon="7.23453">
        <ele>300</ele>
        <time>2018-05-13T10:42:54.000Z</time>
      </trkpt>
      <trkpt lat="43.8819" lon="7.23453">
        <ele>300</ele>
        <time>2018-05-13T10:42:56.000Z</time>
      </trkpt>
      <trkpt lat="43.88188" lon="7.23454">
        <ele>299</ele>
        <time>2018-05-13T10:42:57.000Z</time>
      </trkpt>
      <trkpt lat="43.88182" lon="7.23457">
        <ele>299</ele>
        <time>2018-05-13T10:42:59.000Z</time>
      </trkpt>
      <trkpt lat="43.88179" lon="7.23457">
        <ele>299</ele>
        <time>2018-05-13T10:43:00.000Z</time>
      </trkpt>
      <trkpt lat="43.88178" lon="7.23455">
        <ele>299</ele>
        <time>2018-05-13T10:43:01.000Z</time>
      </trkpt>
      <trkpt lat="43.88179" lon="7.2345">
        <ele>298</ele>
        <time>2018-05-13T10:43:03.000Z</time>
      </trkpt>
      <trkpt lat="43.88181" lon="7.23448">
        <ele>298</ele>
        <time>2018-05-13T10:43:04.000Z</time>
      </trkpt>
      <trkpt lat="43.88185" lon="7.23441">
        <ele>297</ele>
        <time>2018-05-13T10:43:06.000Z</time>
      </trkpt>
      <trkpt lat="43.88186" lon="7.23438">
        <ele>297</ele>
        <time>2018-05-13T10:43:07.000Z</time>
      </trkpt>
      <trkpt lat="43.88186" lon="7.23435">
        <ele>296</ele>
        <time>2018-05-13T10:43:08.000Z</time>
      </trkpt>
      <trkpt lat="43.88179" lon="7.23433">
        <ele>294</ele>
        <time>2018-05-13T10:43:10.000Z</time>
      </trkpt>
      <trkpt lat="43.88174" lon="7.23432">
        <ele>293</ele>
        <time>2018-05-13T10:43:11.000Z</time>
      </trkpt>
      <trkpt lat="43.88162" lon="7.23427">
        <ele>285</ele>
        <time>2018-05-13T10:43:13.000Z</time>
      </trkpt>
      <trkpt lat="43.88151" lon="7.23421">
        <ele>284</ele>
        <time>2018-05-13T10:43:15.000Z</time>
      </trkpt>
      <trkpt lat="43.88145" lon="7.23419">
        <ele>283</ele>
        <time>2018-05-13T10:43:16.000Z</time>
      </trkpt>
      <trkpt lat="43.8814" lon="7.23417">
        <ele>283</ele>
        <time>2018-05-13T10:43:17.000Z</time>
      </trkpt>
      <trkpt lat="43.88135" lon="7.23416">
        <ele>272</ele>
        <time>2018-05-13T10:43:18.000Z</time>
      </trkpt>
      <trkpt lat="43.88126" lon="7.23415">
        <ele>271</ele>
        <time>2018-05-13T10:43:20.000Z</time>
      </trkpt>
      <trkpt lat="43.88118" lon="7.23412">
        <ele>269</ele>
        <time>2018-05-13T10:43:22.000Z</time>
      </trkpt>
      <trkpt lat="43.88115" lon="7.23413">
        <ele>269</ele>
        <time>2018-05-13T10:43:23.000Z</time>
      </trkpt>
      <trkpt lat="43.88112" lon="7.23415">
        <ele>269</ele>
        <time>2018-05-13T10:43:24.000Z</time>
      </trkpt>
      <trkpt lat="43.88108" lon="7.23417">
        <ele>277</ele>
        <time>2018-05-13T10:43:25.000Z</time>
      </trkpt>
      <trkpt lat="43.88103" lon="7.23423">
        <ele>276</ele>
        <time>2018-05-13T10:43:27.000Z</time>
      </trkpt>
      <trkpt lat="43.88102" lon="7.23428">
        <ele>276</ele>
        <time>2018-05-13T10:43:28.000Z</time>
      </trkpt>
      <trkpt lat="43.88099" lon="7.2343">
        <ele>276</ele>
        <time>2018-05-13T10:43:30.000Z</time>
      </trkpt>
      <trkpt lat="43.88099" lon="7.23427">
        <ele>275</ele>
        <time>2018-05-13T10:43:31.000Z</time>
      </trkpt>
      <trkpt lat="43.88105" lon="7.23409">
        <ele>268</ele>
        <time>2018-05-13T10:43:35.000Z</time>
      </trkpt>
      <trkpt lat="43.88111" lon="7.23401">
        <ele>268</ele>
        <time>2018-05-13T10:43:39.000Z</time>
      </trkpt>
      <trkpt lat="43.88111" lon="7.23399">
        <ele>268</ele>
        <time>2018-05-13T10:43:41.000Z</time>
      </trkpt>
      <trkpt lat="43.88109" lon="7.23399">
        <ele>268</ele>
        <time>2018-05-13T10:43:43.000Z</time>
      </trkpt>
      <trkpt lat="43.88099" lon="7.234">
        <ele>267</ele>
        <time>2018-05-13T10:43:47.000Z</time>
      </trkpt>
      <trkpt lat="43.88097" lon="7.23401">
        <ele>267</ele>
        <time>2018-05-13T10:43:48.000Z</time>
      </trkpt>
      <trkpt lat="43.88096" lon="7.234">
        <ele>267</ele>
        <time>2018-05-13T10:43:49.000Z</time>
      </trkpt>
      <trkpt lat="43.88094" lon="7.23397">
        <ele>267</ele>
        <time>2018-05-13T10:43:51.000Z</time>
      </trkpt>
      <trkpt lat="43.88096" lon="7.23392">
        <ele>266</ele>
        <time>2018-05-13T10:43:54.000Z</time>
      </trkpt>
      <trkpt lat="43.88098" lon="7.2339">
        <ele>266</ele>
        <time>2018-05-13T10:43:55.000Z</time>
      </trkpt>
      <trkpt lat="43.88102" lon="7.23388">
        <ele>266</ele>
        <time>2018-05-13T10:43:58.000Z</time>
      </trkpt>
      <trkpt lat="43.88103" lon="7.23388">
        <ele>266</ele>
        <time>2018-05-13T10:43:59.000Z</time>
      </trkpt>
      <trkpt lat="43.88102" lon="7.23386">
        <ele>266</ele>
        <time>2018-05-13T10:44:00.000Z</time>
      </trkpt>
      <trkpt lat="43.88102" lon="7.23385">
        <ele>266</ele>
        <time>2018-05-13T10:44:01.000Z</time>
      </trkpt>
      <trkpt lat="43.88101" lon="7.23384">
        <ele>266</ele>
        <time>2018-05-13T10:44:03.000Z</time>
      </trkpt>
      <trkpt lat="43.88101" lon="7.23384">
        <ele>266</ele>
        <time>2018-05-13T10:44:04.000Z</time>
      </trkpt>
      <trkpt lat="43.88098" lon="7.23381">
        <ele>265</ele>
        <time>2018-05-13T10:44:07.000Z</time>
      </trkpt>
      <trkpt lat="43.88098" lon="7.2338">
        <ele>265</ele>
        <time>2018-05-13T10:44:08.000Z</time>
      </trkpt>
      <trkpt lat="43.88098" lon="7.23379">
        <ele>265</ele>
        <time>2018-05-13T10:44:09.000Z</time>
      </trkpt>
      <trkpt lat="43.88099" lon="7.23378">
        <ele>265</ele>
        <time>2018-05-13T10:44:10.000Z</time>
      </trkpt>
      <trkpt lat="43.88101" lon="7.23378">
        <ele>265</ele>
        <time>2018-05-13T10:44:12.000Z</time>
      </trkpt>
      <trkpt lat="43.88102" lon="7.23378">
        <ele>265</ele>
        <time>2018-05-13T10:44:13.000Z</time>
      </trkpt>
      <trkpt lat="43.88103" lon="7.23377">
        <ele>265</ele>
        <time>2018-05-13T10:44:16.000Z</time>
      </trkpt>
      <trkpt lat="43.88103" lon="7.23375">
        <ele>265</ele>
        <time>2018-05-13T10:44:17.000Z</time>
      </trkpt>
      <trkpt lat="43.88098" lon="7.23372">
        <ele>264</ele>
        <time>2018-05-13T10:44:22.000Z</time>
      </trkpt>
      <trkpt lat="43.88096" lon="7.23372">
        <ele>264</ele>
        <time>2018-05-13T10:44:23.000Z</time>
      </trkpt>
      <trkpt lat="43.88087" lon="7.23371">
        <ele>263</ele>
        <time>2018-05-13T10:44:27.000Z</time>
      </trkpt>
      <trkpt lat="43.88084" lon="7.2337">
        <ele>263</ele>
        <time>2018-05-13T10:44:28.000Z</time>
      </trkpt>
      <trkpt lat="43.88082" lon="7.23367">
        <ele>247</ele>
        <time>2018-05-13T10:44:29.000Z</time>
      </trkpt>
      <trkpt lat="43.8808" lon="7.23363">
        <ele>246</ele>
        <time>2018-05-13T10:44:30.000Z</time>
      </trkpt>
      <trkpt lat="43.88083" lon="7.23357">
        <ele>246</ele>
        <time>2018-05-13T10:44:31.000Z</time>
      </trkpt>
      <trkpt lat="43.88086" lon="7.23355">
        <ele>259</ele>
        <time>2018-05-13T10:44:32.000Z</time>
      </trkpt>
      <trkpt lat="43.88093" lon="7.23355">
        <ele>260</ele>
        <time>2018-05-13T10:44:34.000Z</time>
      </trkpt>
      <trkpt lat="43.88096" lon="7.23354">
        <ele>260</ele>
        <time>2018-05-13T10:44:35.000Z</time>
      </trkpt>
      <trkpt lat="43.88097" lon="7.23353">
        <ele>260</ele>
        <time>2018-05-13T10:44:36.000Z</time>
      </trkpt>
      <trkpt lat="43.88101" lon="7.23352">
        <ele>260</ele>
        <time>2018-05-13T10:44:39.000Z</time>
      </trkpt>
      <trkpt lat="43.88106" lon="7.23348">
        <ele>261</ele>
        <time>2018-05-13T10:44:42.000Z</time>
      </trkpt>
      <trkpt lat="43.8811" lon="7.23345">
        <ele>262</ele>
        <time>2018-05-13T10:44:44.000Z</time>
      </trkpt>
      <trkpt lat="43.88114" lon="7.23345">
        <ele>262</ele>
        <time>2018-05-13T10:44:45.000Z</time>
      </trkpt>
      <trkpt lat="43.88117" lon="7.23345">
        <ele>263</ele>
        <time>2018-05-13T10:44:46.000Z</time>
      </trkpt>
      <trkpt lat="43.88121" lon="7.23344">
        <ele>264</ele>
        <time>2018-05-13T10:44:47.000Z</time>
      </trkpt>
      <trkpt lat="43.88126" lon="7.23344">
        <ele>264</ele>
        <time>2018-05-13T10:44:48.000Z</time>
      </trkpt>
      <trkpt lat="43.88132" lon="7.23345">
        <ele>265</ele>
        <time>2018-05-13T10:44:50.000Z</time>
      </trkpt>
      <trkpt lat="43.88137" lon="7.23345">
        <ele>266</ele>
        <time>2018-05-13T10:44:52.000Z</time>
      </trkpt>
      <trkpt lat="43.88139" lon="7.23344">
        <ele>266</ele>
        <time>2018-05-13T10:44:53.000Z</time>
      </trkpt>
      <trkpt lat="43.88143" lon="7.23339">
        <ele>266</ele>
        <time>2018-05-13T10:44:55.000Z</time>
      </trkpt>
      <trkpt lat="43.88144" lon="7.23336">
        <ele>266</ele>
        <time>2018-05-13T10:44:56.000Z</time>
      </trkpt>
      <trkpt lat="43.88143" lon="7.23327">
        <ele>265</ele>
        <time>2018-05-13T10:44:58.000Z</time>
      </trkpt>
      <trkpt lat="43.88142" lon="7.23324">
        <ele>265</ele>
        <time>2018-05-13T10:44:59.000Z</time>
      </trkpt>
      <trkpt lat="43.88141" lon="7.23321">
        <ele>265</ele>
        <time>2018-05-13T10:45:00.000Z</time>
      </trkpt>
      <trkpt lat="43.88137" lon="7.23318">
        <ele>265</ele>
        <time>2018-05-13T10:45:02.000Z</time>
      </trkpt>
      <trkpt lat="43.88134" lon="7.23317">
        <ele>265</ele>
        <time>2018-05-13T10:45:03.000Z</time>
      </trkpt>
      <trkpt lat="43.88127" lon="7.23313">
        <ele>264</ele>
        <time>2018-05-13T10:45:05.000Z</time>
      </trkpt>
      <trkpt lat="43.88116" lon="7.23306">
        <ele>263</ele>
        <time>2018-05-13T10:45:08.000Z</time>
      </trkpt>
      <trkpt lat="43.88108" lon="7.23303">
        <ele>262</ele>
        <time>2018-05-13T10:45:10.000Z</time>
      </trkpt>
      <trkpt lat="43.88101" lon="7.23297">
        <ele>261</ele>
        <time>2018-05-13T10:45:12.000Z</time>
      </trkpt>
      <trkpt lat="43.88085" lon="7.23278">
        <ele>260</ele>
        <time>2018-05-13T10:45:19.000Z</time>
      </trkpt>
      <trkpt lat="43.8808" lon="7.23278">
        <ele>244</ele>
        <time>2018-05-13T10:45:21.000Z</time>
      </trkpt>
      <trkpt lat="43.8807" lon="7.23275">
        <ele>243</ele>
        <time>2018-05-13T10:45:24.000Z</time>
      </trkpt>
      <trkpt lat="43.88065" lon="7.23275">
        <ele>242</ele>
        <time>2018-05-13T10:45:25.000Z</time>
      </trkpt>
      <trkpt lat="43.8806" lon="7.23274">
        <ele>241</ele>
        <time>2018-05-13T10:45:26.000Z</time>
      </trkpt>
      <trkpt lat="43.88051" lon="7.23273">
        <ele>239</ele>
        <time>2018-05-13T10:45:28.000Z</time>
      </trkpt>
      <trkpt lat="43.88043" lon="7.23276">
        <ele>238</ele>
        <time>2018-05-13T10:45:30.000Z</time>
      </trkpt>
      <trkpt lat="43.88033" lon="7.2328">
        <ele>236</ele>
        <time>2018-05-13T10:45:32.000Z</time>
      </trkpt>
      <trkpt lat="43.88024" lon="7.23279">
        <ele>234</ele>
        <time>2018-05-13T10:45:34.000Z</time>
      </trkpt>
      <trkpt lat="43.8802" lon="7.23277">
        <ele>234</ele>
        <time>2018-05-13T10:45:35.000Z</time>
      </trkpt>
      <trkpt lat="43.88017" lon="7.23273">
        <ele>233</ele>
        <time>2018-05-13T10:45:36.000Z</time>
      </trkpt>
      <trkpt lat="43.88014" lon="7.23265">
        <ele>232</ele>
        <time>2018-05-13T10:45:38.000Z</time>
      </trkpt>
      <trkpt lat="43.88001" lon="7.2326">
        <ele>229</ele>
        <time>2018-05-13T10:45:41.000Z</time>
      </trkpt>
      <trkpt lat="43.87995" lon="7.23258">
        <ele>219</ele>
        <time>2018-05-13T10:45:42.000Z</time>
      </trkpt>
      <trkpt lat="43.87985" lon="7.23253">
        <ele>216</ele>
        <time>2018-05-13T10:45:44.000Z</time>
      </trkpt>
      <trkpt lat="43.87982" lon="7.23253">
        <ele>215</ele>
        <time>2018-05-13T10:45:45.000Z</time>
      </trkpt>
      <trkpt lat="43.87979" lon="7.23254">
        <ele>214</ele>
        <time>2018-05-13T10:45:46.000Z</time>
      </trkpt>
      <trkpt lat="43.87976" lon="7.23256">
        <ele>212</ele>
        <time>2018-05-13T10:45:47.000Z</time>
      </trkpt>
      <trkpt lat="43.87973" lon="7.23259">
        <ele>211</ele>
        <time>2018-05-13T10:45:48.000Z</time>
      </trkpt>
      <trkpt lat="43.8797" lon="7.23266">
        <ele>210</ele>
        <time>2018-05-13T10:45:51.000Z</time>
      </trkpt>
      <trkpt lat="43.87969" lon="7.23267">
        <ele>209</ele>
        <time>2018-05-13T10:45:52.000Z</time>
      </trkpt>
      <trkpt lat="43.87968" lon="7.23268">
        <ele>209</ele>
        <time>2018-05-13T10:45:53.000Z</time>
      </trkpt>
      <trkpt lat="43.87967" lon="7.2327">
        <ele>209</ele>
        <time>2018-05-13T10:45:54.000Z</time>
      </trkpt>
      <trkpt lat="43.87967" lon="7.23274">
        <ele>209</ele>
        <time>2018-05-13T10:45:56.000Z</time>
      </trkpt>
      <trkpt lat="43.87966" lon="7.23273">
        <ele>208</ele>
        <time>2018-05-13T10:45:58.000Z</time>
      </trkpt>
      <trkpt lat="43.87965" lon="7.23272">
        <ele>208</ele>
        <time>2018-05-13T10:45:59.000Z</time>
      </trkpt>
      <trkpt lat="43.87966" lon="7.23269">
        <ele>209</ele>
        <time>2018-05-13T10:46:00.000Z</time>
      </trkpt>
      <trkpt lat="43.87966" lon="7.23266">
        <ele>209</ele>
        <time>2018-05-13T10:46:01.000Z</time>
      </trkpt>
      <trkpt lat="43.87964" lon="7.23259">
        <ele>208</ele>
        <time>2018-05-13T10:46:03.000Z</time>
      </trkpt>
      <trkpt lat="43.87964" lon="7.23256">
        <ele>209</ele>
        <time>2018-05-13T10:46:04.000Z</time>
      </trkpt>
      <trkpt lat="43.87965" lon="7.23251">
        <ele>209</ele>
        <time>2018-05-13T10:46:05.000Z</time>
      </trkpt>
      <trkpt lat="43.87964" lon="7.2324">
        <ele>211</ele>
        <time>2018-05-13T10:46:07.000Z</time>
      </trkpt>
      <trkpt lat="43.87964" lon="7.23231">
        <ele>211</ele>
        <time>2018-05-13T10:46:09.000Z</time>
      </trkpt>
      <trkpt lat="43.87964" lon="7.23227">
        <ele>210</ele>
        <time>2018-05-13T10:46:10.000Z</time>
      </trkpt>
      <trkpt lat="43.87961" lon="7.23212">
        <ele>210</ele>
        <time>2018-05-13T10:46:13.000Z</time>
      </trkpt>
      <trkpt lat="43.87961" lon="7.23207">
        <ele>210</ele>
        <time>2018-05-13T10:46:14.000Z</time>
      </trkpt>
      <trkpt lat="43.8796" lon="7.23198">
        <ele>210</ele>
        <time>2018-05-13T10:46:16.000Z</time>
      </trkpt>
      <trkpt lat="43.87958" lon="7.23192">
        <ele>209</ele>
        <time>2018-05-13T10:46:18.000Z</time>
      </trkpt>
      <trkpt lat="43.87955" lon="7.23174">
        <ele>208</ele>
        <time>2018-05-13T10:46:22.000Z</time>
      </trkpt>
      <trkpt lat="43.87954" lon="7.23168">
        <ele>208</ele>
        <time>2018-05-13T10:46:23.000Z</time>
      </trkpt>
      <trkpt lat="43.87953" lon="7.23156">
        <ele>208</ele>
        <time>2018-05-13T10:46:25.000Z</time>
      </trkpt>
      <trkpt lat="43.87953" lon="7.2315">
        <ele>208</ele>
        <time>2018-05-13T10:46:26.000Z</time>
      </trkpt>
      <trkpt lat="43.87952" lon="7.23145">
        <ele>208</ele>
        <time>2018-05-13T10:46:27.000Z</time>
      </trkpt>
      <trkpt lat="43.87948" lon="7.23123">
        <ele>208</ele>
        <time>2018-05-13T10:46:33.000Z</time>
      </trkpt>
      <trkpt lat="43.87947" lon="7.23119">
        <ele>208</ele>
        <time>2018-05-13T10:46:34.000Z</time>
      </trkpt>
      <trkpt lat="43.87947" lon="7.23116">
        <ele>208</ele>
        <time>2018-05-13T10:46:35.000Z</time>
      </trkpt>
      <trkpt lat="43.87949" lon="7.23111">
        <ele>208</ele>
        <time>2018-05-13T10:46:37.000Z</time>
      </trkpt>
      <trkpt lat="43.87949" lon="7.23109">
        <ele>208</ele>
        <time>2018-05-13T10:46:38.000Z</time>
      </trkpt>
      <trkpt lat="43.87953" lon="7.23099">
        <ele>208</ele>
        <time>2018-05-13T10:46:41.000Z</time>
      </trkpt>
      <trkpt lat="43.87958" lon="7.23096">
        <ele>209</ele>
        <time>2018-05-13T10:46:43.000Z</time>
      </trkpt>
      <trkpt lat="43.87965" lon="7.23094">
        <ele>211</ele>
        <time>2018-05-13T10:46:46.000Z</time>
      </trkpt>
      <trkpt lat="43.87971" lon="7.23093">
        <ele>212</ele>
        <time>2018-05-13T10:46:49.000Z</time>
      </trkpt>
      <trkpt lat="43.87977" lon="7.23091">
        <ele>214</ele>
        <time>2018-05-13T10:46:52.000Z</time>
      </trkpt>
      <trkpt lat="43.87987" lon="7.23088">
        <ele>217</ele>
        <time>2018-05-13T10:46:56.000Z</time>
      </trkpt>
      <trkpt lat="43.87989" lon="7.23088">
        <ele>217</ele>
        <time>2018-05-13T10:46:57.000Z</time>
      </trkpt>
      <trkpt lat="43.88003" lon="7.23083">
        <ele>224</ele>
        <time>2018-05-13T10:47:03.000Z</time>
      </trkpt>
      <trkpt lat="43.88005" lon="7.23083">
        <ele>225</ele>
        <time>2018-05-13T10:47:04.000Z</time>
      </trkpt>
      <trkpt lat="43.8801" lon="7.23083">
        <ele>229</ele>
        <time>2018-05-13T10:47:07.000Z</time>
      </trkpt>
      <trkpt lat="43.88011" lon="7.23082">
        <ele>229</ele>
        <time>2018-05-13T10:47:08.000Z</time>
      </trkpt>
      <trkpt lat="43.88012" lon="7.23081">
        <ele>230</ele>
        <time>2018-05-13T10:47:09.000Z</time>
      </trkpt>
      <trkpt lat="43.88014" lon="7.23079">
        <ele>231</ele>
        <time>2018-05-13T10:47:14.000Z</time>
      </trkpt>
      <trkpt lat="43.88013" lon="7.23077">
        <ele>231</ele>
        <time>2018-05-13T10:47:24.000Z</time>
      </trkpt>
      <trkpt lat="43.88012" lon="7.23075">
        <ele>231</ele>
        <time>2018-05-13T10:47:35.000Z</time>
      </trkpt>
      <trkpt lat="43.8801" lon="7.23074">
        <ele>231</ele>
        <time>2018-05-13T10:47:47.000Z</time>
      </trkpt>
      <trkpt lat="43.8801" lon="7.23073">
        <ele>231</ele>
        <time>2018-05-13T10:48:03.000Z</time>
      </trkpt>
      <trkpt lat="43.88009" lon="7.23067">
        <ele>232</ele>
        <time>2018-05-13T10:48:09.000Z</time>
      </trkpt>
      <trkpt lat="43.88008" lon="7.23064">
        <ele>233</ele>
        <time>2018-05-13T10:48:11.000Z</time>
      </trkpt>
      <trkpt lat="43.88003" lon="7.23061">
        <ele>234</ele>
        <time>2018-05-13T10:48:13.000Z</time>
      </trkpt>
      <trkpt lat="43.87995" lon="7.23057">
        <ele>219</ele>
        <time>2018-05-13T10:48:15.000Z</time>
      </trkpt>
      <trkpt lat="43.87986" lon="7.23053">
        <ele>218</ele>
        <time>2018-05-13T10:48:17.000Z</time>
      </trkpt>
      <trkpt lat="43.87981" lon="7.23049">
        <ele>218</ele>
        <time>2018-05-13T10:48:18.000Z</time>
      </trkpt>
      <trkpt lat="43.87964" lon="7.23042">
        <ele>216</ele>
        <time>2018-05-13T10:48:21.000Z</time>
      </trkpt>
      <trkpt lat="43.87958" lon="7.23042">
        <ele>215</ele>
        <time>2018-05-13T10:48:22.000Z</time>
      </trkpt>
      <trkpt lat="43.87946" lon="7.23042">
        <ele>213</ele>
        <time>2018-05-13T10:48:24.000Z</time>
      </trkpt>
      <trkpt lat="43.87939" lon="7.23042">
        <ele>212</ele>
        <time>2018-05-13T10:48:26.000Z</time>
      </trkpt>
      <trkpt lat="43.87938" lon="7.23044">
        <ele>211</ele>
        <time>2018-05-13T10:48:27.000Z</time>
      </trkpt>
      <trkpt lat="43.87933" lon="7.2305">
        <ele>210</ele>
        <time>2018-05-13T10:48:29.000Z</time>
      </trkpt>
      <trkpt lat="43.8793" lon="7.23053">
        <ele>210</ele>
        <time>2018-05-13T10:48:30.000Z</time>
      </trkpt>
      <trkpt lat="43.87925" lon="7.23056">
        <ele>208</ele>
        <time>2018-05-13T10:48:32.000Z</time>
      </trkpt>
      <trkpt lat="43.87923" lon="7.23058">
        <ele>208</ele>
        <time>2018-05-13T10:48:33.000Z</time>
      </trkpt>
      <trkpt lat="43.87922" lon="7.23059">
        <ele>207</ele>
        <time>2018-05-13T10:48:35.000Z</time>
      </trkpt>
      <trkpt lat="43.87922" lon="7.23061">
        <ele>207</ele>
        <time>2018-05-13T10:48:36.000Z</time>
      </trkpt>
      <trkpt lat="43.87921" lon="7.23064">
        <ele>206</ele>
        <time>2018-05-13T10:48:38.000Z</time>
      </trkpt>
      <trkpt lat="43.87921" lon="7.23066">
        <ele>206</ele>
        <time>2018-05-13T10:48:40.000Z</time>
      </trkpt>
      <trkpt lat="43.87921" lon="7.23065">
        <ele>206</ele>
        <time>2018-05-13T10:48:41.000Z</time>
      </trkpt>
      <trkpt lat="43.87922" lon="7.23065">
        <ele>206</ele>
        <time>2018-05-13T10:48:44.000Z</time>
      </trkpt>
      <trkpt lat="43.87923" lon="7.23065">
        <ele>206</ele>
        <time>2018-05-13T10:48:45.000Z</time>
      </trkpt>
      <trkpt lat="43.87924" lon="7.23066">
        <ele>206</ele>
        <time>2018-05-13T10:48:46.000Z</time>
      </trkpt>
      <trkpt lat="43.87927" lon="7.23068">
        <ele>206</ele>
        <time>2018-05-13T10:48:49.000Z</time>
      </trkpt>
      <trkpt lat="43.87929" lon="7.23067">
        <ele>207</ele>
        <time>2018-05-13T10:48:50.000Z</time>
      </trkpt>
      <trkpt lat="43.87932" lon="7.23068">
        <ele>207</ele>
        <time>2018-05-13T10:48:51.000Z</time>
      </trkpt>
      <trkpt lat="43.87933" lon="7.23074">
        <ele>206</ele>
        <time>2018-05-13T10:48:54.000Z</time>
      </trkpt>
      <trkpt lat="43.8793" lon="7.23074">
        <ele>205</ele>
        <time>2018-05-13T10:48:55.000Z</time>
      </trkpt>
      <trkpt lat="43.87927" lon="7.23074">
        <ele>204</ele>
        <time>2018-05-13T10:48:56.000Z</time>
      </trkpt>
      <trkpt lat="43.87925" lon="7.23076">
        <ele>203</ele>
        <time>2018-05-13T10:48:57.000Z</time>
      </trkpt>
      <trkpt lat="43.87922" lon="7.2308">
        <ele>201</ele>
        <time>2018-05-13T10:48:59.000Z</time>
      </trkpt>
      <trkpt lat="43.8792" lon="7.23087">
        <ele>199</ele>
        <time>2018-05-13T10:49:01.000Z</time>
      </trkpt>
      <trkpt lat="43.8792" lon="7.23089">
        <ele>200</ele>
        <time>2018-05-13T10:49:02.000Z</time>
      </trkpt>
      <trkpt lat="43.8792" lon="7.23089">
        <ele>200</ele>
        <time>2018-05-13T10:49:03.000Z</time>
      </trkpt>
      <trkpt lat="43.87918" lon="7.2309">
        <ele>200</ele>
        <time>2018-05-13T10:49:04.000Z</time>
      </trkpt>
      <trkpt lat="43.87915" lon="7.23091">
        <ele>197</ele>
        <time>2018-05-13T10:49:05.000Z</time>
      </trkpt>
      <trkpt lat="43.87902" lon="7.23096">
        <ele>198</ele>
        <time>2018-05-13T10:49:09.000Z</time>
      </trkpt>
      <trkpt lat="43.87898" lon="7.23099">
        <ele>198</ele>
        <time>2018-05-13T10:49:11.000Z</time>
      </trkpt>
      <trkpt lat="43.87896" lon="7.23102">
        <ele>198</ele>
        <time>2018-05-13T10:49:12.000Z</time>
      </trkpt>
      <trkpt lat="43.87894" lon="7.23106">
        <ele>198</ele>
        <time>2018-05-13T10:49:13.000Z</time>
      </trkpt>
      <trkpt lat="43.87891" lon="7.23114">
        <ele>198</ele>
        <time>2018-05-13T10:49:15.000Z</time>
      </trkpt>
      <trkpt lat="43.87889" lon="7.23116">
        <ele>198</ele>
        <time>2018-05-13T10:49:16.000Z</time>
      </trkpt>
      <trkpt lat="43.8788" lon="7.23123">
        <ele>198</ele>
        <time>2018-05-13T10:49:20.000Z</time>
      </trkpt>
      <trkpt lat="43.87878" lon="7.23125">
        <ele>198</ele>
        <time>2018-05-13T10:49:21.000Z</time>
      </trkpt>
      <trkpt lat="43.87867" lon="7.23129">
        <ele>199</ele>
        <time>2018-05-13T10:49:26.000Z</time>
      </trkpt>
      <trkpt lat="43.87853" lon="7.23133">
        <ele>199</ele>
        <time>2018-05-13T10:49:31.000Z</time>
      </trkpt>
      <trkpt lat="43.87845" lon="7.23137">
        <ele>200</ele>
        <time>2018-05-13T10:49:34.000Z</time>
      </trkpt>
      <trkpt lat="43.87846" lon="7.23148">
        <ele>200</ele>
        <time>2018-05-13T10:49:37.000Z</time>
      </trkpt>
      <trkpt lat="43.87847" lon="7.23161">
        <ele>201</ele>
        <time>2018-05-13T10:49:42.000Z</time>
      </trkpt>
      <trkpt lat="43.87847" lon="7.23163">
        <ele>201</ele>
        <time>2018-05-13T10:49:43.000Z</time>
      </trkpt>
      <trkpt lat="43.87845" lon="7.23168">
        <ele>202</ele>
        <time>2018-05-13T10:49:47.000Z</time>
      </trkpt>
      <trkpt lat="43.87845" lon="7.23168">
        <ele>202</ele>
        <time>2018-05-13T10:49:48.000Z</time>
      </trkpt>
      <trkpt lat="43.87845" lon="7.23169">
        <ele>202</ele>
        <time>2018-05-13T10:49:56.000Z</time>
      </trkpt>
      <trkpt lat="43.87843" lon="7.23172">
        <ele>203</ele>
        <time>2018-05-13T10:50:01.000Z</time>
      </trkpt>
      <trkpt lat="43.87842" lon="7.23174">
        <ele>203</ele>
        <time>2018-05-13T10:50:02.000Z</time>
      </trkpt>
      <trkpt lat="43.8784" lon="7.23179">
        <ele>202</ele>
        <time>2018-05-13T10:50:07.000Z</time>
      </trkpt>
      <trkpt lat="43.87839" lon="7.23182">
        <ele>202</ele>
        <time>2018-05-13T10:50:09.000Z</time>
      </trkpt>
      <trkpt lat="43.87839" lon="7.23183">
        <ele>202</ele>
        <time>2018-05-13T10:50:10.000Z</time>
      </trkpt>
      <trkpt lat="43.87839" lon="7.23186">
        <ele>202</ele>
        <time>2018-05-13T10:50:13.000Z</time>
      </trkpt>
      <trkpt lat="43.87838" lon="7.23188">
        <ele>202</ele>
        <time>2018-05-13T10:50:15.000Z</time>
      </trkpt>
      <trkpt lat="43.87837" lon="7.23191">
        <ele>202</ele>
        <time>2018-05-13T10:50:20.000Z</time>
      </trkpt>
      <trkpt lat="43.87837" lon="7.23193">
        <ele>202</ele>
        <time>2018-05-13T10:50:21.000Z</time>
      </trkpt>
      <trkpt lat="43.87836" lon="7.23194">
        <ele>202</ele>
        <time>2018-05-13T10:50:22.000Z</time>
      </trkpt>
      <trkpt lat="43.87834" lon="7.23195">
        <ele>202</ele>
        <time>2018-05-13T10:50:25.000Z</time>
      </trkpt>
      <trkpt lat="43.87834" lon="7.23194">
        <ele>202</ele>
        <time>2018-05-13T10:50:26.000Z</time>
      </trkpt>
      <trkpt lat="43.87833" lon="7.2319">
        <ele>221</ele>
        <time>2018-05-13T10:50:31.000Z</time>
      </trkpt>
      <trkpt lat="43.87832" lon="7.23189">
        <ele>221</ele>
        <time>2018-05-13T10:50:33.000Z</time>
      </trkpt>
      <trkpt lat="43.87833" lon="7.23185">
        <ele>219</ele>
        <time>2018-05-13T10:50:37.000Z</time>
      </trkpt>
      <trkpt lat="43.87833" lon="7.23182">
        <ele>217</ele>
        <time>2018-05-13T10:50:40.000Z</time>
      </trkpt>
      <trkpt lat="43.87832" lon="7.23179">
        <ele>216</ele>
        <time>2018-05-13T10:50:43.000Z</time>
      </trkpt>
      <trkpt lat="43.87832" lon="7.23175">
        <ele>213</ele>
        <time>2018-05-13T10:50:47.000Z</time>
      </trkpt>
      <trkpt lat="43.87831" lon="7.23172">
        <ele>210</ele>
        <time>2018-05-13T10:50:50.000Z</time>
      </trkpt>
      <trkpt lat="43.87829" lon="7.23166">
        <ele>208</ele>
        <time>2018-05-13T10:50:56.000Z</time>
      </trkpt>
      <trkpt lat="43.87828" lon="7.2316">
        <ele>211</ele>
        <time>2018-05-13T10:51:02.000Z</time>
      </trkpt>
      <trkpt lat="43.87828" lon="7.23159">
        <ele>212</ele>
        <time>2018-05-13T10:51:03.000Z</time>
      </trkpt>
      <trkpt lat="43.87828" lon="7.23154">
        <ele>215</ele>
        <time>2018-05-13T10:51:08.000Z</time>
      </trkpt>
      <trkpt lat="43.87826" lon="7.23145">
        <ele>218</ele>
        <time>2018-05-13T10:51:16.000Z</time>
      </trkpt>
      <trkpt lat="43.87825" lon="7.23144">
        <ele>218</ele>
        <time>2018-05-13T10:51:17.000Z</time>
      </trkpt>
      <trkpt lat="43.87824" lon="7.2314">
        <ele>219</ele>
        <time>2018-05-13T10:51:21.000Z</time>
      </trkpt>
      <trkpt lat="43.87824" lon="7.23137">
        <ele>220</ele>
        <time>2018-05-13T10:51:23.000Z</time>
      </trkpt>
      <trkpt lat="43.87824" lon="7.23131">
        <ele>220</ele>
        <time>2018-05-13T10:51:28.000Z</time>
      </trkpt>
      <trkpt lat="43.87823" lon="7.23127">
        <ele>220</ele>
        <time>2018-05-13T10:51:32.000Z</time>
      </trkpt>
      <trkpt lat="43.87823" lon="7.23125">
        <ele>220</ele>
        <time>2018-05-13T10:51:33.000Z</time>
      </trkpt>
      <trkpt lat="43.87823" lon="7.23123">
        <ele>220</ele>
        <time>2018-05-13T10:51:35.000Z</time>
      </trkpt>
      <trkpt lat="43.87822" lon="7.23119">
        <ele>220</ele>
        <time>2018-05-13T10:51:38.000Z</time>
      </trkpt>
      <trkpt lat="43.87822" lon="7.23117">
        <ele>220</ele>
        <time>2018-05-13T10:51:40.000Z</time>
      </trkpt>
      <trkpt lat="43.87824" lon="7.23112">
        <ele>218</ele>
        <time>2018-05-13T10:51:45.000Z</time>
      </trkpt>
      <trkpt lat="43.87824" lon="7.23111">
        <ele>218</ele>
        <time>2018-05-13T10:51:46.000Z</time>
      </trkpt>
      <trkpt lat="43.87824" lon="7.23106">
        <ele>217</ele>
        <time>2018-05-13T10:51:51.000Z</time>
      </trkpt>
      <trkpt lat="43.87824" lon="7.23104">
        <ele>216</ele>
        <time>2018-05-13T10:51:53.000Z</time>
      </trkpt>
      <trkpt lat="43.87823" lon="7.231">
        <ele>215</ele>
        <time>2018-05-13T10:51:56.000Z</time>
      </trkpt>
      <trkpt lat="43.87821" lon="7.23096">
        <ele>214</ele>
        <time>2018-05-13T10:52:01.000Z</time>
      </trkpt>
      <trkpt lat="43.8782" lon="7.23094">
        <ele>214</ele>
        <time>2018-05-13T10:52:03.000Z</time>
      </trkpt>
      <trkpt lat="43.87817" lon="7.2309">
        <ele>214</ele>
        <time>2018-05-13T10:52:08.000Z</time>
      </trkpt>
      <trkpt lat="43.87816" lon="7.2309">
        <ele>215</ele>
        <time>2018-05-13T10:52:09.000Z</time>
      </trkpt>
      <trkpt lat="43.87811" lon="7.23089">
        <ele>218</ele>
        <time>2018-05-13T10:52:15.000Z</time>
      </trkpt>
      <trkpt lat="43.8781" lon="7.23089">
        <ele>218</ele>
        <time>2018-05-13T10:52:16.000Z</time>
      </trkpt>
      <trkpt lat="43.87808" lon="7.23085">
        <ele>219</ele>
        <time>2018-05-13T10:52:20.000Z</time>
      </trkpt>
      <trkpt lat="43.87805" lon="7.23085">
        <ele>221</ele>
        <time>2018-05-13T10:52:24.000Z</time>
      </trkpt>
      <trkpt lat="43.87803" lon="7.23085">
        <ele>222</ele>
        <time>2018-05-13T10:52:26.000Z</time>
      </trkpt>
      <trkpt lat="43.87803" lon="7.23088">
        <ele>222</ele>
        <time>2018-05-13T10:52:30.000Z</time>
      </trkpt>
      <trkpt lat="43.87803" lon="7.23088">
        <ele>222</ele>
        <time>2018-05-13T10:52:31.000Z</time>
      </trkpt>
      <trkpt lat="43.87804" lon="7.23091">
        <ele>222</ele>
        <time>2018-05-13T10:52:33.000Z</time>
      </trkpt>
      <trkpt lat="43.87803" lon="7.23093">
        <ele>222</ele>
        <time>2018-05-13T10:52:36.000Z</time>
      </trkpt>
      <trkpt lat="43.878" lon="7.2309">
        <ele>223</ele>
        <time>2018-05-13T10:52:41.000Z</time>
      </trkpt>
      <trkpt lat="43.87796" lon="7.23085">
        <ele>225</ele>
        <time>2018-05-13T10:52:48.000Z</time>
      </trkpt>
      <trkpt lat="43.87793" lon="7.23082">
        <ele>218</ele>
        <time>2018-05-13T10:52:53.000Z</time>
      </trkpt>
      <trkpt lat="43.87793" lon="7.23081">
        <ele>218</ele>
        <time>2018-05-13T10:52:55.000Z</time>
      </trkpt>
      <trkpt lat="43.8779" lon="7.23075">
        <ele>219</ele>
        <time>2018-05-13T10:53:01.000Z</time>
      </trkpt>
      <trkpt lat="43.87789" lon="7.23075">
        <ele>219</ele>
        <time>2018-05-13T10:53:02.000Z</time>
      </trkpt>
      <trkpt lat="43.87785" lon="7.23072">
        <ele>220</ele>
        <time>2018-05-13T10:53:07.000Z</time>
      </trkpt>
      <trkpt lat="43.87784" lon="7.23071">
        <ele>221</ele>
        <time>2018-05-13T10:53:09.000Z</time>
      </trkpt>
      <trkpt lat="43.87781" lon="7.23067">
        <ele>222</ele>
        <time>2018-05-13T10:53:13.000Z</time>
      </trkpt>
      <trkpt lat="43.8778" lon="7.23067">
        <ele>222</ele>
        <time>2018-05-13T10:53:14.000Z</time>
      </trkpt>
      <trkpt lat="43.87777" lon="7.23063">
        <ele>222</ele>
        <time>2018-05-13T10:53:19.000Z</time>
      </trkpt>
      <trkpt lat="43.87776" lon="7.23061">
        <ele>222</ele>
        <time>2018-05-13T10:53:21.000Z</time>
      </trkpt>
      <trkpt lat="43.87773" lon="7.23057">
        <ele>222</ele>
        <time>2018-05-13T10:53:26.000Z</time>
      </trkpt>
      <trkpt lat="43.87771" lon="7.23055">
        <ele>222</ele>
        <time>2018-05-13T10:53:29.000Z</time>
      </trkpt>
      <trkpt lat="43.8777" lon="7.23054">
        <ele>223</ele>
        <time>2018-05-13T10:53:30.000Z</time>
      </trkpt>
      <trkpt lat="43.87768" lon="7.23053">
        <ele>223</ele>
        <time>2018-05-13T10:53:32.000Z</time>
      </trkpt>
      <trkpt lat="43.87766" lon="7.23052">
        <ele>223</ele>
        <time>2018-05-13T10:53:36.000Z</time>
      </trkpt>
      <trkpt lat="43.87764" lon="7.23052">
        <ele>223</ele>
        <time>2018-05-13T10:53:39.000Z</time>
      </trkpt>
      <trkpt lat="43.87762" lon="7.23052">
        <ele>224</ele>
        <time>2018-05-13T10:53:42.000Z</time>
      </trkpt>
      <trkpt lat="43.8776" lon="7.23051">
        <ele>224</ele>
        <time>2018-05-13T10:53:45.000Z</time>
      </trkpt>
      <trkpt lat="43.87757" lon="7.23049">
        <ele>224</ele>
        <time>2018-05-13T10:53:49.000Z</time>
      </trkpt>
      <trkpt lat="43.87756" lon="7.23049">
        <ele>224</ele>
        <time>2018-05-13T10:53:51.000Z</time>
      </trkpt>
      <trkpt lat="43.87754" lon="7.23047">
        <ele>224</ele>
        <time>2018-05-13T10:53:55.000Z</time>
      </trkpt>
      <trkpt lat="43.87753" lon="7.23047">
        <ele>224</ele>
        <time>2018-05-13T10:53:56.000Z</time>
      </trkpt>
      <trkpt lat="43.87749" lon="7.23045">
        <ele>249</ele>
        <time>2018-05-13T10:54:00.000Z</time>
      </trkpt>
      <trkpt lat="43.87748" lon="7.23044">
        <ele>249</ele>
        <time>2018-05-13T10:54:02.000Z</time>
      </trkpt>
      <trkpt lat="43.87747" lon="7.23042">
        <ele>249</ele>
        <time>2018-05-13T10:54:04.000Z</time>
      </trkpt>
      <trkpt lat="43.87744" lon="7.23035">
        <ele>247</ele>
        <time>2018-05-13T10:54:06.000Z</time>
      </trkpt>
      <trkpt lat="43.87733" lon="7.23026">
        <ele>247</ele>
        <time>2018-05-13T10:54:10.000Z</time>
      </trkpt>
      <trkpt lat="43.87731" lon="7.23025">
        <ele>247</ele>
        <time>2018-05-13T10:54:11.000Z</time>
      </trkpt>
      <trkpt lat="43.87728" lon="7.23024">
        <ele>248</ele>
        <time>2018-05-13T10:54:13.000Z</time>
      </trkpt>
      <trkpt lat="43.87727" lon="7.23024">
        <ele>248</ele>
        <time>2018-05-13T10:54:15.000Z</time>
      </trkpt>
      <trkpt lat="43.87726" lon="7.23024">
        <ele>248</ele>
        <time>2018-05-13T10:54:16.000Z</time>
      </trkpt>
      <trkpt lat="43.87725" lon="7.23024">
        <ele>248</ele>
        <time>2018-05-13T10:54:21.000Z</time>
      </trkpt>
      <trkpt lat="43.87721" lon="7.2302">
        <ele>249</ele>
        <time>2018-05-13T10:54:27.000Z</time>
      </trkpt>
      <trkpt lat="43.87721" lon="7.2302">
        <ele>249</ele>
        <time>2018-05-13T10:54:28.000Z</time>
      </trkpt>
      <trkpt lat="43.87718" lon="7.23018">
        <ele>250</ele>
        <time>2018-05-13T10:54:33.000Z</time>
      </trkpt>
      <trkpt lat="43.87717" lon="7.23016">
        <ele>250</ele>
        <time>2018-05-13T10:54:34.000Z</time>
      </trkpt>
      <trkpt lat="43.87712" lon="7.23013">
        <ele>251</ele>
        <time>2018-05-13T10:54:40.000Z</time>
      </trkpt>
      <trkpt lat="43.87712" lon="7.23013">
        <ele>252</ele>
        <time>2018-05-13T10:54:41.000Z</time>
      </trkpt>
      <trkpt lat="43.87708" lon="7.23011">
        <ele>253</ele>
        <time>2018-05-13T10:54:46.000Z</time>
      </trkpt>
      <trkpt lat="43.87705" lon="7.2301">
        <ele>254</ele>
        <time>2018-05-13T10:54:49.000Z</time>
      </trkpt>
      <trkpt lat="43.87703" lon="7.2301">
        <ele>254</ele>
        <time>2018-05-13T10:54:52.000Z</time>
      </trkpt>
      <trkpt lat="43.87699" lon="7.23008">
        <ele>256</ele>
        <time>2018-05-13T10:54:57.000Z</time>
      </trkpt>
      <trkpt lat="43.87698" lon="7.23008">
        <ele>256</ele>
        <time>2018-05-13T10:54:58.000Z</time>
      </trkpt>
      <trkpt lat="43.87694" lon="7.23006">
        <ele>257</ele>
        <time>2018-05-13T10:55:02.000Z</time>
      </trkpt>
      <trkpt lat="43.87691" lon="7.23004">
        <ele>258</ele>
        <time>2018-05-13T10:55:06.000Z</time>
      </trkpt>
      <trkpt lat="43.8769" lon="7.23003">
        <ele>258</ele>
        <time>2018-05-13T10:55:07.000Z</time>
      </trkpt>
      <trkpt lat="43.8769" lon="7.23002">
        <ele>258</ele>
        <time>2018-05-13T10:55:08.000Z</time>
      </trkpt>
      <trkpt lat="43.87686" lon="7.22998">
        <ele>245</ele>
        <time>2018-05-13T10:55:11.000Z</time>
      </trkpt>
      <trkpt lat="43.8768" lon="7.22991">
        <ele>248</ele>
        <time>2018-05-13T10:55:16.000Z</time>
      </trkpt>
      <trkpt lat="43.87677" lon="7.22989">
        <ele>249</ele>
        <time>2018-05-13T10:55:18.000Z</time>
      </trkpt>
      <trkpt lat="43.87669" lon="7.22983">
        <ele>248</ele>
        <time>2018-05-13T10:55:24.000Z</time>
      </trkpt>
      <trkpt lat="43.87667" lon="7.22982">
        <ele>270</ele>
        <time>2018-05-13T10:55:25.000Z</time>
      </trkpt>
      <trkpt lat="43.87663" lon="7.22979">
        <ele>271</ele>
        <time>2018-05-13T10:55:28.000Z</time>
      </trkpt>
      <trkpt lat="43.87662" lon="7.22978">
        <ele>271</ele>
        <time>2018-05-13T10:55:30.000Z</time>
      </trkpt>
      <trkpt lat="43.87661" lon="7.22978">
        <ele>271</ele>
        <time>2018-05-13T10:55:31.000Z</time>
      </trkpt>
      <trkpt lat="43.8766" lon="7.22977">
        <ele>271</ele>
        <time>2018-05-13T10:55:32.000Z</time>
      </trkpt>
      <trkpt lat="43.87657" lon="7.22973">
        <ele>272</ele>
        <time>2018-05-13T10:55:37.000Z</time>
      </trkpt>
      <trkpt lat="43.87652" lon="7.22968">
        <ele>272</ele>
        <time>2018-05-13T10:55:44.000Z</time>
      </trkpt>
      <trkpt lat="43.87649" lon="7.22964">
        <ele>273</ele>
        <time>2018-05-13T10:55:47.000Z</time>
      </trkpt>
      <trkpt lat="43.87647" lon="7.22961">
        <ele>273</ele>
        <time>2018-05-13T10:55:49.000Z</time>
      </trkpt>
      <trkpt lat="43.87644" lon="7.22953">
        <ele>272</ele>
        <time>2018-05-13T10:55:53.000Z</time>
      </trkpt>
      <trkpt lat="43.87643" lon="7.22951">
        <ele>271</ele>
        <time>2018-05-13T10:55:54.000Z</time>
      </trkpt>
      <trkpt lat="43.8764" lon="7.22937">
        <ele>268</ele>
        <time>2018-05-13T10:56:01.000Z</time>
      </trkpt>
      <trkpt lat="43.87639" lon="7.22932">
        <ele>268</ele>
        <time>2018-05-13T10:56:03.000Z</time>
      </trkpt>
      <trkpt lat="43.87637" lon="7.22928">
        <ele>268</ele>
        <time>2018-05-13T10:56:05.000Z</time>
      </trkpt>
      <trkpt lat="43.87635" lon="7.22924">
        <ele>268</ele>
        <time>2018-05-13T10:56:07.000Z</time>
      </trkpt>
      <trkpt lat="43.87629" lon="7.22913">
        <ele>254</ele>
        <time>2018-05-13T10:56:13.000Z</time>
      </trkpt>
      <trkpt lat="43.87627" lon="7.22911">
        <ele>255</ele>
        <time>2018-05-13T10:56:15.000Z</time>
      </trkpt>
      <trkpt lat="43.87621" lon="7.22903">
        <ele>257</ele>
        <time>2018-05-13T10:56:20.000Z</time>
      </trkpt>
      <trkpt lat="43.87614" lon="7.22895">
        <ele>258</ele>
        <time>2018-05-13T10:56:26.000Z</time>
      </trkpt>
      <trkpt lat="43.87613" lon="7.22893">
        <ele>258</ele>
        <time>2018-05-13T10:56:27.000Z</time>
      </trkpt>
      <trkpt lat="43.87608" lon="7.22882">
        <ele>258</ele>
        <time>2018-05-13T10:56:32.000Z</time>
      </trkpt>
      <trkpt lat="43.87607" lon="7.2288">
        <ele>258</ele>
        <time>2018-05-13T10:56:33.000Z</time>
      </trkpt>
      <trkpt lat="43.87599" lon="7.22869">
        <ele>258</ele>
        <time>2018-05-13T10:56:38.000Z</time>
      </trkpt>
      <trkpt lat="43.87584" lon="7.22865">
        <ele>261</ele>
        <time>2018-05-13T10:56:44.000Z</time>
      </trkpt>
      <trkpt lat="43.87572" lon="7.22864">
        <ele>288</ele>
        <time>2018-05-13T10:56:49.000Z</time>
      </trkpt>
      <trkpt lat="43.8757" lon="7.22864">
        <ele>288</ele>
        <time>2018-05-13T10:56:50.000Z</time>
      </trkpt>
      <trkpt lat="43.87559" lon="7.22861">
        <ele>290</ele>
        <time>2018-05-13T10:56:54.000Z</time>
      </trkpt>
      <trkpt lat="43.87552" lon="7.22857">
        <ele>291</ele>
        <time>2018-05-13T10:56:56.000Z</time>
      </trkpt>
      <trkpt lat="43.87548" lon="7.2284">
        <ele>290</ele>
        <time>2018-05-13T10:57:00.000Z</time>
      </trkpt>
      <trkpt lat="43.87553" lon="7.22825">
        <ele>284</ele>
        <time>2018-05-13T10:57:05.000Z</time>
      </trkpt>
      <trkpt lat="43.87555" lon="7.22821">
        <ele>284</ele>
        <time>2018-05-13T10:57:08.000Z</time>
      </trkpt>
      <trkpt lat="43.87556" lon="7.22819">
        <ele>284</ele>
        <time>2018-05-13T10:57:10.000Z</time>
      </trkpt>
      <trkpt lat="43.87558" lon="7.22816">
        <ele>284</ele>
        <time>2018-05-13T10:57:13.000Z</time>
      </trkpt>
      <trkpt lat="43.8756" lon="7.2281">
        <ele>283</ele>
        <time>2018-05-13T10:57:18.000Z</time>
      </trkpt>
      <trkpt lat="43.87561" lon="7.22809">
        <ele>283</ele>
        <time>2018-05-13T10:57:19.000Z</time>
      </trkpt>
      <trkpt lat="43.87562" lon="7.22804">
        <ele>283</ele>
        <time>2018-05-13T10:57:23.000Z</time>
      </trkpt>
      <trkpt lat="43.87565" lon="7.22799">
        <ele>283</ele>
        <time>2018-05-13T10:57:28.000Z</time>
      </trkpt>
      <trkpt lat="43.87568" lon="7.22789">
        <ele>283</ele>
        <time>2018-05-13T10:57:37.000Z</time>
      </trkpt>
      <trkpt lat="43.87569" lon="7.22787">
        <ele>282</ele>
        <time>2018-05-13T10:57:38.000Z</time>
      </trkpt>
      <trkpt lat="43.87569" lon="7.22783">
        <ele>282</ele>
        <time>2018-05-13T10:57:42.000Z</time>
      </trkpt>
      <trkpt lat="43.8757" lon="7.22778">
        <ele>281</ele>
        <time>2018-05-13T10:57:46.000Z</time>
      </trkpt>
      <trkpt lat="43.8757" lon="7.22776">
        <ele>281</ele>
        <time>2018-05-13T10:57:48.000Z</time>
      </trkpt>
      <trkpt lat="43.8757" lon="7.22771">
        <ele>280</ele>
        <time>2018-05-13T10:57:53.000Z</time>
      </trkpt>
      <trkpt lat="43.8757" lon="7.22769">
        <ele>279</ele>
        <time>2018-05-13T10:57:55.000Z</time>
      </trkpt>
      <trkpt lat="43.8757" lon="7.22765">
        <ele>278</ele>
        <time>2018-05-13T10:57:58.000Z</time>
      </trkpt>
      <trkpt lat="43.87569" lon="7.22761">
        <ele>277</ele>
        <time>2018-05-13T10:58:03.000Z</time>
      </trkpt>
      <trkpt lat="43.87569" lon="7.22759">
        <ele>277</ele>
        <time>2018-05-13T10:58:05.000Z</time>
      </trkpt>
      <trkpt lat="43.87568" lon="7.22755">
        <ele>277</ele>
        <time>2018-05-13T10:58:09.000Z</time>
      </trkpt>
      <trkpt lat="43.87568" lon="7.22752">
        <ele>277</ele>
        <time>2018-05-13T10:58:12.000Z</time>
      </trkpt>
      <trkpt lat="43.87567" lon="7.22749">
        <ele>275</ele>
        <time>2018-05-13T10:58:15.000Z</time>
      </trkpt>
      <trkpt lat="43.87565" lon="7.22744">
        <ele>276</ele>
        <time>2018-05-13T10:58:19.000Z</time>
      </trkpt>
      <trkpt lat="43.87564" lon="7.22742">
        <ele>276</ele>
        <time>2018-05-13T10:58:21.000Z</time>
      </trkpt>
      <trkpt lat="43.87562" lon="7.22738">
        <ele>277</ele>
        <time>2018-05-13T10:58:25.000Z</time>
      </trkpt>
      <trkpt lat="43.8756" lon="7.22735">
        <ele>278</ele>
        <time>2018-05-13T10:58:28.000Z</time>
      </trkpt>
      <trkpt lat="43.87558" lon="7.22732">
        <ele>279</ele>
        <time>2018-05-13T10:58:32.000Z</time>
      </trkpt>
      <trkpt lat="43.87554" lon="7.22727">
        <ele>281</ele>
        <time>2018-05-13T10:58:38.000Z</time>
      </trkpt>
      <trkpt lat="43.87551" lon="7.22723">
        <ele>282</ele>
        <time>2018-05-13T10:58:43.000Z</time>
      </trkpt>
      <trkpt lat="43.87548" lon="7.2272">
        <ele>283</ele>
        <time>2018-05-13T10:58:47.000Z</time>
      </trkpt>
      <trkpt lat="43.87547" lon="7.22719">
        <ele>283</ele>
        <time>2018-05-13T10:58:49.000Z</time>
      </trkpt>
      <trkpt lat="43.87544" lon="7.22715">
        <ele>284</ele>
        <time>2018-05-13T10:58:54.000Z</time>
      </trkpt>
      <trkpt lat="43.87543" lon="7.22713">
        <ele>285</ele>
        <time>2018-05-13T10:58:56.000Z</time>
      </trkpt>
      <trkpt lat="43.87542" lon="7.22713">
        <ele>285</ele>
        <time>2018-05-13T10:58:57.000Z</time>
      </trkpt>
      <trkpt lat="43.87541" lon="7.22715">
        <ele>285</ele>
        <time>2018-05-13T10:59:00.000Z</time>
      </trkpt>
      <trkpt lat="43.87541" lon="7.22716">
        <ele>285</ele>
        <time>2018-05-13T10:59:01.000Z</time>
      </trkpt>
      <trkpt lat="43.87542" lon="7.22721">
        <ele>285</ele>
        <time>2018-05-13T10:59:07.000Z</time>
      </trkpt>
      <trkpt lat="43.87542" lon="7.22722">
        <ele>285</ele>
        <time>2018-05-13T10:59:08.000Z</time>
      </trkpt>
      <trkpt lat="43.87544" lon="7.22729">
        <ele>285</ele>
        <time>2018-05-13T10:59:15.000Z</time>
      </trkpt>
      <trkpt lat="43.87544" lon="7.22736">
        <ele>286</ele>
        <time>2018-05-13T10:59:21.000Z</time>
      </trkpt>
      <trkpt lat="43.87544" lon="7.22739">
        <ele>286</ele>
        <time>2018-05-13T10:59:23.000Z</time>
      </trkpt>
      <trkpt lat="43.87543" lon="7.22745">
        <ele>286</ele>
        <time>2018-05-13T10:59:28.000Z</time>
      </trkpt>
      <trkpt lat="43.87541" lon="7.2275">
        <ele>290</ele>
        <time>2018-05-13T10:59:33.000Z</time>
      </trkpt>
      <trkpt lat="43.8754" lon="7.22753">
        <ele>291</ele>
        <time>2018-05-13T10:59:36.000Z</time>
      </trkpt>
      <trkpt lat="43.87539" lon="7.22758">
        <ele>291</ele>
        <time>2018-05-13T10:59:40.000Z</time>
      </trkpt>
      <trkpt lat="43.87539" lon="7.2276">
        <ele>291</ele>
        <time>2018-05-13T10:59:42.000Z</time>
      </trkpt>
      <trkpt lat="43.87539" lon="7.22761">
        <ele>291</ele>
        <time>2018-05-13T10:59:43.000Z</time>
      </trkpt>
      <trkpt lat="43.87537" lon="7.22768">
        <ele>292</ele>
        <time>2018-05-13T10:59:50.000Z</time>
      </trkpt>
      <trkpt lat="43.87535" lon="7.22768">
        <ele>292</ele>
        <time>2018-05-13T10:59:53.000Z</time>
      </trkpt>
      <trkpt lat="43.87535" lon="7.22765">
        <ele>293</ele>
        <time>2018-05-13T10:59:55.000Z</time>
      </trkpt>
      <trkpt lat="43.87535" lon="7.22764">
        <ele>293</ele>
        <time>2018-05-13T10:59:56.000Z</time>
      </trkpt>
      <trkpt lat="43.87535" lon="7.22758">
        <ele>293</ele>
        <time>2018-05-13T11:00:01.000Z</time>
      </trkpt>
      <trkpt lat="43.87534" lon="7.22756">
        <ele>294</ele>
        <time>2018-05-13T11:00:03.000Z</time>
      </trkpt>
      <trkpt lat="43.87533" lon="7.22751">
        <ele>294</ele>
        <time>2018-05-13T11:00:08.000Z</time>
      </trkpt>
      <trkpt lat="43.87532" lon="7.22747">
        <ele>293</ele>
        <time>2018-05-13T11:00:12.000Z</time>
      </trkpt>
      <trkpt lat="43.8753" lon="7.22744">
        <ele>293</ele>
        <time>2018-05-13T11:00:16.000Z</time>
      </trkpt>
      <trkpt lat="43.87529" lon="7.2274">
        <ele>293</ele>
        <time>2018-05-13T11:00:20.000Z</time>
      </trkpt>
      <trkpt lat="43.87529" lon="7.22739">
        <ele>293</ele>
        <time>2018-05-13T11:00:22.000Z</time>
      </trkpt>
      <trkpt lat="43.87528" lon="7.22736">
        <ele>293</ele>
        <time>2018-05-13T11:00:25.000Z</time>
      </trkpt>
      <trkpt lat="43.87528" lon="7.22734">
        <ele>293</ele>
        <time>2018-05-13T11:00:27.000Z</time>
      </trkpt>
      <trkpt lat="43.87527" lon="7.22731">
        <ele>293</ele>
        <time>2018-05-13T11:00:30.000Z</time>
      </trkpt>
      <trkpt lat="43.87526" lon="7.22729">
        <ele>293</ele>
        <time>2018-05-13T11:00:32.000Z</time>
      </trkpt>
      <trkpt lat="43.87524" lon="7.22729">
        <ele>294</ele>
        <time>2018-05-13T11:00:37.000Z</time>
      </trkpt>
      <trkpt lat="43.87523" lon="7.22732">
        <ele>295</ele>
        <time>2018-05-13T11:00:40.000Z</time>
      </trkpt>
      <trkpt lat="43.87523" lon="7.22734">
        <ele>296</ele>
        <time>2018-05-13T11:00:42.000Z</time>
      </trkpt>
      <trkpt lat="43.87523" lon="7.22735">
        <ele>296</ele>
        <time>2018-05-13T11:00:43.000Z</time>
      </trkpt>
      <trkpt lat="43.87521" lon="7.22745">
        <ele>299</ele>
        <time>2018-05-13T11:00:51.000Z</time>
      </trkpt>
      <trkpt lat="43.87521" lon="7.22746">
        <ele>299</ele>
        <time>2018-05-13T11:00:52.000Z</time>
      </trkpt>
      <trkpt lat="43.8752" lon="7.22752">
        <ele>301</ele>
        <time>2018-05-13T11:00:57.000Z</time>
      </trkpt>
      <trkpt lat="43.87519" lon="7.22754">
        <ele>302</ele>
        <time>2018-05-13T11:01:00.000Z</time>
      </trkpt>
      <trkpt lat="43.87517" lon="7.22753">
        <ele>303</ele>
        <time>2018-05-13T11:01:02.000Z</time>
      </trkpt>
      <trkpt lat="43.87516" lon="7.22751">
        <ele>304</ele>
        <time>2018-05-13T11:01:04.000Z</time>
      </trkpt>
      <trkpt lat="43.87515" lon="7.22747">
        <ele>303</ele>
        <time>2018-05-13T11:01:07.000Z</time>
      </trkpt>
      <trkpt lat="43.87515" lon="7.22744">
        <ele>303</ele>
        <time>2018-05-13T11:01:10.000Z</time>
      </trkpt>
      <trkpt lat="43.87514" lon="7.22742">
        <ele>302</ele>
        <time>2018-05-13T11:01:12.000Z</time>
      </trkpt>
      <trkpt lat="43.87514" lon="7.2274">
        <ele>302</ele>
        <time>2018-05-13T11:01:13.000Z</time>
      </trkpt>
      <trkpt lat="43.87512" lon="7.22735">
        <ele>301</ele>
        <time>2018-05-13T11:01:19.000Z</time>
      </trkpt>
      <trkpt lat="43.87511" lon="7.22734">
        <ele>301</ele>
        <time>2018-05-13T11:01:20.000Z</time>
      </trkpt>
      <trkpt lat="43.8751" lon="7.22729">
        <ele>300</ele>
        <time>2018-05-13T11:01:26.000Z</time>
      </trkpt>
      <trkpt lat="43.8751" lon="7.22728">
        <ele>299</ele>
        <time>2018-05-13T11:01:27.000Z</time>
      </trkpt>
      <trkpt lat="43.87509" lon="7.22724">
        <ele>298</ele>
        <time>2018-05-13T11:01:32.000Z</time>
      </trkpt>
      <trkpt lat="43.87508" lon="7.22722">
        <ele>298</ele>
        <time>2018-05-13T11:01:35.000Z</time>
      </trkpt>
      <trkpt lat="43.87507" lon="7.22719">
        <ele>298</ele>
        <time>2018-05-13T11:01:38.000Z</time>
      </trkpt>
      <trkpt lat="43.87505" lon="7.22719">
        <ele>298</ele>
        <time>2018-05-13T11:01:42.000Z</time>
      </trkpt>
      <trkpt lat="43.87505" lon="7.2272">
        <ele>298</ele>
        <time>2018-05-13T11:01:43.000Z</time>
      </trkpt>
      <trkpt lat="43.87504" lon="7.22725">
        <ele>300</ele>
        <time>2018-05-13T11:01:48.000Z</time>
      </trkpt>
      <trkpt lat="43.87503" lon="7.22729">
        <ele>301</ele>
        <time>2018-05-13T11:01:52.000Z</time>
      </trkpt>
      <trkpt lat="43.87502" lon="7.22731">
        <ele>303</ele>
        <time>2018-05-13T11:01:54.000Z</time>
      </trkpt>
      <trkpt lat="43.87502" lon="7.22735">
        <ele>305</ele>
        <time>2018-05-13T11:01:59.000Z</time>
      </trkpt>
      <trkpt lat="43.875" lon="7.22738">
        <ele>307</ele>
        <time>2018-05-13T11:02:03.000Z</time>
      </trkpt>
      <trkpt lat="43.87499" lon="7.22743">
        <ele>325</ele>
        <time>2018-05-13T11:02:07.000Z</time>
      </trkpt>
      <trkpt lat="43.87495" lon="7.2275">
        <ele>324</ele>
        <time>2018-05-13T11:02:16.000Z</time>
      </trkpt>
      <trkpt lat="43.87494" lon="7.22751">
        <ele>324</ele>
        <time>2018-05-13T11:02:18.000Z</time>
      </trkpt>
      <trkpt lat="43.87491" lon="7.22748">
        <ele>328</ele>
        <time>2018-05-13T11:02:23.000Z</time>
      </trkpt>
      <trkpt lat="43.87491" lon="7.22746">
        <ele>328</ele>
        <time>2018-05-13T11:02:25.000Z</time>
      </trkpt>
      <trkpt lat="43.87491" lon="7.22742">
        <ele>329</ele>
        <time>2018-05-13T11:02:29.000Z</time>
      </trkpt>
      <trkpt lat="43.87492" lon="7.2274">
        <ele>330</ele>
        <time>2018-05-13T11:02:32.000Z</time>
      </trkpt>
      <trkpt lat="43.87492" lon="7.22738">
        <ele>330</ele>
        <time>2018-05-13T11:02:33.000Z</time>
      </trkpt>
      <trkpt lat="43.87493" lon="7.22736">
        <ele>331</ele>
        <time>2018-05-13T11:02:35.000Z</time>
      </trkpt>
      <trkpt lat="43.87493" lon="7.22732">
        <ele>332</ele>
        <time>2018-05-13T11:02:38.000Z</time>
      </trkpt>
      <trkpt lat="43.87492" lon="7.22727">
        <ele>334</ele>
        <time>2018-05-13T11:02:43.000Z</time>
      </trkpt>
      <trkpt lat="43.87491" lon="7.22725">
        <ele>334</ele>
        <time>2018-05-13T11:02:46.000Z</time>
      </trkpt>
      <trkpt lat="43.8749" lon="7.22723">
        <ele>335</ele>
        <time>2018-05-13T11:02:48.000Z</time>
      </trkpt>
      <trkpt lat="43.87489" lon="7.22721">
        <ele>335</ele>
        <time>2018-05-13T11:02:50.000Z</time>
      </trkpt>
      <trkpt lat="43.87488" lon="7.22719">
        <ele>336</ele>
        <time>2018-05-13T11:02:52.000Z</time>
      </trkpt>
      <trkpt lat="43.87487" lon="7.22713">
        <ele>336</ele>
        <time>2018-05-13T11:02:58.000Z</time>
      </trkpt>
      <trkpt lat="43.87487" lon="7.2271">
        <ele>336</ele>
        <time>2018-05-13T11:03:00.000Z</time>
      </trkpt>
      <trkpt lat="43.87488" lon="7.22702">
        <ele>336</ele>
        <time>2018-05-13T11:03:07.000Z</time>
      </trkpt>
      <trkpt lat="43.87488" lon="7.22701">
        <ele>336</ele>
        <time>2018-05-13T11:03:09.000Z</time>
      </trkpt>
      <trkpt lat="43.87487" lon="7.22697">
        <ele>335</ele>
        <time>2018-05-13T11:03:13.000Z</time>
      </trkpt>
      <trkpt lat="43.87485" lon="7.22698">
        <ele>336</ele>
        <time>2018-05-13T11:03:15.000Z</time>
      </trkpt>
      <trkpt lat="43.87485" lon="7.22698">
        <ele>336</ele>
        <time>2018-05-13T11:03:16.000Z</time>
      </trkpt>
      <trkpt lat="43.87484" lon="7.22701">
        <ele>337</ele>
        <time>2018-05-13T11:03:20.000Z</time>
      </trkpt>
      <trkpt lat="43.8748" lon="7.22704">
        <ele>338</ele>
        <time>2018-05-13T11:03:26.000Z</time>
      </trkpt>
      <trkpt lat="43.8748" lon="7.22705">
        <ele>338</ele>
        <time>2018-05-13T11:03:27.000Z</time>
      </trkpt>
      <trkpt lat="43.87478" lon="7.2271">
        <ele>339</ele>
        <time>2018-05-13T11:03:33.000Z</time>
      </trkpt>
      <trkpt lat="43.87478" lon="7.22711">
        <ele>339</ele>
        <time>2018-05-13T11:03:34.000Z</time>
      </trkpt>
      <trkpt lat="43.87478" lon="7.22716">
        <ele>339</ele>
        <time>2018-05-13T11:03:40.000Z</time>
      </trkpt>
      <trkpt lat="43.87478" lon="7.22717">
        <ele>338</ele>
        <time>2018-05-13T11:03:41.000Z</time>
      </trkpt>
      <trkpt lat="43.87479" lon="7.22723">
        <ele>338</ele>
        <time>2018-05-13T11:03:47.000Z</time>
      </trkpt>
      <trkpt lat="43.87478" lon="7.22726">
        <ele>338</ele>
        <time>2018-05-13T11:03:51.000Z</time>
      </trkpt>
      <trkpt lat="43.87474" lon="7.22728">
        <ele>339</ele>
        <time>2018-05-13T11:03:58.000Z</time>
      </trkpt>
      <trkpt lat="43.87474" lon="7.22726">
        <ele>339</ele>
        <time>2018-05-13T11:03:59.000Z</time>
      </trkpt>
      <trkpt lat="43.87474" lon="7.22722">
        <ele>339</ele>
        <time>2018-05-13T11:04:04.000Z</time>
      </trkpt>
      <trkpt lat="43.87473" lon="7.2272">
        <ele>340</ele>
        <time>2018-05-13T11:04:06.000Z</time>
      </trkpt>
      <trkpt lat="43.87473" lon="7.22716">
        <ele>340</ele>
        <time>2018-05-13T11:04:11.000Z</time>
      </trkpt>
      <trkpt lat="43.87471" lon="7.22712">
        <ele>341</ele>
        <time>2018-05-13T11:04:16.000Z</time>
      </trkpt>
      <trkpt lat="43.87471" lon="7.22711">
        <ele>341</ele>
        <time>2018-05-13T11:04:17.000Z</time>
      </trkpt>
      <trkpt lat="43.87468" lon="7.22712">
        <ele>342</ele>
        <time>2018-05-13T11:04:22.000Z</time>
      </trkpt>
      <trkpt lat="43.87468" lon="7.22713">
        <ele>342</ele>
        <time>2018-05-13T11:04:23.000Z</time>
      </trkpt>
      <trkpt lat="43.87467" lon="7.22719">
        <ele>342</ele>
        <time>2018-05-13T11:04:30.000Z</time>
      </trkpt>
      <trkpt lat="43.87466" lon="7.22721">
        <ele>342</ele>
        <time>2018-05-13T11:04:33.000Z</time>
      </trkpt>
      <trkpt lat="43.87464" lon="7.22723">
        <ele>343</ele>
        <time>2018-05-13T11:04:36.000Z</time>
      </trkpt>
      <trkpt lat="43.87462" lon="7.22724">
        <ele>344</ele>
        <time>2018-05-13T11:04:41.000Z</time>
      </trkpt>
      <trkpt lat="43.87461" lon="7.2272">
        <ele>344</ele>
        <time>2018-05-13T11:04:46.000Z</time>
      </trkpt>
      <trkpt lat="43.87461" lon="7.22719">
        <ele>344</ele>
        <time>2018-05-13T11:04:47.000Z</time>
      </trkpt>
      <trkpt lat="43.87461" lon="7.22716">
        <ele>344</ele>
        <time>2018-05-13T11:04:51.000Z</time>
      </trkpt>
      <trkpt lat="43.87461" lon="7.22713">
        <ele>344</ele>
        <time>2018-05-13T11:04:56.000Z</time>
      </trkpt>
      <trkpt lat="43.87461" lon="7.22713">
        <ele>344</ele>
        <time>2018-05-13T11:04:57.000Z</time>
      </trkpt>
      <trkpt lat="43.87459" lon="7.22707">
        <ele>344</ele>
        <time>2018-05-13T11:05:03.000Z</time>
      </trkpt>
      <trkpt lat="43.87459" lon="7.22706">
        <ele>344</ele>
        <time>2018-05-13T11:05:06.000Z</time>
      </trkpt>
      <trkpt lat="43.87459" lon="7.22699">
        <ele>344</ele>
        <time>2018-05-13T11:05:13.000Z</time>
      </trkpt>
      <trkpt lat="43.87459" lon="7.22688">
        <ele>343</ele>
        <time>2018-05-13T11:05:20.000Z</time>
      </trkpt>
      <trkpt lat="43.87459" lon="7.22686">
        <ele>343</ele>
        <time>2018-05-13T11:05:21.000Z</time>
      </trkpt>
      <trkpt lat="43.8746" lon="7.22678">
        <ele>343</ele>
        <time>2018-05-13T11:05:26.000Z</time>
      </trkpt>
      <trkpt lat="43.8746" lon="7.22675">
        <ele>343</ele>
        <time>2018-05-13T11:05:28.000Z</time>
      </trkpt>
      <trkpt lat="43.8746" lon="7.22671">
        <ele>342</ele>
        <time>2018-05-13T11:05:31.000Z</time>
      </trkpt>
      <trkpt lat="43.87461" lon="7.2267">
        <ele>342</ele>
        <time>2018-05-13T11:05:32.000Z</time>
      </trkpt>
      <trkpt lat="43.87461" lon="7.22669">
        <ele>342</ele>
        <time>2018-05-13T11:05:33.000Z</time>
      </trkpt>
      <trkpt lat="43.87461" lon="7.22666">
        <ele>333</ele>
        <time>2018-05-13T11:05:35.000Z</time>
      </trkpt>
      <trkpt lat="43.87461" lon="7.22664">
        <ele>333</ele>
        <time>2018-05-13T11:05:37.000Z</time>
      </trkpt>
      <trkpt lat="43.87461" lon="7.22663">
        <ele>333</ele>
        <time>2018-05-13T11:05:38.000Z</time>
      </trkpt>
      <trkpt lat="43.87461" lon="7.2266">
        <ele>332</ele>
        <time>2018-05-13T11:05:40.000Z</time>
      </trkpt>
      <trkpt lat="43.87461" lon="7.2266">
        <ele>333</ele>
        <time>2018-05-13T11:05:42.000Z</time>
      </trkpt>
      <trkpt lat="43.87461" lon="7.22659">
        <ele>333</ele>
        <time>2018-05-13T11:05:43.000Z</time>
      </trkpt>
      <trkpt lat="43.87461" lon="7.22653">
        <ele>332</ele>
        <time>2018-05-13T11:05:48.000Z</time>
      </trkpt>
      <trkpt lat="43.87461" lon="7.22651">
        <ele>332</ele>
        <time>2018-05-13T11:05:50.000Z</time>
      </trkpt>
      <trkpt lat="43.87457" lon="7.22645">
        <ele>333</ele>
        <time>2018-05-13T11:05:58.000Z</time>
      </trkpt>
      <trkpt lat="43.87456" lon="7.22644">
        <ele>333</ele>
        <time>2018-05-13T11:05:59.000Z</time>
      </trkpt>
      <trkpt lat="43.87454" lon="7.22643">
        <ele>334</ele>
        <time>2018-05-13T11:06:02.000Z</time>
      </trkpt>
      <trkpt lat="43.87453" lon="7.22642">
        <ele>334</ele>
        <time>2018-05-13T11:06:03.000Z</time>
      </trkpt>
      <trkpt lat="43.87452" lon="7.22641">
        <ele>334</ele>
        <time>2018-05-13T11:06:06.000Z</time>
      </trkpt>
      <trkpt lat="43.87451" lon="7.22642">
        <ele>334</ele>
        <time>2018-05-13T11:06:08.000Z</time>
      </trkpt>
      <trkpt lat="43.87449" lon="7.22645">
        <ele>336</ele>
        <time>2018-05-13T11:06:13.000Z</time>
      </trkpt>
      <trkpt lat="43.87449" lon="7.22646">
        <ele>336</ele>
        <time>2018-05-13T11:06:14.000Z</time>
      </trkpt>
      <trkpt lat="43.8745" lon="7.2265">
        <ele>336</ele>
        <time>2018-05-13T11:06:18.000Z</time>
      </trkpt>
      <trkpt lat="43.8745" lon="7.22652">
        <ele>336</ele>
        <time>2018-05-13T11:06:20.000Z</time>
      </trkpt>
      <trkpt lat="43.8745" lon="7.22653">
        <ele>337</ele>
        <time>2018-05-13T11:06:21.000Z</time>
      </trkpt>
      <trkpt lat="43.8745" lon="7.22654">
        <ele>337</ele>
        <time>2018-05-13T11:06:22.000Z</time>
      </trkpt>
      <trkpt lat="43.87448" lon="7.22655">
        <ele>338</ele>
        <time>2018-05-13T11:06:25.000Z</time>
      </trkpt>
      <trkpt lat="43.87447" lon="7.22653">
        <ele>338</ele>
        <time>2018-05-13T11:06:27.000Z</time>
      </trkpt>
      <trkpt lat="43.87446" lon="7.22651">
        <ele>338</ele>
        <time>2018-05-13T11:06:28.000Z</time>
      </trkpt>
      <trkpt lat="43.87443" lon="7.22646">
        <ele>338</ele>
        <time>2018-05-13T11:06:36.000Z</time>
      </trkpt>
      <trkpt lat="43.87438" lon="7.22641">
        <ele>338</ele>
        <time>2018-05-13T11:06:44.000Z</time>
      </trkpt>
      <trkpt lat="43.87434" lon="7.2264">
        <ele>339</ele>
        <time>2018-05-13T11:06:49.000Z</time>
      </trkpt>
      <trkpt lat="43.87433" lon="7.2264">
        <ele>340</ele>
        <time>2018-05-13T11:06:51.000Z</time>
      </trkpt>
      <trkpt lat="43.87428" lon="7.22638">
        <ele>340</ele>
        <time>2018-05-13T11:06:57.000Z</time>
      </trkpt>
      <trkpt lat="43.87429" lon="7.22638">
        <ele>340</ele>
        <time>2018-05-13T11:06:58.000Z</time>
      </trkpt>
      <trkpt lat="43.87424" lon="7.22637">
        <ele>341</ele>
        <time>2018-05-13T11:07:03.000Z</time>
      </trkpt>
      <trkpt lat="43.87423" lon="7.22637">
        <ele>341</ele>
        <time>2018-05-13T11:07:06.000Z</time>
      </trkpt>
      <trkpt lat="43.8742" lon="7.22637">
        <ele>341</ele>
        <time>2018-05-13T11:07:09.000Z</time>
      </trkpt>
      <trkpt lat="43.87415" lon="7.2264">
        <ele>360</ele>
        <time>2018-05-13T11:07:16.000Z</time>
      </trkpt>
      <trkpt lat="43.87411" lon="7.22643">
        <ele>361</ele>
        <time>2018-05-13T11:07:22.000Z</time>
      </trkpt>
      <trkpt lat="43.87411" lon="7.22644">
        <ele>361</ele>
        <time>2018-05-13T11:07:24.000Z</time>
      </trkpt>
      <trkpt lat="43.87406" lon="7.22648">
        <ele>362</ele>
        <time>2018-05-13T11:07:29.000Z</time>
      </trkpt>
      <trkpt lat="43.874" lon="7.22653">
        <ele>362</ele>
        <time>2018-05-13T11:07:33.000Z</time>
      </trkpt>
      <trkpt lat="43.87396" lon="7.22658">
        <ele>363</ele>
        <time>2018-05-13T11:07:37.000Z</time>
      </trkpt>
      <trkpt lat="43.87391" lon="7.22665">
        <ele>364</ele>
        <time>2018-05-13T11:07:41.000Z</time>
      </trkpt>
      <trkpt lat="43.87389" lon="7.22669">
        <ele>379</ele>
        <time>2018-05-13T11:07:44.000Z</time>
      </trkpt>
      <trkpt lat="43.87388" lon="7.2267">
        <ele>379</ele>
        <time>2018-05-13T11:07:45.000Z</time>
      </trkpt>
      <trkpt lat="43.87384" lon="7.22674">
        <ele>380</ele>
        <time>2018-05-13T11:07:48.000Z</time>
      </trkpt>
      <trkpt lat="43.87382" lon="7.22675">
        <ele>381</ele>
        <time>2018-05-13T11:07:50.000Z</time>
      </trkpt>
      <trkpt lat="43.87374" lon="7.22679">
        <ele>383</ele>
        <time>2018-05-13T11:07:56.000Z</time>
      </trkpt>
      <trkpt lat="43.87373" lon="7.22681">
        <ele>383</ele>
        <time>2018-05-13T11:07:58.000Z</time>
      </trkpt>
      <trkpt lat="43.8737" lon="7.2268">
        <ele>384</ele>
        <time>2018-05-13T11:08:01.000Z</time>
      </trkpt>
      <trkpt lat="43.87366" lon="7.22681">
        <ele>384</ele>
        <time>2018-05-13T11:08:05.000Z</time>
      </trkpt>
      <trkpt lat="43.87363" lon="7.22683">
        <ele>385</ele>
        <time>2018-05-13T11:08:08.000Z</time>
      </trkpt>
      <trkpt lat="43.87362" lon="7.22683">
        <ele>385</ele>
        <time>2018-05-13T11:08:11.000Z</time>
      </trkpt>
      <trkpt lat="43.87359" lon="7.22685">
        <ele>385</ele>
        <time>2018-05-13T11:08:17.000Z</time>
      </trkpt>
      <trkpt lat="43.87357" lon="7.22687">
        <ele>386</ele>
        <time>2018-05-13T11:08:19.000Z</time>
      </trkpt>
      <trkpt lat="43.87356" lon="7.22689">
        <ele>386</ele>
        <time>2018-05-13T11:08:21.000Z</time>
      </trkpt>
      <trkpt lat="43.87353" lon="7.22689">
        <ele>386</ele>
        <time>2018-05-13T11:08:25.000Z</time>
      </trkpt>
      <trkpt lat="43.87346" lon="7.22691">
        <ele>387</ele>
        <time>2018-05-13T11:08:34.000Z</time>
      </trkpt>
      <trkpt lat="43.87345" lon="7.22691">
        <ele>387</ele>
        <time>2018-05-13T11:08:35.000Z</time>
      </trkpt>
      <trkpt lat="43.87341" lon="7.22692">
        <ele>388</ele>
        <time>2018-05-13T11:08:41.000Z</time>
      </trkpt>
      <trkpt lat="43.87339" lon="7.22692">
        <ele>388</ele>
        <time>2018-05-13T11:08:43.000Z</time>
      </trkpt>
      <trkpt lat="43.87338" lon="7.22691">
        <ele>388</ele>
        <time>2018-05-13T11:08:46.000Z</time>
      </trkpt>
      <trkpt lat="43.87334" lon="7.22689">
        <ele>387</ele>
        <time>2018-05-13T11:08:51.000Z</time>
      </trkpt>
      <trkpt lat="43.87333" lon="7.22689">
        <ele>407</ele>
        <time>2018-05-13T11:08:52.000Z</time>
      </trkpt>
      <trkpt lat="43.87329" lon="7.22686">
        <ele>406</ele>
        <time>2018-05-13T11:08:58.000Z</time>
      </trkpt>
      <trkpt lat="43.87324" lon="7.22684">
        <ele>406</ele>
        <time>2018-05-13T11:09:03.000Z</time>
      </trkpt>
      <trkpt lat="43.87322" lon="7.22681">
        <ele>405</ele>
        <time>2018-05-13T11:09:06.000Z</time>
      </trkpt>
      <trkpt lat="43.87318" lon="7.22678">
        <ele>406</ele>
        <time>2018-05-13T11:09:10.000Z</time>
      </trkpt>
      <trkpt lat="43.87316" lon="7.22674">
        <ele>406</ele>
        <time>2018-05-13T11:09:15.000Z</time>
      </trkpt>
      <trkpt lat="43.87313" lon="7.22669">
        <ele>407</ele>
        <time>2018-05-13T11:09:19.000Z</time>
      </trkpt>
      <trkpt lat="43.87309" lon="7.22663">
        <ele>393</ele>
        <time>2018-05-13T11:09:22.000Z</time>
      </trkpt>
      <trkpt lat="43.87302" lon="7.2265">
        <ele>396</ele>
        <time>2018-05-13T11:09:30.000Z</time>
      </trkpt>
      <trkpt lat="43.87295" lon="7.22641">
        <ele>397</ele>
        <time>2018-05-13T11:09:36.000Z</time>
      </trkpt>
      <trkpt lat="43.87293" lon="7.22639">
        <ele>397</ele>
        <time>2018-05-13T11:09:37.000Z</time>
      </trkpt>
      <trkpt lat="43.87292" lon="7.22637">
        <ele>397</ele>
        <time>2018-05-13T11:09:38.000Z</time>
      </trkpt>
      <trkpt lat="43.87288" lon="7.2263">
        <ele>398</ele>
        <time>2018-05-13T11:09:42.000Z</time>
      </trkpt>
      <trkpt lat="43.87283" lon="7.22623">
        <ele>398</ele>
        <time>2018-05-13T11:09:46.000Z</time>
      </trkpt>
      <trkpt lat="43.8728" lon="7.22619">
        <ele>398</ele>
        <time>2018-05-13T11:09:49.000Z</time>
      </trkpt>
      <trkpt lat="43.87276" lon="7.22613">
        <ele>398</ele>
        <time>2018-05-13T11:09:54.000Z</time>
      </trkpt>
      <trkpt lat="43.87274" lon="7.22608">
        <ele>398</ele>
        <time>2018-05-13T11:09:57.000Z</time>
      </trkpt>
      <trkpt lat="43.87272" lon="7.22607">
        <ele>399</ele>
        <time>2018-05-13T11:09:58.000Z</time>
      </trkpt>
      <trkpt lat="43.8727" lon="7.22605">
        <ele>399</ele>
        <time>2018-05-13T11:10:00.000Z</time>
      </trkpt>
      <trkpt lat="43.87269" lon="7.22601">
        <ele>399</ele>
        <time>2018-05-13T11:10:04.000Z</time>
      </trkpt>
      <trkpt lat="43.87268" lon="7.226">
        <ele>399</ele>
        <time>2018-05-13T11:10:05.000Z</time>
      </trkpt>
      <trkpt lat="43.87264" lon="7.22589">
        <ele>401</ele>
        <time>2018-05-13T11:10:12.000Z</time>
      </trkpt>
      <trkpt lat="43.87259" lon="7.22581">
        <ele>394</ele>
        <time>2018-05-13T11:10:18.000Z</time>
      </trkpt>
      <trkpt lat="43.87259" lon="7.2258">
        <ele>394</ele>
        <time>2018-05-13T11:10:19.000Z</time>
      </trkpt>
      <trkpt lat="43.87258" lon="7.22578">
        <ele>393</ele>
        <time>2018-05-13T11:10:23.000Z</time>
      </trkpt>
      <trkpt lat="43.87257" lon="7.22576">
        <ele>393</ele>
        <time>2018-05-13T11:10:25.000Z</time>
      </trkpt>
      <trkpt lat="43.87254" lon="7.22573">
        <ele>392</ele>
        <time>2018-05-13T11:10:30.000Z</time>
      </trkpt>
      <trkpt lat="43.87251" lon="7.2257">
        <ele>390</ele>
        <time>2018-05-13T11:10:36.000Z</time>
      </trkpt>
      <trkpt lat="43.8725" lon="7.2257">
        <ele>390</ele>
        <time>2018-05-13T11:10:38.000Z</time>
      </trkpt>
      <trkpt lat="43.87246" lon="7.22567">
        <ele>405</ele>
        <time>2018-05-13T11:10:45.000Z</time>
      </trkpt>
      <trkpt lat="43.87241" lon="7.22561">
        <ele>404</ele>
        <time>2018-05-13T11:10:50.000Z</time>
      </trkpt>
      <trkpt lat="43.8724" lon="7.22558">
        <ele>404</ele>
        <time>2018-05-13T11:10:52.000Z</time>
      </trkpt>
      <trkpt lat="43.87239" lon="7.22558">
        <ele>403</ele>
        <time>2018-05-13T11:10:53.000Z</time>
      </trkpt>
      <trkpt lat="43.87233" lon="7.22551">
        <ele>403</ele>
        <time>2018-05-13T11:10:59.000Z</time>
      </trkpt>
      <trkpt lat="43.87225" lon="7.22544">
        <ele>402</ele>
        <time>2018-05-13T11:11:06.000Z</time>
      </trkpt>
      <trkpt lat="43.87223" lon="7.22544">
        <ele>402</ele>
        <time>2018-05-13T11:11:07.000Z</time>
      </trkpt>
      <trkpt lat="43.87221" lon="7.2254">
        <ele>402</ele>
        <time>2018-05-13T11:11:11.000Z</time>
      </trkpt>
      <trkpt lat="43.8722" lon="7.22539">
        <ele>402</ele>
        <time>2018-05-13T11:11:12.000Z</time>
      </trkpt>
      <trkpt lat="43.87218" lon="7.22532">
        <ele>400</ele>
        <time>2018-05-13T11:11:16.000Z</time>
      </trkpt>
      <trkpt lat="43.87217" lon="7.22532">
        <ele>401</ele>
        <time>2018-05-13T11:11:17.000Z</time>
      </trkpt>
      <trkpt lat="43.87216" lon="7.22528">
        <ele>400</ele>
        <time>2018-05-13T11:11:22.000Z</time>
      </trkpt>
      <trkpt lat="43.87213" lon="7.22523">
        <ele>400</ele>
        <time>2018-05-13T11:11:28.000Z</time>
      </trkpt>
      <trkpt lat="43.87212" lon="7.22523">
        <ele>400</ele>
        <time>2018-05-13T11:11:29.000Z</time>
      </trkpt>
      <trkpt lat="43.87209" lon="7.2252">
        <ele>400</ele>
        <time>2018-05-13T11:11:34.000Z</time>
      </trkpt>
      <trkpt lat="43.87207" lon="7.22517">
        <ele>400</ele>
        <time>2018-05-13T11:11:38.000Z</time>
      </trkpt>
      <trkpt lat="43.87206" lon="7.22516">
        <ele>400</ele>
        <time>2018-05-13T11:11:39.000Z</time>
      </trkpt>
      <trkpt lat="43.87202" lon="7.22512">
        <ele>400</ele>
        <time>2018-05-13T11:11:44.000Z</time>
      </trkpt>
      <trkpt lat="43.872" lon="7.22509">
        <ele>400</ele>
        <time>2018-05-13T11:11:47.000Z</time>
      </trkpt>
      <trkpt lat="43.87197" lon="7.22506">
        <ele>400</ele>
        <time>2018-05-13T11:11:51.000Z</time>
      </trkpt>
      <trkpt lat="43.87196" lon="7.22507">
        <ele>400</ele>
        <time>2018-05-13T11:11:54.000Z</time>
      </trkpt>
      <trkpt lat="43.87193" lon="7.22512">
        <ele>401</ele>
        <time>2018-05-13T11:11:59.000Z</time>
      </trkpt>
      <trkpt lat="43.87193" lon="7.22514">
        <ele>401</ele>
        <time>2018-05-13T11:12:01.000Z</time>
      </trkpt>
      <trkpt lat="43.87192" lon="7.22517">
        <ele>402</ele>
        <time>2018-05-13T11:12:07.000Z</time>
      </trkpt>
      <trkpt lat="43.87191" lon="7.22519">
        <ele>402</ele>
        <time>2018-05-13T11:12:08.000Z</time>
      </trkpt>
      <trkpt lat="43.8719" lon="7.22524">
        <ele>403</ele>
        <time>2018-05-13T11:12:11.000Z</time>
      </trkpt>
      <trkpt lat="43.87187" lon="7.22529">
        <ele>404</ele>
        <time>2018-05-13T11:12:14.000Z</time>
      </trkpt>
      <trkpt lat="43.87184" lon="7.22532">
        <ele>405</ele>
        <time>2018-05-13T11:12:17.000Z</time>
      </trkpt>
      <trkpt lat="43.87181" lon="7.22532">
        <ele>405</ele>
        <time>2018-05-13T11:12:20.000Z</time>
      </trkpt>
      <trkpt lat="43.87179" lon="7.22535">
        <ele>406</ele>
        <time>2018-05-13T11:12:22.000Z</time>
      </trkpt>
      <trkpt lat="43.8717" lon="7.22544">
        <ele>409</ele>
        <time>2018-05-13T11:12:29.000Z</time>
      </trkpt>
      <trkpt lat="43.87167" lon="7.22547">
        <ele>410</ele>
        <time>2018-05-13T11:12:32.000Z</time>
      </trkpt>
      <trkpt lat="43.8716" lon="7.22551">
        <ele>417</ele>
        <time>2018-05-13T11:12:37.000Z</time>
      </trkpt>
      <trkpt lat="43.87157" lon="7.22553">
        <ele>417</ele>
        <time>2018-05-13T11:12:39.000Z</time>
      </trkpt>
      <trkpt lat="43.87152" lon="7.22557">
        <ele>418</ele>
        <time>2018-05-13T11:12:43.000Z</time>
      </trkpt>
      <trkpt lat="43.87147" lon="7.22562">
        <ele>419</ele>
        <time>2018-05-13T11:12:47.000Z</time>
      </trkpt>
      <trkpt lat="43.87144" lon="7.22565">
        <ele>419</ele>
        <time>2018-05-13T11:12:50.000Z</time>
      </trkpt>
      <trkpt lat="43.87138" lon="7.22576">
        <ele>420</ele>
        <time>2018-05-13T11:12:55.000Z</time>
      </trkpt>
      <trkpt lat="43.87129" lon="7.22586">
        <ele>437</ele>
        <time>2018-05-13T11:13:00.000Z</time>
      </trkpt>
      <trkpt lat="43.8712" lon="7.226">
        <ele>437</ele>
        <time>2018-05-13T11:13:07.000Z</time>
      </trkpt>
      <trkpt lat="43.87118" lon="7.22602">
        <ele>437</ele>
        <time>2018-05-13T11:13:08.000Z</time>
      </trkpt>
      <trkpt lat="43.87108" lon="7.22617">
        <ele>439</ele>
        <time>2018-05-13T11:13:14.000Z</time>
      </trkpt>
      <trkpt lat="43.871" lon="7.22638">
        <ele>442</ele>
        <time>2018-05-13T11:13:20.000Z</time>
      </trkpt>
      <trkpt lat="43.87095" lon="7.22652">
        <ele>444</ele>
        <time>2018-05-13T11:13:24.000Z</time>
      </trkpt>
      <trkpt lat="43.87089" lon="7.22658">
        <ele>445</ele>
        <time>2018-05-13T11:13:27.000Z</time>
      </trkpt>
      <trkpt lat="43.87083" lon="7.22651">
        <ele>446</ele>
        <time>2018-05-13T11:13:30.000Z</time>
      </trkpt>
      <trkpt lat="43.87081" lon="7.22648">
        <ele>446</ele>
        <time>2018-05-13T11:13:31.000Z</time>
      </trkpt>
      <trkpt lat="43.87076" lon="7.2264">
        <ele>445</ele>
        <time>2018-05-13T11:13:34.000Z</time>
      </trkpt>
      <trkpt lat="43.87075" lon="7.22637">
        <ele>445</ele>
        <time>2018-05-13T11:13:35.000Z</time>
      </trkpt>
      <trkpt lat="43.87073" lon="7.22632">
        <ele>444</ele>
        <time>2018-05-13T11:13:37.000Z</time>
      </trkpt>
      <trkpt lat="43.87067" lon="7.22621">
        <ele>443</ele>
        <time>2018-05-13T11:13:42.000Z</time>
      </trkpt>
      <trkpt lat="43.87065" lon="7.22618">
        <ele>442</ele>
        <time>2018-05-13T11:13:44.000Z</time>
      </trkpt>
      <trkpt lat="43.87062" lon="7.2261">
        <ele>441</ele>
        <time>2018-05-13T11:13:48.000Z</time>
      </trkpt>
      <trkpt lat="43.87061" lon="7.22608">
        <ele>441</ele>
        <time>2018-05-13T11:13:49.000Z</time>
      </trkpt>
      <trkpt lat="43.87057" lon="7.22601">
        <ele>440</ele>
        <time>2018-05-13T11:13:53.000Z</time>
      </trkpt>
      <trkpt lat="43.87055" lon="7.22598">
        <ele>440</ele>
        <time>2018-05-13T11:13:55.000Z</time>
      </trkpt>
      <trkpt lat="43.87054" lon="7.22598">
        <ele>440</ele>
        <time>2018-05-13T11:13:56.000Z</time>
      </trkpt>
      <trkpt lat="43.87048" lon="7.22595">
        <ele>441</ele>
        <time>2018-05-13T11:14:01.000Z</time>
      </trkpt>
      <trkpt lat="43.87043" lon="7.2259">
        <ele>442</ele>
        <time>2018-05-13T11:14:06.000Z</time>
      </trkpt>
      <trkpt lat="43.87043" lon="7.22589">
        <ele>442</ele>
        <time>2018-05-13T11:14:07.000Z</time>
      </trkpt>
      <trkpt lat="43.87042" lon="7.22588">
        <ele>442</ele>
        <time>2018-05-13T11:14:08.000Z</time>
      </trkpt>
      <trkpt lat="43.8704" lon="7.22586">
        <ele>442</ele>
        <time>2018-05-13T11:14:10.000Z</time>
      </trkpt>
      <trkpt lat="43.87036" lon="7.22584">
        <ele>442</ele>
        <time>2018-05-13T11:14:14.000Z</time>
      </trkpt>
      <trkpt lat="43.87034" lon="7.22583">
        <ele>425</ele>
        <time>2018-05-13T11:14:16.000Z</time>
      </trkpt>
      <trkpt lat="43.87029" lon="7.22581">
        <ele>426</ele>
        <time>2018-05-13T11:14:21.000Z</time>
      </trkpt>
      <trkpt lat="43.87027" lon="7.22581">
        <ele>426</ele>
        <time>2018-05-13T11:14:23.000Z</time>
      </trkpt>
      <trkpt lat="43.87022" lon="7.22581">
        <ele>428</ele>
        <time>2018-05-13T11:14:28.000Z</time>
      </trkpt>
      <trkpt lat="43.87021" lon="7.22581">
        <ele>428</ele>
        <time>2018-05-13T11:14:29.000Z</time>
      </trkpt>
      <trkpt lat="43.87019" lon="7.2258">
        <ele>429</ele>
        <time>2018-05-13T11:14:31.000Z</time>
      </trkpt>
      <trkpt lat="43.87015" lon="7.22579">
        <ele>430</ele>
        <time>2018-05-13T11:14:35.000Z</time>
      </trkpt>
      <trkpt lat="43.87007" lon="7.22582">
        <ele>435</ele>
        <time>2018-05-13T11:14:42.000Z</time>
      </trkpt>
      <trkpt lat="43.87001" lon="7.22584">
        <ele>441</ele>
        <time>2018-05-13T11:14:47.000Z</time>
      </trkpt>
      <trkpt lat="43.86999" lon="7.22584">
        <ele>442</ele>
        <time>2018-05-13T11:14:48.000Z</time>
      </trkpt>
      <trkpt lat="43.86998" lon="7.22584">
        <ele>442</ele>
        <time>2018-05-13T11:14:49.000Z</time>
      </trkpt>
      <trkpt lat="43.86997" lon="7.22585">
        <ele>443</ele>
        <time>2018-05-13T11:14:52.000Z</time>
      </trkpt>
      <trkpt lat="43.86998" lon="7.22586">
        <ele>443</ele>
        <time>2018-05-13T11:14:53.000Z</time>
      </trkpt>
      <trkpt lat="43.86998" lon="7.22587">
        <ele>443</ele>
        <time>2018-05-13T11:14:58.000Z</time>
      </trkpt>
      <trkpt lat="43.86999" lon="7.22587">
        <ele>443</ele>
        <time>2018-05-13T11:15:00.000Z</time>
      </trkpt>
      <trkpt lat="43.87002" lon="7.22589">
        <ele>442</ele>
        <time>2018-05-13T11:15:04.000Z</time>
      </trkpt>
      <trkpt lat="43.87005" lon="7.22589">
        <ele>443</ele>
        <time>2018-05-13T11:15:06.000Z</time>
      </trkpt>
      <trkpt lat="43.87006" lon="7.2259">
        <ele>443</ele>
        <time>2018-05-13T11:15:07.000Z</time>
      </trkpt>
      <trkpt lat="43.87006" lon="7.22591">
        <ele>443</ele>
        <time>2018-05-13T11:15:08.000Z</time>
      </trkpt>
      <trkpt lat="43.87006" lon="7.22591">
        <ele>443</ele>
        <time>2018-05-13T11:15:12.000Z</time>
      </trkpt>
      <trkpt lat="43.87007" lon="7.22592">
        <ele>443</ele>
        <time>2018-05-13T11:15:15.000Z</time>
      </trkpt>
      <trkpt lat="43.87009" lon="7.22596">
        <ele>444</ele>
        <time>2018-05-13T11:15:18.000Z</time>
      </trkpt>
      <trkpt lat="43.87009" lon="7.22598">
        <ele>444</ele>
        <time>2018-05-13T11:15:20.000Z</time>
      </trkpt>
      <trkpt lat="43.87011" lon="7.22602">
        <ele>445</ele>
        <time>2018-05-13T11:15:23.000Z</time>
      </trkpt>
      <trkpt lat="43.87014" lon="7.22606">
        <ele>446</ele>
        <time>2018-05-13T11:15:27.000Z</time>
      </trkpt>
      <trkpt lat="43.87017" lon="7.2261">
        <ele>446</ele>
        <time>2018-05-13T11:15:31.000Z</time>
      </trkpt>
      <trkpt lat="43.87018" lon="7.22614">
        <ele>447</ele>
        <time>2018-05-13T11:15:34.000Z</time>
      </trkpt>
      <trkpt lat="43.87018" lon="7.22617">
        <ele>448</ele>
        <time>2018-05-13T11:15:36.000Z</time>
      </trkpt>
      <trkpt lat="43.87019" lon="7.22621">
        <ele>448</ele>
        <time>2018-05-13T11:15:39.000Z</time>
      </trkpt>
      <trkpt lat="43.87018" lon="7.22623">
        <ele>449</ele>
        <time>2018-05-13T11:15:43.000Z</time>
      </trkpt>
      <trkpt lat="43.87016" lon="7.22622">
        <ele>449</ele>
        <time>2018-05-13T11:15:45.000Z</time>
      </trkpt>
      <trkpt lat="43.87015" lon="7.2262">
        <ele>448</ele>
        <time>2018-05-13T11:15:47.000Z</time>
      </trkpt>
      <trkpt lat="43.87013" lon="7.22617">
        <ele>448</ele>
        <time>2018-05-13T11:15:50.000Z</time>
      </trkpt>
      <trkpt lat="43.87011" lon="7.22617">
        <ele>448</ele>
        <time>2018-05-13T11:15:54.000Z</time>
      </trkpt>
      <trkpt lat="43.87009" lon="7.22616">
        <ele>448</ele>
        <time>2018-05-13T11:15:58.000Z</time>
      </trkpt>
      <trkpt lat="43.87008" lon="7.22616">
        <ele>448</ele>
        <time>2018-05-13T11:15:59.000Z</time>
      </trkpt>
      <trkpt lat="43.87003" lon="7.22614">
        <ele>447</ele>
        <time>2018-05-13T11:16:06.000Z</time>
      </trkpt>
      <trkpt lat="43.87002" lon="7.22613">
        <ele>447</ele>
        <time>2018-05-13T11:16:07.000Z</time>
      </trkpt>
      <trkpt lat="43.86999" lon="7.22611">
        <ele>452</ele>
        <time>2018-05-13T11:16:14.000Z</time>
      </trkpt>
      <trkpt lat="43.86998" lon="7.22611">
        <ele>452</ele>
        <time>2018-05-13T11:16:15.000Z</time>
      </trkpt>
      <trkpt lat="43.86993" lon="7.22612">
        <ele>452</ele>
        <time>2018-05-13T11:16:22.000Z</time>
      </trkpt>
      <trkpt lat="43.86991" lon="7.22613">
        <ele>452</ele>
        <time>2018-05-13T11:16:25.000Z</time>
      </trkpt>
      <trkpt lat="43.86987" lon="7.22614">
        <ele>453</ele>
        <time>2018-05-13T11:16:30.000Z</time>
      </trkpt>
      <trkpt lat="43.86986" lon="7.22615">
        <ele>453</ele>
        <time>2018-05-13T11:16:32.000Z</time>
      </trkpt>
      <trkpt lat="43.86984" lon="7.22615">
        <ele>453</ele>
        <time>2018-05-13T11:16:36.000Z</time>
      </trkpt>
      <trkpt lat="43.86982" lon="7.22616">
        <ele>454</ele>
        <time>2018-05-13T11:16:38.000Z</time>
      </trkpt>
      <trkpt lat="43.86981" lon="7.22617">
        <ele>454</ele>
        <time>2018-05-13T11:16:39.000Z</time>
      </trkpt>
      <trkpt lat="43.86978" lon="7.22618">
        <ele>454</ele>
        <time>2018-05-13T11:16:43.000Z</time>
      </trkpt>
      <trkpt lat="43.86975" lon="7.22619">
        <ele>454</ele>
        <time>2018-05-13T11:16:47.000Z</time>
      </trkpt>
      <trkpt lat="43.86973" lon="7.2262">
        <ele>454</ele>
        <time>2018-05-13T11:16:50.000Z</time>
      </trkpt>
      <trkpt lat="43.86969" lon="7.22622">
        <ele>455</ele>
        <time>2018-05-13T11:16:56.000Z</time>
      </trkpt>
      <trkpt lat="43.86969" lon="7.22622">
        <ele>455</ele>
        <time>2018-05-13T11:16:57.000Z</time>
      </trkpt>
      <trkpt lat="43.86965" lon="7.22624">
        <ele>455</ele>
        <time>2018-05-13T11:17:03.000Z</time>
      </trkpt>
      <trkpt lat="43.86963" lon="7.22626">
        <ele>456</ele>
        <time>2018-05-13T11:17:06.000Z</time>
      </trkpt>
      <trkpt lat="43.86959" lon="7.22627">
        <ele>456</ele>
        <time>2018-05-13T11:17:11.000Z</time>
      </trkpt>
      <trkpt lat="43.86956" lon="7.22629">
        <ele>456</ele>
        <time>2018-05-13T11:17:14.000Z</time>
      </trkpt>
      <trkpt lat="43.86953" lon="7.22629">
        <ele>456</ele>
        <time>2018-05-13T11:17:17.000Z</time>
      </trkpt>
      <trkpt lat="43.86949" lon="7.22631">
        <ele>456</ele>
        <time>2018-05-13T11:17:22.000Z</time>
      </trkpt>
      <trkpt lat="43.86946" lon="7.22632">
        <ele>457</ele>
        <time>2018-05-13T11:17:26.000Z</time>
      </trkpt>
      <trkpt lat="43.86944" lon="7.22634">
        <ele>457</ele>
        <time>2018-05-13T11:17:29.000Z</time>
      </trkpt>
      <trkpt lat="43.86942" lon="7.22635">
        <ele>457</ele>
        <time>2018-05-13T11:17:31.000Z</time>
      </trkpt>
      <trkpt lat="43.86941" lon="7.22635">
        <ele>457</ele>
        <time>2018-05-13T11:17:32.000Z</time>
      </trkpt>
      <trkpt lat="43.86937" lon="7.22638">
        <ele>458</ele>
        <time>2018-05-13T11:17:36.000Z</time>
      </trkpt>
      <trkpt lat="43.86934" lon="7.22641">
        <ele>459</ele>
        <time>2018-05-13T11:17:40.000Z</time>
      </trkpt>
      <trkpt lat="43.86934" lon="7.22642">
        <ele>459</ele>
        <time>2018-05-13T11:17:41.000Z</time>
      </trkpt>
      <trkpt lat="43.86929" lon="7.22647">
        <ele>461</ele>
        <time>2018-05-13T11:17:47.000Z</time>
      </trkpt>
      <trkpt lat="43.86928" lon="7.22648">
        <ele>461</ele>
        <time>2018-05-13T11:17:48.000Z</time>
      </trkpt>
      <trkpt lat="43.86928" lon="7.22648">
        <ele>462</ele>
        <time>2018-05-13T11:17:50.000Z</time>
      </trkpt>
      <trkpt lat="43.86926" lon="7.2265">
        <ele>462</ele>
        <time>2018-05-13T11:17:52.000Z</time>
      </trkpt>
      <trkpt lat="43.86923" lon="7.22651">
        <ele>463</ele>
        <time>2018-05-13T11:17:54.000Z</time>
      </trkpt>
      <trkpt lat="43.86922" lon="7.22652">
        <ele>463</ele>
        <time>2018-05-13T11:17:55.000Z</time>
      </trkpt>
      <trkpt lat="43.86918" lon="7.22657">
        <ele>466</ele>
        <time>2018-05-13T11:17:59.000Z</time>
      </trkpt>
      <trkpt lat="43.86916" lon="7.22661">
        <ele>468</ele>
        <time>2018-05-13T11:18:02.000Z</time>
      </trkpt>
      <trkpt lat="43.86916" lon="7.22662">
        <ele>468</ele>
        <time>2018-05-13T11:18:03.000Z</time>
      </trkpt>
      <trkpt lat="43.86914" lon="7.22664">
        <ele>469</ele>
        <time>2018-05-13T11:18:07.000Z</time>
      </trkpt>
      <trkpt lat="43.86913" lon="7.22665">
        <ele>469</ele>
        <time>2018-05-13T11:18:08.000Z</time>
      </trkpt>
      <trkpt lat="43.8691" lon="7.22669">
        <ele>473</ele>
        <time>2018-05-13T11:18:13.000Z</time>
      </trkpt>
      <trkpt lat="43.86907" lon="7.22675">
        <ele>474</ele>
        <time>2018-05-13T11:18:19.000Z</time>
      </trkpt>
      <trkpt lat="43.86907" lon="7.22675">
        <ele>474</ele>
        <time>2018-05-13T11:18:20.000Z</time>
      </trkpt>
      <trkpt lat="43.86904" lon="7.22679">
        <ele>475</ele>
        <time>2018-05-13T11:18:25.000Z</time>
      </trkpt>
      <trkpt lat="43.86902" lon="7.2268">
        <ele>475</ele>
        <time>2018-05-13T11:18:27.000Z</time>
      </trkpt>
      <trkpt lat="43.86899" lon="7.22684">
        <ele>476</ele>
        <time>2018-05-13T11:18:32.000Z</time>
      </trkpt>
      <trkpt lat="43.86897" lon="7.22685">
        <ele>476</ele>
        <time>2018-05-13T11:18:35.000Z</time>
      </trkpt>
      <trkpt lat="43.86892" lon="7.22688">
        <ele>477</ele>
        <time>2018-05-13T11:18:41.000Z</time>
      </trkpt>
      <trkpt lat="43.86891" lon="7.22689">
        <ele>477</ele>
        <time>2018-05-13T11:18:42.000Z</time>
      </trkpt>
      <trkpt lat="43.86889" lon="7.2269">
        <ele>477</ele>
        <time>2018-05-13T11:18:48.000Z</time>
      </trkpt>
      <trkpt lat="43.86887" lon="7.22692">
        <ele>477</ele>
        <time>2018-05-13T11:18:50.000Z</time>
      </trkpt>
      <trkpt lat="43.86883" lon="7.22695">
        <ele>477</ele>
        <time>2018-05-13T11:18:54.000Z</time>
      </trkpt>
      <trkpt lat="43.86875" lon="7.22701">
        <ele>478</ele>
        <time>2018-05-13T11:19:00.000Z</time>
      </trkpt>
      <trkpt lat="43.86867" lon="7.22709">
        <ele>478</ele>
        <time>2018-05-13T11:19:06.000Z</time>
      </trkpt>
      <trkpt lat="43.86866" lon="7.22712">
        <ele>478</ele>
        <time>2018-05-13T11:19:08.000Z</time>
      </trkpt>
      <trkpt lat="43.86863" lon="7.22718">
        <ele>479</ele>
        <time>2018-05-13T11:19:12.000Z</time>
      </trkpt>
      <trkpt lat="43.86863" lon="7.22725">
        <ele>480</ele>
        <time>2018-05-13T11:19:16.000Z</time>
      </trkpt>
      <trkpt lat="43.86863" lon="7.22727">
        <ele>480</ele>
        <time>2018-05-13T11:19:17.000Z</time>
      </trkpt>
      <trkpt lat="43.86864" lon="7.2274">
        <ele>481</ele>
        <time>2018-05-13T11:19:24.000Z</time>
      </trkpt>
      <trkpt lat="43.86863" lon="7.22743">
        <ele>481</ele>
        <time>2018-05-13T11:19:26.000Z</time>
      </trkpt>
      <trkpt lat="43.8686" lon="7.22748">
        <ele>481</ele>
        <time>2018-05-13T11:19:29.000Z</time>
      </trkpt>
      <trkpt lat="43.86858" lon="7.2275">
        <ele>481</ele>
        <time>2018-05-13T11:19:31.000Z</time>
      </trkpt>
      <trkpt lat="43.86856" lon="7.2275">
        <ele>494</ele>
        <time>2018-05-13T11:19:33.000Z</time>
      </trkpt>
      <trkpt lat="43.86846" lon="7.22755">
        <ele>491</ele>
        <time>2018-05-13T11:19:40.000Z</time>
      </trkpt>
      <trkpt lat="43.86845" lon="7.22756">
        <ele>490</ele>
        <time>2018-05-13T11:19:41.000Z</time>
      </trkpt>
      <trkpt lat="43.86842" lon="7.22759">
        <ele>490</ele>
        <time>2018-05-13T11:19:44.000Z</time>
      </trkpt>
      <trkpt lat="43.86841" lon="7.2276">
        <ele>490</ele>
        <time>2018-05-13T11:19:45.000Z</time>
      </trkpt>
      <trkpt lat="43.8684" lon="7.22762">
        <ele>491</ele>
        <time>2018-05-13T11:19:47.000Z</time>
      </trkpt>
      <trkpt lat="43.86838" lon="7.22762">
        <ele>491</ele>
        <time>2018-05-13T11:19:48.000Z</time>
      </trkpt>
      <trkpt lat="43.86836" lon="7.22764">
        <ele>491</ele>
        <time>2018-05-13T11:19:50.000Z</time>
      </trkpt>
      <trkpt lat="43.86835" lon="7.22766">
        <ele>492</ele>
        <time>2018-05-13T11:19:52.000Z</time>
      </trkpt>
      <trkpt lat="43.86834" lon="7.22767">
        <ele>492</ele>
        <time>2018-05-13T11:19:55.000Z</time>
      </trkpt>
      <trkpt lat="43.86832" lon="7.22769">
        <ele>489</ele>
        <time>2018-05-13T11:19:57.000Z</time>
      </trkpt>
      <trkpt lat="43.86829" lon="7.22777">
        <ele>492</ele>
        <time>2018-05-13T11:20:03.000Z</time>
      </trkpt>
      <trkpt lat="43.86826" lon="7.22785">
        <ele>494</ele>
        <time>2018-05-13T11:20:08.000Z</time>
      </trkpt>
      <trkpt lat="43.86826" lon="7.22788">
        <ele>495</ele>
        <time>2018-05-13T11:20:10.000Z</time>
      </trkpt>
      <trkpt lat="43.86823" lon="7.22795">
        <ele>497</ele>
        <time>2018-05-13T11:20:15.000Z</time>
      </trkpt>
      <trkpt lat="43.86819" lon="7.22802">
        <ele>499</ele>
        <time>2018-05-13T11:20:21.000Z</time>
      </trkpt>
      <trkpt lat="43.86815" lon="7.22811">
        <ele>500</ele>
        <time>2018-05-13T11:20:27.000Z</time>
      </trkpt>
      <trkpt lat="43.86811" lon="7.22814">
        <ele>500</ele>
        <time>2018-05-13T11:20:31.000Z</time>
      </trkpt>
      <trkpt lat="43.86809" lon="7.22815">
        <ele>500</ele>
        <time>2018-05-13T11:20:33.000Z</time>
      </trkpt>
      <trkpt lat="43.86805" lon="7.22818">
        <ele>501</ele>
        <time>2018-05-13T11:20:38.000Z</time>
      </trkpt>
      <trkpt lat="43.86803" lon="7.22819">
        <ele>501</ele>
        <time>2018-05-13T11:20:40.000Z</time>
      </trkpt>
      <trkpt lat="43.86801" lon="7.22821">
        <ele>501</ele>
        <time>2018-05-13T11:20:46.000Z</time>
      </trkpt>
      <trkpt lat="43.86799" lon="7.22822">
        <ele>501</ele>
        <time>2018-05-13T11:20:49.000Z</time>
      </trkpt>
      <trkpt lat="43.86795" lon="7.22824">
        <ele>501</ele>
        <time>2018-05-13T11:20:54.000Z</time>
      </trkpt>
      <trkpt lat="43.86795" lon="7.22825">
        <ele>501</ele>
        <time>2018-05-13T11:20:55.000Z</time>
      </trkpt>
      <trkpt lat="43.8679" lon="7.22827">
        <ele>501</ele>
        <time>2018-05-13T11:21:00.000Z</time>
      </trkpt>
      <trkpt lat="43.86788" lon="7.22827">
        <ele>501</ele>
        <time>2018-05-13T11:21:03.000Z</time>
      </trkpt>
      <trkpt lat="43.86787" lon="7.22828">
        <ele>501</ele>
        <time>2018-05-13T11:21:05.000Z</time>
      </trkpt>
      <trkpt lat="43.86786" lon="7.22829">
        <ele>501</ele>
        <time>2018-05-13T11:21:09.000Z</time>
      </trkpt>
      <trkpt lat="43.86785" lon="7.2283">
        <ele>501</ele>
        <time>2018-05-13T11:21:10.000Z</time>
      </trkpt>
      <trkpt lat="43.86783" lon="7.22829">
        <ele>501</ele>
        <time>2018-05-13T11:21:13.000Z</time>
      </trkpt>
      <trkpt lat="43.86782" lon="7.22829">
        <ele>501</ele>
        <time>2018-05-13T11:21:14.000Z</time>
      </trkpt>
      <trkpt lat="43.86781" lon="7.2283">
        <ele>502</ele>
        <time>2018-05-13T11:21:17.000Z</time>
      </trkpt>
      <trkpt lat="43.86779" lon="7.22831">
        <ele>502</ele>
        <time>2018-05-13T11:21:21.000Z</time>
      </trkpt>
      <trkpt lat="43.86778" lon="7.22831">
        <ele>502</ele>
        <time>2018-05-13T11:21:22.000Z</time>
      </trkpt>
      <trkpt lat="43.86774" lon="7.22831">
        <ele>502</ele>
        <time>2018-05-13T11:21:27.000Z</time>
      </trkpt>
      <trkpt lat="43.86771" lon="7.22834">
        <ele>518</ele>
        <time>2018-05-13T11:21:33.000Z</time>
      </trkpt>
      <trkpt lat="43.86769" lon="7.22834">
        <ele>517</ele>
        <time>2018-05-13T11:21:36.000Z</time>
      </trkpt>
      <trkpt lat="43.86766" lon="7.22835">
        <ele>517</ele>
        <time>2018-05-13T11:21:39.000Z</time>
      </trkpt>
      <trkpt lat="43.86763" lon="7.22836">
        <ele>516</ele>
        <time>2018-05-13T11:21:42.000Z</time>
      </trkpt>
      <trkpt lat="43.86761" lon="7.22837">
        <ele>515</ele>
        <time>2018-05-13T11:21:47.000Z</time>
      </trkpt>
      <trkpt lat="43.86759" lon="7.22839">
        <ele>515</ele>
        <time>2018-05-13T11:21:50.000Z</time>
      </trkpt>
      <trkpt lat="43.86756" lon="7.22841">
        <ele>514</ele>
        <time>2018-05-13T11:21:55.000Z</time>
      </trkpt>
      <trkpt lat="43.86755" lon="7.22841">
        <ele>514</ele>
        <time>2018-05-13T11:21:57.000Z</time>
      </trkpt>
      <trkpt lat="43.86751" lon="7.22842">
        <ele>514</ele>
        <time>2018-05-13T11:22:03.000Z</time>
      </trkpt>
      <trkpt lat="43.86745" lon="7.22845">
        <ele>514</ele>
        <time>2018-05-13T11:22:07.000Z</time>
      </trkpt>
      <trkpt lat="43.86742" lon="7.22846">
        <ele>515</ele>
        <time>2018-05-13T11:22:09.000Z</time>
      </trkpt>
      <trkpt lat="43.86732" lon="7.2285">
        <ele>518</ele>
        <time>2018-05-13T11:22:16.000Z</time>
      </trkpt>
      <trkpt lat="43.86731" lon="7.22851">
        <ele>518</ele>
        <time>2018-05-13T11:22:17.000Z</time>
      </trkpt>
      <trkpt lat="43.86726" lon="7.22853">
        <ele>519</ele>
        <time>2018-05-13T11:22:20.000Z</time>
      </trkpt>
      <trkpt lat="43.86724" lon="7.22855">
        <ele>520</ele>
        <time>2018-05-13T11:22:22.000Z</time>
      </trkpt>
      <trkpt lat="43.86721" lon="7.22857">
        <ele>520</ele>
        <time>2018-05-13T11:22:26.000Z</time>
      </trkpt>
      <trkpt lat="43.8672" lon="7.22858">
        <ele>520</ele>
        <time>2018-05-13T11:22:28.000Z</time>
      </trkpt>
      <trkpt lat="43.86715" lon="7.22858">
        <ele>520</ele>
        <time>2018-05-13T11:22:33.000Z</time>
      </trkpt>
      <trkpt lat="43.86713" lon="7.22859">
        <ele>521</ele>
        <time>2018-05-13T11:22:34.000Z</time>
      </trkpt>
      <trkpt lat="43.86712" lon="7.22861">
        <ele>521</ele>
        <time>2018-05-13T11:22:35.000Z</time>
      </trkpt>
      <trkpt lat="43.86713" lon="7.22864">
        <ele>521</ele>
        <time>2018-05-13T11:22:37.000Z</time>
      </trkpt>
      <trkpt lat="43.86715" lon="7.22868">
        <ele>522</ele>
        <time>2018-05-13T11:22:43.000Z</time>
      </trkpt>
      <trkpt lat="43.86715" lon="7.22871">
        <ele>523</ele>
        <time>2018-05-13T11:22:47.000Z</time>
      </trkpt>
      <trkpt lat="43.86714" lon="7.22876">
        <ele>524</ele>
        <time>2018-05-13T11:22:50.000Z</time>
      </trkpt>
      <trkpt lat="43.86712" lon="7.22881">
        <ele>524</ele>
        <time>2018-05-13T11:22:54.000Z</time>
      </trkpt>
      <trkpt lat="43.8671" lon="7.22886">
        <ele>525</ele>
        <time>2018-05-13T11:23:00.000Z</time>
      </trkpt>
      <trkpt lat="43.86707" lon="7.22889">
        <ele>525</ele>
        <time>2018-05-13T11:23:06.000Z</time>
      </trkpt>
      <trkpt lat="43.86707" lon="7.22891">
        <ele>526</ele>
        <time>2018-05-13T11:23:09.000Z</time>
      </trkpt>
      <trkpt lat="43.86707" lon="7.22894">
        <ele>526</ele>
        <time>2018-05-13T11:23:12.000Z</time>
      </trkpt>
      <trkpt lat="43.86708" lon="7.22895">
        <ele>526</ele>
        <time>2018-05-13T11:23:19.000Z</time>
      </trkpt>
      <trkpt lat="43.86707" lon="7.22897">
        <ele>527</ele>
        <time>2018-05-13T11:23:28.000Z</time>
      </trkpt>
      <trkpt lat="43.86705" lon="7.22898">
        <ele>527</ele>
        <time>2018-05-13T11:23:30.000Z</time>
      </trkpt>
      <trkpt lat="43.86703" lon="7.22898">
        <ele>527</ele>
        <time>2018-05-13T11:23:33.000Z</time>
      </trkpt>
      <trkpt lat="43.86701" lon="7.22899">
        <ele>527</ele>
        <time>2018-05-13T11:23:37.000Z</time>
      </trkpt>
      <trkpt lat="43.86701" lon="7.22899">
        <ele>527</ele>
        <time>2018-05-13T11:23:39.000Z</time>
      </trkpt>
      <trkpt lat="43.86701" lon="7.22901">
        <ele>527</ele>
        <time>2018-05-13T11:23:43.000Z</time>
      </trkpt>
      <trkpt lat="43.86703" lon="7.22902">
        <ele>527</ele>
        <time>2018-05-13T11:23:46.000Z</time>
      </trkpt>
      <trkpt lat="43.86705" lon="7.22906">
        <ele>528</ele>
        <time>2018-05-13T11:23:52.000Z</time>
      </trkpt>
      <trkpt lat="43.86706" lon="7.22908">
        <ele>528</ele>
        <time>2018-05-13T11:23:56.000Z</time>
      </trkpt>
      <trkpt lat="43.86704" lon="7.22908">
        <ele>528</ele>
        <time>2018-05-13T11:24:03.000Z</time>
      </trkpt>
      <trkpt lat="43.86704" lon="7.22908">
        <ele>528</ele>
        <time>2018-05-13T11:24:05.000Z</time>
      </trkpt>
      <trkpt lat="43.86702" lon="7.22907">
        <ele>528</ele>
        <time>2018-05-13T11:24:09.000Z</time>
      </trkpt>
      <trkpt lat="43.86702" lon="7.22908">
        <ele>528</ele>
        <time>2018-05-13T11:24:10.000Z</time>
      </trkpt>
      <trkpt lat="43.867" lon="7.2291">
        <ele>528</ele>
        <time>2018-05-13T11:24:17.000Z</time>
      </trkpt>
      <trkpt lat="43.867" lon="7.22911">
        <ele>528</ele>
        <time>2018-05-13T11:24:18.000Z</time>
      </trkpt>
      <trkpt lat="43.86699" lon="7.22912">
        <ele>528</ele>
        <time>2018-05-13T11:24:22.000Z</time>
      </trkpt>
      <trkpt lat="43.86699" lon="7.22914">
        <ele>528</ele>
        <time>2018-05-13T11:24:27.000Z</time>
      </trkpt>
      <trkpt lat="43.86699" lon="7.22915">
        <ele>528</ele>
        <time>2018-05-13T11:24:30.000Z</time>
      </trkpt>
      <trkpt lat="43.86697" lon="7.22914">
        <ele>528</ele>
        <time>2018-05-13T11:24:34.000Z</time>
      </trkpt>
      <trkpt lat="43.86695" lon="7.22914">
        <ele>528</ele>
        <time>2018-05-13T11:24:38.000Z</time>
      </trkpt>
      <trkpt lat="43.86694" lon="7.22914">
        <ele>528</ele>
        <time>2018-05-13T11:24:41.000Z</time>
      </trkpt>
      <trkpt lat="43.86693" lon="7.22914">
        <ele>528</ele>
        <time>2018-05-13T11:24:43.000Z</time>
      </trkpt>
      <trkpt lat="43.86693" lon="7.22914">
        <ele>528</ele>
        <time>2018-05-13T11:24:46.000Z</time>
      </trkpt>
      <trkpt lat="43.86693" lon="7.22912">
        <ele>528</ele>
        <time>2018-05-13T11:24:48.000Z</time>
      </trkpt>
      <trkpt lat="43.8669" lon="7.2291">
        <ele>528</ele>
        <time>2018-05-13T11:24:55.000Z</time>
      </trkpt>
      <trkpt lat="43.86689" lon="7.2291">
        <ele>528</ele>
        <time>2018-05-13T11:25:00.000Z</time>
      </trkpt>
      <trkpt lat="43.86689" lon="7.22911">
        <ele>528</ele>
        <time>2018-05-13T11:25:01.000Z</time>
      </trkpt>
      <trkpt lat="43.86688" lon="7.22913">
        <ele>528</ele>
        <time>2018-05-13T11:25:06.000Z</time>
      </trkpt>
      <trkpt lat="43.86688" lon="7.22914">
        <ele>529</ele>
        <time>2018-05-13T11:25:08.000Z</time>
      </trkpt>
      <trkpt lat="43.86689" lon="7.22916">
        <ele>529</ele>
        <time>2018-05-13T11:25:10.000Z</time>
      </trkpt>
      <trkpt lat="43.8669" lon="7.22921">
        <ele>545</ele>
        <time>2018-05-13T11:25:18.000Z</time>
      </trkpt>
      <trkpt lat="43.86691" lon="7.22921">
        <ele>545</ele>
        <time>2018-05-13T11:25:25.000Z</time>
      </trkpt>
      <trkpt lat="43.86694" lon="7.22925">
        <ele>546</ele>
        <time>2018-05-13T11:25:32.000Z</time>
      </trkpt>
      <trkpt lat="43.867" lon="7.22938">
        <ele>549</ele>
        <time>2018-05-13T11:25:37.000Z</time>
      </trkpt>
      <trkpt lat="43.86703" lon="7.2294">
        <ele>550</ele>
        <time>2018-05-13T11:25:38.000Z</time>
      </trkpt>
      <trkpt lat="43.86707" lon="7.2294">
        <ele>550</ele>
        <time>2018-05-13T11:25:40.000Z</time>
      </trkpt>
      <trkpt lat="43.86713" lon="7.2293">
        <ele>549</ele>
        <time>2018-05-13T11:25:47.000Z</time>
      </trkpt>
      <trkpt lat="43.86715" lon="7.22926">
        <ele>549</ele>
        <time>2018-05-13T11:25:50.000Z</time>
      </trkpt>
      <trkpt lat="43.86718" lon="7.22922">
        <ele>548</ele>
        <time>2018-05-13T11:25:53.000Z</time>
      </trkpt>
      <trkpt lat="43.8672" lon="7.2292">
        <ele>548</ele>
        <time>2018-05-13T11:25:55.000Z</time>
      </trkpt>
      <trkpt lat="43.86724" lon="7.22915">
        <ele>530</ele>
        <time>2018-05-13T11:25:59.000Z</time>
      </trkpt>
      <trkpt lat="43.86725" lon="7.22915">
        <ele>530</ele>
        <time>2018-05-13T11:26:00.000Z</time>
      </trkpt>
      <trkpt lat="43.86732" lon="7.22912">
        <ele>532</ele>
        <time>2018-05-13T11:26:06.000Z</time>
      </trkpt>
      <trkpt lat="43.86738" lon="7.2291">
        <ele>533</ele>
        <time>2018-05-13T11:26:12.000Z</time>
      </trkpt>
      <trkpt lat="43.86743" lon="7.22914">
        <ele>536</ele>
        <time>2018-05-13T11:26:17.000Z</time>
      </trkpt>
      <trkpt lat="43.86743" lon="7.22915">
        <ele>537</ele>
        <time>2018-05-13T11:26:20.000Z</time>
      </trkpt>
      <trkpt lat="43.86746" lon="7.22918">
        <ele>543</ele>
        <time>2018-05-13T11:26:28.000Z</time>
      </trkpt>
      <trkpt lat="43.86749" lon="7.22918">
        <ele>542</ele>
        <time>2018-05-13T11:26:31.000Z</time>
      </trkpt>
      <trkpt lat="43.86753" lon="7.22917">
        <ele>544</ele>
        <time>2018-05-13T11:26:37.000Z</time>
      </trkpt>
      <trkpt lat="43.86755" lon="7.22917">
        <ele>545</ele>
        <time>2018-05-13T11:26:38.000Z</time>
      </trkpt>
      <trkpt lat="43.86757" lon="7.22917">
        <ele>547</ele>
        <time>2018-05-13T11:26:43.000Z</time>
      </trkpt>
      <trkpt lat="43.86763" lon="7.22917">
        <ele>550</ele>
        <time>2018-05-13T11:26:48.000Z</time>
      </trkpt>
      <trkpt lat="43.86764" lon="7.22918">
        <ele>550</ele>
        <time>2018-05-13T11:26:49.000Z</time>
      </trkpt>
      <trkpt lat="43.86767" lon="7.22918">
        <ele>552</ele>
        <time>2018-05-13T11:26:52.000Z</time>
      </trkpt>
      <trkpt lat="43.86769" lon="7.22917">
        <ele>535</ele>
        <time>2018-05-13T11:26:54.000Z</time>
      </trkpt>
      <trkpt lat="43.86771" lon="7.22916">
        <ele>535</ele>
        <time>2018-05-13T11:26:55.000Z</time>
      </trkpt>
      <trkpt lat="43.86777" lon="7.22915">
        <ele>535</ele>
        <time>2018-05-13T11:27:00.000Z</time>
      </trkpt>
      <trkpt lat="43.86778" lon="7.22915">
        <ele>535</ele>
        <time>2018-05-13T11:27:01.000Z</time>
      </trkpt>
      <trkpt lat="43.86782" lon="7.22917">
        <ele>556</ele>
        <time>2018-05-13T11:27:04.000Z</time>
      </trkpt>
      <trkpt lat="43.86784" lon="7.22919">
        <ele>557</ele>
        <time>2018-05-13T11:27:06.000Z</time>
      </trkpt>
      <trkpt lat="43.86786" lon="7.2292">
        <ele>557</ele>
        <time>2018-05-13T11:27:08.000Z</time>
      </trkpt>
      <trkpt lat="43.86788" lon="7.22921">
        <ele>557</ele>
        <time>2018-05-13T11:27:10.000Z</time>
      </trkpt>
      <trkpt lat="43.86793" lon="7.22924">
        <ele>558</ele>
        <time>2018-05-13T11:27:15.000Z</time>
      </trkpt>
      <trkpt lat="43.86793" lon="7.22924">
        <ele>558</ele>
        <time>2018-05-13T11:27:17.000Z</time>
      </trkpt>
      <trkpt lat="43.86797" lon="7.22924">
        <ele>559</ele>
        <time>2018-05-13T11:27:23.000Z</time>
      </trkpt>
      <trkpt lat="43.86797" lon="7.22924">
        <ele>559</ele>
        <time>2018-05-13T11:27:24.000Z</time>
      </trkpt>
      <trkpt lat="43.86801" lon="7.22926">
        <ele>559</ele>
        <time>2018-05-13T11:27:30.000Z</time>
      </trkpt>
      <trkpt lat="43.86803" lon="7.22927">
        <ele>559</ele>
        <time>2018-05-13T11:27:33.000Z</time>
      </trkpt>
      <trkpt lat="43.86806" lon="7.22926">
        <ele>559</ele>
        <time>2018-05-13T11:27:37.000Z</time>
      </trkpt>
      <trkpt lat="43.86811" lon="7.22926">
        <ele>559</ele>
        <time>2018-05-13T11:27:41.000Z</time>
      </trkpt>
      <trkpt lat="43.86814" lon="7.22928">
        <ele>559</ele>
        <time>2018-05-13T11:27:45.000Z</time>
      </trkpt>
      <trkpt lat="43.86815" lon="7.22928">
        <ele>559</ele>
        <time>2018-05-13T11:27:46.000Z</time>
      </trkpt>
      <trkpt lat="43.86816" lon="7.22928">
        <ele>559</ele>
        <time>2018-05-13T11:27:47.000Z</time>
      </trkpt>
      <trkpt lat="43.86823" lon="7.22927">
        <ele>558</ele>
        <time>2018-05-13T11:27:56.000Z</time>
      </trkpt>
      <trkpt lat="43.86823" lon="7.22927">
        <ele>558</ele>
        <time>2018-05-13T11:27:57.000Z</time>
      </trkpt>
      <trkpt lat="43.86828" lon="7.22926">
        <ele>557</ele>
        <time>2018-05-13T11:28:04.000Z</time>
      </trkpt>
      <trkpt lat="43.86829" lon="7.22926">
        <ele>557</ele>
        <time>2018-05-13T11:28:06.000Z</time>
      </trkpt>
      <trkpt lat="43.86833" lon="7.22924">
        <ele>556</ele>
        <time>2018-05-13T11:28:09.000Z</time>
      </trkpt>
      <trkpt lat="43.86834" lon="7.22923">
        <ele>557</ele>
        <time>2018-05-13T11:28:14.000Z</time>
      </trkpt>
      <trkpt lat="43.86841" lon="7.22917">
        <ele>558</ele>
        <time>2018-05-13T11:28:19.000Z</time>
      </trkpt>
      <trkpt lat="43.86845" lon="7.22915">
        <ele>548</ele>
        <time>2018-05-13T11:28:21.000Z</time>
      </trkpt>
      <trkpt lat="43.86854" lon="7.22914">
        <ele>546</ele>
        <time>2018-05-13T11:28:25.000Z</time>
      </trkpt>
      <trkpt lat="43.86858" lon="7.22915">
        <ele>545</ele>
        <time>2018-05-13T11:28:29.000Z</time>
      </trkpt>
      <trkpt lat="43.86858" lon="7.22914">
        <ele>545</ele>
        <time>2018-05-13T11:28:30.000Z</time>
      </trkpt>
      <trkpt lat="43.86862" lon="7.22914">
        <ele>545</ele>
        <time>2018-05-13T11:28:35.000Z</time>
      </trkpt>
      <trkpt lat="43.86865" lon="7.22914">
        <ele>545</ele>
        <time>2018-05-13T11:28:38.000Z</time>
      </trkpt>
      <trkpt lat="43.8687" lon="7.22916">
        <ele>545</ele>
        <time>2018-05-13T11:28:43.000Z</time>
      </trkpt>
      <trkpt lat="43.86873" lon="7.22918">
        <ele>566</ele>
        <time>2018-05-13T11:28:48.000Z</time>
      </trkpt>
      <trkpt lat="43.86876" lon="7.22918">
        <ele>566</ele>
        <time>2018-05-13T11:28:52.000Z</time>
      </trkpt>
      <trkpt lat="43.86884" lon="7.22922">
        <ele>567</ele>
        <time>2018-05-13T11:29:00.000Z</time>
      </trkpt>
      <trkpt lat="43.86885" lon="7.22923">
        <ele>567</ele>
        <time>2018-05-13T11:29:01.000Z</time>
      </trkpt>
      <trkpt lat="43.86891" lon="7.22927">
        <ele>567</ele>
        <time>2018-05-13T11:29:09.000Z</time>
      </trkpt>
      <trkpt lat="43.86893" lon="7.22928">
        <ele>567</ele>
        <time>2018-05-13T11:29:12.000Z</time>
      </trkpt>
      <trkpt lat="43.86894" lon="7.22927">
        <ele>567</ele>
        <time>2018-05-13T11:29:13.000Z</time>
      </trkpt>
      <trkpt lat="43.86897" lon="7.22927">
        <ele>567</ele>
        <time>2018-05-13T11:29:15.000Z</time>
      </trkpt>
      <trkpt lat="43.86898" lon="7.22927">
        <ele>567</ele>
        <time>2018-05-13T11:29:16.000Z</time>
      </trkpt>
      <trkpt lat="43.86902" lon="7.22927">
        <ele>566</ele>
        <time>2018-05-13T11:29:21.000Z</time>
      </trkpt>
      <trkpt lat="43.86903" lon="7.22927">
        <ele>566</ele>
        <time>2018-05-13T11:29:22.000Z</time>
      </trkpt>
      <trkpt lat="43.8691" lon="7.22923">
        <ele>564</ele>
        <time>2018-05-13T11:29:29.000Z</time>
      </trkpt>
      <trkpt lat="43.86911" lon="7.22923">
        <ele>563</ele>
        <time>2018-05-13T11:29:30.000Z</time>
      </trkpt>
      <trkpt lat="43.86915" lon="7.22923">
        <ele>563</ele>
        <time>2018-05-13T11:29:35.000Z</time>
      </trkpt>
      <trkpt lat="43.86916" lon="7.22923">
        <ele>563</ele>
        <time>2018-05-13T11:29:36.000Z</time>
      </trkpt>
      <trkpt lat="43.86917" lon="7.22923">
        <ele>564</ele>
        <time>2018-05-13T11:29:38.000Z</time>
      </trkpt>
      <trkpt lat="43.86922" lon="7.22926">
        <ele>565</ele>
        <time>2018-05-13T11:29:45.000Z</time>
      </trkpt>
      <trkpt lat="43.86928" lon="7.22924">
        <ele>566</ele>
        <time>2018-05-13T11:29:52.000Z</time>
      </trkpt>
      <trkpt lat="43.86929" lon="7.22923">
        <ele>566</ele>
        <time>2018-05-13T11:29:53.000Z</time>
      </trkpt>
      <trkpt lat="43.86933" lon="7.22919">
        <ele>567</ele>
        <time>2018-05-13T11:29:59.000Z</time>
      </trkpt>
      <trkpt lat="43.86934" lon="7.22918">
        <ele>567</ele>
        <time>2018-05-13T11:30:00.000Z</time>
      </trkpt>
      <trkpt lat="43.86937" lon="7.22913">
        <ele>554</ele>
        <time>2018-05-13T11:30:05.000Z</time>
      </trkpt>
      <trkpt lat="43.8694" lon="7.22909">
        <ele>554</ele>
        <time>2018-05-13T11:30:10.000Z</time>
      </trkpt>
      <trkpt lat="43.86944" lon="7.22902">
        <ele>553</ele>
        <time>2018-05-13T11:30:17.000Z</time>
      </trkpt>
      <trkpt lat="43.86946" lon="7.22901">
        <ele>552</ele>
        <time>2018-05-13T11:30:21.000Z</time>
      </trkpt>
      <trkpt lat="43.86952" lon="7.229">
        <ele>552</ele>
        <time>2018-05-13T11:30:26.000Z</time>
      </trkpt>
      <trkpt lat="43.86954" lon="7.22901">
        <ele>552</ele>
        <time>2018-05-13T11:30:27.000Z</time>
      </trkpt>
      <trkpt lat="43.86956" lon="7.22902">
        <ele>552</ele>
        <time>2018-05-13T11:30:28.000Z</time>
      </trkpt>
      <trkpt lat="43.86957" lon="7.22905">
        <ele>552</ele>
        <time>2018-05-13T11:30:30.000Z</time>
      </trkpt>
      <trkpt lat="43.86958" lon="7.2291">
        <ele>553</ele>
        <time>2018-05-13T11:30:32.000Z</time>
      </trkpt>
      <trkpt lat="43.86956" lon="7.22916">
        <ele>553</ele>
        <time>2018-05-13T11:30:36.000Z</time>
      </trkpt>
      <trkpt lat="43.86955" lon="7.22918">
        <ele>570</ele>
        <time>2018-05-13T11:30:37.000Z</time>
      </trkpt>
      <trkpt lat="43.86954" lon="7.22921">
        <ele>570</ele>
        <time>2018-05-13T11:30:39.000Z</time>
      </trkpt>
      <trkpt lat="43.86953" lon="7.22928">
        <ele>571</ele>
        <time>2018-05-13T11:30:43.000Z</time>
      </trkpt>
      <trkpt lat="43.86953" lon="7.2293">
        <ele>571</ele>
        <time>2018-05-13T11:30:44.000Z</time>
      </trkpt>
      <trkpt lat="43.86953" lon="7.22937">
        <ele>572</ele>
        <time>2018-05-13T11:30:48.000Z</time>
      </trkpt>
      <trkpt lat="43.86954" lon="7.22938">
        <ele>572</ele>
        <time>2018-05-13T11:30:49.000Z</time>
      </trkpt>
      <trkpt lat="43.86952" lon="7.2294">
        <ele>572</ele>
        <time>2018-05-13T11:30:50.000Z</time>
      </trkpt>
      <trkpt lat="43.86952" lon="7.22942">
        <ele>573</ele>
        <time>2018-05-13T11:30:52.000Z</time>
      </trkpt>
      <trkpt lat="43.8695" lon="7.22946">
        <ele>573</ele>
        <time>2018-05-13T11:30:54.000Z</time>
      </trkpt>
      <trkpt lat="43.86948" lon="7.22954">
        <ele>575</ele>
        <time>2018-05-13T11:30:58.000Z</time>
      </trkpt>
      <trkpt lat="43.86947" lon="7.22956">
        <ele>575</ele>
        <time>2018-05-13T11:30:59.000Z</time>
      </trkpt>
      <trkpt lat="43.86946" lon="7.22957">
        <ele>575</ele>
        <time>2018-05-13T11:31:00.000Z</time>
      </trkpt>
      <trkpt lat="43.86944" lon="7.22959">
        <ele>576</ele>
        <time>2018-05-13T11:31:03.000Z</time>
      </trkpt>
      <trkpt lat="43.86943" lon="7.22959">
        <ele>576</ele>
        <time>2018-05-13T11:31:04.000Z</time>
      </trkpt>
      <trkpt lat="43.86932" lon="7.2296">
        <ele>576</ele>
        <time>2018-05-13T11:31:08.000Z</time>
      </trkpt>
      <trkpt lat="43.86925" lon="7.22959">
        <ele>576</ele>
        <time>2018-05-13T11:31:10.000Z</time>
      </trkpt>
      <trkpt lat="43.86918" lon="7.22961">
        <ele>576</ele>
        <time>2018-05-13T11:31:13.000Z</time>
      </trkpt>
      <trkpt lat="43.86916" lon="7.22961">
        <ele>574</ele>
        <time>2018-05-13T11:31:14.000Z</time>
      </trkpt>
      <trkpt lat="43.86902" lon="7.22963">
        <ele>574</ele>
        <time>2018-05-13T11:31:19.000Z</time>
      </trkpt>
      <trkpt lat="43.86891" lon="7.22961">
        <ele>573</ele>
        <time>2018-05-13T11:31:23.000Z</time>
      </trkpt>
      <trkpt lat="43.86888" lon="7.22962">
        <ele>574</ele>
        <time>2018-05-13T11:31:25.000Z</time>
      </trkpt>
      <trkpt lat="43.86885" lon="7.22963">
        <ele>574</ele>
        <time>2018-05-13T11:31:28.000Z</time>
      </trkpt>
      <trkpt lat="43.86878" lon="7.22965">
        <ele>574</ele>
        <time>2018-05-13T11:31:33.000Z</time>
      </trkpt>
      <trkpt lat="43.86877" lon="7.22965">
        <ele>574</ele>
        <time>2018-05-13T11:31:34.000Z</time>
      </trkpt>
      <trkpt lat="43.86872" lon="7.22966">
        <ele>574</ele>
        <time>2018-05-13T11:31:38.000Z</time>
      </trkpt>
      <trkpt lat="43.8687" lon="7.22967">
        <ele>574</ele>
        <time>2018-05-13T11:31:40.000Z</time>
      </trkpt>
      <trkpt lat="43.8687" lon="7.22968">
        <ele>574</ele>
        <time>2018-05-13T11:31:41.000Z</time>
      </trkpt>
      <trkpt lat="43.86863" lon="7.22972">
        <ele>575</ele>
        <time>2018-05-13T11:31:46.000Z</time>
      </trkpt>
      <trkpt lat="43.86862" lon="7.22973">
        <ele>575</ele>
        <time>2018-05-13T11:31:47.000Z</time>
      </trkpt>
      <trkpt lat="43.86852" lon="7.22974">
        <ele>575</ele>
        <time>2018-05-13T11:31:53.000Z</time>
      </trkpt>
      <trkpt lat="43.8685" lon="7.22976">
        <ele>576</ele>
        <time>2018-05-13T11:31:54.000Z</time>
      </trkpt>
      <trkpt lat="43.86844" lon="7.22979">
        <ele>576</ele>
        <time>2018-05-13T11:31:57.000Z</time>
      </trkpt>
      <trkpt lat="43.86841" lon="7.22979">
        <ele>577</ele>
        <time>2018-05-13T11:31:59.000Z</time>
      </trkpt>
      <trkpt lat="43.8684" lon="7.22981">
        <ele>577</ele>
        <time>2018-05-13T11:32:00.000Z</time>
      </trkpt>
      <trkpt lat="43.86837" lon="7.22985">
        <ele>579</ele>
        <time>2018-05-13T11:32:02.000Z</time>
      </trkpt>
      <trkpt lat="43.86834" lon="7.22986">
        <ele>579</ele>
        <time>2018-05-13T11:32:04.000Z</time>
      </trkpt>
      <trkpt lat="43.86829" lon="7.22987">
        <ele>576</ele>
        <time>2018-05-13T11:32:07.000Z</time>
      </trkpt>
      <trkpt lat="43.86827" lon="7.22988">
        <ele>576</ele>
        <time>2018-05-13T11:32:08.000Z</time>
      </trkpt>
      <trkpt lat="43.86826" lon="7.22988">
        <ele>576</ele>
        <time>2018-05-13T11:32:09.000Z</time>
      </trkpt>
      <trkpt lat="43.86819" lon="7.2299">
        <ele>575</ele>
        <time>2018-05-13T11:32:13.000Z</time>
      </trkpt>
      <trkpt lat="43.86818" lon="7.22991">
        <ele>574</ele>
        <time>2018-05-13T11:32:14.000Z</time>
      </trkpt>
      <trkpt lat="43.86809" lon="7.22991">
        <ele>572</ele>
        <time>2018-05-13T11:32:19.000Z</time>
      </trkpt>
      <trkpt lat="43.86807" lon="7.22993">
        <ele>572</ele>
        <time>2018-05-13T11:32:20.000Z</time>
      </trkpt>
      <trkpt lat="43.86804" lon="7.22994">
        <ele>572</ele>
        <time>2018-05-13T11:32:22.000Z</time>
      </trkpt>
      <trkpt lat="43.86801" lon="7.22995">
        <ele>571</ele>
        <time>2018-05-13T11:32:24.000Z</time>
      </trkpt>
      <trkpt lat="43.86798" lon="7.22997">
        <ele>571</ele>
        <time>2018-05-13T11:32:26.000Z</time>
      </trkpt>
      <trkpt lat="43.86792" lon="7.23001">
        <ele>590</ele>
        <time>2018-05-13T11:32:31.000Z</time>
      </trkpt>
      <trkpt lat="43.86788" lon="7.23004">
        <ele>590</ele>
        <time>2018-05-13T11:32:34.000Z</time>
      </trkpt>
      <trkpt lat="43.86787" lon="7.23005">
        <ele>590</ele>
        <time>2018-05-13T11:32:37.000Z</time>
      </trkpt>
      <trkpt lat="43.86787" lon="7.23005">
        <ele>590</ele>
        <time>2018-05-13T11:32:39.000Z</time>
      </trkpt>
      <trkpt lat="43.86783" lon="7.2301">
        <ele>590</ele>
        <time>2018-05-13T11:32:45.000Z</time>
      </trkpt>
      <trkpt lat="43.86783" lon="7.2301">
        <ele>590</ele>
        <time>2018-05-13T11:32:46.000Z</time>
      </trkpt>
      <trkpt lat="43.86781" lon="7.23015">
        <ele>590</ele>
        <time>2018-05-13T11:32:51.000Z</time>
      </trkpt>
      <trkpt lat="43.86778" lon="7.23019">
        <ele>591</ele>
        <time>2018-05-13T11:32:56.000Z</time>
      </trkpt>
      <trkpt lat="43.86774" lon="7.23021">
        <ele>590</ele>
        <time>2018-05-13T11:33:00.000Z</time>
      </trkpt>
      <trkpt lat="43.86773" lon="7.23022">
        <ele>590</ele>
        <time>2018-05-13T11:33:01.000Z</time>
      </trkpt>
      <trkpt lat="43.86768" lon="7.23029">
        <ele>591</ele>
        <time>2018-05-13T11:33:07.000Z</time>
      </trkpt>
      <trkpt lat="43.86765" lon="7.23032">
        <ele>592</ele>
        <time>2018-05-13T11:33:11.000Z</time>
      </trkpt>
      <trkpt lat="43.86762" lon="7.23035">
        <ele>592</ele>
        <time>2018-05-13T11:33:14.000Z</time>
      </trkpt>
      <trkpt lat="43.86759" lon="7.2304">
        <ele>593</ele>
        <time>2018-05-13T11:33:18.000Z</time>
      </trkpt>
      <trkpt lat="43.86758" lon="7.23041">
        <ele>593</ele>
        <time>2018-05-13T11:33:20.000Z</time>
      </trkpt>
      <trkpt lat="43.86756" lon="7.23046">
        <ele>594</ele>
        <time>2018-05-13T11:33:25.000Z</time>
      </trkpt>
      <trkpt lat="43.86753" lon="7.23051">
        <ele>595</ele>
        <time>2018-05-13T11:33:29.000Z</time>
      </trkpt>
      <trkpt lat="43.8675" lon="7.23056">
        <ele>596</ele>
        <time>2018-05-13T11:33:33.000Z</time>
      </trkpt>
      <trkpt lat="43.86744" lon="7.23063">
        <ele>590</ele>
        <time>2018-05-13T11:33:41.000Z</time>
      </trkpt>
      <trkpt lat="43.86743" lon="7.23064">
        <ele>590</ele>
        <time>2018-05-13T11:33:42.000Z</time>
      </trkpt>
      <trkpt lat="43.8674" lon="7.2307">
        <ele>591</ele>
        <time>2018-05-13T11:33:46.000Z</time>
      </trkpt>
      <trkpt lat="43.86738" lon="7.23071">
        <ele>591</ele>
        <time>2018-05-13T11:33:48.000Z</time>
      </trkpt>
      <trkpt lat="43.8673" lon="7.23075">
        <ele>590</ele>
        <time>2018-05-13T11:33:52.000Z</time>
      </trkpt>
      <trkpt lat="43.86727" lon="7.23078">
        <ele>589</ele>
        <time>2018-05-13T11:33:53.000Z</time>
      </trkpt>
      <trkpt lat="43.86712" lon="7.23084">
        <ele>600</ele>
        <time>2018-05-13T11:33:58.000Z</time>
      </trkpt>
      <trkpt lat="43.86703" lon="7.23091">
        <ele>599</ele>
        <time>2018-05-13T11:34:03.000Z</time>
      </trkpt>
      <trkpt lat="43.86696" lon="7.23097">
        <ele>598</ele>
        <time>2018-05-13T11:34:09.000Z</time>
      </trkpt>
      <trkpt lat="43.86689" lon="7.23104">
        <ele>598</ele>
        <time>2018-05-13T11:34:15.000Z</time>
      </trkpt>
      <trkpt lat="43.86682" lon="7.23119">
        <ele>600</ele>
        <time>2018-05-13T11:34:20.000Z</time>
      </trkpt>
      <trkpt lat="43.86674" lon="7.23143">
        <ele>602</ele>
        <time>2018-05-13T11:34:25.000Z</time>
      </trkpt>
      <trkpt lat="43.86666" lon="7.23156">
        <ele>597</ele>
        <time>2018-05-13T11:34:30.000Z</time>
      </trkpt>
      <trkpt lat="43.86653" lon="7.23181">
        <ele>606</ele>
        <time>2018-05-13T11:34:37.000Z</time>
      </trkpt>
      <trkpt lat="43.86651" lon="7.23185">
        <ele>607</ele>
        <time>2018-05-13T11:34:39.000Z</time>
      </trkpt>
      <trkpt lat="43.86647" lon="7.23189">
        <ele>608</ele>
        <time>2018-05-13T11:34:41.000Z</time>
      </trkpt>
      <trkpt lat="43.86636" lon="7.23203">
        <ele>610</ele>
        <time>2018-05-13T11:34:46.000Z</time>
      </trkpt>
      <trkpt lat="43.8663" lon="7.23211">
        <ele>611</ele>
        <time>2018-05-13T11:34:50.000Z</time>
      </trkpt>
      <trkpt lat="43.86628" lon="7.23214">
        <ele>611</ele>
        <time>2018-05-13T11:34:53.000Z</time>
      </trkpt>
      <trkpt lat="43.86624" lon="7.23215">
        <ele>611</ele>
        <time>2018-05-13T11:34:55.000Z</time>
      </trkpt>
      <trkpt lat="43.86615" lon="7.23212">
        <ele>610</ele>
        <time>2018-05-13T11:34:59.000Z</time>
      </trkpt>
      <trkpt lat="43.8661" lon="7.2321">
        <ele>609</ele>
        <time>2018-05-13T11:35:02.000Z</time>
      </trkpt>
      <trkpt lat="43.86609" lon="7.2321">
        <ele>609</ele>
        <time>2018-05-13T11:35:03.000Z</time>
      </trkpt>
      <trkpt lat="43.86605" lon="7.2321">
        <ele>609</ele>
        <time>2018-05-13T11:35:06.000Z</time>
      </trkpt>
      <trkpt lat="43.866" lon="7.23212">
        <ele>609</ele>
        <time>2018-05-13T11:35:09.000Z</time>
      </trkpt>
      <trkpt lat="43.86597" lon="7.23212">
        <ele>609</ele>
        <time>2018-05-13T11:35:11.000Z</time>
      </trkpt>
      <trkpt lat="43.86592" lon="7.23212">
        <ele>609</ele>
        <time>2018-05-13T11:35:15.000Z</time>
      </trkpt>
      <trkpt lat="43.86589" lon="7.23215">
        <ele>609</ele>
        <time>2018-05-13T11:35:19.000Z</time>
      </trkpt>
      <trkpt lat="43.86588" lon="7.23214">
        <ele>609</ele>
        <time>2018-05-13T11:35:21.000Z</time>
      </trkpt>
      <trkpt lat="43.86586" lon="7.23215">
        <ele>609</ele>
        <time>2018-05-13T11:35:26.000Z</time>
      </trkpt>
      <trkpt lat="43.86584" lon="7.23217">
        <ele>610</ele>
        <time>2018-05-13T11:35:28.000Z</time>
      </trkpt>
      <trkpt lat="43.86579" lon="7.23216">
        <ele>606</ele>
        <time>2018-05-13T11:35:34.000Z</time>
      </trkpt>
      <trkpt lat="43.86579" lon="7.23216">
        <ele>606</ele>
        <time>2018-05-13T11:35:35.000Z</time>
      </trkpt>
      <trkpt lat="43.86576" lon="7.23218">
        <ele>607</ele>
        <time>2018-05-13T11:35:40.000Z</time>
      </trkpt>
      <trkpt lat="43.86575" lon="7.23218">
        <ele>607</ele>
        <time>2018-05-13T11:35:42.000Z</time>
      </trkpt>
      <trkpt lat="43.86573" lon="7.23219">
        <ele>607</ele>
        <time>2018-05-13T11:35:46.000Z</time>
      </trkpt>
      <trkpt lat="43.8657" lon="7.23219">
        <ele>607</ele>
        <time>2018-05-13T11:35:50.000Z</time>
      </trkpt>
      <trkpt lat="43.86568" lon="7.2322">
        <ele>607</ele>
        <time>2018-05-13T11:35:53.000Z</time>
      </trkpt>
      <trkpt lat="43.86564" lon="7.23221">
        <ele>607</ele>
        <time>2018-05-13T11:35:58.000Z</time>
      </trkpt>
      <trkpt lat="43.86563" lon="7.23221">
        <ele>607</ele>
        <time>2018-05-13T11:35:59.000Z</time>
      </trkpt>
      <trkpt lat="43.8656" lon="7.23223">
        <ele>607</ele>
        <time>2018-05-13T11:36:05.000Z</time>
      </trkpt>
      <trkpt lat="43.86556" lon="7.23224">
        <ele>607</ele>
        <time>2018-05-13T11:36:11.000Z</time>
      </trkpt>
      <trkpt lat="43.86556" lon="7.23225">
        <ele>607</ele>
        <time>2018-05-13T11:36:12.000Z</time>
      </trkpt>
      <trkpt lat="43.86553" lon="7.23228">
        <ele>607</ele>
        <time>2018-05-13T11:36:17.000Z</time>
      </trkpt>
      <trkpt lat="43.86553" lon="7.2323">
        <ele>607</ele>
        <time>2018-05-13T11:36:20.000Z</time>
      </trkpt>
      <trkpt lat="43.86555" lon="7.23231">
        <ele>607</ele>
        <time>2018-05-13T11:36:22.000Z</time>
      </trkpt>
      <trkpt lat="43.86556" lon="7.23231">
        <ele>607</ele>
        <time>2018-05-13T11:36:25.000Z</time>
      </trkpt>
      <trkpt lat="43.8656" lon="7.23232">
        <ele>608</ele>
        <time>2018-05-13T11:36:30.000Z</time>
      </trkpt>
      <trkpt lat="43.86561" lon="7.23233">
        <ele>608</ele>
        <time>2018-05-13T11:36:32.000Z</time>
      </trkpt>
      <trkpt lat="43.86563" lon="7.23236">
        <ele>608</ele>
        <time>2018-05-13T11:36:36.000Z</time>
      </trkpt>
      <trkpt lat="43.86565" lon="7.23238">
        <ele>609</ele>
        <time>2018-05-13T11:36:40.000Z</time>
      </trkpt>
      <trkpt lat="43.86567" lon="7.2324">
        <ele>609</ele>
        <time>2018-05-13T11:36:43.000Z</time>
      </trkpt>
      <trkpt lat="43.86569" lon="7.23242">
        <ele>610</ele>
        <time>2018-05-13T11:36:48.000Z</time>
      </trkpt>
      <trkpt lat="43.8657" lon="7.23242">
        <ele>610</ele>
        <time>2018-05-13T11:36:51.000Z</time>
      </trkpt>
      <trkpt lat="43.86571" lon="7.23243">
        <ele>610</ele>
        <time>2018-05-13T11:36:54.000Z</time>
      </trkpt>
      <trkpt lat="43.86572" lon="7.23245">
        <ele>611</ele>
        <time>2018-05-13T11:36:57.000Z</time>
      </trkpt>
      <trkpt lat="43.86572" lon="7.23247">
        <ele>611</ele>
        <time>2018-05-13T11:37:00.000Z</time>
      </trkpt>
      <trkpt lat="43.86571" lon="7.23251">
        <ele>617</ele>
        <time>2018-05-13T11:37:04.000Z</time>
      </trkpt>
      <trkpt lat="43.86573" lon="7.23252">
        <ele>617</ele>
        <time>2018-05-13T11:37:07.000Z</time>
      </trkpt>
      <trkpt lat="43.86573" lon="7.23254">
        <ele>617</ele>
        <time>2018-05-13T11:37:09.000Z</time>
      </trkpt>
      <trkpt lat="43.86574" lon="7.23257">
        <ele>617</ele>
        <time>2018-05-13T11:37:13.000Z</time>
      </trkpt>
      <trkpt lat="43.86575" lon="7.23257">
        <ele>617</ele>
        <time>2018-05-13T11:37:14.000Z</time>
      </trkpt>
      <trkpt lat="43.86576" lon="7.2326">
        <ele>617</ele>
        <time>2018-05-13T11:37:19.000Z</time>
      </trkpt>
      <trkpt lat="43.86577" lon="7.23262">
        <ele>618</ele>
        <time>2018-05-13T11:37:21.000Z</time>
      </trkpt>
      <trkpt lat="43.86579" lon="7.23265">
        <ele>618</ele>
        <time>2018-05-13T11:37:26.000Z</time>
      </trkpt>
      <trkpt lat="43.8658" lon="7.23266">
        <ele>618</ele>
        <time>2018-05-13T11:37:32.000Z</time>
      </trkpt>
      <trkpt lat="43.86584" lon="7.2327">
        <ele>626</ele>
        <time>2018-05-13T11:37:39.000Z</time>
      </trkpt>
      <trkpt lat="43.86585" lon="7.2327">
        <ele>626</ele>
        <time>2018-05-13T11:37:40.000Z</time>
      </trkpt>
      <trkpt lat="43.86587" lon="7.23273">
        <ele>628</ele>
        <time>2018-05-13T11:37:46.000Z</time>
      </trkpt>
      <trkpt lat="43.86588" lon="7.23274">
        <ele>628</ele>
        <time>2018-05-13T11:37:48.000Z</time>
      </trkpt>
      <trkpt lat="43.86589" lon="7.23275">
        <ele>628</ele>
        <time>2018-05-13T11:37:52.000Z</time>
      </trkpt>
      <trkpt lat="43.86592" lon="7.23276">
        <ele>629</ele>
        <time>2018-05-13T11:37:57.000Z</time>
      </trkpt>
      <trkpt lat="43.86593" lon="7.23278">
        <ele>630</ele>
        <time>2018-05-13T11:38:00.000Z</time>
      </trkpt>
      <trkpt lat="43.86596" lon="7.2328">
        <ele>631</ele>
        <time>2018-05-13T11:38:05.000Z</time>
      </trkpt>
      <trkpt lat="43.86597" lon="7.2328">
        <ele>631</ele>
        <time>2018-05-13T11:38:06.000Z</time>
      </trkpt>
      <trkpt lat="43.86599" lon="7.23283">
        <ele>632</ele>
        <time>2018-05-13T11:38:12.000Z</time>
      </trkpt>
      <trkpt lat="43.866" lon="7.23283">
        <ele>632</ele>
        <time>2018-05-13T11:38:13.000Z</time>
      </trkpt>
      <trkpt lat="43.86602" lon="7.23286">
        <ele>633</ele>
        <time>2018-05-13T11:38:18.000Z</time>
      </trkpt>
      <trkpt lat="43.86604" lon="7.23288">
        <ele>633</ele>
        <time>2018-05-13T11:38:23.000Z</time>
      </trkpt>
      <trkpt lat="43.86604" lon="7.23289">
        <ele>633</ele>
        <time>2018-05-13T11:38:24.000Z</time>
      </trkpt>
      <trkpt lat="43.86606" lon="7.23291">
        <ele>634</ele>
        <time>2018-05-13T11:38:31.000Z</time>
      </trkpt>
      <trkpt lat="43.86606" lon="7.23292">
        <ele>634</ele>
        <time>2018-05-13T11:38:32.000Z</time>
      </trkpt>
      <trkpt lat="43.86607" lon="7.23293">
        <ele>635</ele>
        <time>2018-05-13T11:38:38.000Z</time>
      </trkpt>
      <trkpt lat="43.86609" lon="7.23295">
        <ele>635</ele>
        <time>2018-05-13T11:38:41.000Z</time>
      </trkpt>
      <trkpt lat="43.86611" lon="7.23295">
        <ele>635</ele>
        <time>2018-05-13T11:38:44.000Z</time>
      </trkpt>
      <trkpt lat="43.86614" lon="7.23296">
        <ele>635</ele>
        <time>2018-05-13T11:38:50.000Z</time>
      </trkpt>
      <trkpt lat="43.86616" lon="7.23297">
        <ele>636</ele>
        <time>2018-05-13T11:38:53.000Z</time>
      </trkpt>
      <trkpt lat="43.86616" lon="7.233">
        <ele>636</ele>
        <time>2018-05-13T11:38:56.000Z</time>
      </trkpt>
      <trkpt lat="43.86614" lon="7.23301">
        <ele>636</ele>
        <time>2018-05-13T11:39:02.000Z</time>
      </trkpt>
      <trkpt lat="43.86612" lon="7.23305">
        <ele>637</ele>
        <time>2018-05-13T11:39:10.000Z</time>
      </trkpt>
      <trkpt lat="43.86615" lon="7.23308">
        <ele>637</ele>
        <time>2018-05-13T11:39:17.000Z</time>
      </trkpt>
      <trkpt lat="43.86619" lon="7.23308">
        <ele>638</ele>
        <time>2018-05-13T11:39:22.000Z</time>
      </trkpt>
      <trkpt lat="43.8662" lon="7.23308">
        <ele>638</ele>
        <time>2018-05-13T11:39:24.000Z</time>
      </trkpt>
      <trkpt lat="43.86624" lon="7.23311">
        <ele>638</ele>
        <time>2018-05-13T11:39:29.000Z</time>
      </trkpt>
      <trkpt lat="43.86625" lon="7.23311">
        <ele>639</ele>
        <time>2018-05-13T11:39:31.000Z</time>
      </trkpt>
      <trkpt lat="43.86628" lon="7.23312">
        <ele>639</ele>
        <time>2018-05-13T11:39:35.000Z</time>
      </trkpt>
      <trkpt lat="43.86631" lon="7.23312">
        <ele>639</ele>
        <time>2018-05-13T11:39:40.000Z</time>
      </trkpt>
      <trkpt lat="43.86636" lon="7.23313">
        <ele>640</ele>
        <time>2018-05-13T11:39:47.000Z</time>
      </trkpt>
      <trkpt lat="43.86637" lon="7.23313">
        <ele>640</ele>
        <time>2018-05-13T11:39:48.000Z</time>
      </trkpt>
      <trkpt lat="43.86645" lon="7.23308">
        <ele>641</ele>
        <time>2018-05-13T11:39:56.000Z</time>
      </trkpt>
      <trkpt lat="43.86648" lon="7.23308">
        <ele>641</ele>
        <time>2018-05-13T11:40:00.000Z</time>
      </trkpt>
      <trkpt lat="43.86651" lon="7.23307">
        <ele>641</ele>
        <time>2018-05-13T11:40:03.000Z</time>
      </trkpt>
      <trkpt lat="43.86655" lon="7.23307">
        <ele>642</ele>
        <time>2018-05-13T11:40:09.000Z</time>
      </trkpt>
      <trkpt lat="43.86657" lon="7.23307">
        <ele>642</ele>
        <time>2018-05-13T11:40:11.000Z</time>
      </trkpt>
      <trkpt lat="43.86663" lon="7.23305">
        <ele>642</ele>
        <time>2018-05-13T11:40:19.000Z</time>
      </trkpt>
      <trkpt lat="43.86664" lon="7.23305">
        <ele>641</ele>
        <time>2018-05-13T11:40:21.000Z</time>
      </trkpt>
      <trkpt lat="43.86667" lon="7.23303">
        <ele>651</ele>
        <time>2018-05-13T11:40:25.000Z</time>
      </trkpt>
      <trkpt lat="43.8667" lon="7.23302">
        <ele>651</ele>
        <time>2018-05-13T11:40:30.000Z</time>
      </trkpt>
      <trkpt lat="43.86671" lon="7.23301">
        <ele>651</ele>
        <time>2018-05-13T11:40:32.000Z</time>
      </trkpt>
      <trkpt lat="43.86675" lon="7.233">
        <ele>651</ele>
        <time>2018-05-13T11:40:39.000Z</time>
      </trkpt>
      <trkpt lat="43.86675" lon="7.233">
        <ele>651</ele>
        <time>2018-05-13T11:40:40.000Z</time>
      </trkpt>
      <trkpt lat="43.86677" lon="7.23299">
        <ele>651</ele>
        <time>2018-05-13T11:40:44.000Z</time>
      </trkpt>
      <trkpt lat="43.86679" lon="7.23298">
        <ele>651</ele>
        <time>2018-05-13T11:40:47.000Z</time>
      </trkpt>
      <trkpt lat="43.86681" lon="7.23296">
        <ele>651</ele>
        <time>2018-05-13T11:40:51.000Z</time>
      </trkpt>
      <trkpt lat="43.86685" lon="7.23295">
        <ele>651</ele>
        <time>2018-05-13T11:40:58.000Z</time>
      </trkpt>
      <trkpt lat="43.86687" lon="7.23296">
        <ele>651</ele>
        <time>2018-05-13T11:41:04.000Z</time>
      </trkpt>
      <trkpt lat="43.86688" lon="7.23295">
        <ele>651</ele>
        <time>2018-05-13T11:41:05.000Z</time>
      </trkpt>
      <trkpt lat="43.8669" lon="7.23294">
        <ele>651</ele>
        <time>2018-05-13T11:41:11.000Z</time>
      </trkpt>
      <trkpt lat="43.86691" lon="7.23294">
        <ele>651</ele>
        <time>2018-05-13T11:41:12.000Z</time>
      </trkpt>
      <trkpt lat="43.86693" lon="7.23293">
        <ele>651</ele>
        <time>2018-05-13T11:41:18.000Z</time>
      </trkpt>
      <trkpt lat="43.86694" lon="7.23292">
        <ele>651</ele>
        <time>2018-05-13T11:41:21.000Z</time>
      </trkpt>
      <trkpt lat="43.86697" lon="7.23289">
        <ele>651</ele>
        <time>2018-05-13T11:41:25.000Z</time>
      </trkpt>
      <trkpt lat="43.86699" lon="7.23287">
        <ele>651</ele>
        <time>2018-05-13T11:41:29.000Z</time>
      </trkpt>
      <trkpt lat="43.86702" lon="7.23286">
        <ele>651</ele>
        <time>2018-05-13T11:41:34.000Z</time>
      </trkpt>
      <trkpt lat="43.86703" lon="7.23285">
        <ele>651</ele>
        <time>2018-05-13T11:41:37.000Z</time>
      </trkpt>
      <trkpt lat="43.86706" lon="7.23284">
        <ele>652</ele>
        <time>2018-05-13T11:41:41.000Z</time>
      </trkpt>
      <trkpt lat="43.86709" lon="7.23284">
        <ele>652</ele>
        <time>2018-05-13T11:41:46.000Z</time>
      </trkpt>
      <trkpt lat="43.8671" lon="7.23284">
        <ele>652</ele>
        <time>2018-05-13T11:41:49.000Z</time>
      </trkpt>
      <trkpt lat="43.86714" lon="7.23283">
        <ele>653</ele>
        <time>2018-05-13T11:41:55.000Z</time>
      </trkpt>
      <trkpt lat="43.86718" lon="7.2328">
        <ele>653</ele>
        <time>2018-05-13T11:42:03.000Z</time>
      </trkpt>
      <trkpt lat="43.86719" lon="7.2328">
        <ele>653</ele>
        <time>2018-05-13T11:42:05.000Z</time>
      </trkpt>
      <trkpt lat="43.86723" lon="7.23278">
        <ele>654</ele>
        <time>2018-05-13T11:42:11.000Z</time>
      </trkpt>
      <trkpt lat="43.86723" lon="7.23278">
        <ele>654</ele>
        <time>2018-05-13T11:42:13.000Z</time>
      </trkpt>
      <trkpt lat="43.86726" lon="7.23279">
        <ele>654</ele>
        <time>2018-05-13T11:42:19.000Z</time>
      </trkpt>
      <trkpt lat="43.86727" lon="7.23278">
        <ele>654</ele>
        <time>2018-05-13T11:42:21.000Z</time>
      </trkpt>
      <trkpt lat="43.86729" lon="7.23278">
        <ele>654</ele>
        <time>2018-05-13T11:42:25.000Z</time>
      </trkpt>
      <trkpt lat="43.8673" lon="7.23279">
        <ele>655</ele>
        <time>2018-05-13T11:42:27.000Z</time>
      </trkpt>
      <trkpt lat="43.86733" lon="7.23276">
        <ele>655</ele>
        <time>2018-05-13T11:42:32.000Z</time>
      </trkpt>
      <trkpt lat="43.86734" lon="7.23275">
        <ele>655</ele>
        <time>2018-05-13T11:42:33.000Z</time>
      </trkpt>
      <trkpt lat="43.86741" lon="7.23272">
        <ele>655</ele>
        <time>2018-05-13T11:42:42.000Z</time>
      </trkpt>
      <trkpt lat="43.86744" lon="7.23272">
        <ele>656</ele>
        <time>2018-05-13T11:42:46.000Z</time>
      </trkpt>
      <trkpt lat="43.86747" lon="7.23275">
        <ele>656</ele>
        <time>2018-05-13T11:42:51.000Z</time>
      </trkpt>
      <trkpt lat="43.86747" lon="7.23276">
        <ele>656</ele>
        <time>2018-05-13T11:42:52.000Z</time>
      </trkpt>
      <trkpt lat="43.86746" lon="7.23279">
        <ele>656</ele>
        <time>2018-05-13T11:42:57.000Z</time>
      </trkpt>
      <trkpt lat="43.86745" lon="7.2328">
        <ele>656</ele>
        <time>2018-05-13T11:42:58.000Z</time>
      </trkpt>
      <trkpt lat="43.8674" lon="7.23283">
        <ele>656</ele>
        <time>2018-05-13T11:43:03.000Z</time>
      </trkpt>
      <trkpt lat="43.86731" lon="7.23292">
        <ele>656</ele>
        <time>2018-05-13T11:43:09.000Z</time>
      </trkpt>
      <trkpt lat="43.86719" lon="7.23303">
        <ele>656</ele>
        <time>2018-05-13T11:43:15.000Z</time>
      </trkpt>
      <trkpt lat="43.86707" lon="7.23318">
        <ele>656</ele>
        <time>2018-05-13T11:43:20.000Z</time>
      </trkpt>
      <trkpt lat="43.86696" lon="7.23332">
        <ele>655</ele>
        <time>2018-05-13T11:43:25.000Z</time>
      </trkpt>
      <trkpt lat="43.86683" lon="7.23348">
        <ele>665</ele>
        <time>2018-05-13T11:43:31.000Z</time>
      </trkpt>
      <trkpt lat="43.8667" lon="7.23361">
        <ele>666</ele>
        <time>2018-05-13T11:43:36.000Z</time>
      </trkpt>
      <trkpt lat="43.86662" lon="7.23366">
        <ele>663</ele>
        <time>2018-05-13T11:43:39.000Z</time>
      </trkpt>
      <trkpt lat="43.86643" lon="7.23373">
        <ele>664</ele>
        <time>2018-05-13T11:43:45.000Z</time>
      </trkpt>
      <trkpt lat="43.86615" lon="7.23377">
        <ele>664</ele>
        <time>2018-05-13T11:43:52.000Z</time>
      </trkpt>
      <trkpt lat="43.86593" lon="7.23377">
        <ele>663</ele>
        <time>2018-05-13T11:43:58.000Z</time>
      </trkpt>
      <trkpt lat="43.8657" lon="7.23384">
        <ele>652</ele>
        <time>2018-05-13T11:44:04.000Z</time>
      </trkpt>
      <trkpt lat="43.86552" lon="7.23399">
        <ele>652</ele>
        <time>2018-05-13T11:44:10.000Z</time>
      </trkpt>
      <trkpt lat="43.86534" lon="7.23419">
        <ele>664</ele>
        <time>2018-05-13T11:44:16.000Z</time>
      </trkpt>
      <trkpt lat="43.86514" lon="7.23447">
        <ele>664</ele>
        <time>2018-05-13T11:44:23.000Z</time>
      </trkpt>
      <trkpt lat="43.86508" lon="7.23456">
        <ele>665</ele>
        <time>2018-05-13T11:44:25.000Z</time>
      </trkpt>
      <trkpt lat="43.86496" lon="7.23479">
        <ele>648</ele>
        <time>2018-05-13T11:44:30.000Z</time>
      </trkpt>
      <trkpt lat="43.86494" lon="7.23485">
        <ele>650</ele>
        <time>2018-05-13T11:44:31.000Z</time>
      </trkpt>
      <trkpt lat="43.86486" lon="7.23508">
        <ele>657</ele>
        <time>2018-05-13T11:44:35.000Z</time>
      </trkpt>
      <trkpt lat="43.86481" lon="7.23526">
        <ele>653</ele>
        <time>2018-05-13T11:44:38.000Z</time>
      </trkpt>
      <trkpt lat="43.8648" lon="7.23533">
        <ele>653</ele>
        <time>2018-05-13T11:44:39.000Z</time>
      </trkpt>
      <trkpt lat="43.86482" lon="7.23552">
        <ele>655</ele>
        <time>2018-05-13T11:44:42.000Z</time>
      </trkpt>
      <trkpt lat="43.86481" lon="7.23565">
        <ele>658</ele>
        <time>2018-05-13T11:44:44.000Z</time>
      </trkpt>
      <trkpt lat="43.86478" lon="7.23584">
        <ele>667</ele>
        <time>2018-05-13T11:44:47.000Z</time>
      </trkpt>
      <trkpt lat="43.86472" lon="7.236">
        <ele>665</ele>
        <time>2018-05-13T11:44:50.000Z</time>
      </trkpt>
      <trkpt lat="43.86468" lon="7.23603">
        <ele>664</ele>
        <time>2018-05-13T11:44:51.000Z</time>
      </trkpt>
      <trkpt lat="43.86461" lon="7.23618">
        <ele>663</ele>
        <time>2018-05-13T11:44:54.000Z</time>
      </trkpt>
      <trkpt lat="43.86455" lon="7.23628">
        <ele>663</ele>
        <time>2018-05-13T11:44:56.000Z</time>
      </trkpt>
      <trkpt lat="43.86441" lon="7.23656">
        <ele>662</ele>
        <time>2018-05-13T11:45:01.000Z</time>
      </trkpt>
      <trkpt lat="43.86433" lon="7.23672">
        <ele>668</ele>
        <time>2018-05-13T11:45:04.000Z</time>
      </trkpt>
      <trkpt lat="43.86425" lon="7.23687">
        <ele>669</ele>
        <time>2018-05-13T11:45:07.000Z</time>
      </trkpt>
      <trkpt lat="43.86414" lon="7.23706">
        <ele>660</ele>
        <time>2018-05-13T11:45:11.000Z</time>
      </trkpt>
      <trkpt lat="43.86409" lon="7.23716">
        <ele>661</ele>
        <time>2018-05-13T11:45:13.000Z</time>
      </trkpt>
      <trkpt lat="43.86407" lon="7.23721">
        <ele>662</ele>
        <time>2018-05-13T11:45:14.000Z</time>
      </trkpt>
      <trkpt lat="43.86403" lon="7.2374">
        <ele>665</ele>
        <time>2018-05-13T11:45:17.000Z</time>
      </trkpt>
      <trkpt lat="43.86394" lon="7.23763">
        <ele>675</ele>
        <time>2018-05-13T11:45:21.000Z</time>
      </trkpt>
      <trkpt lat="43.8639" lon="7.23766">
        <ele>675</ele>
        <time>2018-05-13T11:45:22.000Z</time>
      </trkpt>
      <trkpt lat="43.86376" lon="7.23764">
        <ele>675</ele>
        <time>2018-05-13T11:45:25.000Z</time>
      </trkpt>
      <trkpt lat="43.86358" lon="7.23746">
        <ele>661</ele>
        <time>2018-05-13T11:45:30.000Z</time>
      </trkpt>
      <trkpt lat="43.8635" lon="7.23733">
        <ele>660</ele>
        <time>2018-05-13T11:45:33.000Z</time>
      </trkpt>
      <trkpt lat="43.86341" lon="7.23723">
        <ele>659</ele>
        <time>2018-05-13T11:45:36.000Z</time>
      </trkpt>
      <trkpt lat="43.86329" lon="7.2372">
        <ele>650</ele>
        <time>2018-05-13T11:45:39.000Z</time>
      </trkpt>
      <trkpt lat="43.86325" lon="7.23722">
        <ele>650</ele>
        <time>2018-05-13T11:45:40.000Z</time>
      </trkpt>
      <trkpt lat="43.863" lon="7.23736">
        <ele>650</ele>
        <time>2018-05-13T11:45:46.000Z</time>
      </trkpt>
      <trkpt lat="43.86271" lon="7.23758">
        <ele>663</ele>
        <time>2018-05-13T11:45:53.000Z</time>
      </trkpt>
      <trkpt lat="43.86266" lon="7.23761">
        <ele>662</ele>
        <time>2018-05-13T11:45:54.000Z</time>
      </trkpt>
      <trkpt lat="43.86257" lon="7.23765">
        <ele>661</ele>
        <time>2018-05-13T11:45:56.000Z</time>
      </trkpt>
      <trkpt lat="43.8624" lon="7.23775">
        <ele>662</ele>
        <time>2018-05-13T11:46:00.000Z</time>
      </trkpt>
      <trkpt lat="43.86222" lon="7.23783">
        <ele>665</ele>
        <time>2018-05-13T11:46:04.000Z</time>
      </trkpt>
      <trkpt lat="43.86213" lon="7.23787">
        <ele>666</ele>
        <time>2018-05-13T11:46:06.000Z</time>
      </trkpt>
      <trkpt lat="43.86183" lon="7.23796">
        <ele>667</ele>
        <time>2018-05-13T11:46:13.000Z</time>
      </trkpt>
      <trkpt lat="43.86169" lon="7.23785">
        <ele>666</ele>
        <time>2018-05-13T11:46:17.000Z</time>
      </trkpt>
      <trkpt lat="43.86168" lon="7.23768">
        <ele>664</ele>
        <time>2018-05-13T11:46:21.000Z</time>
      </trkpt>
      <trkpt lat="43.86168" lon="7.23757">
        <ele>663</ele>
        <time>2018-05-13T11:46:23.000Z</time>
      </trkpt>
      <trkpt lat="43.8617" lon="7.2374">
        <ele>657</ele>
        <time>2018-05-13T11:46:26.000Z</time>
      </trkpt>
      <trkpt lat="43.86173" lon="7.23702">
        <ele>650</ele>
        <time>2018-05-13T11:46:33.000Z</time>
      </trkpt>
      <trkpt lat="43.8617" lon="7.23678">
        <ele>650</ele>
        <time>2018-05-13T11:46:38.000Z</time>
      </trkpt>
      <trkpt lat="43.86168" lon="7.23675">
        <ele>651</ele>
        <time>2018-05-13T11:46:39.000Z</time>
      </trkpt>
      <trkpt lat="43.86165" lon="7.23671">
        <ele>654</ele>
        <time>2018-05-13T11:46:42.000Z</time>
      </trkpt>
      <trkpt lat="43.86163" lon="7.23669">
        <ele>654</ele>
        <time>2018-05-13T11:46:44.000Z</time>
      </trkpt>
      <trkpt lat="43.86161" lon="7.23666">
        <ele>651</ele>
        <time>2018-05-13T11:46:46.000Z</time>
      </trkpt>
      <trkpt lat="43.86157" lon="7.23663">
        <ele>651</ele>
        <time>2018-05-13T11:46:49.000Z</time>
      </trkpt>
      <trkpt lat="43.86154" lon="7.23662">
        <ele>651</ele>
        <time>2018-05-13T11:46:51.000Z</time>
      </trkpt>
      <trkpt lat="43.8615" lon="7.23661">
        <ele>650</ele>
        <time>2018-05-13T11:46:54.000Z</time>
      </trkpt>
      <trkpt lat="43.86149" lon="7.23661">
        <ele>650</ele>
        <time>2018-05-13T11:46:55.000Z</time>
      </trkpt>
      <trkpt lat="43.86147" lon="7.23663">
        <ele>650</ele>
        <time>2018-05-13T11:46:57.000Z</time>
      </trkpt>
      <trkpt lat="43.86147" lon="7.23663">
        <ele>650</ele>
        <time>2018-05-13T11:46:58.000Z</time>
      </trkpt>
      <trkpt lat="43.86146" lon="7.23664">
        <ele>650</ele>
        <time>2018-05-13T11:47:00.000Z</time>
      </trkpt>
      <trkpt lat="43.86146" lon="7.23664">
        <ele>650</ele>
        <time>2018-05-13T11:47:05.000Z</time>
      </trkpt>
      <trkpt lat="43.86146" lon="7.23665">
        <ele>650</ele>
        <time>2018-05-13T11:47:10.000Z</time>
      </trkpt>
      <trkpt lat="43.86147" lon="7.23665">
        <ele>650</ele>
        <time>2018-05-13T11:47:17.000Z</time>
      </trkpt>
      <trkpt lat="43.86147" lon="7.23665">
        <ele>650</ele>
        <time>2018-05-13T11:47:29.000Z</time>
      </trkpt>
      <trkpt lat="43.86146" lon="7.23665">
        <ele>650</ele>
        <time>2018-05-13T11:47:40.000Z</time>
      </trkpt>
      <trkpt lat="43.86146" lon="7.23665">
        <ele>650</ele>
        <time>2018-05-13T11:47:57.000Z</time>
      </trkpt>
      <trkpt lat="43.86147" lon="7.23664">
        <ele>650</ele>
        <time>2018-05-13T11:48:13.000Z</time>
      </trkpt>
      <trkpt lat="43.86147" lon="7.23665">
        <ele>650</ele>
        <time>2018-05-13T11:48:21.000Z</time>
      </trkpt>
      <trkpt lat="43.86146" lon="7.23664">
        <ele>650</ele>
        <time>2018-05-13T11:48:26.000Z</time>
      </trkpt>
      <trkpt lat="43.86146" lon="7.23665">
        <ele>650</ele>
        <time>2018-05-13T11:48:31.000Z</time>
      </trkpt>
      <trkpt lat="43.86147" lon="7.23665">
        <ele>650</ele>
        <time>2018-05-13T11:48:43.000Z</time>
      </trkpt>
      <trkpt lat="43.86146" lon="7.23664">
        <ele>650</ele>
        <time>2018-05-13T11:48:47.000Z</time>
      </trkpt>
      <trkpt lat="43.86147" lon="7.23668">
        <ele>659</ele>
        <time>2018-05-13T11:48:50.000Z</time>
      </trkpt>
      <trkpt lat="43.86147" lon="7.23668">
        <ele>659</ele>
        <time>2018-05-13T11:48:53.000Z</time>
      </trkpt>
      <trkpt lat="43.86147" lon="7.23665">
        <ele>650</ele>
        <time>2018-05-13T11:49:01.000Z</time>
      </trkpt>
      <trkpt lat="43.86149" lon="7.23668">
        <ele>658</ele>
        <time>2018-05-13T11:49:05.000Z</time>
      </trkpt>
      <trkpt lat="43.86149" lon="7.2367">
        <ele>658</ele>
        <time>2018-05-13T11:49:07.000Z</time>
      </trkpt>
      <trkpt lat="43.86154" lon="7.2368">
        <ele>658</ele>
        <time>2018-05-13T11:49:13.000Z</time>
      </trkpt>
      <trkpt lat="43.86154" lon="7.23682">
        <ele>659</ele>
        <time>2018-05-13T11:49:14.000Z</time>
      </trkpt>
      <trkpt lat="43.86155" lon="7.23688">
        <ele>660</ele>
        <time>2018-05-13T11:49:17.000Z</time>
      </trkpt>
      <trkpt lat="43.86155" lon="7.23693">
        <ele>661</ele>
        <time>2018-05-13T11:49:19.000Z</time>
      </trkpt>
      <trkpt lat="43.86156" lon="7.23698">
        <ele>661</ele>
        <time>2018-05-13T11:49:21.000Z</time>
      </trkpt>
      <trkpt lat="43.86156" lon="7.23717">
        <ele>663</ele>
        <time>2018-05-13T11:49:27.000Z</time>
      </trkpt>
      <trkpt lat="43.86153" lon="7.23744">
        <ele>664</ele>
        <time>2018-05-13T11:49:34.000Z</time>
      </trkpt>
      <trkpt lat="43.86147" lon="7.23765">
        <ele>671</ele>
        <time>2018-05-13T11:49:40.000Z</time>
      </trkpt>
      <trkpt lat="43.86141" lon="7.23786">
        <ele>674</ele>
        <time>2018-05-13T11:49:47.000Z</time>
      </trkpt>
      <trkpt lat="43.86139" lon="7.23797">
        <ele>675</ele>
        <time>2018-05-13T11:49:51.000Z</time>
      </trkpt>
      <trkpt lat="43.86136" lon="7.23805">
        <ele>676</ele>
        <time>2018-05-13T11:49:54.000Z</time>
      </trkpt>
      <trkpt lat="43.86132" lon="7.23817">
        <ele>677</ele>
        <time>2018-05-13T11:49:59.000Z</time>
      </trkpt>
      <trkpt lat="43.86131" lon="7.23824">
        <ele>677</ele>
        <time>2018-05-13T11:50:02.000Z</time>
      </trkpt>
      <trkpt lat="43.86127" lon="7.23838">
        <ele>681</ele>
        <time>2018-05-13T11:50:08.000Z</time>
      </trkpt>
      <trkpt lat="43.86127" lon="7.23844">
        <ele>681</ele>
        <time>2018-05-13T11:50:11.000Z</time>
      </trkpt>
      <trkpt lat="43.86127" lon="7.2385">
        <ele>682</ele>
        <time>2018-05-13T11:50:14.000Z</time>
      </trkpt>
      <trkpt lat="43.86129" lon="7.2386">
        <ele>682</ele>
        <time>2018-05-13T11:50:19.000Z</time>
      </trkpt>
      <trkpt lat="43.8613" lon="7.23867">
        <ele>682</ele>
        <time>2018-05-13T11:50:23.000Z</time>
      </trkpt>
      <trkpt lat="43.86132" lon="7.23875">
        <ele>682</ele>
        <time>2018-05-13T11:50:27.000Z</time>
      </trkpt>
      <trkpt lat="43.86132" lon="7.23876">
        <ele>682</ele>
        <time>2018-05-13T11:50:28.000Z</time>
      </trkpt>
      <trkpt lat="43.86132" lon="7.23882">
        <ele>682</ele>
        <time>2018-05-13T11:50:31.000Z</time>
      </trkpt>
      <trkpt lat="43.86133" lon="7.23887">
        <ele>682</ele>
        <time>2018-05-13T11:50:34.000Z</time>
      </trkpt>
      <trkpt lat="43.86133" lon="7.23888">
        <ele>682</ele>
        <time>2018-05-13T11:50:35.000Z</time>
      </trkpt>
      <trkpt lat="43.86134" lon="7.23897">
        <ele>682</ele>
        <time>2018-05-13T11:50:39.000Z</time>
      </trkpt>
      <trkpt lat="43.86135" lon="7.239">
        <ele>682</ele>
        <time>2018-05-13T11:50:41.000Z</time>
      </trkpt>
      <trkpt lat="43.86134" lon="7.23908">
        <ele>682</ele>
        <time>2018-05-13T11:50:46.000Z</time>
      </trkpt>
      <trkpt lat="43.86133" lon="7.23912">
        <ele>682</ele>
        <time>2018-05-13T11:50:49.000Z</time>
      </trkpt>
      <trkpt lat="43.86133" lon="7.23913">
        <ele>682</ele>
        <time>2018-05-13T11:50:50.000Z</time>
      </trkpt>
      <trkpt lat="43.86131" lon="7.2392">
        <ele>683</ele>
        <time>2018-05-13T11:50:56.000Z</time>
      </trkpt>
      <trkpt lat="43.86131" lon="7.23922">
        <ele>683</ele>
        <time>2018-05-13T11:50:57.000Z</time>
      </trkpt>
      <trkpt lat="43.86131" lon="7.2393">
        <ele>683</ele>
        <time>2018-05-13T11:51:03.000Z</time>
      </trkpt>
      <trkpt lat="43.86131" lon="7.23933">
        <ele>683</ele>
        <time>2018-05-13T11:51:05.000Z</time>
      </trkpt>
      <trkpt lat="43.86133" lon="7.2394">
        <ele>683</ele>
        <time>2018-05-13T11:51:10.000Z</time>
      </trkpt>
      <trkpt lat="43.86133" lon="7.23944">
        <ele>683</ele>
        <time>2018-05-13T11:51:12.000Z</time>
      </trkpt>
      <trkpt lat="43.86134" lon="7.23946">
        <ele>683</ele>
        <time>2018-05-13T11:51:14.000Z</time>
      </trkpt>
      <trkpt lat="43.86135" lon="7.23952">
        <ele>683</ele>
        <time>2018-05-13T11:51:18.000Z</time>
      </trkpt>
      <trkpt lat="43.86136" lon="7.23954">
        <ele>683</ele>
        <time>2018-05-13T11:51:19.000Z</time>
      </trkpt>
      <trkpt lat="43.86136" lon="7.23955">
        <ele>683</ele>
        <time>2018-05-13T11:51:20.000Z</time>
      </trkpt>
      <trkpt lat="43.86139" lon="7.23966">
        <ele>683</ele>
        <time>2018-05-13T11:51:25.000Z</time>
      </trkpt>
      <trkpt lat="43.86141" lon="7.23973">
        <ele>683</ele>
        <time>2018-05-13T11:51:28.000Z</time>
      </trkpt>
      <trkpt lat="43.86142" lon="7.23985">
        <ele>684</ele>
        <time>2018-05-13T11:51:33.000Z</time>
      </trkpt>
      <trkpt lat="43.86141" lon="7.2399">
        <ele>684</ele>
        <time>2018-05-13T11:51:35.000Z</time>
      </trkpt>
      <trkpt lat="43.86139" lon="7.23996">
        <ele>684</ele>
        <time>2018-05-13T11:51:39.000Z</time>
      </trkpt>
      <trkpt lat="43.86139" lon="7.23999">
        <ele>684</ele>
        <time>2018-05-13T11:51:41.000Z</time>
      </trkpt>
      <trkpt lat="43.86136" lon="7.24005">
        <ele>682</ele>
        <time>2018-05-13T11:51:45.000Z</time>
      </trkpt>
      <trkpt lat="43.86135" lon="7.24007">
        <ele>682</ele>
        <time>2018-05-13T11:51:46.000Z</time>
      </trkpt>
      <trkpt lat="43.86133" lon="7.24026">
        <ele>681</ele>
        <time>2018-05-13T11:51:51.000Z</time>
      </trkpt>
      <trkpt lat="43.86135" lon="7.24035">
        <ele>681</ele>
        <time>2018-05-13T11:51:53.000Z</time>
      </trkpt>
      <trkpt lat="43.8614" lon="7.24043">
        <ele>681</ele>
        <time>2018-05-13T11:51:55.000Z</time>
      </trkpt>
      <trkpt lat="43.86148" lon="7.24059">
        <ele>681</ele>
        <time>2018-05-13T11:51:58.000Z</time>
      </trkpt>
      <trkpt lat="43.86152" lon="7.24077">
        <ele>682</ele>
        <time>2018-05-13T11:52:01.000Z</time>
      </trkpt>
      <trkpt lat="43.86153" lon="7.24083">
        <ele>680</ele>
        <time>2018-05-13T11:52:02.000Z</time>
      </trkpt>
      <trkpt lat="43.86152" lon="7.24104">
        <ele>678</ele>
        <time>2018-05-13T11:52:05.000Z</time>
      </trkpt>
      <trkpt lat="43.86157" lon="7.24119">
        <ele>677</ele>
        <time>2018-05-13T11:52:07.000Z</time>
      </trkpt>
      <trkpt lat="43.86161" lon="7.24125">
        <ele>676</ele>
        <time>2018-05-13T11:52:08.000Z</time>
      </trkpt>
      <trkpt lat="43.86178" lon="7.2414">
        <ele>683</ele>
        <time>2018-05-13T11:52:11.000Z</time>
      </trkpt>
      <trkpt lat="43.86183" lon="7.24144">
        <ele>683</ele>
        <time>2018-05-13T11:52:12.000Z</time>
      </trkpt>
      <trkpt lat="43.86192" lon="7.24155">
        <ele>684</ele>
        <time>2018-05-13T11:52:14.000Z</time>
      </trkpt>
      <trkpt lat="43.86196" lon="7.2416">
        <ele>684</ele>
        <time>2018-05-13T11:52:15.000Z</time>
      </trkpt>
      <trkpt lat="43.862" lon="7.24173">
        <ele>685</ele>
        <time>2018-05-13T11:52:17.000Z</time>
      </trkpt>
      <trkpt lat="43.86198" lon="7.242">
        <ele>685</ele>
        <time>2018-05-13T11:52:21.000Z</time>
      </trkpt>
      <trkpt lat="43.86198" lon="7.24214">
        <ele>685</ele>
        <time>2018-05-13T11:52:23.000Z</time>
      </trkpt>
      <trkpt lat="43.86197" lon="7.24219">
        <ele>685</ele>
        <time>2018-05-13T11:52:24.000Z</time>
      </trkpt>
      <trkpt lat="43.86196" lon="7.24224">
        <ele>685</ele>
        <time>2018-05-13T11:52:25.000Z</time>
      </trkpt>
      <trkpt lat="43.86195" lon="7.24227">
        <ele>685</ele>
        <time>2018-05-13T11:52:26.000Z</time>
      </trkpt>
      <trkpt lat="43.86193" lon="7.2424">
        <ele>684</ele>
        <time>2018-05-13T11:52:30.000Z</time>
      </trkpt>
      <trkpt lat="43.86191" lon="7.24262">
        <ele>685</ele>
        <time>2018-05-13T11:52:38.000Z</time>
      </trkpt>
      <trkpt lat="43.86191" lon="7.24265">
        <ele>686</ele>
        <time>2018-05-13T11:52:39.000Z</time>
      </trkpt>
      <trkpt lat="43.86195" lon="7.24272">
        <ele>687</ele>
        <time>2018-05-13T11:52:44.000Z</time>
      </trkpt>
      <trkpt lat="43.86196" lon="7.24274">
        <ele>687</ele>
        <time>2018-05-13T11:52:45.000Z</time>
      </trkpt>
      <trkpt lat="43.86197" lon="7.24284">
        <ele>688</ele>
        <time>2018-05-13T11:52:50.000Z</time>
      </trkpt>
      <trkpt lat="43.86198" lon="7.24302">
        <ele>689</ele>
        <time>2018-05-13T11:52:58.000Z</time>
      </trkpt>
      <trkpt lat="43.86196" lon="7.24322">
        <ele>688</ele>
        <time>2018-05-13T11:53:06.000Z</time>
      </trkpt>
      <trkpt lat="43.86197" lon="7.24333">
        <ele>688</ele>
        <time>2018-05-13T11:53:10.000Z</time>
      </trkpt>
      <trkpt lat="43.86198" lon="7.24339">
        <ele>692</ele>
        <time>2018-05-13T11:53:12.000Z</time>
      </trkpt>
      <trkpt lat="43.862" lon="7.24348">
        <ele>693</ele>
        <time>2018-05-13T11:53:17.000Z</time>
      </trkpt>
      <trkpt lat="43.862" lon="7.2435">
        <ele>693</ele>
        <time>2018-05-13T11:53:18.000Z</time>
      </trkpt>
      <trkpt lat="43.86201" lon="7.24355">
        <ele>693</ele>
        <time>2018-05-13T11:53:21.000Z</time>
      </trkpt>
      <trkpt lat="43.86199" lon="7.24363">
        <ele>693</ele>
        <time>2018-05-13T11:53:25.000Z</time>
      </trkpt>
      <trkpt lat="43.86198" lon="7.2437">
        <ele>693</ele>
        <time>2018-05-13T11:53:28.000Z</time>
      </trkpt>
      <trkpt lat="43.86196" lon="7.24382">
        <ele>694</ele>
        <time>2018-05-13T11:53:33.000Z</time>
      </trkpt>
      <trkpt lat="43.86191" lon="7.2441">
        <ele>692</ele>
        <time>2018-05-13T11:53:42.000Z</time>
      </trkpt>
      <trkpt lat="43.8619" lon="7.24421">
        <ele>693</ele>
        <time>2018-05-13T11:53:45.000Z</time>
      </trkpt>
      <trkpt lat="43.86188" lon="7.24438">
        <ele>694</ele>
        <time>2018-05-13T11:53:50.000Z</time>
      </trkpt>
      <trkpt lat="43.86189" lon="7.24443">
        <ele>694</ele>
        <time>2018-05-13T11:53:52.000Z</time>
      </trkpt>
      <trkpt lat="43.86189" lon="7.24455">
        <ele>695</ele>
        <time>2018-05-13T11:53:56.000Z</time>
      </trkpt>
      <trkpt lat="43.86194" lon="7.24474">
        <ele>695</ele>
        <time>2018-05-13T11:54:04.000Z</time>
      </trkpt>
      <trkpt lat="43.86198" lon="7.24485">
        <ele>696</ele>
        <time>2018-05-13T11:54:09.000Z</time>
      </trkpt>
      <trkpt lat="43.862" lon="7.24493">
        <ele>696</ele>
        <time>2018-05-13T11:54:12.000Z</time>
      </trkpt>
      <trkpt lat="43.86208" lon="7.24525">
        <ele>697</ele>
        <time>2018-05-13T11:54:20.000Z</time>
      </trkpt>
      <trkpt lat="43.86209" lon="7.24555">
        <ele>697</ele>
        <time>2018-05-13T11:54:27.000Z</time>
      </trkpt>
      <trkpt lat="43.8621" lon="7.24589">
        <ele>699</ele>
        <time>2018-05-13T11:54:34.000Z</time>
      </trkpt>
      <trkpt lat="43.86209" lon="7.24621">
        <ele>700</ele>
        <time>2018-05-13T11:54:41.000Z</time>
      </trkpt>
      <trkpt lat="43.862" lon="7.24643">
        <ele>699</ele>
        <time>2018-05-13T11:54:46.000Z</time>
      </trkpt>
      <trkpt lat="43.86182" lon="7.24663">
        <ele>695</ele>
        <time>2018-05-13T11:54:52.000Z</time>
      </trkpt>
      <trkpt lat="43.86169" lon="7.24687">
        <ele>702</ele>
        <time>2018-05-13T11:54:59.000Z</time>
      </trkpt>
      <trkpt lat="43.86162" lon="7.24702">
        <ele>692</ele>
        <time>2018-05-13T11:55:04.000Z</time>
      </trkpt>
      <trkpt lat="43.8616" lon="7.24709">
        <ele>693</ele>
        <time>2018-05-13T11:55:06.000Z</time>
      </trkpt>
      <trkpt lat="43.8615" lon="7.24735">
        <ele>696</ele>
        <time>2018-05-13T11:55:14.000Z</time>
      </trkpt>
      <trkpt lat="43.86141" lon="7.24762">
        <ele>703</ele>
        <time>2018-05-13T11:55:22.000Z</time>
      </trkpt>
      <trkpt lat="43.86139" lon="7.24769">
        <ele>703</ele>
        <time>2018-05-13T11:55:25.000Z</time>
      </trkpt>
      <trkpt lat="43.86135" lon="7.24777">
        <ele>703</ele>
        <time>2018-05-13T11:55:29.000Z</time>
      </trkpt>
      <trkpt lat="43.86133" lon="7.24781">
        <ele>703</ele>
        <time>2018-05-13T11:55:31.000Z</time>
      </trkpt>
      <trkpt lat="43.86128" lon="7.24794">
        <ele>703</ele>
        <time>2018-05-13T11:55:37.000Z</time>
      </trkpt>
      <trkpt lat="43.86127" lon="7.24798">
        <ele>703</ele>
        <time>2018-05-13T11:55:39.000Z</time>
      </trkpt>
      <trkpt lat="43.86124" lon="7.24812">
        <ele>704</ele>
        <time>2018-05-13T11:55:45.000Z</time>
      </trkpt>
      <trkpt lat="43.86123" lon="7.24814">
        <ele>704</ele>
        <time>2018-05-13T11:55:46.000Z</time>
      </trkpt>
      <trkpt lat="43.86122" lon="7.2482">
        <ele>704</ele>
        <time>2018-05-13T11:55:49.000Z</time>
      </trkpt>
      <trkpt lat="43.86118" lon="7.24831">
        <ele>704</ele>
        <time>2018-05-13T11:55:54.000Z</time>
      </trkpt>
      <trkpt lat="43.86117" lon="7.24833">
        <ele>704</ele>
        <time>2018-05-13T11:55:55.000Z</time>
      </trkpt>
      <trkpt lat="43.86106" lon="7.24853">
        <ele>706</ele>
        <time>2018-05-13T11:56:04.000Z</time>
      </trkpt>
      <trkpt lat="43.86101" lon="7.24876">
        <ele>705</ele>
        <time>2018-05-13T11:56:10.000Z</time>
      </trkpt>
      <trkpt lat="43.86103" lon="7.24907">
        <ele>703</ele>
        <time>2018-05-13T11:56:16.000Z</time>
      </trkpt>
      <trkpt lat="43.86104" lon="7.24913">
        <ele>703</ele>
        <time>2018-05-13T11:56:17.000Z</time>
      </trkpt>
      <trkpt lat="43.86112" lon="7.24939">
        <ele>702</ele>
        <time>2018-05-13T11:56:21.000Z</time>
      </trkpt>
      <trkpt lat="43.86115" lon="7.24945">
        <ele>702</ele>
        <time>2018-05-13T11:56:22.000Z</time>
      </trkpt>
      <trkpt lat="43.86123" lon="7.24978">
        <ele>701</ele>
        <time>2018-05-13T11:56:26.000Z</time>
      </trkpt>
      <trkpt lat="43.86124" lon="7.24988">
        <ele>701</ele>
        <time>2018-05-13T11:56:27.000Z</time>
      </trkpt>
      <trkpt lat="43.86126" lon="7.24999">
        <ele>701</ele>
        <time>2018-05-13T11:56:28.000Z</time>
      </trkpt>
      <trkpt lat="43.8613" lon="7.2502">
        <ele>696</ele>
        <time>2018-05-13T11:56:30.000Z</time>
      </trkpt>
      <trkpt lat="43.86134" lon="7.25032">
        <ele>695</ele>
        <time>2018-05-13T11:56:31.000Z</time>
      </trkpt>
      <trkpt lat="43.86148" lon="7.25069">
        <ele>695</ele>
        <time>2018-05-13T11:56:34.000Z</time>
      </trkpt>
      <trkpt lat="43.86153" lon="7.2508">
        <ele>696</ele>
        <time>2018-05-13T11:56:35.000Z</time>
      </trkpt>
      <trkpt lat="43.86156" lon="7.25093">
        <ele>693</ele>
        <time>2018-05-13T11:56:36.000Z</time>
      </trkpt>
      <trkpt lat="43.86162" lon="7.25118">
        <ele>690</ele>
        <time>2018-05-13T11:56:38.000Z</time>
      </trkpt>
      <trkpt lat="43.86163" lon="7.2513">
        <ele>689</ele>
        <time>2018-05-13T11:56:39.000Z</time>
      </trkpt>
      <trkpt lat="43.86163" lon="7.25142">
        <ele>689</ele>
        <time>2018-05-13T11:56:40.000Z</time>
      </trkpt>
      <trkpt lat="43.86162" lon="7.25164">
        <ele>691</ele>
        <time>2018-05-13T11:56:42.000Z</time>
      </trkpt>
      <trkpt lat="43.86161" lon="7.25187">
        <ele>691</ele>
        <time>2018-05-13T11:56:44.000Z</time>
      </trkpt>
      <trkpt lat="43.86159" lon="7.25198">
        <ele>691</ele>
        <time>2018-05-13T11:56:45.000Z</time>
      </trkpt>
      <trkpt lat="43.86159" lon="7.25218">
        <ele>692</ele>
        <time>2018-05-13T11:56:47.000Z</time>
      </trkpt>
      <trkpt lat="43.86161" lon="7.2524">
        <ele>695</ele>
        <time>2018-05-13T11:56:49.000Z</time>
      </trkpt>
      <trkpt lat="43.86159" lon="7.25253">
        <ele>698</ele>
        <time>2018-05-13T11:56:51.000Z</time>
      </trkpt>
      <trkpt lat="43.86156" lon="7.25259">
        <ele>699</ele>
        <time>2018-05-13T11:56:52.000Z</time>
      </trkpt>
      <trkpt lat="43.8615" lon="7.25264">
        <ele>699</ele>
        <time>2018-05-13T11:56:53.000Z</time>
      </trkpt>
      <trkpt lat="43.86138" lon="7.25274">
        <ele>700</ele>
        <time>2018-05-13T11:56:55.000Z</time>
      </trkpt>
      <trkpt lat="43.86132" lon="7.25281">
        <ele>701</ele>
        <time>2018-05-13T11:56:56.000Z</time>
      </trkpt>
      <trkpt lat="43.86125" lon="7.25287">
        <ele>702</ele>
        <time>2018-05-13T11:56:58.000Z</time>
      </trkpt>
      <trkpt lat="43.86121" lon="7.25288">
        <ele>702</ele>
        <time>2018-05-13T11:57:01.000Z</time>
      </trkpt>
      <trkpt lat="43.8612" lon="7.25286">
        <ele>702</ele>
        <time>2018-05-13T11:57:05.000Z</time>
      </trkpt>
      <trkpt lat="43.86119" lon="7.25284">
        <ele>702</ele>
        <time>2018-05-13T11:57:07.000Z</time>
      </trkpt>
      <trkpt lat="43.86117" lon="7.25282">
        <ele>701</ele>
        <time>2018-05-13T11:57:10.000Z</time>
      </trkpt>
      <trkpt lat="43.86115" lon="7.25278">
        <ele>701</ele>
        <time>2018-05-13T11:57:16.000Z</time>
      </trkpt>
      <trkpt lat="43.86113" lon="7.25273">
        <ele>701</ele>
        <time>2018-05-13T11:57:20.000Z</time>
      </trkpt>
      <trkpt lat="43.86115" lon="7.25265">
        <ele>700</ele>
        <time>2018-05-13T11:57:25.000Z</time>
      </trkpt>
      <trkpt lat="43.86113" lon="7.25264">
        <ele>700</ele>
        <time>2018-05-13T11:57:30.000Z</time>
      </trkpt>
      <trkpt lat="43.86111" lon="7.25268">
        <ele>700</ele>
        <time>2018-05-13T11:57:36.000Z</time>
      </trkpt>
      <trkpt lat="43.8611" lon="7.2527">
        <ele>700</ele>
        <time>2018-05-13T11:57:38.000Z</time>
      </trkpt>
      <trkpt lat="43.86109" lon="7.25272">
        <ele>701</ele>
        <time>2018-05-13T11:57:40.000Z</time>
      </trkpt>
      <trkpt lat="43.86106" lon="7.25273">
        <ele>701</ele>
        <time>2018-05-13T11:57:46.000Z</time>
      </trkpt>
      <trkpt lat="43.86105" lon="7.25272">
        <ele>701</ele>
        <time>2018-05-13T11:57:47.000Z</time>
      </trkpt>
      <trkpt lat="43.86105" lon="7.25272">
        <ele>700</ele>
        <time>2018-05-13T11:57:48.000Z</time>
      </trkpt>
      <trkpt lat="43.86101" lon="7.25269">
        <ele>700</ele>
        <time>2018-05-13T11:57:52.000Z</time>
      </trkpt>
      <trkpt lat="43.86099" lon="7.25268">
        <ele>700</ele>
        <time>2018-05-13T11:57:54.000Z</time>
      </trkpt>
      <trkpt lat="43.86096" lon="7.25266">
        <ele>699</ele>
        <time>2018-05-13T11:58:00.000Z</time>
      </trkpt>
      <trkpt lat="43.86096" lon="7.25266">
        <ele>699</ele>
        <time>2018-05-13T11:58:01.000Z</time>
      </trkpt>
      <trkpt lat="43.86095" lon="7.25265">
        <ele>699</ele>
        <time>2018-05-13T11:58:02.000Z</time>
      </trkpt>
      <trkpt lat="43.8609" lon="7.25262">
        <ele>698</ele>
        <time>2018-05-13T11:58:05.000Z</time>
      </trkpt>
      <trkpt lat="43.86089" lon="7.25261">
        <ele>698</ele>
        <time>2018-05-13T11:58:06.000Z</time>
      </trkpt>
      <trkpt lat="43.86079" lon="7.25257">
        <ele>700</ele>
        <time>2018-05-13T11:58:13.000Z</time>
      </trkpt>
      <trkpt lat="43.86078" lon="7.25256">
        <ele>700</ele>
        <time>2018-05-13T11:58:14.000Z</time>
      </trkpt>
      <trkpt lat="43.86072" lon="7.25256">
        <ele>702</ele>
        <time>2018-05-13T11:58:19.000Z</time>
      </trkpt>
      <trkpt lat="43.86069" lon="7.25256">
        <ele>703</ele>
        <time>2018-05-13T11:58:21.000Z</time>
      </trkpt>
      <trkpt lat="43.86058" lon="7.25257">
        <ele>706</ele>
        <time>2018-05-13T11:58:28.000Z</time>
      </trkpt>
      <trkpt lat="43.86043" lon="7.25261">
        <ele>709</ele>
        <time>2018-05-13T11:58:33.000Z</time>
      </trkpt>
      <trkpt lat="43.86026" lon="7.25265">
        <ele>711</ele>
        <time>2018-05-13T11:58:38.000Z</time>
      </trkpt>
      <trkpt lat="43.86022" lon="7.25267">
        <ele>712</ele>
        <time>2018-05-13T11:58:39.000Z</time>
      </trkpt>
      <trkpt lat="43.86014" lon="7.25271">
        <ele>712</ele>
        <time>2018-05-13T11:58:42.000Z</time>
      </trkpt>
      <trkpt lat="43.86011" lon="7.25274">
        <ele>712</ele>
        <time>2018-05-13T11:58:43.000Z</time>
      </trkpt>
      <trkpt lat="43.86005" lon="7.25276">
        <ele>713</ele>
        <time>2018-05-13T11:58:45.000Z</time>
      </trkpt>
      <trkpt lat="43.86004" lon="7.25272">
        <ele>713</ele>
        <time>2018-05-13T11:58:46.000Z</time>
      </trkpt>
      <trkpt lat="43.86004" lon="7.25268">
        <ele>712</ele>
        <time>2018-05-13T11:58:47.000Z</time>
      </trkpt>
      <trkpt lat="43.86004" lon="7.25261">
        <ele>712</ele>
        <time>2018-05-13T11:58:49.000Z</time>
      </trkpt>
      <trkpt lat="43.86003" lon="7.2526">
        <ele>712</ele>
        <time>2018-05-13T11:58:50.000Z</time>
      </trkpt>
      <trkpt lat="43.86005" lon="7.25251">
        <ele>712</ele>
        <time>2018-05-13T11:58:56.000Z</time>
      </trkpt>
      <trkpt lat="43.86006" lon="7.25249">
        <ele>708</ele>
        <time>2018-05-13T11:58:58.000Z</time>
      </trkpt>
      <trkpt lat="43.86007" lon="7.25244">
        <ele>707</ele>
        <time>2018-05-13T11:59:01.000Z</time>
      </trkpt>
      <trkpt lat="43.86008" lon="7.2524">
        <ele>705</ele>
        <time>2018-05-13T11:59:03.000Z</time>
      </trkpt>
      <trkpt lat="43.86009" lon="7.25239">
        <ele>705</ele>
        <time>2018-05-13T11:59:04.000Z</time>
      </trkpt>
      <trkpt lat="43.8601" lon="7.25234">
        <ele>703</ele>
        <time>2018-05-13T11:59:07.000Z</time>
      </trkpt>
      <trkpt lat="43.86011" lon="7.25232">
        <ele>702</ele>
        <time>2018-05-13T11:59:08.000Z</time>
      </trkpt>
      <trkpt lat="43.86014" lon="7.25226">
        <ele>700</ele>
        <time>2018-05-13T11:59:12.000Z</time>
      </trkpt>
      <trkpt lat="43.86016" lon="7.25225">
        <ele>700</ele>
        <time>2018-05-13T11:59:13.000Z</time>
      </trkpt>
      <trkpt lat="43.86021" lon="7.25218">
        <ele>698</ele>
        <time>2018-05-13T11:59:19.000Z</time>
      </trkpt>
      <trkpt lat="43.86022" lon="7.25217">
        <ele>698</ele>
        <time>2018-05-13T11:59:20.000Z</time>
      </trkpt>
      <trkpt lat="43.86022" lon="7.25215">
        <ele>698</ele>
        <time>2018-05-13T11:59:21.000Z</time>
      </trkpt>
      <trkpt lat="43.86021" lon="7.25207">
        <ele>697</ele>
        <time>2018-05-13T11:59:25.000Z</time>
      </trkpt>
      <trkpt lat="43.8602" lon="7.25205">
        <ele>697</ele>
        <time>2018-05-13T11:59:26.000Z</time>
      </trkpt>
      <trkpt lat="43.86013" lon="7.25188">
        <ele>696</ele>
        <time>2018-05-13T11:59:32.000Z</time>
      </trkpt>
      <trkpt lat="43.86001" lon="7.2517">
        <ele>696</ele>
        <time>2018-05-13T11:59:38.000Z</time>
      </trkpt>
      <trkpt lat="43.85987" lon="7.25156">
        <ele>693</ele>
        <time>2018-05-13T11:59:42.000Z</time>
      </trkpt>
      <trkpt lat="43.85983" lon="7.25153">
        <ele>693</ele>
        <time>2018-05-13T11:59:43.000Z</time>
      </trkpt>
      <trkpt lat="43.85963" lon="7.25141">
        <ele>692</ele>
        <time>2018-05-13T11:59:48.000Z</time>
      </trkpt>
      <trkpt lat="43.85957" lon="7.25141">
        <ele>693</ele>
        <time>2018-05-13T11:59:49.000Z</time>
      </trkpt>
      <trkpt lat="43.85947" lon="7.25142">
        <ele>694</ele>
        <time>2018-05-13T11:59:51.000Z</time>
      </trkpt>
      <trkpt lat="43.85942" lon="7.25145">
        <ele>695</ele>
        <time>2018-05-13T11:59:52.000Z</time>
      </trkpt>
      <trkpt lat="43.85937" lon="7.25143">
        <ele>695</ele>
        <time>2018-05-13T11:59:53.000Z</time>
      </trkpt>
      <trkpt lat="43.85934" lon="7.25139">
        <ele>695</ele>
        <time>2018-05-13T11:59:54.000Z</time>
      </trkpt>
      <trkpt lat="43.85927" lon="7.2513">
        <ele>693</ele>
        <time>2018-05-13T11:59:56.000Z</time>
      </trkpt>
      <trkpt lat="43.85923" lon="7.25125">
        <ele>692</ele>
        <time>2018-05-13T11:59:57.000Z</time>
      </trkpt>
      <trkpt lat="43.85915" lon="7.25117">
        <ele>696</ele>
        <time>2018-05-13T11:59:59.000Z</time>
      </trkpt>
      <trkpt lat="43.85912" lon="7.25114">
        <ele>696</ele>
        <time>2018-05-13T12:00:00.000Z</time>
      </trkpt>
      <trkpt lat="43.85907" lon="7.25111">
        <ele>695</ele>
        <time>2018-05-13T12:00:01.000Z</time>
      </trkpt>
      <trkpt lat="43.85899" lon="7.25108">
        <ele>695</ele>
        <time>2018-05-13T12:00:03.000Z</time>
      </trkpt>
      <trkpt lat="43.85893" lon="7.25108">
        <ele>696</ele>
        <time>2018-05-13T12:00:05.000Z</time>
      </trkpt>
      <trkpt lat="43.85886" lon="7.25095">
        <ele>695</ele>
        <time>2018-05-13T12:00:08.000Z</time>
      </trkpt>
      <trkpt lat="43.85882" lon="7.25091">
        <ele>695</ele>
        <time>2018-05-13T12:00:09.000Z</time>
      </trkpt>
      <trkpt lat="43.85874" lon="7.25084">
        <ele>695</ele>
        <time>2018-05-13T12:00:11.000Z</time>
      </trkpt>
      <trkpt lat="43.85871" lon="7.25081">
        <ele>677</ele>
        <time>2018-05-13T12:00:12.000Z</time>
      </trkpt>
      <trkpt lat="43.85864" lon="7.25071">
        <ele>677</ele>
        <time>2018-05-13T12:00:14.000Z</time>
      </trkpt>
      <trkpt lat="43.85855" lon="7.2506">
        <ele>677</ele>
        <time>2018-05-13T12:00:16.000Z</time>
      </trkpt>
      <trkpt lat="43.85847" lon="7.25053">
        <ele>676</ele>
        <time>2018-05-13T12:00:18.000Z</time>
      </trkpt>
      <trkpt lat="43.85842" lon="7.2505">
        <ele>675</ele>
        <time>2018-05-13T12:00:19.000Z</time>
      </trkpt>
      <trkpt lat="43.85838" lon="7.25047">
        <ele>675</ele>
        <time>2018-05-13T12:00:20.000Z</time>
      </trkpt>
      <trkpt lat="43.85835" lon="7.25043">
        <ele>674</ele>
        <time>2018-05-13T12:00:21.000Z</time>
      </trkpt>
      <trkpt lat="43.85827" lon="7.25036">
        <ele>676</ele>
        <time>2018-05-13T12:00:23.000Z</time>
      </trkpt>
      <trkpt lat="43.85824" lon="7.25033">
        <ele>675</ele>
        <time>2018-05-13T12:00:24.000Z</time>
      </trkpt>
      <trkpt lat="43.8582" lon="7.25029">
        <ele>675</ele>
        <time>2018-05-13T12:00:25.000Z</time>
      </trkpt>
      <trkpt lat="43.85812" lon="7.25026">
        <ele>675</ele>
        <time>2018-05-13T12:00:28.000Z</time>
      </trkpt>
      <trkpt lat="43.858" lon="7.25025">
        <ele>675</ele>
        <time>2018-05-13T12:00:33.000Z</time>
      </trkpt>
      <trkpt lat="43.85787" lon="7.25022">
        <ele>676</ele>
        <time>2018-05-13T12:00:39.000Z</time>
      </trkpt>
      <trkpt lat="43.8577" lon="7.25018">
        <ele>675</ele>
        <time>2018-05-13T12:00:45.000Z</time>
      </trkpt>
      <trkpt lat="43.8575" lon="7.25015">
        <ele>673</ele>
        <time>2018-05-13T12:00:51.000Z</time>
      </trkpt>
      <trkpt lat="43.85729" lon="7.25012">
        <ele>677</ele>
        <time>2018-05-13T12:00:57.000Z</time>
      </trkpt>
      <trkpt lat="43.85707" lon="7.25009">
        <ele>678</ele>
        <time>2018-05-13T12:01:03.000Z</time>
      </trkpt>
      <trkpt lat="43.85702" lon="7.25012">
        <ele>678</ele>
        <time>2018-05-13T12:01:05.000Z</time>
      </trkpt>
      <trkpt lat="43.85696" lon="7.25013">
        <ele>678</ele>
        <time>2018-05-13T12:01:07.000Z</time>
      </trkpt>
      <trkpt lat="43.85685" lon="7.25014">
        <ele>676</ele>
        <time>2018-05-13T12:01:12.000Z</time>
      </trkpt>
      <trkpt lat="43.85679" lon="7.25012">
        <ele>675</ele>
        <time>2018-05-13T12:01:14.000Z</time>
      </trkpt>
      <trkpt lat="43.85673" lon="7.25009">
        <ele>672</ele>
        <time>2018-05-13T12:01:16.000Z</time>
      </trkpt>
      <trkpt lat="43.85659" lon="7.2501">
        <ele>676</ele>
        <time>2018-05-13T12:01:20.000Z</time>
      </trkpt>
      <trkpt lat="43.85641" lon="7.25016">
        <ele>683</ele>
        <time>2018-05-13T12:01:26.000Z</time>
      </trkpt>
      <trkpt lat="43.85637" lon="7.25017">
        <ele>684</ele>
        <time>2018-05-13T12:01:27.000Z</time>
      </trkpt>
      <trkpt lat="43.85636" lon="7.25012">
        <ele>683</ele>
        <time>2018-05-13T12:01:29.000Z</time>
      </trkpt>
      <trkpt lat="43.8563" lon="7.25002">
        <ele>684</ele>
        <time>2018-05-13T12:01:32.000Z</time>
      </trkpt>
      <trkpt lat="43.85627" lon="7.25">
        <ele>665</ele>
        <time>2018-05-13T12:01:33.000Z</time>
      </trkpt>
      <trkpt lat="43.85615" lon="7.24995">
        <ele>667</ele>
        <time>2018-05-13T12:01:38.000Z</time>
      </trkpt>
      <trkpt lat="43.85607" lon="7.24995">
        <ele>669</ele>
        <time>2018-05-13T12:01:43.000Z</time>
      </trkpt>
      <trkpt lat="43.85606" lon="7.24996">
        <ele>669</ele>
        <time>2018-05-13T12:01:44.000Z</time>
      </trkpt>
      <trkpt lat="43.85602" lon="7.24998">
        <ele>671</ele>
        <time>2018-05-13T12:01:47.000Z</time>
      </trkpt>
      <trkpt lat="43.856" lon="7.24997">
        <ele>672</ele>
        <time>2018-05-13T12:01:48.000Z</time>
      </trkpt>
      <trkpt lat="43.85599" lon="7.24995">
        <ele>672</ele>
        <time>2018-05-13T12:01:49.000Z</time>
      </trkpt>
      <trkpt lat="43.85594" lon="7.24994">
        <ele>674</ele>
        <time>2018-05-13T12:01:52.000Z</time>
      </trkpt>
      <trkpt lat="43.85591" lon="7.24994">
        <ele>675</ele>
        <time>2018-05-13T12:01:54.000Z</time>
      </trkpt>
      <trkpt lat="43.85583" lon="7.24992">
        <ele>680</ele>
        <time>2018-05-13T12:01:59.000Z</time>
      </trkpt>
      <trkpt lat="43.85576" lon="7.24992">
        <ele>679</ele>
        <time>2018-05-13T12:02:03.000Z</time>
      </trkpt>
      <trkpt lat="43.85569" lon="7.24992">
        <ele>678</ele>
        <time>2018-05-13T12:02:07.000Z</time>
      </trkpt>
      <trkpt lat="43.85567" lon="7.24992">
        <ele>678</ele>
        <time>2018-05-13T12:02:08.000Z</time>
      </trkpt>
      <trkpt lat="43.85561" lon="7.24991">
        <ele>678</ele>
        <time>2018-05-13T12:02:12.000Z</time>
      </trkpt>
      <trkpt lat="43.85554" lon="7.2499">
        <ele>678</ele>
        <time>2018-05-13T12:02:16.000Z</time>
      </trkpt>
      <trkpt lat="43.85551" lon="7.24989">
        <ele>678</ele>
        <time>2018-05-13T12:02:17.000Z</time>
      </trkpt>
      <trkpt lat="43.85542" lon="7.24984">
        <ele>678</ele>
        <time>2018-05-13T12:02:21.000Z</time>
      </trkpt>
      <trkpt lat="43.85529" lon="7.24974">
        <ele>678</ele>
        <time>2018-05-13T12:02:26.000Z</time>
      </trkpt>
      <trkpt lat="43.85523" lon="7.2497">
        <ele>678</ele>
        <time>2018-05-13T12:02:28.000Z</time>
      </trkpt>
      <trkpt lat="43.85512" lon="7.24964">
        <ele>677</ele>
        <time>2018-05-13T12:02:32.000Z</time>
      </trkpt>
      <trkpt lat="43.85502" lon="7.24953">
        <ele>674</ele>
        <time>2018-05-13T12:02:35.000Z</time>
      </trkpt>
      <trkpt lat="43.85494" lon="7.24949">
        <ele>677</ele>
        <time>2018-05-13T12:02:37.000Z</time>
      </trkpt>
      <trkpt lat="43.85484" lon="7.24942">
        <ele>675</ele>
        <time>2018-05-13T12:02:40.000Z</time>
      </trkpt>
      <trkpt lat="43.85483" lon="7.24941">
        <ele>675</ele>
        <time>2018-05-13T12:02:41.000Z</time>
      </trkpt>
      <trkpt lat="43.85475" lon="7.24936">
        <ele>674</ele>
        <time>2018-05-13T12:02:44.000Z</time>
      </trkpt>
      <trkpt lat="43.85468" lon="7.2493">
        <ele>674</ele>
        <time>2018-05-13T12:02:46.000Z</time>
      </trkpt>
      <trkpt lat="43.85464" lon="7.24927">
        <ele>674</ele>
        <time>2018-05-13T12:02:47.000Z</time>
      </trkpt>
      <trkpt lat="43.85455" lon="7.24921">
        <ele>674</ele>
        <time>2018-05-13T12:02:49.000Z</time>
      </trkpt>
      <trkpt lat="43.85446" lon="7.24915">
        <ele>656</ele>
        <time>2018-05-13T12:02:51.000Z</time>
      </trkpt>
      <trkpt lat="43.85441" lon="7.24913">
        <ele>657</ele>
        <time>2018-05-13T12:02:52.000Z</time>
      </trkpt>
      <trkpt lat="43.85433" lon="7.2491">
        <ele>658</ele>
        <time>2018-05-13T12:02:54.000Z</time>
      </trkpt>
      <trkpt lat="43.8543" lon="7.24909">
        <ele>659</ele>
        <time>2018-05-13T12:02:55.000Z</time>
      </trkpt>
      <trkpt lat="43.85427" lon="7.24908">
        <ele>660</ele>
        <time>2018-05-13T12:02:56.000Z</time>
      </trkpt>
      <trkpt lat="43.85425" lon="7.2491">
        <ele>661</ele>
        <time>2018-05-13T12:02:57.000Z</time>
      </trkpt>
      <trkpt lat="43.85422" lon="7.2491">
        <ele>662</ele>
        <time>2018-05-13T12:02:58.000Z</time>
      </trkpt>
      <trkpt lat="43.8542" lon="7.24907">
        <ele>661</ele>
        <time>2018-05-13T12:02:59.000Z</time>
      </trkpt>
      <trkpt lat="43.85419" lon="7.24906">
        <ele>661</ele>
        <time>2018-05-13T12:03:00.000Z</time>
      </trkpt>
      <trkpt lat="43.85415" lon="7.24902">
        <ele>655</ele>
        <time>2018-05-13T12:03:02.000Z</time>
      </trkpt>
      <trkpt lat="43.85414" lon="7.24897">
        <ele>652</ele>
        <time>2018-05-13T12:03:04.000Z</time>
      </trkpt>
      <trkpt lat="43.85413" lon="7.2489">
        <ele>649</ele>
        <time>2018-05-13T12:03:06.000Z</time>
      </trkpt>
      <trkpt lat="43.85412" lon="7.24885">
        <ele>647</ele>
        <time>2018-05-13T12:03:07.000Z</time>
      </trkpt>
      <trkpt lat="43.85406" lon="7.24875">
        <ele>644</ele>
        <time>2018-05-13T12:03:10.000Z</time>
      </trkpt>
      <trkpt lat="43.85405" lon="7.24866">
        <ele>642</ele>
        <time>2018-05-13T12:03:12.000Z</time>
      </trkpt>
      <trkpt lat="43.85401" lon="7.24865">
        <ele>642</ele>
        <time>2018-05-13T12:03:14.000Z</time>
      </trkpt>
      <trkpt lat="43.85394" lon="7.24868">
        <ele>642</ele>
        <time>2018-05-13T12:03:16.000Z</time>
      </trkpt>
      <trkpt lat="43.8539" lon="7.24865">
        <ele>641</ele>
        <time>2018-05-13T12:03:17.000Z</time>
      </trkpt>
      <trkpt lat="43.85387" lon="7.24863">
        <ele>640</ele>
        <time>2018-05-13T12:03:18.000Z</time>
      </trkpt>
      <trkpt lat="43.85384" lon="7.24864">
        <ele>640</ele>
        <time>2018-05-13T12:03:19.000Z</time>
      </trkpt>
      <trkpt lat="43.85378" lon="7.24867">
        <ele>640</ele>
        <time>2018-05-13T12:03:21.000Z</time>
      </trkpt>
      <trkpt lat="43.85376" lon="7.2487">
        <ele>640</ele>
        <time>2018-05-13T12:03:22.000Z</time>
      </trkpt>
      <trkpt lat="43.85373" lon="7.24876">
        <ele>640</ele>
        <time>2018-05-13T12:03:25.000Z</time>
      </trkpt>
      <trkpt lat="43.8537" lon="7.24898">
        <ele>642</ele>
        <time>2018-05-13T12:03:28.000Z</time>
      </trkpt>
      <trkpt lat="43.85368" lon="7.24903">
        <ele>643</ele>
        <time>2018-05-13T12:03:29.000Z</time>
      </trkpt>
      <trkpt lat="43.85366" lon="7.24908">
        <ele>643</ele>
        <time>2018-05-13T12:03:31.000Z</time>
      </trkpt>
      <trkpt lat="43.85365" lon="7.24909">
        <ele>642</ele>
        <time>2018-05-13T12:03:36.000Z</time>
      </trkpt>
      <trkpt lat="43.85366" lon="7.24912">
        <ele>643</ele>
        <time>2018-05-13T12:03:38.000Z</time>
      </trkpt>
      <trkpt lat="43.85368" lon="7.24915">
        <ele>643</ele>
        <time>2018-05-13T12:03:41.000Z</time>
      </trkpt>
      <trkpt lat="43.85367" lon="7.24918">
        <ele>657</ele>
        <time>2018-05-13T12:03:46.000Z</time>
      </trkpt>
      <trkpt lat="43.85362" lon="7.24927">
        <ele>657</ele>
        <time>2018-05-13T12:03:49.000Z</time>
      </trkpt>
      <trkpt lat="43.85359" lon="7.24931">
        <ele>656</ele>
        <time>2018-05-13T12:03:52.000Z</time>
      </trkpt>
      <trkpt lat="43.85358" lon="7.24934">
        <ele>656</ele>
        <time>2018-05-13T12:03:53.000Z</time>
      </trkpt>
      <trkpt lat="43.85352" lon="7.24947">
        <ele>658</ele>
        <time>2018-05-13T12:03:57.000Z</time>
      </trkpt>
      <trkpt lat="43.85347" lon="7.24953">
        <ele>659</ele>
        <time>2018-05-13T12:03:59.000Z</time>
      </trkpt>
      <trkpt lat="43.85342" lon="7.24959">
        <ele>659</ele>
        <time>2018-05-13T12:04:01.000Z</time>
      </trkpt>
      <trkpt lat="43.85339" lon="7.24963">
        <ele>660</ele>
        <time>2018-05-13T12:04:02.000Z</time>
      </trkpt>
      <trkpt lat="43.85336" lon="7.24968">
        <ele>660</ele>
        <time>2018-05-13T12:04:04.000Z</time>
      </trkpt>
      <trkpt lat="43.85335" lon="7.24971">
        <ele>661</ele>
        <time>2018-05-13T12:04:05.000Z</time>
      </trkpt>
      <trkpt lat="43.85333" lon="7.24976">
        <ele>655</ele>
        <time>2018-05-13T12:04:06.000Z</time>
      </trkpt>
      <trkpt lat="43.85331" lon="7.2498">
        <ele>656</ele>
        <time>2018-05-13T12:04:07.000Z</time>
      </trkpt>
      <trkpt lat="43.8533" lon="7.24983">
        <ele>657</ele>
        <time>2018-05-13T12:04:08.000Z</time>
      </trkpt>
      <trkpt lat="43.85327" lon="7.24988">
        <ele>658</ele>
        <time>2018-05-13T12:04:09.000Z</time>
      </trkpt>
      <trkpt lat="43.85323" lon="7.24991">
        <ele>658</ele>
        <time>2018-05-13T12:04:10.000Z</time>
      </trkpt>
      <trkpt lat="43.85317" lon="7.24991">
        <ele>658</ele>
        <time>2018-05-13T12:04:12.000Z</time>
      </trkpt>
      <trkpt lat="43.85315" lon="7.24991">
        <ele>657</ele>
        <time>2018-05-13T12:04:13.000Z</time>
      </trkpt>
      <trkpt lat="43.85313" lon="7.24991">
        <ele>657</ele>
        <time>2018-05-13T12:04:14.000Z</time>
      </trkpt>
      <trkpt lat="43.8531" lon="7.24989">
        <ele>657</ele>
        <time>2018-05-13T12:04:16.000Z</time>
      </trkpt>
      <trkpt lat="43.8531" lon="7.24986">
        <ele>657</ele>
        <time>2018-05-13T12:04:17.000Z</time>
      </trkpt>
      <trkpt lat="43.85309" lon="7.24984">
        <ele>656</ele>
        <time>2018-05-13T12:04:18.000Z</time>
      </trkpt>
      <trkpt lat="43.85306" lon="7.24976">
        <ele>655</ele>
        <time>2018-05-13T12:04:23.000Z</time>
      </trkpt>
      <trkpt lat="43.85305" lon="7.24972">
        <ele>655</ele>
        <time>2018-05-13T12:04:25.000Z</time>
      </trkpt>
      <trkpt lat="43.85302" lon="7.24967">
        <ele>654</ele>
        <time>2018-05-13T12:04:29.000Z</time>
      </trkpt>
      <trkpt lat="43.85299" lon="7.24962">
        <ele>654</ele>
        <time>2018-05-13T12:04:36.000Z</time>
      </trkpt>
      <trkpt lat="43.85298" lon="7.24962">
        <ele>654</ele>
        <time>2018-05-13T12:04:42.000Z</time>
      </trkpt>
      <trkpt lat="43.85297" lon="7.24958">
        <ele>653</ele>
        <time>2018-05-13T12:04:53.000Z</time>
      </trkpt>
      <trkpt lat="43.85297" lon="7.24954">
        <ele>652</ele>
        <time>2018-05-13T12:05:02.000Z</time>
      </trkpt>
      <trkpt lat="43.85294" lon="7.24951">
        <ele>652</ele>
        <time>2018-05-13T12:05:06.000Z</time>
      </trkpt>
      <trkpt lat="43.85292" lon="7.24948">
        <ele>651</ele>
        <time>2018-05-13T12:05:08.000Z</time>
      </trkpt>
      <trkpt lat="43.85276" lon="7.24933">
        <ele>649</ele>
        <time>2018-05-13T12:05:15.000Z</time>
      </trkpt>
      <trkpt lat="43.85259" lon="7.24915">
        <ele>636</ele>
        <time>2018-05-13T12:05:18.000Z</time>
      </trkpt>
      <trkpt lat="43.85253" lon="7.24909">
        <ele>636</ele>
        <time>2018-05-13T12:05:19.000Z</time>
      </trkpt>
      <trkpt lat="43.85243" lon="7.24895">
        <ele>633</ele>
        <time>2018-05-13T12:05:21.000Z</time>
      </trkpt>
      <trkpt lat="43.85232" lon="7.24881">
        <ele>629</ele>
        <time>2018-05-13T12:05:23.000Z</time>
      </trkpt>
      <trkpt lat="43.85221" lon="7.24868">
        <ele>627</ele>
        <time>2018-05-13T12:05:25.000Z</time>
      </trkpt>
      <trkpt lat="43.85208" lon="7.24855">
        <ele>626</ele>
        <time>2018-05-13T12:05:27.000Z</time>
      </trkpt>
      <trkpt lat="43.85202" lon="7.2485">
        <ele>625</ele>
        <time>2018-05-13T12:05:28.000Z</time>
      </trkpt>
      <trkpt lat="43.85195" lon="7.24847">
        <ele>625</ele>
        <time>2018-05-13T12:05:29.000Z</time>
      </trkpt>
      <trkpt lat="43.85179" lon="7.24843">
        <ele>623</ele>
        <time>2018-05-13T12:05:31.000Z</time>
      </trkpt>
      <trkpt lat="43.85164" lon="7.2484">
        <ele>620</ele>
        <time>2018-05-13T12:05:33.000Z</time>
      </trkpt>
      <trkpt lat="43.85158" lon="7.24842">
        <ele>621</ele>
        <time>2018-05-13T12:05:34.000Z</time>
      </trkpt>
      <trkpt lat="43.85152" lon="7.24843">
        <ele>622</ele>
        <time>2018-05-13T12:05:35.000Z</time>
      </trkpt>
      <trkpt lat="43.85146" lon="7.24847">
        <ele>622</ele>
        <time>2018-05-13T12:05:36.000Z</time>
      </trkpt>
      <trkpt lat="43.85139" lon="7.24851">
        <ele>623</ele>
        <time>2018-05-13T12:05:37.000Z</time>
      </trkpt>
      <trkpt lat="43.85133" lon="7.24857">
        <ele>623</ele>
        <time>2018-05-13T12:05:38.000Z</time>
      </trkpt>
      <trkpt lat="43.85129" lon="7.24862">
        <ele>624</ele>
        <time>2018-05-13T12:05:39.000Z</time>
      </trkpt>
      <trkpt lat="43.85125" lon="7.24866">
        <ele>624</ele>
        <time>2018-05-13T12:05:40.000Z</time>
      </trkpt>
      <trkpt lat="43.85123" lon="7.24869">
        <ele>625</ele>
        <time>2018-05-13T12:05:41.000Z</time>
      </trkpt>
      <trkpt lat="43.8512" lon="7.24872">
        <ele>625</ele>
        <time>2018-05-13T12:05:42.000Z</time>
      </trkpt>
      <trkpt lat="43.85111" lon="7.2488">
        <ele>625</ele>
        <time>2018-05-13T12:05:47.000Z</time>
      </trkpt>
      <trkpt lat="43.8511" lon="7.24881">
        <ele>626</ele>
        <time>2018-05-13T12:05:48.000Z</time>
      </trkpt>
      <trkpt lat="43.85101" lon="7.24887">
        <ele>626</ele>
        <time>2018-05-13T12:05:53.000Z</time>
      </trkpt>
      <trkpt lat="43.851" lon="7.24888">
        <ele>626</ele>
        <time>2018-05-13T12:05:54.000Z</time>
      </trkpt>
      <trkpt lat="43.85092" lon="7.24891">
        <ele>627</ele>
        <time>2018-05-13T12:05:58.000Z</time>
      </trkpt>
      <trkpt lat="43.85086" lon="7.24894">
        <ele>627</ele>
        <time>2018-05-13T12:06:01.000Z</time>
      </trkpt>
      <trkpt lat="43.85082" lon="7.24897">
        <ele>622</ele>
        <time>2018-05-13T12:06:04.000Z</time>
      </trkpt>
      <trkpt lat="43.85078" lon="7.24901">
        <ele>623</ele>
        <time>2018-05-13T12:06:07.000Z</time>
      </trkpt>
      <trkpt lat="43.85073" lon="7.24908">
        <ele>624</ele>
        <time>2018-05-13T12:06:11.000Z</time>
      </trkpt>
      <trkpt lat="43.85072" lon="7.24909">
        <ele>624</ele>
        <time>2018-05-13T12:06:12.000Z</time>
      </trkpt>
      <trkpt lat="43.85067" lon="7.24918">
        <ele>635</ele>
        <time>2018-05-13T12:06:16.000Z</time>
      </trkpt>
      <trkpt lat="43.85065" lon="7.24923">
        <ele>635</ele>
        <time>2018-05-13T12:06:18.000Z</time>
      </trkpt>
      <trkpt lat="43.85061" lon="7.24932">
        <ele>636</ele>
        <time>2018-05-13T12:06:22.000Z</time>
      </trkpt>
      <trkpt lat="43.85059" lon="7.24934">
        <ele>636</ele>
        <time>2018-05-13T12:06:23.000Z</time>
      </trkpt>
      <trkpt lat="43.85051" lon="7.24943">
        <ele>637</ele>
        <time>2018-05-13T12:06:28.000Z</time>
      </trkpt>
      <trkpt lat="43.85049" lon="7.24944">
        <ele>637</ele>
        <time>2018-05-13T12:06:29.000Z</time>
      </trkpt>
      <trkpt lat="43.85045" lon="7.24947">
        <ele>637</ele>
        <time>2018-05-13T12:06:32.000Z</time>
      </trkpt>
      <trkpt lat="43.8504" lon="7.24949">
        <ele>637</ele>
        <time>2018-05-13T12:06:35.000Z</time>
      </trkpt>
      <trkpt lat="43.85037" lon="7.24953">
        <ele>638</ele>
        <time>2018-05-13T12:06:38.000Z</time>
      </trkpt>
      <trkpt lat="43.85034" lon="7.24955">
        <ele>638</ele>
        <time>2018-05-13T12:06:40.000Z</time>
      </trkpt>
      <trkpt lat="43.85028" lon="7.24959">
        <ele>638</ele>
        <time>2018-05-13T12:06:44.000Z</time>
      </trkpt>
      <trkpt lat="43.85025" lon="7.24963">
        <ele>638</ele>
        <time>2018-05-13T12:06:47.000Z</time>
      </trkpt>
      <trkpt lat="43.85022" lon="7.24966">
        <ele>639</ele>
        <time>2018-05-13T12:06:49.000Z</time>
      </trkpt>
      <trkpt lat="43.85018" lon="7.24971">
        <ele>640</ele>
        <time>2018-05-13T12:06:53.000Z</time>
      </trkpt>
      <trkpt lat="43.85017" lon="7.24973">
        <ele>640</ele>
        <time>2018-05-13T12:06:54.000Z</time>
      </trkpt>
      <trkpt lat="43.85012" lon="7.24983">
        <ele>642</ele>
        <time>2018-05-13T12:07:00.000Z</time>
      </trkpt>
      <trkpt lat="43.85007" lon="7.24997">
        <ele>644</ele>
        <time>2018-05-13T12:07:07.000Z</time>
      </trkpt>
      <trkpt lat="43.85004" lon="7.2501">
        <ele>653</ele>
        <time>2018-05-13T12:07:13.000Z</time>
      </trkpt>
      <trkpt lat="43.85004" lon="7.25013">
        <ele>654</ele>
        <time>2018-05-13T12:07:14.000Z</time>
      </trkpt>
      <trkpt lat="43.84997" lon="7.25023">
        <ele>655</ele>
        <time>2018-05-13T12:07:20.000Z</time>
      </trkpt>
      <trkpt lat="43.84995" lon="7.25023">
        <ele>655</ele>
        <time>2018-05-13T12:07:21.000Z</time>
      </trkpt>
      <trkpt lat="43.84991" lon="7.25022">
        <ele>655</ele>
        <time>2018-05-13T12:07:24.000Z</time>
      </trkpt>
      <trkpt lat="43.84991" lon="7.25022">
        <ele>655</ele>
        <time>2018-05-13T12:07:25.000Z</time>
      </trkpt>
      <trkpt lat="43.84982" lon="7.25025">
        <ele>656</ele>
        <time>2018-05-13T12:07:31.000Z</time>
      </trkpt>
      <trkpt lat="43.84975" lon="7.25018">
        <ele>656</ele>
        <time>2018-05-13T12:07:37.000Z</time>
      </trkpt>
      <trkpt lat="43.84974" lon="7.25011">
        <ele>655</ele>
        <time>2018-05-13T12:07:42.000Z</time>
      </trkpt>
      <trkpt lat="43.84975" lon="7.2501">
        <ele>655</ele>
        <time>2018-05-13T12:07:43.000Z</time>
      </trkpt>
      <trkpt lat="43.84975" lon="7.25005">
        <ele>654</ele>
        <time>2018-05-13T12:07:46.000Z</time>
      </trkpt>
      <trkpt lat="43.84973" lon="7.25001">
        <ele>654</ele>
        <time>2018-05-13T12:07:48.000Z</time>
      </trkpt>
      <trkpt lat="43.8497" lon="7.24994">
        <ele>638</ele>
        <time>2018-05-13T12:07:50.000Z</time>
      </trkpt>
      <trkpt lat="43.84965" lon="7.24986">
        <ele>637</ele>
        <time>2018-05-13T12:07:52.000Z</time>
      </trkpt>
      <trkpt lat="43.84963" lon="7.24983">
        <ele>637</ele>
        <time>2018-05-13T12:07:53.000Z</time>
      </trkpt>
      <trkpt lat="43.84961" lon="7.24981">
        <ele>637</ele>
        <time>2018-05-13T12:07:54.000Z</time>
      </trkpt>
      <trkpt lat="43.84959" lon="7.24979">
        <ele>636</ele>
        <time>2018-05-13T12:07:55.000Z</time>
      </trkpt>
      <trkpt lat="43.84957" lon="7.24979">
        <ele>636</ele>
        <time>2018-05-13T12:07:56.000Z</time>
      </trkpt>
      <trkpt lat="43.84955" lon="7.24975">
        <ele>636</ele>
        <time>2018-05-13T12:07:57.000Z</time>
      </trkpt>
      <trkpt lat="43.84953" lon="7.24972">
        <ele>636</ele>
        <time>2018-05-13T12:07:59.000Z</time>
      </trkpt>
      <trkpt lat="43.8495" lon="7.24972">
        <ele>636</ele>
        <time>2018-05-13T12:08:01.000Z</time>
      </trkpt>
      <trkpt lat="43.84947" lon="7.24972">
        <ele>636</ele>
        <time>2018-05-13T12:08:03.000Z</time>
      </trkpt>
      <trkpt lat="43.84943" lon="7.24972">
        <ele>636</ele>
        <time>2018-05-13T12:08:05.000Z</time>
      </trkpt>
      <trkpt lat="43.84939" lon="7.24972">
        <ele>636</ele>
        <time>2018-05-13T12:08:07.000Z</time>
      </trkpt>
      <trkpt lat="43.84934" lon="7.2497">
        <ele>636</ele>
        <time>2018-05-13T12:08:10.000Z</time>
      </trkpt>
      <trkpt lat="43.8493" lon="7.24964">
        <ele>635</ele>
        <time>2018-05-13T12:08:14.000Z</time>
      </trkpt>
      <trkpt lat="43.84929" lon="7.2496">
        <ele>634</ele>
        <time>2018-05-13T12:08:19.000Z</time>
      </trkpt>
      <trkpt lat="43.84928" lon="7.24958">
        <ele>634</ele>
        <time>2018-05-13T12:08:20.000Z</time>
      </trkpt>
      <trkpt lat="43.84928" lon="7.24952">
        <ele>632</ele>
        <time>2018-05-13T12:08:23.000Z</time>
      </trkpt>
      <trkpt lat="43.84928" lon="7.2495">
        <ele>632</ele>
        <time>2018-05-13T12:08:24.000Z</time>
      </trkpt>
      <trkpt lat="43.84927" lon="7.24947">
        <ele>631</ele>
        <time>2018-05-13T12:08:25.000Z</time>
      </trkpt>
      <trkpt lat="43.84922" lon="7.2494">
        <ele>629</ele>
        <time>2018-05-13T12:08:28.000Z</time>
      </trkpt>
      <trkpt lat="43.84921" lon="7.2494">
        <ele>629</ele>
        <time>2018-05-13T12:08:29.000Z</time>
      </trkpt>
      <trkpt lat="43.84918" lon="7.2494">
        <ele>629</ele>
        <time>2018-05-13T12:08:30.000Z</time>
      </trkpt>
      <trkpt lat="43.84909" lon="7.24938">
        <ele>632</ele>
        <time>2018-05-13T12:08:33.000Z</time>
      </trkpt>
      <trkpt lat="43.84905" lon="7.24937">
        <ele>632</ele>
        <time>2018-05-13T12:08:34.000Z</time>
      </trkpt>
      <trkpt lat="43.84898" lon="7.24933">
        <ele>632</ele>
        <time>2018-05-13T12:08:36.000Z</time>
      </trkpt>
      <trkpt lat="43.84895" lon="7.2493">
        <ele>632</ele>
        <time>2018-05-13T12:08:37.000Z</time>
      </trkpt>
      <trkpt lat="43.84891" lon="7.24928">
        <ele>633</ele>
        <time>2018-05-13T12:08:38.000Z</time>
      </trkpt>
      <trkpt lat="43.84886" lon="7.24917">
        <ele>633</ele>
        <time>2018-05-13T12:08:41.000Z</time>
      </trkpt>
      <trkpt lat="43.84883" lon="7.24893">
        <ele>620</ele>
        <time>2018-05-13T12:08:46.000Z</time>
      </trkpt>
      <trkpt lat="43.84886" lon="7.24878">
        <ele>618</ele>
        <time>2018-05-13T12:08:49.000Z</time>
      </trkpt>
      <trkpt lat="43.84888" lon="7.24874">
        <ele>618</ele>
        <time>2018-05-13T12:08:51.000Z</time>
      </trkpt>
      <trkpt lat="43.8489" lon="7.24875">
        <ele>618</ele>
        <time>2018-05-13T12:08:52.000Z</time>
      </trkpt>
      <trkpt lat="43.84893" lon="7.24877">
        <ele>618</ele>
        <time>2018-05-13T12:08:54.000Z</time>
      </trkpt>
      <trkpt lat="43.84895" lon="7.24875">
        <ele>617</ele>
        <time>2018-05-13T12:08:56.000Z</time>
      </trkpt>
      <trkpt lat="43.84894" lon="7.24871">
        <ele>617</ele>
        <time>2018-05-13T12:08:58.000Z</time>
      </trkpt>
      <trkpt lat="43.84893" lon="7.24867">
        <ele>616</ele>
        <time>2018-05-13T12:09:00.000Z</time>
      </trkpt>
      <trkpt lat="43.8489" lon="7.24864">
        <ele>616</ele>
        <time>2018-05-13T12:09:02.000Z</time>
      </trkpt>
      <trkpt lat="43.84885" lon="7.24861">
        <ele>616</ele>
        <time>2018-05-13T12:09:05.000Z</time>
      </trkpt>
      <trkpt lat="43.84884" lon="7.24862">
        <ele>617</ele>
        <time>2018-05-13T12:09:06.000Z</time>
      </trkpt>
      <trkpt lat="43.84879" lon="7.24862">
        <ele>617</ele>
        <time>2018-05-13T12:09:08.000Z</time>
      </trkpt>
      <trkpt lat="43.84868" lon="7.24853">
        <ele>618</ele>
        <time>2018-05-13T12:09:12.000Z</time>
      </trkpt>
      <trkpt lat="43.84864" lon="7.2485">
        <ele>618</ele>
        <time>2018-05-13T12:09:13.000Z</time>
      </trkpt>
      <trkpt lat="43.84861" lon="7.24847">
        <ele>618</ele>
        <time>2018-05-13T12:09:14.000Z</time>
      </trkpt>
      <trkpt lat="43.84857" lon="7.24846">
        <ele>618</ele>
        <time>2018-05-13T12:09:16.000Z</time>
      </trkpt>
      <trkpt lat="43.84856" lon="7.24843">
        <ele>618</ele>
        <time>2018-05-13T12:09:17.000Z</time>
      </trkpt>
      <trkpt lat="43.84855" lon="7.24837">
        <ele>618</ele>
        <time>2018-05-13T12:09:19.000Z</time>
      </trkpt>
      <trkpt lat="43.84854" lon="7.24835">
        <ele>618</ele>
        <time>2018-05-13T12:09:21.000Z</time>
      </trkpt>
      <trkpt lat="43.84851" lon="7.24834">
        <ele>618</ele>
        <time>2018-05-13T12:09:23.000Z</time>
      </trkpt>
      <trkpt lat="43.8485" lon="7.24834">
        <ele>618</ele>
        <time>2018-05-13T12:09:24.000Z</time>
      </trkpt>
      <trkpt lat="43.84844" lon="7.24831">
        <ele>616</ele>
        <time>2018-05-13T12:09:29.000Z</time>
      </trkpt>
      <trkpt lat="43.84844" lon="7.2483">
        <ele>616</ele>
        <time>2018-05-13T12:09:30.000Z</time>
      </trkpt>
      <trkpt lat="43.84844" lon="7.24825">
        <ele>615</ele>
        <time>2018-05-13T12:09:35.000Z</time>
      </trkpt>
      <trkpt lat="43.84846" lon="7.24815">
        <ele>614</ele>
        <time>2018-05-13T12:09:39.000Z</time>
      </trkpt>
      <trkpt lat="43.84852" lon="7.24803">
        <ele>612</ele>
        <time>2018-05-13T12:09:44.000Z</time>
      </trkpt>
      <trkpt lat="43.84856" lon="7.24793">
        <ele>611</ele>
        <time>2018-05-13T12:09:49.000Z</time>
      </trkpt>
      <trkpt lat="43.84861" lon="7.2478">
        <ele>611</ele>
        <time>2018-05-13T12:09:54.000Z</time>
      </trkpt>
      <trkpt lat="43.84861" lon="7.24779">
        <ele>611</ele>
        <time>2018-05-13T12:09:55.000Z</time>
      </trkpt>
      <trkpt lat="43.84858" lon="7.2477">
        <ele>612</ele>
        <time>2018-05-13T12:09:59.000Z</time>
      </trkpt>
      <trkpt lat="43.84858" lon="7.24767">
        <ele>612</ele>
        <time>2018-05-13T12:10:00.000Z</time>
      </trkpt>
      <trkpt lat="43.84859" lon="7.24756">
        <ele>612</ele>
        <time>2018-05-13T12:10:05.000Z</time>
      </trkpt>
      <trkpt lat="43.84861" lon="7.24744">
        <ele>612</ele>
        <time>2018-05-13T12:10:10.000Z</time>
      </trkpt>
      <trkpt lat="43.84868" lon="7.24731">
        <ele>611</ele>
        <time>2018-05-13T12:10:15.000Z</time>
      </trkpt>
      <trkpt lat="43.84877" lon="7.24713">
        <ele>609</ele>
        <time>2018-05-13T12:10:22.000Z</time>
      </trkpt>
      <trkpt lat="43.84879" lon="7.24709">
        <ele>609</ele>
        <time>2018-05-13T12:10:24.000Z</time>
      </trkpt>
      <trkpt lat="43.84879" lon="7.24703">
        <ele>609</ele>
        <time>2018-05-13T12:10:26.000Z</time>
      </trkpt>
      <trkpt lat="43.84879" lon="7.24693">
        <ele>609</ele>
        <time>2018-05-13T12:10:30.000Z</time>
      </trkpt>
      <trkpt lat="43.84879" lon="7.24681">
        <ele>610</ele>
        <time>2018-05-13T12:10:33.000Z</time>
      </trkpt>
      <trkpt lat="43.84878" lon="7.24676">
        <ele>610</ele>
        <time>2018-05-13T12:10:35.000Z</time>
      </trkpt>
      <trkpt lat="43.84877" lon="7.24674">
        <ele>610</ele>
        <time>2018-05-13T12:10:36.000Z</time>
      </trkpt>
      <trkpt lat="43.84876" lon="7.24667">
        <ele>610</ele>
        <time>2018-05-13T12:10:40.000Z</time>
      </trkpt>
      <trkpt lat="43.84875" lon="7.24658">
        <ele>613</ele>
        <time>2018-05-13T12:10:44.000Z</time>
      </trkpt>
      <trkpt lat="43.84874" lon="7.24652">
        <ele>613</ele>
        <time>2018-05-13T12:10:46.000Z</time>
      </trkpt>
      <trkpt lat="43.84875" lon="7.24644">
        <ele>613</ele>
        <time>2018-05-13T12:10:49.000Z</time>
      </trkpt>
      <trkpt lat="43.84878" lon="7.24639">
        <ele>612</ele>
        <time>2018-05-13T12:10:51.000Z</time>
      </trkpt>
      <trkpt lat="43.84886" lon="7.24625">
        <ele>611</ele>
        <time>2018-05-13T12:10:54.000Z</time>
      </trkpt>
      <trkpt lat="43.84889" lon="7.24619">
        <ele>611</ele>
        <time>2018-05-13T12:10:55.000Z</time>
      </trkpt>
      <trkpt lat="43.84899" lon="7.24604">
        <ele>609</ele>
        <time>2018-05-13T12:10:58.000Z</time>
      </trkpt>
      <trkpt lat="43.84903" lon="7.246">
        <ele>608</ele>
        <time>2018-05-13T12:10:59.000Z</time>
      </trkpt>
      <trkpt lat="43.84905" lon="7.24596">
        <ele>607</ele>
        <time>2018-05-13T12:11:00.000Z</time>
      </trkpt>
      <trkpt lat="43.84911" lon="7.24583">
        <ele>603</ele>
        <time>2018-05-13T12:11:02.000Z</time>
      </trkpt>
      <trkpt lat="43.84914" lon="7.24578">
        <ele>603</ele>
        <time>2018-05-13T12:11:03.000Z</time>
      </trkpt>
      <trkpt lat="43.84916" lon="7.24573">
        <ele>604</ele>
        <time>2018-05-13T12:11:04.000Z</time>
      </trkpt>
      <trkpt lat="43.84919" lon="7.24562">
        <ele>593</ele>
        <time>2018-05-13T12:11:06.000Z</time>
      </trkpt>
      <trkpt lat="43.84922" lon="7.24551">
        <ele>590</ele>
        <time>2018-05-13T12:11:08.000Z</time>
      </trkpt>
      <trkpt lat="43.84924" lon="7.24547">
        <ele>590</ele>
        <time>2018-05-13T12:11:09.000Z</time>
      </trkpt>
      <trkpt lat="43.84925" lon="7.24543">
        <ele>589</ele>
        <time>2018-05-13T12:11:11.000Z</time>
      </trkpt>
      <trkpt lat="43.84926" lon="7.2454">
        <ele>589</ele>
        <time>2018-05-13T12:11:12.000Z</time>
      </trkpt>
      <trkpt lat="43.84926" lon="7.24535">
        <ele>589</ele>
        <time>2018-05-13T12:11:14.000Z</time>
      </trkpt>
      <trkpt lat="43.84925" lon="7.24533">
        <ele>589</ele>
        <time>2018-05-13T12:11:15.000Z</time>
      </trkpt>
      <trkpt lat="43.84922" lon="7.24528">
        <ele>589</ele>
        <time>2018-05-13T12:11:17.000Z</time>
      </trkpt>
      <trkpt lat="43.8492" lon="7.24524">
        <ele>590</ele>
        <time>2018-05-13T12:11:19.000Z</time>
      </trkpt>
      <trkpt lat="43.84919" lon="7.24521">
        <ele>590</ele>
        <time>2018-05-13T12:11:21.000Z</time>
      </trkpt>
      <trkpt lat="43.84918" lon="7.2452">
        <ele>590</ele>
        <time>2018-05-13T12:11:22.000Z</time>
      </trkpt>
      <trkpt lat="43.84919" lon="7.24516">
        <ele>590</ele>
        <time>2018-05-13T12:11:25.000Z</time>
      </trkpt>
      <trkpt lat="43.84919" lon="7.24515">
        <ele>591</ele>
        <time>2018-05-13T12:11:27.000Z</time>
      </trkpt>
      <trkpt lat="43.84919" lon="7.24512">
        <ele>591</ele>
        <time>2018-05-13T12:11:28.000Z</time>
      </trkpt>
      <trkpt lat="43.84917" lon="7.24505">
        <ele>593</ele>
        <time>2018-05-13T12:11:33.000Z</time>
      </trkpt>
      <trkpt lat="43.84914" lon="7.24499">
        <ele>594</ele>
        <time>2018-05-13T12:11:38.000Z</time>
      </trkpt>
      <trkpt lat="43.84913" lon="7.24497">
        <ele>594</ele>
        <time>2018-05-13T12:11:39.000Z</time>
      </trkpt>
      <trkpt lat="43.84913" lon="7.24496">
        <ele>594</ele>
        <time>2018-05-13T12:11:43.000Z</time>
      </trkpt>
      <trkpt lat="43.84913" lon="7.24496">
        <ele>594</ele>
        <time>2018-05-13T12:11:44.000Z</time>
      </trkpt>
      <trkpt lat="43.84914" lon="7.2449">
        <ele>594</ele>
        <time>2018-05-13T12:11:49.000Z</time>
      </trkpt>
      <trkpt lat="43.84916" lon="7.24489">
        <ele>594</ele>
        <time>2018-05-13T12:11:52.000Z</time>
      </trkpt>
      <trkpt lat="43.84917" lon="7.24484">
        <ele>586</ele>
        <time>2018-05-13T12:11:56.000Z</time>
      </trkpt>
      <trkpt lat="43.84917" lon="7.24484">
        <ele>586</ele>
        <time>2018-05-13T12:11:58.000Z</time>
      </trkpt>
      <trkpt lat="43.84919" lon="7.24482">
        <ele>585</ele>
        <time>2018-05-13T12:12:02.000Z</time>
      </trkpt>
      <trkpt lat="43.84923" lon="7.24482">
        <ele>585</ele>
        <time>2018-05-13T12:12:07.000Z</time>
      </trkpt>
      <trkpt lat="43.84923" lon="7.24482">
        <ele>585</ele>
        <time>2018-05-13T12:12:08.000Z</time>
      </trkpt>
      <trkpt lat="43.84923" lon="7.24482">
        <ele>585</ele>
        <time>2018-05-13T12:12:09.000Z</time>
      </trkpt>
      <trkpt lat="43.84924" lon="7.24485">
        <ele>586</ele>
        <time>2018-05-13T12:12:11.000Z</time>
      </trkpt>
      <trkpt lat="43.84924" lon="7.24487">
        <ele>586</ele>
        <time>2018-05-13T12:12:12.000Z</time>
      </trkpt>
      <trkpt lat="43.84925" lon="7.24488">
        <ele>586</ele>
        <time>2018-05-13T12:12:13.000Z</time>
      </trkpt>
      <trkpt lat="43.84928" lon="7.2449">
        <ele>586</ele>
        <time>2018-05-13T12:12:15.000Z</time>
      </trkpt>
      <trkpt lat="43.8493" lon="7.24489">
        <ele>585</ele>
        <time>2018-05-13T12:12:17.000Z</time>
      </trkpt>
      <trkpt lat="43.84934" lon="7.24488">
        <ele>584</ele>
        <time>2018-05-13T12:12:19.000Z</time>
      </trkpt>
      <trkpt lat="43.8494" lon="7.24486">
        <ele>582</ele>
        <time>2018-05-13T12:12:21.000Z</time>
      </trkpt>
      <trkpt lat="43.84945" lon="7.24485">
        <ele>581</ele>
        <time>2018-05-13T12:12:23.000Z</time>
      </trkpt>
      <trkpt lat="43.8495" lon="7.24488">
        <ele>580</ele>
        <time>2018-05-13T12:12:25.000Z</time>
      </trkpt>
      <trkpt lat="43.84952" lon="7.24491">
        <ele>580</ele>
        <time>2018-05-13T12:12:26.000Z</time>
      </trkpt>
      <trkpt lat="43.84956" lon="7.24495">
        <ele>579</ele>
        <time>2018-05-13T12:12:27.000Z</time>
      </trkpt>
      <trkpt lat="43.84962" lon="7.24505">
        <ele>583</ele>
        <time>2018-05-13T12:12:29.000Z</time>
      </trkpt>
      <trkpt lat="43.84966" lon="7.2451">
        <ele>582</ele>
        <time>2018-05-13T12:12:30.000Z</time>
      </trkpt>
      <trkpt lat="43.8497" lon="7.24517">
        <ele>582</ele>
        <time>2018-05-13T12:12:31.000Z</time>
      </trkpt>
      <trkpt lat="43.84982" lon="7.24537">
        <ele>581</ele>
        <time>2018-05-13T12:12:34.000Z</time>
      </trkpt>
      <trkpt lat="43.84986" lon="7.24542">
        <ele>581</ele>
        <time>2018-05-13T12:12:35.000Z</time>
      </trkpt>
      <trkpt lat="43.84991" lon="7.24546">
        <ele>581</ele>
        <time>2018-05-13T12:12:36.000Z</time>
      </trkpt>
      <trkpt lat="43.84996" lon="7.24548">
        <ele>580</ele>
        <time>2018-05-13T12:12:37.000Z</time>
      </trkpt>
      <trkpt lat="43.85005" lon="7.24541">
        <ele>573</ele>
        <time>2018-05-13T12:12:39.000Z</time>
      </trkpt>
      <trkpt lat="43.85006" lon="7.24526">
        <ele>572</ele>
        <time>2018-05-13T12:12:41.000Z</time>
      </trkpt>
      <trkpt lat="43.85007" lon="7.24518">
        <ele>572</ele>
        <time>2018-05-13T12:12:42.000Z</time>
      </trkpt>
      <trkpt lat="43.85007" lon="7.24508">
        <ele>571</ele>
        <time>2018-05-13T12:12:43.000Z</time>
      </trkpt>
      <trkpt lat="43.85008" lon="7.24497">
        <ele>570</ele>
        <time>2018-05-13T12:12:44.000Z</time>
      </trkpt>
      <trkpt lat="43.8501" lon="7.24488">
        <ele>570</ele>
        <time>2018-05-13T12:12:45.000Z</time>
      </trkpt>
      <trkpt lat="43.85013" lon="7.24478">
        <ele>570</ele>
        <time>2018-05-13T12:12:46.000Z</time>
      </trkpt>
      <trkpt lat="43.85024" lon="7.24454">
        <ele>569</ele>
        <time>2018-05-13T12:12:49.000Z</time>
      </trkpt>
      <trkpt lat="43.85036" lon="7.24428">
        <ele>569</ele>
        <time>2018-05-13T12:12:53.000Z</time>
      </trkpt>
      <trkpt lat="43.85037" lon="7.24423">
        <ele>569</ele>
        <time>2018-05-13T12:12:54.000Z</time>
      </trkpt>
      <trkpt lat="43.85045" lon="7.24399">
        <ele>567</ele>
        <time>2018-05-13T12:12:58.000Z</time>
      </trkpt>
      <trkpt lat="43.8505" lon="7.24379">
        <ele>567</ele>
        <time>2018-05-13T12:13:01.000Z</time>
      </trkpt>
      <trkpt lat="43.85064" lon="7.24332">
        <ele>564</ele>
        <time>2018-05-13T12:13:08.000Z</time>
      </trkpt>
      <trkpt lat="43.85075" lon="7.243">
        <ele>564</ele>
        <time>2018-05-13T12:13:13.000Z</time>
      </trkpt>
      <trkpt lat="43.85085" lon="7.24284">
        <ele>565</ele>
        <time>2018-05-13T12:13:16.000Z</time>
      </trkpt>
      <trkpt lat="43.85105" lon="7.2425">
        <ele>564</ele>
        <time>2018-05-13T12:13:22.000Z</time>
      </trkpt>
      <trkpt lat="43.85109" lon="7.24246">
        <ele>563</ele>
        <time>2018-05-13T12:13:23.000Z</time>
      </trkpt>
      <trkpt lat="43.85127" lon="7.24238">
        <ele>563</ele>
        <time>2018-05-13T12:13:27.000Z</time>
      </trkpt>
      <trkpt lat="43.85135" lon="7.24225">
        <ele>563</ele>
        <time>2018-05-13T12:13:30.000Z</time>
      </trkpt>
      <trkpt lat="43.85137" lon="7.24203">
        <ele>562</ele>
        <time>2018-05-13T12:13:33.000Z</time>
      </trkpt>
      <trkpt lat="43.85139" lon="7.24196">
        <ele>562</ele>
        <time>2018-05-13T12:13:34.000Z</time>
      </trkpt>
      <trkpt lat="43.85152" lon="7.24158">
        <ele>559</ele>
        <time>2018-05-13T12:13:39.000Z</time>
      </trkpt>
      <trkpt lat="43.85155" lon="7.2415">
        <ele>559</ele>
        <time>2018-05-13T12:13:40.000Z</time>
      </trkpt>
      <trkpt lat="43.85164" lon="7.2412">
        <ele>558</ele>
        <time>2018-05-13T12:13:43.000Z</time>
      </trkpt>
      <trkpt lat="43.85168" lon="7.24109">
        <ele>554</ele>
        <time>2018-05-13T12:13:44.000Z</time>
      </trkpt>
      <trkpt lat="43.85174" lon="7.2409">
        <ele>554</ele>
        <time>2018-05-13T12:13:46.000Z</time>
      </trkpt>
      <trkpt lat="43.85181" lon="7.24073">
        <ele>553</ele>
        <time>2018-05-13T12:13:48.000Z</time>
      </trkpt>
      <trkpt lat="43.85183" lon="7.24068">
        <ele>552</ele>
        <time>2018-05-13T12:13:49.000Z</time>
      </trkpt>
      <trkpt lat="43.85187" lon="7.24062">
        <ele>552</ele>
        <time>2018-05-13T12:13:50.000Z</time>
      </trkpt>
      <trkpt lat="43.85196" lon="7.24052">
        <ele>551</ele>
        <time>2018-05-13T12:13:52.000Z</time>
      </trkpt>
      <trkpt lat="43.852" lon="7.24047">
        <ele>551</ele>
        <time>2018-05-13T12:13:53.000Z</time>
      </trkpt>
      <trkpt lat="43.85204" lon="7.24041">
        <ele>551</ele>
        <time>2018-05-13T12:13:54.000Z</time>
      </trkpt>
      <trkpt lat="43.85215" lon="7.24028">
        <ele>550</ele>
        <time>2018-05-13T12:13:56.000Z</time>
      </trkpt>
      <trkpt lat="43.85224" lon="7.24015">
        <ele>550</ele>
        <time>2018-05-13T12:13:58.000Z</time>
      </trkpt>
      <trkpt lat="43.85227" lon="7.24003">
        <ele>550</ele>
        <time>2018-05-13T12:14:00.000Z</time>
      </trkpt>
      <trkpt lat="43.85226" lon="7.23996">
        <ele>550</ele>
        <time>2018-05-13T12:14:01.000Z</time>
      </trkpt>
      <trkpt lat="43.85218" lon="7.23981">
        <ele>550</ele>
        <time>2018-05-13T12:14:04.000Z</time>
      </trkpt>
      <trkpt lat="43.85204" lon="7.23955">
        <ele>550</ele>
        <time>2018-05-13T12:14:09.000Z</time>
      </trkpt>
      <trkpt lat="43.85198" lon="7.23943">
        <ele>550</ele>
        <time>2018-05-13T12:14:11.000Z</time>
      </trkpt>
      <trkpt lat="43.85186" lon="7.239">
        <ele>550</ele>
        <time>2018-05-13T12:14:17.000Z</time>
      </trkpt>
      <trkpt lat="43.85184" lon="7.23893">
        <ele>550</ele>
        <time>2018-05-13T12:14:18.000Z</time>
      </trkpt>
      <trkpt lat="43.85175" lon="7.23861">
        <ele>549</ele>
        <time>2018-05-13T12:14:23.000Z</time>
      </trkpt>
      <trkpt lat="43.85168" lon="7.23842">
        <ele>549</ele>
        <time>2018-05-13T12:14:28.000Z</time>
      </trkpt>
      <trkpt lat="43.8517" lon="7.23842">
        <ele>549</ele>
        <time>2018-05-13T12:14:30.000Z</time>
      </trkpt>
      <trkpt lat="43.85169" lon="7.23842">
        <ele>549</ele>
        <time>2018-05-13T12:14:31.000Z</time>
      </trkpt>
      <trkpt lat="43.8517" lon="7.23841">
        <ele>549</ele>
        <time>2018-05-13T12:14:36.000Z</time>
      </trkpt>
      <trkpt lat="43.8517" lon="7.23842">
        <ele>549</ele>
        <time>2018-05-13T12:14:41.000Z</time>
      </trkpt>
      <trkpt lat="43.8517" lon="7.23842">
        <ele>549</ele>
        <time>2018-05-13T12:14:49.000Z</time>
      </trkpt>
      <trkpt lat="43.8517" lon="7.23842">
        <ele>549</ele>
        <time>2018-05-13T12:14:58.000Z</time>
      </trkpt>
      <trkpt lat="43.8517" lon="7.23843">
        <ele>549</ele>
        <time>2018-05-13T12:15:04.000Z</time>
      </trkpt>
      <trkpt lat="43.85168" lon="7.23842">
        <ele>549</ele>
        <time>2018-05-13T12:15:12.000Z</time>
      </trkpt>
      <trkpt lat="43.85168" lon="7.23842">
        <ele>549</ele>
        <time>2018-05-13T12:15:13.000Z</time>
      </trkpt>
      <trkpt lat="43.85168" lon="7.23842">
        <ele>549</ele>
        <time>2018-05-13T12:15:24.000Z</time>
      </trkpt>
      <trkpt lat="43.85168" lon="7.23842">
        <ele>549</ele>
        <time>2018-05-13T12:15:37.000Z</time>
      </trkpt>
      <trkpt lat="43.85168" lon="7.23841">
        <ele>549</ele>
        <time>2018-05-13T12:15:44.000Z</time>
      </trkpt>
      <trkpt lat="43.85169" lon="7.23841">
        <ele>549</ele>
        <time>2018-05-13T12:15:51.000Z</time>
      </trkpt>
      <trkpt lat="43.85167" lon="7.23837">
        <ele>549</ele>
        <time>2018-05-13T12:15:56.000Z</time>
      </trkpt>
      <trkpt lat="43.85167" lon="7.23836">
        <ele>549</ele>
        <time>2018-05-13T12:16:01.000Z</time>
      </trkpt>
      <trkpt lat="43.85167" lon="7.23836">
        <ele>549</ele>
        <time>2018-05-13T12:16:09.000Z</time>
      </trkpt>
      <trkpt lat="43.85167" lon="7.23836">
        <ele>549</ele>
        <time>2018-05-13T12:16:22.000Z</time>
      </trkpt>
      <trkpt lat="43.85166" lon="7.23836">
        <ele>549</ele>
        <time>2018-05-13T12:16:30.000Z</time>
      </trkpt>
      <trkpt lat="43.85167" lon="7.23836">
        <ele>549</ele>
        <time>2018-05-13T12:16:35.000Z</time>
      </trkpt>
      <trkpt lat="43.85168" lon="7.23836">
        <ele>549</ele>
        <time>2018-05-13T12:16:45.000Z</time>
      </trkpt>
      <trkpt lat="43.85168" lon="7.23835">
        <ele>549</ele>
        <time>2018-05-13T12:16:53.000Z</time>
      </trkpt>
      <trkpt lat="43.85168" lon="7.23835">
        <ele>549</ele>
        <time>2018-05-13T12:17:02.000Z</time>
      </trkpt>
      <trkpt lat="43.85168" lon="7.23834">
        <ele>549</ele>
        <time>2018-05-13T12:17:15.000Z</time>
      </trkpt>
      <trkpt lat="43.85168" lon="7.23834">
        <ele>549</ele>
        <time>2018-05-13T12:17:22.000Z</time>
      </trkpt>
      <trkpt lat="43.85168" lon="7.23834">
        <ele>549</ele>
        <time>2018-05-13T12:17:27.000Z</time>
      </trkpt>
      <trkpt lat="43.85168" lon="7.23835">
        <ele>549</ele>
        <time>2018-05-13T12:17:52.000Z</time>
      </trkpt>
      <trkpt lat="43.85168" lon="7.23836">
        <ele>549</ele>
        <time>2018-05-13T12:18:05.000Z</time>
      </trkpt>
      <trkpt lat="43.8517" lon="7.23838">
        <ele>549</ele>
        <time>2018-05-13T12:18:13.000Z</time>
      </trkpt>
      <trkpt lat="43.85172" lon="7.23841">
        <ele>549</ele>
        <time>2018-05-13T12:18:19.000Z</time>
      </trkpt>
      <trkpt lat="43.85172" lon="7.23841">
        <ele>549</ele>
        <time>2018-05-13T12:18:33.000Z</time>
      </trkpt>
      <trkpt lat="43.85172" lon="7.23842">
        <ele>549</ele>
        <time>2018-05-13T12:18:55.000Z</time>
      </trkpt>
      <trkpt lat="43.85172" lon="7.23842">
        <ele>549</ele>
        <time>2018-05-13T12:19:05.000Z</time>
      </trkpt>
      <trkpt lat="43.85173" lon="7.23842">
        <ele>549</ele>
        <time>2018-05-13T12:19:14.000Z</time>
      </trkpt>
      <trkpt lat="43.85174" lon="7.23843">
        <ele>549</ele>
        <time>2018-05-13T12:19:23.000Z</time>
      </trkpt>
      <trkpt lat="43.85174" lon="7.23843">
        <ele>549</ele>
        <time>2018-05-13T12:19:29.000Z</time>
      </trkpt>
      <trkpt lat="43.85173" lon="7.23842">
        <ele>549</ele>
        <time>2018-05-13T12:19:30.000Z</time>
      </trkpt>
      <trkpt lat="43.85171" lon="7.23839">
        <ele>549</ele>
        <time>2018-05-13T12:19:34.000Z</time>
      </trkpt>
      <trkpt lat="43.85168" lon="7.23838">
        <ele>549</ele>
        <time>2018-05-13T12:19:40.000Z</time>
      </trkpt>
      <trkpt lat="43.85168" lon="7.23835">
        <ele>549</ele>
        <time>2018-05-13T12:19:45.000Z</time>
      </trkpt>
      <trkpt lat="43.85168" lon="7.23836">
        <ele>549</ele>
        <time>2018-05-13T12:19:53.000Z</time>
      </trkpt>
      <trkpt lat="43.85167" lon="7.23838">
        <ele>549</ele>
        <time>2018-05-13T12:19:58.000Z</time>
      </trkpt>
      <trkpt lat="43.85167" lon="7.23838">
        <ele>549</ele>
        <time>2018-05-13T12:20:06.000Z</time>
      </trkpt>
      <trkpt lat="43.85168" lon="7.23841">
        <ele>549</ele>
        <time>2018-05-13T12:20:13.000Z</time>
      </trkpt>
      <trkpt lat="43.85169" lon="7.23838">
        <ele>549</ele>
        <time>2018-05-13T12:20:15.000Z</time>
      </trkpt>
      <trkpt lat="43.85169" lon="7.23837">
        <ele>549</ele>
        <time>2018-05-13T12:20:17.000Z</time>
      </trkpt>
      <trkpt lat="43.85169" lon="7.2384">
        <ele>549</ele>
        <time>2018-05-13T12:20:20.000Z</time>
      </trkpt>
      <trkpt lat="43.85169" lon="7.23843">
        <ele>549</ele>
        <time>2018-05-13T12:20:22.000Z</time>
      </trkpt>
      <trkpt lat="43.8517" lon="7.23843">
        <ele>549</ele>
        <time>2018-05-13T12:20:27.000Z</time>
      </trkpt>
      <trkpt lat="43.8517" lon="7.23842">
        <ele>549</ele>
        <time>2018-05-13T12:20:35.000Z</time>
      </trkpt>
      <trkpt lat="43.85168" lon="7.2384">
        <ele>549</ele>
        <time>2018-05-13T12:20:39.000Z</time>
      </trkpt>
      <trkpt lat="43.85167" lon="7.23836">
        <ele>549</ele>
        <time>2018-05-13T12:20:41.000Z</time>
      </trkpt>
      <trkpt lat="43.8516" lon="7.23827">
        <ele>548</ele>
        <time>2018-05-13T12:20:47.000Z</time>
      </trkpt>
      <trkpt lat="43.85153" lon="7.23824">
        <ele>548</ele>
        <time>2018-05-13T12:20:50.000Z</time>
      </trkpt>
      <trkpt lat="43.85152" lon="7.2382">
        <ele>547</ele>
        <time>2018-05-13T12:20:51.000Z</time>
      </trkpt>
      <trkpt lat="43.85149" lon="7.23812">
        <ele>547</ele>
        <time>2018-05-13T12:20:53.000Z</time>
      </trkpt>
      <trkpt lat="43.85145" lon="7.23802">
        <ele>547</ele>
        <time>2018-05-13T12:20:55.000Z</time>
      </trkpt>
      <trkpt lat="43.85143" lon="7.23796">
        <ele>547</ele>
        <time>2018-05-13T12:20:56.000Z</time>
      </trkpt>
      <trkpt lat="43.85138" lon="7.23778">
        <ele>547</ele>
        <time>2018-05-13T12:20:59.000Z</time>
      </trkpt>
      <trkpt lat="43.85135" lon="7.23766">
        <ele>546</ele>
        <time>2018-05-13T12:21:01.000Z</time>
      </trkpt>
      <trkpt lat="43.85132" lon="7.23755">
        <ele>546</ele>
        <time>2018-05-13T12:21:03.000Z</time>
      </trkpt>
      <trkpt lat="43.85126" lon="7.2374">
        <ele>544</ele>
        <time>2018-05-13T12:21:07.000Z</time>
      </trkpt>
      <trkpt lat="43.85127" lon="7.2374">
        <ele>544</ele>
        <time>2018-05-13T12:21:10.000Z</time>
      </trkpt>
      <trkpt lat="43.85126" lon="7.23742">
        <ele>544</ele>
        <time>2018-05-13T12:21:17.000Z</time>
      </trkpt>
      <trkpt lat="43.85126" lon="7.23742">
        <ele>544</ele>
        <time>2018-05-13T12:21:18.000Z</time>
      </trkpt>
      <trkpt lat="43.85124" lon="7.2374">
        <ele>544</ele>
        <time>2018-05-13T12:21:19.000Z</time>
      </trkpt>
      <trkpt lat="43.85119" lon="7.23736">
        <ele>544</ele>
        <time>2018-05-13T12:21:22.000Z</time>
      </trkpt>
      <trkpt lat="43.85103" lon="7.23732">
        <ele>543</ele>
        <time>2018-05-13T12:21:26.000Z</time>
      </trkpt>
      <trkpt lat="43.8509" lon="7.23743">
        <ele>543</ele>
        <time>2018-05-13T12:21:30.000Z</time>
      </trkpt>
      <trkpt lat="43.85075" lon="7.23751">
        <ele>543</ele>
        <time>2018-05-13T12:21:35.000Z</time>
      </trkpt>
      <trkpt lat="43.85059" lon="7.23754">
        <ele>543</ele>
        <time>2018-05-13T12:21:41.000Z</time>
      </trkpt>
      <trkpt lat="43.85039" lon="7.23752">
        <ele>543</ele>
        <time>2018-05-13T12:21:48.000Z</time>
      </trkpt>
      <trkpt lat="43.85025" lon="7.23754">
        <ele>543</ele>
        <time>2018-05-13T12:21:54.000Z</time>
      </trkpt>
      <trkpt lat="43.85023" lon="7.23755">
        <ele>543</ele>
        <time>2018-05-13T12:21:55.000Z</time>
      </trkpt>
      <trkpt lat="43.8501" lon="7.23761">
        <ele>543</ele>
        <time>2018-05-13T12:22:00.000Z</time>
      </trkpt>
      <trkpt lat="43.85003" lon="7.23765">
        <ele>543</ele>
        <time>2018-05-13T12:22:02.000Z</time>
      </trkpt>
      <trkpt lat="43.84985" lon="7.23774">
        <ele>544</ele>
        <time>2018-05-13T12:22:08.000Z</time>
      </trkpt>
      <trkpt lat="43.84983" lon="7.23776">
        <ele>544</ele>
        <time>2018-05-13T12:22:09.000Z</time>
      </trkpt>
      <trkpt lat="43.84969" lon="7.23779">
        <ele>544</ele>
        <time>2018-05-13T12:22:14.000Z</time>
      </trkpt>
      <trkpt lat="43.84966" lon="7.23781">
        <ele>544</ele>
        <time>2018-05-13T12:22:15.000Z</time>
      </trkpt>
      <trkpt lat="43.84946" lon="7.23793">
        <ele>545</ele>
        <time>2018-05-13T12:22:22.000Z</time>
      </trkpt>
      <trkpt lat="43.84934" lon="7.23796">
        <ele>545</ele>
        <time>2018-05-13T12:22:26.000Z</time>
      </trkpt>
      <trkpt lat="43.84932" lon="7.23792">
        <ele>545</ele>
        <time>2018-05-13T12:22:27.000Z</time>
      </trkpt>
      <trkpt lat="43.84923" lon="7.23773">
        <ele>544</ele>
        <time>2018-05-13T12:22:31.000Z</time>
      </trkpt>
      <trkpt lat="43.84906" lon="7.23751">
        <ele>544</ele>
        <time>2018-05-13T12:22:36.000Z</time>
      </trkpt>
      <trkpt lat="43.84904" lon="7.23752">
        <ele>544</ele>
        <time>2018-05-13T12:22:37.000Z</time>
      </trkpt>
      <trkpt lat="43.84898" lon="7.23748">
        <ele>543</ele>
        <time>2018-05-13T12:22:39.000Z</time>
      </trkpt>
      <trkpt lat="43.84892" lon="7.23736">
        <ele>543</ele>
        <time>2018-05-13T12:22:41.000Z</time>
      </trkpt>
      <trkpt lat="43.84888" lon="7.23723">
        <ele>543</ele>
        <time>2018-05-13T12:22:43.000Z</time>
      </trkpt>
      <trkpt lat="43.84875" lon="7.23689">
        <ele>543</ele>
        <time>2018-05-13T12:22:48.000Z</time>
      </trkpt>
      <trkpt lat="43.8487" lon="7.23676">
        <ele>543</ele>
        <time>2018-05-13T12:22:50.000Z</time>
      </trkpt>
      <trkpt lat="43.84865" lon="7.23663">
        <ele>542</ele>
        <time>2018-05-13T12:22:52.000Z</time>
      </trkpt>
      <trkpt lat="43.84856" lon="7.23637">
        <ele>542</ele>
        <time>2018-05-13T12:22:56.000Z</time>
      </trkpt>
      <trkpt lat="43.84841" lon="7.23607">
        <ele>542</ele>
        <time>2018-05-13T12:23:01.000Z</time>
      </trkpt>
      <trkpt lat="43.84836" lon="7.23595">
        <ele>542</ele>
        <time>2018-05-13T12:23:03.000Z</time>
      </trkpt>
      <trkpt lat="43.84827" lon="7.23572">
        <ele>542</ele>
        <time>2018-05-13T12:23:07.000Z</time>
      </trkpt>
      <trkpt lat="43.8482" lon="7.2355">
        <ele>542</ele>
        <time>2018-05-13T12:23:11.000Z</time>
      </trkpt>
      <trkpt lat="43.84808" lon="7.23514">
        <ele>542</ele>
        <time>2018-05-13T12:23:18.000Z</time>
      </trkpt>
      <trkpt lat="43.84792" lon="7.23486">
        <ele>544</ele>
        <time>2018-05-13T12:23:25.000Z</time>
      </trkpt>
      <trkpt lat="43.84781" lon="7.2349">
        <ele>544</ele>
        <time>2018-05-13T12:23:28.000Z</time>
      </trkpt>
      <trkpt lat="43.84778" lon="7.23492">
        <ele>544</ele>
        <time>2018-05-13T12:23:29.000Z</time>
      </trkpt>
      <trkpt lat="43.84757" lon="7.2351">
        <ele>544</ele>
        <time>2018-05-13T12:23:34.000Z</time>
      </trkpt>
      <trkpt lat="43.8472" lon="7.23542">
        <ele>546</ele>
        <time>2018-05-13T12:23:42.000Z</time>
      </trkpt>
      <trkpt lat="43.84686" lon="7.2358">
        <ele>546</ele>
        <time>2018-05-13T12:23:50.000Z</time>
      </trkpt>
      <trkpt lat="43.8465" lon="7.23628">
        <ele>545</ele>
        <time>2018-05-13T12:23:59.000Z</time>
      </trkpt>
      <trkpt lat="43.84638" lon="7.23645">
        <ele>544</ele>
        <time>2018-05-13T12:24:02.000Z</time>
      </trkpt>
      <trkpt lat="43.8463" lon="7.23656">
        <ele>544</ele>
        <time>2018-05-13T12:24:04.000Z</time>
      </trkpt>
      <trkpt lat="43.84622" lon="7.23667">
        <ele>542</ele>
        <time>2018-05-13T12:24:06.000Z</time>
      </trkpt>
      <trkpt lat="43.84589" lon="7.23716">
        <ele>542</ele>
        <time>2018-05-13T12:24:15.000Z</time>
      </trkpt>
      <trkpt lat="43.84561" lon="7.23756">
        <ele>542</ele>
        <time>2018-05-13T12:24:23.000Z</time>
      </trkpt>
      <trkpt lat="43.8453" lon="7.23792">
        <ele>543</ele>
        <time>2018-05-13T12:24:31.000Z</time>
      </trkpt>
      <trkpt lat="43.84495" lon="7.23833">
        <ele>545</ele>
        <time>2018-05-13T12:24:40.000Z</time>
      </trkpt>
      <trkpt lat="43.84468" lon="7.23869">
        <ele>547</ele>
        <time>2018-05-13T12:24:48.000Z</time>
      </trkpt>
      <trkpt lat="43.84453" lon="7.23888">
        <ele>547</ele>
        <time>2018-05-13T12:24:53.000Z</time>
      </trkpt>
      <trkpt lat="43.84443" lon="7.239">
        <ele>548</ele>
        <time>2018-05-13T12:24:57.000Z</time>
      </trkpt>
      <trkpt lat="43.84436" lon="7.23901">
        <ele>548</ele>
        <time>2018-05-13T12:25:00.000Z</time>
      </trkpt>
      <trkpt lat="43.84434" lon="7.23903">
        <ele>548</ele>
        <time>2018-05-13T12:25:01.000Z</time>
      </trkpt>
      <trkpt lat="43.84432" lon="7.23903">
        <ele>548</ele>
        <time>2018-05-13T12:25:02.000Z</time>
      </trkpt>
      <trkpt lat="43.84432" lon="7.23903">
        <ele>548</ele>
        <time>2018-05-13T12:25:04.000Z</time>
      </trkpt>
      <trkpt lat="43.84431" lon="7.23901">
        <ele>548</ele>
        <time>2018-05-13T12:25:06.000Z</time>
      </trkpt>
      <trkpt lat="43.84429" lon="7.23898">
        <ele>548</ele>
        <time>2018-05-13T12:25:10.000Z</time>
      </trkpt>
      <trkpt lat="43.84427" lon="7.23896">
        <ele>549</ele>
        <time>2018-05-13T12:25:14.000Z</time>
      </trkpt>
      <trkpt lat="43.84425" lon="7.23893">
        <ele>549</ele>
        <time>2018-05-13T12:25:17.000Z</time>
      </trkpt>
      <trkpt lat="43.8442" lon="7.23889">
        <ele>549</ele>
        <time>2018-05-13T12:25:22.000Z</time>
      </trkpt>
      <trkpt lat="43.84419" lon="7.23888">
        <ele>549</ele>
        <time>2018-05-13T12:25:23.000Z</time>
      </trkpt>
      <trkpt lat="43.84414" lon="7.23882">
        <ele>556</ele>
        <time>2018-05-13T12:25:29.000Z</time>
      </trkpt>
      <trkpt lat="43.84412" lon="7.23878">
        <ele>556</ele>
        <time>2018-05-13T12:25:32.000Z</time>
      </trkpt>
      <trkpt lat="43.84412" lon="7.23875">
        <ele>556</ele>
        <time>2018-05-13T12:25:34.000Z</time>
      </trkpt>
      <trkpt lat="43.84412" lon="7.23872">
        <ele>556</ele>
        <time>2018-05-13T12:25:37.000Z</time>
      </trkpt>
      <trkpt lat="43.84411" lon="7.2387">
        <ele>556</ele>
        <time>2018-05-13T12:25:39.000Z</time>
      </trkpt>
      <trkpt lat="43.8441" lon="7.23869">
        <ele>556</ele>
        <time>2018-05-13T12:25:40.000Z</time>
      </trkpt>
      <trkpt lat="43.8441" lon="7.23867">
        <ele>556</ele>
        <time>2018-05-13T12:25:41.000Z</time>
      </trkpt>
      <trkpt lat="43.84411" lon="7.23866">
        <ele>556</ele>
        <time>2018-05-13T12:25:42.000Z</time>
      </trkpt>
      <trkpt lat="43.84413" lon="7.23863">
        <ele>556</ele>
        <time>2018-05-13T12:25:45.000Z</time>
      </trkpt>
      <trkpt lat="43.84411" lon="7.2386">
        <ele>556</ele>
        <time>2018-05-13T12:25:48.000Z</time>
      </trkpt>
      <trkpt lat="43.8441" lon="7.2386">
        <ele>556</ele>
        <time>2018-05-13T12:25:50.000Z</time>
      </trkpt>
      <trkpt lat="43.84408" lon="7.23861">
        <ele>556</ele>
        <time>2018-05-13T12:25:52.000Z</time>
      </trkpt>
      <trkpt lat="43.84405" lon="7.23861">
        <ele>556</ele>
        <time>2018-05-13T12:25:56.000Z</time>
      </trkpt>
      <trkpt lat="43.84402" lon="7.2386">
        <ele>557</ele>
        <time>2018-05-13T12:26:02.000Z</time>
      </trkpt>
      <trkpt lat="43.84401" lon="7.23861">
        <ele>557</ele>
        <time>2018-05-13T12:26:03.000Z</time>
      </trkpt>
      <trkpt lat="43.84399" lon="7.2386">
        <ele>557</ele>
        <time>2018-05-13T12:26:06.000Z</time>
      </trkpt>
      <trkpt lat="43.84398" lon="7.23858">
        <ele>557</ele>
        <time>2018-05-13T12:26:08.000Z</time>
      </trkpt>
      <trkpt lat="43.84398" lon="7.23857">
        <ele>557</ele>
        <time>2018-05-13T12:26:09.000Z</time>
      </trkpt>
      <trkpt lat="43.84394" lon="7.23855">
        <ele>557</ele>
        <time>2018-05-13T12:26:15.000Z</time>
      </trkpt>
      <trkpt lat="43.84393" lon="7.23855">
        <ele>557</ele>
        <time>2018-05-13T12:26:16.000Z</time>
      </trkpt>
      <trkpt lat="43.8439" lon="7.23851">
        <ele>557</ele>
        <time>2018-05-13T12:26:21.000Z</time>
      </trkpt>
      <trkpt lat="43.8439" lon="7.23848">
        <ele>557</ele>
        <time>2018-05-13T12:26:24.000Z</time>
      </trkpt>
      <trkpt lat="43.8439" lon="7.23845">
        <ele>557</ele>
        <time>2018-05-13T12:26:29.000Z</time>
      </trkpt>
      <trkpt lat="43.8439" lon="7.23844">
        <ele>557</ele>
        <time>2018-05-13T12:26:30.000Z</time>
      </trkpt>
      <trkpt lat="43.84394" lon="7.23832">
        <ele>559</ele>
        <time>2018-05-13T12:26:35.000Z</time>
      </trkpt>
      <trkpt lat="43.84395" lon="7.23816">
        <ele>560</ele>
        <time>2018-05-13T12:26:39.000Z</time>
      </trkpt>
      <trkpt lat="43.84393" lon="7.23814">
        <ele>560</ele>
        <time>2018-05-13T12:26:40.000Z</time>
      </trkpt>
      <trkpt lat="43.8439" lon="7.23802">
        <ele>562</ele>
        <time>2018-05-13T12:26:44.000Z</time>
      </trkpt>
      <trkpt lat="43.84389" lon="7.23797">
        <ele>562</ele>
        <time>2018-05-13T12:26:46.000Z</time>
      </trkpt>
      <trkpt lat="43.84388" lon="7.23795">
        <ele>562</ele>
        <time>2018-05-13T12:26:47.000Z</time>
      </trkpt>
      <trkpt lat="43.84386" lon="7.23793">
        <ele>562</ele>
        <time>2018-05-13T12:26:49.000Z</time>
      </trkpt>
      <trkpt lat="43.84383" lon="7.23792">
        <ele>563</ele>
        <time>2018-05-13T12:26:52.000Z</time>
      </trkpt>
      <trkpt lat="43.8438" lon="7.23792">
        <ele>563</ele>
        <time>2018-05-13T12:26:56.000Z</time>
      </trkpt>
      <trkpt lat="43.84378" lon="7.23791">
        <ele>563</ele>
        <time>2018-05-13T12:26:57.000Z</time>
      </trkpt>
      <trkpt lat="43.84371" lon="7.2379">
        <ele>564</ele>
        <time>2018-05-13T12:27:03.000Z</time>
      </trkpt>
      <trkpt lat="43.84368" lon="7.2379">
        <ele>564</ele>
        <time>2018-05-13T12:27:06.000Z</time>
      </trkpt>
      <trkpt lat="43.84366" lon="7.2379">
        <ele>564</ele>
        <time>2018-05-13T12:27:08.000Z</time>
      </trkpt>
      <trkpt lat="43.84363" lon="7.2379">
        <ele>565</ele>
        <time>2018-05-13T12:27:11.000Z</time>
      </trkpt>
      <trkpt lat="43.84361" lon="7.23789">
        <ele>565</ele>
        <time>2018-05-13T12:27:13.000Z</time>
      </trkpt>
      <trkpt lat="43.84356" lon="7.23789">
        <ele>565</ele>
        <time>2018-05-13T12:27:17.000Z</time>
      </trkpt>
      <trkpt lat="43.84355" lon="7.23789">
        <ele>565</ele>
        <time>2018-05-13T12:27:18.000Z</time>
      </trkpt>
      <trkpt lat="43.84354" lon="7.23788">
        <ele>565</ele>
        <time>2018-05-13T12:27:19.000Z</time>
      </trkpt>
      <trkpt lat="43.84348" lon="7.23788">
        <ele>566</ele>
        <time>2018-05-13T12:27:25.000Z</time>
      </trkpt>
      <trkpt lat="43.8434" lon="7.23785">
        <ele>567</ele>
        <time>2018-05-13T12:27:32.000Z</time>
      </trkpt>
      <trkpt lat="43.84338" lon="7.23784">
        <ele>567</ele>
        <time>2018-05-13T12:27:34.000Z</time>
      </trkpt>
      <trkpt lat="43.84337" lon="7.23785">
        <ele>567</ele>
        <time>2018-05-13T12:27:37.000Z</time>
      </trkpt>
      <trkpt lat="43.84329" lon="7.23783">
        <ele>570</ele>
        <time>2018-05-13T12:27:43.000Z</time>
      </trkpt>
      <trkpt lat="43.84328" lon="7.23783">
        <ele>570</ele>
        <time>2018-05-13T12:27:44.000Z</time>
      </trkpt>
      <trkpt lat="43.84321" lon="7.23778">
        <ele>570</ele>
        <time>2018-05-13T12:27:49.000Z</time>
      </trkpt>
      <trkpt lat="43.84313" lon="7.23775">
        <ele>570</ele>
        <time>2018-05-13T12:27:54.000Z</time>
      </trkpt>
      <trkpt lat="43.84312" lon="7.23777">
        <ele>569</ele>
        <time>2018-05-13T12:27:55.000Z</time>
      </trkpt>
      <trkpt lat="43.84304" lon="7.23779">
        <ele>569</ele>
        <time>2018-05-13T12:27:59.000Z</time>
      </trkpt>
      <trkpt lat="43.843" lon="7.23775">
        <ele>569</ele>
        <time>2018-05-13T12:28:01.000Z</time>
      </trkpt>
      <trkpt lat="43.8429" lon="7.23767">
        <ele>568</ele>
        <time>2018-05-13T12:28:04.000Z</time>
      </trkpt>
      <trkpt lat="43.84273" lon="7.23756">
        <ele>567</ele>
        <time>2018-05-13T12:28:09.000Z</time>
      </trkpt>
      <trkpt lat="43.8427" lon="7.23754">
        <ele>567</ele>
        <time>2018-05-13T12:28:10.000Z</time>
      </trkpt>
      <trkpt lat="43.84262" lon="7.23747">
        <ele>568</ele>
        <time>2018-05-13T12:28:12.000Z</time>
      </trkpt>
      <trkpt lat="43.84251" lon="7.23738">
        <ele>568</ele>
        <time>2018-05-13T12:28:15.000Z</time>
      </trkpt>
      <trkpt lat="43.84235" lon="7.2372">
        <ele>563</ele>
        <time>2018-05-13T12:28:21.000Z</time>
      </trkpt>
      <trkpt lat="43.8422" lon="7.23705">
        <ele>563</ele>
        <time>2018-05-13T12:28:26.000Z</time>
      </trkpt>
      <trkpt lat="43.84211" lon="7.23697">
        <ele>563</ele>
        <time>2018-05-13T12:28:29.000Z</time>
      </trkpt>
      <trkpt lat="43.84203" lon="7.2369">
        <ele>562</ele>
        <time>2018-05-13T12:28:31.000Z</time>
      </trkpt>
      <trkpt lat="43.84191" lon="7.23681">
        <ele>561</ele>
        <time>2018-05-13T12:28:33.000Z</time>
      </trkpt>
      <trkpt lat="43.84185" lon="7.23677">
        <ele>560</ele>
        <time>2018-05-13T12:28:34.000Z</time>
      </trkpt>
      <trkpt lat="43.84178" lon="7.23675">
        <ele>560</ele>
        <time>2018-05-13T12:28:35.000Z</time>
      </trkpt>
      <trkpt lat="43.84171" lon="7.23671">
        <ele>559</ele>
        <time>2018-05-13T12:28:36.000Z</time>
      </trkpt>
      <trkpt lat="43.84164" lon="7.23667">
        <ele>559</ele>
        <time>2018-05-13T12:28:37.000Z</time>
      </trkpt>
      <trkpt lat="43.84153" lon="7.23661">
        <ele>562</ele>
        <time>2018-05-13T12:28:39.000Z</time>
      </trkpt>
      <trkpt lat="43.8415" lon="7.23659">
        <ele>562</ele>
        <time>2018-05-13T12:28:40.000Z</time>
      </trkpt>
      <trkpt lat="43.84148" lon="7.23658">
        <ele>563</ele>
        <time>2018-05-13T12:28:41.000Z</time>
      </trkpt>
      <trkpt lat="43.8414" lon="7.23654">
        <ele>564</ele>
        <time>2018-05-13T12:28:44.000Z</time>
      </trkpt>
      <trkpt lat="43.84123" lon="7.2365">
        <ele>565</ele>
        <time>2018-05-13T12:28:50.000Z</time>
      </trkpt>
      <trkpt lat="43.84112" lon="7.23646">
        <ele>566</ele>
        <time>2018-05-13T12:28:55.000Z</time>
      </trkpt>
      <trkpt lat="43.8411" lon="7.23649">
        <ele>566</ele>
        <time>2018-05-13T12:28:56.000Z</time>
      </trkpt>
      <trkpt lat="43.84102" lon="7.23668">
        <ele>565</ele>
        <time>2018-05-13T12:29:02.000Z</time>
      </trkpt>
      <trkpt lat="43.84101" lon="7.2368">
        <ele>565</ele>
        <time>2018-05-13T12:29:05.000Z</time>
      </trkpt>
      <trkpt lat="43.84102" lon="7.23689">
        <ele>564</ele>
        <time>2018-05-13T12:29:08.000Z</time>
      </trkpt>
      <trkpt lat="43.84102" lon="7.23692">
        <ele>564</ele>
        <time>2018-05-13T12:29:09.000Z</time>
      </trkpt>
      <trkpt lat="43.841" lon="7.23703">
        <ele>564</ele>
        <time>2018-05-13T12:29:14.000Z</time>
      </trkpt>
      <trkpt lat="43.84099" lon="7.23713">
        <ele>564</ele>
        <time>2018-05-13T12:29:19.000Z</time>
      </trkpt>
      <trkpt lat="43.84099" lon="7.23714">
        <ele>564</ele>
        <time>2018-05-13T12:29:20.000Z</time>
      </trkpt>
      <trkpt lat="43.84099" lon="7.23714">
        <ele>564</ele>
        <time>2018-05-13T12:29:22.000Z</time>
      </trkpt>
      <trkpt lat="43.84098" lon="7.23715">
        <ele>564</ele>
        <time>2018-05-13T12:29:26.000Z</time>
      </trkpt>
      <trkpt lat="43.84094" lon="7.2372">
        <ele>564</ele>
        <time>2018-05-13T12:29:34.000Z</time>
      </trkpt>
      <trkpt lat="43.8409" lon="7.23724">
        <ele>565</ele>
        <time>2018-05-13T12:29:40.000Z</time>
      </trkpt>
      <trkpt lat="43.8409" lon="7.23725">
        <ele>565</ele>
        <time>2018-05-13T12:29:41.000Z</time>
      </trkpt>
      <trkpt lat="43.84088" lon="7.23728">
        <ele>565</ele>
        <time>2018-05-13T12:29:45.000Z</time>
      </trkpt>
      <trkpt lat="43.84087" lon="7.2373">
        <ele>565</ele>
        <time>2018-05-13T12:29:48.000Z</time>
      </trkpt>
      <trkpt lat="43.84086" lon="7.23733">
        <ele>566</ele>
        <time>2018-05-13T12:29:51.000Z</time>
      </trkpt>
      <trkpt lat="43.84083" lon="7.23738">
        <ele>572</ele>
        <time>2018-05-13T12:29:58.000Z</time>
      </trkpt>
      <trkpt lat="43.8408" lon="7.23743">
        <ele>571</ele>
        <time>2018-05-13T12:30:04.000Z</time>
      </trkpt>
      <trkpt lat="43.84079" lon="7.23745">
        <ele>571</ele>
        <time>2018-05-13T12:30:07.000Z</time>
      </trkpt>
      <trkpt lat="43.84078" lon="7.23746">
        <ele>571</ele>
        <time>2018-05-13T12:30:09.000Z</time>
      </trkpt>
      <trkpt lat="43.84076" lon="7.2375">
        <ele>571</ele>
        <time>2018-05-13T12:30:14.000Z</time>
      </trkpt>
      <trkpt lat="43.84074" lon="7.23751">
        <ele>571</ele>
        <time>2018-05-13T12:30:16.000Z</time>
      </trkpt>
      <trkpt lat="43.84072" lon="7.23752">
        <ele>571</ele>
        <time>2018-05-13T12:30:19.000Z</time>
      </trkpt>
      <trkpt lat="43.84069" lon="7.23754">
        <ele>571</ele>
        <time>2018-05-13T12:30:25.000Z</time>
      </trkpt>
      <trkpt lat="43.84068" lon="7.23754">
        <ele>571</ele>
        <time>2018-05-13T12:30:26.000Z</time>
      </trkpt>
      <trkpt lat="43.84065" lon="7.23756">
        <ele>572</ele>
        <time>2018-05-13T12:30:31.000Z</time>
      </trkpt>
      <trkpt lat="43.84062" lon="7.23756">
        <ele>572</ele>
        <time>2018-05-13T12:30:35.000Z</time>
      </trkpt>
      <trkpt lat="43.8406" lon="7.23756">
        <ele>572</ele>
        <time>2018-05-13T12:30:37.000Z</time>
      </trkpt>
      <trkpt lat="43.84056" lon="7.23758">
        <ele>573</ele>
        <time>2018-05-13T12:30:42.000Z</time>
      </trkpt>
      <trkpt lat="43.84055" lon="7.23758">
        <ele>573</ele>
        <time>2018-05-13T12:30:44.000Z</time>
      </trkpt>
      <trkpt lat="43.84052" lon="7.23757">
        <ele>573</ele>
        <time>2018-05-13T12:30:48.000Z</time>
      </trkpt>
      <trkpt lat="43.84049" lon="7.23755">
        <ele>574</ele>
        <time>2018-05-13T12:30:52.000Z</time>
      </trkpt>
      <trkpt lat="43.84047" lon="7.23751">
        <ele>574</ele>
        <time>2018-05-13T12:30:56.000Z</time>
      </trkpt>
      <trkpt lat="43.84046" lon="7.23746">
        <ele>577</ele>
        <time>2018-05-13T12:31:00.000Z</time>
      </trkpt>
      <trkpt lat="43.84045" lon="7.23745">
        <ele>577</ele>
        <time>2018-05-13T12:31:04.000Z</time>
      </trkpt>
      <trkpt lat="43.84044" lon="7.23737">
        <ele>577</ele>
        <time>2018-05-13T12:31:09.000Z</time>
      </trkpt>
      <trkpt lat="43.84044" lon="7.23732">
        <ele>577</ele>
        <time>2018-05-13T12:31:12.000Z</time>
      </trkpt>
      <trkpt lat="43.84043" lon="7.23727">
        <ele>577</ele>
        <time>2018-05-13T12:31:15.000Z</time>
      </trkpt>
      <trkpt lat="43.84042" lon="7.23724">
        <ele>578</ele>
        <time>2018-05-13T12:31:17.000Z</time>
      </trkpt>
      <trkpt lat="43.84038" lon="7.2372">
        <ele>578</ele>
        <time>2018-05-13T12:31:22.000Z</time>
      </trkpt>
      <trkpt lat="43.84036" lon="7.2372">
        <ele>578</ele>
        <time>2018-05-13T12:31:24.000Z</time>
      </trkpt>
      <trkpt lat="43.8403" lon="7.2372">
        <ele>579</ele>
        <time>2018-05-13T12:31:28.000Z</time>
      </trkpt>
      <trkpt lat="43.8403" lon="7.2372">
        <ele>579</ele>
        <time>2018-05-13T12:31:29.000Z</time>
      </trkpt>
      <trkpt lat="43.84025" lon="7.23719">
        <ele>579</ele>
        <time>2018-05-13T12:31:33.000Z</time>
      </trkpt>
      <trkpt lat="43.84023" lon="7.23719">
        <ele>580</ele>
        <time>2018-05-13T12:31:34.000Z</time>
      </trkpt>
      <trkpt lat="43.84023" lon="7.23719">
        <ele>580</ele>
        <time>2018-05-13T12:31:35.000Z</time>
      </trkpt>
      <trkpt lat="43.84021" lon="7.23721">
        <ele>580</ele>
        <time>2018-05-13T12:31:37.000Z</time>
      </trkpt>
      <trkpt lat="43.84019" lon="7.23723">
        <ele>580</ele>
        <time>2018-05-13T12:31:38.000Z</time>
      </trkpt>
      <trkpt lat="43.84015" lon="7.23725">
        <ele>580</ele>
        <time>2018-05-13T12:31:42.000Z</time>
      </trkpt>
      <trkpt lat="43.84014" lon="7.23725">
        <ele>581</ele>
        <time>2018-05-13T12:31:43.000Z</time>
      </trkpt>
      <trkpt lat="43.84007" lon="7.23721">
        <ele>581</ele>
        <time>2018-05-13T12:31:49.000Z</time>
      </trkpt>
      <trkpt lat="43.84006" lon="7.2372">
        <ele>581</ele>
        <time>2018-05-13T12:31:50.000Z</time>
      </trkpt>
      <trkpt lat="43.84001" lon="7.23717">
        <ele>581</ele>
        <time>2018-05-13T12:31:55.000Z</time>
      </trkpt>
      <trkpt lat="43.83999" lon="7.23716">
        <ele>585</ele>
        <time>2018-05-13T12:31:57.000Z</time>
      </trkpt>
      <trkpt lat="43.83995" lon="7.23715">
        <ele>585</ele>
        <time>2018-05-13T12:32:01.000Z</time>
      </trkpt>
      <trkpt lat="43.83992" lon="7.23714">
        <ele>585</ele>
        <time>2018-05-13T12:32:03.000Z</time>
      </trkpt>
      <trkpt lat="43.83988" lon="7.23714">
        <ele>585</ele>
        <time>2018-05-13T12:32:07.000Z</time>
      </trkpt>
      <trkpt lat="43.83985" lon="7.23714">
        <ele>585</ele>
        <time>2018-05-13T12:32:09.000Z</time>
      </trkpt>
      <trkpt lat="43.83978" lon="7.23715">
        <ele>584</ele>
        <time>2018-05-13T12:32:13.000Z</time>
      </trkpt>
      <trkpt lat="43.83965" lon="7.2372">
        <ele>584</ele>
        <time>2018-05-13T12:32:19.000Z</time>
      </trkpt>
      <trkpt lat="43.83961" lon="7.23722">
        <ele>584</ele>
        <time>2018-05-13T12:32:20.000Z</time>
      </trkpt>
      <trkpt lat="43.83948" lon="7.23724">
        <ele>583</ele>
        <time>2018-05-13T12:32:23.000Z</time>
      </trkpt>
      <trkpt lat="43.83938" lon="7.23733">
        <ele>583</ele>
        <time>2018-05-13T12:32:26.000Z</time>
      </trkpt>
      <trkpt lat="43.83935" lon="7.23736">
        <ele>583</ele>
        <time>2018-05-13T12:32:27.000Z</time>
      </trkpt>
      <trkpt lat="43.83931" lon="7.23736">
        <ele>582</ele>
        <time>2018-05-13T12:32:28.000Z</time>
      </trkpt>
      <trkpt lat="43.83925" lon="7.23737">
        <ele>582</ele>
        <time>2018-05-13T12:32:30.000Z</time>
      </trkpt>
      <trkpt lat="43.83919" lon="7.23737">
        <ele>582</ele>
        <time>2018-05-13T12:32:32.000Z</time>
      </trkpt>
      <trkpt lat="43.83916" lon="7.23737">
        <ele>575</ele>
        <time>2018-05-13T12:32:33.000Z</time>
      </trkpt>
      <trkpt lat="43.83913" lon="7.23733">
        <ele>574</ele>
        <time>2018-05-13T12:32:34.000Z</time>
      </trkpt>
      <trkpt lat="43.83911" lon="7.23729">
        <ele>573</ele>
        <time>2018-05-13T12:32:35.000Z</time>
      </trkpt>
      <trkpt lat="43.8391" lon="7.23722">
        <ele>571</ele>
        <time>2018-05-13T12:32:37.000Z</time>
      </trkpt>
      <trkpt lat="43.83907" lon="7.23719">
        <ele>571</ele>
        <time>2018-05-13T12:32:39.000Z</time>
      </trkpt>
      <trkpt lat="43.83906" lon="7.2372">
        <ele>571</ele>
        <time>2018-05-13T12:32:40.000Z</time>
      </trkpt>
      <trkpt lat="43.83902" lon="7.23722">
        <ele>570</ele>
        <time>2018-05-13T12:32:42.000Z</time>
      </trkpt>
      <trkpt lat="43.839" lon="7.23723">
        <ele>570</ele>
        <time>2018-05-13T12:32:43.000Z</time>
      </trkpt>
      <trkpt lat="43.83898" lon="7.23724">
        <ele>570</ele>
        <time>2018-05-13T12:32:44.000Z</time>
      </trkpt>
      <trkpt lat="43.83893" lon="7.23725">
        <ele>569</ele>
        <time>2018-05-13T12:32:47.000Z</time>
      </trkpt>
      <trkpt lat="43.83892" lon="7.23726">
        <ele>569</ele>
        <time>2018-05-13T12:32:48.000Z</time>
      </trkpt>
      <trkpt lat="43.8389" lon="7.23727">
        <ele>569</ele>
        <time>2018-05-13T12:32:49.000Z</time>
      </trkpt>
      <trkpt lat="43.83887" lon="7.2373">
        <ele>568</ele>
        <time>2018-05-13T12:32:51.000Z</time>
      </trkpt>
      <trkpt lat="43.83883" lon="7.23731">
        <ele>567</ele>
        <time>2018-05-13T12:32:53.000Z</time>
      </trkpt>
      <trkpt lat="43.83879" lon="7.2373">
        <ele>566</ele>
        <time>2018-05-13T12:32:55.000Z</time>
      </trkpt>
      <trkpt lat="43.83874" lon="7.2373">
        <ele>565</ele>
        <time>2018-05-13T12:32:57.000Z</time>
      </trkpt>
      <trkpt lat="43.83873" lon="7.23727">
        <ele>565</ele>
        <time>2018-05-13T12:32:59.000Z</time>
      </trkpt>
      <trkpt lat="43.83873" lon="7.23727">
        <ele>565</ele>
        <time>2018-05-13T12:33:00.000Z</time>
      </trkpt>
      <trkpt lat="43.83873" lon="7.23727">
        <ele>565</ele>
        <time>2018-05-13T12:33:01.000Z</time>
      </trkpt>
      <trkpt lat="43.83873" lon="7.23727">
        <ele>565</ele>
        <time>2018-05-13T12:33:03.000Z</time>
      </trkpt>
      <trkpt lat="43.83873" lon="7.23727">
        <ele>565</ele>
        <time>2018-05-13T12:33:05.000Z</time>
      </trkpt>
      <trkpt lat="43.83872" lon="7.23728">
        <ele>565</ele>
        <time>2018-05-13T12:33:10.000Z</time>
      </trkpt>
      <trkpt lat="43.83872" lon="7.23726">
        <ele>565</ele>
        <time>2018-05-13T12:33:15.000Z</time>
      </trkpt>
      <trkpt lat="43.83872" lon="7.23726">
        <ele>565</ele>
        <time>2018-05-13T12:33:17.000Z</time>
      </trkpt>
      <trkpt lat="43.83872" lon="7.23727">
        <ele>565</ele>
        <time>2018-05-13T12:33:23.000Z</time>
      </trkpt>
      <trkpt lat="43.8387" lon="7.23728">
        <ele>564</ele>
        <time>2018-05-13T12:33:30.000Z</time>
      </trkpt>
      <trkpt lat="43.8387" lon="7.23728">
        <ele>565</ele>
        <time>2018-05-13T12:33:34.000Z</time>
      </trkpt>
      <trkpt lat="43.8387" lon="7.23728">
        <ele>565</ele>
        <time>2018-05-13T12:33:36.000Z</time>
      </trkpt>
      <trkpt lat="43.83865" lon="7.23731">
        <ele>563</ele>
        <time>2018-05-13T12:33:45.000Z</time>
      </trkpt>
      <trkpt lat="43.83859" lon="7.23733">
        <ele>562</ele>
        <time>2018-05-13T12:33:48.000Z</time>
      </trkpt>
      <trkpt lat="43.83855" lon="7.23733">
        <ele>561</ele>
        <time>2018-05-13T12:33:50.000Z</time>
      </trkpt>
      <trkpt lat="43.83852" lon="7.23733">
        <ele>560</ele>
        <time>2018-05-13T12:33:51.000Z</time>
      </trkpt>
      <trkpt lat="43.83848" lon="7.23734">
        <ele>559</ele>
        <time>2018-05-13T12:33:53.000Z</time>
      </trkpt>
      <trkpt lat="43.83845" lon="7.23738">
        <ele>558</ele>
        <time>2018-05-13T12:33:55.000Z</time>
      </trkpt>
      <trkpt lat="43.83839" lon="7.2374">
        <ele>556</ele>
        <time>2018-05-13T12:33:57.000Z</time>
      </trkpt>
      <trkpt lat="43.83834" lon="7.23746">
        <ele>553</ele>
        <time>2018-05-13T12:33:59.000Z</time>
      </trkpt>
      <trkpt lat="43.83826" lon="7.23754">
        <ele>549</ele>
        <time>2018-05-13T12:34:01.000Z</time>
      </trkpt>
      <trkpt lat="43.83822" lon="7.23758">
        <ele>548</ele>
        <time>2018-05-13T12:34:02.000Z</time>
      </trkpt>
      <trkpt lat="43.83818" lon="7.23762">
        <ele>548</ele>
        <time>2018-05-13T12:34:03.000Z</time>
      </trkpt>
      <trkpt lat="43.8381" lon="7.23773">
        <ele>546</ele>
        <time>2018-05-13T12:34:05.000Z</time>
      </trkpt>
      <trkpt lat="43.83805" lon="7.23783">
        <ele>546</ele>
        <time>2018-05-13T12:34:07.000Z</time>
      </trkpt>
      <trkpt lat="43.83802" lon="7.23789">
        <ele>547</ele>
        <time>2018-05-13T12:34:08.000Z</time>
      </trkpt>
      <trkpt lat="43.83801" lon="7.23794">
        <ele>547</ele>
        <time>2018-05-13T12:34:09.000Z</time>
      </trkpt>
      <trkpt lat="43.83795" lon="7.23802">
        <ele>547</ele>
        <time>2018-05-13T12:34:12.000Z</time>
      </trkpt>
      <trkpt lat="43.83792" lon="7.23807">
        <ele>547</ele>
        <time>2018-05-13T12:34:14.000Z</time>
      </trkpt>
      <trkpt lat="43.83788" lon="7.23817">
        <ele>547</ele>
        <time>2018-05-13T12:34:16.000Z</time>
      </trkpt>
      <trkpt lat="43.83783" lon="7.23829">
        <ele>546</ele>
        <time>2018-05-13T12:34:18.000Z</time>
      </trkpt>
      <trkpt lat="43.83778" lon="7.23836">
        <ele>557</ele>
        <time>2018-05-13T12:34:20.000Z</time>
      </trkpt>
      <trkpt lat="43.83766" lon="7.23841">
        <ele>553</ele>
        <time>2018-05-13T12:34:24.000Z</time>
      </trkpt>
      <trkpt lat="43.83757" lon="7.23838">
        <ele>547</ele>
        <time>2018-05-13T12:34:28.000Z</time>
      </trkpt>
      <trkpt lat="43.83753" lon="7.23837">
        <ele>545</ele>
        <time>2018-05-13T12:34:29.000Z</time>
      </trkpt>
      <trkpt lat="43.83747" lon="7.23838">
        <ele>541</ele>
        <time>2018-05-13T12:34:31.000Z</time>
      </trkpt>
      <trkpt lat="43.83744" lon="7.23835">
        <ele>541</ele>
        <time>2018-05-13T12:34:32.000Z</time>
      </trkpt>
      <trkpt lat="43.83741" lon="7.23835">
        <ele>541</ele>
        <time>2018-05-13T12:34:33.000Z</time>
      </trkpt>
      <trkpt lat="43.83736" lon="7.23835">
        <ele>541</ele>
        <time>2018-05-13T12:34:35.000Z</time>
      </trkpt>
      <trkpt lat="43.83733" lon="7.23835">
        <ele>541</ele>
        <time>2018-05-13T12:34:36.000Z</time>
      </trkpt>
      <trkpt lat="43.83731" lon="7.23834">
        <ele>541</ele>
        <time>2018-05-13T12:34:37.000Z</time>
      </trkpt>
      <trkpt lat="43.83728" lon="7.23832">
        <ele>528</ele>
        <time>2018-05-13T12:34:38.000Z</time>
      </trkpt>
      <trkpt lat="43.83726" lon="7.23829">
        <ele>527</ele>
        <time>2018-05-13T12:34:39.000Z</time>
      </trkpt>
      <trkpt lat="43.83722" lon="7.23829">
        <ele>526</ele>
        <time>2018-05-13T12:34:41.000Z</time>
      </trkpt>
      <trkpt lat="43.83722" lon="7.2383">
        <ele>526</ele>
        <time>2018-05-13T12:34:43.000Z</time>
      </trkpt>
      <trkpt lat="43.83721" lon="7.23831">
        <ele>526</ele>
        <time>2018-05-13T12:34:45.000Z</time>
      </trkpt>
      <trkpt lat="43.83718" lon="7.23831">
        <ele>525</ele>
        <time>2018-05-13T12:34:48.000Z</time>
      </trkpt>
      <trkpt lat="43.83717" lon="7.2383">
        <ele>525</ele>
        <time>2018-05-13T12:34:50.000Z</time>
      </trkpt>
      <trkpt lat="43.83715" lon="7.23828">
        <ele>524</ele>
        <time>2018-05-13T12:34:52.000Z</time>
      </trkpt>
      <trkpt lat="43.83714" lon="7.23824">
        <ele>524</ele>
        <time>2018-05-13T12:34:56.000Z</time>
      </trkpt>
      <trkpt lat="43.83714" lon="7.23825">
        <ele>524</ele>
        <time>2018-05-13T12:34:58.000Z</time>
      </trkpt>
      <trkpt lat="43.83714" lon="7.23824">
        <ele>524</ele>
        <time>2018-05-13T12:35:00.000Z</time>
      </trkpt>
      <trkpt lat="43.83714" lon="7.23823">
        <ele>524</ele>
        <time>2018-05-13T12:35:03.000Z</time>
      </trkpt>
      <trkpt lat="43.83714" lon="7.23821">
        <ele>523</ele>
        <time>2018-05-13T12:35:05.000Z</time>
      </trkpt>
      <trkpt lat="43.83714" lon="7.2382">
        <ele>523</ele>
        <time>2018-05-13T12:35:06.000Z</time>
      </trkpt>
      <trkpt lat="43.8371" lon="7.2382">
        <ele>523</ele>
        <time>2018-05-13T12:35:10.000Z</time>
      </trkpt>
      <trkpt lat="43.83708" lon="7.23818">
        <ele>522</ele>
        <time>2018-05-13T12:35:13.000Z</time>
      </trkpt>
      <trkpt lat="43.83707" lon="7.23819">
        <ele>522</ele>
        <time>2018-05-13T12:35:14.000Z</time>
      </trkpt>
      <trkpt lat="43.83708" lon="7.23819">
        <ele>522</ele>
        <time>2018-05-13T12:35:15.000Z</time>
      </trkpt>
      <trkpt lat="43.83706" lon="7.23821">
        <ele>522</ele>
        <time>2018-05-13T12:35:16.000Z</time>
      </trkpt>
      <trkpt lat="43.83704" lon="7.23821">
        <ele>522</ele>
        <time>2018-05-13T12:35:20.000Z</time>
      </trkpt>
      <trkpt lat="43.83703" lon="7.2382">
        <ele>521</ele>
        <time>2018-05-13T12:35:22.000Z</time>
      </trkpt>
      <trkpt lat="43.83701" lon="7.23817">
        <ele>521</ele>
        <time>2018-05-13T12:35:26.000Z</time>
      </trkpt>
      <trkpt lat="43.83701" lon="7.23815">
        <ele>521</ele>
        <time>2018-05-13T12:35:27.000Z</time>
      </trkpt>
      <trkpt lat="43.83705" lon="7.23807">
        <ele>521</ele>
        <time>2018-05-13T12:35:30.000Z</time>
      </trkpt>
      <trkpt lat="43.83704" lon="7.23805">
        <ele>520</ele>
        <time>2018-05-13T12:35:31.000Z</time>
      </trkpt>
      <trkpt lat="43.83703" lon="7.23806">
        <ele>520</ele>
        <time>2018-05-13T12:35:32.000Z</time>
      </trkpt>
      <trkpt lat="43.837" lon="7.2381">
        <ele>520</ele>
        <time>2018-05-13T12:35:34.000Z</time>
      </trkpt>
      <trkpt lat="43.83696" lon="7.23807">
        <ele>519</ele>
        <time>2018-05-13T12:35:37.000Z</time>
      </trkpt>
      <trkpt lat="43.83695" lon="7.23804">
        <ele>519</ele>
        <time>2018-05-13T12:35:38.000Z</time>
      </trkpt>
      <trkpt lat="43.83693" lon="7.23796">
        <ele>518</ele>
        <time>2018-05-13T12:35:41.000Z</time>
      </trkpt>
      <trkpt lat="43.83695" lon="7.23791">
        <ele>518</ele>
        <time>2018-05-13T12:35:43.000Z</time>
      </trkpt>
      <trkpt lat="43.837" lon="7.2379">
        <ele>518</ele>
        <time>2018-05-13T12:35:45.000Z</time>
      </trkpt>
      <trkpt lat="43.83699" lon="7.2379">
        <ele>518</ele>
        <time>2018-05-13T12:35:47.000Z</time>
      </trkpt>
      <trkpt lat="43.837" lon="7.23791">
        <ele>518</ele>
        <time>2018-05-13T12:35:50.000Z</time>
      </trkpt>
      <trkpt lat="43.83699" lon="7.23792">
        <ele>518</ele>
        <time>2018-05-13T12:35:54.000Z</time>
      </trkpt>
      <trkpt lat="43.837" lon="7.23791">
        <ele>518</ele>
        <time>2018-05-13T12:36:01.000Z</time>
      </trkpt>
      <trkpt lat="43.83698" lon="7.23787">
        <ele>518</ele>
        <time>2018-05-13T12:36:08.000Z</time>
      </trkpt>
      <trkpt lat="43.83697" lon="7.23786">
        <ele>517</ele>
        <time>2018-05-13T12:36:12.000Z</time>
      </trkpt>
      <trkpt lat="43.83697" lon="7.23786">
        <ele>517</ele>
        <time>2018-05-13T12:36:14.000Z</time>
      </trkpt>
      <trkpt lat="43.83693" lon="7.23785">
        <ele>517</ele>
        <time>2018-05-13T12:36:21.000Z</time>
      </trkpt>
      <trkpt lat="43.83692" lon="7.23785">
        <ele>516</ele>
        <time>2018-05-13T12:36:25.000Z</time>
      </trkpt>
      <trkpt lat="43.83691" lon="7.23785">
        <ele>516</ele>
        <time>2018-05-13T12:36:27.000Z</time>
      </trkpt>
      <trkpt lat="43.83688" lon="7.23783">
        <ele>516</ele>
        <time>2018-05-13T12:36:29.000Z</time>
      </trkpt>
      <trkpt lat="43.83687" lon="7.23783">
        <ele>516</ele>
        <time>2018-05-13T12:36:30.000Z</time>
      </trkpt>
      <trkpt lat="43.83685" lon="7.23784">
        <ele>516</ele>
        <time>2018-05-13T12:36:31.000Z</time>
      </trkpt>
      <trkpt lat="43.83679" lon="7.23792">
        <ele>516</ele>
        <time>2018-05-13T12:36:34.000Z</time>
      </trkpt>
      <trkpt lat="43.83676" lon="7.23794">
        <ele>516</ele>
        <time>2018-05-13T12:36:35.000Z</time>
      </trkpt>
      <trkpt lat="43.83672" lon="7.23793">
        <ele>516</ele>
        <time>2018-05-13T12:36:37.000Z</time>
      </trkpt>
      <trkpt lat="43.8367" lon="7.23794">
        <ele>516</ele>
        <time>2018-05-13T12:36:38.000Z</time>
      </trkpt>
      <trkpt lat="43.83666" lon="7.23791">
        <ele>500</ele>
        <time>2018-05-13T12:36:40.000Z</time>
      </trkpt>
      <trkpt lat="43.83664" lon="7.2379">
        <ele>500</ele>
        <time>2018-05-13T12:36:41.000Z</time>
      </trkpt>
      <trkpt lat="43.83663" lon="7.23786">
        <ele>499</ele>
        <time>2018-05-13T12:36:43.000Z</time>
      </trkpt>
      <trkpt lat="43.83663" lon="7.23785">
        <ele>499</ele>
        <time>2018-05-13T12:36:45.000Z</time>
      </trkpt>
      <trkpt lat="43.83662" lon="7.23782">
        <ele>498</ele>
        <time>2018-05-13T12:36:47.000Z</time>
      </trkpt>
      <trkpt lat="43.83664" lon="7.2378">
        <ele>498</ele>
        <time>2018-05-13T12:36:48.000Z</time>
      </trkpt>
      <trkpt lat="43.83663" lon="7.23781">
        <ele>498</ele>
        <time>2018-05-13T12:36:49.000Z</time>
      </trkpt>
      <trkpt lat="43.83663" lon="7.23782">
        <ele>499</ele>
        <time>2018-05-13T12:36:52.000Z</time>
      </trkpt>
      <trkpt lat="43.83663" lon="7.23781">
        <ele>498</ele>
        <time>2018-05-13T12:36:57.000Z</time>
      </trkpt>
      <trkpt lat="43.83663" lon="7.23777">
        <ele>498</ele>
        <time>2018-05-13T12:37:02.000Z</time>
      </trkpt>
      <trkpt lat="43.83661" lon="7.23773">
        <ele>498</ele>
        <time>2018-05-13T12:37:07.000Z</time>
      </trkpt>
      <trkpt lat="43.83661" lon="7.23773">
        <ele>498</ele>
        <time>2018-05-13T12:37:08.000Z</time>
      </trkpt>
      <trkpt lat="43.8366" lon="7.23773">
        <ele>498</ele>
        <time>2018-05-13T12:37:21.000Z</time>
      </trkpt>
      <trkpt lat="43.83659" lon="7.23768">
        <ele>498</ele>
        <time>2018-05-13T12:37:28.000Z</time>
      </trkpt>
      <trkpt lat="43.83658" lon="7.23764">
        <ele>498</ele>
        <time>2018-05-13T12:37:31.000Z</time>
      </trkpt>
      <trkpt lat="43.83656" lon="7.2376">
        <ele>498</ele>
        <time>2018-05-13T12:37:34.000Z</time>
      </trkpt>
      <trkpt lat="43.83656" lon="7.2376">
        <ele>498</ele>
        <time>2018-05-13T12:37:35.000Z</time>
      </trkpt>
      <trkpt lat="43.83655" lon="7.23758">
        <ele>497</ele>
        <time>2018-05-13T12:37:37.000Z</time>
      </trkpt>
      <trkpt lat="43.83655" lon="7.23757">
        <ele>498</ele>
        <time>2018-05-13T12:37:38.000Z</time>
      </trkpt>
      <trkpt lat="43.83654" lon="7.23754">
        <ele>498</ele>
        <time>2018-05-13T12:37:40.000Z</time>
      </trkpt>
      <trkpt lat="43.83655" lon="7.23752">
        <ele>498</ele>
        <time>2018-05-13T12:37:41.000Z</time>
      </trkpt>
      <trkpt lat="43.83655" lon="7.23751">
        <ele>498</ele>
        <time>2018-05-13T12:37:42.000Z</time>
      </trkpt>
      <trkpt lat="43.83655" lon="7.2375">
        <ele>498</ele>
        <time>2018-05-13T12:37:43.000Z</time>
      </trkpt>
      <trkpt lat="43.83654" lon="7.23748">
        <ele>497</ele>
        <time>2018-05-13T12:37:45.000Z</time>
      </trkpt>
      <trkpt lat="43.83653" lon="7.23747">
        <ele>497</ele>
        <time>2018-05-13T12:37:46.000Z</time>
      </trkpt>
      <trkpt lat="43.83653" lon="7.23748">
        <ele>496</ele>
        <time>2018-05-13T12:37:48.000Z</time>
      </trkpt>
      <trkpt lat="43.83652" lon="7.23749">
        <ele>496</ele>
        <time>2018-05-13T12:37:49.000Z</time>
      </trkpt>
      <trkpt lat="43.83646" lon="7.23754">
        <ele>496</ele>
        <time>2018-05-13T12:37:52.000Z</time>
      </trkpt>
      <trkpt lat="43.83635" lon="7.23765">
        <ele>494</ele>
        <time>2018-05-13T12:37:56.000Z</time>
      </trkpt>
      <trkpt lat="43.83628" lon="7.23769">
        <ele>493</ele>
        <time>2018-05-13T12:37:58.000Z</time>
      </trkpt>
      <trkpt lat="43.83623" lon="7.23771">
        <ele>492</ele>
        <time>2018-05-13T12:37:59.000Z</time>
      </trkpt>
      <trkpt lat="43.83619" lon="7.23772">
        <ele>491</ele>
        <time>2018-05-13T12:38:00.000Z</time>
      </trkpt>
      <trkpt lat="43.83614" lon="7.23775">
        <ele>491</ele>
        <time>2018-05-13T12:38:01.000Z</time>
      </trkpt>
      <trkpt lat="43.8361" lon="7.23778">
        <ele>490</ele>
        <time>2018-05-13T12:38:02.000Z</time>
      </trkpt>
      <trkpt lat="43.83602" lon="7.23785">
        <ele>490</ele>
        <time>2018-05-13T12:38:04.000Z</time>
      </trkpt>
      <trkpt lat="43.83594" lon="7.23794">
        <ele>491</ele>
        <time>2018-05-13T12:38:06.000Z</time>
      </trkpt>
      <trkpt lat="43.83588" lon="7.23804">
        <ele>491</ele>
        <time>2018-05-13T12:38:08.000Z</time>
      </trkpt>
      <trkpt lat="43.8358" lon="7.23816">
        <ele>478</ele>
        <time>2018-05-13T12:38:11.000Z</time>
      </trkpt>
      <trkpt lat="43.83577" lon="7.2382">
        <ele>480</ele>
        <time>2018-05-13T12:38:12.000Z</time>
      </trkpt>
      <trkpt lat="43.83568" lon="7.23834">
        <ele>487</ele>
        <time>2018-05-13T12:38:16.000Z</time>
      </trkpt>
      <trkpt lat="43.83567" lon="7.23837">
        <ele>487</ele>
        <time>2018-05-13T12:38:17.000Z</time>
      </trkpt>
      <trkpt lat="43.83556" lon="7.23856">
        <ele>485</ele>
        <time>2018-05-13T12:38:24.000Z</time>
      </trkpt>
      <trkpt lat="43.83555" lon="7.23858">
        <ele>485</ele>
        <time>2018-05-13T12:38:25.000Z</time>
      </trkpt>
      <trkpt lat="43.8355" lon="7.23866">
        <ele>485</ele>
        <time>2018-05-13T12:38:29.000Z</time>
      </trkpt>
      <trkpt lat="43.83548" lon="7.23871">
        <ele>485</ele>
        <time>2018-05-13T12:38:31.000Z</time>
      </trkpt>
      <trkpt lat="43.83544" lon="7.23882">
        <ele>486</ele>
        <time>2018-05-13T12:38:36.000Z</time>
      </trkpt>
      <trkpt lat="43.83541" lon="7.23886">
        <ele>487</ele>
        <time>2018-05-13T12:38:38.000Z</time>
      </trkpt>
      <trkpt lat="43.83535" lon="7.23895">
        <ele>486</ele>
        <time>2018-05-13T12:38:42.000Z</time>
      </trkpt>
      <trkpt lat="43.83531" lon="7.23904">
        <ele>486</ele>
        <time>2018-05-13T12:38:46.000Z</time>
      </trkpt>
      <trkpt lat="43.83528" lon="7.23911">
        <ele>486</ele>
        <time>2018-05-13T12:38:49.000Z</time>
      </trkpt>
      <trkpt lat="43.83527" lon="7.23913">
        <ele>486</ele>
        <time>2018-05-13T12:38:50.000Z</time>
      </trkpt>
      <trkpt lat="43.83524" lon="7.23921">
        <ele>499</ele>
        <time>2018-05-13T12:38:54.000Z</time>
      </trkpt>
      <trkpt lat="43.83519" lon="7.23934">
        <ele>499</ele>
        <time>2018-05-13T12:39:00.000Z</time>
      </trkpt>
      <trkpt lat="43.83513" lon="7.23944">
        <ele>501</ele>
        <time>2018-05-13T12:39:05.000Z</time>
      </trkpt>
      <trkpt lat="43.83512" lon="7.23947">
        <ele>501</ele>
        <time>2018-05-13T12:39:06.000Z</time>
      </trkpt>
      <trkpt lat="43.83501" lon="7.23963">
        <ele>503</ele>
        <time>2018-05-13T12:39:12.000Z</time>
      </trkpt>
      <trkpt lat="43.83489" lon="7.23979">
        <ele>484</ele>
        <time>2018-05-13T12:39:19.000Z</time>
      </trkpt>
      <trkpt lat="43.83488" lon="7.2398">
        <ele>484</ele>
        <time>2018-05-13T12:39:20.000Z</time>
      </trkpt>
      <trkpt lat="43.83478" lon="7.23992">
        <ele>484</ele>
        <time>2018-05-13T12:39:25.000Z</time>
      </trkpt>
      <trkpt lat="43.83467" lon="7.24012">
        <ele>487</ele>
        <time>2018-05-13T12:39:31.000Z</time>
      </trkpt>
      <trkpt lat="43.83464" lon="7.24036">
        <ele>486</ele>
        <time>2018-05-13T12:39:36.000Z</time>
      </trkpt>
      <trkpt lat="43.8347" lon="7.2406">
        <ele>488</ele>
        <time>2018-05-13T12:39:42.000Z</time>
      </trkpt>
      <trkpt lat="43.83474" lon="7.24071">
        <ele>491</ele>
        <time>2018-05-13T12:39:46.000Z</time>
      </trkpt>
      <trkpt lat="43.83476" lon="7.24075">
        <ele>492</ele>
        <time>2018-05-13T12:39:48.000Z</time>
      </trkpt>
      <trkpt lat="43.83478" lon="7.24081">
        <ele>493</ele>
        <time>2018-05-13T12:39:51.000Z</time>
      </trkpt>
      <trkpt lat="43.8348" lon="7.24085">
        <ele>491</ele>
        <time>2018-05-13T12:39:54.000Z</time>
      </trkpt>
      <trkpt lat="43.83481" lon="7.24086">
        <ele>491</ele>
        <time>2018-05-13T12:39:57.000Z</time>
      </trkpt>
      <trkpt lat="43.83482" lon="7.24087">
        <ele>491</ele>
        <time>2018-05-13T12:39:59.000Z</time>
      </trkpt>
      <trkpt lat="43.83485" lon="7.24092">
        <ele>492</ele>
        <time>2018-05-13T12:40:04.000Z</time>
      </trkpt>
      <trkpt lat="43.83487" lon="7.24094">
        <ele>492</ele>
        <time>2018-05-13T12:40:06.000Z</time>
      </trkpt>
      <trkpt lat="43.83487" lon="7.24095">
        <ele>492</ele>
        <time>2018-05-13T12:40:07.000Z</time>
      </trkpt>
      <trkpt lat="43.83488" lon="7.24098">
        <ele>492</ele>
        <time>2018-05-13T12:40:10.000Z</time>
      </trkpt>
      <trkpt lat="43.8349" lon="7.241">
        <ele>491</ele>
        <time>2018-05-13T12:40:12.000Z</time>
      </trkpt>
      <trkpt lat="43.83491" lon="7.24101">
        <ele>491</ele>
        <time>2018-05-13T12:40:14.000Z</time>
      </trkpt>
      <trkpt lat="43.83493" lon="7.24103">
        <ele>491</ele>
        <time>2018-05-13T12:40:16.000Z</time>
      </trkpt>
      <trkpt lat="43.83495" lon="7.24106">
        <ele>490</ele>
        <time>2018-05-13T12:40:19.000Z</time>
      </trkpt>
      <trkpt lat="43.83497" lon="7.24108">
        <ele>489</ele>
        <time>2018-05-13T12:40:21.000Z</time>
      </trkpt>
      <trkpt lat="43.83499" lon="7.24111">
        <ele>488</ele>
        <time>2018-05-13T12:40:24.000Z</time>
      </trkpt>
      <trkpt lat="43.83502" lon="7.24114">
        <ele>513</ele>
        <time>2018-05-13T12:40:27.000Z</time>
      </trkpt>
      <trkpt lat="43.83502" lon="7.24115">
        <ele>513</ele>
        <time>2018-05-13T12:40:28.000Z</time>
      </trkpt>
      <trkpt lat="43.83505" lon="7.24119">
        <ele>513</ele>
        <time>2018-05-13T12:40:32.000Z</time>
      </trkpt>
      <trkpt lat="43.83507" lon="7.24121">
        <ele>513</ele>
        <time>2018-05-13T12:40:35.000Z</time>
      </trkpt>
      <trkpt lat="43.8351" lon="7.24125">
        <ele>513</ele>
        <time>2018-05-13T12:40:39.000Z</time>
      </trkpt>
      <trkpt lat="43.83512" lon="7.24128">
        <ele>512</ele>
        <time>2018-05-13T12:40:43.000Z</time>
      </trkpt>
      <trkpt lat="43.83513" lon="7.2413">
        <ele>512</ele>
        <time>2018-05-13T12:40:45.000Z</time>
      </trkpt>
      <trkpt lat="43.83516" lon="7.24134">
        <ele>512</ele>
        <time>2018-05-13T12:40:51.000Z</time>
      </trkpt>
      <trkpt lat="43.83521" lon="7.24141">
        <ele>512</ele>
        <time>2018-05-13T12:40:57.000Z</time>
      </trkpt>
      <trkpt lat="43.83521" lon="7.24143">
        <ele>511</ele>
        <time>2018-05-13T12:40:58.000Z</time>
      </trkpt>
      <trkpt lat="43.83529" lon="7.24153">
        <ele>512</ele>
        <time>2018-05-13T12:41:07.000Z</time>
      </trkpt>
      <trkpt lat="43.83529" lon="7.24154">
        <ele>512</ele>
        <time>2018-05-13T12:41:08.000Z</time>
      </trkpt>
      <trkpt lat="43.83535" lon="7.24159">
        <ele>514</ele>
        <time>2018-05-13T12:41:15.000Z</time>
      </trkpt>
      <trkpt lat="43.83536" lon="7.2416">
        <ele>514</ele>
        <time>2018-05-13T12:41:16.000Z</time>
      </trkpt>
      <trkpt lat="43.83541" lon="7.24165">
        <ele>516</ele>
        <time>2018-05-13T12:41:22.000Z</time>
      </trkpt>
      <trkpt lat="43.83541" lon="7.24165">
        <ele>516</ele>
        <time>2018-05-13T12:41:23.000Z</time>
      </trkpt>
      <trkpt lat="43.83547" lon="7.24168">
        <ele>510</ele>
        <time>2018-05-13T12:41:29.000Z</time>
      </trkpt>
      <trkpt lat="43.83549" lon="7.24169">
        <ele>510</ele>
        <time>2018-05-13T12:41:31.000Z</time>
      </trkpt>
      <trkpt lat="43.83553" lon="7.24171">
        <ele>512</ele>
        <time>2018-05-13T12:41:36.000Z</time>
      </trkpt>
      <trkpt lat="43.83555" lon="7.24172">
        <ele>513</ele>
        <time>2018-05-13T12:41:38.000Z</time>
      </trkpt>
      <trkpt lat="43.83559" lon="7.24173">
        <ele>515</ele>
        <time>2018-05-13T12:41:42.000Z</time>
      </trkpt>
      <trkpt lat="43.83564" lon="7.24175">
        <ele>516</ele>
        <time>2018-05-13T12:41:47.000Z</time>
      </trkpt>
      <trkpt lat="43.83564" lon="7.24176">
        <ele>517</ele>
        <time>2018-05-13T12:41:48.000Z</time>
      </trkpt>
      <trkpt lat="43.83571" lon="7.24178">
        <ele>519</ele>
        <time>2018-05-13T12:41:55.000Z</time>
      </trkpt>
      <trkpt lat="43.83572" lon="7.24178">
        <ele>520</ele>
        <time>2018-05-13T12:41:56.000Z</time>
      </trkpt>
      <trkpt lat="43.83577" lon="7.24178">
        <ele>522</ele>
        <time>2018-05-13T12:42:02.000Z</time>
      </trkpt>
      <trkpt lat="43.83578" lon="7.24178">
        <ele>522</ele>
        <time>2018-05-13T12:42:03.000Z</time>
      </trkpt>
      <trkpt lat="43.83582" lon="7.24179">
        <ele>522</ele>
        <time>2018-05-13T12:42:08.000Z</time>
      </trkpt>
      <trkpt lat="43.83583" lon="7.24179">
        <ele>522</ele>
        <time>2018-05-13T12:42:09.000Z</time>
      </trkpt>
      <trkpt lat="43.83589" lon="7.24182">
        <ele>540</ele>
        <time>2018-05-13T12:42:16.000Z</time>
      </trkpt>
      <trkpt lat="43.8359" lon="7.24182">
        <ele>541</ele>
        <time>2018-05-13T12:42:17.000Z</time>
      </trkpt>
      <trkpt lat="43.83593" lon="7.24189">
        <ele>543</ele>
        <time>2018-05-13T12:42:25.000Z</time>
      </trkpt>
      <trkpt lat="43.83594" lon="7.24191">
        <ele>543</ele>
        <time>2018-05-13T12:42:27.000Z</time>
      </trkpt>
      <trkpt lat="43.83594" lon="7.24192">
        <ele>543</ele>
        <time>2018-05-13T12:42:30.000Z</time>
      </trkpt>
      <trkpt lat="43.83593" lon="7.24194">
        <ele>543</ele>
        <time>2018-05-13T12:42:31.000Z</time>
      </trkpt>
      <trkpt lat="43.8359" lon="7.24199">
        <ele>543</ele>
        <time>2018-05-13T12:42:35.000Z</time>
      </trkpt>
      <trkpt lat="43.83589" lon="7.242">
        <ele>543</ele>
        <time>2018-05-13T12:42:36.000Z</time>
      </trkpt>
      <trkpt lat="43.83586" lon="7.24202">
        <ele>543</ele>
        <time>2018-05-13T12:42:42.000Z</time>
      </trkpt>
      <trkpt lat="43.83583" lon="7.24207">
        <ele>514</ele>
        <time>2018-05-13T12:42:47.000Z</time>
      </trkpt>
      <trkpt lat="43.83576" lon="7.24224">
        <ele>514</ele>
        <time>2018-05-13T12:42:55.000Z</time>
      </trkpt>
      <trkpt lat="43.83574" lon="7.24241">
        <ele>517</ele>
        <time>2018-05-13T12:43:02.000Z</time>
      </trkpt>
      <trkpt lat="43.83574" lon="7.24247">
        <ele>518</ele>
        <time>2018-05-13T12:43:04.000Z</time>
      </trkpt>
      <trkpt lat="43.83575" lon="7.2426">
        <ele>515</ele>
        <time>2018-05-13T12:43:09.000Z</time>
      </trkpt>
      <trkpt lat="43.83574" lon="7.24268">
        <ele>513</ele>
        <time>2018-05-13T12:43:13.000Z</time>
      </trkpt>
      <trkpt lat="43.83574" lon="7.24271">
        <ele>512</ele>
        <time>2018-05-13T12:43:15.000Z</time>
      </trkpt>
      <trkpt lat="43.83575" lon="7.24276">
        <ele>512</ele>
        <time>2018-05-13T12:43:18.000Z</time>
      </trkpt>
      <trkpt lat="43.83576" lon="7.24277">
        <ele>512</ele>
        <time>2018-05-13T12:43:20.000Z</time>
      </trkpt>
      <trkpt lat="43.83576" lon="7.24279">
        <ele>512</ele>
        <time>2018-05-13T12:43:21.000Z</time>
      </trkpt>
      <trkpt lat="43.83576" lon="7.24283">
        <ele>511</ele>
        <time>2018-05-13T12:43:24.000Z</time>
      </trkpt>
      <trkpt lat="43.83576" lon="7.24284">
        <ele>511</ele>
        <time>2018-05-13T12:43:25.000Z</time>
      </trkpt>
      <trkpt lat="43.83579" lon="7.24288">
        <ele>511</ele>
        <time>2018-05-13T12:43:30.000Z</time>
      </trkpt>
      <trkpt lat="43.83579" lon="7.24291">
        <ele>511</ele>
        <time>2018-05-13T12:43:33.000Z</time>
      </trkpt>
      <trkpt lat="43.83579" lon="7.24296">
        <ele>512</ele>
        <time>2018-05-13T12:43:37.000Z</time>
      </trkpt>
      <trkpt lat="43.83581" lon="7.243">
        <ele>512</ele>
        <time>2018-05-13T12:43:41.000Z</time>
      </trkpt>
      <trkpt lat="43.83582" lon="7.24301">
        <ele>513</ele>
        <time>2018-05-13T12:43:45.000Z</time>
      </trkpt>
      <trkpt lat="43.83582" lon="7.24302">
        <ele>513</ele>
        <time>2018-05-13T12:43:46.000Z</time>
      </trkpt>
      <trkpt lat="43.83586" lon="7.24312">
        <ele>539</ele>
        <time>2018-05-13T12:43:52.000Z</time>
      </trkpt>
      <trkpt lat="43.83589" lon="7.24318">
        <ele>538</ele>
        <time>2018-05-13T12:43:55.000Z</time>
      </trkpt>
      <trkpt lat="43.83592" lon="7.24322">
        <ele>537</ele>
        <time>2018-05-13T12:43:58.000Z</time>
      </trkpt>
      <trkpt lat="43.83599" lon="7.24331">
        <ele>539</ele>
        <time>2018-05-13T12:44:03.000Z</time>
      </trkpt>
      <trkpt lat="43.83601" lon="7.24336">
        <ele>540</ele>
        <time>2018-05-13T12:44:05.000Z</time>
      </trkpt>
      <trkpt lat="43.83601" lon="7.24338">
        <ele>540</ele>
        <time>2018-05-13T12:44:06.000Z</time>
      </trkpt>
      <trkpt lat="43.836" lon="7.24344">
        <ele>541</ele>
        <time>2018-05-13T12:44:08.000Z</time>
      </trkpt>
      <trkpt lat="43.83599" lon="7.24347">
        <ele>541</ele>
        <time>2018-05-13T12:44:10.000Z</time>
      </trkpt>
      <trkpt lat="43.83599" lon="7.24349">
        <ele>541</ele>
        <time>2018-05-13T12:44:11.000Z</time>
      </trkpt>
      <trkpt lat="43.83597" lon="7.24353">
        <ele>541</ele>
        <time>2018-05-13T12:44:13.000Z</time>
      </trkpt>
      <trkpt lat="43.83594" lon="7.24363">
        <ele>543</ele>
        <time>2018-05-13T12:44:18.000Z</time>
      </trkpt>
      <trkpt lat="43.83593" lon="7.24365">
        <ele>543</ele>
        <time>2018-05-13T12:44:19.000Z</time>
      </trkpt>
      <trkpt lat="43.83592" lon="7.24369">
        <ele>543</ele>
        <time>2018-05-13T12:44:21.000Z</time>
      </trkpt>
      <trkpt lat="43.83589" lon="7.24376">
        <ele>543</ele>
        <time>2018-05-13T12:44:24.000Z</time>
      </trkpt>
      <trkpt lat="43.83588" lon="7.24378">
        <ele>543</ele>
        <time>2018-05-13T12:44:25.000Z</time>
      </trkpt>
      <trkpt lat="43.83582" lon="7.24393">
        <ele>521</ele>
        <time>2018-05-13T12:44:32.000Z</time>
      </trkpt>
      <trkpt lat="43.83581" lon="7.24395">
        <ele>521</ele>
        <time>2018-05-13T12:44:33.000Z</time>
      </trkpt>
      <trkpt lat="43.83578" lon="7.24407">
        <ele>525</ele>
        <time>2018-05-13T12:44:38.000Z</time>
      </trkpt>
      <trkpt lat="43.83578" lon="7.24415">
        <ele>529</ele>
        <time>2018-05-13T12:44:42.000Z</time>
      </trkpt>
      <trkpt lat="43.83578" lon="7.24419">
        <ele>531</ele>
        <time>2018-05-13T12:44:44.000Z</time>
      </trkpt>
      <trkpt lat="43.83578" lon="7.24421">
        <ele>530</ele>
        <time>2018-05-13T12:44:45.000Z</time>
      </trkpt>
      <trkpt lat="43.83582" lon="7.24435">
        <ele>527</ele>
        <time>2018-05-13T12:44:51.000Z</time>
      </trkpt>
      <trkpt lat="43.83587" lon="7.24442">
        <ele>540</ele>
        <time>2018-05-13T12:44:55.000Z</time>
      </trkpt>
      <trkpt lat="43.83588" lon="7.24443">
        <ele>540</ele>
        <time>2018-05-13T12:44:56.000Z</time>
      </trkpt>
      <trkpt lat="43.83592" lon="7.24449">
        <ele>541</ele>
        <time>2018-05-13T12:44:59.000Z</time>
      </trkpt>
      <trkpt lat="43.83594" lon="7.24453">
        <ele>541</ele>
        <time>2018-05-13T12:45:01.000Z</time>
      </trkpt>
      <trkpt lat="43.83597" lon="7.24473">
        <ele>541</ele>
        <time>2018-05-13T12:45:05.000Z</time>
      </trkpt>
      <trkpt lat="43.83594" lon="7.24488">
        <ele>539</ele>
        <time>2018-05-13T12:45:07.000Z</time>
      </trkpt>
      <trkpt lat="43.83591" lon="7.24494">
        <ele>537</ele>
        <time>2018-05-13T12:45:08.000Z</time>
      </trkpt>
      <trkpt lat="43.83589" lon="7.24499">
        <ele>536</ele>
        <time>2018-05-13T12:45:09.000Z</time>
      </trkpt>
      <trkpt lat="43.83588" lon="7.24511">
        <ele>534</ele>
        <time>2018-05-13T12:45:11.000Z</time>
      </trkpt>
      <trkpt lat="43.83589" lon="7.24518">
        <ele>533</ele>
        <time>2018-05-13T12:45:12.000Z</time>
      </trkpt>
      <trkpt lat="43.83588" lon="7.24532">
        <ele>533</ele>
        <time>2018-05-13T12:45:14.000Z</time>
      </trkpt>
      <trkpt lat="43.83585" lon="7.24545">
        <ele>532</ele>
        <time>2018-05-13T12:45:16.000Z</time>
      </trkpt>
      <trkpt lat="43.83583" lon="7.2455">
        <ele>527</ele>
        <time>2018-05-13T12:45:17.000Z</time>
      </trkpt>
      <trkpt lat="43.83579" lon="7.24562">
        <ele>527</ele>
        <time>2018-05-13T12:45:20.000Z</time>
      </trkpt>
      <trkpt lat="43.83577" lon="7.24569">
        <ele>527</ele>
        <time>2018-05-13T12:45:22.000Z</time>
      </trkpt>
      <trkpt lat="43.83576" lon="7.24576">
        <ele>528</ele>
        <time>2018-05-13T12:45:24.000Z</time>
      </trkpt>
      <trkpt lat="43.83575" lon="7.24585">
        <ele>527</ele>
        <time>2018-05-13T12:45:26.000Z</time>
      </trkpt>
      <trkpt lat="43.83574" lon="7.24595">
        <ele>526</ele>
        <time>2018-05-13T12:45:28.000Z</time>
      </trkpt>
      <trkpt lat="43.83568" lon="7.24604">
        <ele>524</ele>
        <time>2018-05-13T12:45:30.000Z</time>
      </trkpt>
      <trkpt lat="43.83562" lon="7.24613">
        <ele>523</ele>
        <time>2018-05-13T12:45:32.000Z</time>
      </trkpt>
      <trkpt lat="43.83559" lon="7.24616">
        <ele>523</ele>
        <time>2018-05-13T12:45:34.000Z</time>
      </trkpt>
      <trkpt lat="43.83556" lon="7.24619">
        <ele>522</ele>
        <time>2018-05-13T12:45:36.000Z</time>
      </trkpt>
      <trkpt lat="43.83555" lon="7.24625">
        <ele>522</ele>
        <time>2018-05-13T12:45:39.000Z</time>
      </trkpt>
      <trkpt lat="43.83554" lon="7.24627">
        <ele>522</ele>
        <time>2018-05-13T12:45:40.000Z</time>
      </trkpt>
      <trkpt lat="43.83552" lon="7.24631">
        <ele>521</ele>
        <time>2018-05-13T12:45:42.000Z</time>
      </trkpt>
      <trkpt lat="43.83551" lon="7.24634">
        <ele>521</ele>
        <time>2018-05-13T12:45:44.000Z</time>
      </trkpt>
      <trkpt lat="43.8355" lon="7.24637">
        <ele>521</ele>
        <time>2018-05-13T12:45:45.000Z</time>
      </trkpt>
      <trkpt lat="43.83546" lon="7.24645">
        <ele>520</ele>
        <time>2018-05-13T12:45:47.000Z</time>
      </trkpt>
      <trkpt lat="43.83543" lon="7.24647">
        <ele>520</ele>
        <time>2018-05-13T12:45:48.000Z</time>
      </trkpt>
      <trkpt lat="43.83541" lon="7.24649">
        <ele>520</ele>
        <time>2018-05-13T12:45:49.000Z</time>
      </trkpt>
      <trkpt lat="43.83532" lon="7.24653">
        <ele>520</ele>
        <time>2018-05-13T12:45:52.000Z</time>
      </trkpt>
      <trkpt lat="43.83527" lon="7.24657">
        <ele>519</ele>
        <time>2018-05-13T12:45:54.000Z</time>
      </trkpt>
      <trkpt lat="43.83516" lon="7.24663">
        <ele>518</ele>
        <time>2018-05-13T12:45:57.000Z</time>
      </trkpt>
      <trkpt lat="43.83493" lon="7.24675">
        <ele>515</ele>
        <time>2018-05-13T12:46:01.000Z</time>
      </trkpt>
      <trkpt lat="43.83482" lon="7.24682">
        <ele>514</ele>
        <time>2018-05-13T12:46:03.000Z</time>
      </trkpt>
      <trkpt lat="43.8347" lon="7.24692">
        <ele>514</ele>
        <time>2018-05-13T12:46:05.000Z</time>
      </trkpt>
      <trkpt lat="43.83459" lon="7.24698">
        <ele>514</ele>
        <time>2018-05-13T12:46:07.000Z</time>
      </trkpt>
      <trkpt lat="43.83446" lon="7.24706">
        <ele>514</ele>
        <time>2018-05-13T12:46:09.000Z</time>
      </trkpt>
      <trkpt lat="43.83408" lon="7.24722">
        <ele>511</ele>
        <time>2018-05-13T12:46:15.000Z</time>
      </trkpt>
      <trkpt lat="43.83388" lon="7.24725">
        <ele>509</ele>
        <time>2018-05-13T12:46:18.000Z</time>
      </trkpt>
      <trkpt lat="43.83381" lon="7.24724">
        <ele>508</ele>
        <time>2018-05-13T12:46:19.000Z</time>
      </trkpt>
      <trkpt lat="43.83376" lon="7.24722">
        <ele>507</ele>
        <time>2018-05-13T12:46:20.000Z</time>
      </trkpt>
      <trkpt lat="43.83361" lon="7.24723">
        <ele>506</ele>
        <time>2018-05-13T12:46:23.000Z</time>
      </trkpt>
      <trkpt lat="43.83356" lon="7.24725">
        <ele>506</ele>
        <time>2018-05-13T12:46:24.000Z</time>
      </trkpt>
      <trkpt lat="43.83346" lon="7.24728">
        <ele>507</ele>
        <time>2018-05-13T12:46:27.000Z</time>
      </trkpt>
      <trkpt lat="43.83332" lon="7.24734">
        <ele>503</ele>
        <time>2018-05-13T12:46:31.000Z</time>
      </trkpt>
      <trkpt lat="43.83325" lon="7.24738">
        <ele>504</ele>
        <time>2018-05-13T12:46:33.000Z</time>
      </trkpt>
      <trkpt lat="43.83306" lon="7.24747">
        <ele>502</ele>
        <time>2018-05-13T12:46:38.000Z</time>
      </trkpt>
      <trkpt lat="43.83302" lon="7.24749">
        <ele>501</ele>
        <time>2018-05-13T12:46:39.000Z</time>
      </trkpt>
      <trkpt lat="43.83294" lon="7.24753">
        <ele>521</ele>
        <time>2018-05-13T12:46:41.000Z</time>
      </trkpt>
      <trkpt lat="43.83284" lon="7.24756">
        <ele>521</ele>
        <time>2018-05-13T12:46:44.000Z</time>
      </trkpt>
      <trkpt lat="43.8327" lon="7.2476">
        <ele>519</ele>
        <time>2018-05-13T12:46:48.000Z</time>
      </trkpt>
      <trkpt lat="43.83265" lon="7.2476">
        <ele>518</ele>
        <time>2018-05-13T12:46:50.000Z</time>
      </trkpt>
      <trkpt lat="43.83257" lon="7.24762">
        <ele>516</ele>
        <time>2018-05-13T12:46:53.000Z</time>
      </trkpt>
      <trkpt lat="43.83247" lon="7.24765">
        <ele>515</ele>
        <time>2018-05-13T12:46:57.000Z</time>
      </trkpt>
      <trkpt lat="43.83245" lon="7.24766">
        <ele>515</ele>
        <time>2018-05-13T12:46:58.000Z</time>
      </trkpt>
      <trkpt lat="43.8323" lon="7.24769">
        <ele>517</ele>
        <time>2018-05-13T12:47:04.000Z</time>
      </trkpt>
      <trkpt lat="43.83228" lon="7.2477">
        <ele>517</ele>
        <time>2018-05-13T12:47:05.000Z</time>
      </trkpt>
      <trkpt lat="43.83216" lon="7.24773">
        <ele>518</ele>
        <time>2018-05-13T12:47:10.000Z</time>
      </trkpt>
      <trkpt lat="43.83214" lon="7.24774">
        <ele>518</ele>
        <time>2018-05-13T12:47:11.000Z</time>
      </trkpt>
      <trkpt lat="43.83201" lon="7.24779">
        <ele>519</ele>
        <time>2018-05-13T12:47:16.000Z</time>
      </trkpt>
      <trkpt lat="43.83198" lon="7.24779">
        <ele>519</ele>
        <time>2018-05-13T12:47:18.000Z</time>
      </trkpt>
      <trkpt lat="43.83191" lon="7.24782">
        <ele>519</ele>
        <time>2018-05-13T12:47:21.000Z</time>
      </trkpt>
      <trkpt lat="43.83188" lon="7.24783">
        <ele>519</ele>
        <time>2018-05-13T12:47:23.000Z</time>
      </trkpt>
      <trkpt lat="43.83182" lon="7.24785">
        <ele>519</ele>
        <time>2018-05-13T12:47:27.000Z</time>
      </trkpt>
      <trkpt lat="43.8318" lon="7.24786">
        <ele>519</ele>
        <time>2018-05-13T12:47:28.000Z</time>
      </trkpt>
      <trkpt lat="43.83171" lon="7.24792">
        <ele>521</ele>
        <time>2018-05-13T12:47:34.000Z</time>
      </trkpt>
      <trkpt lat="43.83163" lon="7.24798">
        <ele>518</ele>
        <time>2018-05-13T12:47:39.000Z</time>
      </trkpt>
      <trkpt lat="43.83161" lon="7.24799">
        <ele>518</ele>
        <time>2018-05-13T12:47:40.000Z</time>
      </trkpt>
      <trkpt lat="43.83154" lon="7.24808">
        <ele>521</ele>
        <time>2018-05-13T12:47:45.000Z</time>
      </trkpt>
      <trkpt lat="43.8315" lon="7.24812">
        <ele>521</ele>
        <time>2018-05-13T12:47:47.000Z</time>
      </trkpt>
      <trkpt lat="43.83144" lon="7.24817">
        <ele>522</ele>
        <time>2018-05-13T12:47:51.000Z</time>
      </trkpt>
      <trkpt lat="43.8314" lon="7.2482">
        <ele>521</ele>
        <time>2018-05-13T12:47:53.000Z</time>
      </trkpt>
      <trkpt lat="43.8313" lon="7.24826">
        <ele>521</ele>
        <time>2018-05-13T12:47:58.000Z</time>
      </trkpt>
      <trkpt lat="43.83129" lon="7.24828">
        <ele>521</ele>
        <time>2018-05-13T12:47:59.000Z</time>
      </trkpt>
      <trkpt lat="43.83117" lon="7.24831">
        <ele>520</ele>
        <time>2018-05-13T12:48:05.000Z</time>
      </trkpt>
      <trkpt lat="43.83106" lon="7.24836">
        <ele>534</ele>
        <time>2018-05-13T12:48:10.000Z</time>
      </trkpt>
      <trkpt lat="43.83086" lon="7.24841">
        <ele>529</ele>
        <time>2018-05-13T12:48:16.000Z</time>
      </trkpt>
      <trkpt lat="43.83064" lon="7.2485">
        <ele>530</ele>
        <time>2018-05-13T12:48:22.000Z</time>
      </trkpt>
      <trkpt lat="43.83061" lon="7.24854">
        <ele>530</ele>
        <time>2018-05-13T12:48:23.000Z</time>
      </trkpt>
      <trkpt lat="43.83052" lon="7.24864">
        <ele>531</ele>
        <time>2018-05-13T12:48:25.000Z</time>
      </trkpt>
      <trkpt lat="43.83043" lon="7.24877">
        <ele>533</ele>
        <time>2018-05-13T12:48:27.000Z</time>
      </trkpt>
      <trkpt lat="43.83037" lon="7.24882">
        <ele>533</ele>
        <time>2018-05-13T12:48:28.000Z</time>
      </trkpt>
      <trkpt lat="43.83024" lon="7.24884">
        <ele>533</ele>
        <time>2018-05-13T12:48:30.000Z</time>
      </trkpt>
      <trkpt lat="43.83018" lon="7.2488">
        <ele>532</ele>
        <time>2018-05-13T12:48:31.000Z</time>
      </trkpt>
      <trkpt lat="43.83014" lon="7.24877">
        <ele>532</ele>
        <time>2018-05-13T12:48:32.000Z</time>
      </trkpt>
      <trkpt lat="43.8301" lon="7.24873">
        <ele>531</ele>
        <time>2018-05-13T12:48:33.000Z</time>
      </trkpt>
      <trkpt lat="43.82998" lon="7.24864">
        <ele>525</ele>
        <time>2018-05-13T12:48:37.000Z</time>
      </trkpt>
      <trkpt lat="43.82993" lon="7.24861">
        <ele>525</ele>
        <time>2018-05-13T12:48:39.000Z</time>
      </trkpt>
      <trkpt lat="43.82983" lon="7.24858">
        <ele>524</ele>
        <time>2018-05-13T12:48:43.000Z</time>
      </trkpt>
      <trkpt lat="43.8298" lon="7.24858">
        <ele>524</ele>
        <time>2018-05-13T12:48:44.000Z</time>
      </trkpt>
      <trkpt lat="43.82971" lon="7.24857">
        <ele>524</ele>
        <time>2018-05-13T12:48:47.000Z</time>
      </trkpt>
      <trkpt lat="43.82963" lon="7.24856">
        <ele>524</ele>
        <time>2018-05-13T12:48:50.000Z</time>
      </trkpt>
      <trkpt lat="43.82945" lon="7.2486">
        <ele>523</ele>
        <time>2018-05-13T12:48:55.000Z</time>
      </trkpt>
      <trkpt lat="43.82921" lon="7.24871">
        <ele>524</ele>
        <time>2018-05-13T12:49:01.000Z</time>
      </trkpt>
      <trkpt lat="43.82909" lon="7.2488">
        <ele>519</ele>
        <time>2018-05-13T12:49:04.000Z</time>
      </trkpt>
      <trkpt lat="43.82893" lon="7.24897">
        <ele>521</ele>
        <time>2018-05-13T12:49:08.000Z</time>
      </trkpt>
      <trkpt lat="43.82875" lon="7.24919">
        <ele>531</ele>
        <time>2018-05-13T12:49:12.000Z</time>
      </trkpt>
      <trkpt lat="43.82868" lon="7.24934">
        <ele>530</ele>
        <time>2018-05-13T12:49:14.000Z</time>
      </trkpt>
      <trkpt lat="43.82853" lon="7.24963">
        <ele>532</ele>
        <time>2018-05-13T12:49:18.000Z</time>
      </trkpt>
      <trkpt lat="43.82848" lon="7.24969">
        <ele>532</ele>
        <time>2018-05-13T12:49:19.000Z</time>
      </trkpt>
      <trkpt lat="43.82829" lon="7.24973">
        <ele>527</ele>
        <time>2018-05-13T12:49:22.000Z</time>
      </trkpt>
      <trkpt lat="43.82823" lon="7.24971">
        <ele>526</ele>
        <time>2018-05-13T12:49:23.000Z</time>
      </trkpt>
      <trkpt lat="43.82815" lon="7.24964">
        <ele>525</ele>
        <time>2018-05-13T12:49:25.000Z</time>
      </trkpt>
      <trkpt lat="43.82802" lon="7.24959">
        <ele>524</ele>
        <time>2018-05-13T12:49:27.000Z</time>
      </trkpt>
      <trkpt lat="43.82791" lon="7.24956">
        <ele>524</ele>
        <time>2018-05-13T12:49:29.000Z</time>
      </trkpt>
      <trkpt lat="43.82768" lon="7.24954">
        <ele>523</ele>
        <time>2018-05-13T12:49:32.000Z</time>
      </trkpt>
      <trkpt lat="43.82761" lon="7.24956">
        <ele>523</ele>
        <time>2018-05-13T12:49:33.000Z</time>
      </trkpt>
      <trkpt lat="43.82751" lon="7.24966">
        <ele>525</ele>
        <time>2018-05-13T12:49:35.000Z</time>
      </trkpt>
      <trkpt lat="43.82747" lon="7.24972">
        <ele>521</ele>
        <time>2018-05-13T12:49:36.000Z</time>
      </trkpt>
      <trkpt lat="43.82737" lon="7.24977">
        <ele>522</ele>
        <time>2018-05-13T12:49:39.000Z</time>
      </trkpt>
      <trkpt lat="43.82731" lon="7.24981">
        <ele>522</ele>
        <time>2018-05-13T12:49:42.000Z</time>
      </trkpt>
      <trkpt lat="43.82726" lon="7.24986">
        <ele>522</ele>
        <time>2018-05-13T12:49:45.000Z</time>
      </trkpt>
      <trkpt lat="43.82718" lon="7.24992">
        <ele>521</ele>
        <time>2018-05-13T12:49:49.000Z</time>
      </trkpt>
      <trkpt lat="43.82716" lon="7.24993">
        <ele>521</ele>
        <time>2018-05-13T12:49:50.000Z</time>
      </trkpt>
      <trkpt lat="43.82708" lon="7.25001">
        <ele>534</ele>
        <time>2018-05-13T12:49:54.000Z</time>
      </trkpt>
      <trkpt lat="43.82705" lon="7.25004">
        <ele>533</ele>
        <time>2018-05-13T12:49:56.000Z</time>
      </trkpt>
      <trkpt lat="43.82702" lon="7.25007">
        <ele>533</ele>
        <time>2018-05-13T12:49:58.000Z</time>
      </trkpt>
      <trkpt lat="43.82694" lon="7.25014">
        <ele>533</ele>
        <time>2018-05-13T12:50:03.000Z</time>
      </trkpt>
      <trkpt lat="43.8269" lon="7.25017">
        <ele>532</ele>
        <time>2018-05-13T12:50:06.000Z</time>
      </trkpt>
      <trkpt lat="43.82687" lon="7.2502">
        <ele>532</ele>
        <time>2018-05-13T12:50:08.000Z</time>
      </trkpt>
      <trkpt lat="43.82678" lon="7.25025">
        <ele>533</ele>
        <time>2018-05-13T12:50:13.000Z</time>
      </trkpt>
      <trkpt lat="43.82669" lon="7.25032">
        <ele>534</ele>
        <time>2018-05-13T12:50:19.000Z</time>
      </trkpt>
      <trkpt lat="43.82667" lon="7.25034">
        <ele>534</ele>
        <time>2018-05-13T12:50:20.000Z</time>
      </trkpt>
      <trkpt lat="43.8266" lon="7.25041">
        <ele>528</ele>
        <time>2018-05-13T12:50:25.000Z</time>
      </trkpt>
      <trkpt lat="43.82656" lon="7.25045">
        <ele>529</ele>
        <time>2018-05-13T12:50:28.000Z</time>
      </trkpt>
      <trkpt lat="43.82654" lon="7.25048">
        <ele>530</ele>
        <time>2018-05-13T12:50:30.000Z</time>
      </trkpt>
      <trkpt lat="43.82648" lon="7.25055">
        <ele>531</ele>
        <time>2018-05-13T12:50:35.000Z</time>
      </trkpt>
      <trkpt lat="43.82647" lon="7.25057">
        <ele>531</ele>
        <time>2018-05-13T12:50:36.000Z</time>
      </trkpt>
      <trkpt lat="43.82639" lon="7.25065">
        <ele>531</ele>
        <time>2018-05-13T12:50:42.000Z</time>
      </trkpt>
      <trkpt lat="43.82638" lon="7.25066">
        <ele>531</ele>
        <time>2018-05-13T12:50:43.000Z</time>
      </trkpt>
      <trkpt lat="43.82631" lon="7.25072">
        <ele>531</ele>
        <time>2018-05-13T12:50:48.000Z</time>
      </trkpt>
      <trkpt lat="43.82627" lon="7.25076">
        <ele>531</ele>
        <time>2018-05-13T12:50:51.000Z</time>
      </trkpt>
      <trkpt lat="43.82622" lon="7.2508">
        <ele>530</ele>
        <time>2018-05-13T12:50:55.000Z</time>
      </trkpt>
      <trkpt lat="43.82618" lon="7.25083">
        <ele>530</ele>
        <time>2018-05-13T12:50:58.000Z</time>
      </trkpt>
      <trkpt lat="43.82616" lon="7.25085">
        <ele>545</ele>
        <time>2018-05-13T12:51:00.000Z</time>
      </trkpt>
      <trkpt lat="43.82608" lon="7.25091">
        <ele>544</ele>
        <time>2018-05-13T12:51:06.000Z</time>
      </trkpt>
      <trkpt lat="43.82602" lon="7.25096">
        <ele>544</ele>
        <time>2018-05-13T12:51:11.000Z</time>
      </trkpt>
      <trkpt lat="43.82601" lon="7.25097">
        <ele>544</ele>
        <time>2018-05-13T12:51:12.000Z</time>
      </trkpt>
      <trkpt lat="43.82595" lon="7.25103">
        <ele>544</ele>
        <time>2018-05-13T12:51:17.000Z</time>
      </trkpt>
      <trkpt lat="43.82591" lon="7.25106">
        <ele>544</ele>
        <time>2018-05-13T12:51:20.000Z</time>
      </trkpt>
      <trkpt lat="43.82586" lon="7.2511">
        <ele>545</ele>
        <time>2018-05-13T12:51:24.000Z</time>
      </trkpt>
      <trkpt lat="43.82582" lon="7.25113">
        <ele>541</ele>
        <time>2018-05-13T12:51:27.000Z</time>
      </trkpt>
      <trkpt lat="43.82579" lon="7.25114">
        <ele>541</ele>
        <time>2018-05-13T12:51:29.000Z</time>
      </trkpt>
      <trkpt lat="43.82573" lon="7.25119">
        <ele>542</ele>
        <time>2018-05-13T12:51:34.000Z</time>
      </trkpt>
      <trkpt lat="43.82571" lon="7.25122">
        <ele>543</ele>
        <time>2018-05-13T12:51:36.000Z</time>
      </trkpt>
      <trkpt lat="43.82565" lon="7.25128">
        <ele>544</ele>
        <time>2018-05-13T12:51:41.000Z</time>
      </trkpt>
      <trkpt lat="43.82563" lon="7.2513">
        <ele>544</ele>
        <time>2018-05-13T12:51:43.000Z</time>
      </trkpt>
      <trkpt lat="43.82556" lon="7.25137">
        <ele>545</ele>
        <time>2018-05-13T12:51:49.000Z</time>
      </trkpt>
      <trkpt lat="43.8255" lon="7.25143">
        <ele>545</ele>
        <time>2018-05-13T12:51:55.000Z</time>
      </trkpt>
      <trkpt lat="43.82549" lon="7.25144">
        <ele>545</ele>
        <time>2018-05-13T12:51:56.000Z</time>
      </trkpt>
      <trkpt lat="43.82542" lon="7.2515">
        <ele>546</ele>
        <time>2018-05-13T12:52:02.000Z</time>
      </trkpt>
      <trkpt lat="43.82539" lon="7.25152">
        <ele>546</ele>
        <time>2018-05-13T12:52:05.000Z</time>
      </trkpt>
      <trkpt lat="43.82531" lon="7.25156">
        <ele>546</ele>
        <time>2018-05-13T12:52:10.000Z</time>
      </trkpt>
      <trkpt lat="43.82528" lon="7.25157">
        <ele>546</ele>
        <time>2018-05-13T12:52:12.000Z</time>
      </trkpt>
      <trkpt lat="43.82523" lon="7.2516">
        <ele>547</ele>
        <time>2018-05-13T12:52:16.000Z</time>
      </trkpt>
      <trkpt lat="43.82519" lon="7.25162">
        <ele>547</ele>
        <time>2018-05-13T12:52:19.000Z</time>
      </trkpt>
      <trkpt lat="43.82517" lon="7.25164">
        <ele>548</ele>
        <time>2018-05-13T12:52:21.000Z</time>
      </trkpt>
      <trkpt lat="43.82514" lon="7.25165">
        <ele>548</ele>
        <time>2018-05-13T12:52:23.000Z</time>
      </trkpt>
      <trkpt lat="43.82513" lon="7.25166">
        <ele>548</ele>
        <time>2018-05-13T12:52:24.000Z</time>
      </trkpt>
      <trkpt lat="43.82507" lon="7.25169">
        <ele>556</ele>
        <time>2018-05-13T12:52:28.000Z</time>
      </trkpt>
      <trkpt lat="43.82504" lon="7.25171">
        <ele>556</ele>
        <time>2018-05-13T12:52:30.000Z</time>
      </trkpt>
      <trkpt lat="43.82503" lon="7.25172">
        <ele>556</ele>
        <time>2018-05-13T12:52:31.000Z</time>
      </trkpt>
      <trkpt lat="43.82499" lon="7.25176">
        <ele>555</ele>
        <time>2018-05-13T12:52:35.000Z</time>
      </trkpt>
      <trkpt lat="43.82493" lon="7.25182">
        <ele>556</ele>
        <time>2018-05-13T12:52:40.000Z</time>
      </trkpt>
      <trkpt lat="43.8249" lon="7.25185">
        <ele>557</ele>
        <time>2018-05-13T12:52:43.000Z</time>
      </trkpt>
      <trkpt lat="43.82485" lon="7.2519">
        <ele>558</ele>
        <time>2018-05-13T12:52:47.000Z</time>
      </trkpt>
      <trkpt lat="43.82482" lon="7.25192">
        <ele>558</ele>
        <time>2018-05-13T12:52:49.000Z</time>
      </trkpt>
      <trkpt lat="43.82471" lon="7.252">
        <ele>559</ele>
        <time>2018-05-13T12:52:56.000Z</time>
      </trkpt>
      <trkpt lat="43.82463" lon="7.25205">
        <ele>559</ele>
        <time>2018-05-13T12:53:01.000Z</time>
      </trkpt>
      <trkpt lat="43.82458" lon="7.25207">
        <ele>559</ele>
        <time>2018-05-13T12:53:04.000Z</time>
      </trkpt>
      <trkpt lat="43.82453" lon="7.25209">
        <ele>559</ele>
        <time>2018-05-13T12:53:07.000Z</time>
      </trkpt>
      <trkpt lat="43.82444" lon="7.25213">
        <ele>560</ele>
        <time>2018-05-13T12:53:12.000Z</time>
      </trkpt>
      <trkpt lat="43.82439" lon="7.25215">
        <ele>560</ele>
        <time>2018-05-13T12:53:15.000Z</time>
      </trkpt>
      <trkpt lat="43.82433" lon="7.25218">
        <ele>560</ele>
        <time>2018-05-13T12:53:19.000Z</time>
      </trkpt>
      <trkpt lat="43.82429" lon="7.25221">
        <ele>561</ele>
        <time>2018-05-13T12:53:22.000Z</time>
      </trkpt>
      <trkpt lat="43.82421" lon="7.25226">
        <ele>562</ele>
        <time>2018-05-13T12:53:27.000Z</time>
      </trkpt>
      <trkpt lat="43.82419" lon="7.25227">
        <ele>562</ele>
        <time>2018-05-13T12:53:28.000Z</time>
      </trkpt>
      <trkpt lat="43.82408" lon="7.25234">
        <ele>559</ele>
        <time>2018-05-13T12:53:35.000Z</time>
      </trkpt>
      <trkpt lat="43.82404" lon="7.25238">
        <ele>559</ele>
        <time>2018-05-13T12:53:38.000Z</time>
      </trkpt>
      <trkpt lat="43.82394" lon="7.25245">
        <ele>557</ele>
        <time>2018-05-13T12:53:44.000Z</time>
      </trkpt>
      <trkpt lat="43.82385" lon="7.25251">
        <ele>571</ele>
        <time>2018-05-13T12:53:49.000Z</time>
      </trkpt>
      <trkpt lat="43.82381" lon="7.25254">
        <ele>571</ele>
        <time>2018-05-13T12:53:51.000Z</time>
      </trkpt>
      <trkpt lat="43.82362" lon="7.25263">
        <ele>569</ele>
        <time>2018-05-13T12:53:57.000Z</time>
      </trkpt>
      <trkpt lat="43.82336" lon="7.25277">
        <ele>569</ele>
        <time>2018-05-13T12:54:04.000Z</time>
      </trkpt>
      <trkpt lat="43.82307" lon="7.25297">
        <ele>562</ele>
        <time>2018-05-13T12:54:12.000Z</time>
      </trkpt>
      <trkpt lat="43.82303" lon="7.253">
        <ele>562</ele>
        <time>2018-05-13T12:54:13.000Z</time>
      </trkpt>
      <trkpt lat="43.82275" lon="7.25324">
        <ele>561</ele>
        <time>2018-05-13T12:54:21.000Z</time>
      </trkpt>
      <trkpt lat="43.82249" lon="7.25355">
        <ele>561</ele>
        <time>2018-05-13T12:54:29.000Z</time>
      </trkpt>
      <trkpt lat="43.82246" lon="7.25359">
        <ele>561</ele>
        <time>2018-05-13T12:54:30.000Z</time>
      </trkpt>
      <trkpt lat="43.82225" lon="7.25382">
        <ele>563</ele>
        <time>2018-05-13T12:54:36.000Z</time>
      </trkpt>
      <trkpt lat="43.82211" lon="7.25394">
        <ele>562</ele>
        <time>2018-05-13T12:54:40.000Z</time>
      </trkpt>
      <trkpt lat="43.82199" lon="7.25401">
        <ele>561</ele>
        <time>2018-05-13T12:54:43.000Z</time>
      </trkpt>
      <trkpt lat="43.82195" lon="7.25403">
        <ele>560</ele>
        <time>2018-05-13T12:54:44.000Z</time>
      </trkpt>
      <trkpt lat="43.82175" lon="7.25416">
        <ele>559</ele>
        <time>2018-05-13T12:54:49.000Z</time>
      </trkpt>
      <trkpt lat="43.82168" lon="7.25423">
        <ele>564</ele>
        <time>2018-05-13T12:54:51.000Z</time>
      </trkpt>
      <trkpt lat="43.82143" lon="7.25451">
        <ele>563</ele>
        <time>2018-05-13T12:54:58.000Z</time>
      </trkpt>
      <trkpt lat="43.82132" lon="7.25461">
        <ele>563</ele>
        <time>2018-05-13T12:55:01.000Z</time>
      </trkpt>
      <trkpt lat="43.82125" lon="7.25467">
        <ele>563</ele>
        <time>2018-05-13T12:55:03.000Z</time>
      </trkpt>
      <trkpt lat="43.82121" lon="7.2547">
        <ele>563</ele>
        <time>2018-05-13T12:55:04.000Z</time>
      </trkpt>
      <trkpt lat="43.82096" lon="7.25487">
        <ele>564</ele>
        <time>2018-05-13T12:55:11.000Z</time>
      </trkpt>
      <trkpt lat="43.82072" lon="7.25503">
        <ele>566</ele>
        <time>2018-05-13T12:55:18.000Z</time>
      </trkpt>
      <trkpt lat="43.82069" lon="7.25505">
        <ele>566</ele>
        <time>2018-05-13T12:55:19.000Z</time>
      </trkpt>
      <trkpt lat="43.82044" lon="7.25523">
        <ele>564</ele>
        <time>2018-05-13T12:55:27.000Z</time>
      </trkpt>
      <trkpt lat="43.82035" lon="7.2553">
        <ele>564</ele>
        <time>2018-05-13T12:55:30.000Z</time>
      </trkpt>
      <trkpt lat="43.82021" lon="7.25543">
        <ele>564</ele>
        <time>2018-05-13T12:55:35.000Z</time>
      </trkpt>
      <trkpt lat="43.82009" lon="7.25558">
        <ele>565</ele>
        <time>2018-05-13T12:55:40.000Z</time>
      </trkpt>
      <trkpt lat="43.82002" lon="7.25567">
        <ele>565</ele>
        <time>2018-05-13T12:55:43.000Z</time>
      </trkpt>
      <trkpt lat="43.81984" lon="7.25585">
        <ele>568</ele>
        <time>2018-05-13T12:55:49.000Z</time>
      </trkpt>
      <trkpt lat="43.8197" lon="7.256">
        <ele>570</ele>
        <time>2018-05-13T12:55:55.000Z</time>
      </trkpt>
      <trkpt lat="43.81968" lon="7.25602">
        <ele>570</ele>
        <time>2018-05-13T12:55:56.000Z</time>
      </trkpt>
      <trkpt lat="43.81963" lon="7.25608">
        <ele>571</ele>
        <time>2018-05-13T12:55:59.000Z</time>
      </trkpt>
      <trkpt lat="43.81957" lon="7.2562">
        <ele>571</ele>
        <time>2018-05-13T12:56:04.000Z</time>
      </trkpt>
      <trkpt lat="43.81952" lon="7.25635">
        <ele>571</ele>
        <time>2018-05-13T12:56:10.000Z</time>
      </trkpt>
      <trkpt lat="43.8195" lon="7.2564">
        <ele>571</ele>
        <time>2018-05-13T12:56:12.000Z</time>
      </trkpt>
      <trkpt lat="43.81946" lon="7.2565">
        <ele>572</ele>
        <time>2018-05-13T12:56:16.000Z</time>
      </trkpt>
      <trkpt lat="43.81941" lon="7.25662">
        <ele>574</ele>
        <time>2018-05-13T12:56:21.000Z</time>
      </trkpt>
      <trkpt lat="43.81939" lon="7.25666">
        <ele>574</ele>
        <time>2018-05-13T12:56:23.000Z</time>
      </trkpt>
      <trkpt lat="43.81934" lon="7.25676">
        <ele>569</ele>
        <time>2018-05-13T12:56:28.000Z</time>
      </trkpt>
      <trkpt lat="43.81933" lon="7.2568">
        <ele>569</ele>
        <time>2018-05-13T12:56:30.000Z</time>
      </trkpt>
      <trkpt lat="43.81928" lon="7.25687">
        <ele>568</ele>
        <time>2018-05-13T12:56:34.000Z</time>
      </trkpt>
      <trkpt lat="43.81923" lon="7.25697">
        <ele>566</ele>
        <time>2018-05-13T12:56:39.000Z</time>
      </trkpt>
      <trkpt lat="43.81919" lon="7.25701">
        <ele>566</ele>
        <time>2018-05-13T12:56:42.000Z</time>
      </trkpt>
      <trkpt lat="43.81914" lon="7.2571">
        <ele>579</ele>
        <time>2018-05-13T12:56:47.000Z</time>
      </trkpt>
      <trkpt lat="43.81912" lon="7.25714">
        <ele>579</ele>
        <time>2018-05-13T12:56:49.000Z</time>
      </trkpt>
      <trkpt lat="43.81907" lon="7.25721">
        <ele>578</ele>
        <time>2018-05-13T12:56:53.000Z</time>
      </trkpt>
      <trkpt lat="43.81901" lon="7.25731">
        <ele>577</ele>
        <time>2018-05-13T12:56:59.000Z</time>
      </trkpt>
      <trkpt lat="43.819" lon="7.25733">
        <ele>577</ele>
        <time>2018-05-13T12:57:00.000Z</time>
      </trkpt>
      <trkpt lat="43.81892" lon="7.25744">
        <ele>577</ele>
        <time>2018-05-13T12:57:07.000Z</time>
      </trkpt>
      <trkpt lat="43.8189" lon="7.25748">
        <ele>577</ele>
        <time>2018-05-13T12:57:09.000Z</time>
      </trkpt>
      <trkpt lat="43.81882" lon="7.25755">
        <ele>568</ele>
        <time>2018-05-13T12:57:15.000Z</time>
      </trkpt>
      <trkpt lat="43.8188" lon="7.25757">
        <ele>568</ele>
        <time>2018-05-13T12:57:17.000Z</time>
      </trkpt>
      <trkpt lat="43.81875" lon="7.25761">
        <ele>569</ele>
        <time>2018-05-13T12:57:21.000Z</time>
      </trkpt>
      <trkpt lat="43.81869" lon="7.25764">
        <ele>569</ele>
        <time>2018-05-13T12:57:26.000Z</time>
      </trkpt>
      <trkpt lat="43.81865" lon="7.25765">
        <ele>570</ele>
        <time>2018-05-13T12:57:29.000Z</time>
      </trkpt>
      <trkpt lat="43.81859" lon="7.25765">
        <ele>571</ele>
        <time>2018-05-13T12:57:33.000Z</time>
      </trkpt>
      <trkpt lat="43.81856" lon="7.25765">
        <ele>571</ele>
        <time>2018-05-13T12:57:35.000Z</time>
      </trkpt>
      <trkpt lat="43.81848" lon="7.25765">
        <ele>573</ele>
        <time>2018-05-13T12:57:40.000Z</time>
      </trkpt>
      <trkpt lat="43.81844" lon="7.25764">
        <ele>574</ele>
        <time>2018-05-13T12:57:43.000Z</time>
      </trkpt>
      <trkpt lat="43.81839" lon="7.25762">
        <ele>575</ele>
        <time>2018-05-13T12:57:47.000Z</time>
      </trkpt>
      <trkpt lat="43.81837" lon="7.25761">
        <ele>576</ele>
        <time>2018-05-13T12:57:48.000Z</time>
      </trkpt>
      <trkpt lat="43.81828" lon="7.25755">
        <ele>577</ele>
        <time>2018-05-13T12:57:54.000Z</time>
      </trkpt>
      <trkpt lat="43.8182" lon="7.25747">
        <ele>581</ele>
        <time>2018-05-13T12:58:01.000Z</time>
      </trkpt>
      <trkpt lat="43.81818" lon="7.25744">
        <ele>581</ele>
        <time>2018-05-13T12:58:03.000Z</time>
      </trkpt>
      <trkpt lat="43.81813" lon="7.25735">
        <ele>580</ele>
        <time>2018-05-13T12:58:08.000Z</time>
      </trkpt>
      <trkpt lat="43.8181" lon="7.2573">
        <ele>580</ele>
        <time>2018-05-13T12:58:11.000Z</time>
      </trkpt>
      <trkpt lat="43.81807" lon="7.25723">
        <ele>580</ele>
        <time>2018-05-13T12:58:15.000Z</time>
      </trkpt>
      <trkpt lat="43.81803" lon="7.25714">
        <ele>581</ele>
        <time>2018-05-13T12:58:20.000Z</time>
      </trkpt>
      <trkpt lat="43.81801" lon="7.25709">
        <ele>581</ele>
        <time>2018-05-13T12:58:23.000Z</time>
      </trkpt>
      <trkpt lat="43.81797" lon="7.25698">
        <ele>582</ele>
        <time>2018-05-13T12:58:28.000Z</time>
      </trkpt>
      <trkpt lat="43.81794" lon="7.25691">
        <ele>582</ele>
        <time>2018-05-13T12:58:31.000Z</time>
      </trkpt>
      <trkpt lat="43.81792" lon="7.25684">
        <ele>582</ele>
        <time>2018-05-13T12:58:35.000Z</time>
      </trkpt>
      <trkpt lat="43.81792" lon="7.25682">
        <ele>582</ele>
        <time>2018-05-13T12:58:36.000Z</time>
      </trkpt>
      <trkpt lat="43.81789" lon="7.25668">
        <ele>582</ele>
        <time>2018-05-13T12:58:43.000Z</time>
      </trkpt>
      <trkpt lat="43.81788" lon="7.25666">
        <ele>591</ele>
        <time>2018-05-13T12:58:44.000Z</time>
      </trkpt>
      <trkpt lat="43.81786" lon="7.25654">
        <ele>591</ele>
        <time>2018-05-13T12:58:50.000Z</time>
      </trkpt>
      <trkpt lat="43.81784" lon="7.25647">
        <ele>592</ele>
        <time>2018-05-13T12:58:53.000Z</time>
      </trkpt>
      <trkpt lat="43.81782" lon="7.25633">
        <ele>592</ele>
        <time>2018-05-13T12:58:59.000Z</time>
      </trkpt>
      <trkpt lat="43.81781" lon="7.25631">
        <ele>592</ele>
        <time>2018-05-13T12:59:00.000Z</time>
      </trkpt>
      <trkpt lat="43.81781" lon="7.25623">
        <ele>593</ele>
        <time>2018-05-13T12:59:04.000Z</time>
      </trkpt>
      <trkpt lat="43.8178" lon="7.25618">
        <ele>593</ele>
        <time>2018-05-13T12:59:06.000Z</time>
      </trkpt>
      <trkpt lat="43.81779" lon="7.25606">
        <ele>594</ele>
        <time>2018-05-13T12:59:12.000Z</time>
      </trkpt>
      <trkpt lat="43.81779" lon="7.25604">
        <ele>594</ele>
        <time>2018-05-13T12:59:13.000Z</time>
      </trkpt>
      <trkpt lat="43.81777" lon="7.25594">
        <ele>594</ele>
        <time>2018-05-13T12:59:18.000Z</time>
      </trkpt>
      <trkpt lat="43.81776" lon="7.25584">
        <ele>594</ele>
        <time>2018-05-13T12:59:23.000Z</time>
      </trkpt>
      <trkpt lat="43.81775" lon="7.25579">
        <ele>597</ele>
        <time>2018-05-13T12:59:26.000Z</time>
      </trkpt>
      <trkpt lat="43.81773" lon="7.25567">
        <ele>597</ele>
        <time>2018-05-13T12:59:32.000Z</time>
      </trkpt>
      <trkpt lat="43.81773" lon="7.25565">
        <ele>597</ele>
        <time>2018-05-13T12:59:33.000Z</time>
      </trkpt>
      <trkpt lat="43.81769" lon="7.25549">
        <ele>598</ele>
        <time>2018-05-13T12:59:41.000Z</time>
      </trkpt>
      <trkpt lat="43.81769" lon="7.25547">
        <ele>598</ele>
        <time>2018-05-13T12:59:42.000Z</time>
      </trkpt>
      <trkpt lat="43.81766" lon="7.25538">
        <ele>598</ele>
        <time>2018-05-13T12:59:46.000Z</time>
      </trkpt>
      <trkpt lat="43.81763" lon="7.25529">
        <ele>599</ele>
        <time>2018-05-13T12:59:50.000Z</time>
      </trkpt>
      <trkpt lat="43.8176" lon="7.25523">
        <ele>599</ele>
        <time>2018-05-13T12:59:53.000Z</time>
      </trkpt>
      <trkpt lat="43.81757" lon="7.25515">
        <ele>600</ele>
        <time>2018-05-13T12:59:57.000Z</time>
      </trkpt>
      <trkpt lat="43.81755" lon="7.25512">
        <ele>600</ele>
        <time>2018-05-13T12:59:59.000Z</time>
      </trkpt>
      <trkpt lat="43.81749" lon="7.25501">
        <ele>601</ele>
        <time>2018-05-13T13:00:06.000Z</time>
      </trkpt>
      <trkpt lat="43.81739" lon="7.2549">
        <ele>599</ele>
        <time>2018-05-13T13:00:14.000Z</time>
      </trkpt>
      <trkpt lat="43.81732" lon="7.25481">
        <ele>597</ele>
        <time>2018-05-13T13:00:20.000Z</time>
      </trkpt>
      <trkpt lat="43.81731" lon="7.2548">
        <ele>597</ele>
        <time>2018-05-13T13:00:21.000Z</time>
      </trkpt>
      <trkpt lat="43.81719" lon="7.2547">
        <ele>596</ele>
        <time>2018-05-13T13:00:29.000Z</time>
      </trkpt>
      <trkpt lat="43.81718" lon="7.25468">
        <ele>596</ele>
        <time>2018-05-13T13:00:30.000Z</time>
      </trkpt>
      <trkpt lat="43.81704" lon="7.25457">
        <ele>596</ele>
        <time>2018-05-13T13:00:37.000Z</time>
      </trkpt>
      <trkpt lat="43.817" lon="7.25451">
        <ele>596</ele>
        <time>2018-05-13T13:00:42.000Z</time>
      </trkpt>
      <trkpt lat="43.81699" lon="7.25451">
        <ele>596</ele>
        <time>2018-05-13T13:00:43.000Z</time>
      </trkpt>
      <trkpt lat="43.81694" lon="7.25446">
        <ele>597</ele>
        <time>2018-05-13T13:00:47.000Z</time>
      </trkpt>
      <trkpt lat="43.81689" lon="7.25442">
        <ele>597</ele>
        <time>2018-05-13T13:00:52.000Z</time>
      </trkpt>
      <trkpt lat="43.81688" lon="7.25441">
        <ele>597</ele>
        <time>2018-05-13T13:00:53.000Z</time>
      </trkpt>
      <trkpt lat="43.81682" lon="7.25436">
        <ele>598</ele>
        <time>2018-05-13T13:00:59.000Z</time>
      </trkpt>
      <trkpt lat="43.81681" lon="7.25435">
        <ele>599</ele>
        <time>2018-05-13T13:01:05.000Z</time>
      </trkpt>
      <trkpt lat="43.81677" lon="7.25431">
        <ele>599</ele>
        <time>2018-05-13T13:01:10.000Z</time>
      </trkpt>
      <trkpt lat="43.81674" lon="7.25429">
        <ele>600</ele>
        <time>2018-05-13T13:01:13.000Z</time>
      </trkpt>
      <trkpt lat="43.81671" lon="7.25426">
        <ele>601</ele>
        <time>2018-05-13T13:01:17.000Z</time>
      </trkpt>
      <trkpt lat="43.8167" lon="7.25425">
        <ele>601</ele>
        <time>2018-05-13T13:01:19.000Z</time>
      </trkpt>
      <trkpt lat="43.81665" lon="7.25421">
        <ele>604</ele>
        <time>2018-05-13T13:01:25.000Z</time>
      </trkpt>
      <trkpt lat="43.81663" lon="7.25419">
        <ele>604</ele>
        <time>2018-05-13T13:01:28.000Z</time>
      </trkpt>
      <trkpt lat="43.8166" lon="7.25416">
        <ele>605</ele>
        <time>2018-05-13T13:01:32.000Z</time>
      </trkpt>
      <trkpt lat="43.81657" lon="7.25414">
        <ele>606</ele>
        <time>2018-05-13T13:01:36.000Z</time>
      </trkpt>
      <trkpt lat="43.81653" lon="7.25411">
        <ele>606</ele>
        <time>2018-05-13T13:01:40.000Z</time>
      </trkpt>
      <trkpt lat="43.81649" lon="7.25408">
        <ele>607</ele>
        <time>2018-05-13T13:01:45.000Z</time>
      </trkpt>
      <trkpt lat="43.81649" lon="7.25407">
        <ele>607</ele>
        <time>2018-05-13T13:01:46.000Z</time>
      </trkpt>
      <trkpt lat="43.81642" lon="7.25403">
        <ele>608</ele>
        <time>2018-05-13T13:01:54.000Z</time>
      </trkpt>
      <trkpt lat="43.81641" lon="7.25402">
        <ele>608</ele>
        <time>2018-05-13T13:01:55.000Z</time>
      </trkpt>
      <trkpt lat="43.81638" lon="7.25399">
        <ele>608</ele>
        <time>2018-05-13T13:02:00.000Z</time>
      </trkpt>
      <trkpt lat="43.81634" lon="7.25396">
        <ele>609</ele>
        <time>2018-05-13T13:02:06.000Z</time>
      </trkpt>
      <trkpt lat="43.81632" lon="7.25395">
        <ele>609</ele>
        <time>2018-05-13T13:02:08.000Z</time>
      </trkpt>
      <trkpt lat="43.81628" lon="7.2539">
        <ele>609</ele>
        <time>2018-05-13T13:02:15.000Z</time>
      </trkpt>
      <trkpt lat="43.81625" lon="7.25387">
        <ele>609</ele>
        <time>2018-05-13T13:02:19.000Z</time>
      </trkpt>
      <trkpt lat="43.81625" lon="7.25387">
        <ele>610</ele>
        <time>2018-05-13T13:02:20.000Z</time>
      </trkpt>
      <trkpt lat="43.81621" lon="7.25383">
        <ele>610</ele>
        <time>2018-05-13T13:02:26.000Z</time>
      </trkpt>
      <trkpt lat="43.8162" lon="7.25383">
        <ele>610</ele>
        <time>2018-05-13T13:02:27.000Z</time>
      </trkpt>
      <trkpt lat="43.81616" lon="7.25378">
        <ele>610</ele>
        <time>2018-05-13T13:02:34.000Z</time>
      </trkpt>
      <trkpt lat="43.81616" lon="7.25377">
        <ele>611</ele>
        <time>2018-05-13T13:02:36.000Z</time>
      </trkpt>
      <trkpt lat="43.81615" lon="7.25375">
        <ele>611</ele>
        <time>2018-05-13T13:02:39.000Z</time>
      </trkpt>
      <trkpt lat="43.81612" lon="7.25374">
        <ele>611</ele>
        <time>2018-05-13T13:02:43.000Z</time>
      </trkpt>
      <trkpt lat="43.81611" lon="7.25372">
        <ele>611</ele>
        <time>2018-05-13T13:02:46.000Z</time>
      </trkpt>
      <trkpt lat="43.81607" lon="7.2537">
        <ele>612</ele>
        <time>2018-05-13T13:02:53.000Z</time>
      </trkpt>
      <trkpt lat="43.81607" lon="7.25368">
        <ele>612</ele>
        <time>2018-05-13T13:02:55.000Z</time>
      </trkpt>
      <trkpt lat="43.81605" lon="7.25366">
        <ele>612</ele>
        <time>2018-05-13T13:02:59.000Z</time>
      </trkpt>
      <trkpt lat="43.81603" lon="7.25363">
        <ele>613</ele>
        <time>2018-05-13T13:03:04.000Z</time>
      </trkpt>
      <trkpt lat="43.81602" lon="7.25362">
        <ele>613</ele>
        <time>2018-05-13T13:03:06.000Z</time>
      </trkpt>
      <trkpt lat="43.816" lon="7.2536">
        <ele>613</ele>
        <time>2018-05-13T13:03:11.000Z</time>
      </trkpt>
      <trkpt lat="43.816" lon="7.2536">
        <ele>613</ele>
        <time>2018-05-13T13:03:12.000Z</time>
      </trkpt>
      <trkpt lat="43.81597" lon="7.25358">
        <ele>614</ele>
        <time>2018-05-13T13:03:17.000Z</time>
      </trkpt>
      <trkpt lat="43.81596" lon="7.25356">
        <ele>614</ele>
        <time>2018-05-13T13:03:21.000Z</time>
      </trkpt>
      <trkpt lat="43.81595" lon="7.25355">
        <ele>615</ele>
        <time>2018-05-13T13:03:23.000Z</time>
      </trkpt>
      <trkpt lat="43.81593" lon="7.25353">
        <ele>615</ele>
        <time>2018-05-13T13:03:29.000Z</time>
      </trkpt>
      <trkpt lat="43.81592" lon="7.25353">
        <ele>615</ele>
        <time>2018-05-13T13:03:30.000Z</time>
      </trkpt>
      <trkpt lat="43.81589" lon="7.25352">
        <ele>616</ele>
        <time>2018-05-13T13:03:36.000Z</time>
      </trkpt>
      <trkpt lat="43.81588" lon="7.25352">
        <ele>616</ele>
        <time>2018-05-13T13:03:38.000Z</time>
      </trkpt>
      <trkpt lat="43.81587" lon="7.25353">
        <ele>616</ele>
        <time>2018-05-13T13:03:42.000Z</time>
      </trkpt>
      <trkpt lat="43.81584" lon="7.25353">
        <ele>616</ele>
        <time>2018-05-13T13:03:48.000Z</time>
      </trkpt>
      <trkpt lat="43.81584" lon="7.25353">
        <ele>616</ele>
        <time>2018-05-13T13:03:50.000Z</time>
      </trkpt>
      <trkpt lat="43.81581" lon="7.25352">
        <ele>628</ele>
        <time>2018-05-13T13:03:56.000Z</time>
      </trkpt>
      <trkpt lat="43.81579" lon="7.25352">
        <ele>628</ele>
        <time>2018-05-13T13:04:00.000Z</time>
      </trkpt>
      <trkpt lat="43.81578" lon="7.2535">
        <ele>628</ele>
        <time>2018-05-13T13:04:03.000Z</time>
      </trkpt>
      <trkpt lat="43.81577" lon="7.25349">
        <ele>628</ele>
        <time>2018-05-13T13:04:06.000Z</time>
      </trkpt>
      <trkpt lat="43.81575" lon="7.25348">
        <ele>628</ele>
        <time>2018-05-13T13:04:10.000Z</time>
      </trkpt>
      <trkpt lat="43.81574" lon="7.25347">
        <ele>628</ele>
        <time>2018-05-13T13:04:12.000Z</time>
      </trkpt>
      <trkpt lat="43.81573" lon="7.25345">
        <ele>628</ele>
        <time>2018-05-13T13:04:15.000Z</time>
      </trkpt>
      <trkpt lat="43.81572" lon="7.25345">
        <ele>628</ele>
        <time>2018-05-13T13:04:18.000Z</time>
      </trkpt>
      <trkpt lat="43.8157" lon="7.25344">
        <ele>628</ele>
        <time>2018-05-13T13:04:22.000Z</time>
      </trkpt>
      <trkpt lat="43.81569" lon="7.25342">
        <ele>628</ele>
        <time>2018-05-13T13:04:24.000Z</time>
      </trkpt>
      <trkpt lat="43.81565" lon="7.25341">
        <ele>629</ele>
        <time>2018-05-13T13:04:28.000Z</time>
      </trkpt>
      <trkpt lat="43.81565" lon="7.25342">
        <ele>629</ele>
        <time>2018-05-13T13:04:29.000Z</time>
      </trkpt>
      <trkpt lat="43.81564" lon="7.25342">
        <ele>629</ele>
        <time>2018-05-13T13:04:30.000Z</time>
      </trkpt>
      <trkpt lat="43.81562" lon="7.25342">
        <ele>629</ele>
        <time>2018-05-13T13:04:32.000Z</time>
      </trkpt>
      <trkpt lat="43.81561" lon="7.25341">
        <ele>629</ele>
        <time>2018-05-13T13:04:33.000Z</time>
      </trkpt>
      <trkpt lat="43.81557" lon="7.2534">
        <ele>630</ele>
        <time>2018-05-13T13:04:38.000Z</time>
      </trkpt>
      <trkpt lat="43.81554" lon="7.25339">
        <ele>631</ele>
        <time>2018-05-13T13:04:41.000Z</time>
      </trkpt>
      <trkpt lat="43.81546" lon="7.25341">
        <ele>632</ele>
        <time>2018-05-13T13:04:47.000Z</time>
      </trkpt>
      <trkpt lat="43.81544" lon="7.25341">
        <ele>632</ele>
        <time>2018-05-13T13:04:49.000Z</time>
      </trkpt>
      <trkpt lat="43.81534" lon="7.25345">
        <ele>634</ele>
        <time>2018-05-13T13:04:58.000Z</time>
      </trkpt>
      <trkpt lat="43.8153" lon="7.25347">
        <ele>634</ele>
        <time>2018-05-13T13:05:01.000Z</time>
      </trkpt>
      <trkpt lat="43.81526" lon="7.2535">
        <ele>635</ele>
        <time>2018-05-13T13:05:07.000Z</time>
      </trkpt>
      <trkpt lat="43.81526" lon="7.2535">
        <ele>635</ele>
        <time>2018-05-13T13:05:10.000Z</time>
      </trkpt>
      <trkpt lat="43.81526" lon="7.25351">
        <ele>635</ele>
        <time>2018-05-13T13:05:13.000Z</time>
      </trkpt>
      <trkpt lat="43.81525" lon="7.25352">
        <ele>635</ele>
        <time>2018-05-13T13:05:14.000Z</time>
      </trkpt>
      <trkpt lat="43.81522" lon="7.25355">
        <ele>635</ele>
        <time>2018-05-13T13:05:20.000Z</time>
      </trkpt>
      <trkpt lat="43.81521" lon="7.25355">
        <ele>635</ele>
        <time>2018-05-13T13:05:21.000Z</time>
      </trkpt>
      <trkpt lat="43.81518" lon="7.25354">
        <ele>636</ele>
        <time>2018-05-13T13:05:27.000Z</time>
      </trkpt>
      <trkpt lat="43.81516" lon="7.25355">
        <ele>636</ele>
        <time>2018-05-13T13:05:30.000Z</time>
      </trkpt>
      <trkpt lat="43.81515" lon="7.25356">
        <ele>636</ele>
        <time>2018-05-13T13:05:32.000Z</time>
      </trkpt>
      <trkpt lat="43.81512" lon="7.25358">
        <ele>636</ele>
        <time>2018-05-13T13:05:37.000Z</time>
      </trkpt>
      <trkpt lat="43.81512" lon="7.25358">
        <ele>636</ele>
        <time>2018-05-13T13:05:38.000Z</time>
      </trkpt>
      <trkpt lat="43.81508" lon="7.2536">
        <ele>636</ele>
        <time>2018-05-13T13:05:45.000Z</time>
      </trkpt>
      <trkpt lat="43.81508" lon="7.25361">
        <ele>636</ele>
        <time>2018-05-13T13:05:46.000Z</time>
      </trkpt>
      <trkpt lat="43.81505" lon="7.25361">
        <ele>637</ele>
        <time>2018-05-13T13:05:51.000Z</time>
      </trkpt>
      <trkpt lat="43.81503" lon="7.25363">
        <ele>637</ele>
        <time>2018-05-13T13:05:54.000Z</time>
      </trkpt>
      <trkpt lat="43.81502" lon="7.25367">
        <ele>636</ele>
        <time>2018-05-13T13:05:58.000Z</time>
      </trkpt>
      <trkpt lat="43.815" lon="7.25369">
        <ele>637</ele>
        <time>2018-05-13T13:06:02.000Z</time>
      </trkpt>
      <trkpt lat="43.81498" lon="7.2537">
        <ele>646</ele>
        <time>2018-05-13T13:06:06.000Z</time>
      </trkpt>
      <trkpt lat="43.81496" lon="7.25372">
        <ele>646</ele>
        <time>2018-05-13T13:06:11.000Z</time>
      </trkpt>
      <trkpt lat="43.81493" lon="7.25374">
        <ele>646</ele>
        <time>2018-05-13T13:06:17.000Z</time>
      </trkpt>
      <trkpt lat="43.81493" lon="7.25374">
        <ele>646</ele>
        <time>2018-05-13T13:06:18.000Z</time>
      </trkpt>
      <trkpt lat="43.81489" lon="7.25376">
        <ele>647</ele>
        <time>2018-05-13T13:06:24.000Z</time>
      </trkpt>
      <trkpt lat="43.81489" lon="7.25377">
        <ele>647</ele>
        <time>2018-05-13T13:06:25.000Z</time>
      </trkpt>
      <trkpt lat="43.81486" lon="7.25378">
        <ele>647</ele>
        <time>2018-05-13T13:06:30.000Z</time>
      </trkpt>
      <trkpt lat="43.81483" lon="7.25379">
        <ele>647</ele>
        <time>2018-05-13T13:06:34.000Z</time>
      </trkpt>
      <trkpt lat="43.81482" lon="7.25379">
        <ele>647</ele>
        <time>2018-05-13T13:06:36.000Z</time>
      </trkpt>
      <trkpt lat="43.8148" lon="7.25381">
        <ele>647</ele>
        <time>2018-05-13T13:06:41.000Z</time>
      </trkpt>
      <trkpt lat="43.81478" lon="7.25381">
        <ele>647</ele>
        <time>2018-05-13T13:06:43.000Z</time>
      </trkpt>
      <trkpt lat="43.81473" lon="7.25383">
        <ele>647</ele>
        <time>2018-05-13T13:06:50.000Z</time>
      </trkpt>
      <trkpt lat="43.81469" lon="7.25384">
        <ele>648</ele>
        <time>2018-05-13T13:06:57.000Z</time>
      </trkpt>
      <trkpt lat="43.81464" lon="7.25387">
        <ele>648</ele>
        <time>2018-05-13T13:07:04.000Z</time>
      </trkpt>
      <trkpt lat="43.81459" lon="7.25387">
        <ele>648</ele>
        <time>2018-05-13T13:07:09.000Z</time>
      </trkpt>
      <trkpt lat="43.8146" lon="7.25388">
        <ele>648</ele>
        <time>2018-05-13T13:07:10.000Z</time>
      </trkpt>
      <trkpt lat="43.81459" lon="7.25388">
        <ele>648</ele>
        <time>2018-05-13T13:07:11.000Z</time>
      </trkpt>
      <trkpt lat="43.81456" lon="7.2539">
        <ele>649</ele>
        <time>2018-05-13T13:07:16.000Z</time>
      </trkpt>
      <trkpt lat="43.81451" lon="7.25391">
        <ele>649</ele>
        <time>2018-05-13T13:07:20.000Z</time>
      </trkpt>
      <trkpt lat="43.81448" lon="7.25393">
        <ele>650</ele>
        <time>2018-05-13T13:07:25.000Z</time>
      </trkpt>
      <trkpt lat="43.81448" lon="7.25393">
        <ele>650</ele>
        <time>2018-05-13T13:07:26.000Z</time>
      </trkpt>
      <trkpt lat="43.81442" lon="7.25397">
        <ele>650</ele>
        <time>2018-05-13T13:07:32.000Z</time>
      </trkpt>
      <trkpt lat="43.81429" lon="7.25396">
        <ele>652</ele>
        <time>2018-05-13T13:07:38.000Z</time>
      </trkpt>
      <trkpt lat="43.8141" lon="7.25395">
        <ele>653</ele>
        <time>2018-05-13T13:07:42.000Z</time>
      </trkpt>
      <trkpt lat="43.81404" lon="7.25394">
        <ele>653</ele>
        <time>2018-05-13T13:07:43.000Z</time>
      </trkpt>
      <trkpt lat="43.81391" lon="7.25391">
        <ele>652</ele>
        <time>2018-05-13T13:07:45.000Z</time>
      </trkpt>
      <trkpt lat="43.81377" lon="7.2539">
        <ele>651</ele>
        <time>2018-05-13T13:07:47.000Z</time>
      </trkpt>
      <trkpt lat="43.81363" lon="7.25388">
        <ele>651</ele>
        <time>2018-05-13T13:07:49.000Z</time>
      </trkpt>
      <trkpt lat="43.81348" lon="7.25384">
        <ele>650</ele>
        <time>2018-05-13T13:07:51.000Z</time>
      </trkpt>
      <trkpt lat="43.81341" lon="7.25381">
        <ele>650</ele>
        <time>2018-05-13T13:07:52.000Z</time>
      </trkpt>
      <trkpt lat="43.81334" lon="7.25378">
        <ele>650</ele>
        <time>2018-05-13T13:07:53.000Z</time>
      </trkpt>
      <trkpt lat="43.81316" lon="7.25374">
        <ele>651</ele>
        <time>2018-05-13T13:07:56.000Z</time>
      </trkpt>
      <trkpt lat="43.81312" lon="7.25374">
        <ele>651</ele>
        <time>2018-05-13T13:07:57.000Z</time>
      </trkpt>
      <trkpt lat="43.81304" lon="7.25373">
        <ele>652</ele>
        <time>2018-05-13T13:08:00.000Z</time>
      </trkpt>
      <trkpt lat="43.81301" lon="7.25372">
        <ele>652</ele>
        <time>2018-05-13T13:08:01.000Z</time>
      </trkpt>
      <trkpt lat="43.81299" lon="7.25371">
        <ele>652</ele>
        <time>2018-05-13T13:08:02.000Z</time>
      </trkpt>
      <trkpt lat="43.81295" lon="7.2537">
        <ele>652</ele>
        <time>2018-05-13T13:08:04.000Z</time>
      </trkpt>
      <trkpt lat="43.8129" lon="7.25368">
        <ele>653</ele>
        <time>2018-05-13T13:08:07.000Z</time>
      </trkpt>
      <trkpt lat="43.81289" lon="7.25366">
        <ele>653</ele>
        <time>2018-05-13T13:08:08.000Z</time>
      </trkpt>
      <trkpt lat="43.81288" lon="7.25366">
        <ele>653</ele>
        <time>2018-05-13T13:08:11.000Z</time>
      </trkpt>
      <trkpt lat="43.81287" lon="7.25364">
        <ele>653</ele>
        <time>2018-05-13T13:08:13.000Z</time>
      </trkpt>
      <trkpt lat="43.81282" lon="7.25362">
        <ele>653</ele>
        <time>2018-05-13T13:08:19.000Z</time>
      </trkpt>
      <trkpt lat="43.8128" lon="7.25361">
        <ele>654</ele>
        <time>2018-05-13T13:08:21.000Z</time>
      </trkpt>
      <trkpt lat="43.81278" lon="7.2536">
        <ele>654</ele>
        <time>2018-05-13T13:08:24.000Z</time>
      </trkpt>
      <trkpt lat="43.81273" lon="7.25358">
        <ele>654</ele>
        <time>2018-05-13T13:08:30.000Z</time>
      </trkpt>
      <trkpt lat="43.81268" lon="7.25358">
        <ele>655</ele>
        <time>2018-05-13T13:08:37.000Z</time>
      </trkpt>
      <trkpt lat="43.81264" lon="7.25358">
        <ele>655</ele>
        <time>2018-05-13T13:08:41.000Z</time>
      </trkpt>
      <trkpt lat="43.81264" lon="7.25358">
        <ele>655</ele>
        <time>2018-05-13T13:08:42.000Z</time>
      </trkpt>
      <trkpt lat="43.81261" lon="7.25357">
        <ele>655</ele>
        <time>2018-05-13T13:08:47.000Z</time>
      </trkpt>
      <trkpt lat="43.81258" lon="7.25356">
        <ele>656</ele>
        <time>2018-05-13T13:08:51.000Z</time>
      </trkpt>
      <trkpt lat="43.81256" lon="7.25355">
        <ele>656</ele>
        <time>2018-05-13T13:08:54.000Z</time>
      </trkpt>
      <trkpt lat="43.81254" lon="7.25349">
        <ele>657</ele>
        <time>2018-05-13T13:09:01.000Z</time>
      </trkpt>
      <trkpt lat="43.81251" lon="7.25346">
        <ele>658</ele>
        <time>2018-05-13T13:09:07.000Z</time>
      </trkpt>
      <trkpt lat="43.81251" lon="7.25345">
        <ele>658</ele>
        <time>2018-05-13T13:09:08.000Z</time>
      </trkpt>
      <trkpt lat="43.81248" lon="7.25346">
        <ele>661</ele>
        <time>2018-05-13T13:09:13.000Z</time>
      </trkpt>
      <trkpt lat="43.81246" lon="7.25347">
        <ele>661</ele>
        <time>2018-05-13T13:09:15.000Z</time>
      </trkpt>
      <trkpt lat="43.81243" lon="7.25347">
        <ele>661</ele>
        <time>2018-05-13T13:09:20.000Z</time>
      </trkpt>
      <trkpt lat="43.81241" lon="7.25346">
        <ele>661</ele>
        <time>2018-05-13T13:09:23.000Z</time>
      </trkpt>
      <trkpt lat="43.8124" lon="7.25346">
        <ele>661</ele>
        <time>2018-05-13T13:09:25.000Z</time>
      </trkpt>
      <trkpt lat="43.81237" lon="7.25345">
        <ele>661</ele>
        <time>2018-05-13T13:09:31.000Z</time>
      </trkpt>
      <trkpt lat="43.81236" lon="7.25344">
        <ele>661</ele>
        <time>2018-05-13T13:09:33.000Z</time>
      </trkpt>
      <trkpt lat="43.81233" lon="7.25342">
        <ele>662</ele>
        <time>2018-05-13T13:09:38.000Z</time>
      </trkpt>
      <trkpt lat="43.81229" lon="7.25341">
        <ele>662</ele>
        <time>2018-05-13T13:09:43.000Z</time>
      </trkpt>
      <trkpt lat="43.81225" lon="7.2534">
        <ele>662</ele>
        <time>2018-05-13T13:09:48.000Z</time>
      </trkpt>
      <trkpt lat="43.81224" lon="7.25338">
        <ele>662</ele>
        <time>2018-05-13T13:09:50.000Z</time>
      </trkpt>
      <trkpt lat="43.8122" lon="7.25335">
        <ele>663</ele>
        <time>2018-05-13T13:09:58.000Z</time>
      </trkpt>
      <trkpt lat="43.8122" lon="7.25335">
        <ele>663</ele>
        <time>2018-05-13T13:09:59.000Z</time>
      </trkpt>
      <trkpt lat="43.81215" lon="7.25334">
        <ele>663</ele>
        <time>2018-05-13T13:10:04.000Z</time>
      </trkpt>
      <trkpt lat="43.81206" lon="7.25333">
        <ele>663</ele>
        <time>2018-05-13T13:10:11.000Z</time>
      </trkpt>
      <trkpt lat="43.81204" lon="7.25333">
        <ele>664</ele>
        <time>2018-05-13T13:10:12.000Z</time>
      </trkpt>
      <trkpt lat="43.81192" lon="7.25329">
        <ele>666</ele>
        <time>2018-05-13T13:10:21.000Z</time>
      </trkpt>
      <trkpt lat="43.81181" lon="7.25325">
        <ele>669</ele>
        <time>2018-05-13T13:10:28.000Z</time>
      </trkpt>
      <trkpt lat="43.81176" lon="7.25322">
        <ele>670</ele>
        <time>2018-05-13T13:10:32.000Z</time>
      </trkpt>
      <trkpt lat="43.81173" lon="7.25321">
        <ele>670</ele>
        <time>2018-05-13T13:10:34.000Z</time>
      </trkpt>
      <trkpt lat="43.81164" lon="7.25314">
        <ele>677</ele>
        <time>2018-05-13T13:10:41.000Z</time>
      </trkpt>
      <trkpt lat="43.81154" lon="7.25308">
        <ele>677</ele>
        <time>2018-05-13T13:10:47.000Z</time>
      </trkpt>
      <trkpt lat="43.81148" lon="7.25303">
        <ele>678</ele>
        <time>2018-05-13T13:10:53.000Z</time>
      </trkpt>
      <trkpt lat="43.81147" lon="7.25302">
        <ele>678</ele>
        <time>2018-05-13T13:10:54.000Z</time>
      </trkpt>
      <trkpt lat="43.81142" lon="7.25295">
        <ele>678</ele>
        <time>2018-05-13T13:10:59.000Z</time>
      </trkpt>
      <trkpt lat="43.8114" lon="7.25295">
        <ele>678</ele>
        <time>2018-05-13T13:11:00.000Z</time>
      </trkpt>
      <trkpt lat="43.81135" lon="7.25292">
        <ele>678</ele>
        <time>2018-05-13T13:11:04.000Z</time>
      </trkpt>
      <trkpt lat="43.81132" lon="7.25292">
        <ele>678</ele>
        <time>2018-05-13T13:11:07.000Z</time>
      </trkpt>
      <trkpt lat="43.81132" lon="7.25291">
        <ele>678</ele>
        <time>2018-05-13T13:11:08.000Z</time>
      </trkpt>
      <trkpt lat="43.81127" lon="7.25292">
        <ele>679</ele>
        <time>2018-05-13T13:11:13.000Z</time>
      </trkpt>
      <trkpt lat="43.81125" lon="7.25292">
        <ele>679</ele>
        <time>2018-05-13T13:11:15.000Z</time>
      </trkpt>
      <trkpt lat="43.81119" lon="7.25288">
        <ele>680</ele>
        <time>2018-05-13T13:11:21.000Z</time>
      </trkpt>
      <trkpt lat="43.81116" lon="7.25287">
        <ele>680</ele>
        <time>2018-05-13T13:11:24.000Z</time>
      </trkpt>
      <trkpt lat="43.81115" lon="7.25285">
        <ele>680</ele>
        <time>2018-05-13T13:11:28.000Z</time>
      </trkpt>
      <trkpt lat="43.81115" lon="7.25284">
        <ele>680</ele>
        <time>2018-05-13T13:11:29.000Z</time>
      </trkpt>
      <trkpt lat="43.81111" lon="7.25279">
        <ele>681</ele>
        <time>2018-05-13T13:11:35.000Z</time>
      </trkpt>
      <trkpt lat="43.81109" lon="7.25277">
        <ele>682</ele>
        <time>2018-05-13T13:11:38.000Z</time>
      </trkpt>
      <trkpt lat="43.81107" lon="7.25274">
        <ele>682</ele>
        <time>2018-05-13T13:11:41.000Z</time>
      </trkpt>
      <trkpt lat="43.81105" lon="7.25269">
        <ele>683</ele>
        <time>2018-05-13T13:11:47.000Z</time>
      </trkpt>
      <trkpt lat="43.81104" lon="7.25269">
        <ele>684</ele>
        <time>2018-05-13T13:11:48.000Z</time>
      </trkpt>
      <trkpt lat="43.81101" lon="7.25264">
        <ele>685</ele>
        <time>2018-05-13T13:11:55.000Z</time>
      </trkpt>
      <trkpt lat="43.811" lon="7.25262">
        <ele>686</ele>
        <time>2018-05-13T13:11:58.000Z</time>
      </trkpt>
      <trkpt lat="43.81098" lon="7.25259">
        <ele>687</ele>
        <time>2018-05-13T13:12:02.000Z</time>
      </trkpt>
      <trkpt lat="43.81096" lon="7.25256">
        <ele>688</ele>
        <time>2018-05-13T13:12:06.000Z</time>
      </trkpt>
      <trkpt lat="43.81094" lon="7.25257">
        <ele>689</ele>
        <time>2018-05-13T13:12:10.000Z</time>
      </trkpt>
      <trkpt lat="43.81092" lon="7.25256">
        <ele>690</ele>
        <time>2018-05-13T13:12:12.000Z</time>
      </trkpt>
      <trkpt lat="43.81088" lon="7.25255">
        <ele>692</ele>
        <time>2018-05-13T13:12:17.000Z</time>
      </trkpt>
      <trkpt lat="43.81084" lon="7.25255">
        <ele>693</ele>
        <time>2018-05-13T13:12:22.000Z</time>
      </trkpt>
      <trkpt lat="43.81083" lon="7.25254">
        <ele>694</ele>
        <time>2018-05-13T13:12:23.000Z</time>
      </trkpt>
      <trkpt lat="43.81078" lon="7.25252">
        <ele>692</ele>
        <time>2018-05-13T13:12:30.000Z</time>
      </trkpt>
      <trkpt lat="43.81077" lon="7.25252">
        <ele>692</ele>
        <time>2018-05-13T13:12:31.000Z</time>
      </trkpt>
      <trkpt lat="43.81072" lon="7.25249">
        <ele>696</ele>
        <time>2018-05-13T13:12:36.000Z</time>
      </trkpt>
      <trkpt lat="43.81069" lon="7.25246">
        <ele>696</ele>
        <time>2018-05-13T13:12:42.000Z</time>
      </trkpt>
      <trkpt lat="43.81068" lon="7.25245">
        <ele>696</ele>
        <time>2018-05-13T13:12:43.000Z</time>
      </trkpt>
      <trkpt lat="43.81065" lon="7.25241">
        <ele>696</ele>
        <time>2018-05-13T13:12:49.000Z</time>
      </trkpt>
      <trkpt lat="43.81064" lon="7.25239">
        <ele>696</ele>
        <time>2018-05-13T13:12:50.000Z</time>
      </trkpt>
      <trkpt lat="43.81061" lon="7.25237">
        <ele>696</ele>
        <time>2018-05-13T13:12:55.000Z</time>
      </trkpt>
      <trkpt lat="43.81061" lon="7.25236">
        <ele>696</ele>
        <time>2018-05-13T13:12:56.000Z</time>
      </trkpt>
      <trkpt lat="43.81057" lon="7.25232">
        <ele>696</ele>
        <time>2018-05-13T13:13:00.000Z</time>
      </trkpt>
      <trkpt lat="43.81053" lon="7.25228">
        <ele>696</ele>
        <time>2018-05-13T13:13:03.000Z</time>
      </trkpt>
      <trkpt lat="43.81047" lon="7.25218">
        <ele>696</ele>
        <time>2018-05-13T13:13:09.000Z</time>
      </trkpt>
      <trkpt lat="43.81043" lon="7.25211">
        <ele>697</ele>
        <time>2018-05-13T13:13:13.000Z</time>
      </trkpt>
      <trkpt lat="43.81038" lon="7.25203">
        <ele>697</ele>
        <time>2018-05-13T13:13:17.000Z</time>
      </trkpt>
      <trkpt lat="43.81032" lon="7.25192">
        <ele>699</ele>
        <time>2018-05-13T13:13:22.000Z</time>
      </trkpt>
      <trkpt lat="43.81021" lon="7.2518">
        <ele>701</ele>
        <time>2018-05-13T13:13:29.000Z</time>
      </trkpt>
      <trkpt lat="43.8102" lon="7.25179">
        <ele>702</ele>
        <time>2018-05-13T13:13:30.000Z</time>
      </trkpt>
      <trkpt lat="43.81013" lon="7.25172">
        <ele>704</ele>
        <time>2018-05-13T13:13:35.000Z</time>
      </trkpt>
      <trkpt lat="43.80998" lon="7.25151">
        <ele>712</ele>
        <time>2018-05-13T13:13:43.000Z</time>
      </trkpt>
      <trkpt lat="43.80991" lon="7.25139">
        <ele>714</ele>
        <time>2018-05-13T13:13:49.000Z</time>
      </trkpt>
      <trkpt lat="43.8099" lon="7.25137">
        <ele>714</ele>
        <time>2018-05-13T13:13:50.000Z</time>
      </trkpt>
      <trkpt lat="43.80985" lon="7.2513">
        <ele>715</ele>
        <time>2018-05-13T13:13:54.000Z</time>
      </trkpt>
      <trkpt lat="43.8098" lon="7.25124">
        <ele>716</ele>
        <time>2018-05-13T13:13:59.000Z</time>
      </trkpt>
      <trkpt lat="43.80976" lon="7.25119">
        <ele>717</ele>
        <time>2018-05-13T13:14:03.000Z</time>
      </trkpt>
      <trkpt lat="43.80969" lon="7.25114">
        <ele>717</ele>
        <time>2018-05-13T13:14:08.000Z</time>
      </trkpt>
      <trkpt lat="43.80964" lon="7.25109">
        <ele>718</ele>
        <time>2018-05-13T13:14:13.000Z</time>
      </trkpt>
      <trkpt lat="43.8096" lon="7.25106">
        <ele>718</ele>
        <time>2018-05-13T13:14:16.000Z</time>
      </trkpt>
      <trkpt lat="43.80959" lon="7.25104">
        <ele>718</ele>
        <time>2018-05-13T13:14:17.000Z</time>
      </trkpt>
      <trkpt lat="43.80957" lon="7.25102">
        <ele>718</ele>
        <time>2018-05-13T13:14:20.000Z</time>
      </trkpt>
      <trkpt lat="43.80956" lon="7.25101">
        <ele>718</ele>
        <time>2018-05-13T13:14:21.000Z</time>
      </trkpt>
      <trkpt lat="43.80955" lon="7.25101">
        <ele>718</ele>
        <time>2018-05-13T13:14:22.000Z</time>
      </trkpt>
      <trkpt lat="43.8095" lon="7.25098">
        <ele>719</ele>
        <time>2018-05-13T13:14:26.000Z</time>
      </trkpt>
      <trkpt lat="43.80945" lon="7.25095">
        <ele>720</ele>
        <time>2018-05-13T13:14:30.000Z</time>
      </trkpt>
      <trkpt lat="43.80941" lon="7.25091">
        <ele>721</ele>
        <time>2018-05-13T13:14:34.000Z</time>
      </trkpt>
      <trkpt lat="43.80938" lon="7.25089">
        <ele>721</ele>
        <time>2018-05-13T13:14:36.000Z</time>
      </trkpt>
      <trkpt lat="43.8093" lon="7.25084">
        <ele>723</ele>
        <time>2018-05-13T13:14:43.000Z</time>
      </trkpt>
      <trkpt lat="43.80929" lon="7.25084">
        <ele>724</ele>
        <time>2018-05-13T13:14:44.000Z</time>
      </trkpt>
      <trkpt lat="43.80917" lon="7.25079">
        <ele>731</ele>
        <time>2018-05-13T13:14:52.000Z</time>
      </trkpt>
      <trkpt lat="43.80912" lon="7.25078">
        <ele>734</ele>
        <time>2018-05-13T13:14:55.000Z</time>
      </trkpt>
      <trkpt lat="43.80902" lon="7.25073">
        <ele>739</ele>
        <time>2018-05-13T13:15:01.000Z</time>
      </trkpt>
      <trkpt lat="43.80899" lon="7.25072">
        <ele>740</ele>
        <time>2018-05-13T13:15:03.000Z</time>
      </trkpt>
      <trkpt lat="43.80891" lon="7.25073">
        <ele>742</ele>
        <time>2018-05-13T13:15:07.000Z</time>
      </trkpt>
      <trkpt lat="43.80876" lon="7.2507">
        <ele>744</ele>
        <time>2018-05-13T13:15:14.000Z</time>
      </trkpt>
      <trkpt lat="43.80867" lon="7.25065">
        <ele>745</ele>
        <time>2018-05-13T13:15:19.000Z</time>
      </trkpt>
      <trkpt lat="43.80865" lon="7.25064">
        <ele>745</ele>
        <time>2018-05-13T13:15:20.000Z</time>
      </trkpt>
      <trkpt lat="43.80854" lon="7.25057">
        <ele>746</ele>
        <time>2018-05-13T13:15:25.000Z</time>
      </trkpt>
      <trkpt lat="43.80852" lon="7.25054">
        <ele>747</ele>
        <time>2018-05-13T13:15:27.000Z</time>
      </trkpt>
      <trkpt lat="43.80851" lon="7.25052">
        <ele>747</ele>
        <time>2018-05-13T13:15:29.000Z</time>
      </trkpt>
      <trkpt lat="43.80849" lon="7.2505">
        <ele>748</ele>
        <time>2018-05-13T13:15:31.000Z</time>
      </trkpt>
      <trkpt lat="43.80847" lon="7.25048">
        <ele>748</ele>
        <time>2018-05-13T13:15:35.000Z</time>
      </trkpt>
      <trkpt lat="43.80845" lon="7.25046">
        <ele>749</ele>
        <time>2018-05-13T13:15:37.000Z</time>
      </trkpt>
      <trkpt lat="43.80839" lon="7.25043">
        <ele>750</ele>
        <time>2018-05-13T13:15:42.000Z</time>
      </trkpt>
      <trkpt lat="43.80837" lon="7.25044">
        <ele>749</ele>
        <time>2018-05-13T13:15:43.000Z</time>
      </trkpt>
      <trkpt lat="43.80835" lon="7.25052">
        <ele>747</ele>
        <time>2018-05-13T13:15:48.000Z</time>
      </trkpt>
      <trkpt lat="43.80835" lon="7.25055">
        <ele>746</ele>
        <time>2018-05-13T13:15:50.000Z</time>
      </trkpt>
      <trkpt lat="43.80834" lon="7.25057">
        <ele>746</ele>
        <time>2018-05-13T13:15:51.000Z</time>
      </trkpt>
      <trkpt lat="43.80833" lon="7.2506">
        <ele>749</ele>
        <time>2018-05-13T13:15:53.000Z</time>
      </trkpt>
      <trkpt lat="43.80832" lon="7.25061">
        <ele>748</ele>
        <time>2018-05-13T13:15:54.000Z</time>
      </trkpt>
      <trkpt lat="43.80829" lon="7.25066">
        <ele>746</ele>
        <time>2018-05-13T13:15:58.000Z</time>
      </trkpt>
      <trkpt lat="43.80828" lon="7.25067">
        <ele>746</ele>
        <time>2018-05-13T13:15:59.000Z</time>
      </trkpt>
      <trkpt lat="43.80827" lon="7.25068">
        <ele>746</ele>
        <time>2018-05-13T13:16:00.000Z</time>
      </trkpt>
      <trkpt lat="43.80824" lon="7.25071">
        <ele>746</ele>
        <time>2018-05-13T13:16:03.000Z</time>
      </trkpt>
      <trkpt lat="43.80821" lon="7.25074">
        <ele>745</ele>
        <time>2018-05-13T13:16:06.000Z</time>
      </trkpt>
      <trkpt lat="43.8082" lon="7.25075">
        <ele>745</ele>
        <time>2018-05-13T13:16:07.000Z</time>
      </trkpt>
      <trkpt lat="43.8082" lon="7.25076">
        <ele>745</ele>
        <time>2018-05-13T13:16:08.000Z</time>
      </trkpt>
      <trkpt lat="43.80816" lon="7.2508">
        <ele>746</ele>
        <time>2018-05-13T13:16:11.000Z</time>
      </trkpt>
      <trkpt lat="43.80814" lon="7.25082">
        <ele>746</ele>
        <time>2018-05-13T13:16:13.000Z</time>
      </trkpt>
      <trkpt lat="43.8081" lon="7.25087">
        <ele>733</ele>
        <time>2018-05-13T13:16:17.000Z</time>
      </trkpt>
      <trkpt lat="43.80802" lon="7.25093">
        <ele>733</ele>
        <time>2018-05-13T13:16:24.000Z</time>
      </trkpt>
      <trkpt lat="43.808" lon="7.25095">
        <ele>733</ele>
        <time>2018-05-13T13:16:26.000Z</time>
      </trkpt>
      <trkpt lat="43.80793" lon="7.251">
        <ele>732</ele>
        <time>2018-05-13T13:16:31.000Z</time>
      </trkpt>
      <trkpt lat="43.8078" lon="7.25108">
        <ele>733</ele>
        <time>2018-05-13T13:16:37.000Z</time>
      </trkpt>
      <trkpt lat="43.80763" lon="7.2511">
        <ele>734</ele>
        <time>2018-05-13T13:16:41.000Z</time>
      </trkpt>
      <trkpt lat="43.80759" lon="7.2511">
        <ele>734</ele>
        <time>2018-05-13T13:16:42.000Z</time>
      </trkpt>
      <trkpt lat="43.80749" lon="7.2511">
        <ele>736</ele>
        <time>2018-05-13T13:16:44.000Z</time>
      </trkpt>
      <trkpt lat="43.80743" lon="7.25109">
        <ele>736</ele>
        <time>2018-05-13T13:16:45.000Z</time>
      </trkpt>
      <trkpt lat="43.80738" lon="7.25108">
        <ele>736</ele>
        <time>2018-05-13T13:16:46.000Z</time>
      </trkpt>
      <trkpt lat="43.80722" lon="7.25104">
        <ele>735</ele>
        <time>2018-05-13T13:16:49.000Z</time>
      </trkpt>
      <trkpt lat="43.80709" lon="7.25102">
        <ele>734</ele>
        <time>2018-05-13T13:16:51.000Z</time>
      </trkpt>
      <trkpt lat="43.80705" lon="7.25099">
        <ele>735</ele>
        <time>2018-05-13T13:16:52.000Z</time>
      </trkpt>
      <trkpt lat="43.80698" lon="7.25097">
        <ele>735</ele>
        <time>2018-05-13T13:16:54.000Z</time>
      </trkpt>
      <trkpt lat="43.80693" lon="7.25099">
        <ele>735</ele>
        <time>2018-05-13T13:16:55.000Z</time>
      </trkpt>
      <trkpt lat="43.80689" lon="7.251">
        <ele>735</ele>
        <time>2018-05-13T13:16:56.000Z</time>
      </trkpt>
      <trkpt lat="43.80683" lon="7.251">
        <ele>735</ele>
        <time>2018-05-13T13:16:57.000Z</time>
      </trkpt>
      <trkpt lat="43.80673" lon="7.25101">
        <ele>736</ele>
        <time>2018-05-13T13:16:59.000Z</time>
      </trkpt>
      <trkpt lat="43.80668" lon="7.25101">
        <ele>736</ele>
        <time>2018-05-13T13:17:00.000Z</time>
      </trkpt>
      <trkpt lat="43.80664" lon="7.251">
        <ele>736</ele>
        <time>2018-05-13T13:17:01.000Z</time>
      </trkpt>
      <trkpt lat="43.80661" lon="7.251">
        <ele>736</ele>
        <time>2018-05-13T13:17:02.000Z</time>
      </trkpt>
      <trkpt lat="43.80655" lon="7.25103">
        <ele>734</ele>
        <time>2018-05-13T13:17:05.000Z</time>
      </trkpt>
      <trkpt lat="43.80653" lon="7.25103">
        <ele>734</ele>
        <time>2018-05-13T13:17:06.000Z</time>
      </trkpt>
      <trkpt lat="43.80648" lon="7.25104">
        <ele>733</ele>
        <time>2018-05-13T13:17:09.000Z</time>
      </trkpt>
      <trkpt lat="43.80646" lon="7.25104">
        <ele>733</ele>
        <time>2018-05-13T13:17:10.000Z</time>
      </trkpt>
      <trkpt lat="43.80645" lon="7.25104">
        <ele>733</ele>
        <time>2018-05-13T13:17:11.000Z</time>
      </trkpt>
      <trkpt lat="43.80641" lon="7.25106">
        <ele>733</ele>
        <time>2018-05-13T13:17:15.000Z</time>
      </trkpt>
      <trkpt lat="43.80637" lon="7.25108">
        <ele>732</ele>
        <time>2018-05-13T13:17:18.000Z</time>
      </trkpt>
      <trkpt lat="43.80625" lon="7.25113">
        <ele>731</ele>
        <time>2018-05-13T13:17:23.000Z</time>
      </trkpt>
      <trkpt lat="43.80605" lon="7.25117">
        <ele>731</ele>
        <time>2018-05-13T13:17:29.000Z</time>
      </trkpt>
      <trkpt lat="43.80586" lon="7.25119">
        <ele>731</ele>
        <time>2018-05-13T13:17:34.000Z</time>
      </trkpt>
      <trkpt lat="43.80582" lon="7.25119">
        <ele>734</ele>
        <time>2018-05-13T13:17:35.000Z</time>
      </trkpt>
      <trkpt lat="43.80558" lon="7.25121">
        <ele>733</ele>
        <time>2018-05-13T13:17:40.000Z</time>
      </trkpt>
      <trkpt lat="43.80553" lon="7.25121">
        <ele>733</ele>
        <time>2018-05-13T13:17:41.000Z</time>
      </trkpt>
      <trkpt lat="43.80542" lon="7.25122">
        <ele>733</ele>
        <time>2018-05-13T13:17:43.000Z</time>
      </trkpt>
      <trkpt lat="43.80531" lon="7.25123">
        <ele>734</ele>
        <time>2018-05-13T13:17:45.000Z</time>
      </trkpt>
      <trkpt lat="43.80526" lon="7.25124">
        <ele>733</ele>
        <time>2018-05-13T13:17:46.000Z</time>
      </trkpt>
      <trkpt lat="43.80518" lon="7.25128">
        <ele>733</ele>
        <time>2018-05-13T13:17:48.000Z</time>
      </trkpt>
      <trkpt lat="43.80511" lon="7.25131">
        <ele>732</ele>
        <time>2018-05-13T13:17:50.000Z</time>
      </trkpt>
      <trkpt lat="43.80494" lon="7.25135">
        <ele>734</ele>
        <time>2018-05-13T13:17:55.000Z</time>
      </trkpt>
      <trkpt lat="43.80486" lon="7.25138">
        <ele>734</ele>
        <time>2018-05-13T13:17:58.000Z</time>
      </trkpt>
      <trkpt lat="43.80486" lon="7.25138">
        <ele>734</ele>
        <time>2018-05-13T13:17:59.000Z</time>
      </trkpt>
      <trkpt lat="43.80484" lon="7.25138">
        <ele>734</ele>
        <time>2018-05-13T13:18:02.000Z</time>
      </trkpt>
      <trkpt lat="43.80482" lon="7.25139">
        <ele>734</ele>
        <time>2018-05-13T13:18:03.000Z</time>
      </trkpt>
      <trkpt lat="43.80466" lon="7.25146">
        <ele>734</ele>
        <time>2018-05-13T13:18:10.000Z</time>
      </trkpt>
      <trkpt lat="43.80443" lon="7.25154">
        <ele>734</ele>
        <time>2018-05-13T13:18:17.000Z</time>
      </trkpt>
      <trkpt lat="43.80411" lon="7.25163">
        <ele>729</ele>
        <time>2018-05-13T13:18:24.000Z</time>
      </trkpt>
      <trkpt lat="43.80405" lon="7.25166">
        <ele>731</ele>
        <time>2018-05-13T13:18:25.000Z</time>
      </trkpt>
      <trkpt lat="43.80399" lon="7.25168">
        <ele>716</ele>
        <time>2018-05-13T13:18:26.000Z</time>
      </trkpt>
      <trkpt lat="43.80393" lon="7.25169">
        <ele>715</ele>
        <time>2018-05-13T13:18:27.000Z</time>
      </trkpt>
      <trkpt lat="43.80385" lon="7.25169">
        <ele>713</ele>
        <time>2018-05-13T13:18:29.000Z</time>
      </trkpt>
      <trkpt lat="43.8038" lon="7.25171">
        <ele>712</ele>
        <time>2018-05-13T13:18:30.000Z</time>
      </trkpt>
      <trkpt lat="43.80375" lon="7.25172">
        <ele>712</ele>
        <time>2018-05-13T13:18:31.000Z</time>
      </trkpt>
      <trkpt lat="43.8037" lon="7.25172">
        <ele>711</ele>
        <time>2018-05-13T13:18:32.000Z</time>
      </trkpt>
      <trkpt lat="43.80364" lon="7.25172">
        <ele>711</ele>
        <time>2018-05-13T13:18:33.000Z</time>
      </trkpt>
      <trkpt lat="43.80359" lon="7.25173">
        <ele>711</ele>
        <time>2018-05-13T13:18:34.000Z</time>
      </trkpt>
      <trkpt lat="43.80353" lon="7.25172">
        <ele>712</ele>
        <time>2018-05-13T13:18:35.000Z</time>
      </trkpt>
      <trkpt lat="43.80347" lon="7.25172">
        <ele>713</ele>
        <time>2018-05-13T13:18:36.000Z</time>
      </trkpt>
      <trkpt lat="43.80341" lon="7.25171">
        <ele>714</ele>
        <time>2018-05-13T13:18:37.000Z</time>
      </trkpt>
      <trkpt lat="43.80335" lon="7.2517">
        <ele>716</ele>
        <time>2018-05-13T13:18:38.000Z</time>
      </trkpt>
      <trkpt lat="43.80323" lon="7.25169">
        <ele>709</ele>
        <time>2018-05-13T13:18:40.000Z</time>
      </trkpt>
      <trkpt lat="43.80316" lon="7.25167">
        <ele>705</ele>
        <time>2018-05-13T13:18:41.000Z</time>
      </trkpt>
      <trkpt lat="43.8031" lon="7.25164">
        <ele>720</ele>
        <time>2018-05-13T13:18:42.000Z</time>
      </trkpt>
      <trkpt lat="43.80299" lon="7.25158">
        <ele>719</ele>
        <time>2018-05-13T13:18:44.000Z</time>
      </trkpt>
      <trkpt lat="43.80294" lon="7.25156">
        <ele>719</ele>
        <time>2018-05-13T13:18:45.000Z</time>
      </trkpt>
      <trkpt lat="43.80284" lon="7.2515">
        <ele>718</ele>
        <time>2018-05-13T13:18:47.000Z</time>
      </trkpt>
      <trkpt lat="43.80271" lon="7.25138">
        <ele>717</ele>
        <time>2018-05-13T13:18:50.000Z</time>
      </trkpt>
      <trkpt lat="43.80269" lon="7.25134">
        <ele>718</ele>
        <time>2018-05-13T13:18:51.000Z</time>
      </trkpt>
      <trkpt lat="43.80264" lon="7.25125">
        <ele>720</ele>
        <time>2018-05-13T13:18:56.000Z</time>
      </trkpt>
      <trkpt lat="43.80262" lon="7.25124">
        <ele>720</ele>
        <time>2018-05-13T13:18:57.000Z</time>
      </trkpt>
      <trkpt lat="43.8026" lon="7.25122">
        <ele>720</ele>
        <time>2018-05-13T13:18:58.000Z</time>
      </trkpt>
      <trkpt lat="43.80247" lon="7.25108">
        <ele>706</ele>
        <time>2018-05-13T13:19:02.000Z</time>
      </trkpt>
      <trkpt lat="43.80236" lon="7.25097">
        <ele>708</ele>
        <time>2018-05-13T13:19:05.000Z</time>
      </trkpt>
      <trkpt lat="43.8023" lon="7.25088">
        <ele>708</ele>
        <time>2018-05-13T13:19:07.000Z</time>
      </trkpt>
      <trkpt lat="43.80227" lon="7.25084">
        <ele>707</ele>
        <time>2018-05-13T13:19:08.000Z</time>
      </trkpt>
      <trkpt lat="43.80221" lon="7.25076">
        <ele>717</ele>
        <time>2018-05-13T13:19:10.000Z</time>
      </trkpt>
      <trkpt lat="43.80218" lon="7.2507">
        <ele>717</ele>
        <time>2018-05-13T13:19:11.000Z</time>
      </trkpt>
      <trkpt lat="43.80212" lon="7.25055">
        <ele>716</ele>
        <time>2018-05-13T13:19:14.000Z</time>
      </trkpt>
      <trkpt lat="43.802" lon="7.25023">
        <ele>717</ele>
        <time>2018-05-13T13:19:21.000Z</time>
      </trkpt>
      <trkpt lat="43.80192" lon="7.25015">
        <ele>715</ele>
        <time>2018-05-13T13:19:24.000Z</time>
      </trkpt>
      <trkpt lat="43.80184" lon="7.25004">
        <ele>712</ele>
        <time>2018-05-13T13:19:26.000Z</time>
      </trkpt>
      <trkpt lat="43.80179" lon="7.24999">
        <ele>718</ele>
        <time>2018-05-13T13:19:27.000Z</time>
      </trkpt>
      <trkpt lat="43.80175" lon="7.24994">
        <ele>717</ele>
        <time>2018-05-13T13:19:28.000Z</time>
      </trkpt>
      <trkpt lat="43.80171" lon="7.24989">
        <ele>717</ele>
        <time>2018-05-13T13:19:29.000Z</time>
      </trkpt>
      <trkpt lat="43.80166" lon="7.24984">
        <ele>705</ele>
        <time>2018-05-13T13:19:31.000Z</time>
      </trkpt>
      <trkpt lat="43.80162" lon="7.24982">
        <ele>704</ele>
        <time>2018-05-13T13:19:33.000Z</time>
      </trkpt>
      <trkpt lat="43.80153" lon="7.2498">
        <ele>704</ele>
        <time>2018-05-13T13:19:36.000Z</time>
      </trkpt>
      <trkpt lat="43.80149" lon="7.24979">
        <ele>703</ele>
        <time>2018-05-13T13:19:37.000Z</time>
      </trkpt>
      <trkpt lat="43.80142" lon="7.24981">
        <ele>702</ele>
        <time>2018-05-13T13:19:39.000Z</time>
      </trkpt>
      <trkpt lat="43.80135" lon="7.24979">
        <ele>701</ele>
        <time>2018-05-13T13:19:41.000Z</time>
      </trkpt>
      <trkpt lat="43.80124" lon="7.24971">
        <ele>700</ele>
        <time>2018-05-13T13:19:45.000Z</time>
      </trkpt>
      <trkpt lat="43.80123" lon="7.24967">
        <ele>700</ele>
        <time>2018-05-13T13:19:46.000Z</time>
      </trkpt>
      <trkpt lat="43.80118" lon="7.24958">
        <ele>700</ele>
        <time>2018-05-13T13:19:50.000Z</time>
      </trkpt>
      <trkpt lat="43.80115" lon="7.24954">
        <ele>700</ele>
        <time>2018-05-13T13:19:51.000Z</time>
      </trkpt>
      <trkpt lat="43.80112" lon="7.24945">
        <ele>700</ele>
        <time>2018-05-13T13:19:53.000Z</time>
      </trkpt>
      <trkpt lat="43.80107" lon="7.24934">
        <ele>699</ele>
        <time>2018-05-13T13:19:55.000Z</time>
      </trkpt>
      <trkpt lat="43.80096" lon="7.2492">
        <ele>697</ele>
        <time>2018-05-13T13:19:58.000Z</time>
      </trkpt>
      <trkpt lat="43.80093" lon="7.24916">
        <ele>700</ele>
        <time>2018-05-13T13:19:59.000Z</time>
      </trkpt>
      <trkpt lat="43.80091" lon="7.24911">
        <ele>701</ele>
        <time>2018-05-13T13:20:00.000Z</time>
      </trkpt>
      <trkpt lat="43.80088" lon="7.24902">
        <ele>703</ele>
        <time>2018-05-13T13:20:02.000Z</time>
      </trkpt>
      <trkpt lat="43.80084" lon="7.24887">
        <ele>708</ele>
        <time>2018-05-13T13:20:05.000Z</time>
      </trkpt>
      <trkpt lat="43.80081" lon="7.2488">
        <ele>682</ele>
        <time>2018-05-13T13:20:06.000Z</time>
      </trkpt>
      <trkpt lat="43.80076" lon="7.24862">
        <ele>683</ele>
        <time>2018-05-13T13:20:08.000Z</time>
      </trkpt>
      <trkpt lat="43.80074" lon="7.24854">
        <ele>685</ele>
        <time>2018-05-13T13:20:09.000Z</time>
      </trkpt>
      <trkpt lat="43.80074" lon="7.24847">
        <ele>688</ele>
        <time>2018-05-13T13:20:10.000Z</time>
      </trkpt>
      <trkpt lat="43.80075" lon="7.24835">
        <ele>693</ele>
        <time>2018-05-13T13:20:12.000Z</time>
      </trkpt>
      <trkpt lat="43.80077" lon="7.24823">
        <ele>693</ele>
        <time>2018-05-13T13:20:14.000Z</time>
      </trkpt>
      <trkpt lat="43.80079" lon="7.24817">
        <ele>691</ele>
        <time>2018-05-13T13:20:15.000Z</time>
      </trkpt>
      <trkpt lat="43.80078" lon="7.24811">
        <ele>690</ele>
        <time>2018-05-13T13:20:16.000Z</time>
      </trkpt>
      <trkpt lat="43.80077" lon="7.24803">
        <ele>688</ele>
        <time>2018-05-13T13:20:18.000Z</time>
      </trkpt>
      <trkpt lat="43.80076" lon="7.248">
        <ele>688</ele>
        <time>2018-05-13T13:20:19.000Z</time>
      </trkpt>
      <trkpt lat="43.80073" lon="7.24784">
        <ele>688</ele>
        <time>2018-05-13T13:20:22.000Z</time>
      </trkpt>
      <trkpt lat="43.80072" lon="7.24779">
        <ele>688</ele>
        <time>2018-05-13T13:20:23.000Z</time>
      </trkpt>
      <trkpt lat="43.8007" lon="7.24768">
        <ele>690</ele>
        <time>2018-05-13T13:20:25.000Z</time>
      </trkpt>
      <trkpt lat="43.8007" lon="7.2476">
        <ele>692</ele>
        <time>2018-05-13T13:20:27.000Z</time>
      </trkpt>
      <trkpt lat="43.80068" lon="7.24754">
        <ele>693</ele>
        <time>2018-05-13T13:20:29.000Z</time>
      </trkpt>
      <trkpt lat="43.80066" lon="7.24748">
        <ele>697</ele>
        <time>2018-05-13T13:20:30.000Z</time>
      </trkpt>
      <trkpt lat="43.80065" lon="7.24742">
        <ele>697</ele>
        <time>2018-05-13T13:20:31.000Z</time>
      </trkpt>
      <trkpt lat="43.80061" lon="7.24722">
        <ele>695</ele>
        <time>2018-05-13T13:20:34.000Z</time>
      </trkpt>
      <trkpt lat="43.80058" lon="7.24716">
        <ele>695</ele>
        <time>2018-05-13T13:20:35.000Z</time>
      </trkpt>
      <trkpt lat="43.80052" lon="7.24704">
        <ele>695</ele>
        <time>2018-05-13T13:20:37.000Z</time>
      </trkpt>
      <trkpt lat="43.80048" lon="7.24698">
        <ele>695</ele>
        <time>2018-05-13T13:20:38.000Z</time>
      </trkpt>
      <trkpt lat="43.80046" lon="7.24691">
        <ele>695</ele>
        <time>2018-05-13T13:20:39.000Z</time>
      </trkpt>
      <trkpt lat="43.80044" lon="7.24684">
        <ele>695</ele>
        <time>2018-05-13T13:20:40.000Z</time>
      </trkpt>
      <trkpt lat="43.80043" lon="7.24677">
        <ele>696</ele>
        <time>2018-05-13T13:20:41.000Z</time>
      </trkpt>
      <trkpt lat="43.8004" lon="7.24673">
        <ele>695</ele>
        <time>2018-05-13T13:20:42.000Z</time>
      </trkpt>
      <trkpt lat="43.80035" lon="7.24671">
        <ele>694</ele>
        <time>2018-05-13T13:20:44.000Z</time>
      </trkpt>
      <trkpt lat="43.80025" lon="7.2468">
        <ele>692</ele>
        <time>2018-05-13T13:20:48.000Z</time>
      </trkpt>
      <trkpt lat="43.80022" lon="7.2468">
        <ele>692</ele>
        <time>2018-05-13T13:20:51.000Z</time>
      </trkpt>
      <trkpt lat="43.80022" lon="7.2468">
        <ele>692</ele>
        <time>2018-05-13T13:20:52.000Z</time>
      </trkpt>
      <trkpt lat="43.80021" lon="7.2468">
        <ele>692</ele>
        <time>2018-05-13T13:20:56.000Z</time>
      </trkpt>
      <trkpt lat="43.8002" lon="7.24679">
        <ele>691</ele>
        <time>2018-05-13T13:20:58.000Z</time>
      </trkpt>
      <trkpt lat="43.80017" lon="7.24676">
        <ele>691</ele>
        <time>2018-05-13T13:21:03.000Z</time>
      </trkpt>
      <trkpt lat="43.80016" lon="7.24676">
        <ele>691</ele>
        <time>2018-05-13T13:21:04.000Z</time>
      </trkpt>
      <trkpt lat="43.80015" lon="7.24677">
        <ele>691</ele>
        <time>2018-05-13T13:21:06.000Z</time>
      </trkpt>
      <trkpt lat="43.80011" lon="7.24678">
        <ele>690</ele>
        <time>2018-05-13T13:21:10.000Z</time>
      </trkpt>
      <trkpt lat="43.8001" lon="7.24679">
        <ele>690</ele>
        <time>2018-05-13T13:21:12.000Z</time>
      </trkpt>
      <trkpt lat="43.80007" lon="7.24681">
        <ele>690</ele>
        <time>2018-05-13T13:21:16.000Z</time>
      </trkpt>
      <trkpt lat="43.80003" lon="7.24683">
        <ele>690</ele>
        <time>2018-05-13T13:21:21.000Z</time>
      </trkpt>
      <trkpt lat="43.80001" lon="7.24685">
        <ele>690</ele>
        <time>2018-05-13T13:21:23.000Z</time>
      </trkpt>
      <trkpt lat="43.79998" lon="7.24686">
        <ele>686</ele>
        <time>2018-05-13T13:21:27.000Z</time>
      </trkpt>
      <trkpt lat="43.79993" lon="7.24687">
        <ele>686</ele>
        <time>2018-05-13T13:21:32.000Z</time>
      </trkpt>
      <trkpt lat="43.79989" lon="7.24686">
        <ele>686</ele>
        <time>2018-05-13T13:21:36.000Z</time>
      </trkpt>
      <trkpt lat="43.79985" lon="7.24687">
        <ele>686</ele>
        <time>2018-05-13T13:21:39.000Z</time>
      </trkpt>
      <trkpt lat="43.79977" lon="7.24687">
        <ele>686</ele>
        <time>2018-05-13T13:21:47.000Z</time>
      </trkpt>
      <trkpt lat="43.79975" lon="7.24687">
        <ele>686</ele>
        <time>2018-05-13T13:21:49.000Z</time>
      </trkpt>
      <trkpt lat="43.79968" lon="7.2469">
        <ele>686</ele>
        <time>2018-05-13T13:21:55.000Z</time>
      </trkpt>
      <trkpt lat="43.79962" lon="7.24691">
        <ele>686</ele>
        <time>2018-05-13T13:22:01.000Z</time>
      </trkpt>
      <trkpt lat="43.79961" lon="7.24692">
        <ele>686</ele>
        <time>2018-05-13T13:22:02.000Z</time>
      </trkpt>
      <trkpt lat="43.79951" lon="7.24696">
        <ele>687</ele>
        <time>2018-05-13T13:22:12.000Z</time>
      </trkpt>
      <trkpt lat="43.7995" lon="7.24696">
        <ele>687</ele>
        <time>2018-05-13T13:22:13.000Z</time>
      </trkpt>
      <trkpt lat="43.79943" lon="7.24698">
        <ele>687</ele>
        <time>2018-05-13T13:22:21.000Z</time>
      </trkpt>
      <trkpt lat="43.79934" lon="7.24701">
        <ele>687</ele>
        <time>2018-05-13T13:22:31.000Z</time>
      </trkpt>
      <trkpt lat="43.79933" lon="7.24701">
        <ele>687</ele>
        <time>2018-05-13T13:22:32.000Z</time>
      </trkpt>
      <trkpt lat="43.79926" lon="7.24703">
        <ele>687</ele>
        <time>2018-05-13T13:22:40.000Z</time>
      </trkpt>
      <trkpt lat="43.79923" lon="7.24704">
        <ele>687</ele>
        <time>2018-05-13T13:22:43.000Z</time>
      </trkpt>
      <trkpt lat="43.79919" lon="7.24706">
        <ele>687</ele>
        <time>2018-05-13T13:22:47.000Z</time>
      </trkpt>
      <trkpt lat="43.79915" lon="7.24707">
        <ele>698</ele>
        <time>2018-05-13T13:22:51.000Z</time>
      </trkpt>
      <trkpt lat="43.79913" lon="7.24707">
        <ele>698</ele>
        <time>2018-05-13T13:22:53.000Z</time>
      </trkpt>
      <trkpt lat="43.7991" lon="7.24708">
        <ele>698</ele>
        <time>2018-05-13T13:22:56.000Z</time>
      </trkpt>
      <trkpt lat="43.799" lon="7.24711">
        <ele>698</ele>
        <time>2018-05-13T13:23:04.000Z</time>
      </trkpt>
      <trkpt lat="43.79897" lon="7.24712">
        <ele>698</ele>
        <time>2018-05-13T13:23:07.000Z</time>
      </trkpt>
      <trkpt lat="43.79893" lon="7.24714">
        <ele>699</ele>
        <time>2018-05-13T13:23:12.000Z</time>
      </trkpt>
      <trkpt lat="43.79891" lon="7.24714">
        <ele>699</ele>
        <time>2018-05-13T13:23:14.000Z</time>
      </trkpt>
      <trkpt lat="43.79882" lon="7.24716">
        <ele>700</ele>
        <time>2018-05-13T13:23:23.000Z</time>
      </trkpt>
      <trkpt lat="43.7988" lon="7.24716">
        <ele>700</ele>
        <time>2018-05-13T13:23:25.000Z</time>
      </trkpt>
      <trkpt lat="43.79873" lon="7.24719">
        <ele>701</ele>
        <time>2018-05-13T13:23:32.000Z</time>
      </trkpt>
      <trkpt lat="43.79872" lon="7.24719">
        <ele>701</ele>
        <time>2018-05-13T13:23:33.000Z</time>
      </trkpt>
      <trkpt lat="43.79863" lon="7.24724">
        <ele>701</ele>
        <time>2018-05-13T13:23:42.000Z</time>
      </trkpt>
      <trkpt lat="43.79855" lon="7.24731">
        <ele>701</ele>
        <time>2018-05-13T13:23:50.000Z</time>
      </trkpt>
      <trkpt lat="43.79848" lon="7.24734">
        <ele>701</ele>
        <time>2018-05-13T13:23:57.000Z</time>
      </trkpt>
      <trkpt lat="43.79846" lon="7.24735">
        <ele>701</ele>
        <time>2018-05-13T13:23:59.000Z</time>
      </trkpt>
      <trkpt lat="43.79839" lon="7.24741">
        <ele>701</ele>
        <time>2018-05-13T13:24:06.000Z</time>
      </trkpt>
      <trkpt lat="43.79838" lon="7.24742">
        <ele>701</ele>
        <time>2018-05-13T13:24:07.000Z</time>
      </trkpt>
      <trkpt lat="43.79829" lon="7.24749">
        <ele>704</ele>
        <time>2018-05-13T13:24:16.000Z</time>
      </trkpt>
      <trkpt lat="43.79828" lon="7.2475">
        <ele>705</ele>
        <time>2018-05-13T13:24:17.000Z</time>
      </trkpt>
      <trkpt lat="43.79822" lon="7.24756">
        <ele>698</ele>
        <time>2018-05-13T13:24:25.000Z</time>
      </trkpt>
      <trkpt lat="43.79821" lon="7.24756">
        <ele>698</ele>
        <time>2018-05-13T13:24:26.000Z</time>
      </trkpt>
      <trkpt lat="43.79817" lon="7.24757">
        <ele>698</ele>
        <time>2018-05-13T13:24:32.000Z</time>
      </trkpt>
      <trkpt lat="43.79816" lon="7.24757">
        <ele>698</ele>
        <time>2018-05-13T13:24:33.000Z</time>
      </trkpt>
      <trkpt lat="43.79811" lon="7.24756">
        <ele>698</ele>
        <time>2018-05-13T13:24:39.000Z</time>
      </trkpt>
      <trkpt lat="43.79811" lon="7.24756">
        <ele>698</ele>
        <time>2018-05-13T13:24:41.000Z</time>
      </trkpt>
      <trkpt lat="43.79809" lon="7.24758">
        <ele>698</ele>
        <time>2018-05-13T13:24:50.000Z</time>
      </trkpt>
      <trkpt lat="43.79808" lon="7.24759">
        <ele>698</ele>
        <time>2018-05-13T13:24:51.000Z</time>
      </trkpt>
      <trkpt lat="43.79795" lon="7.24769">
        <ele>697</ele>
        <time>2018-05-13T13:24:57.000Z</time>
      </trkpt>
      <trkpt lat="43.79767" lon="7.24786">
        <ele>698</ele>
        <time>2018-05-13T13:25:06.000Z</time>
      </trkpt>
      <trkpt lat="43.79758" lon="7.2479">
        <ele>698</ele>
        <time>2018-05-13T13:25:08.000Z</time>
      </trkpt>
      <trkpt lat="43.79741" lon="7.24798">
        <ele>708</ele>
        <time>2018-05-13T13:25:11.000Z</time>
      </trkpt>
      <trkpt lat="43.7973" lon="7.24806">
        <ele>708</ele>
        <time>2018-05-13T13:25:13.000Z</time>
      </trkpt>
      <trkpt lat="43.79718" lon="7.24816">
        <ele>708</ele>
        <time>2018-05-13T13:25:15.000Z</time>
      </trkpt>
      <trkpt lat="43.79709" lon="7.24826">
        <ele>708</ele>
        <time>2018-05-13T13:25:17.000Z</time>
      </trkpt>
      <trkpt lat="43.79704" lon="7.24831">
        <ele>708</ele>
        <time>2018-05-13T13:25:18.000Z</time>
      </trkpt>
      <trkpt lat="43.79694" lon="7.24844">
        <ele>691</ele>
        <time>2018-05-13T13:25:20.000Z</time>
      </trkpt>
      <trkpt lat="43.79688" lon="7.24851">
        <ele>691</ele>
        <time>2018-05-13T13:25:21.000Z</time>
      </trkpt>
      <trkpt lat="43.79678" lon="7.24863">
        <ele>689</ele>
        <time>2018-05-13T13:25:23.000Z</time>
      </trkpt>
      <trkpt lat="43.79669" lon="7.24874">
        <ele>686</ele>
        <time>2018-05-13T13:25:25.000Z</time>
      </trkpt>
      <trkpt lat="43.79663" lon="7.24878">
        <ele>693</ele>
        <time>2018-05-13T13:25:26.000Z</time>
      </trkpt>
      <trkpt lat="43.79658" lon="7.24884">
        <ele>691</ele>
        <time>2018-05-13T13:25:27.000Z</time>
      </trkpt>
      <trkpt lat="43.79646" lon="7.24894">
        <ele>690</ele>
        <time>2018-05-13T13:25:29.000Z</time>
      </trkpt>
      <trkpt lat="43.79639" lon="7.24898">
        <ele>690</ele>
        <time>2018-05-13T13:25:30.000Z</time>
      </trkpt>
      <trkpt lat="43.79633" lon="7.249">
        <ele>690</ele>
        <time>2018-05-13T13:25:31.000Z</time>
      </trkpt>
      <trkpt lat="43.79617" lon="7.24903">
        <ele>690</ele>
        <time>2018-05-13T13:25:33.000Z</time>
      </trkpt>
      <trkpt lat="43.79601" lon="7.24904">
        <ele>688</ele>
        <time>2018-05-13T13:25:35.000Z</time>
      </trkpt>
      <trkpt lat="43.79594" lon="7.24905">
        <ele>687</ele>
        <time>2018-05-13T13:25:36.000Z</time>
      </trkpt>
      <trkpt lat="43.79586" lon="7.24905">
        <ele>686</ele>
        <time>2018-05-13T13:25:37.000Z</time>
      </trkpt>
      <trkpt lat="43.79569" lon="7.24905">
        <ele>686</ele>
        <time>2018-05-13T13:25:39.000Z</time>
      </trkpt>
      <trkpt lat="43.79552" lon="7.24903">
        <ele>687</ele>
        <time>2018-05-13T13:25:41.000Z</time>
      </trkpt>
      <trkpt lat="43.79544" lon="7.24903">
        <ele>687</ele>
        <time>2018-05-13T13:25:42.000Z</time>
      </trkpt>
      <trkpt lat="43.79536" lon="7.24902">
        <ele>686</ele>
        <time>2018-05-13T13:25:43.000Z</time>
      </trkpt>
      <trkpt lat="43.79504" lon="7.24897">
        <ele>682</ele>
        <time>2018-05-13T13:25:47.000Z</time>
      </trkpt>
      <trkpt lat="43.79488" lon="7.24892">
        <ele>676</ele>
        <time>2018-05-13T13:25:49.000Z</time>
      </trkpt>
      <trkpt lat="43.79472" lon="7.24885">
        <ele>677</ele>
        <time>2018-05-13T13:25:51.000Z</time>
      </trkpt>
      <trkpt lat="43.7944" lon="7.24871">
        <ele>676</ele>
        <time>2018-05-13T13:25:55.000Z</time>
      </trkpt>
      <trkpt lat="43.79403" lon="7.24851">
        <ele>671</ele>
        <time>2018-05-13T13:26:00.000Z</time>
      </trkpt>
      <trkpt lat="43.79396" lon="7.24848">
        <ele>670</ele>
        <time>2018-05-13T13:26:01.000Z</time>
      </trkpt>
      <trkpt lat="43.79368" lon="7.2484">
        <ele>666</ele>
        <time>2018-05-13T13:26:06.000Z</time>
      </trkpt>
      <trkpt lat="43.79362" lon="7.24838">
        <ele>666</ele>
        <time>2018-05-13T13:26:09.000Z</time>
      </trkpt>
      <trkpt lat="43.7936" lon="7.24837">
        <ele>666</ele>
        <time>2018-05-13T13:26:10.000Z</time>
      </trkpt>
      <trkpt lat="43.79352" lon="7.24838">
        <ele>666</ele>
        <time>2018-05-13T13:26:14.000Z</time>
      </trkpt>
      <trkpt lat="43.79349" lon="7.24838">
        <ele>666</ele>
        <time>2018-05-13T13:26:15.000Z</time>
      </trkpt>
      <trkpt lat="43.79343" lon="7.24838">
        <ele>667</ele>
        <time>2018-05-13T13:26:17.000Z</time>
      </trkpt>
      <trkpt lat="43.79333" lon="7.24836">
        <ele>668</ele>
        <time>2018-05-13T13:26:20.000Z</time>
      </trkpt>
      <trkpt lat="43.79328" lon="7.24835">
        <ele>666</ele>
        <time>2018-05-13T13:26:21.000Z</time>
      </trkpt>
      <trkpt lat="43.79317" lon="7.2483">
        <ele>668</ele>
        <time>2018-05-13T13:26:23.000Z</time>
      </trkpt>
      <trkpt lat="43.79311" lon="7.24826">
        <ele>668</ele>
        <time>2018-05-13T13:26:24.000Z</time>
      </trkpt>
      <trkpt lat="43.79306" lon="7.24822">
        <ele>667</ele>
        <time>2018-05-13T13:26:25.000Z</time>
      </trkpt>
      <trkpt lat="43.79296" lon="7.24814">
        <ele>667</ele>
        <time>2018-05-13T13:26:27.000Z</time>
      </trkpt>
      <trkpt lat="43.79287" lon="7.2481">
        <ele>666</ele>
        <time>2018-05-13T13:26:29.000Z</time>
      </trkpt>
      <trkpt lat="43.79284" lon="7.24807">
        <ele>666</ele>
        <time>2018-05-13T13:26:30.000Z</time>
      </trkpt>
      <trkpt lat="43.79275" lon="7.24811">
        <ele>665</ele>
        <time>2018-05-13T13:26:33.000Z</time>
      </trkpt>
      <trkpt lat="43.79264" lon="7.24821">
        <ele>664</ele>
        <time>2018-05-13T13:26:37.000Z</time>
      </trkpt>
      <trkpt lat="43.79261" lon="7.24823">
        <ele>663</ele>
        <time>2018-05-13T13:26:38.000Z</time>
      </trkpt>
      <trkpt lat="43.7925" lon="7.24826">
        <ele>662</ele>
        <time>2018-05-13T13:26:41.000Z</time>
      </trkpt>
      <trkpt lat="43.79243" lon="7.24831">
        <ele>661</ele>
        <time>2018-05-13T13:26:43.000Z</time>
      </trkpt>
      <trkpt lat="43.7923" lon="7.24847">
        <ele>660</ele>
        <time>2018-05-13T13:26:47.000Z</time>
      </trkpt>
      <trkpt lat="43.79227" lon="7.24852">
        <ele>660</ele>
        <time>2018-05-13T13:26:48.000Z</time>
      </trkpt>
      <trkpt lat="43.79225" lon="7.24856">
        <ele>660</ele>
        <time>2018-05-13T13:26:49.000Z</time>
      </trkpt>
      <trkpt lat="43.79215" lon="7.24866">
        <ele>660</ele>
        <time>2018-05-13T13:26:53.000Z</time>
      </trkpt>
      <trkpt lat="43.79202" lon="7.2488">
        <ele>660</ele>
        <time>2018-05-13T13:26:59.000Z</time>
      </trkpt>
      <trkpt lat="43.79201" lon="7.24882">
        <ele>660</ele>
        <time>2018-05-13T13:27:00.000Z</time>
      </trkpt>
      <trkpt lat="43.79201" lon="7.24883">
        <ele>660</ele>
        <time>2018-05-13T13:27:01.000Z</time>
      </trkpt>
      <trkpt lat="43.79201" lon="7.24889">
        <ele>660</ele>
        <time>2018-05-13T13:27:03.000Z</time>
      </trkpt>
      <trkpt lat="43.79202" lon="7.2489">
        <ele>659</ele>
        <time>2018-05-13T13:27:05.000Z</time>
      </trkpt>
      <trkpt lat="43.79203" lon="7.24895">
        <ele>659</ele>
        <time>2018-05-13T13:27:07.000Z</time>
      </trkpt>
      <trkpt lat="43.79204" lon="7.24899">
        <ele>659</ele>
        <time>2018-05-13T13:27:09.000Z</time>
      </trkpt>
      <trkpt lat="43.79204" lon="7.249">
        <ele>659</ele>
        <time>2018-05-13T13:27:10.000Z</time>
      </trkpt>
      <trkpt lat="43.79204" lon="7.24906">
        <ele>659</ele>
        <time>2018-05-13T13:27:13.000Z</time>
      </trkpt>
      <trkpt lat="43.79203" lon="7.2491">
        <ele>659</ele>
        <time>2018-05-13T13:27:15.000Z</time>
      </trkpt>
      <trkpt lat="43.79202" lon="7.24912">
        <ele>659</ele>
        <time>2018-05-13T13:27:17.000Z</time>
      </trkpt>
      <trkpt lat="43.79201" lon="7.24916">
        <ele>659</ele>
        <time>2018-05-13T13:27:19.000Z</time>
      </trkpt>
      <trkpt lat="43.792" lon="7.24917">
        <ele>649</ele>
        <time>2018-05-13T13:27:20.000Z</time>
      </trkpt>
      <trkpt lat="43.79199" lon="7.2492">
        <ele>649</ele>
        <time>2018-05-13T13:27:24.000Z</time>
      </trkpt>
      <trkpt lat="43.79198" lon="7.24921">
        <ele>649</ele>
        <time>2018-05-13T13:27:26.000Z</time>
      </trkpt>
      <trkpt lat="43.79198" lon="7.24924">
        <ele>649</ele>
        <time>2018-05-13T13:27:30.000Z</time>
      </trkpt>
      <trkpt lat="43.79198" lon="7.24926">
        <ele>649</ele>
        <time>2018-05-13T13:27:32.000Z</time>
      </trkpt>
      <trkpt lat="43.79199" lon="7.24928">
        <ele>649</ele>
        <time>2018-05-13T13:27:35.000Z</time>
      </trkpt>
      <trkpt lat="43.792" lon="7.24929">
        <ele>648</ele>
        <time>2018-05-13T13:27:37.000Z</time>
      </trkpt>
      <trkpt lat="43.79201" lon="7.2493">
        <ele>648</ele>
        <time>2018-05-13T13:27:39.000Z</time>
      </trkpt>
      <trkpt lat="43.79204" lon="7.2493">
        <ele>647</ele>
        <time>2018-05-13T13:27:43.000Z</time>
      </trkpt>
      <trkpt lat="43.79204" lon="7.2493">
        <ele>647</ele>
        <time>2018-05-13T13:27:44.000Z</time>
      </trkpt>
      <trkpt lat="43.79205" lon="7.24931">
        <ele>647</ele>
        <time>2018-05-13T13:27:45.000Z</time>
      </trkpt>
      <trkpt lat="43.79208" lon="7.24932">
        <ele>647</ele>
        <time>2018-05-13T13:27:48.000Z</time>
      </trkpt>
      <trkpt lat="43.79212" lon="7.24931">
        <ele>646</ele>
        <time>2018-05-13T13:27:51.000Z</time>
      </trkpt>
      <trkpt lat="43.79215" lon="7.2493">
        <ele>646</ele>
        <time>2018-05-13T13:27:55.000Z</time>
      </trkpt>
      <trkpt lat="43.79216" lon="7.2493">
        <ele>646</ele>
        <time>2018-05-13T13:27:56.000Z</time>
      </trkpt>
      <trkpt lat="43.79217" lon="7.24931">
        <ele>645</ele>
        <time>2018-05-13T13:27:59.000Z</time>
      </trkpt>
      <trkpt lat="43.79217" lon="7.24932">
        <ele>645</ele>
        <time>2018-05-13T13:28:01.000Z</time>
      </trkpt>
      <trkpt lat="43.79217" lon="7.24934">
        <ele>645</ele>
        <time>2018-05-13T13:28:03.000Z</time>
      </trkpt>
      <trkpt lat="43.79217" lon="7.24935">
        <ele>645</ele>
        <time>2018-05-13T13:28:04.000Z</time>
      </trkpt>
      <trkpt lat="43.79216" lon="7.24936">
        <ele>645</ele>
        <time>2018-05-13T13:28:05.000Z</time>
      </trkpt>
      <trkpt lat="43.79215" lon="7.24938">
        <ele>645</ele>
        <time>2018-05-13T13:28:10.000Z</time>
      </trkpt>
      <trkpt lat="43.79216" lon="7.2494">
        <ele>645</ele>
        <time>2018-05-13T13:28:16.000Z</time>
      </trkpt>
      <trkpt lat="43.79216" lon="7.2494">
        <ele>645</ele>
        <time>2018-05-13T13:28:17.000Z</time>
      </trkpt>
      <trkpt lat="43.79216" lon="7.24943">
        <ele>644</ele>
        <time>2018-05-13T13:28:23.000Z</time>
      </trkpt>
      <trkpt lat="43.79216" lon="7.24944">
        <ele>644</ele>
        <time>2018-05-13T13:28:24.000Z</time>
      </trkpt>
      <trkpt lat="43.79214" lon="7.24947">
        <ele>644</ele>
        <time>2018-05-13T13:28:31.000Z</time>
      </trkpt>
      <trkpt lat="43.79217" lon="7.24945">
        <ele>644</ele>
        <time>2018-05-13T13:28:35.000Z</time>
      </trkpt>
      <trkpt lat="43.7922" lon="7.24945">
        <ele>644</ele>
        <time>2018-05-13T13:28:37.000Z</time>
      </trkpt>
      <trkpt lat="43.79226" lon="7.24946">
        <ele>643</ele>
        <time>2018-05-13T13:28:43.000Z</time>
      </trkpt>
      <trkpt lat="43.79228" lon="7.24946">
        <ele>643</ele>
        <time>2018-05-13T13:28:45.000Z</time>
      </trkpt>
      <trkpt lat="43.79229" lon="7.24945">
        <ele>643</ele>
        <time>2018-05-13T13:28:47.000Z</time>
      </trkpt>
      <trkpt lat="43.79231" lon="7.24945">
        <ele>643</ele>
        <time>2018-05-13T13:28:50.000Z</time>
      </trkpt>
      <trkpt lat="43.79233" lon="7.24945">
        <ele>643</ele>
        <time>2018-05-13T13:28:52.000Z</time>
      </trkpt>
      <trkpt lat="43.79235" lon="7.24945">
        <ele>642</ele>
        <time>2018-05-13T13:28:57.000Z</time>
      </trkpt>
      <trkpt lat="43.79235" lon="7.24945">
        <ele>642</ele>
        <time>2018-05-13T13:28:58.000Z</time>
      </trkpt>
      <trkpt lat="43.79237" lon="7.24947">
        <ele>642</ele>
        <time>2018-05-13T13:29:03.000Z</time>
      </trkpt>
      <trkpt lat="43.79239" lon="7.24946">
        <ele>642</ele>
        <time>2018-05-13T13:29:06.000Z</time>
      </trkpt>
      <trkpt lat="43.79241" lon="7.24947">
        <ele>642</ele>
        <time>2018-05-13T13:29:09.000Z</time>
      </trkpt>
      <trkpt lat="43.79243" lon="7.24947">
        <ele>642</ele>
        <time>2018-05-13T13:29:11.000Z</time>
      </trkpt>
      <trkpt lat="43.79247" lon="7.24949">
        <ele>641</ele>
        <time>2018-05-13T13:29:15.000Z</time>
      </trkpt>
      <trkpt lat="43.79248" lon="7.24949">
        <ele>641</ele>
        <time>2018-05-13T13:29:17.000Z</time>
      </trkpt>
      <trkpt lat="43.79249" lon="7.2495">
        <ele>641</ele>
        <time>2018-05-13T13:29:18.000Z</time>
      </trkpt>
      <trkpt lat="43.79253" lon="7.24952">
        <ele>632</ele>
        <time>2018-05-13T13:29:22.000Z</time>
      </trkpt>
      <trkpt lat="43.79253" lon="7.24954">
        <ele>631</ele>
        <time>2018-05-13T13:29:24.000Z</time>
      </trkpt>
      <trkpt lat="43.79254" lon="7.24955">
        <ele>631</ele>
        <time>2018-05-13T13:29:26.000Z</time>
      </trkpt>
      <trkpt lat="43.79255" lon="7.24957">
        <ele>631</ele>
        <time>2018-05-13T13:29:29.000Z</time>
      </trkpt>
      <trkpt lat="43.79255" lon="7.2496">
        <ele>630</ele>
        <time>2018-05-13T13:29:31.000Z</time>
      </trkpt>
      <trkpt lat="43.79258" lon="7.24963">
        <ele>629</ele>
        <time>2018-05-13T13:29:34.000Z</time>
      </trkpt>
      <trkpt lat="43.7926" lon="7.24965">
        <ele>629</ele>
        <time>2018-05-13T13:29:37.000Z</time>
      </trkpt>
      <trkpt lat="43.79261" lon="7.24967">
        <ele>628</ele>
        <time>2018-05-13T13:29:38.000Z</time>
      </trkpt>
      <trkpt lat="43.79261" lon="7.24971">
        <ele>628</ele>
        <time>2018-05-13T13:29:40.000Z</time>
      </trkpt>
      <trkpt lat="43.79262" lon="7.24972">
        <ele>627</ele>
        <time>2018-05-13T13:29:41.000Z</time>
      </trkpt>
      <trkpt lat="43.79261" lon="7.24976">
        <ele>627</ele>
        <time>2018-05-13T13:29:44.000Z</time>
      </trkpt>
      <trkpt lat="43.79261" lon="7.24979">
        <ele>626</ele>
        <time>2018-05-13T13:29:47.000Z</time>
      </trkpt>
      <trkpt lat="43.79261" lon="7.2498">
        <ele>626</ele>
        <time>2018-05-13T13:29:50.000Z</time>
      </trkpt>
      <trkpt lat="43.79261" lon="7.2498">
        <ele>626</ele>
        <time>2018-05-13T13:29:52.000Z</time>
      </trkpt>
      <trkpt lat="43.79264" lon="7.24983">
        <ele>626</ele>
        <time>2018-05-13T13:29:57.000Z</time>
      </trkpt>
      <trkpt lat="43.79266" lon="7.24982">
        <ele>626</ele>
        <time>2018-05-13T13:30:00.000Z</time>
      </trkpt>
      <trkpt lat="43.79267" lon="7.24982">
        <ele>626</ele>
        <time>2018-05-13T13:30:01.000Z</time>
      </trkpt>
      <trkpt lat="43.79269" lon="7.24984">
        <ele>626</ele>
        <time>2018-05-13T13:30:04.000Z</time>
      </trkpt>
      <trkpt lat="43.79269" lon="7.24986">
        <ele>625</ele>
        <time>2018-05-13T13:30:05.000Z</time>
      </trkpt>
      <trkpt lat="43.79269" lon="7.24987">
        <ele>625</ele>
        <time>2018-05-13T13:30:06.000Z</time>
      </trkpt>
      <trkpt lat="43.79268" lon="7.2499">
        <ele>625</ele>
        <time>2018-05-13T13:30:09.000Z</time>
      </trkpt>
      <trkpt lat="43.79268" lon="7.24991">
        <ele>625</ele>
        <time>2018-05-13T13:30:10.000Z</time>
      </trkpt>
      <trkpt lat="43.79267" lon="7.24992">
        <ele>625</ele>
        <time>2018-05-13T13:30:13.000Z</time>
      </trkpt>
      <trkpt lat="43.79268" lon="7.24995">
        <ele>624</ele>
        <time>2018-05-13T13:30:17.000Z</time>
      </trkpt>
      <trkpt lat="43.79269" lon="7.24999">
        <ele>624</ele>
        <time>2018-05-13T13:30:20.000Z</time>
      </trkpt>
      <trkpt lat="43.79267" lon="7.25003">
        <ele>611</ele>
        <time>2018-05-13T13:30:23.000Z</time>
      </trkpt>
      <trkpt lat="43.79267" lon="7.25004">
        <ele>611</ele>
        <time>2018-05-13T13:30:24.000Z</time>
      </trkpt>
      <trkpt lat="43.79267" lon="7.25005">
        <ele>611</ele>
        <time>2018-05-13T13:30:25.000Z</time>
      </trkpt>
      <trkpt lat="43.79267" lon="7.2501">
        <ele>610</ele>
        <time>2018-05-13T13:30:28.000Z</time>
      </trkpt>
      <trkpt lat="43.79265" lon="7.25013">
        <ele>610</ele>
        <time>2018-05-13T13:30:30.000Z</time>
      </trkpt>
      <trkpt lat="43.79262" lon="7.25015">
        <ele>610</ele>
        <time>2018-05-13T13:30:33.000Z</time>
      </trkpt>
      <trkpt lat="43.79257" lon="7.25019">
        <ele>610</ele>
        <time>2018-05-13T13:30:37.000Z</time>
      </trkpt>
      <trkpt lat="43.79252" lon="7.25023">
        <ele>609</ele>
        <time>2018-05-13T13:30:42.000Z</time>
      </trkpt>
      <trkpt lat="43.79251" lon="7.25024">
        <ele>609</ele>
        <time>2018-05-13T13:30:44.000Z</time>
      </trkpt>
      <trkpt lat="43.79246" lon="7.25026">
        <ele>618</ele>
        <time>2018-05-13T13:30:49.000Z</time>
      </trkpt>
      <trkpt lat="43.79242" lon="7.25028">
        <ele>618</ele>
        <time>2018-05-13T13:30:55.000Z</time>
      </trkpt>
      <trkpt lat="43.79234" lon="7.25034">
        <ele>618</ele>
        <time>2018-05-13T13:31:00.000Z</time>
      </trkpt>
      <trkpt lat="43.79231" lon="7.25034">
        <ele>618</ele>
        <time>2018-05-13T13:31:01.000Z</time>
      </trkpt>
      <trkpt lat="43.79227" lon="7.25036">
        <ele>618</ele>
        <time>2018-05-13T13:31:03.000Z</time>
      </trkpt>
      <trkpt lat="43.79225" lon="7.25037">
        <ele>618</ele>
        <time>2018-05-13T13:31:04.000Z</time>
      </trkpt>
      <trkpt lat="43.79213" lon="7.25042">
        <ele>619</ele>
        <time>2018-05-13T13:31:09.000Z</time>
      </trkpt>
      <trkpt lat="43.79208" lon="7.25044">
        <ele>619</ele>
        <time>2018-05-13T13:31:13.000Z</time>
      </trkpt>
      <trkpt lat="43.79208" lon="7.25045">
        <ele>619</ele>
        <time>2018-05-13T13:31:15.000Z</time>
      </trkpt>
      <trkpt lat="43.79204" lon="7.25051">
        <ele>618</ele>
        <time>2018-05-13T13:31:20.000Z</time>
      </trkpt>
      <trkpt lat="43.79203" lon="7.25052">
        <ele>618</ele>
        <time>2018-05-13T13:31:22.000Z</time>
      </trkpt>
      <trkpt lat="43.79202" lon="7.25053">
        <ele>618</ele>
        <time>2018-05-13T13:31:23.000Z</time>
      </trkpt>
      <trkpt lat="43.79201" lon="7.25056">
        <ele>618</ele>
        <time>2018-05-13T13:31:26.000Z</time>
      </trkpt>
      <trkpt lat="43.79198" lon="7.25061">
        <ele>618</ele>
        <time>2018-05-13T13:31:30.000Z</time>
      </trkpt>
      <trkpt lat="43.79196" lon="7.25063">
        <ele>618</ele>
        <time>2018-05-13T13:31:32.000Z</time>
      </trkpt>
      <trkpt lat="43.79193" lon="7.25065">
        <ele>618</ele>
        <time>2018-05-13T13:31:34.000Z</time>
      </trkpt>
      <trkpt lat="43.79192" lon="7.25066">
        <ele>618</ele>
        <time>2018-05-13T13:31:35.000Z</time>
      </trkpt>
      <trkpt lat="43.7919" lon="7.25068">
        <ele>618</ele>
        <time>2018-05-13T13:31:38.000Z</time>
      </trkpt>
      <trkpt lat="43.79184" lon="7.25077">
        <ele>617</ele>
        <time>2018-05-13T13:31:46.000Z</time>
      </trkpt>
      <trkpt lat="43.79183" lon="7.25078">
        <ele>617</ele>
        <time>2018-05-13T13:31:47.000Z</time>
      </trkpt>
      <trkpt lat="43.79182" lon="7.2508">
        <ele>617</ele>
        <time>2018-05-13T13:31:49.000Z</time>
      </trkpt>
      <trkpt lat="43.79182" lon="7.25081">
        <ele>617</ele>
        <time>2018-05-13T13:31:52.000Z</time>
      </trkpt>
      <trkpt lat="43.7918" lon="7.25086">
        <ele>605</ele>
        <time>2018-05-13T13:31:55.000Z</time>
      </trkpt>
      <trkpt lat="43.79178" lon="7.25089">
        <ele>606</ele>
        <time>2018-05-13T13:31:56.000Z</time>
      </trkpt>
      <trkpt lat="43.79171" lon="7.251">
        <ele>603</ele>
        <time>2018-05-13T13:32:00.000Z</time>
      </trkpt>
      <trkpt lat="43.7917" lon="7.25102">
        <ele>602</ele>
        <time>2018-05-13T13:32:01.000Z</time>
      </trkpt>
      <trkpt lat="43.79169" lon="7.25105">
        <ele>601</ele>
        <time>2018-05-13T13:32:02.000Z</time>
      </trkpt>
      <trkpt lat="43.79162" lon="7.25112">
        <ele>609</ele>
        <time>2018-05-13T13:32:07.000Z</time>
      </trkpt>
      <trkpt lat="43.79157" lon="7.25127">
        <ele>606</ele>
        <time>2018-05-13T13:32:12.000Z</time>
      </trkpt>
      <trkpt lat="43.79155" lon="7.25131">
        <ele>605</ele>
        <time>2018-05-13T13:32:13.000Z</time>
      </trkpt>
      <trkpt lat="43.79152" lon="7.25137">
        <ele>604</ele>
        <time>2018-05-13T13:32:15.000Z</time>
      </trkpt>
      <trkpt lat="43.7915" lon="7.25143">
        <ele>603</ele>
        <time>2018-05-13T13:32:18.000Z</time>
      </trkpt>
      <trkpt lat="43.79148" lon="7.25151">
        <ele>601</ele>
        <time>2018-05-13T13:32:26.000Z</time>
      </trkpt>
      <trkpt lat="43.79147" lon="7.25153">
        <ele>601</ele>
        <time>2018-05-13T13:32:27.000Z</time>
      </trkpt>
      <trkpt lat="43.79143" lon="7.25158">
        <ele>601</ele>
        <time>2018-05-13T13:32:31.000Z</time>
      </trkpt>
      <trkpt lat="43.79142" lon="7.2516">
        <ele>601</ele>
        <time>2018-05-13T13:32:33.000Z</time>
      </trkpt>
      <trkpt lat="43.79141" lon="7.25167">
        <ele>600</ele>
        <time>2018-05-13T13:32:40.000Z</time>
      </trkpt>
      <trkpt lat="43.79142" lon="7.2517">
        <ele>584</ele>
        <time>2018-05-13T13:32:42.000Z</time>
      </trkpt>
      <trkpt lat="43.79141" lon="7.25172">
        <ele>584</ele>
        <time>2018-05-13T13:32:44.000Z</time>
      </trkpt>
      <trkpt lat="43.79141" lon="7.25172">
        <ele>584</ele>
        <time>2018-05-13T13:32:46.000Z</time>
      </trkpt>
      <trkpt lat="43.7914" lon="7.25175">
        <ele>584</ele>
        <time>2018-05-13T13:32:48.000Z</time>
      </trkpt>
      <trkpt lat="43.79136" lon="7.2518">
        <ele>584</ele>
        <time>2018-05-13T13:32:53.000Z</time>
      </trkpt>
      <trkpt lat="43.79134" lon="7.25184">
        <ele>584</ele>
        <time>2018-05-13T13:32:55.000Z</time>
      </trkpt>
      <trkpt lat="43.79129" lon="7.25193">
        <ele>583</ele>
        <time>2018-05-13T13:33:00.000Z</time>
      </trkpt>
      <trkpt lat="43.79129" lon="7.25195">
        <ele>582</ele>
        <time>2018-05-13T13:33:01.000Z</time>
      </trkpt>
      <trkpt lat="43.79128" lon="7.25197">
        <ele>582</ele>
        <time>2018-05-13T13:33:02.000Z</time>
      </trkpt>
      <trkpt lat="43.79128" lon="7.25199">
        <ele>582</ele>
        <time>2018-05-13T13:33:03.000Z</time>
      </trkpt>
      <trkpt lat="43.79122" lon="7.25209">
        <ele>581</ele>
        <time>2018-05-13T13:33:06.000Z</time>
      </trkpt>
      <trkpt lat="43.79121" lon="7.2521">
        <ele>581</ele>
        <time>2018-05-13T13:33:09.000Z</time>
      </trkpt>
      <trkpt lat="43.7912" lon="7.25211">
        <ele>581</ele>
        <time>2018-05-13T13:33:10.000Z</time>
      </trkpt>
      <trkpt lat="43.79117" lon="7.25212">
        <ele>581</ele>
        <time>2018-05-13T13:33:14.000Z</time>
      </trkpt>
      <trkpt lat="43.79115" lon="7.25216">
        <ele>580</ele>
        <time>2018-05-13T13:33:18.000Z</time>
      </trkpt>
      <trkpt lat="43.79112" lon="7.2522">
        <ele>580</ele>
        <time>2018-05-13T13:33:23.000Z</time>
      </trkpt>
      <trkpt lat="43.79111" lon="7.25223">
        <ele>580</ele>
        <time>2018-05-13T13:33:25.000Z</time>
      </trkpt>
      <trkpt lat="43.79107" lon="7.25227">
        <ele>579</ele>
        <time>2018-05-13T13:33:31.000Z</time>
      </trkpt>
      <trkpt lat="43.79106" lon="7.2523">
        <ele>579</ele>
        <time>2018-05-13T13:33:33.000Z</time>
      </trkpt>
      <trkpt lat="43.79101" lon="7.25234">
        <ele>579</ele>
        <time>2018-05-13T13:33:38.000Z</time>
      </trkpt>
      <trkpt lat="43.791" lon="7.25235">
        <ele>578</ele>
        <time>2018-05-13T13:33:39.000Z</time>
      </trkpt>
      <trkpt lat="43.79096" lon="7.25237">
        <ele>578</ele>
        <time>2018-05-13T13:33:44.000Z</time>
      </trkpt>
      <trkpt lat="43.79094" lon="7.25237">
        <ele>578</ele>
        <time>2018-05-13T13:33:45.000Z</time>
      </trkpt>
      <trkpt lat="43.79088" lon="7.25237">
        <ele>578</ele>
        <time>2018-05-13T13:33:51.000Z</time>
      </trkpt>
      <trkpt lat="43.79085" lon="7.25236">
        <ele>579</ele>
        <time>2018-05-13T13:33:54.000Z</time>
      </trkpt>
      <trkpt lat="43.79083" lon="7.25235">
        <ele>579</ele>
        <time>2018-05-13T13:33:57.000Z</time>
      </trkpt>
      <trkpt lat="43.79082" lon="7.25234">
        <ele>578</ele>
        <time>2018-05-13T13:33:58.000Z</time>
      </trkpt>
      <trkpt lat="43.79081" lon="7.25234">
        <ele>578</ele>
        <time>2018-05-13T13:33:59.000Z</time>
      </trkpt>
      <trkpt lat="43.79069" lon="7.25235">
        <ele>578</ele>
        <time>2018-05-13T13:34:04.000Z</time>
      </trkpt>
      <trkpt lat="43.79067" lon="7.25232">
        <ele>578</ele>
        <time>2018-05-13T13:34:05.000Z</time>
      </trkpt>
      <trkpt lat="43.79065" lon="7.25227">
        <ele>579</ele>
        <time>2018-05-13T13:34:07.000Z</time>
      </trkpt>
      <trkpt lat="43.79063" lon="7.25221">
        <ele>580</ele>
        <time>2018-05-13T13:34:09.000Z</time>
      </trkpt>
      <trkpt lat="43.7906" lon="7.25219">
        <ele>580</ele>
        <time>2018-05-13T13:34:11.000Z</time>
      </trkpt>
      <trkpt lat="43.79057" lon="7.25216">
        <ele>580</ele>
        <time>2018-05-13T13:34:13.000Z</time>
      </trkpt>
      <trkpt lat="43.79049" lon="7.25204">
        <ele>581</ele>
        <time>2018-05-13T13:34:19.000Z</time>
      </trkpt>
      <trkpt lat="43.79046" lon="7.25198">
        <ele>581</ele>
        <time>2018-05-13T13:34:24.000Z</time>
      </trkpt>
      <trkpt lat="43.79043" lon="7.25195">
        <ele>581</ele>
        <time>2018-05-13T13:34:30.000Z</time>
      </trkpt>
      <trkpt lat="43.79038" lon="7.25192">
        <ele>581</ele>
        <time>2018-05-13T13:34:38.000Z</time>
      </trkpt>
      <trkpt lat="43.79037" lon="7.25189">
        <ele>581</ele>
        <time>2018-05-13T13:34:40.000Z</time>
      </trkpt>
      <trkpt lat="43.79036" lon="7.25183">
        <ele>581</ele>
        <time>2018-05-13T13:34:45.000Z</time>
      </trkpt>
      <trkpt lat="43.7903" lon="7.25173">
        <ele>581</ele>
        <time>2018-05-13T13:34:50.000Z</time>
      </trkpt>
      <trkpt lat="43.7902" lon="7.25159">
        <ele>592</ele>
        <time>2018-05-13T13:34:55.000Z</time>
      </trkpt>
      <trkpt lat="43.79016" lon="7.25155">
        <ele>591</ele>
        <time>2018-05-13T13:34:56.000Z</time>
      </trkpt>
      <trkpt lat="43.79009" lon="7.25141">
        <ele>594</ele>
        <time>2018-05-13T13:34:59.000Z</time>
      </trkpt>
      <trkpt lat="43.79007" lon="7.25137">
        <ele>595</ele>
        <time>2018-05-13T13:35:00.000Z</time>
      </trkpt>
      <trkpt lat="43.79002" lon="7.25126">
        <ele>597</ele>
        <time>2018-05-13T13:35:03.000Z</time>
      </trkpt>
      <trkpt lat="43.7899" lon="7.25106">
        <ele>582</ele>
        <time>2018-05-13T13:35:10.000Z</time>
      </trkpt>
      <trkpt lat="43.78979" lon="7.25085">
        <ele>584</ele>
        <time>2018-05-13T13:35:16.000Z</time>
      </trkpt>
      <trkpt lat="43.78973" lon="7.25075">
        <ele>595</ele>
        <time>2018-05-13T13:35:19.000Z</time>
      </trkpt>
      <trkpt lat="43.78966" lon="7.25058">
        <ele>596</ele>
        <time>2018-05-13T13:35:24.000Z</time>
      </trkpt>
      <trkpt lat="43.78963" lon="7.25052">
        <ele>596</ele>
        <time>2018-05-13T13:35:26.000Z</time>
      </trkpt>
      <trkpt lat="43.78952" lon="7.2504">
        <ele>596</ele>
        <time>2018-05-13T13:35:30.000Z</time>
      </trkpt>
      <trkpt lat="43.78948" lon="7.25037">
        <ele>596</ele>
        <time>2018-05-13T13:35:31.000Z</time>
      </trkpt>
      <trkpt lat="43.78933" lon="7.25037">
        <ele>595</ele>
        <time>2018-05-13T13:35:34.000Z</time>
      </trkpt>
      <trkpt lat="43.78928" lon="7.2504">
        <ele>594</ele>
        <time>2018-05-13T13:35:35.000Z</time>
      </trkpt>
      <trkpt lat="43.78913" lon="7.25043">
        <ele>585</ele>
        <time>2018-05-13T13:35:38.000Z</time>
      </trkpt>
      <trkpt lat="43.78889" lon="7.25046">
        <ele>585</ele>
        <time>2018-05-13T13:35:43.000Z</time>
      </trkpt>
      <trkpt lat="43.78855" lon="7.25054">
        <ele>583</ele>
        <time>2018-05-13T13:35:50.000Z</time>
      </trkpt>
      <trkpt lat="43.78841" lon="7.25055">
        <ele>582</ele>
        <time>2018-05-13T13:35:53.000Z</time>
      </trkpt>
      <trkpt lat="43.78806" lon="7.25052">
        <ele>578</ele>
        <time>2018-05-13T13:36:00.000Z</time>
      </trkpt>
      <trkpt lat="43.78788" lon="7.25048">
        <ele>577</ele>
        <time>2018-05-13T13:36:03.000Z</time>
      </trkpt>
      <trkpt lat="43.78769" lon="7.25043">
        <ele>576</ele>
        <time>2018-05-13T13:36:06.000Z</time>
      </trkpt>
      <trkpt lat="43.78762" lon="7.25043">
        <ele>576</ele>
        <time>2018-05-13T13:36:07.000Z</time>
      </trkpt>
      <trkpt lat="43.78753" lon="7.25045">
        <ele>576</ele>
        <time>2018-05-13T13:36:08.000Z</time>
      </trkpt>
      <trkpt lat="43.78746" lon="7.25047">
        <ele>571</ele>
        <time>2018-05-13T13:36:09.000Z</time>
      </trkpt>
      <trkpt lat="43.78739" lon="7.25049">
        <ele>571</ele>
        <time>2018-05-13T13:36:10.000Z</time>
      </trkpt>
      <trkpt lat="43.78731" lon="7.25052">
        <ele>571</ele>
        <time>2018-05-13T13:36:11.000Z</time>
      </trkpt>
      <trkpt lat="43.78722" lon="7.25055">
        <ele>571</ele>
        <time>2018-05-13T13:36:12.000Z</time>
      </trkpt>
      <trkpt lat="43.78714" lon="7.25058">
        <ele>571</ele>
        <time>2018-05-13T13:36:13.000Z</time>
      </trkpt>
      <trkpt lat="43.78693" lon="7.25065">
        <ele>570</ele>
        <time>2018-05-13T13:36:16.000Z</time>
      </trkpt>
      <trkpt lat="43.78657" lon="7.25074">
        <ele>570</ele>
        <time>2018-05-13T13:36:22.000Z</time>
      </trkpt>
      <trkpt lat="43.78637" lon="7.25079">
        <ele>571</ele>
        <time>2018-05-13T13:36:27.000Z</time>
      </trkpt>
      <trkpt lat="43.78634" lon="7.2508">
        <ele>571</ele>
        <time>2018-05-13T13:36:28.000Z</time>
      </trkpt>
      <trkpt lat="43.78621" lon="7.25084">
        <ele>566</ele>
        <time>2018-05-13T13:36:32.000Z</time>
      </trkpt>
      <trkpt lat="43.78618" lon="7.25085">
        <ele>566</ele>
        <time>2018-05-13T13:36:33.000Z</time>
      </trkpt>
      <trkpt lat="43.78603" lon="7.2509">
        <ele>568</ele>
        <time>2018-05-13T13:36:38.000Z</time>
      </trkpt>
      <trkpt lat="43.78594" lon="7.25093">
        <ele>569</ele>
        <time>2018-05-13T13:36:41.000Z</time>
      </trkpt>
      <trkpt lat="43.78581" lon="7.25097">
        <ele>570</ele>
        <time>2018-05-13T13:36:45.000Z</time>
      </trkpt>
      <trkpt lat="43.78565" lon="7.25102">
        <ele>568</ele>
        <time>2018-05-13T13:36:50.000Z</time>
      </trkpt>
      <trkpt lat="43.78561" lon="7.251">
        <ele>568</ele>
        <time>2018-05-13T13:36:51.000Z</time>
      </trkpt>
      <trkpt lat="43.78556" lon="7.25096">
        <ele>568</ele>
        <time>2018-05-13T13:36:53.000Z</time>
      </trkpt>
      <trkpt lat="43.7855" lon="7.25093">
        <ele>568</ele>
        <time>2018-05-13T13:36:57.000Z</time>
      </trkpt>
      <trkpt lat="43.78547" lon="7.25092">
        <ele>568</ele>
        <time>2018-05-13T13:36:58.000Z</time>
      </trkpt>
      <trkpt lat="43.78542" lon="7.25092">
        <ele>568</ele>
        <time>2018-05-13T13:37:00.000Z</time>
      </trkpt>
      <trkpt lat="43.78536" lon="7.25097">
        <ele>568</ele>
        <time>2018-05-13T13:37:03.000Z</time>
      </trkpt>
      <trkpt lat="43.78534" lon="7.251">
        <ele>568</ele>
        <time>2018-05-13T13:37:04.000Z</time>
      </trkpt>
      <trkpt lat="43.78523" lon="7.25102">
        <ele>568</ele>
        <time>2018-05-13T13:37:08.000Z</time>
      </trkpt>
      <trkpt lat="43.7851" lon="7.2511">
        <ele>568</ele>
        <time>2018-05-13T13:37:12.000Z</time>
      </trkpt>
      <trkpt lat="43.78492" lon="7.25122">
        <ele>564</ele>
        <time>2018-05-13T13:37:16.000Z</time>
      </trkpt>
      <trkpt lat="43.78486" lon="7.25126">
        <ele>564</ele>
        <time>2018-05-13T13:37:17.000Z</time>
      </trkpt>
      <trkpt lat="43.7848" lon="7.25131">
        <ele>563</ele>
        <time>2018-05-13T13:37:18.000Z</time>
      </trkpt>
      <trkpt lat="43.7847" lon="7.2514">
        <ele>562</ele>
        <time>2018-05-13T13:37:20.000Z</time>
      </trkpt>
      <trkpt lat="43.78464" lon="7.25146">
        <ele>562</ele>
        <time>2018-05-13T13:37:21.000Z</time>
      </trkpt>
      <trkpt lat="43.78453" lon="7.25154">
        <ele>562</ele>
        <time>2018-05-13T13:37:23.000Z</time>
      </trkpt>
      <trkpt lat="43.7844" lon="7.25163">
        <ele>561</ele>
        <time>2018-05-13T13:37:25.000Z</time>
      </trkpt>
      <trkpt lat="43.78426" lon="7.25174">
        <ele>557</ele>
        <time>2018-05-13T13:37:27.000Z</time>
      </trkpt>
      <trkpt lat="43.78413" lon="7.25184">
        <ele>554</ele>
        <time>2018-05-13T13:37:29.000Z</time>
      </trkpt>
      <trkpt lat="43.784" lon="7.25195">
        <ele>552</ele>
        <time>2018-05-13T13:37:31.000Z</time>
      </trkpt>
      <trkpt lat="43.78389" lon="7.25205">
        <ele>550</ele>
        <time>2018-05-13T13:37:33.000Z</time>
      </trkpt>
      <trkpt lat="43.78379" lon="7.2521">
        <ele>550</ele>
        <time>2018-05-13T13:37:35.000Z</time>
      </trkpt>
      <trkpt lat="43.78375" lon="7.25211">
        <ele>549</ele>
        <time>2018-05-13T13:37:36.000Z</time>
      </trkpt>
      <trkpt lat="43.7837" lon="7.2521">
        <ele>549</ele>
        <time>2018-05-13T13:37:38.000Z</time>
      </trkpt>
      <trkpt lat="43.78364" lon="7.25202">
        <ele>549</ele>
        <time>2018-05-13T13:37:41.000Z</time>
      </trkpt>
      <trkpt lat="43.78361" lon="7.252">
        <ele>549</ele>
        <time>2018-05-13T13:37:42.000Z</time>
      </trkpt>
      <trkpt lat="43.7836" lon="7.25196">
        <ele>549</ele>
        <time>2018-05-13T13:37:43.000Z</time>
      </trkpt>
      <trkpt lat="43.78357" lon="7.25191">
        <ele>548</ele>
        <time>2018-05-13T13:37:45.000Z</time>
      </trkpt>
      <trkpt lat="43.78355" lon="7.25184">
        <ele>548</ele>
        <time>2018-05-13T13:37:47.000Z</time>
      </trkpt>
      <trkpt lat="43.78356" lon="7.25181">
        <ele>548</ele>
        <time>2018-05-13T13:37:48.000Z</time>
      </trkpt>
      <trkpt lat="43.78358" lon="7.25179">
        <ele>548</ele>
        <time>2018-05-13T13:37:49.000Z</time>
      </trkpt>
      <trkpt lat="43.78363" lon="7.25172">
        <ele>548</ele>
        <time>2018-05-13T13:37:51.000Z</time>
      </trkpt>
      <trkpt lat="43.78368" lon="7.25164">
        <ele>547</ele>
        <time>2018-05-13T13:37:53.000Z</time>
      </trkpt>
      <trkpt lat="43.78372" lon="7.25156">
        <ele>547</ele>
        <time>2018-05-13T13:37:55.000Z</time>
      </trkpt>
      <trkpt lat="43.78376" lon="7.25153">
        <ele>547</ele>
        <time>2018-05-13T13:37:57.000Z</time>
      </trkpt>
      <trkpt lat="43.78376" lon="7.2515">
        <ele>547</ele>
        <time>2018-05-13T13:37:59.000Z</time>
      </trkpt>
      <trkpt lat="43.7837" lon="7.25152">
        <ele>546</ele>
        <time>2018-05-13T13:38:01.000Z</time>
      </trkpt>
      <trkpt lat="43.78366" lon="7.25154">
        <ele>546</ele>
        <time>2018-05-13T13:38:02.000Z</time>
      </trkpt>
      <trkpt lat="43.78361" lon="7.25157">
        <ele>546</ele>
        <time>2018-05-13T13:38:03.000Z</time>
      </trkpt>
      <trkpt lat="43.7835" lon="7.25164">
        <ele>544</ele>
        <time>2018-05-13T13:38:05.000Z</time>
      </trkpt>
      <trkpt lat="43.78344" lon="7.25168">
        <ele>545</ele>
        <time>2018-05-13T13:38:06.000Z</time>
      </trkpt>
      <trkpt lat="43.7833" lon="7.25178">
        <ele>542</ele>
        <time>2018-05-13T13:38:08.000Z</time>
      </trkpt>
      <trkpt lat="43.78323" lon="7.25183">
        <ele>542</ele>
        <time>2018-05-13T13:38:09.000Z</time>
      </trkpt>
      <trkpt lat="43.78315" lon="7.25188">
        <ele>541</ele>
        <time>2018-05-13T13:38:10.000Z</time>
      </trkpt>
      <trkpt lat="43.78306" lon="7.25194">
        <ele>541</ele>
        <time>2018-05-13T13:38:11.000Z</time>
      </trkpt>
      <trkpt lat="43.78282" lon="7.2521">
        <ele>541</ele>
        <time>2018-05-13T13:38:14.000Z</time>
      </trkpt>
      <trkpt lat="43.78274" lon="7.25216">
        <ele>541</ele>
        <time>2018-05-13T13:38:15.000Z</time>
      </trkpt>
      <trkpt lat="43.78269" lon="7.25219">
        <ele>541</ele>
        <time>2018-05-13T13:38:16.000Z</time>
      </trkpt>
      <trkpt lat="43.78266" lon="7.25222">
        <ele>541</ele>
        <time>2018-05-13T13:38:17.000Z</time>
      </trkpt>
      <trkpt lat="43.78264" lon="7.25222">
        <ele>541</ele>
        <time>2018-05-13T13:38:18.000Z</time>
      </trkpt>
      <trkpt lat="43.78264" lon="7.25219">
        <ele>540</ele>
        <time>2018-05-13T13:38:20.000Z</time>
      </trkpt>
      <trkpt lat="43.78266" lon="7.25218">
        <ele>540</ele>
        <time>2018-05-13T13:38:21.000Z</time>
      </trkpt>
      <trkpt lat="43.78268" lon="7.25215">
        <ele>540</ele>
        <time>2018-05-13T13:38:24.000Z</time>
      </trkpt>
      <trkpt lat="43.78268" lon="7.25214">
        <ele>540</ele>
        <time>2018-05-13T13:38:25.000Z</time>
      </trkpt>
      <trkpt lat="43.78272" lon="7.25206">
        <ele>540</ele>
        <time>2018-05-13T13:38:28.000Z</time>
      </trkpt>
      <trkpt lat="43.78275" lon="7.25203">
        <ele>540</ele>
        <time>2018-05-13T13:38:29.000Z</time>
      </trkpt>
      <trkpt lat="43.78284" lon="7.25195">
        <ele>540</ele>
        <time>2018-05-13T13:38:33.000Z</time>
      </trkpt>
      <trkpt lat="43.78292" lon="7.2519">
        <ele>540</ele>
        <time>2018-05-13T13:38:37.000Z</time>
      </trkpt>
      <trkpt lat="43.78292" lon="7.25189">
        <ele>540</ele>
        <time>2018-05-13T13:38:38.000Z</time>
      </trkpt>
      <trkpt lat="43.78288" lon="7.25182">
        <ele>539</ele>
        <time>2018-05-13T13:38:42.000Z</time>
      </trkpt>
      <trkpt lat="43.78286" lon="7.2518">
        <ele>539</ele>
        <time>2018-05-13T13:38:43.000Z</time>
      </trkpt>
      <trkpt lat="43.78284" lon="7.25179">
        <ele>539</ele>
        <time>2018-05-13T13:38:44.000Z</time>
      </trkpt>
      <trkpt lat="43.78281" lon="7.25178">
        <ele>538</ele>
        <time>2018-05-13T13:38:46.000Z</time>
      </trkpt>
      <trkpt lat="43.78277" lon="7.25178">
        <ele>538</ele>
        <time>2018-05-13T13:38:48.000Z</time>
      </trkpt>
      <trkpt lat="43.78272" lon="7.25177">
        <ele>537</ele>
        <time>2018-05-13T13:38:50.000Z</time>
      </trkpt>
      <trkpt lat="43.78271" lon="7.25178">
        <ele>537</ele>
        <time>2018-05-13T13:38:51.000Z</time>
      </trkpt>
      <trkpt lat="43.78267" lon="7.25177">
        <ele>536</ele>
        <time>2018-05-13T13:38:54.000Z</time>
      </trkpt>
      <trkpt lat="43.78265" lon="7.2517">
        <ele>535</ele>
        <time>2018-05-13T13:38:57.000Z</time>
      </trkpt>
      <trkpt lat="43.78264" lon="7.25168">
        <ele>535</ele>
        <time>2018-05-13T13:38:58.000Z</time>
      </trkpt>
      <trkpt lat="43.78263" lon="7.25168">
        <ele>534</ele>
        <time>2018-05-13T13:38:59.000Z</time>
      </trkpt>
      <trkpt lat="43.7826" lon="7.25169">
        <ele>534</ele>
        <time>2018-05-13T13:39:01.000Z</time>
      </trkpt>
      <trkpt lat="43.78258" lon="7.25171">
        <ele>533</ele>
        <time>2018-05-13T13:39:02.000Z</time>
      </trkpt>
      <trkpt lat="43.78256" lon="7.25174">
        <ele>533</ele>
        <time>2018-05-13T13:39:04.000Z</time>
      </trkpt>
      <trkpt lat="43.78255" lon="7.25178">
        <ele>534</ele>
        <time>2018-05-13T13:39:05.000Z</time>
      </trkpt>
      <trkpt lat="43.78254" lon="7.25181">
        <ele>535</ele>
        <time>2018-05-13T13:39:06.000Z</time>
      </trkpt>
      <trkpt lat="43.78246" lon="7.25195">
        <ele>536</ele>
        <time>2018-05-13T13:39:11.000Z</time>
      </trkpt>
      <trkpt lat="43.78234" lon="7.25215">
        <ele>538</ele>
        <time>2018-05-13T13:39:18.000Z</time>
      </trkpt>
      <trkpt lat="43.78223" lon="7.25232">
        <ele>538</ele>
        <time>2018-05-13T13:39:24.000Z</time>
      </trkpt>
      <trkpt lat="43.78209" lon="7.25256">
        <ele>536</ele>
        <time>2018-05-13T13:39:32.000Z</time>
      </trkpt>
      <trkpt lat="43.78198" lon="7.25284">
        <ele>535</ele>
        <time>2018-05-13T13:39:40.000Z</time>
      </trkpt>
      <trkpt lat="43.78189" lon="7.2528">
        <ele>535</ele>
        <time>2018-05-13T13:39:43.000Z</time>
      </trkpt>
      <trkpt lat="43.78187" lon="7.25278">
        <ele>535</ele>
        <time>2018-05-13T13:39:44.000Z</time>
      </trkpt>
      <trkpt lat="43.78168" lon="7.2526">
        <ele>534</ele>
        <time>2018-05-13T13:39:52.000Z</time>
      </trkpt>
      <trkpt lat="43.78167" lon="7.25259">
        <ele>534</ele>
        <time>2018-05-13T13:39:53.000Z</time>
      </trkpt>
      <trkpt lat="43.78162" lon="7.25254">
        <ele>535</ele>
        <time>2018-05-13T13:39:57.000Z</time>
      </trkpt>
      <trkpt lat="43.78161" lon="7.25253">
        <ele>535</ele>
        <time>2018-05-13T13:39:58.000Z</time>
      </trkpt>
      <trkpt lat="43.78159" lon="7.25248">
        <ele>540</ele>
        <time>2018-05-13T13:40:01.000Z</time>
      </trkpt>
      <trkpt lat="43.78158" lon="7.25242">
        <ele>542</ele>
        <time>2018-05-13T13:40:04.000Z</time>
      </trkpt>
      <trkpt lat="43.78158" lon="7.2524">
        <ele>543</ele>
        <time>2018-05-13T13:40:06.000Z</time>
      </trkpt>
      <trkpt lat="43.78157" lon="7.25233">
        <ele>546</ele>
        <time>2018-05-13T13:40:10.000Z</time>
      </trkpt>
      <trkpt lat="43.78158" lon="7.25229">
        <ele>547</ele>
        <time>2018-05-13T13:40:12.000Z</time>
      </trkpt>
      <trkpt lat="43.78158" lon="7.25221">
        <ele>550</ele>
        <time>2018-05-13T13:40:18.000Z</time>
      </trkpt>
      <trkpt lat="43.78158" lon="7.25221">
        <ele>550</ele>
        <time>2018-05-13T13:40:20.000Z</time>
      </trkpt>
      <trkpt lat="43.78158" lon="7.25221">
        <ele>550</ele>
        <time>2018-05-13T13:40:23.000Z</time>
      </trkpt>
      <trkpt lat="43.78158" lon="7.25221">
        <ele>550</ele>
        <time>2018-05-13T13:40:32.000Z</time>
      </trkpt>
      <trkpt lat="43.78159" lon="7.25222">
        <ele>549</ele>
        <time>2018-05-13T13:40:40.000Z</time>
      </trkpt>
      <trkpt lat="43.78159" lon="7.25222">
        <ele>549</ele>
        <time>2018-05-13T13:40:47.000Z</time>
      </trkpt>
      <trkpt lat="43.78159" lon="7.25222">
        <ele>549</ele>
        <time>2018-05-13T13:40:59.000Z</time>
      </trkpt>
      <trkpt lat="43.78159" lon="7.25222">
        <ele>549</ele>
        <time>2018-05-13T13:41:05.000Z</time>
      </trkpt>
      <trkpt lat="43.78159" lon="7.25222">
        <ele>549</ele>
        <time>2018-05-13T13:41:13.000Z</time>
      </trkpt>
      <trkpt lat="43.78159" lon="7.25223">
        <ele>549</ele>
        <time>2018-05-13T13:41:21.000Z</time>
      </trkpt>
      <trkpt lat="43.78159" lon="7.25223">
        <ele>549</ele>
        <time>2018-05-13T13:41:30.000Z</time>
      </trkpt>
      <trkpt lat="43.78159" lon="7.25223">
        <ele>549</ele>
        <time>2018-05-13T13:41:35.000Z</time>
      </trkpt>
      <trkpt lat="43.78159" lon="7.25222">
        <ele>549</ele>
        <time>2018-05-13T13:41:43.000Z</time>
      </trkpt>
      <trkpt lat="43.78158" lon="7.25222">
        <ele>549</ele>
        <time>2018-05-13T13:41:50.000Z</time>
      </trkpt>
      <trkpt lat="43.78158" lon="7.25222">
        <ele>549</ele>
        <time>2018-05-13T13:41:59.000Z</time>
      </trkpt>
      <trkpt lat="43.78157" lon="7.25222">
        <ele>550</ele>
        <time>2018-05-13T13:42:07.000Z</time>
      </trkpt>
      <trkpt lat="43.78156" lon="7.25222">
        <ele>550</ele>
        <time>2018-05-13T13:42:20.000Z</time>
      </trkpt>
      <trkpt lat="43.78156" lon="7.25223">
        <ele>549</ele>
        <time>2018-05-13T13:42:21.000Z</time>
      </trkpt>
      <trkpt lat="43.78155" lon="7.25224">
        <ele>550</ele>
        <time>2018-05-13T13:42:25.000Z</time>
      </trkpt>
      <trkpt lat="43.78155" lon="7.25224">
        <ele>549</ele>
        <time>2018-05-13T13:42:37.000Z</time>
      </trkpt>
      <trkpt lat="43.78155" lon="7.25225">
        <ele>549</ele>
        <time>2018-05-13T13:42:45.000Z</time>
      </trkpt>
      <trkpt lat="43.78155" lon="7.25225">
        <ele>549</ele>
        <time>2018-05-13T13:42:57.000Z</time>
      </trkpt>
      <trkpt lat="43.78155" lon="7.25225">
        <ele>549</ele>
        <time>2018-05-13T13:43:06.000Z</time>
      </trkpt>
      <trkpt lat="43.78156" lon="7.25225">
        <ele>549</ele>
        <time>2018-05-13T13:43:15.000Z</time>
      </trkpt>
      <trkpt lat="43.78157" lon="7.25227">
        <ele>548</ele>
        <time>2018-05-13T13:43:24.000Z</time>
      </trkpt>
      <trkpt lat="43.78157" lon="7.25229">
        <ele>548</ele>
        <time>2018-05-13T13:43:31.000Z</time>
      </trkpt>
      <trkpt lat="43.78158" lon="7.25227">
        <ele>548</ele>
        <time>2018-05-13T13:43:38.000Z</time>
      </trkpt>
      <trkpt lat="43.78158" lon="7.25226">
        <ele>548</ele>
        <time>2018-05-13T13:43:47.000Z</time>
      </trkpt>
      <trkpt lat="43.78159" lon="7.25222">
        <ele>549</ele>
        <time>2018-05-13T13:43:56.000Z</time>
      </trkpt>
      <trkpt lat="43.7816" lon="7.25222">
        <ele>549</ele>
        <time>2018-05-13T13:44:03.000Z</time>
      </trkpt>
      <trkpt lat="43.78159" lon="7.2522">
        <ele>550</ele>
        <time>2018-05-13T13:44:05.000Z</time>
      </trkpt>
      <trkpt lat="43.78158" lon="7.25219">
        <ele>550</ele>
        <time>2018-05-13T13:44:07.000Z</time>
      </trkpt>
      <trkpt lat="43.78158" lon="7.25218">
        <ele>550</ele>
        <time>2018-05-13T13:44:16.000Z</time>
      </trkpt>
      <trkpt lat="43.78158" lon="7.25218">
        <ele>550</ele>
        <time>2018-05-13T13:44:23.000Z</time>
      </trkpt>
      <trkpt lat="43.78158" lon="7.25218">
        <ele>550</ele>
        <time>2018-05-13T13:44:25.000Z</time>
      </trkpt>
      <trkpt lat="43.7816" lon="7.25218">
        <ele>550</ele>
        <time>2018-05-13T13:44:29.000Z</time>
      </trkpt>
      <trkpt lat="43.7816" lon="7.25218">
        <ele>550</ele>
        <time>2018-05-13T13:44:37.000Z</time>
      </trkpt>
      <trkpt lat="43.7816" lon="7.25222">
        <ele>549</ele>
        <time>2018-05-13T13:44:46.000Z</time>
      </trkpt>
      <trkpt lat="43.7816" lon="7.25223">
        <ele>549</ele>
        <time>2018-05-13T13:44:47.000Z</time>
      </trkpt>
      <trkpt lat="43.78159" lon="7.25223">
        <ele>549</ele>
        <time>2018-05-13T13:44:51.000Z</time>
      </trkpt>
      <trkpt lat="43.78158" lon="7.25223">
        <ele>549</ele>
        <time>2018-05-13T13:45:02.000Z</time>
      </trkpt>
      <trkpt lat="43.78158" lon="7.25224">
        <ele>549</ele>
        <time>2018-05-13T13:45:11.000Z</time>
      </trkpt>
      <trkpt lat="43.78159" lon="7.25223">
        <ele>549</ele>
        <time>2018-05-13T13:45:13.000Z</time>
      </trkpt>
      <trkpt lat="43.78162" lon="7.25225">
        <ele>548</ele>
        <time>2018-05-13T13:45:17.000Z</time>
      </trkpt>
      <trkpt lat="43.78162" lon="7.25225">
        <ele>548</ele>
        <time>2018-05-13T13:45:18.000Z</time>
      </trkpt>
      <trkpt lat="43.78166" lon="7.25218">
        <ele>549</ele>
        <time>2018-05-13T13:45:21.000Z</time>
      </trkpt>
      <trkpt lat="43.78172" lon="7.25208">
        <ele>539</ele>
        <time>2018-05-13T13:45:23.000Z</time>
      </trkpt>
      <trkpt lat="43.78181" lon="7.25195">
        <ele>540</ele>
        <time>2018-05-13T13:45:25.000Z</time>
      </trkpt>
      <trkpt lat="43.7819" lon="7.2518">
        <ele>540</ele>
        <time>2018-05-13T13:45:27.000Z</time>
      </trkpt>
      <trkpt lat="43.78199" lon="7.25164">
        <ele>541</ele>
        <time>2018-05-13T13:45:29.000Z</time>
      </trkpt>
      <trkpt lat="43.78203" lon="7.25154">
        <ele>541</ele>
        <time>2018-05-13T13:45:30.000Z</time>
      </trkpt>
      <trkpt lat="43.78207" lon="7.25145">
        <ele>540</ele>
        <time>2018-05-13T13:45:31.000Z</time>
      </trkpt>
      <trkpt lat="43.78214" lon="7.2513">
        <ele>540</ele>
        <time>2018-05-13T13:45:33.000Z</time>
      </trkpt>
      <trkpt lat="43.7822" lon="7.25113">
        <ele>539</ele>
        <time>2018-05-13T13:45:36.000Z</time>
      </trkpt>
      <trkpt lat="43.78221" lon="7.25109">
        <ele>539</ele>
        <time>2018-05-13T13:45:37.000Z</time>
      </trkpt>
      <trkpt lat="43.7822" lon="7.25104">
        <ele>538</ele>
        <time>2018-05-13T13:45:40.000Z</time>
      </trkpt>
      <trkpt lat="43.78221" lon="7.25097">
        <ele>538</ele>
        <time>2018-05-13T13:45:46.000Z</time>
      </trkpt>
      <trkpt lat="43.78221" lon="7.2509">
        <ele>538</ele>
        <time>2018-05-13T13:45:51.000Z</time>
      </trkpt>
      <trkpt lat="43.78221" lon="7.25087">
        <ele>538</ele>
        <time>2018-05-13T13:45:54.000Z</time>
      </trkpt>
      <trkpt lat="43.78221" lon="7.25082">
        <ele>540</ele>
        <time>2018-05-13T13:45:58.000Z</time>
      </trkpt>
      <trkpt lat="43.78222" lon="7.25075">
        <ele>540</ele>
        <time>2018-05-13T13:46:03.000Z</time>
      </trkpt>
      <trkpt lat="43.78222" lon="7.25069">
        <ele>540</ele>
        <time>2018-05-13T13:46:08.000Z</time>
      </trkpt>
      <trkpt lat="43.78221" lon="7.25067">
        <ele>541</ele>
        <time>2018-05-13T13:46:11.000Z</time>
      </trkpt>
      <trkpt lat="43.78221" lon="7.25065">
        <ele>541</ele>
        <time>2018-05-13T13:46:12.000Z</time>
      </trkpt>
      <trkpt lat="43.78221" lon="7.25064">
        <ele>541</ele>
        <time>2018-05-13T13:46:13.000Z</time>
      </trkpt>
      <trkpt lat="43.78221" lon="7.25058">
        <ele>541</ele>
        <time>2018-05-13T13:46:19.000Z</time>
      </trkpt>
      <trkpt lat="43.78221" lon="7.25057">
        <ele>541</ele>
        <time>2018-05-13T13:46:20.000Z</time>
      </trkpt>
      <trkpt lat="43.78221" lon="7.25052">
        <ele>541</ele>
        <time>2018-05-13T13:46:24.000Z</time>
      </trkpt>
      <trkpt lat="43.78222" lon="7.25047">
        <ele>541</ele>
        <time>2018-05-13T13:46:28.000Z</time>
      </trkpt>
      <trkpt lat="43.78221" lon="7.25043">
        <ele>542</ele>
        <time>2018-05-13T13:46:31.000Z</time>
      </trkpt>
      <trkpt lat="43.78221" lon="7.25035">
        <ele>542</ele>
        <time>2018-05-13T13:46:37.000Z</time>
      </trkpt>
      <trkpt lat="43.78221" lon="7.25034">
        <ele>542</ele>
        <time>2018-05-13T13:46:38.000Z</time>
      </trkpt>
      <trkpt lat="43.7822" lon="7.25033">
        <ele>542</ele>
        <time>2018-05-13T13:46:39.000Z</time>
      </trkpt>
      <trkpt lat="43.78219" lon="7.25027">
        <ele>542</ele>
        <time>2018-05-13T13:46:44.000Z</time>
      </trkpt>
      <trkpt lat="43.78219" lon="7.25022">
        <ele>542</ele>
        <time>2018-05-13T13:46:48.000Z</time>
      </trkpt>
      <trkpt lat="43.78218" lon="7.25019">
        <ele>542</ele>
        <time>2018-05-13T13:46:50.000Z</time>
      </trkpt>
      <trkpt lat="43.78218" lon="7.25018">
        <ele>542</ele>
        <time>2018-05-13T13:46:51.000Z</time>
      </trkpt>
      <trkpt lat="43.78218" lon="7.25017">
        <ele>542</ele>
        <time>2018-05-13T13:46:52.000Z</time>
      </trkpt>
      <trkpt lat="43.78217" lon="7.25008">
        <ele>542</ele>
        <time>2018-05-13T13:46:59.000Z</time>
      </trkpt>
      <trkpt lat="43.78217" lon="7.25004">
        <ele>542</ele>
        <time>2018-05-13T13:47:02.000Z</time>
      </trkpt>
      <trkpt lat="43.78216" lon="7.25002">
        <ele>542</ele>
        <time>2018-05-13T13:47:04.000Z</time>
      </trkpt>
      <trkpt lat="43.78215" lon="7.24998">
        <ele>542</ele>
        <time>2018-05-13T13:47:10.000Z</time>
      </trkpt>
      <trkpt lat="43.78213" lon="7.24993">
        <ele>543</ele>
        <time>2018-05-13T13:47:16.000Z</time>
      </trkpt>
      <trkpt lat="43.78212" lon="7.24991">
        <ele>543</ele>
        <time>2018-05-13T13:47:18.000Z</time>
      </trkpt>
      <trkpt lat="43.78212" lon="7.24987">
        <ele>543</ele>
        <time>2018-05-13T13:47:22.000Z</time>
      </trkpt>
      <trkpt lat="43.78211" lon="7.24985">
        <ele>544</ele>
        <time>2018-05-13T13:47:24.000Z</time>
      </trkpt>
      <trkpt lat="43.78209" lon="7.2498">
        <ele>544</ele>
        <time>2018-05-13T13:47:30.000Z</time>
      </trkpt>
      <trkpt lat="43.78208" lon="7.24978">
        <ele>544</ele>
        <time>2018-05-13T13:47:33.000Z</time>
      </trkpt>
      <trkpt lat="43.78208" lon="7.24976">
        <ele>544</ele>
        <time>2018-05-13T13:47:36.000Z</time>
      </trkpt>
      <trkpt lat="43.78207" lon="7.24972">
        <ele>544</ele>
        <time>2018-05-13T13:47:39.000Z</time>
      </trkpt>
      <trkpt lat="43.78206" lon="7.24968">
        <ele>544</ele>
        <time>2018-05-13T13:47:43.000Z</time>
      </trkpt>
      <trkpt lat="43.78205" lon="7.24962">
        <ele>545</ele>
        <time>2018-05-13T13:47:49.000Z</time>
      </trkpt>
      <trkpt lat="43.78204" lon="7.24958">
        <ele>545</ele>
        <time>2018-05-13T13:47:53.000Z</time>
      </trkpt>
      <trkpt lat="43.78203" lon="7.24954">
        <ele>545</ele>
        <time>2018-05-13T13:47:57.000Z</time>
      </trkpt>
      <trkpt lat="43.78203" lon="7.24952">
        <ele>545</ele>
        <time>2018-05-13T13:47:59.000Z</time>
      </trkpt>
      <trkpt lat="43.782" lon="7.24948">
        <ele>545</ele>
        <time>2018-05-13T13:48:05.000Z</time>
      </trkpt>
      <trkpt lat="43.782" lon="7.24945">
        <ele>545</ele>
        <time>2018-05-13T13:48:07.000Z</time>
      </trkpt>
      <trkpt lat="43.78198" lon="7.24941">
        <ele>546</ele>
        <time>2018-05-13T13:48:13.000Z</time>
      </trkpt>
      <trkpt lat="43.78196" lon="7.2494">
        <ele>546</ele>
        <time>2018-05-13T13:48:15.000Z</time>
      </trkpt>
      <trkpt lat="43.78193" lon="7.24937">
        <ele>547</ele>
        <time>2018-05-13T13:48:21.000Z</time>
      </trkpt>
      <trkpt lat="43.78189" lon="7.24935">
        <ele>548</ele>
        <time>2018-05-13T13:48:29.000Z</time>
      </trkpt>
      <trkpt lat="43.78189" lon="7.24934">
        <ele>548</ele>
        <time>2018-05-13T13:48:30.000Z</time>
      </trkpt>
      <trkpt lat="43.78185" lon="7.24927">
        <ele>550</ele>
        <time>2018-05-13T13:48:37.000Z</time>
      </trkpt>
      <trkpt lat="43.78179" lon="7.2492">
        <ele>552</ele>
        <time>2018-05-13T13:48:45.000Z</time>
      </trkpt>
      <trkpt lat="43.78179" lon="7.24919">
        <ele>552</ele>
        <time>2018-05-13T13:48:47.000Z</time>
      </trkpt>
      <trkpt lat="43.78178" lon="7.24919">
        <ele>553</ele>
        <time>2018-05-13T13:48:48.000Z</time>
      </trkpt>
      <trkpt lat="43.78177" lon="7.24917">
        <ele>553</ele>
        <time>2018-05-13T13:48:49.000Z</time>
      </trkpt>
      <trkpt lat="43.78173" lon="7.24914">
        <ele>552</ele>
        <time>2018-05-13T13:48:52.000Z</time>
      </trkpt>
      <trkpt lat="43.78166" lon="7.24909">
        <ele>559</ele>
        <time>2018-05-13T13:48:57.000Z</time>
      </trkpt>
      <trkpt lat="43.78158" lon="7.24903">
        <ele>560</ele>
        <time>2018-05-13T13:49:04.000Z</time>
      </trkpt>
      <trkpt lat="43.78149" lon="7.24898">
        <ele>561</ele>
        <time>2018-05-13T13:49:12.000Z</time>
      </trkpt>
      <trkpt lat="43.78148" lon="7.24897">
        <ele>561</ele>
        <time>2018-05-13T13:49:13.000Z</time>
      </trkpt>
      <trkpt lat="43.78142" lon="7.24894">
        <ele>562</ele>
        <time>2018-05-13T13:49:18.000Z</time>
      </trkpt>
      <trkpt lat="43.78138" lon="7.24889">
        <ele>562</ele>
        <time>2018-05-13T13:49:22.000Z</time>
      </trkpt>
      <trkpt lat="43.78137" lon="7.24888">
        <ele>562</ele>
        <time>2018-05-13T13:49:23.000Z</time>
      </trkpt>
      <trkpt lat="43.78134" lon="7.24887">
        <ele>562</ele>
        <time>2018-05-13T13:49:25.000Z</time>
      </trkpt>
      <trkpt lat="43.78129" lon="7.24886">
        <ele>563</ele>
        <time>2018-05-13T13:49:29.000Z</time>
      </trkpt>
      <trkpt lat="43.78129" lon="7.24885">
        <ele>563</ele>
        <time>2018-05-13T13:49:30.000Z</time>
      </trkpt>
      <trkpt lat="43.78126" lon="7.24884">
        <ele>563</ele>
        <time>2018-05-13T13:49:34.000Z</time>
      </trkpt>
      <trkpt lat="43.78126" lon="7.24883">
        <ele>563</ele>
        <time>2018-05-13T13:49:35.000Z</time>
      </trkpt>
      <trkpt lat="43.78121" lon="7.24882">
        <ele>564</ele>
        <time>2018-05-13T13:49:41.000Z</time>
      </trkpt>
      <trkpt lat="43.78117" lon="7.24881">
        <ele>564</ele>
        <time>2018-05-13T13:49:45.000Z</time>
      </trkpt>
      <trkpt lat="43.78112" lon="7.24881">
        <ele>565</ele>
        <time>2018-05-13T13:49:51.000Z</time>
      </trkpt>
      <trkpt lat="43.78107" lon="7.24881">
        <ele>566</ele>
        <time>2018-05-13T13:49:57.000Z</time>
      </trkpt>
      <trkpt lat="43.78106" lon="7.24881">
        <ele>566</ele>
        <time>2018-05-13T13:49:58.000Z</time>
      </trkpt>
      <trkpt lat="43.781" lon="7.24883">
        <ele>567</ele>
        <time>2018-05-13T13:50:05.000Z</time>
      </trkpt>
      <trkpt lat="43.78099" lon="7.24883">
        <ele>567</ele>
        <time>2018-05-13T13:50:07.000Z</time>
      </trkpt>
      <trkpt lat="43.78098" lon="7.24882">
        <ele>567</ele>
        <time>2018-05-13T13:50:08.000Z</time>
      </trkpt>
      <trkpt lat="43.78095" lon="7.24881">
        <ele>568</ele>
        <time>2018-05-13T13:50:12.000Z</time>
      </trkpt>
      <trkpt lat="43.78095" lon="7.24881">
        <ele>568</ele>
        <time>2018-05-13T13:50:13.000Z</time>
      </trkpt>
      <trkpt lat="43.78091" lon="7.24882">
        <ele>568</ele>
        <time>2018-05-13T13:50:19.000Z</time>
      </trkpt>
      <trkpt lat="43.78087" lon="7.24885">
        <ele>569</ele>
        <time>2018-05-13T13:50:25.000Z</time>
      </trkpt>
      <trkpt lat="43.78083" lon="7.24885">
        <ele>585</ele>
        <time>2018-05-13T13:50:31.000Z</time>
      </trkpt>
      <trkpt lat="43.78081" lon="7.24884">
        <ele>585</ele>
        <time>2018-05-13T13:50:34.000Z</time>
      </trkpt>
      <trkpt lat="43.78077" lon="7.24882">
        <ele>585</ele>
        <time>2018-05-13T13:50:39.000Z</time>
      </trkpt>
      <trkpt lat="43.78074" lon="7.24882">
        <ele>585</ele>
        <time>2018-05-13T13:50:42.000Z</time>
      </trkpt>
      <trkpt lat="43.78071" lon="7.24884">
        <ele>585</ele>
        <time>2018-05-13T13:50:46.000Z</time>
      </trkpt>
      <trkpt lat="43.78069" lon="7.24884">
        <ele>586</ele>
        <time>2018-05-13T13:50:50.000Z</time>
      </trkpt>
      <trkpt lat="43.78067" lon="7.24884">
        <ele>586</ele>
        <time>2018-05-13T13:50:52.000Z</time>
      </trkpt>
      <trkpt lat="43.78063" lon="7.24884">
        <ele>586</ele>
        <time>2018-05-13T13:50:58.000Z</time>
      </trkpt>
      <trkpt lat="43.78062" lon="7.24884">
        <ele>586</ele>
        <time>2018-05-13T13:50:59.000Z</time>
      </trkpt>
      <trkpt lat="43.78059" lon="7.24885">
        <ele>587</ele>
        <time>2018-05-13T13:51:04.000Z</time>
      </trkpt>
      <trkpt lat="43.78055" lon="7.24884">
        <ele>587</ele>
        <time>2018-05-13T13:51:10.000Z</time>
      </trkpt>
      <trkpt lat="43.78051" lon="7.24882">
        <ele>588</ele>
        <time>2018-05-13T13:51:16.000Z</time>
      </trkpt>
      <trkpt lat="43.78048" lon="7.24883">
        <ele>588</ele>
        <time>2018-05-13T13:51:20.000Z</time>
      </trkpt>
      <trkpt lat="43.78045" lon="7.24883">
        <ele>588</ele>
        <time>2018-05-13T13:51:23.000Z</time>
      </trkpt>
      <trkpt lat="43.78041" lon="7.24883">
        <ele>589</ele>
        <time>2018-05-13T13:51:29.000Z</time>
      </trkpt>
      <trkpt lat="43.7804" lon="7.24883">
        <ele>589</ele>
        <time>2018-05-13T13:51:31.000Z</time>
      </trkpt>
      <trkpt lat="43.78037" lon="7.24882">
        <ele>590</ele>
        <time>2018-05-13T13:51:35.000Z</time>
      </trkpt>
      <trkpt lat="43.78035" lon="7.24882">
        <ele>590</ele>
        <time>2018-05-13T13:51:38.000Z</time>
      </trkpt>
      <trkpt lat="43.78031" lon="7.24884">
        <ele>591</ele>
        <time>2018-05-13T13:51:43.000Z</time>
      </trkpt>
      <trkpt lat="43.78028" lon="7.24884">
        <ele>591</ele>
        <time>2018-05-13T13:51:48.000Z</time>
      </trkpt>
      <trkpt lat="43.78025" lon="7.24883">
        <ele>592</ele>
        <time>2018-05-13T13:51:53.000Z</time>
      </trkpt>
      <trkpt lat="43.78024" lon="7.24883">
        <ele>592</ele>
        <time>2018-05-13T13:51:54.000Z</time>
      </trkpt>
      <trkpt lat="43.78021" lon="7.24883">
        <ele>592</ele>
        <time>2018-05-13T13:51:57.000Z</time>
      </trkpt>
      <trkpt lat="43.78019" lon="7.24884">
        <ele>593</ele>
        <time>2018-05-13T13:52:00.000Z</time>
      </trkpt>
      <trkpt lat="43.78015" lon="7.24883">
        <ele>593</ele>
        <time>2018-05-13T13:52:06.000Z</time>
      </trkpt>
      <trkpt lat="43.78011" lon="7.24882">
        <ele>593</ele>
        <time>2018-05-13T13:52:11.000Z</time>
      </trkpt>
      <trkpt lat="43.78004" lon="7.24879">
        <ele>593</ele>
        <time>2018-05-13T13:52:18.000Z</time>
      </trkpt>
      <trkpt lat="43.77992" lon="7.24876">
        <ele>608</ele>
        <time>2018-05-13T13:52:28.000Z</time>
      </trkpt>
      <trkpt lat="43.77983" lon="7.24869">
        <ele>607</ele>
        <time>2018-05-13T13:52:36.000Z</time>
      </trkpt>
      <trkpt lat="43.77983" lon="7.2486">
        <ele>606</ele>
        <time>2018-05-13T13:52:41.000Z</time>
      </trkpt>
      <trkpt lat="43.77982" lon="7.24853">
        <ele>605</ele>
        <time>2018-05-13T13:52:46.000Z</time>
      </trkpt>
      <trkpt lat="43.77981" lon="7.24845">
        <ele>603</ele>
        <time>2018-05-13T13:52:52.000Z</time>
      </trkpt>
      <trkpt lat="43.77981" lon="7.24843">
        <ele>603</ele>
        <time>2018-05-13T13:52:53.000Z</time>
      </trkpt>
      <trkpt lat="43.77979" lon="7.24832">
        <ele>598</ele>
        <time>2018-05-13T13:53:02.000Z</time>
      </trkpt>
      <trkpt lat="43.77978" lon="7.2483">
        <ele>598</ele>
        <time>2018-05-13T13:53:04.000Z</time>
      </trkpt>
      <trkpt lat="43.77977" lon="7.24825">
        <ele>598</ele>
        <time>2018-05-13T13:53:09.000Z</time>
      </trkpt>
      <trkpt lat="43.77977" lon="7.2482">
        <ele>598</ele>
        <time>2018-05-13T13:53:14.000Z</time>
      </trkpt>
      <trkpt lat="43.77977" lon="7.24817">
        <ele>598</ele>
        <time>2018-05-13T13:53:17.000Z</time>
      </trkpt>
      <trkpt lat="43.77977" lon="7.24814">
        <ele>598</ele>
        <time>2018-05-13T13:53:23.000Z</time>
      </trkpt>
      <trkpt lat="43.77977" lon="7.24814">
        <ele>598</ele>
        <time>2018-05-13T13:53:24.000Z</time>
      </trkpt>
      <trkpt lat="43.77975" lon="7.24815">
        <ele>599</ele>
        <time>2018-05-13T13:53:31.000Z</time>
      </trkpt>
      <trkpt lat="43.77971" lon="7.24812">
        <ele>599</ele>
        <time>2018-05-13T13:53:38.000Z</time>
      </trkpt>
      <trkpt lat="43.77971" lon="7.24811">
        <ele>599</ele>
        <time>2018-05-13T13:53:41.000Z</time>
      </trkpt>
      <trkpt lat="43.77969" lon="7.2481">
        <ele>600</ele>
        <time>2018-05-13T13:53:43.000Z</time>
      </trkpt>
      <trkpt lat="43.7797" lon="7.2481">
        <ele>599</ele>
        <time>2018-05-13T13:53:44.000Z</time>
      </trkpt>
      <trkpt lat="43.77969" lon="7.2481">
        <ele>600</ele>
        <time>2018-05-13T13:53:45.000Z</time>
      </trkpt>
      <trkpt lat="43.77967" lon="7.24808">
        <ele>600</ele>
        <time>2018-05-13T13:53:50.000Z</time>
      </trkpt>
      <trkpt lat="43.77966" lon="7.24807">
        <ele>600</ele>
        <time>2018-05-13T13:53:51.000Z</time>
      </trkpt>
      <trkpt lat="43.77963" lon="7.24804">
        <ele>600</ele>
        <time>2018-05-13T13:53:57.000Z</time>
      </trkpt>
      <trkpt lat="43.77961" lon="7.24806">
        <ele>601</ele>
        <time>2018-05-13T13:53:58.000Z</time>
      </trkpt>
      <trkpt lat="43.77961" lon="7.24805">
        <ele>601</ele>
        <time>2018-05-13T13:54:00.000Z</time>
      </trkpt>
      <trkpt lat="43.77961" lon="7.24804">
        <ele>601</ele>
        <time>2018-05-13T13:54:01.000Z</time>
      </trkpt>
      <trkpt lat="43.77959" lon="7.24804">
        <ele>601</ele>
        <time>2018-05-13T13:54:05.000Z</time>
      </trkpt>
      <trkpt lat="43.77958" lon="7.24805">
        <ele>601</ele>
        <time>2018-05-13T13:54:09.000Z</time>
      </trkpt>
      <trkpt lat="43.77958" lon="7.24806">
        <ele>601</ele>
        <time>2018-05-13T13:54:11.000Z</time>
      </trkpt>
      <trkpt lat="43.77957" lon="7.24806">
        <ele>601</ele>
        <time>2018-05-13T13:54:12.000Z</time>
      </trkpt>
      <trkpt lat="43.77956" lon="7.24808">
        <ele>602</ele>
        <time>2018-05-13T13:54:15.000Z</time>
      </trkpt>
      <trkpt lat="43.77955" lon="7.24809">
        <ele>602</ele>
        <time>2018-05-13T13:54:16.000Z</time>
      </trkpt>
      <trkpt lat="43.77954" lon="7.24811">
        <ele>602</ele>
        <time>2018-05-13T13:54:20.000Z</time>
      </trkpt>
      <trkpt lat="43.77953" lon="7.24813">
        <ele>603</ele>
        <time>2018-05-13T13:54:22.000Z</time>
      </trkpt>
      <trkpt lat="43.77951" lon="7.24814">
        <ele>603</ele>
        <time>2018-05-13T13:54:27.000Z</time>
      </trkpt>
      <trkpt lat="43.77949" lon="7.24818">
        <ele>603</ele>
        <time>2018-05-13T13:54:32.000Z</time>
      </trkpt>
      <trkpt lat="43.77949" lon="7.24817">
        <ele>603</ele>
        <time>2018-05-13T13:54:33.000Z</time>
      </trkpt>
      <trkpt lat="43.77947" lon="7.2482">
        <ele>604</ele>
        <time>2018-05-13T13:54:37.000Z</time>
      </trkpt>
      <trkpt lat="43.77946" lon="7.2482">
        <ele>604</ele>
        <time>2018-05-13T13:54:38.000Z</time>
      </trkpt>
      <trkpt lat="43.77945" lon="7.24819">
        <ele>605</ele>
        <time>2018-05-13T13:54:41.000Z</time>
      </trkpt>
      <trkpt lat="43.77945" lon="7.24819">
        <ele>605</ele>
        <time>2018-05-13T13:54:44.000Z</time>
      </trkpt>
      <trkpt lat="43.77942" lon="7.24818">
        <ele>605</ele>
        <time>2018-05-13T13:54:47.000Z</time>
      </trkpt>
      <trkpt lat="43.77942" lon="7.24818">
        <ele>605</ele>
        <time>2018-05-13T13:54:48.000Z</time>
      </trkpt>
      <trkpt lat="43.77942" lon="7.24818">
        <ele>605</ele>
        <time>2018-05-13T13:54:49.000Z</time>
      </trkpt>
      <trkpt lat="43.77941" lon="7.24818">
        <ele>605</ele>
        <time>2018-05-13T13:54:50.000Z</time>
      </trkpt>
      <trkpt lat="43.77939" lon="7.24817">
        <ele>606</ele>
        <time>2018-05-13T13:54:54.000Z</time>
      </trkpt>
      <trkpt lat="43.77937" lon="7.24817">
        <ele>606</ele>
        <time>2018-05-13T13:55:00.000Z</time>
      </trkpt>
      <trkpt lat="43.77936" lon="7.24817">
        <ele>606</ele>
        <time>2018-05-13T13:55:01.000Z</time>
      </trkpt>
      <trkpt lat="43.77934" lon="7.24816">
        <ele>607</ele>
        <time>2018-05-13T13:55:06.000Z</time>
      </trkpt>
      <trkpt lat="43.77933" lon="7.24817">
        <ele>607</ele>
        <time>2018-05-13T13:55:07.000Z</time>
      </trkpt>
      <trkpt lat="43.7793" lon="7.24817">
        <ele>608</ele>
        <time>2018-05-13T13:55:12.000Z</time>
      </trkpt>
      <trkpt lat="43.7793" lon="7.24817">
        <ele>608</ele>
        <time>2018-05-13T13:55:13.000Z</time>
      </trkpt>
      <trkpt lat="43.77928" lon="7.24815">
        <ele>608</ele>
        <time>2018-05-13T13:55:18.000Z</time>
      </trkpt>
      <trkpt lat="43.77924" lon="7.24813">
        <ele>608</ele>
        <time>2018-05-13T13:55:23.000Z</time>
      </trkpt>
      <trkpt lat="43.77924" lon="7.24812">
        <ele>608</ele>
        <time>2018-05-13T13:55:24.000Z</time>
      </trkpt>
      <trkpt lat="43.77921" lon="7.24811">
        <ele>608</ele>
        <time>2018-05-13T13:55:28.000Z</time>
      </trkpt>
      <trkpt lat="43.77918" lon="7.24811">
        <ele>608</ele>
        <time>2018-05-13T13:55:32.000Z</time>
      </trkpt>
      <trkpt lat="43.77917" lon="7.24811">
        <ele>608</ele>
        <time>2018-05-13T13:55:34.000Z</time>
      </trkpt>
      <trkpt lat="43.77914" lon="7.2481">
        <ele>617</ele>
        <time>2018-05-13T13:55:39.000Z</time>
      </trkpt>
      <trkpt lat="43.77914" lon="7.24809">
        <ele>617</ele>
        <time>2018-05-13T13:55:40.000Z</time>
      </trkpt>
      <trkpt lat="43.77911" lon="7.24807">
        <ele>617</ele>
        <time>2018-05-13T13:55:45.000Z</time>
      </trkpt>
      <trkpt lat="43.7791" lon="7.24806">
        <ele>617</ele>
        <time>2018-05-13T13:55:47.000Z</time>
      </trkpt>
      <trkpt lat="43.77908" lon="7.24806">
        <ele>617</ele>
        <time>2018-05-13T13:55:51.000Z</time>
      </trkpt>
      <trkpt lat="43.77906" lon="7.24806">
        <ele>618</ele>
        <time>2018-05-13T13:55:54.000Z</time>
      </trkpt>
      <trkpt lat="43.77905" lon="7.24807">
        <ele>618</ele>
        <time>2018-05-13T13:55:56.000Z</time>
      </trkpt>
      <trkpt lat="43.77903" lon="7.24809">
        <ele>618</ele>
        <time>2018-05-13T13:56:01.000Z</time>
      </trkpt>
      <trkpt lat="43.77901" lon="7.24811">
        <ele>618</ele>
        <time>2018-05-13T13:56:04.000Z</time>
      </trkpt>
      <trkpt lat="43.779" lon="7.24811">
        <ele>618</ele>
        <time>2018-05-13T13:56:06.000Z</time>
      </trkpt>
      <trkpt lat="43.77896" lon="7.24814">
        <ele>618</ele>
        <time>2018-05-13T13:56:12.000Z</time>
      </trkpt>
      <trkpt lat="43.77896" lon="7.24814">
        <ele>618</ele>
        <time>2018-05-13T13:56:13.000Z</time>
      </trkpt>
      <trkpt lat="43.77895" lon="7.24816">
        <ele>619</ele>
        <time>2018-05-13T13:56:15.000Z</time>
      </trkpt>
      <trkpt lat="43.77893" lon="7.24818">
        <ele>619</ele>
        <time>2018-05-13T13:56:18.000Z</time>
      </trkpt>
      <trkpt lat="43.7789" lon="7.24819">
        <ele>619</ele>
        <time>2018-05-13T13:56:24.000Z</time>
      </trkpt>
      <trkpt lat="43.77889" lon="7.2482">
        <ele>619</ele>
        <time>2018-05-13T13:56:26.000Z</time>
      </trkpt>
      <trkpt lat="43.77887" lon="7.24821">
        <ele>619</ele>
        <time>2018-05-13T13:56:31.000Z</time>
      </trkpt>
      <trkpt lat="43.77885" lon="7.24823">
        <ele>620</ele>
        <time>2018-05-13T13:56:34.000Z</time>
      </trkpt>
      <trkpt lat="43.77883" lon="7.24826">
        <ele>620</ele>
        <time>2018-05-13T13:56:38.000Z</time>
      </trkpt>
      <trkpt lat="43.77883" lon="7.24827">
        <ele>620</ele>
        <time>2018-05-13T13:56:40.000Z</time>
      </trkpt>
      <trkpt lat="43.77881" lon="7.24828">
        <ele>620</ele>
        <time>2018-05-13T13:56:43.000Z</time>
      </trkpt>
      <trkpt lat="43.7788" lon="7.24829">
        <ele>620</ele>
        <time>2018-05-13T13:56:44.000Z</time>
      </trkpt>
      <trkpt lat="43.77879" lon="7.2483">
        <ele>621</ele>
        <time>2018-05-13T13:56:47.000Z</time>
      </trkpt>
      <trkpt lat="43.77877" lon="7.24832">
        <ele>621</ele>
        <time>2018-05-13T13:56:51.000Z</time>
      </trkpt>
      <trkpt lat="43.77875" lon="7.24833">
        <ele>621</ele>
        <time>2018-05-13T13:56:55.000Z</time>
      </trkpt>
      <trkpt lat="43.77873" lon="7.24834">
        <ele>630</ele>
        <time>2018-05-13T13:56:58.000Z</time>
      </trkpt>
      <trkpt lat="43.7787" lon="7.24835">
        <ele>630</ele>
        <time>2018-05-13T13:57:02.000Z</time>
      </trkpt>
      <trkpt lat="43.7787" lon="7.24835">
        <ele>630</ele>
        <time>2018-05-13T13:57:03.000Z</time>
      </trkpt>
      <trkpt lat="43.77867" lon="7.24837">
        <ele>631</ele>
        <time>2018-05-13T13:57:09.000Z</time>
      </trkpt>
      <trkpt lat="43.77866" lon="7.24837">
        <ele>631</ele>
        <time>2018-05-13T13:57:10.000Z</time>
      </trkpt>
      <trkpt lat="43.77863" lon="7.2484">
        <ele>632</ele>
        <time>2018-05-13T13:57:16.000Z</time>
      </trkpt>
      <trkpt lat="43.77863" lon="7.2484">
        <ele>632</ele>
        <time>2018-05-13T13:57:17.000Z</time>
      </trkpt>
      <trkpt lat="43.77859" lon="7.24843">
        <ele>632</ele>
        <time>2018-05-13T13:57:23.000Z</time>
      </trkpt>
      <trkpt lat="43.77857" lon="7.24844">
        <ele>632</ele>
        <time>2018-05-13T13:57:28.000Z</time>
      </trkpt>
      <trkpt lat="43.77855" lon="7.24846">
        <ele>633</ele>
        <time>2018-05-13T13:57:30.000Z</time>
      </trkpt>
      <trkpt lat="43.77853" lon="7.2485">
        <ele>633</ele>
        <time>2018-05-13T13:57:35.000Z</time>
      </trkpt>
      <trkpt lat="43.77851" lon="7.24854">
        <ele>633</ele>
        <time>2018-05-13T13:57:41.000Z</time>
      </trkpt>
      <trkpt lat="43.77849" lon="7.24855">
        <ele>633</ele>
        <time>2018-05-13T13:57:44.000Z</time>
      </trkpt>
      <trkpt lat="43.77847" lon="7.24856">
        <ele>633</ele>
        <time>2018-05-13T13:57:47.000Z</time>
      </trkpt>
      <trkpt lat="43.77845" lon="7.24857">
        <ele>634</ele>
        <time>2018-05-13T13:57:52.000Z</time>
      </trkpt>
      <trkpt lat="43.77842" lon="7.24858">
        <ele>634</ele>
        <time>2018-05-13T13:57:57.000Z</time>
      </trkpt>
      <trkpt lat="43.77842" lon="7.24858">
        <ele>634</ele>
        <time>2018-05-13T13:57:59.000Z</time>
      </trkpt>
      <trkpt lat="43.77838" lon="7.24859">
        <ele>634</ele>
        <time>2018-05-13T13:58:04.000Z</time>
      </trkpt>
      <trkpt lat="43.77838" lon="7.24859">
        <ele>634</ele>
        <time>2018-05-13T13:58:05.000Z</time>
      </trkpt>
      <trkpt lat="43.77834" lon="7.2486">
        <ele>634</ele>
        <time>2018-05-13T13:58:11.000Z</time>
      </trkpt>
      <trkpt lat="43.77834" lon="7.2486">
        <ele>634</ele>
        <time>2018-05-13T13:58:12.000Z</time>
      </trkpt>
      <trkpt lat="43.77831" lon="7.24862">
        <ele>642</ele>
        <time>2018-05-13T13:58:17.000Z</time>
      </trkpt>
      <trkpt lat="43.77827" lon="7.24865">
        <ele>643</ele>
        <time>2018-05-13T13:58:24.000Z</time>
      </trkpt>
      <trkpt lat="43.77827" lon="7.24865">
        <ele>643</ele>
        <time>2018-05-13T13:58:25.000Z</time>
      </trkpt>
      <trkpt lat="43.77825" lon="7.24865">
        <ele>643</ele>
        <time>2018-05-13T13:58:28.000Z</time>
      </trkpt>
      <trkpt lat="43.77823" lon="7.24866">
        <ele>643</ele>
        <time>2018-05-13T13:58:31.000Z</time>
      </trkpt>
      <trkpt lat="43.77819" lon="7.24869">
        <ele>643</ele>
        <time>2018-05-13T13:58:37.000Z</time>
      </trkpt>
      <trkpt lat="43.77818" lon="7.2487">
        <ele>643</ele>
        <time>2018-05-13T13:58:38.000Z</time>
      </trkpt>
      <trkpt lat="43.77816" lon="7.24872">
        <ele>644</ele>
        <time>2018-05-13T13:58:43.000Z</time>
      </trkpt>
      <trkpt lat="43.77815" lon="7.24872">
        <ele>644</ele>
        <time>2018-05-13T13:58:44.000Z</time>
      </trkpt>
      <trkpt lat="43.77813" lon="7.24872">
        <ele>644</ele>
        <time>2018-05-13T13:58:46.000Z</time>
      </trkpt>
      <trkpt lat="43.77812" lon="7.24871">
        <ele>644</ele>
        <time>2018-05-13T13:58:49.000Z</time>
      </trkpt>
      <trkpt lat="43.77811" lon="7.2487">
        <ele>644</ele>
        <time>2018-05-13T13:58:50.000Z</time>
      </trkpt>
      <trkpt lat="43.7781" lon="7.2487">
        <ele>644</ele>
        <time>2018-05-13T13:58:51.000Z</time>
      </trkpt>
      <trkpt lat="43.77809" lon="7.24869">
        <ele>644</ele>
        <time>2018-05-13T13:58:54.000Z</time>
      </trkpt>
      <trkpt lat="43.77806" lon="7.2487">
        <ele>644</ele>
        <time>2018-05-13T13:58:58.000Z</time>
      </trkpt>
      <trkpt lat="43.77804" lon="7.24869">
        <ele>644</ele>
        <time>2018-05-13T13:59:01.000Z</time>
      </trkpt>
      <trkpt lat="43.778" lon="7.24869">
        <ele>644</ele>
        <time>2018-05-13T13:59:06.000Z</time>
      </trkpt>
      <trkpt lat="43.77797" lon="7.2487">
        <ele>644</ele>
        <time>2018-05-13T13:59:10.000Z</time>
      </trkpt>
      <trkpt lat="43.77796" lon="7.2487">
        <ele>644</ele>
        <time>2018-05-13T13:59:11.000Z</time>
      </trkpt>
      <trkpt lat="43.77791" lon="7.24873">
        <ele>645</ele>
        <time>2018-05-13T13:59:17.000Z</time>
      </trkpt>
      <trkpt lat="43.7779" lon="7.24873">
        <ele>645</ele>
        <time>2018-05-13T13:59:18.000Z</time>
      </trkpt>
      <trkpt lat="43.77788" lon="7.24876">
        <ele>645</ele>
        <time>2018-05-13T13:59:22.000Z</time>
      </trkpt>
      <trkpt lat="43.77787" lon="7.24876">
        <ele>645</ele>
        <time>2018-05-13T13:59:23.000Z</time>
      </trkpt>
      <trkpt lat="43.77787" lon="7.24877">
        <ele>645</ele>
        <time>2018-05-13T13:59:29.000Z</time>
      </trkpt>
      <trkpt lat="43.77787" lon="7.24877">
        <ele>645</ele>
        <time>2018-05-13T13:59:39.000Z</time>
      </trkpt>
      <trkpt lat="43.77787" lon="7.24878">
        <ele>646</ele>
        <time>2018-05-13T13:59:51.000Z</time>
      </trkpt>
      <trkpt lat="43.77786" lon="7.24879">
        <ele>646</ele>
        <time>2018-05-13T14:00:06.000Z</time>
      </trkpt>
      <trkpt lat="43.77785" lon="7.24879">
        <ele>646</ele>
        <time>2018-05-13T14:00:08.000Z</time>
      </trkpt>
      <trkpt lat="43.77783" lon="7.24881">
        <ele>646</ele>
        <time>2018-05-13T14:00:11.000Z</time>
      </trkpt>
      <trkpt lat="43.77781" lon="7.24883">
        <ele>646</ele>
        <time>2018-05-13T14:00:13.000Z</time>
      </trkpt>
      <trkpt lat="43.7778" lon="7.24884">
        <ele>647</ele>
        <time>2018-05-13T14:00:14.000Z</time>
      </trkpt>
      <trkpt lat="43.77779" lon="7.24888">
        <ele>647</ele>
        <time>2018-05-13T14:00:17.000Z</time>
      </trkpt>
      <trkpt lat="43.77778" lon="7.2489">
        <ele>648</ele>
        <time>2018-05-13T14:00:18.000Z</time>
      </trkpt>
      <trkpt lat="43.77775" lon="7.24892">
        <ele>648</ele>
        <time>2018-05-13T14:00:23.000Z</time>
      </trkpt>
      <trkpt lat="43.77768" lon="7.24897">
        <ele>650</ele>
        <time>2018-05-13T14:00:30.000Z</time>
      </trkpt>
      <trkpt lat="43.77761" lon="7.24899">
        <ele>651</ele>
        <time>2018-05-13T14:00:36.000Z</time>
      </trkpt>
      <trkpt lat="43.7775" lon="7.24903">
        <ele>653</ele>
        <time>2018-05-13T14:00:41.000Z</time>
      </trkpt>
      <trkpt lat="43.77742" lon="7.24905">
        <ele>655</ele>
        <time>2018-05-13T14:00:44.000Z</time>
      </trkpt>
      <trkpt lat="43.77725" lon="7.24913">
        <ele>653</ele>
        <time>2018-05-13T14:00:50.000Z</time>
      </trkpt>
      <trkpt lat="43.77709" lon="7.24922">
        <ele>667</ele>
        <time>2018-05-13T14:00:56.000Z</time>
      </trkpt>
      <trkpt lat="43.77691" lon="7.24923">
        <ele>666</ele>
        <time>2018-05-13T14:01:02.000Z</time>
      </trkpt>
      <trkpt lat="43.77675" lon="7.24914">
        <ele>655</ele>
        <time>2018-05-13T14:01:08.000Z</time>
      </trkpt>
      <trkpt lat="43.77661" lon="7.24908">
        <ele>655</ele>
        <time>2018-05-13T14:01:15.000Z</time>
      </trkpt>
      <trkpt lat="43.77652" lon="7.24909">
        <ele>654</ele>
        <time>2018-05-13T14:01:20.000Z</time>
      </trkpt>
      <trkpt lat="43.77647" lon="7.24909">
        <ele>654</ele>
        <time>2018-05-13T14:01:23.000Z</time>
      </trkpt>
      <trkpt lat="43.77642" lon="7.2491">
        <ele>653</ele>
        <time>2018-05-13T14:01:26.000Z</time>
      </trkpt>
      <trkpt lat="43.7764" lon="7.24909">
        <ele>653</ele>
        <time>2018-05-13T14:01:27.000Z</time>
      </trkpt>
      <trkpt lat="43.77634" lon="7.24908">
        <ele>653</ele>
        <time>2018-05-13T14:01:31.000Z</time>
      </trkpt>
      <trkpt lat="43.77631" lon="7.2491">
        <ele>653</ele>
        <time>2018-05-13T14:01:33.000Z</time>
      </trkpt>
      <trkpt lat="43.77624" lon="7.24911">
        <ele>653</ele>
        <time>2018-05-13T14:01:38.000Z</time>
      </trkpt>
      <trkpt lat="43.77623" lon="7.24911">
        <ele>653</ele>
        <time>2018-05-13T14:01:39.000Z</time>
      </trkpt>
      <trkpt lat="43.77613" lon="7.2491">
        <ele>653</ele>
        <time>2018-05-13T14:01:45.000Z</time>
      </trkpt>
      <trkpt lat="43.77611" lon="7.2491">
        <ele>654</ele>
        <time>2018-05-13T14:01:46.000Z</time>
      </trkpt>
      <trkpt lat="43.77599" lon="7.24912">
        <ele>656</ele>
        <time>2018-05-13T14:01:53.000Z</time>
      </trkpt>
      <trkpt lat="43.77585" lon="7.24918">
        <ele>662</ele>
        <time>2018-05-13T14:01:59.000Z</time>
      </trkpt>
      <trkpt lat="43.77568" lon="7.24922">
        <ele>665</ele>
        <time>2018-05-13T14:02:04.000Z</time>
      </trkpt>
      <trkpt lat="43.77567" lon="7.24923">
        <ele>666</ele>
        <time>2018-05-13T14:02:05.000Z</time>
      </trkpt>
      <trkpt lat="43.77553" lon="7.24928">
        <ele>667</ele>
        <time>2018-05-13T14:02:11.000Z</time>
      </trkpt>
      <trkpt lat="43.77541" lon="7.2493">
        <ele>667</ele>
        <time>2018-05-13T14:02:16.000Z</time>
      </trkpt>
      <trkpt lat="43.77529" lon="7.24933">
        <ele>667</ele>
        <time>2018-05-13T14:02:21.000Z</time>
      </trkpt>
      <trkpt lat="43.77514" lon="7.24937">
        <ele>666</ele>
        <time>2018-05-13T14:02:27.000Z</time>
      </trkpt>
      <trkpt lat="43.77504" lon="7.24938">
        <ele>665</ele>
        <time>2018-05-13T14:02:31.000Z</time>
      </trkpt>
      <trkpt lat="43.77502" lon="7.24939">
        <ele>665</ele>
        <time>2018-05-13T14:02:32.000Z</time>
      </trkpt>
      <trkpt lat="43.77484" lon="7.24942">
        <ele>665</ele>
        <time>2018-05-13T14:02:39.000Z</time>
      </trkpt>
      <trkpt lat="43.77477" lon="7.24942">
        <ele>666</ele>
        <time>2018-05-13T14:02:42.000Z</time>
      </trkpt>
      <trkpt lat="43.77468" lon="7.24944">
        <ele>667</ele>
        <time>2018-05-13T14:02:46.000Z</time>
      </trkpt>
      <trkpt lat="43.77462" lon="7.24944">
        <ele>667</ele>
        <time>2018-05-13T14:02:49.000Z</time>
      </trkpt>
      <trkpt lat="43.77455" lon="7.24944">
        <ele>667</ele>
        <time>2018-05-13T14:02:52.000Z</time>
      </trkpt>
      <trkpt lat="43.77453" lon="7.24944">
        <ele>667</ele>
        <time>2018-05-13T14:02:53.000Z</time>
      </trkpt>
      <trkpt lat="43.77442" lon="7.24941">
        <ele>666</ele>
        <time>2018-05-13T14:02:58.000Z</time>
      </trkpt>
      <trkpt lat="43.77435" lon="7.24942">
        <ele>666</ele>
        <time>2018-05-13T14:03:03.000Z</time>
      </trkpt>
      <trkpt lat="43.77435" lon="7.24943">
        <ele>666</ele>
        <time>2018-05-13T14:03:04.000Z</time>
      </trkpt>
      <trkpt lat="43.77432" lon="7.24946">
        <ele>666</ele>
        <time>2018-05-13T14:03:10.000Z</time>
      </trkpt>
      <trkpt lat="43.7743" lon="7.24947">
        <ele>667</ele>
        <time>2018-05-13T14:03:12.000Z</time>
      </trkpt>
      <trkpt lat="43.77427" lon="7.24949">
        <ele>667</ele>
        <time>2018-05-13T14:03:17.000Z</time>
      </trkpt>
      <trkpt lat="43.77425" lon="7.24949">
        <ele>667</ele>
        <time>2018-05-13T14:03:18.000Z</time>
      </trkpt>
      <trkpt lat="43.7742" lon="7.24951">
        <ele>667</ele>
        <time>2018-05-13T14:03:23.000Z</time>
      </trkpt>
      <trkpt lat="43.77419" lon="7.24953">
        <ele>668</ele>
        <time>2018-05-13T14:03:25.000Z</time>
      </trkpt>
      <trkpt lat="43.77419" lon="7.24954">
        <ele>668</ele>
        <time>2018-05-13T14:03:26.000Z</time>
      </trkpt>
      <trkpt lat="43.77414" lon="7.24957">
        <ele>670</ele>
        <time>2018-05-13T14:03:32.000Z</time>
      </trkpt>
      <trkpt lat="43.77413" lon="7.24957">
        <ele>670</ele>
        <time>2018-05-13T14:03:33.000Z</time>
      </trkpt>
      <trkpt lat="43.77408" lon="7.24959">
        <ele>671</ele>
        <time>2018-05-13T14:03:38.000Z</time>
      </trkpt>
      <trkpt lat="43.77406" lon="7.2496">
        <ele>671</ele>
        <time>2018-05-13T14:03:40.000Z</time>
      </trkpt>
      <trkpt lat="43.77403" lon="7.24962">
        <ele>671</ele>
        <time>2018-05-13T14:03:45.000Z</time>
      </trkpt>
      <trkpt lat="43.77399" lon="7.2496">
        <ele>671</ele>
        <time>2018-05-13T14:03:49.000Z</time>
      </trkpt>
      <trkpt lat="43.77388" lon="7.24957">
        <ele>670</ele>
        <time>2018-05-13T14:03:55.000Z</time>
      </trkpt>
      <trkpt lat="43.7738" lon="7.2496">
        <ele>671</ele>
        <time>2018-05-13T14:04:00.000Z</time>
      </trkpt>
      <trkpt lat="43.77378" lon="7.24961">
        <ele>671</ele>
        <time>2018-05-13T14:04:01.000Z</time>
      </trkpt>
      <trkpt lat="43.77374" lon="7.24961">
        <ele>671</ele>
        <time>2018-05-13T14:04:03.000Z</time>
      </trkpt>
      <trkpt lat="43.77371" lon="7.24961">
        <ele>671</ele>
        <time>2018-05-13T14:04:05.000Z</time>
      </trkpt>
      <trkpt lat="43.77366" lon="7.24963">
        <ele>672</ele>
        <time>2018-05-13T14:04:10.000Z</time>
      </trkpt>
      <trkpt lat="43.77365" lon="7.24963">
        <ele>672</ele>
        <time>2018-05-13T14:04:17.000Z</time>
      </trkpt>
      <trkpt lat="43.77364" lon="7.24964">
        <ele>672</ele>
        <time>2018-05-13T14:04:18.000Z</time>
      </trkpt>
      <trkpt lat="43.77359" lon="7.24966">
        <ele>672</ele>
        <time>2018-05-13T14:04:22.000Z</time>
      </trkpt>
      <trkpt lat="43.77356" lon="7.24967">
        <ele>673</ele>
        <time>2018-05-13T14:04:24.000Z</time>
      </trkpt>
      <trkpt lat="43.77355" lon="7.24967">
        <ele>673</ele>
        <time>2018-05-13T14:04:25.000Z</time>
      </trkpt>
      <trkpt lat="43.77355" lon="7.24967">
        <ele>673</ele>
        <time>2018-05-13T14:04:26.000Z</time>
      </trkpt>
      <trkpt lat="43.77352" lon="7.24967">
        <ele>673</ele>
        <time>2018-05-13T14:04:32.000Z</time>
      </trkpt>
      <trkpt lat="43.77347" lon="7.2497">
        <ele>674</ele>
        <time>2018-05-13T14:04:39.000Z</time>
      </trkpt>
      <trkpt lat="43.7734" lon="7.24967">
        <ele>673</ele>
        <time>2018-05-13T14:04:43.000Z</time>
      </trkpt>
      <trkpt lat="43.7733" lon="7.24966">
        <ele>674</ele>
        <time>2018-05-13T14:04:49.000Z</time>
      </trkpt>
      <trkpt lat="43.77317" lon="7.24968">
        <ele>674</ele>
        <time>2018-05-13T14:04:56.000Z</time>
      </trkpt>
      <trkpt lat="43.77306" lon="7.24968">
        <ele>673</ele>
        <time>2018-05-13T14:05:02.000Z</time>
      </trkpt>
      <trkpt lat="43.77304" lon="7.24968">
        <ele>673</ele>
        <time>2018-05-13T14:05:03.000Z</time>
      </trkpt>
      <trkpt lat="43.77304" lon="7.24968">
        <ele>673</ele>
        <time>2018-05-13T14:05:04.000Z</time>
      </trkpt>
      <trkpt lat="43.77303" lon="7.24968">
        <ele>673</ele>
        <time>2018-05-13T14:05:08.000Z</time>
      </trkpt>
      <trkpt lat="43.77301" lon="7.24969">
        <ele>673</ele>
        <time>2018-05-13T14:05:10.000Z</time>
      </trkpt>
      <trkpt lat="43.77297" lon="7.24969">
        <ele>673</ele>
        <time>2018-05-13T14:05:14.000Z</time>
      </trkpt>
      <trkpt lat="43.77296" lon="7.2497">
        <ele>673</ele>
        <time>2018-05-13T14:05:17.000Z</time>
      </trkpt>
      <trkpt lat="43.77293" lon="7.2497">
        <ele>674</ele>
        <time>2018-05-13T14:05:20.000Z</time>
      </trkpt>
      <trkpt lat="43.77289" lon="7.24971">
        <ele>674</ele>
        <time>2018-05-13T14:05:26.000Z</time>
      </trkpt>
      <trkpt lat="43.77287" lon="7.24971">
        <ele>674</ele>
        <time>2018-05-13T14:05:32.000Z</time>
      </trkpt>
      <trkpt lat="43.77285" lon="7.24972">
        <ele>674</ele>
        <time>2018-05-13T14:05:35.000Z</time>
      </trkpt>
      <trkpt lat="43.77282" lon="7.24971">
        <ele>674</ele>
        <time>2018-05-13T14:05:38.000Z</time>
      </trkpt>
      <trkpt lat="43.77271" lon="7.24972">
        <ele>674</ele>
        <time>2018-05-13T14:05:44.000Z</time>
      </trkpt>
      <trkpt lat="43.77255" lon="7.24974">
        <ele>676</ele>
        <time>2018-05-13T14:05:52.000Z</time>
      </trkpt>
      <trkpt lat="43.77251" lon="7.24974">
        <ele>676</ele>
        <time>2018-05-13T14:05:54.000Z</time>
      </trkpt>
      <trkpt lat="43.77239" lon="7.24978">
        <ele>675</ele>
        <time>2018-05-13T14:06:00.000Z</time>
      </trkpt>
      <trkpt lat="43.77235" lon="7.24979">
        <ele>675</ele>
        <time>2018-05-13T14:06:02.000Z</time>
      </trkpt>
      <trkpt lat="43.77225" lon="7.24982">
        <ele>675</ele>
        <time>2018-05-13T14:06:07.000Z</time>
      </trkpt>
      <trkpt lat="43.77215" lon="7.24985">
        <ele>675</ele>
        <time>2018-05-13T14:06:12.000Z</time>
      </trkpt>
      <trkpt lat="43.77211" lon="7.24986">
        <ele>674</ele>
        <time>2018-05-13T14:06:14.000Z</time>
      </trkpt>
      <trkpt lat="43.77194" lon="7.24988">
        <ele>675</ele>
        <time>2018-05-13T14:06:21.000Z</time>
      </trkpt>
      <trkpt lat="43.77176" lon="7.24989">
        <ele>678</ele>
        <time>2018-05-13T14:06:27.000Z</time>
      </trkpt>
      <trkpt lat="43.77161" lon="7.24991">
        <ele>679</ele>
        <time>2018-05-13T14:06:32.000Z</time>
      </trkpt>
      <trkpt lat="43.77145" lon="7.24992">
        <ele>676</ele>
        <time>2018-05-13T14:06:38.000Z</time>
      </trkpt>
      <trkpt lat="43.77128" lon="7.24993">
        <ele>674</ele>
        <time>2018-05-13T14:06:44.000Z</time>
      </trkpt>
      <trkpt lat="43.77116" lon="7.24992">
        <ele>674</ele>
        <time>2018-05-13T14:06:48.000Z</time>
      </trkpt>
      <trkpt lat="43.77099" lon="7.24993">
        <ele>676</ele>
        <time>2018-05-13T14:06:54.000Z</time>
      </trkpt>
      <trkpt lat="43.77084" lon="7.24995">
        <ele>679</ele>
        <time>2018-05-13T14:06:59.000Z</time>
      </trkpt>
      <trkpt lat="43.77081" lon="7.24994">
        <ele>680</ele>
        <time>2018-05-13T14:07:00.000Z</time>
      </trkpt>
      <trkpt lat="43.77072" lon="7.24989">
        <ele>677</ele>
        <time>2018-05-13T14:07:03.000Z</time>
      </trkpt>
      <trkpt lat="43.77067" lon="7.24986">
        <ele>676</ele>
        <time>2018-05-13T14:07:05.000Z</time>
      </trkpt>
      <trkpt lat="43.77062" lon="7.24983">
        <ele>675</ele>
        <time>2018-05-13T14:07:07.000Z</time>
      </trkpt>
      <trkpt lat="43.77049" lon="7.24972">
        <ele>673</ele>
        <time>2018-05-13T14:07:12.000Z</time>
      </trkpt>
      <trkpt lat="43.77031" lon="7.24967">
        <ele>673</ele>
        <time>2018-05-13T14:07:18.000Z</time>
      </trkpt>
      <trkpt lat="43.77023" lon="7.24968">
        <ele>674</ele>
        <time>2018-05-13T14:07:22.000Z</time>
      </trkpt>
      <trkpt lat="43.7702" lon="7.24972">
        <ele>675</ele>
        <time>2018-05-13T14:07:28.000Z</time>
      </trkpt>
      <trkpt lat="43.77018" lon="7.24974">
        <ele>675</ele>
        <time>2018-05-13T14:07:31.000Z</time>
      </trkpt>
      <trkpt lat="43.77015" lon="7.24976">
        <ele>676</ele>
        <time>2018-05-13T14:07:36.000Z</time>
      </trkpt>
      <trkpt lat="43.77012" lon="7.24978">
        <ele>676</ele>
        <time>2018-05-13T14:07:39.000Z</time>
      </trkpt>
      <trkpt lat="43.7701" lon="7.2498">
        <ele>677</ele>
        <time>2018-05-13T14:07:42.000Z</time>
      </trkpt>
      <trkpt lat="43.77005" lon="7.24982">
        <ele>678</ele>
        <time>2018-05-13T14:07:47.000Z</time>
      </trkpt>
      <trkpt lat="43.76993" lon="7.24988">
        <ele>678</ele>
        <time>2018-05-13T14:07:53.000Z</time>
      </trkpt>
      <trkpt lat="43.76978" lon="7.24994">
        <ele>675</ele>
        <time>2018-05-13T14:07:59.000Z</time>
      </trkpt>
      <trkpt lat="43.7696" lon="7.25">
        <ele>673</ele>
        <time>2018-05-13T14:08:04.000Z</time>
      </trkpt>
      <trkpt lat="43.76955" lon="7.25002">
        <ele>682</ele>
        <time>2018-05-13T14:08:06.000Z</time>
      </trkpt>
      <trkpt lat="43.76953" lon="7.25003">
        <ele>682</ele>
        <time>2018-05-13T14:08:07.000Z</time>
      </trkpt>
      <trkpt lat="43.76948" lon="7.25004">
        <ele>682</ele>
        <time>2018-05-13T14:08:12.000Z</time>
      </trkpt>
      <trkpt lat="43.76946" lon="7.25005">
        <ele>681</ele>
        <time>2018-05-13T14:08:17.000Z</time>
      </trkpt>
      <trkpt lat="43.76943" lon="7.25006">
        <ele>681</ele>
        <time>2018-05-13T14:08:22.000Z</time>
      </trkpt>
      <trkpt lat="43.76942" lon="7.25005">
        <ele>681</ele>
        <time>2018-05-13T14:08:23.000Z</time>
      </trkpt>
      <trkpt lat="43.76941" lon="7.25005">
        <ele>680</ele>
        <time>2018-05-13T14:08:24.000Z</time>
      </trkpt>
      <trkpt lat="43.76938" lon="7.25007">
        <ele>680</ele>
        <time>2018-05-13T14:08:28.000Z</time>
      </trkpt>
      <trkpt lat="43.76931" lon="7.25009">
        <ele>679</ele>
        <time>2018-05-13T14:08:31.000Z</time>
      </trkpt>
      <trkpt lat="43.76928" lon="7.2501">
        <ele>678</ele>
        <time>2018-05-13T14:08:32.000Z</time>
      </trkpt>
      <trkpt lat="43.76919" lon="7.25016">
        <ele>679</ele>
        <time>2018-05-13T14:08:35.000Z</time>
      </trkpt>
      <trkpt lat="43.76913" lon="7.2502">
        <ele>672</ele>
        <time>2018-05-13T14:08:37.000Z</time>
      </trkpt>
      <trkpt lat="43.76901" lon="7.25028">
        <ele>672</ele>
        <time>2018-05-13T14:08:41.000Z</time>
      </trkpt>
      <trkpt lat="43.76892" lon="7.2503">
        <ele>672</ele>
        <time>2018-05-13T14:08:43.000Z</time>
      </trkpt>
      <trkpt lat="43.76887" lon="7.25031">
        <ele>672</ele>
        <time>2018-05-13T14:08:44.000Z</time>
      </trkpt>
      <trkpt lat="43.76871" lon="7.25033">
        <ele>671</ele>
        <time>2018-05-13T14:08:47.000Z</time>
      </trkpt>
      <trkpt lat="43.76866" lon="7.25033">
        <ele>670</ele>
        <time>2018-05-13T14:08:48.000Z</time>
      </trkpt>
      <trkpt lat="43.76857" lon="7.25036">
        <ele>670</ele>
        <time>2018-05-13T14:08:50.000Z</time>
      </trkpt>
      <trkpt lat="43.76853" lon="7.2504">
        <ele>670</ele>
        <time>2018-05-13T14:08:51.000Z</time>
      </trkpt>
      <trkpt lat="43.76851" lon="7.25045">
        <ele>669</ele>
        <time>2018-05-13T14:08:52.000Z</time>
      </trkpt>
      <trkpt lat="43.76844" lon="7.25051">
        <ele>669</ele>
        <time>2018-05-13T14:08:54.000Z</time>
      </trkpt>
      <trkpt lat="43.7684" lon="7.25052">
        <ele>668</ele>
        <time>2018-05-13T14:08:55.000Z</time>
      </trkpt>
      <trkpt lat="43.76834" lon="7.25051">
        <ele>668</ele>
        <time>2018-05-13T14:08:56.000Z</time>
      </trkpt>
      <trkpt lat="43.76823" lon="7.25048">
        <ele>662</ele>
        <time>2018-05-13T14:08:58.000Z</time>
      </trkpt>
      <trkpt lat="43.76817" lon="7.25046">
        <ele>662</ele>
        <time>2018-05-13T14:08:59.000Z</time>
      </trkpt>
      <trkpt lat="43.76806" lon="7.2504">
        <ele>662</ele>
        <time>2018-05-13T14:09:01.000Z</time>
      </trkpt>
      <trkpt lat="43.76801" lon="7.25036">
        <ele>662</ele>
        <time>2018-05-13T14:09:02.000Z</time>
      </trkpt>
      <trkpt lat="43.76797" lon="7.25034">
        <ele>662</ele>
        <time>2018-05-13T14:09:03.000Z</time>
      </trkpt>
      <trkpt lat="43.76791" lon="7.25031">
        <ele>662</ele>
        <time>2018-05-13T14:09:05.000Z</time>
      </trkpt>
      <trkpt lat="43.76783" lon="7.25035">
        <ele>661</ele>
        <time>2018-05-13T14:09:07.000Z</time>
      </trkpt>
      <trkpt lat="43.76774" lon="7.25039">
        <ele>661</ele>
        <time>2018-05-13T14:09:09.000Z</time>
      </trkpt>
      <trkpt lat="43.76759" lon="7.25045">
        <ele>660</ele>
        <time>2018-05-13T14:09:12.000Z</time>
      </trkpt>
      <trkpt lat="43.76749" lon="7.25049">
        <ele>653</ele>
        <time>2018-05-13T14:09:14.000Z</time>
      </trkpt>
      <trkpt lat="43.76742" lon="7.25051">
        <ele>653</ele>
        <time>2018-05-13T14:09:16.000Z</time>
      </trkpt>
      <trkpt lat="43.76739" lon="7.25053">
        <ele>653</ele>
        <time>2018-05-13T14:09:17.000Z</time>
      </trkpt>
      <trkpt lat="43.76734" lon="7.25056">
        <ele>652</ele>
        <time>2018-05-13T14:09:19.000Z</time>
      </trkpt>
      <trkpt lat="43.76731" lon="7.25057">
        <ele>652</ele>
        <time>2018-05-13T14:09:20.000Z</time>
      </trkpt>
      <trkpt lat="43.76727" lon="7.25057">
        <ele>652</ele>
        <time>2018-05-13T14:09:21.000Z</time>
      </trkpt>
      <trkpt lat="43.76722" lon="7.25056">
        <ele>652</ele>
        <time>2018-05-13T14:09:23.000Z</time>
      </trkpt>
      <trkpt lat="43.76716" lon="7.25054">
        <ele>651</ele>
        <time>2018-05-13T14:09:25.000Z</time>
      </trkpt>
      <trkpt lat="43.76709" lon="7.25054">
        <ele>651</ele>
        <time>2018-05-13T14:09:27.000Z</time>
      </trkpt>
      <trkpt lat="43.76705" lon="7.25054">
        <ele>651</ele>
        <time>2018-05-13T14:09:28.000Z</time>
      </trkpt>
      <trkpt lat="43.76701" lon="7.25054">
        <ele>650</ele>
        <time>2018-05-13T14:09:29.000Z</time>
      </trkpt>
      <trkpt lat="43.76697" lon="7.25051">
        <ele>650</ele>
        <time>2018-05-13T14:09:30.000Z</time>
      </trkpt>
      <trkpt lat="43.76692" lon="7.25049">
        <ele>650</ele>
        <time>2018-05-13T14:09:31.000Z</time>
      </trkpt>
      <trkpt lat="43.76688" lon="7.25048">
        <ele>650</ele>
        <time>2018-05-13T14:09:32.000Z</time>
      </trkpt>
      <trkpt lat="43.76682" lon="7.25054">
        <ele>649</ele>
        <time>2018-05-13T14:09:34.000Z</time>
      </trkpt>
      <trkpt lat="43.76678" lon="7.25066">
        <ele>648</ele>
        <time>2018-05-13T14:09:36.000Z</time>
      </trkpt>
      <trkpt lat="43.76673" lon="7.25076">
        <ele>647</ele>
        <time>2018-05-13T14:09:38.000Z</time>
      </trkpt>
      <trkpt lat="43.76671" lon="7.25081">
        <ele>647</ele>
        <time>2018-05-13T14:09:39.000Z</time>
      </trkpt>
      <trkpt lat="43.76667" lon="7.25089">
        <ele>646</ele>
        <time>2018-05-13T14:09:41.000Z</time>
      </trkpt>
      <trkpt lat="43.76663" lon="7.25091">
        <ele>643</ele>
        <time>2018-05-13T14:09:42.000Z</time>
      </trkpt>
      <trkpt lat="43.76659" lon="7.25092">
        <ele>643</ele>
        <time>2018-05-13T14:09:43.000Z</time>
      </trkpt>
      <trkpt lat="43.76654" lon="7.25093">
        <ele>642</ele>
        <time>2018-05-13T14:09:44.000Z</time>
      </trkpt>
      <trkpt lat="43.76643" lon="7.25095">
        <ele>640</ele>
        <time>2018-05-13T14:09:46.000Z</time>
      </trkpt>
      <trkpt lat="43.76639" lon="7.25095">
        <ele>640</ele>
        <time>2018-05-13T14:09:47.000Z</time>
      </trkpt>
      <trkpt lat="43.76635" lon="7.25095">
        <ele>639</ele>
        <time>2018-05-13T14:09:48.000Z</time>
      </trkpt>
      <trkpt lat="43.76623" lon="7.25097">
        <ele>638</ele>
        <time>2018-05-13T14:09:51.000Z</time>
      </trkpt>
      <trkpt lat="43.7661" lon="7.251">
        <ele>637</ele>
        <time>2018-05-13T14:09:54.000Z</time>
      </trkpt>
      <trkpt lat="43.76606" lon="7.25101">
        <ele>637</ele>
        <time>2018-05-13T14:09:55.000Z</time>
      </trkpt>
      <trkpt lat="43.76591" lon="7.25104">
        <ele>637</ele>
        <time>2018-05-13T14:09:59.000Z</time>
      </trkpt>
      <trkpt lat="43.76588" lon="7.25105">
        <ele>637</ele>
        <time>2018-05-13T14:10:00.000Z</time>
      </trkpt>
      <trkpt lat="43.76576" lon="7.25109">
        <ele>633</ele>
        <time>2018-05-13T14:10:03.000Z</time>
      </trkpt>
      <trkpt lat="43.76572" lon="7.25111">
        <ele>632</ele>
        <time>2018-05-13T14:10:04.000Z</time>
      </trkpt>
      <trkpt lat="43.76558" lon="7.25118">
        <ele>631</ele>
        <time>2018-05-13T14:10:07.000Z</time>
      </trkpt>
      <trkpt lat="43.76545" lon="7.25127">
        <ele>631</ele>
        <time>2018-05-13T14:10:10.000Z</time>
      </trkpt>
      <trkpt lat="43.76536" lon="7.25131">
        <ele>631</ele>
        <time>2018-05-13T14:10:12.000Z</time>
      </trkpt>
      <trkpt lat="43.76528" lon="7.25129">
        <ele>630</ele>
        <time>2018-05-13T14:10:14.000Z</time>
      </trkpt>
      <trkpt lat="43.76521" lon="7.25126">
        <ele>630</ele>
        <time>2018-05-13T14:10:16.000Z</time>
      </trkpt>
      <trkpt lat="43.76518" lon="7.25124">
        <ele>630</ele>
        <time>2018-05-13T14:10:17.000Z</time>
      </trkpt>
      <trkpt lat="43.76509" lon="7.25119">
        <ele>629</ele>
        <time>2018-05-13T14:10:20.000Z</time>
      </trkpt>
      <trkpt lat="43.76501" lon="7.25117">
        <ele>629</ele>
        <time>2018-05-13T14:10:22.000Z</time>
      </trkpt>
      <trkpt lat="43.7649" lon="7.25112">
        <ele>623</ele>
        <time>2018-05-13T14:10:25.000Z</time>
      </trkpt>
      <trkpt lat="43.76486" lon="7.25111">
        <ele>623</ele>
        <time>2018-05-13T14:10:26.000Z</time>
      </trkpt>
      <trkpt lat="43.76482" lon="7.25111">
        <ele>622</ele>
        <time>2018-05-13T14:10:27.000Z</time>
      </trkpt>
      <trkpt lat="43.76478" lon="7.25111">
        <ele>622</ele>
        <time>2018-05-13T14:10:28.000Z</time>
      </trkpt>
      <trkpt lat="43.76475" lon="7.25111">
        <ele>622</ele>
        <time>2018-05-13T14:10:29.000Z</time>
      </trkpt>
      <trkpt lat="43.76473" lon="7.25113">
        <ele>622</ele>
        <time>2018-05-13T14:10:30.000Z</time>
      </trkpt>
      <trkpt lat="43.76469" lon="7.25114">
        <ele>622</ele>
        <time>2018-05-13T14:10:31.000Z</time>
      </trkpt>
      <trkpt lat="43.76463" lon="7.25115">
        <ele>621</ele>
        <time>2018-05-13T14:10:33.000Z</time>
      </trkpt>
      <trkpt lat="43.76457" lon="7.25114">
        <ele>621</ele>
        <time>2018-05-13T14:10:35.000Z</time>
      </trkpt>
      <trkpt lat="43.76452" lon="7.25115">
        <ele>620</ele>
        <time>2018-05-13T14:10:36.000Z</time>
      </trkpt>
      <trkpt lat="43.76441" lon="7.25119">
        <ele>620</ele>
        <time>2018-05-13T14:10:39.000Z</time>
      </trkpt>
      <trkpt lat="43.76429" lon="7.25125">
        <ele>620</ele>
        <time>2018-05-13T14:10:43.000Z</time>
      </trkpt>
      <trkpt lat="43.7642" lon="7.25129">
        <ele>620</ele>
        <time>2018-05-13T14:10:47.000Z</time>
      </trkpt>
      <trkpt lat="43.76414" lon="7.2513">
        <ele>610</ele>
        <time>2018-05-13T14:10:49.000Z</time>
      </trkpt>
      <trkpt lat="43.76412" lon="7.25131">
        <ele>610</ele>
        <time>2018-05-13T14:10:50.000Z</time>
      </trkpt>
      <trkpt lat="43.76403" lon="7.25136">
        <ele>610</ele>
        <time>2018-05-13T14:10:53.000Z</time>
      </trkpt>
      <trkpt lat="43.76397" lon="7.2514">
        <ele>610</ele>
        <time>2018-05-13T14:10:56.000Z</time>
      </trkpt>
      <trkpt lat="43.76391" lon="7.25145">
        <ele>610</ele>
        <time>2018-05-13T14:10:58.000Z</time>
      </trkpt>
      <trkpt lat="43.76388" lon="7.25148">
        <ele>610</ele>
        <time>2018-05-13T14:10:59.000Z</time>
      </trkpt>
      <trkpt lat="43.76378" lon="7.25158">
        <ele>609</ele>
        <time>2018-05-13T14:11:02.000Z</time>
      </trkpt>
      <trkpt lat="43.76372" lon="7.25165">
        <ele>608</ele>
        <time>2018-05-13T14:11:04.000Z</time>
      </trkpt>
      <trkpt lat="43.76364" lon="7.25172">
        <ele>616</ele>
        <time>2018-05-13T14:11:07.000Z</time>
      </trkpt>
      <trkpt lat="43.7636" lon="7.25178">
        <ele>615</ele>
        <time>2018-05-13T14:11:09.000Z</time>
      </trkpt>
      <trkpt lat="43.7635" lon="7.25194">
        <ele>615</ele>
        <time>2018-05-13T14:11:13.000Z</time>
      </trkpt>
      <trkpt lat="43.76336" lon="7.25201">
        <ele>615</ele>
        <time>2018-05-13T14:11:18.000Z</time>
      </trkpt>
      <trkpt lat="43.76333" lon="7.252">
        <ele>606</ele>
        <time>2018-05-13T14:11:19.000Z</time>
      </trkpt>
      <trkpt lat="43.76325" lon="7.25198">
        <ele>605</ele>
        <time>2018-05-13T14:11:22.000Z</time>
      </trkpt>
      <trkpt lat="43.76318" lon="7.25197">
        <ele>605</ele>
        <time>2018-05-13T14:11:24.000Z</time>
      </trkpt>
      <trkpt lat="43.76311" lon="7.25198">
        <ele>605</ele>
        <time>2018-05-13T14:11:26.000Z</time>
      </trkpt>
      <trkpt lat="43.76307" lon="7.25199">
        <ele>605</ele>
        <time>2018-05-13T14:11:27.000Z</time>
      </trkpt>
      <trkpt lat="43.76299" lon="7.252">
        <ele>604</ele>
        <time>2018-05-13T14:11:29.000Z</time>
      </trkpt>
      <trkpt lat="43.76288" lon="7.25203">
        <ele>604</ele>
        <time>2018-05-13T14:11:32.000Z</time>
      </trkpt>
      <trkpt lat="43.76281" lon="7.25203">
        <ele>603</ele>
        <time>2018-05-13T14:11:34.000Z</time>
      </trkpt>
      <trkpt lat="43.76278" lon="7.25203">
        <ele>603</ele>
        <time>2018-05-13T14:11:35.000Z</time>
      </trkpt>
      <trkpt lat="43.76263" lon="7.25205">
        <ele>602</ele>
        <time>2018-05-13T14:11:39.000Z</time>
      </trkpt>
      <trkpt lat="43.76259" lon="7.25205">
        <ele>602</ele>
        <time>2018-05-13T14:11:40.000Z</time>
      </trkpt>
      <trkpt lat="43.76256" lon="7.25206">
        <ele>602</ele>
        <time>2018-05-13T14:11:41.000Z</time>
      </trkpt>
      <trkpt lat="43.76244" lon="7.25209">
        <ele>592</ele>
        <time>2018-05-13T14:11:44.000Z</time>
      </trkpt>
      <trkpt lat="43.76238" lon="7.2521">
        <ele>592</ele>
        <time>2018-05-13T14:11:46.000Z</time>
      </trkpt>
      <trkpt lat="43.76232" lon="7.2521">
        <ele>591</ele>
        <time>2018-05-13T14:11:48.000Z</time>
      </trkpt>
      <trkpt lat="43.76227" lon="7.2521">
        <ele>591</ele>
        <time>2018-05-13T14:11:50.000Z</time>
      </trkpt>
      <trkpt lat="43.76219" lon="7.25211">
        <ele>590</ele>
        <time>2018-05-13T14:11:52.000Z</time>
      </trkpt>
      <trkpt lat="43.76211" lon="7.25213">
        <ele>590</ele>
        <time>2018-05-13T14:11:54.000Z</time>
      </trkpt>
      <trkpt lat="43.76207" lon="7.25215">
        <ele>589</ele>
        <time>2018-05-13T14:11:55.000Z</time>
      </trkpt>
      <trkpt lat="43.76201" lon="7.25218">
        <ele>589</ele>
        <time>2018-05-13T14:11:57.000Z</time>
      </trkpt>
      <trkpt lat="43.76196" lon="7.25219">
        <ele>589</ele>
        <time>2018-05-13T14:11:59.000Z</time>
      </trkpt>
      <trkpt lat="43.76186" lon="7.25223">
        <ele>589</ele>
        <time>2018-05-13T14:12:03.000Z</time>
      </trkpt>
      <trkpt lat="43.76185" lon="7.25225">
        <ele>589</ele>
        <time>2018-05-13T14:12:04.000Z</time>
      </trkpt>
      <trkpt lat="43.76182" lon="7.25227">
        <ele>589</ele>
        <time>2018-05-13T14:12:06.000Z</time>
      </trkpt>
      <trkpt lat="43.76178" lon="7.25229">
        <ele>589</ele>
        <time>2018-05-13T14:12:08.000Z</time>
      </trkpt>
      <trkpt lat="43.76173" lon="7.25232">
        <ele>590</ele>
        <time>2018-05-13T14:12:10.000Z</time>
      </trkpt>
      <trkpt lat="43.76164" lon="7.25237">
        <ele>582</ele>
        <time>2018-05-13T14:12:13.000Z</time>
      </trkpt>
      <trkpt lat="43.76157" lon="7.25242">
        <ele>582</ele>
        <time>2018-05-13T14:12:16.000Z</time>
      </trkpt>
      <trkpt lat="43.76151" lon="7.25245">
        <ele>580</ele>
        <time>2018-05-13T14:12:19.000Z</time>
      </trkpt>
      <trkpt lat="43.76145" lon="7.25247">
        <ele>578</ele>
        <time>2018-05-13T14:12:26.000Z</time>
      </trkpt>
      <trkpt lat="43.7614" lon="7.25249">
        <ele>576</ele>
        <time>2018-05-13T14:12:31.000Z</time>
      </trkpt>
      <trkpt lat="43.7614" lon="7.25249">
        <ele>576</ele>
        <time>2018-05-13T14:12:32.000Z</time>
      </trkpt>
      <trkpt lat="43.76135" lon="7.25251">
        <ele>587</ele>
        <time>2018-05-13T14:12:36.000Z</time>
      </trkpt>
      <trkpt lat="43.76133" lon="7.25254">
        <ele>587</ele>
        <time>2018-05-13T14:12:39.000Z</time>
      </trkpt>
      <trkpt lat="43.76131" lon="7.25256">
        <ele>587</ele>
        <time>2018-05-13T14:12:42.000Z</time>
      </trkpt>
      <trkpt lat="43.76121" lon="7.25262">
        <ele>585</ele>
        <time>2018-05-13T14:12:47.000Z</time>
      </trkpt>
      <trkpt lat="43.76112" lon="7.25267">
        <ele>583</ele>
        <time>2018-05-13T14:12:50.000Z</time>
      </trkpt>
      <trkpt lat="43.76106" lon="7.25271">
        <ele>583</ele>
        <time>2018-05-13T14:12:52.000Z</time>
      </trkpt>
      <trkpt lat="43.76101" lon="7.25276">
        <ele>582</ele>
        <time>2018-05-13T14:12:54.000Z</time>
      </trkpt>
      <trkpt lat="43.76093" lon="7.2528">
        <ele>582</ele>
        <time>2018-05-13T14:12:57.000Z</time>
      </trkpt>
      <trkpt lat="43.76087" lon="7.25281">
        <ele>582</ele>
        <time>2018-05-13T14:13:00.000Z</time>
      </trkpt>
      <trkpt lat="43.76085" lon="7.25282">
        <ele>582</ele>
        <time>2018-05-13T14:13:01.000Z</time>
      </trkpt>
      <trkpt lat="43.76083" lon="7.25284">
        <ele>569</ele>
        <time>2018-05-13T14:13:02.000Z</time>
      </trkpt>
      <trkpt lat="43.76076" lon="7.25287">
        <ele>569</ele>
        <time>2018-05-13T14:13:04.000Z</time>
      </trkpt>
      <trkpt lat="43.76072" lon="7.25289">
        <ele>569</ele>
        <time>2018-05-13T14:13:05.000Z</time>
      </trkpt>
      <trkpt lat="43.76062" lon="7.25292">
        <ele>568</ele>
        <time>2018-05-13T14:13:07.000Z</time>
      </trkpt>
      <trkpt lat="43.76054" lon="7.25297">
        <ele>568</ele>
        <time>2018-05-13T14:13:09.000Z</time>
      </trkpt>
      <trkpt lat="43.76047" lon="7.25302">
        <ele>568</ele>
        <time>2018-05-13T14:13:11.000Z</time>
      </trkpt>
      <trkpt lat="43.76038" lon="7.25308">
        <ele>567</ele>
        <time>2018-05-13T14:13:15.000Z</time>
      </trkpt>
      <trkpt lat="43.76035" lon="7.25308">
        <ele>567</ele>
        <time>2018-05-13T14:13:16.000Z</time>
      </trkpt>
      <trkpt lat="43.7603" lon="7.25308">
        <ele>566</ele>
        <time>2018-05-13T14:13:18.000Z</time>
      </trkpt>
      <trkpt lat="43.76022" lon="7.2531">
        <ele>566</ele>
        <time>2018-05-13T14:13:20.000Z</time>
      </trkpt>
      <trkpt lat="43.76018" lon="7.25313">
        <ele>566</ele>
        <time>2018-05-13T14:13:21.000Z</time>
      </trkpt>
      <trkpt lat="43.76011" lon="7.25317">
        <ele>565</ele>
        <time>2018-05-13T14:13:23.000Z</time>
      </trkpt>
      <trkpt lat="43.76009" lon="7.25319">
        <ele>565</ele>
        <time>2018-05-13T14:13:24.000Z</time>
      </trkpt>
      <trkpt lat="43.76004" lon="7.25322">
        <ele>566</ele>
        <time>2018-05-13T14:13:26.000Z</time>
      </trkpt>
      <trkpt lat="43.75997" lon="7.25325">
        <ele>560</ele>
        <time>2018-05-13T14:13:29.000Z</time>
      </trkpt>
      <trkpt lat="43.75992" lon="7.2533">
        <ele>559</ele>
        <time>2018-05-13T14:13:31.000Z</time>
      </trkpt>
      <trkpt lat="43.75982" lon="7.25337">
        <ele>565</ele>
        <time>2018-05-13T14:13:35.000Z</time>
      </trkpt>
      <trkpt lat="43.75969" lon="7.25344">
        <ele>564</ele>
        <time>2018-05-13T14:13:40.000Z</time>
      </trkpt>
      <trkpt lat="43.75966" lon="7.25346">
        <ele>564</ele>
        <time>2018-05-13T14:13:41.000Z</time>
      </trkpt>
      <trkpt lat="43.75951" lon="7.25355">
        <ele>562</ele>
        <time>2018-05-13T14:13:45.000Z</time>
      </trkpt>
      <trkpt lat="43.75946" lon="7.25358">
        <ele>562</ele>
        <time>2018-05-13T14:13:46.000Z</time>
      </trkpt>
      <trkpt lat="43.75933" lon="7.25367">
        <ele>562</ele>
        <time>2018-05-13T14:13:49.000Z</time>
      </trkpt>
      <trkpt lat="43.75925" lon="7.25372">
        <ele>562</ele>
        <time>2018-05-13T14:13:51.000Z</time>
      </trkpt>
      <trkpt lat="43.7592" lon="7.25378">
        <ele>563</ele>
        <time>2018-05-13T14:13:53.000Z</time>
      </trkpt>
      <trkpt lat="43.75918" lon="7.25381">
        <ele>563</ele>
        <time>2018-05-13T14:13:55.000Z</time>
      </trkpt>
      <trkpt lat="43.75916" lon="7.25381">
        <ele>551</ele>
        <time>2018-05-13T14:13:56.000Z</time>
      </trkpt>
      <trkpt lat="43.7591" lon="7.25384">
        <ele>552</ele>
        <time>2018-05-13T14:13:59.000Z</time>
      </trkpt>
      <trkpt lat="43.75906" lon="7.25388">
        <ele>552</ele>
        <time>2018-05-13T14:14:01.000Z</time>
      </trkpt>
      <trkpt lat="43.75897" lon="7.25395">
        <ele>553</ele>
        <time>2018-05-13T14:14:05.000Z</time>
      </trkpt>
      <trkpt lat="43.75895" lon="7.25398">
        <ele>553</ele>
        <time>2018-05-13T14:14:06.000Z</time>
      </trkpt>
      <trkpt lat="43.75887" lon="7.25405">
        <ele>552</ele>
        <time>2018-05-13T14:14:09.000Z</time>
      </trkpt>
      <trkpt lat="43.75878" lon="7.25414">
        <ele>551</ele>
        <time>2018-05-13T14:14:12.000Z</time>
      </trkpt>
      <trkpt lat="43.75869" lon="7.25423">
        <ele>560</ele>
        <time>2018-05-13T14:14:17.000Z</time>
      </trkpt>
      <trkpt lat="43.75867" lon="7.25424">
        <ele>560</ele>
        <time>2018-05-13T14:14:22.000Z</time>
      </trkpt>
      <trkpt lat="43.75865" lon="7.25424">
        <ele>559</ele>
        <time>2018-05-13T14:14:26.000Z</time>
      </trkpt>
      <trkpt lat="43.75864" lon="7.25424">
        <ele>559</ele>
        <time>2018-05-13T14:14:28.000Z</time>
      </trkpt>
      <trkpt lat="43.75859" lon="7.25427">
        <ele>558</ele>
        <time>2018-05-13T14:14:34.000Z</time>
      </trkpt>
      <trkpt lat="43.75856" lon="7.25428">
        <ele>558</ele>
        <time>2018-05-13T14:14:38.000Z</time>
      </trkpt>
      <trkpt lat="43.75853" lon="7.25429">
        <ele>557</ele>
        <time>2018-05-13T14:14:41.000Z</time>
      </trkpt>
      <trkpt lat="43.75851" lon="7.25429">
        <ele>557</ele>
        <time>2018-05-13T14:14:43.000Z</time>
      </trkpt>
      <trkpt lat="43.75849" lon="7.2543">
        <ele>557</ele>
        <time>2018-05-13T14:14:44.000Z</time>
      </trkpt>
      <trkpt lat="43.75845" lon="7.25433">
        <ele>556</ele>
        <time>2018-05-13T14:14:48.000Z</time>
      </trkpt>
      <trkpt lat="43.75844" lon="7.25433">
        <ele>556</ele>
        <time>2018-05-13T14:14:49.000Z</time>
      </trkpt>
      <trkpt lat="43.75843" lon="7.25433">
        <ele>556</ele>
        <time>2018-05-13T14:14:50.000Z</time>
      </trkpt>
      <trkpt lat="43.75841" lon="7.25434">
        <ele>556</ele>
        <time>2018-05-13T14:14:53.000Z</time>
      </trkpt>
      <trkpt lat="43.75841" lon="7.25435">
        <ele>556</ele>
        <time>2018-05-13T14:14:54.000Z</time>
      </trkpt>
      <trkpt lat="43.7584" lon="7.25435">
        <ele>556</ele>
        <time>2018-05-13T14:14:56.000Z</time>
      </trkpt>
      <trkpt lat="43.75835" lon="7.25436">
        <ele>556</ele>
        <time>2018-05-13T14:14:58.000Z</time>
      </trkpt>
      <trkpt lat="43.75832" lon="7.25438">
        <ele>546</ele>
        <time>2018-05-13T14:14:59.000Z</time>
      </trkpt>
      <trkpt lat="43.75828" lon="7.25441">
        <ele>546</ele>
        <time>2018-05-13T14:15:00.000Z</time>
      </trkpt>
      <trkpt lat="43.75822" lon="7.25446">
        <ele>546</ele>
        <time>2018-05-13T14:15:02.000Z</time>
      </trkpt>
      <trkpt lat="43.75817" lon="7.25448">
        <ele>546</ele>
        <time>2018-05-13T14:15:04.000Z</time>
      </trkpt>
      <trkpt lat="43.7581" lon="7.25452">
        <ele>545</ele>
        <time>2018-05-13T14:15:06.000Z</time>
      </trkpt>
      <trkpt lat="43.75805" lon="7.25455">
        <ele>545</ele>
        <time>2018-05-13T14:15:07.000Z</time>
      </trkpt>
      <trkpt lat="43.75796" lon="7.25461">
        <ele>544</ele>
        <time>2018-05-13T14:15:09.000Z</time>
      </trkpt>
      <trkpt lat="43.75792" lon="7.25465">
        <ele>544</ele>
        <time>2018-05-13T14:15:11.000Z</time>
      </trkpt>
      <trkpt lat="43.75784" lon="7.25469">
        <ele>543</ele>
        <time>2018-05-13T14:15:14.000Z</time>
      </trkpt>
      <trkpt lat="43.75782" lon="7.25471">
        <ele>543</ele>
        <time>2018-05-13T14:15:15.000Z</time>
      </trkpt>
      <trkpt lat="43.75772" lon="7.2548">
        <ele>543</ele>
        <time>2018-05-13T14:15:18.000Z</time>
      </trkpt>
      <trkpt lat="43.75766" lon="7.25485">
        <ele>542</ele>
        <time>2018-05-13T14:15:20.000Z</time>
      </trkpt>
      <trkpt lat="43.7576" lon="7.25489">
        <ele>542</ele>
        <time>2018-05-13T14:15:22.000Z</time>
      </trkpt>
      <trkpt lat="43.7575" lon="7.25496">
        <ele>538</ele>
        <time>2018-05-13T14:15:25.000Z</time>
      </trkpt>
      <trkpt lat="43.75746" lon="7.25497">
        <ele>538</ele>
        <time>2018-05-13T14:15:26.000Z</time>
      </trkpt>
      <trkpt lat="43.75739" lon="7.25497">
        <ele>534</ele>
        <time>2018-05-13T14:15:29.000Z</time>
      </trkpt>
      <trkpt lat="43.75737" lon="7.25497">
        <ele>533</ele>
        <time>2018-05-13T14:15:30.000Z</time>
      </trkpt>
      <trkpt lat="43.7573" lon="7.25502">
        <ele>539</ele>
        <time>2018-05-13T14:15:33.000Z</time>
      </trkpt>
      <trkpt lat="43.75717" lon="7.25509">
        <ele>538</ele>
        <time>2018-05-13T14:15:37.000Z</time>
      </trkpt>
      <trkpt lat="43.75714" lon="7.25511">
        <ele>538</ele>
        <time>2018-05-13T14:15:38.000Z</time>
      </trkpt>
      <trkpt lat="43.75703" lon="7.25515">
        <ele>536</ele>
        <time>2018-05-13T14:15:42.000Z</time>
      </trkpt>
      <trkpt lat="43.75689" lon="7.25519">
        <ele>534</ele>
        <time>2018-05-13T14:15:46.000Z</time>
      </trkpt>
      <trkpt lat="43.75685" lon="7.25522">
        <ele>534</ele>
        <time>2018-05-13T14:15:47.000Z</time>
      </trkpt>
      <trkpt lat="43.75681" lon="7.25525">
        <ele>534</ele>
        <time>2018-05-13T14:15:48.000Z</time>
      </trkpt>
      <trkpt lat="43.75675" lon="7.2553">
        <ele>534</ele>
        <time>2018-05-13T14:15:50.000Z</time>
      </trkpt>
      <trkpt lat="43.75672" lon="7.25532">
        <ele>535</ele>
        <time>2018-05-13T14:15:51.000Z</time>
      </trkpt>
      <trkpt lat="43.75664" lon="7.25535">
        <ele>524</ele>
        <time>2018-05-13T14:15:54.000Z</time>
      </trkpt>
      <trkpt lat="43.75661" lon="7.25536">
        <ele>524</ele>
        <time>2018-05-13T14:15:56.000Z</time>
      </trkpt>
      <trkpt lat="43.75655" lon="7.25536">
        <ele>523</ele>
        <time>2018-05-13T14:15:59.000Z</time>
      </trkpt>
      <trkpt lat="43.75651" lon="7.25536">
        <ele>523</ele>
        <time>2018-05-13T14:16:01.000Z</time>
      </trkpt>
      <trkpt lat="43.75647" lon="7.25539">
        <ele>523</ele>
        <time>2018-05-13T14:16:03.000Z</time>
      </trkpt>
      <trkpt lat="43.75645" lon="7.25542">
        <ele>523</ele>
        <time>2018-05-13T14:16:04.000Z</time>
      </trkpt>
      <trkpt lat="43.75637" lon="7.25549">
        <ele>523</ele>
        <time>2018-05-13T14:16:07.000Z</time>
      </trkpt>
      <trkpt lat="43.75628" lon="7.25555">
        <ele>523</ele>
        <time>2018-05-13T14:16:10.000Z</time>
      </trkpt>
      <trkpt lat="43.7562" lon="7.2556">
        <ele>522</ele>
        <time>2018-05-13T14:16:12.000Z</time>
      </trkpt>
      <trkpt lat="43.75617" lon="7.25562">
        <ele>522</ele>
        <time>2018-05-13T14:16:13.000Z</time>
      </trkpt>
      <trkpt lat="43.75614" lon="7.25564">
        <ele>522</ele>
        <time>2018-05-13T14:16:14.000Z</time>
      </trkpt>
      <trkpt lat="43.75603" lon="7.25569">
        <ele>521</ele>
        <time>2018-05-13T14:16:18.000Z</time>
      </trkpt>
      <trkpt lat="43.756" lon="7.25569">
        <ele>521</ele>
        <time>2018-05-13T14:16:19.000Z</time>
      </trkpt>
      <trkpt lat="43.75595" lon="7.25572">
        <ele>520</ele>
        <time>2018-05-13T14:16:21.000Z</time>
      </trkpt>
      <trkpt lat="43.75589" lon="7.25573">
        <ele>520</ele>
        <time>2018-05-13T14:16:23.000Z</time>
      </trkpt>
      <trkpt lat="43.75578" lon="7.25578">
        <ele>514</ele>
        <time>2018-05-13T14:16:26.000Z</time>
      </trkpt>
      <trkpt lat="43.75574" lon="7.25581">
        <ele>513</ele>
        <time>2018-05-13T14:16:27.000Z</time>
      </trkpt>
      <trkpt lat="43.7557" lon="7.25583">
        <ele>516</ele>
        <time>2018-05-13T14:16:28.000Z</time>
      </trkpt>
      <trkpt lat="43.75562" lon="7.25588">
        <ele>514</ele>
        <time>2018-05-13T14:16:31.000Z</time>
      </trkpt>
      <trkpt lat="43.75553" lon="7.25597">
        <ele>512</ele>
        <time>2018-05-13T14:16:34.000Z</time>
      </trkpt>
      <trkpt lat="43.75551" lon="7.25601">
        <ele>511</ele>
        <time>2018-05-13T14:16:35.000Z</time>
      </trkpt>
      <trkpt lat="43.75548" lon="7.25606">
        <ele>511</ele>
        <time>2018-05-13T14:16:36.000Z</time>
      </trkpt>
      <trkpt lat="43.75545" lon="7.25611">
        <ele>510</ele>
        <time>2018-05-13T14:16:37.000Z</time>
      </trkpt>
      <trkpt lat="43.75542" lon="7.25617">
        <ele>510</ele>
        <time>2018-05-13T14:16:38.000Z</time>
      </trkpt>
      <trkpt lat="43.75539" lon="7.25622">
        <ele>510</ele>
        <time>2018-05-13T14:16:39.000Z</time>
      </trkpt>
      <trkpt lat="43.75535" lon="7.25633">
        <ele>509</ele>
        <time>2018-05-13T14:16:41.000Z</time>
      </trkpt>
      <trkpt lat="43.75534" lon="7.25637">
        <ele>509</ele>
        <time>2018-05-13T14:16:42.000Z</time>
      </trkpt>
      <trkpt lat="43.75534" lon="7.25641">
        <ele>509</ele>
        <time>2018-05-13T14:16:43.000Z</time>
      </trkpt>
      <trkpt lat="43.75533" lon="7.25646">
        <ele>509</ele>
        <time>2018-05-13T14:16:45.000Z</time>
      </trkpt>
      <trkpt lat="43.75533" lon="7.2565">
        <ele>509</ele>
        <time>2018-05-13T14:16:46.000Z</time>
      </trkpt>
      <trkpt lat="43.75532" lon="7.25668">
        <ele>509</ele>
        <time>2018-05-13T14:16:49.000Z</time>
      </trkpt>
      <trkpt lat="43.75531" lon="7.25687">
        <ele>509</ele>
        <time>2018-05-13T14:16:52.000Z</time>
      </trkpt>
      <trkpt lat="43.75529" lon="7.25696">
        <ele>509</ele>
        <time>2018-05-13T14:16:54.000Z</time>
      </trkpt>
      <trkpt lat="43.75528" lon="7.25701">
        <ele>509</ele>
        <time>2018-05-13T14:16:55.000Z</time>
      </trkpt>
      <trkpt lat="43.75524" lon="7.25714">
        <ele>508</ele>
        <time>2018-05-13T14:16:58.000Z</time>
      </trkpt>
      <trkpt lat="43.75523" lon="7.25715">
        <ele>508</ele>
        <time>2018-05-13T14:16:59.000Z</time>
      </trkpt>
      <trkpt lat="43.75515" lon="7.25718">
        <ele>507</ele>
        <time>2018-05-13T14:17:02.000Z</time>
      </trkpt>
      <trkpt lat="43.75511" lon="7.25721">
        <ele>507</ele>
        <time>2018-05-13T14:17:04.000Z</time>
      </trkpt>
      <trkpt lat="43.75509" lon="7.25722">
        <ele>506</ele>
        <time>2018-05-13T14:17:05.000Z</time>
      </trkpt>
      <trkpt lat="43.75504" lon="7.25728">
        <ele>506</ele>
        <time>2018-05-13T14:17:07.000Z</time>
      </trkpt>
      <trkpt lat="43.75497" lon="7.25738">
        <ele>498</ele>
        <time>2018-05-13T14:17:09.000Z</time>
      </trkpt>
      <trkpt lat="43.75494" lon="7.25753">
        <ele>500</ele>
        <time>2018-05-13T14:17:11.000Z</time>
      </trkpt>
      <trkpt lat="43.75493" lon="7.25762">
        <ele>500</ele>
        <time>2018-05-13T14:17:12.000Z</time>
      </trkpt>
      <trkpt lat="43.75492" lon="7.25769">
        <ele>499</ele>
        <time>2018-05-13T14:17:13.000Z</time>
      </trkpt>
      <trkpt lat="43.75486" lon="7.2578">
        <ele>499</ele>
        <time>2018-05-13T14:17:15.000Z</time>
      </trkpt>
      <trkpt lat="43.75482" lon="7.25784">
        <ele>498</ele>
        <time>2018-05-13T14:17:16.000Z</time>
      </trkpt>
      <trkpt lat="43.7547" lon="7.25787">
        <ele>498</ele>
        <time>2018-05-13T14:17:19.000Z</time>
      </trkpt>
      <trkpt lat="43.75459" lon="7.25796">
        <ele>498</ele>
        <time>2018-05-13T14:17:23.000Z</time>
      </trkpt>
      <trkpt lat="43.75456" lon="7.25799">
        <ele>498</ele>
        <time>2018-05-13T14:17:24.000Z</time>
      </trkpt>
      <trkpt lat="43.75446" lon="7.25802">
        <ele>498</ele>
        <time>2018-05-13T14:17:28.000Z</time>
      </trkpt>
      <trkpt lat="43.75434" lon="7.25804">
        <ele>498</ele>
        <time>2018-05-13T14:17:33.000Z</time>
      </trkpt>
      <trkpt lat="43.75432" lon="7.25802">
        <ele>498</ele>
        <time>2018-05-13T14:17:34.000Z</time>
      </trkpt>
      <trkpt lat="43.7543" lon="7.25801">
        <ele>497</ele>
        <time>2018-05-13T14:17:35.000Z</time>
      </trkpt>
      <trkpt lat="43.75425" lon="7.25802">
        <ele>498</ele>
        <time>2018-05-13T14:17:37.000Z</time>
      </trkpt>
      <trkpt lat="43.75423" lon="7.25804">
        <ele>498</ele>
        <time>2018-05-13T14:17:38.000Z</time>
      </trkpt>
      <trkpt lat="43.75413" lon="7.25809">
        <ele>496</ele>
        <time>2018-05-13T14:17:42.000Z</time>
      </trkpt>
      <trkpt lat="43.75405" lon="7.25808">
        <ele>496</ele>
        <time>2018-05-13T14:17:46.000Z</time>
      </trkpt>
      <trkpt lat="43.75403" lon="7.25807">
        <ele>496</ele>
        <time>2018-05-13T14:17:47.000Z</time>
      </trkpt>
      <trkpt lat="43.75397" lon="7.25803">
        <ele>495</ele>
        <time>2018-05-13T14:17:51.000Z</time>
      </trkpt>
      <trkpt lat="43.75395" lon="7.25802">
        <ele>495</ele>
        <time>2018-05-13T14:17:52.000Z</time>
      </trkpt>
      <trkpt lat="43.75394" lon="7.25801">
        <ele>495</ele>
        <time>2018-05-13T14:17:53.000Z</time>
      </trkpt>
      <trkpt lat="43.75388" lon="7.25799">
        <ele>495</ele>
        <time>2018-05-13T14:17:56.000Z</time>
      </trkpt>
      <trkpt lat="43.75385" lon="7.258">
        <ele>495</ele>
        <time>2018-05-13T14:17:57.000Z</time>
      </trkpt>
      <trkpt lat="43.75379" lon="7.25799">
        <ele>495</ele>
        <time>2018-05-13T14:18:00.000Z</time>
      </trkpt>
      <trkpt lat="43.75378" lon="7.25796">
        <ele>494</ele>
        <time>2018-05-13T14:18:01.000Z</time>
      </trkpt>
      <trkpt lat="43.75372" lon="7.25789">
        <ele>494</ele>
        <time>2018-05-13T14:18:06.000Z</time>
      </trkpt>
      <trkpt lat="43.75364" lon="7.25787">
        <ele>494</ele>
        <time>2018-05-13T14:18:10.000Z</time>
      </trkpt>
      <trkpt lat="43.7536" lon="7.25786">
        <ele>494</ele>
        <time>2018-05-13T14:18:11.000Z</time>
      </trkpt>
      <trkpt lat="43.75353" lon="7.25785">
        <ele>494</ele>
        <time>2018-05-13T14:18:13.000Z</time>
      </trkpt>
      <trkpt lat="43.75349" lon="7.25787">
        <ele>494</ele>
        <time>2018-05-13T14:18:14.000Z</time>
      </trkpt>
      <trkpt lat="43.75346" lon="7.2579">
        <ele>494</ele>
        <time>2018-05-13T14:18:15.000Z</time>
      </trkpt>
      <trkpt lat="43.75338" lon="7.25798">
        <ele>494</ele>
        <time>2018-05-13T14:18:17.000Z</time>
      </trkpt>
      <trkpt lat="43.75334" lon="7.25808">
        <ele>495</ele>
        <time>2018-05-13T14:18:19.000Z</time>
      </trkpt>
      <trkpt lat="43.75322" lon="7.25818">
        <ele>492</ele>
        <time>2018-05-13T14:18:23.000Z</time>
      </trkpt>
      <trkpt lat="43.75309" lon="7.25823">
        <ele>490</ele>
        <time>2018-05-13T14:18:27.000Z</time>
      </trkpt>
      <trkpt lat="43.75298" lon="7.2583">
        <ele>490</ele>
        <time>2018-05-13T14:18:32.000Z</time>
      </trkpt>
      <trkpt lat="43.75294" lon="7.25831">
        <ele>489</ele>
        <time>2018-05-13T14:18:37.000Z</time>
      </trkpt>
      <trkpt lat="43.75293" lon="7.25832">
        <ele>489</ele>
        <time>2018-05-13T14:18:38.000Z</time>
      </trkpt>
      <trkpt lat="43.75284" lon="7.25838">
        <ele>493</ele>
        <time>2018-05-13T14:18:43.000Z</time>
      </trkpt>
      <trkpt lat="43.75277" lon="7.25839">
        <ele>493</ele>
        <time>2018-05-13T14:18:46.000Z</time>
      </trkpt>
      <trkpt lat="43.75275" lon="7.25839">
        <ele>492</ele>
        <time>2018-05-13T14:18:47.000Z</time>
      </trkpt>
      <trkpt lat="43.75267" lon="7.25844">
        <ele>492</ele>
        <time>2018-05-13T14:18:51.000Z</time>
      </trkpt>
      <trkpt lat="43.75265" lon="7.25848">
        <ele>492</ele>
        <time>2018-05-13T14:18:53.000Z</time>
      </trkpt>
      <trkpt lat="43.75251" lon="7.25856">
        <ele>492</ele>
        <time>2018-05-13T14:18:59.000Z</time>
      </trkpt>
      <trkpt lat="43.75232" lon="7.25856">
        <ele>487</ele>
        <time>2018-05-13T14:19:04.000Z</time>
      </trkpt>
      <trkpt lat="43.75228" lon="7.25857">
        <ele>487</ele>
        <time>2018-05-13T14:19:05.000Z</time>
      </trkpt>
      <trkpt lat="43.75216" lon="7.25861">
        <ele>487</ele>
        <time>2018-05-13T14:19:07.000Z</time>
      </trkpt>
      <trkpt lat="43.75211" lon="7.25863">
        <ele>487</ele>
        <time>2018-05-13T14:19:08.000Z</time>
      </trkpt>
      <trkpt lat="43.75202" lon="7.25868">
        <ele>486</ele>
        <time>2018-05-13T14:19:10.000Z</time>
      </trkpt>
      <trkpt lat="43.75198" lon="7.2587">
        <ele>486</ele>
        <time>2018-05-13T14:19:11.000Z</time>
      </trkpt>
      <trkpt lat="43.75194" lon="7.25871">
        <ele>486</ele>
        <time>2018-05-13T14:19:12.000Z</time>
      </trkpt>
      <trkpt lat="43.7519" lon="7.25872">
        <ele>486</ele>
        <time>2018-05-13T14:19:13.000Z</time>
      </trkpt>
      <trkpt lat="43.75177" lon="7.25875">
        <ele>486</ele>
        <time>2018-05-13T14:19:16.000Z</time>
      </trkpt>
      <trkpt lat="43.75173" lon="7.25876">
        <ele>485</ele>
        <time>2018-05-13T14:19:17.000Z</time>
      </trkpt>
      <trkpt lat="43.75166" lon="7.25875">
        <ele>480</ele>
        <time>2018-05-13T14:19:19.000Z</time>
      </trkpt>
      <trkpt lat="43.75163" lon="7.25875">
        <ele>480</ele>
        <time>2018-05-13T14:19:20.000Z</time>
      </trkpt>
      <trkpt lat="43.75152" lon="7.25874">
        <ele>480</ele>
        <time>2018-05-13T14:19:23.000Z</time>
      </trkpt>
      <trkpt lat="43.75148" lon="7.25875">
        <ele>480</ele>
        <time>2018-05-13T14:19:24.000Z</time>
      </trkpt>
      <trkpt lat="43.75139" lon="7.25872">
        <ele>479</ele>
        <time>2018-05-13T14:19:27.000Z</time>
      </trkpt>
      <trkpt lat="43.75136" lon="7.25872">
        <ele>479</ele>
        <time>2018-05-13T14:19:28.000Z</time>
      </trkpt>
      <trkpt lat="43.75129" lon="7.25874">
        <ele>479</ele>
        <time>2018-05-13T14:19:30.000Z</time>
      </trkpt>
      <trkpt lat="43.75114" lon="7.25876">
        <ele>479</ele>
        <time>2018-05-13T14:19:33.000Z</time>
      </trkpt>
      <trkpt lat="43.75109" lon="7.25876">
        <ele>478</ele>
        <time>2018-05-13T14:19:34.000Z</time>
      </trkpt>
      <trkpt lat="43.75095" lon="7.25878">
        <ele>478</ele>
        <time>2018-05-13T14:19:37.000Z</time>
      </trkpt>
      <trkpt lat="43.75087" lon="7.25872">
        <ele>477</ele>
        <time>2018-05-13T14:19:39.000Z</time>
      </trkpt>
      <trkpt lat="43.75076" lon="7.25863">
        <ele>473</ele>
        <time>2018-05-13T14:19:42.000Z</time>
      </trkpt>
      <trkpt lat="43.75068" lon="7.25862">
        <ele>473</ele>
        <time>2018-05-13T14:19:44.000Z</time>
      </trkpt>
      <trkpt lat="43.75064" lon="7.25861">
        <ele>473</ele>
        <time>2018-05-13T14:19:45.000Z</time>
      </trkpt>
      <trkpt lat="43.7505" lon="7.2586">
        <ele>473</ele>
        <time>2018-05-13T14:19:48.000Z</time>
      </trkpt>
      <trkpt lat="43.75046" lon="7.25859">
        <ele>473</ele>
        <time>2018-05-13T14:19:49.000Z</time>
      </trkpt>
      <trkpt lat="43.75037" lon="7.25858">
        <ele>473</ele>
        <time>2018-05-13T14:19:51.000Z</time>
      </trkpt>
      <trkpt lat="43.75025" lon="7.25859">
        <ele>472</ele>
        <time>2018-05-13T14:19:54.000Z</time>
      </trkpt>
      <trkpt lat="43.75018" lon="7.25856">
        <ele>472</ele>
        <time>2018-05-13T14:19:56.000Z</time>
      </trkpt>
      <trkpt lat="43.75015" lon="7.25854">
        <ele>471</ele>
        <time>2018-05-13T14:19:57.000Z</time>
      </trkpt>
      <trkpt lat="43.75011" lon="7.25854">
        <ele>471</ele>
        <time>2018-05-13T14:19:58.000Z</time>
      </trkpt>
      <trkpt lat="43.75007" lon="7.25854">
        <ele>471</ele>
        <time>2018-05-13T14:19:59.000Z</time>
      </trkpt>
      <trkpt lat="43.74997" lon="7.25851">
        <ele>469</ele>
        <time>2018-05-13T14:20:02.000Z</time>
      </trkpt>
      <trkpt lat="43.74983" lon="7.25855">
        <ele>469</ele>
        <time>2018-05-13T14:20:06.000Z</time>
      </trkpt>
      <trkpt lat="43.74976" lon="7.25856">
        <ele>469</ele>
        <time>2018-05-13T14:20:08.000Z</time>
      </trkpt>
      <trkpt lat="43.74972" lon="7.25851">
        <ele>469</ele>
        <time>2018-05-13T14:20:10.000Z</time>
      </trkpt>
      <trkpt lat="43.74965" lon="7.25843">
        <ele>469</ele>
        <time>2018-05-13T14:20:13.000Z</time>
      </trkpt>
      <trkpt lat="43.74958" lon="7.2584">
        <ele>469</ele>
        <time>2018-05-13T14:20:15.000Z</time>
      </trkpt>
      <trkpt lat="43.74955" lon="7.25839">
        <ele>469</ele>
        <time>2018-05-13T14:20:16.000Z</time>
      </trkpt>
      <trkpt lat="43.74939" lon="7.25838">
        <ele>468</ele>
        <time>2018-05-13T14:20:21.000Z</time>
      </trkpt>
      <trkpt lat="43.74924" lon="7.25839">
        <ele>467</ele>
        <time>2018-05-13T14:20:26.000Z</time>
      </trkpt>
      <trkpt lat="43.74909" lon="7.2584">
        <ele>466</ele>
        <time>2018-05-13T14:20:32.000Z</time>
      </trkpt>
      <trkpt lat="43.74898" lon="7.25843">
        <ele>467</ele>
        <time>2018-05-13T14:20:37.000Z</time>
      </trkpt>
      <trkpt lat="43.74877" lon="7.25843">
        <ele>467</ele>
        <time>2018-05-13T14:20:44.000Z</time>
      </trkpt>
      <trkpt lat="43.74857" lon="7.25842">
        <ele>467</ele>
        <time>2018-05-13T14:20:50.000Z</time>
      </trkpt>
      <trkpt lat="43.74841" lon="7.25843">
        <ele>467</ele>
        <time>2018-05-13T14:20:55.000Z</time>
      </trkpt>
      <trkpt lat="43.74819" lon="7.25842">
        <ele>465</ele>
        <time>2018-05-13T14:21:01.000Z</time>
      </trkpt>
      <trkpt lat="43.74798" lon="7.2584">
        <ele>464</ele>
        <time>2018-05-13T14:21:07.000Z</time>
      </trkpt>
      <trkpt lat="43.7478" lon="7.25845">
        <ele>463</ele>
        <time>2018-05-13T14:21:12.000Z</time>
      </trkpt>
      <trkpt lat="43.74777" lon="7.25846">
        <ele>463</ele>
        <time>2018-05-13T14:21:13.000Z</time>
      </trkpt>
      <trkpt lat="43.7477" lon="7.25847">
        <ele>462</ele>
        <time>2018-05-13T14:21:15.000Z</time>
      </trkpt>
      <trkpt lat="43.74764" lon="7.25849">
        <ele>462</ele>
        <time>2018-05-13T14:21:17.000Z</time>
      </trkpt>
      <trkpt lat="43.74758" lon="7.25855">
        <ele>462</ele>
        <time>2018-05-13T14:21:19.000Z</time>
      </trkpt>
      <trkpt lat="43.74752" lon="7.25859">
        <ele>462</ele>
        <time>2018-05-13T14:21:21.000Z</time>
      </trkpt>
      <trkpt lat="43.7473" lon="7.25874">
        <ele>453</ele>
        <time>2018-05-13T14:21:28.000Z</time>
      </trkpt>
      <trkpt lat="43.74725" lon="7.25876">
        <ele>453</ele>
        <time>2018-05-13T14:21:30.000Z</time>
      </trkpt>
      <trkpt lat="43.74722" lon="7.25876">
        <ele>453</ele>
        <time>2018-05-13T14:21:32.000Z</time>
      </trkpt>
      <trkpt lat="43.7472" lon="7.25877">
        <ele>453</ele>
        <time>2018-05-13T14:21:33.000Z</time>
      </trkpt>
      <trkpt lat="43.74714" lon="7.25881">
        <ele>452</ele>
        <time>2018-05-13T14:21:36.000Z</time>
      </trkpt>
      <trkpt lat="43.74713" lon="7.25884">
        <ele>452</ele>
        <time>2018-05-13T14:21:37.000Z</time>
      </trkpt>
      <trkpt lat="43.74713" lon="7.25884">
        <ele>452</ele>
        <time>2018-05-13T14:21:39.000Z</time>
      </trkpt>
      <trkpt lat="43.74713" lon="7.25886">
        <ele>452</ele>
        <time>2018-05-13T14:21:40.000Z</time>
      </trkpt>
      <trkpt lat="43.74712" lon="7.2589">
        <ele>452</ele>
        <time>2018-05-13T14:21:44.000Z</time>
      </trkpt>
      <trkpt lat="43.7471" lon="7.25891">
        <ele>452</ele>
        <time>2018-05-13T14:21:46.000Z</time>
      </trkpt>
      <trkpt lat="43.74707" lon="7.25891">
        <ele>451</ele>
        <time>2018-05-13T14:21:49.000Z</time>
      </trkpt>
      <trkpt lat="43.74705" lon="7.25891">
        <ele>451</ele>
        <time>2018-05-13T14:21:51.000Z</time>
      </trkpt>
      <trkpt lat="43.74704" lon="7.2589">
        <ele>451</ele>
        <time>2018-05-13T14:21:52.000Z</time>
      </trkpt>
      <trkpt lat="43.74699" lon="7.25887">
        <ele>450</ele>
        <time>2018-05-13T14:21:56.000Z</time>
      </trkpt>
      <trkpt lat="43.74697" lon="7.25887">
        <ele>450</ele>
        <time>2018-05-13T14:22:00.000Z</time>
      </trkpt>
      <trkpt lat="43.74697" lon="7.25888">
        <ele>450</ele>
        <time>2018-05-13T14:22:01.000Z</time>
      </trkpt>
      <trkpt lat="43.74696" lon="7.25889">
        <ele>450</ele>
        <time>2018-05-13T14:22:02.000Z</time>
      </trkpt>
      <trkpt lat="43.74692" lon="7.2589">
        <ele>450</ele>
        <time>2018-05-13T14:22:07.000Z</time>
      </trkpt>
      <trkpt lat="43.7469" lon="7.25891">
        <ele>449</ele>
        <time>2018-05-13T14:22:11.000Z</time>
      </trkpt>
      <trkpt lat="43.74689" lon="7.25892">
        <ele>449</ele>
        <time>2018-05-13T14:22:14.000Z</time>
      </trkpt>
      <trkpt lat="43.74686" lon="7.25893">
        <ele>449</ele>
        <time>2018-05-13T14:22:18.000Z</time>
      </trkpt>
      <trkpt lat="43.74685" lon="7.25892">
        <ele>449</ele>
        <time>2018-05-13T14:22:20.000Z</time>
      </trkpt>
      <trkpt lat="43.74684" lon="7.2589">
        <ele>449</ele>
        <time>2018-05-13T14:22:22.000Z</time>
      </trkpt>
      <trkpt lat="43.74684" lon="7.25888">
        <ele>449</ele>
        <time>2018-05-13T14:22:23.000Z</time>
      </trkpt>
      <trkpt lat="43.74684" lon="7.25886">
        <ele>449</ele>
        <time>2018-05-13T14:22:25.000Z</time>
      </trkpt>
      <trkpt lat="43.74686" lon="7.25879">
        <ele>449</ele>
        <time>2018-05-13T14:22:30.000Z</time>
      </trkpt>
      <trkpt lat="43.74685" lon="7.25875">
        <ele>449</ele>
        <time>2018-05-13T14:22:32.000Z</time>
      </trkpt>
      <trkpt lat="43.74679" lon="7.2587">
        <ele>449</ele>
        <time>2018-05-13T14:22:34.000Z</time>
      </trkpt>
      <trkpt lat="43.74673" lon="7.25863">
        <ele>449</ele>
        <time>2018-05-13T14:22:36.000Z</time>
      </trkpt>
      <trkpt lat="43.74659" lon="7.2585">
        <ele>441</ele>
        <time>2018-05-13T14:22:41.000Z</time>
      </trkpt>
      <trkpt lat="43.74656" lon="7.25848">
        <ele>441</ele>
        <time>2018-05-13T14:22:42.000Z</time>
      </trkpt>
      <trkpt lat="43.74648" lon="7.25851">
        <ele>440</ele>
        <time>2018-05-13T14:22:45.000Z</time>
      </trkpt>
      <trkpt lat="43.74641" lon="7.25857">
        <ele>439</ele>
        <time>2018-05-13T14:22:47.000Z</time>
      </trkpt>
      <trkpt lat="43.74637" lon="7.25859">
        <ele>438</ele>
        <time>2018-05-13T14:22:48.000Z</time>
      </trkpt>
      <trkpt lat="43.7463" lon="7.25863">
        <ele>438</ele>
        <time>2018-05-13T14:22:50.000Z</time>
      </trkpt>
      <trkpt lat="43.74614" lon="7.25873">
        <ele>436</ele>
        <time>2018-05-13T14:22:55.000Z</time>
      </trkpt>
      <trkpt lat="43.74605" lon="7.25876">
        <ele>436</ele>
        <time>2018-05-13T14:22:59.000Z</time>
      </trkpt>
      <trkpt lat="43.74603" lon="7.25876">
        <ele>436</ele>
        <time>2018-05-13T14:23:00.000Z</time>
      </trkpt>
      <trkpt lat="43.74599" lon="7.25876">
        <ele>435</ele>
        <time>2018-05-13T14:23:02.000Z</time>
      </trkpt>
      <trkpt lat="43.74594" lon="7.25874">
        <ele>435</ele>
        <time>2018-05-13T14:23:05.000Z</time>
      </trkpt>
      <trkpt lat="43.74592" lon="7.25874">
        <ele>435</ele>
        <time>2018-05-13T14:23:06.000Z</time>
      </trkpt>
      <trkpt lat="43.74591" lon="7.25874">
        <ele>435</ele>
        <time>2018-05-13T14:23:07.000Z</time>
      </trkpt>
      <trkpt lat="43.74586" lon="7.25873">
        <ele>435</ele>
        <time>2018-05-13T14:23:10.000Z</time>
      </trkpt>
      <trkpt lat="43.74581" lon="7.25873">
        <ele>424</ele>
        <time>2018-05-13T14:23:13.000Z</time>
      </trkpt>
      <trkpt lat="43.7458" lon="7.25874">
        <ele>424</ele>
        <time>2018-05-13T14:23:14.000Z</time>
      </trkpt>
      <trkpt lat="43.74578" lon="7.25875">
        <ele>423</ele>
        <time>2018-05-13T14:23:15.000Z</time>
      </trkpt>
      <trkpt lat="43.74576" lon="7.25874">
        <ele>423</ele>
        <time>2018-05-13T14:23:16.000Z</time>
      </trkpt>
      <trkpt lat="43.74575" lon="7.25874">
        <ele>423</ele>
        <time>2018-05-13T14:23:17.000Z</time>
      </trkpt>
      <trkpt lat="43.74573" lon="7.25873">
        <ele>423</ele>
        <time>2018-05-13T14:23:18.000Z</time>
      </trkpt>
      <trkpt lat="43.74566" lon="7.25871">
        <ele>423</ele>
        <time>2018-05-13T14:23:21.000Z</time>
      </trkpt>
      <trkpt lat="43.74563" lon="7.25871">
        <ele>422</ele>
        <time>2018-05-13T14:23:23.000Z</time>
      </trkpt>
      <trkpt lat="43.74559" lon="7.25871">
        <ele>422</ele>
        <time>2018-05-13T14:23:25.000Z</time>
      </trkpt>
      <trkpt lat="43.74557" lon="7.25869">
        <ele>421</ele>
        <time>2018-05-13T14:23:26.000Z</time>
      </trkpt>
      <trkpt lat="43.74555" lon="7.25869">
        <ele>421</ele>
        <time>2018-05-13T14:23:27.000Z</time>
      </trkpt>
      <trkpt lat="43.74553" lon="7.25877">
        <ele>421</ele>
        <time>2018-05-13T14:23:30.000Z</time>
      </trkpt>
      <trkpt lat="43.74552" lon="7.2588">
        <ele>421</ele>
        <time>2018-05-13T14:23:31.000Z</time>
      </trkpt>
      <trkpt lat="43.74552" lon="7.25883">
        <ele>421</ele>
        <time>2018-05-13T14:23:32.000Z</time>
      </trkpt>
      <trkpt lat="43.74551" lon="7.25886">
        <ele>420</ele>
        <time>2018-05-13T14:23:33.000Z</time>
      </trkpt>
      <trkpt lat="43.7455" lon="7.25892">
        <ele>420</ele>
        <time>2018-05-13T14:23:36.000Z</time>
      </trkpt>
      <trkpt lat="43.74551" lon="7.25898">
        <ele>420</ele>
        <time>2018-05-13T14:23:38.000Z</time>
      </trkpt>
      <trkpt lat="43.74551" lon="7.25904">
        <ele>421</ele>
        <time>2018-05-13T14:23:40.000Z</time>
      </trkpt>
      <trkpt lat="43.74553" lon="7.2591">
        <ele>421</ele>
        <time>2018-05-13T14:23:42.000Z</time>
      </trkpt>
      <trkpt lat="43.74554" lon="7.25915">
        <ele>421</ele>
        <time>2018-05-13T14:23:44.000Z</time>
      </trkpt>
      <trkpt lat="43.74553" lon="7.25917">
        <ele>415</ele>
        <time>2018-05-13T14:23:45.000Z</time>
      </trkpt>
      <trkpt lat="43.74552" lon="7.25918">
        <ele>414</ele>
        <time>2018-05-13T14:23:47.000Z</time>
      </trkpt>
      <trkpt lat="43.74551" lon="7.25918">
        <ele>414</ele>
        <time>2018-05-13T14:23:48.000Z</time>
      </trkpt>
      <trkpt lat="43.7455" lon="7.25919">
        <ele>414</ele>
        <time>2018-05-13T14:23:50.000Z</time>
      </trkpt>
      <trkpt lat="43.74549" lon="7.2592">
        <ele>414</ele>
        <time>2018-05-13T14:23:51.000Z</time>
      </trkpt>
      <trkpt lat="43.74549" lon="7.25926">
        <ele>413</ele>
        <time>2018-05-13T14:23:54.000Z</time>
      </trkpt>
      <trkpt lat="43.74549" lon="7.25928">
        <ele>413</ele>
        <time>2018-05-13T14:23:55.000Z</time>
      </trkpt>
      <trkpt lat="43.74546" lon="7.25929">
        <ele>412</ele>
        <time>2018-05-13T14:23:57.000Z</time>
      </trkpt>
      <trkpt lat="43.74541" lon="7.25933">
        <ele>411</ele>
        <time>2018-05-13T14:24:00.000Z</time>
      </trkpt>
      <trkpt lat="43.7454" lon="7.25934">
        <ele>411</ele>
        <time>2018-05-13T14:24:01.000Z</time>
      </trkpt>
      <trkpt lat="43.74537" lon="7.25935">
        <ele>410</ele>
        <time>2018-05-13T14:24:03.000Z</time>
      </trkpt>
      <trkpt lat="43.74535" lon="7.25937">
        <ele>409</ele>
        <time>2018-05-13T14:24:05.000Z</time>
      </trkpt>
      <trkpt lat="43.74533" lon="7.25939">
        <ele>409</ele>
        <time>2018-05-13T14:24:06.000Z</time>
      </trkpt>
      <trkpt lat="43.74532" lon="7.2594">
        <ele>409</ele>
        <time>2018-05-13T14:24:07.000Z</time>
      </trkpt>
      <trkpt lat="43.74532" lon="7.25941">
        <ele>409</ele>
        <time>2018-05-13T14:24:08.000Z</time>
      </trkpt>
      <trkpt lat="43.74532" lon="7.25942">
        <ele>409</ele>
        <time>2018-05-13T14:24:09.000Z</time>
      </trkpt>
      <trkpt lat="43.74532" lon="7.25944">
        <ele>409</ele>
        <time>2018-05-13T14:24:10.000Z</time>
      </trkpt>
      <trkpt lat="43.74532" lon="7.25945">
        <ele>408</ele>
        <time>2018-05-13T14:24:11.000Z</time>
      </trkpt>
      <trkpt lat="43.74528" lon="7.25948">
        <ele>408</ele>
        <time>2018-05-13T14:24:14.000Z</time>
      </trkpt>
      <trkpt lat="43.74525" lon="7.25949">
        <ele>407</ele>
        <time>2018-05-13T14:24:16.000Z</time>
      </trkpt>
      <trkpt lat="43.74523" lon="7.2595">
        <ele>407</ele>
        <time>2018-05-13T14:24:17.000Z</time>
      </trkpt>
      <trkpt lat="43.74519" lon="7.2595">
        <ele>407</ele>
        <time>2018-05-13T14:24:19.000Z</time>
      </trkpt>
      <trkpt lat="43.74515" lon="7.25951">
        <ele>406</ele>
        <time>2018-05-13T14:24:21.000Z</time>
      </trkpt>
      <trkpt lat="43.74512" lon="7.25951">
        <ele>406</ele>
        <time>2018-05-13T14:24:23.000Z</time>
      </trkpt>
      <trkpt lat="43.74509" lon="7.25955">
        <ele>405</ele>
        <time>2018-05-13T14:24:25.000Z</time>
      </trkpt>
      <trkpt lat="43.74507" lon="7.25955">
        <ele>405</ele>
        <time>2018-05-13T14:24:26.000Z</time>
      </trkpt>
      <trkpt lat="43.74503" lon="7.25954">
        <ele>405</ele>
        <time>2018-05-13T14:24:28.000Z</time>
      </trkpt>
      <trkpt lat="43.74501" lon="7.25955">
        <ele>405</ele>
        <time>2018-05-13T14:24:29.000Z</time>
      </trkpt>
      <trkpt lat="43.74499" lon="7.25955">
        <ele>390</ele>
        <time>2018-05-13T14:24:30.000Z</time>
      </trkpt>
      <trkpt lat="43.74495" lon="7.25954">
        <ele>390</ele>
        <time>2018-05-13T14:24:32.000Z</time>
      </trkpt>
      <trkpt lat="43.74493" lon="7.25955">
        <ele>390</ele>
        <time>2018-05-13T14:24:33.000Z</time>
      </trkpt>
      <trkpt lat="43.74493" lon="7.25955">
        <ele>390</ele>
        <time>2018-05-13T14:24:34.000Z</time>
      </trkpt>
      <trkpt lat="43.74492" lon="7.25954">
        <ele>390</ele>
        <time>2018-05-13T14:24:37.000Z</time>
      </trkpt>
      <trkpt lat="43.7449" lon="7.25955">
        <ele>389</ele>
        <time>2018-05-13T14:24:38.000Z</time>
      </trkpt>
      <trkpt lat="43.74489" lon="7.25955">
        <ele>389</ele>
        <time>2018-05-13T14:24:39.000Z</time>
      </trkpt>
      <trkpt lat="43.74484" lon="7.25959">
        <ele>388</ele>
        <time>2018-05-13T14:24:43.000Z</time>
      </trkpt>
      <trkpt lat="43.74483" lon="7.25959">
        <ele>388</ele>
        <time>2018-05-13T14:24:44.000Z</time>
      </trkpt>
      <trkpt lat="43.7448" lon="7.25959">
        <ele>388</ele>
        <time>2018-05-13T14:24:46.000Z</time>
      </trkpt>
      <trkpt lat="43.74477" lon="7.25961">
        <ele>387</ele>
        <time>2018-05-13T14:24:48.000Z</time>
      </trkpt>
      <trkpt lat="43.74475" lon="7.25962">
        <ele>387</ele>
        <time>2018-05-13T14:24:49.000Z</time>
      </trkpt>
      <trkpt lat="43.7447" lon="7.25966">
        <ele>386</ele>
        <time>2018-05-13T14:24:52.000Z</time>
      </trkpt>
      <trkpt lat="43.74467" lon="7.25967">
        <ele>386</ele>
        <time>2018-05-13T14:24:54.000Z</time>
      </trkpt>
      <trkpt lat="43.74465" lon="7.25967">
        <ele>385</ele>
        <time>2018-05-13T14:24:56.000Z</time>
      </trkpt>
      <trkpt lat="43.74463" lon="7.25967">
        <ele>385</ele>
        <time>2018-05-13T14:24:58.000Z</time>
      </trkpt>
      <trkpt lat="43.74463" lon="7.25967">
        <ele>385</ele>
        <time>2018-05-13T14:24:59.000Z</time>
      </trkpt>
      <trkpt lat="43.74461" lon="7.25968">
        <ele>385</ele>
        <time>2018-05-13T14:25:01.000Z</time>
      </trkpt>
      <trkpt lat="43.74457" lon="7.25969">
        <ele>384</ele>
        <time>2018-05-13T14:25:03.000Z</time>
      </trkpt>
      <trkpt lat="43.7445" lon="7.25969">
        <ele>383</ele>
        <time>2018-05-13T14:25:06.000Z</time>
      </trkpt>
      <trkpt lat="43.74447" lon="7.25966">
        <ele>383</ele>
        <time>2018-05-13T14:25:08.000Z</time>
      </trkpt>
      <trkpt lat="43.74445" lon="7.25967">
        <ele>382</ele>
        <time>2018-05-13T14:25:09.000Z</time>
      </trkpt>
      <trkpt lat="43.74447" lon="7.25971">
        <ele>382</ele>
        <time>2018-05-13T14:25:11.000Z</time>
      </trkpt>
      <trkpt lat="43.74448" lon="7.25975">
        <ele>382</ele>
        <time>2018-05-13T14:25:12.000Z</time>
      </trkpt>
      <trkpt lat="43.74455" lon="7.25979">
        <ele>383</ele>
        <time>2018-05-13T14:25:15.000Z</time>
      </trkpt>
      <trkpt lat="43.74461" lon="7.25991">
        <ele>383</ele>
        <time>2018-05-13T14:25:18.000Z</time>
      </trkpt>
      <trkpt lat="43.74464" lon="7.26">
        <ele>383</ele>
        <time>2018-05-13T14:25:20.000Z</time>
      </trkpt>
      <trkpt lat="43.74466" lon="7.26015">
        <ele>374</ele>
        <time>2018-05-13T14:25:23.000Z</time>
      </trkpt>
      <trkpt lat="43.74472" lon="7.2603">
        <ele>373</ele>
        <time>2018-05-13T14:25:26.000Z</time>
      </trkpt>
      <trkpt lat="43.74474" lon="7.26035">
        <ele>373</ele>
        <time>2018-05-13T14:25:27.000Z</time>
      </trkpt>
      <trkpt lat="43.74475" lon="7.2604">
        <ele>373</ele>
        <time>2018-05-13T14:25:28.000Z</time>
      </trkpt>
      <trkpt lat="43.74477" lon="7.2605">
        <ele>372</ele>
        <time>2018-05-13T14:25:30.000Z</time>
      </trkpt>
      <trkpt lat="43.7448" lon="7.26056">
        <ele>371</ele>
        <time>2018-05-13T14:25:31.000Z</time>
      </trkpt>
      <trkpt lat="43.74482" lon="7.26063">
        <ele>371</ele>
        <time>2018-05-13T14:25:32.000Z</time>
      </trkpt>
      <trkpt lat="43.74484" lon="7.2607">
        <ele>370</ele>
        <time>2018-05-13T14:25:33.000Z</time>
      </trkpt>
      <trkpt lat="43.74486" lon="7.26075">
        <ele>370</ele>
        <time>2018-05-13T14:25:34.000Z</time>
      </trkpt>
      <trkpt lat="43.74488" lon="7.26078">
        <ele>370</ele>
        <time>2018-05-13T14:25:35.000Z</time>
      </trkpt>
      <trkpt lat="43.7449" lon="7.26082">
        <ele>370</ele>
        <time>2018-05-13T14:25:36.000Z</time>
      </trkpt>
      <trkpt lat="43.74496" lon="7.26089">
        <ele>366</ele>
        <time>2018-05-13T14:25:38.000Z</time>
      </trkpt>
      <trkpt lat="43.74499" lon="7.26094">
        <ele>365</ele>
        <time>2018-05-13T14:25:39.000Z</time>
      </trkpt>
      <trkpt lat="43.74506" lon="7.26104">
        <ele>366</ele>
        <time>2018-05-13T14:25:41.000Z</time>
      </trkpt>
      <trkpt lat="43.74511" lon="7.26109">
        <ele>366</ele>
        <time>2018-05-13T14:25:42.000Z</time>
      </trkpt>
      <trkpt lat="43.74517" lon="7.26114">
        <ele>365</ele>
        <time>2018-05-13T14:25:43.000Z</time>
      </trkpt>
      <trkpt lat="43.74522" lon="7.26119">
        <ele>365</ele>
        <time>2018-05-13T14:25:44.000Z</time>
      </trkpt>
      <trkpt lat="43.74527" lon="7.26123">
        <ele>364</ele>
        <time>2018-05-13T14:25:45.000Z</time>
      </trkpt>
      <trkpt lat="43.74532" lon="7.26129">
        <ele>364</ele>
        <time>2018-05-13T14:25:46.000Z</time>
      </trkpt>
      <trkpt lat="43.74541" lon="7.26138">
        <ele>363</ele>
        <time>2018-05-13T14:25:48.000Z</time>
      </trkpt>
      <trkpt lat="43.74545" lon="7.26141">
        <ele>363</ele>
        <time>2018-05-13T14:25:49.000Z</time>
      </trkpt>
      <trkpt lat="43.74548" lon="7.26144">
        <ele>362</ele>
        <time>2018-05-13T14:25:50.000Z</time>
      </trkpt>
      <trkpt lat="43.74551" lon="7.26149">
        <ele>362</ele>
        <time>2018-05-13T14:25:51.000Z</time>
      </trkpt>
      <trkpt lat="43.74553" lon="7.26154">
        <ele>361</ele>
        <time>2018-05-13T14:25:52.000Z</time>
      </trkpt>
      <trkpt lat="43.74555" lon="7.26156">
        <ele>361</ele>
        <time>2018-05-13T14:25:53.000Z</time>
      </trkpt>
      <trkpt lat="43.74556" lon="7.26159">
        <ele>360</ele>
        <time>2018-05-13T14:25:54.000Z</time>
      </trkpt>
      <trkpt lat="43.74562" lon="7.26162">
        <ele>360</ele>
        <time>2018-05-13T14:25:57.000Z</time>
      </trkpt>
      <trkpt lat="43.74563" lon="7.26164">
        <ele>359</ele>
        <time>2018-05-13T14:25:58.000Z</time>
      </trkpt>
      <trkpt lat="43.74565" lon="7.26166">
        <ele>359</ele>
        <time>2018-05-13T14:25:59.000Z</time>
      </trkpt>
      <trkpt lat="43.74565" lon="7.26169">
        <ele>349</ele>
        <time>2018-05-13T14:26:00.000Z</time>
      </trkpt>
      <trkpt lat="43.74565" lon="7.26171">
        <ele>349</ele>
        <time>2018-05-13T14:26:01.000Z</time>
      </trkpt>
      <trkpt lat="43.74563" lon="7.26174">
        <ele>349</ele>
        <time>2018-05-13T14:26:03.000Z</time>
      </trkpt>
      <trkpt lat="43.74561" lon="7.26175">
        <ele>348</ele>
        <time>2018-05-13T14:26:05.000Z</time>
      </trkpt>
      <trkpt lat="43.74563" lon="7.26176">
        <ele>349</ele>
        <time>2018-05-13T14:26:07.000Z</time>
      </trkpt>
      <trkpt lat="43.74565" lon="7.26179">
        <ele>348</ele>
        <time>2018-05-13T14:26:09.000Z</time>
      </trkpt>
      <trkpt lat="43.74563" lon="7.26182">
        <ele>348</ele>
        <time>2018-05-13T14:26:11.000Z</time>
      </trkpt>
      <trkpt lat="43.74564" lon="7.26182">
        <ele>348</ele>
        <time>2018-05-13T14:26:14.000Z</time>
      </trkpt>
      <trkpt lat="43.74564" lon="7.26182">
        <ele>348</ele>
        <time>2018-05-13T14:26:16.000Z</time>
      </trkpt>
      <trkpt lat="43.74563" lon="7.26182">
        <ele>348</ele>
        <time>2018-05-13T14:26:24.000Z</time>
      </trkpt>
      <trkpt lat="43.74561" lon="7.26185">
        <ele>347</ele>
        <time>2018-05-13T14:26:29.000Z</time>
      </trkpt>
      <trkpt lat="43.74559" lon="7.2619">
        <ele>347</ele>
        <time>2018-05-13T14:26:31.000Z</time>
      </trkpt>
      <trkpt lat="43.74555" lon="7.26193">
        <ele>346</ele>
        <time>2018-05-13T14:26:33.000Z</time>
      </trkpt>
      <trkpt lat="43.74554" lon="7.26197">
        <ele>346</ele>
        <time>2018-05-13T14:26:35.000Z</time>
      </trkpt>
      <trkpt lat="43.74552" lon="7.26204">
        <ele>345</ele>
        <time>2018-05-13T14:26:37.000Z</time>
      </trkpt>
      <trkpt lat="43.74547" lon="7.26206">
        <ele>345</ele>
        <time>2018-05-13T14:26:39.000Z</time>
      </trkpt>
      <trkpt lat="43.74544" lon="7.26207">
        <ele>344</ele>
        <time>2018-05-13T14:26:40.000Z</time>
      </trkpt>
      <trkpt lat="43.74543" lon="7.26207">
        <ele>344</ele>
        <time>2018-05-13T14:26:41.000Z</time>
      </trkpt>
      <trkpt lat="43.74543" lon="7.26209">
        <ele>344</ele>
        <time>2018-05-13T14:26:42.000Z</time>
      </trkpt>
      <trkpt lat="43.74543" lon="7.26212">
        <ele>344</ele>
        <time>2018-05-13T14:26:43.000Z</time>
      </trkpt>
      <trkpt lat="43.74546" lon="7.26224">
        <ele>343</ele>
        <time>2018-05-13T14:26:47.000Z</time>
      </trkpt>
      <trkpt lat="43.74546" lon="7.26227">
        <ele>342</ele>
        <time>2018-05-13T14:26:48.000Z</time>
      </trkpt>
      <trkpt lat="43.74547" lon="7.26231">
        <ele>342</ele>
        <time>2018-05-13T14:26:49.000Z</time>
      </trkpt>
      <trkpt lat="43.74549" lon="7.26233">
        <ele>342</ele>
        <time>2018-05-13T14:26:50.000Z</time>
      </trkpt>
      <trkpt lat="43.74551" lon="7.26234">
        <ele>342</ele>
        <time>2018-05-13T14:26:51.000Z</time>
      </trkpt>
      <trkpt lat="43.74553" lon="7.26235">
        <ele>342</ele>
        <time>2018-05-13T14:26:52.000Z</time>
      </trkpt>
      <trkpt lat="43.74564" lon="7.26244">
        <ele>341</ele>
        <time>2018-05-13T14:26:58.000Z</time>
      </trkpt>
      <trkpt lat="43.74582" lon="7.26259">
        <ele>333</ele>
        <time>2018-05-13T14:27:04.000Z</time>
      </trkpt>
      <trkpt lat="43.74582" lon="7.26263">
        <ele>331</ele>
        <time>2018-05-13T14:27:05.000Z</time>
      </trkpt>
      <trkpt lat="43.74581" lon="7.26275">
        <ele>328</ele>
        <time>2018-05-13T14:27:07.000Z</time>
      </trkpt>
      <trkpt lat="43.74583" lon="7.26282">
        <ele>326</ele>
        <time>2018-05-13T14:27:08.000Z</time>
      </trkpt>
      <trkpt lat="43.74593" lon="7.2629">
        <ele>326</ele>
        <time>2018-05-13T14:27:10.000Z</time>
      </trkpt>
      <trkpt lat="43.74604" lon="7.26293">
        <ele>326</ele>
        <time>2018-05-13T14:27:12.000Z</time>
      </trkpt>
      <trkpt lat="43.74615" lon="7.26292">
        <ele>326</ele>
        <time>2018-05-13T14:27:14.000Z</time>
      </trkpt>
      <trkpt lat="43.74621" lon="7.26292">
        <ele>326</ele>
        <time>2018-05-13T14:27:15.000Z</time>
      </trkpt>
      <trkpt lat="43.74633" lon="7.26292">
        <ele>326</ele>
        <time>2018-05-13T14:27:17.000Z</time>
      </trkpt>
      <trkpt lat="43.74642" lon="7.26289">
        <ele>327</ele>
        <time>2018-05-13T14:27:19.000Z</time>
      </trkpt>
      <trkpt lat="43.7465" lon="7.26296">
        <ele>326</ele>
        <time>2018-05-13T14:27:21.000Z</time>
      </trkpt>
      <trkpt lat="43.74649" lon="7.26302">
        <ele>325</ele>
        <time>2018-05-13T14:27:22.000Z</time>
      </trkpt>
      <trkpt lat="43.74646" lon="7.26307">
        <ele>324</ele>
        <time>2018-05-13T14:27:23.000Z</time>
      </trkpt>
      <trkpt lat="43.7464" lon="7.2631">
        <ele>324</ele>
        <time>2018-05-13T14:27:24.000Z</time>
      </trkpt>
      <trkpt lat="43.74634" lon="7.26312">
        <ele>324</ele>
        <time>2018-05-13T14:27:25.000Z</time>
      </trkpt>
      <trkpt lat="43.74627" lon="7.26315">
        <ele>323</ele>
        <time>2018-05-13T14:27:26.000Z</time>
      </trkpt>
      <trkpt lat="43.74624" lon="7.26319">
        <ele>323</ele>
        <time>2018-05-13T14:27:27.000Z</time>
      </trkpt>
      <trkpt lat="43.74624" lon="7.26324">
        <ele>322</ele>
        <time>2018-05-13T14:27:28.000Z</time>
      </trkpt>
      <trkpt lat="43.74633" lon="7.2633">
        <ele>322</ele>
        <time>2018-05-13T14:27:30.000Z</time>
      </trkpt>
      <trkpt lat="43.74644" lon="7.26328">
        <ele>322</ele>
        <time>2018-05-13T14:27:32.000Z</time>
      </trkpt>
      <trkpt lat="43.74648" lon="7.26328">
        <ele>321</ele>
        <time>2018-05-13T14:27:33.000Z</time>
      </trkpt>
      <trkpt lat="43.74651" lon="7.2633">
        <ele>321</ele>
        <time>2018-05-13T14:27:34.000Z</time>
      </trkpt>
      <trkpt lat="43.74652" lon="7.2633">
        <ele>321</ele>
        <time>2018-05-13T14:27:35.000Z</time>
      </trkpt>
      <trkpt lat="43.74652" lon="7.26332">
        <ele>321</ele>
        <time>2018-05-13T14:27:36.000Z</time>
      </trkpt>
      <trkpt lat="43.74644" lon="7.26344">
        <ele>310</ele>
        <time>2018-05-13T14:27:40.000Z</time>
      </trkpt>
      <trkpt lat="43.7464" lon="7.26346">
        <ele>309</ele>
        <time>2018-05-13T14:27:41.000Z</time>
      </trkpt>
      <trkpt lat="43.74637" lon="7.2635">
        <ele>309</ele>
        <time>2018-05-13T14:27:42.000Z</time>
      </trkpt>
      <trkpt lat="43.74636" lon="7.26354">
        <ele>308</ele>
        <time>2018-05-13T14:27:43.000Z</time>
      </trkpt>
      <trkpt lat="43.74637" lon="7.26358">
        <ele>308</ele>
        <time>2018-05-13T14:27:44.000Z</time>
      </trkpt>
      <trkpt lat="43.74639" lon="7.26365">
        <ele>307</ele>
        <time>2018-05-13T14:27:46.000Z</time>
      </trkpt>
      <trkpt lat="43.74641" lon="7.26367">
        <ele>307</ele>
        <time>2018-05-13T14:27:47.000Z</time>
      </trkpt>
      <trkpt lat="43.74644" lon="7.26367">
        <ele>307</ele>
        <time>2018-05-13T14:27:48.000Z</time>
      </trkpt>
      <trkpt lat="43.74647" lon="7.26367">
        <ele>307</ele>
        <time>2018-05-13T14:27:49.000Z</time>
      </trkpt>
      <trkpt lat="43.74659" lon="7.26372">
        <ele>306</ele>
        <time>2018-05-13T14:27:53.000Z</time>
      </trkpt>
      <trkpt lat="43.74658" lon="7.26388">
        <ele>304</ele>
        <time>2018-05-13T14:27:57.000Z</time>
      </trkpt>
      <trkpt lat="43.74657" lon="7.26397">
        <ele>303</ele>
        <time>2018-05-13T14:27:59.000Z</time>
      </trkpt>
      <trkpt lat="43.74655" lon="7.26403">
        <ele>302</ele>
        <time>2018-05-13T14:28:01.000Z</time>
      </trkpt>
      <trkpt lat="43.74653" lon="7.26408">
        <ele>301</ele>
        <time>2018-05-13T14:28:03.000Z</time>
      </trkpt>
      <trkpt lat="43.74656" lon="7.26415">
        <ele>300</ele>
        <time>2018-05-13T14:28:05.000Z</time>
      </trkpt>
      <trkpt lat="43.7466" lon="7.26418">
        <ele>295</ele>
        <time>2018-05-13T14:28:06.000Z</time>
      </trkpt>
      <trkpt lat="43.74668" lon="7.26423">
        <ele>296</ele>
        <time>2018-05-13T14:28:08.000Z</time>
      </trkpt>
      <trkpt lat="43.74672" lon="7.26425">
        <ele>294</ele>
        <time>2018-05-13T14:28:09.000Z</time>
      </trkpt>
      <trkpt lat="43.74677" lon="7.26427">
        <ele>293</ele>
        <time>2018-05-13T14:28:10.000Z</time>
      </trkpt>
      <trkpt lat="43.74682" lon="7.2643">
        <ele>292</ele>
        <time>2018-05-13T14:28:11.000Z</time>
      </trkpt>
      <trkpt lat="43.74687" lon="7.26431">
        <ele>291</ele>
        <time>2018-05-13T14:28:12.000Z</time>
      </trkpt>
      <trkpt lat="43.74695" lon="7.26432">
        <ele>290</ele>
        <time>2018-05-13T14:28:14.000Z</time>
      </trkpt>
      <trkpt lat="43.74703" lon="7.26433">
        <ele>290</ele>
        <time>2018-05-13T14:28:16.000Z</time>
      </trkpt>
      <trkpt lat="43.74714" lon="7.26436">
        <ele>290</ele>
        <time>2018-05-13T14:28:19.000Z</time>
      </trkpt>
      <trkpt lat="43.74715" lon="7.26439">
        <ele>290</ele>
        <time>2018-05-13T14:28:20.000Z</time>
      </trkpt>
      <trkpt lat="43.74715" lon="7.26446">
        <ele>289</ele>
        <time>2018-05-13T14:28:22.000Z</time>
      </trkpt>
      <trkpt lat="43.74708" lon="7.26457">
        <ele>287</ele>
        <time>2018-05-13T14:28:25.000Z</time>
      </trkpt>
      <trkpt lat="43.74706" lon="7.26462">
        <ele>287</ele>
        <time>2018-05-13T14:28:26.000Z</time>
      </trkpt>
      <trkpt lat="43.74703" lon="7.26466">
        <ele>286</ele>
        <time>2018-05-13T14:28:27.000Z</time>
      </trkpt>
      <trkpt lat="43.74697" lon="7.26472">
        <ele>285</ele>
        <time>2018-05-13T14:28:29.000Z</time>
      </trkpt>
      <trkpt lat="43.74689" lon="7.26474">
        <ele>284</ele>
        <time>2018-05-13T14:28:31.000Z</time>
      </trkpt>
      <trkpt lat="43.74682" lon="7.26475">
        <ele>284</ele>
        <time>2018-05-13T14:28:33.000Z</time>
      </trkpt>
      <trkpt lat="43.74677" lon="7.26472">
        <ele>284</ele>
        <time>2018-05-13T14:28:35.000Z</time>
      </trkpt>
      <trkpt lat="43.74673" lon="7.26471">
        <ele>284</ele>
        <time>2018-05-13T14:28:36.000Z</time>
      </trkpt>
      <trkpt lat="43.7467" lon="7.26471">
        <ele>284</ele>
        <time>2018-05-13T14:28:37.000Z</time>
      </trkpt>
      <trkpt lat="43.74663" lon="7.26472">
        <ele>283</ele>
        <time>2018-05-13T14:28:40.000Z</time>
      </trkpt>
      <trkpt lat="43.74664" lon="7.26475">
        <ele>283</ele>
        <time>2018-05-13T14:28:41.000Z</time>
      </trkpt>
      <trkpt lat="43.7467" lon="7.26482">
        <ele>282</ele>
        <time>2018-05-13T14:28:44.000Z</time>
      </trkpt>
      <trkpt lat="43.74673" lon="7.26484">
        <ele>281</ele>
        <time>2018-05-13T14:28:45.000Z</time>
      </trkpt>
      <trkpt lat="43.74685" lon="7.26504">
        <ele>269</ele>
        <time>2018-05-13T14:28:49.000Z</time>
      </trkpt>
      <trkpt lat="43.74692" lon="7.26514">
        <ele>267</ele>
        <time>2018-05-13T14:28:51.000Z</time>
      </trkpt>
      <trkpt lat="43.74695" lon="7.26516">
        <ele>266</ele>
        <time>2018-05-13T14:28:52.000Z</time>
      </trkpt>
      <trkpt lat="43.74699" lon="7.26517">
        <ele>266</ele>
        <time>2018-05-13T14:28:53.000Z</time>
      </trkpt>
      <trkpt lat="43.74702" lon="7.26517">
        <ele>266</ele>
        <time>2018-05-13T14:28:54.000Z</time>
      </trkpt>
      <trkpt lat="43.74706" lon="7.2652">
        <ele>266</ele>
        <time>2018-05-13T14:28:56.000Z</time>
      </trkpt>
      <trkpt lat="43.74706" lon="7.26522">
        <ele>265</ele>
        <time>2018-05-13T14:29:00.000Z</time>
      </trkpt>
      <trkpt lat="43.74708" lon="7.26525">
        <ele>265</ele>
        <time>2018-05-13T14:29:06.000Z</time>
      </trkpt>
      <trkpt lat="43.74711" lon="7.26528">
        <ele>264</ele>
        <time>2018-05-13T14:29:13.000Z</time>
      </trkpt>
      <trkpt lat="43.74714" lon="7.26529">
        <ele>264</ele>
        <time>2018-05-13T14:29:17.000Z</time>
      </trkpt>
      <trkpt lat="43.74715" lon="7.26529">
        <ele>264</ele>
        <time>2018-05-13T14:29:19.000Z</time>
      </trkpt>
      <trkpt lat="43.7472" lon="7.26531">
        <ele>264</ele>
        <time>2018-05-13T14:29:24.000Z</time>
      </trkpt>
      <trkpt lat="43.74721" lon="7.26534">
        <ele>264</ele>
        <time>2018-05-13T14:29:30.000Z</time>
      </trkpt>
      <trkpt lat="43.74722" lon="7.26537">
        <ele>263</ele>
        <time>2018-05-13T14:29:37.000Z</time>
      </trkpt>
      <trkpt lat="43.74722" lon="7.26537">
        <ele>263</ele>
        <time>2018-05-13T14:29:38.000Z</time>
      </trkpt>
      <trkpt lat="43.74723" lon="7.26538">
        <ele>263</ele>
        <time>2018-05-13T14:29:42.000Z</time>
      </trkpt>
      <trkpt lat="43.74722" lon="7.2654">
        <ele>262</ele>
        <time>2018-05-13T14:29:44.000Z</time>
      </trkpt>
      <trkpt lat="43.7472" lon="7.26541">
        <ele>262</ele>
        <time>2018-05-13T14:29:46.000Z</time>
      </trkpt>
      <trkpt lat="43.74718" lon="7.26542">
        <ele>262</ele>
        <time>2018-05-13T14:29:51.000Z</time>
      </trkpt>
      <trkpt lat="43.74716" lon="7.26547">
        <ele>261</ele>
        <time>2018-05-13T14:29:57.000Z</time>
      </trkpt>
      <trkpt lat="43.74715" lon="7.26547">
        <ele>261</ele>
        <time>2018-05-13T14:29:58.000Z</time>
      </trkpt>
      <trkpt lat="43.74711" lon="7.26545">
        <ele>262</ele>
        <time>2018-05-13T14:30:01.000Z</time>
      </trkpt>
      <trkpt lat="43.74709" lon="7.26545">
        <ele>262</ele>
        <time>2018-05-13T14:30:04.000Z</time>
      </trkpt>
      <trkpt lat="43.74707" lon="7.26545">
        <ele>262</ele>
        <time>2018-05-13T14:30:10.000Z</time>
      </trkpt>
      <trkpt lat="43.74706" lon="7.26545">
        <ele>262</ele>
        <time>2018-05-13T14:30:11.000Z</time>
      </trkpt>
      <trkpt lat="43.74707" lon="7.26547">
        <ele>261</ele>
        <time>2018-05-13T14:30:18.000Z</time>
      </trkpt>
      <trkpt lat="43.74707" lon="7.26549">
        <ele>261</ele>
        <time>2018-05-13T14:30:19.000Z</time>
      </trkpt>
      <trkpt lat="43.74709" lon="7.2655">
        <ele>261</ele>
        <time>2018-05-13T14:30:22.000Z</time>
      </trkpt>
      <trkpt lat="43.7471" lon="7.2655">
        <ele>261</ele>
        <time>2018-05-13T14:30:24.000Z</time>
      </trkpt>
      <trkpt lat="43.74711" lon="7.2655">
        <ele>261</ele>
        <time>2018-05-13T14:30:25.000Z</time>
      </trkpt>
      <trkpt lat="43.74716" lon="7.26555">
        <ele>260</ele>
        <time>2018-05-13T14:30:32.000Z</time>
      </trkpt>
      <trkpt lat="43.74716" lon="7.26558">
        <ele>259</ele>
        <time>2018-05-13T14:30:38.000Z</time>
      </trkpt>
      <trkpt lat="43.74715" lon="7.26559">
        <ele>259</ele>
        <time>2018-05-13T14:30:45.000Z</time>
      </trkpt>
      <trkpt lat="43.74716" lon="7.26561">
        <ele>259</ele>
        <time>2018-05-13T14:30:49.000Z</time>
      </trkpt>
      <trkpt lat="43.74716" lon="7.26564">
        <ele>258</ele>
        <time>2018-05-13T14:30:52.000Z</time>
      </trkpt>
      <trkpt lat="43.74716" lon="7.26563">
        <ele>258</ele>
        <time>2018-05-13T14:30:53.000Z</time>
      </trkpt>
      <trkpt lat="43.74719" lon="7.26569">
        <ele>258</ele>
        <time>2018-05-13T14:30:57.000Z</time>
      </trkpt>
      <trkpt lat="43.74719" lon="7.2657">
        <ele>257</ele>
        <time>2018-05-13T14:30:59.000Z</time>
      </trkpt>
      <trkpt lat="43.7472" lon="7.26572">
        <ele>257</ele>
        <time>2018-05-13T14:31:03.000Z</time>
      </trkpt>
      <trkpt lat="43.74721" lon="7.26577">
        <ele>256</ele>
        <time>2018-05-13T14:31:07.000Z</time>
      </trkpt>
      <trkpt lat="43.74722" lon="7.26578">
        <ele>256</ele>
        <time>2018-05-13T14:31:08.000Z</time>
      </trkpt>
      <trkpt lat="43.74722" lon="7.26579">
        <ele>256</ele>
        <time>2018-05-13T14:31:09.000Z</time>
      </trkpt>
      <trkpt lat="43.74723" lon="7.26581">
        <ele>256</ele>
        <time>2018-05-13T14:31:11.000Z</time>
      </trkpt>
      <trkpt lat="43.74724" lon="7.26584">
        <ele>243</ele>
        <time>2018-05-13T14:31:14.000Z</time>
      </trkpt>
      <trkpt lat="43.74725" lon="7.26587">
        <ele>243</ele>
        <time>2018-05-13T14:31:20.000Z</time>
      </trkpt>
      <trkpt lat="43.74725" lon="7.26587">
        <ele>243</ele>
        <time>2018-05-13T14:31:21.000Z</time>
      </trkpt>
      <trkpt lat="43.74725" lon="7.26589">
        <ele>243</ele>
        <time>2018-05-13T14:31:25.000Z</time>
      </trkpt>
      <trkpt lat="43.74725" lon="7.2659">
        <ele>243</ele>
        <time>2018-05-13T14:31:29.000Z</time>
      </trkpt>
      <trkpt lat="43.74727" lon="7.26594">
        <ele>243</ele>
        <time>2018-05-13T14:31:37.000Z</time>
      </trkpt>
      <trkpt lat="43.74727" lon="7.26594">
        <ele>243</ele>
        <time>2018-05-13T14:31:38.000Z</time>
      </trkpt>
      <trkpt lat="43.74728" lon="7.26595">
        <ele>243</ele>
        <time>2018-05-13T14:31:42.000Z</time>
      </trkpt>
      <trkpt lat="43.74728" lon="7.26595">
        <ele>243</ele>
        <time>2018-05-13T14:31:43.000Z</time>
      </trkpt>
      <trkpt lat="43.74729" lon="7.26596">
        <ele>243</ele>
        <time>2018-05-13T14:31:45.000Z</time>
      </trkpt>
      <trkpt lat="43.7473" lon="7.26598">
        <ele>243</ele>
        <time>2018-05-13T14:31:47.000Z</time>
      </trkpt>
      <trkpt lat="43.74729" lon="7.266">
        <ele>242</ele>
        <time>2018-05-13T14:31:49.000Z</time>
      </trkpt>
      <trkpt lat="43.7473" lon="7.26603">
        <ele>242</ele>
        <time>2018-05-13T14:31:53.000Z</time>
      </trkpt>
      <trkpt lat="43.7473" lon="7.26602">
        <ele>242</ele>
        <time>2018-05-13T14:31:54.000Z</time>
      </trkpt>
      <trkpt lat="43.74731" lon="7.26606">
        <ele>242</ele>
        <time>2018-05-13T14:31:57.000Z</time>
      </trkpt>
      <trkpt lat="43.74732" lon="7.26607">
        <ele>242</ele>
        <time>2018-05-13T14:32:00.000Z</time>
      </trkpt>
      <trkpt lat="43.74731" lon="7.26607">
        <ele>242</ele>
        <time>2018-05-13T14:32:02.000Z</time>
      </trkpt>
      <trkpt lat="43.74731" lon="7.26611">
        <ele>241</ele>
        <time>2018-05-13T14:32:05.000Z</time>
      </trkpt>
      <trkpt lat="43.74732" lon="7.26612">
        <ele>241</ele>
        <time>2018-05-13T14:32:08.000Z</time>
      </trkpt>
      <trkpt lat="43.74733" lon="7.26615">
        <ele>241</ele>
        <time>2018-05-13T14:32:12.000Z</time>
      </trkpt>
      <trkpt lat="43.74735" lon="7.26616">
        <ele>241</ele>
        <time>2018-05-13T14:32:17.000Z</time>
      </trkpt>
      <trkpt lat="43.74735" lon="7.26617">
        <ele>241</ele>
        <time>2018-05-13T14:32:19.000Z</time>
      </trkpt>
      <trkpt lat="43.74738" lon="7.26619">
        <ele>240</ele>
        <time>2018-05-13T14:32:25.000Z</time>
      </trkpt>
      <trkpt lat="43.74738" lon="7.2662">
        <ele>240</ele>
        <time>2018-05-13T14:32:28.000Z</time>
      </trkpt>
      <trkpt lat="43.74739" lon="7.2662">
        <ele>240</ele>
        <time>2018-05-13T14:32:29.000Z</time>
      </trkpt>
      <trkpt lat="43.7474" lon="7.26626">
        <ele>239</ele>
        <time>2018-05-13T14:32:37.000Z</time>
      </trkpt>
      <trkpt lat="43.74739" lon="7.26627">
        <ele>239</ele>
        <time>2018-05-13T14:32:41.000Z</time>
      </trkpt>
      <trkpt lat="43.74738" lon="7.26628">
        <ele>239</ele>
        <time>2018-05-13T14:32:44.000Z</time>
      </trkpt>
      <trkpt lat="43.74738" lon="7.2663">
        <ele>238</ele>
        <time>2018-05-13T14:32:46.000Z</time>
      </trkpt>
      <trkpt lat="43.74739" lon="7.26632">
        <ele>238</ele>
        <time>2018-05-13T14:32:50.000Z</time>
      </trkpt>
      <trkpt lat="43.74739" lon="7.26634">
        <ele>238</ele>
        <time>2018-05-13T14:32:53.000Z</time>
      </trkpt>
      <trkpt lat="43.74741" lon="7.26636">
        <ele>237</ele>
        <time>2018-05-13T14:32:56.000Z</time>
      </trkpt>
      <trkpt lat="43.74742" lon="7.26636">
        <ele>237</ele>
        <time>2018-05-13T14:32:58.000Z</time>
      </trkpt>
      <trkpt lat="43.74743" lon="7.26639">
        <ele>236</ele>
        <time>2018-05-13T14:33:02.000Z</time>
      </trkpt>
      <trkpt lat="43.74742" lon="7.26641">
        <ele>236</ele>
        <time>2018-05-13T14:33:03.000Z</time>
      </trkpt>
      <trkpt lat="43.74741" lon="7.26646">
        <ele>235</ele>
        <time>2018-05-13T14:33:08.000Z</time>
      </trkpt>
      <trkpt lat="43.7474" lon="7.26649">
        <ele>234</ele>
        <time>2018-05-13T14:33:12.000Z</time>
      </trkpt>
      <trkpt lat="43.74739" lon="7.26649">
        <ele>234</ele>
        <time>2018-05-13T14:33:14.000Z</time>
      </trkpt>
      <trkpt lat="43.74739" lon="7.2665">
        <ele>234</ele>
        <time>2018-05-13T14:33:15.000Z</time>
      </trkpt>
      <trkpt lat="43.74739" lon="7.26652">
        <ele>234</ele>
        <time>2018-05-13T14:33:18.000Z</time>
      </trkpt>
      <trkpt lat="43.7474" lon="7.26655">
        <ele>233</ele>
        <time>2018-05-13T14:33:21.000Z</time>
      </trkpt>
      <trkpt lat="43.74742" lon="7.26657">
        <ele>231</ele>
        <time>2018-05-13T14:33:25.000Z</time>
      </trkpt>
      <trkpt lat="43.74743" lon="7.26662">
        <ele>230</ele>
        <time>2018-05-13T14:33:29.000Z</time>
      </trkpt>
      <trkpt lat="43.74743" lon="7.26663">
        <ele>229</ele>
        <time>2018-05-13T14:33:30.000Z</time>
      </trkpt>
      <trkpt lat="43.74749" lon="7.26666">
        <ele>226</ele>
        <time>2018-05-13T14:33:37.000Z</time>
      </trkpt>
      <trkpt lat="43.74755" lon="7.26671">
        <ele>225</ele>
        <time>2018-05-13T14:33:46.000Z</time>
      </trkpt>
      <trkpt lat="43.74759" lon="7.26675">
        <ele>226</ele>
        <time>2018-05-13T14:33:52.000Z</time>
      </trkpt>
      <trkpt lat="43.74759" lon="7.26675">
        <ele>226</ele>
        <time>2018-05-13T14:33:53.000Z</time>
      </trkpt>
      <trkpt lat="43.7476" lon="7.26678">
        <ele>226</ele>
        <time>2018-05-13T14:34:00.000Z</time>
      </trkpt>
      <trkpt lat="43.74761" lon="7.26678">
        <ele>226</ele>
        <time>2018-05-13T14:34:01.000Z</time>
      </trkpt>
      <trkpt lat="43.74762" lon="7.26682">
        <ele>226</ele>
        <time>2018-05-13T14:34:04.000Z</time>
      </trkpt>
      <trkpt lat="43.74763" lon="7.26684">
        <ele>226</ele>
        <time>2018-05-13T14:34:06.000Z</time>
      </trkpt>
      <trkpt lat="43.74763" lon="7.26687">
        <ele>226</ele>
        <time>2018-05-13T14:34:08.000Z</time>
      </trkpt>
      <trkpt lat="43.74766" lon="7.26689">
        <ele>226</ele>
        <time>2018-05-13T14:34:12.000Z</time>
      </trkpt>
      <trkpt lat="43.74768" lon="7.26692">
        <ele>226</ele>
        <time>2018-05-13T14:34:15.000Z</time>
      </trkpt>
      <trkpt lat="43.7477" lon="7.26695">
        <ele>226</ele>
        <time>2018-05-13T14:34:18.000Z</time>
      </trkpt>
      <trkpt lat="43.7477" lon="7.26696">
        <ele>226</ele>
        <time>2018-05-13T14:34:19.000Z</time>
      </trkpt>
      <trkpt lat="43.74771" lon="7.26697">
        <ele>226</ele>
        <time>2018-05-13T14:34:20.000Z</time>
      </trkpt>
      <trkpt lat="43.74771" lon="7.267">
        <ele>226</ele>
        <time>2018-05-13T14:34:22.000Z</time>
      </trkpt>
      <trkpt lat="43.74771" lon="7.26702">
        <ele>226</ele>
        <time>2018-05-13T14:34:24.000Z</time>
      </trkpt>
      <trkpt lat="43.74772" lon="7.26703">
        <ele>226</ele>
        <time>2018-05-13T14:34:25.000Z</time>
      </trkpt>
      <trkpt lat="43.74773" lon="7.26705">
        <ele>225</ele>
        <time>2018-05-13T14:34:29.000Z</time>
      </trkpt>
      <trkpt lat="43.74774" lon="7.26707">
        <ele>225</ele>
        <time>2018-05-13T14:34:30.000Z</time>
      </trkpt>
      <trkpt lat="43.74777" lon="7.26711">
        <ele>225</ele>
        <time>2018-05-13T14:34:34.000Z</time>
      </trkpt>
      <trkpt lat="43.74778" lon="7.26713">
        <ele>225</ele>
        <time>2018-05-13T14:34:36.000Z</time>
      </trkpt>
      <trkpt lat="43.74779" lon="7.26714">
        <ele>225</ele>
        <time>2018-05-13T14:34:37.000Z</time>
      </trkpt>
      <trkpt lat="43.74784" lon="7.26716">
        <ele>225</ele>
        <time>2018-05-13T14:34:43.000Z</time>
      </trkpt>
      <trkpt lat="43.74785" lon="7.26716">
        <ele>225</ele>
        <time>2018-05-13T14:34:50.000Z</time>
      </trkpt>
      <trkpt lat="43.74786" lon="7.26718">
        <ele>225</ele>
        <time>2018-05-13T14:34:55.000Z</time>
      </trkpt>
      <trkpt lat="43.74787" lon="7.2672">
        <ele>225</ele>
        <time>2018-05-13T14:34:57.000Z</time>
      </trkpt>
      <trkpt lat="43.74788" lon="7.26722">
        <ele>225</ele>
        <time>2018-05-13T14:35:02.000Z</time>
      </trkpt>
      <trkpt lat="43.74789" lon="7.26726">
        <ele>225</ele>
        <time>2018-05-13T14:35:09.000Z</time>
      </trkpt>
      <trkpt lat="43.7479" lon="7.26729">
        <ele>225</ele>
        <time>2018-05-13T14:35:16.000Z</time>
      </trkpt>
      <trkpt lat="43.7479" lon="7.26733">
        <ele>224</ele>
        <time>2018-05-13T14:35:26.000Z</time>
      </trkpt>
      <trkpt lat="43.7479" lon="7.26736">
        <ele>224</ele>
        <time>2018-05-13T14:35:37.000Z</time>
      </trkpt>
      <trkpt lat="43.74791" lon="7.26738">
        <ele>224</ele>
        <time>2018-05-13T14:35:47.000Z</time>
      </trkpt>
      <trkpt lat="43.74791" lon="7.26739">
        <ele>224</ele>
        <time>2018-05-13T14:35:52.000Z</time>
      </trkpt>
      <trkpt lat="43.74791" lon="7.26739">
        <ele>224</ele>
        <time>2018-05-13T14:35:53.000Z</time>
      </trkpt>
      <trkpt lat="43.74791" lon="7.2674">
        <ele>224</ele>
        <time>2018-05-13T14:35:57.000Z</time>
      </trkpt>
      <trkpt lat="43.74792" lon="7.26741">
        <ele>224</ele>
        <time>2018-05-13T14:35:58.000Z</time>
      </trkpt>
      <trkpt lat="43.74792" lon="7.26745">
        <ele>224</ele>
        <time>2018-05-13T14:36:04.000Z</time>
      </trkpt>
      <trkpt lat="43.74792" lon="7.26745">
        <ele>224</ele>
        <time>2018-05-13T14:36:05.000Z</time>
      </trkpt>
      <trkpt lat="43.74792" lon="7.26746">
        <ele>224</ele>
        <time>2018-05-13T14:36:07.000Z</time>
      </trkpt>
      <trkpt lat="43.74791" lon="7.26748">
        <ele>224</ele>
        <time>2018-05-13T14:36:10.000Z</time>
      </trkpt>
      <trkpt lat="43.74791" lon="7.26748">
        <ele>224</ele>
        <time>2018-05-13T14:36:12.000Z</time>
      </trkpt>
      <trkpt lat="43.74793" lon="7.26751">
        <ele>215</ele>
        <time>2018-05-13T14:36:20.000Z</time>
      </trkpt>
      <trkpt lat="43.74797" lon="7.26757">
        <ele>215</ele>
        <time>2018-05-13T14:36:26.000Z</time>
      </trkpt>
      <trkpt lat="43.74799" lon="7.26762">
        <ele>214</ele>
        <time>2018-05-13T14:36:30.000Z</time>
      </trkpt>
      <trkpt lat="43.74799" lon="7.26764">
        <ele>214</ele>
        <time>2018-05-13T14:36:31.000Z</time>
      </trkpt>
      <trkpt lat="43.74802" lon="7.2677">
        <ele>214</ele>
        <time>2018-05-13T14:36:36.000Z</time>
      </trkpt>
      <trkpt lat="43.74806" lon="7.26775">
        <ele>214</ele>
        <time>2018-05-13T14:36:43.000Z</time>
      </trkpt>
      <trkpt lat="43.74808" lon="7.26777">
        <ele>214</ele>
        <time>2018-05-13T14:36:44.000Z</time>
      </trkpt>
      <trkpt lat="43.74812" lon="7.26783">
        <ele>213</ele>
        <time>2018-05-13T14:36:47.000Z</time>
      </trkpt>
      <trkpt lat="43.74815" lon="7.26788">
        <ele>212</ele>
        <time>2018-05-13T14:36:49.000Z</time>
      </trkpt>
      <trkpt lat="43.74818" lon="7.26792">
        <ele>212</ele>
        <time>2018-05-13T14:36:51.000Z</time>
      </trkpt>
      <trkpt lat="43.74822" lon="7.26796">
        <ele>211</ele>
        <time>2018-05-13T14:36:53.000Z</time>
      </trkpt>
      <trkpt lat="43.74833" lon="7.26804">
        <ele>213</ele>
        <time>2018-05-13T14:36:58.000Z</time>
      </trkpt>
      <trkpt lat="43.74838" lon="7.26807">
        <ele>212</ele>
        <time>2018-05-13T14:37:02.000Z</time>
      </trkpt>
      <trkpt lat="43.74847" lon="7.26817">
        <ele>210</ele>
        <time>2018-05-13T14:37:07.000Z</time>
      </trkpt>
      <trkpt lat="43.74857" lon="7.26828">
        <ele>211</ele>
        <time>2018-05-13T14:37:12.000Z</time>
      </trkpt>
      <trkpt lat="43.74858" lon="7.26842">
        <ele>203</ele>
        <time>2018-05-13T14:37:16.000Z</time>
      </trkpt>
      <trkpt lat="43.74859" lon="7.26844">
        <ele>203</ele>
        <time>2018-05-13T14:37:17.000Z</time>
      </trkpt>
      <trkpt lat="43.74859" lon="7.2685">
        <ele>203</ele>
        <time>2018-05-13T14:37:19.000Z</time>
      </trkpt>
      <trkpt lat="43.74858" lon="7.26855">
        <ele>203</ele>
        <time>2018-05-13T14:37:20.000Z</time>
      </trkpt>
      <trkpt lat="43.74858" lon="7.26867">
        <ele>203</ele>
        <time>2018-05-13T14:37:23.000Z</time>
      </trkpt>
      <trkpt lat="43.74857" lon="7.26869">
        <ele>202</ele>
        <time>2018-05-13T14:37:24.000Z</time>
      </trkpt>
      <trkpt lat="43.74856" lon="7.2687">
        <ele>202</ele>
        <time>2018-05-13T14:37:25.000Z</time>
      </trkpt>
      <trkpt lat="43.74856" lon="7.26874">
        <ele>202</ele>
        <time>2018-05-13T14:37:27.000Z</time>
      </trkpt>
      <trkpt lat="43.74856" lon="7.26876">
        <ele>202</ele>
        <time>2018-05-13T14:37:28.000Z</time>
      </trkpt>
      <trkpt lat="43.74856" lon="7.26879">
        <ele>202</ele>
        <time>2018-05-13T14:37:29.000Z</time>
      </trkpt>
      <trkpt lat="43.74856" lon="7.26885">
        <ele>202</ele>
        <time>2018-05-13T14:37:31.000Z</time>
      </trkpt>
      <trkpt lat="43.74855" lon="7.26892">
        <ele>201</ele>
        <time>2018-05-13T14:37:33.000Z</time>
      </trkpt>
      <trkpt lat="43.74855" lon="7.26895">
        <ele>201</ele>
        <time>2018-05-13T14:37:34.000Z</time>
      </trkpt>
      <trkpt lat="43.74855" lon="7.26905">
        <ele>200</ele>
        <time>2018-05-13T14:37:36.000Z</time>
      </trkpt>
      <trkpt lat="43.74855" lon="7.26918">
        <ele>198</ele>
        <time>2018-05-13T14:37:38.000Z</time>
      </trkpt>
      <trkpt lat="43.74855" lon="7.26923">
        <ele>198</ele>
        <time>2018-05-13T14:37:39.000Z</time>
      </trkpt>
      <trkpt lat="43.74854" lon="7.26929">
        <ele>198</ele>
        <time>2018-05-13T14:37:40.000Z</time>
      </trkpt>
      <trkpt lat="43.74854" lon="7.26934">
        <ele>199</ele>
        <time>2018-05-13T14:37:41.000Z</time>
      </trkpt>
      <trkpt lat="43.74854" lon="7.26944">
        <ele>199</ele>
        <time>2018-05-13T14:37:43.000Z</time>
      </trkpt>
      <trkpt lat="43.74852" lon="7.26954">
        <ele>199</ele>
        <time>2018-05-13T14:37:45.000Z</time>
      </trkpt>
      <trkpt lat="43.74851" lon="7.2696">
        <ele>200</ele>
        <time>2018-05-13T14:37:46.000Z</time>
      </trkpt>
      <trkpt lat="43.7485" lon="7.26965">
        <ele>200</ele>
        <time>2018-05-13T14:37:47.000Z</time>
      </trkpt>
      <trkpt lat="43.74849" lon="7.26972">
        <ele>199</ele>
        <time>2018-05-13T14:37:48.000Z</time>
      </trkpt>
      <trkpt lat="43.74848" lon="7.26985">
        <ele>199</ele>
        <time>2018-05-13T14:37:50.000Z</time>
      </trkpt>
      <trkpt lat="43.74847" lon="7.26999">
        <ele>198</ele>
        <time>2018-05-13T14:37:52.000Z</time>
      </trkpt>
      <trkpt lat="43.74846" lon="7.27005">
        <ele>199</ele>
        <time>2018-05-13T14:37:53.000Z</time>
      </trkpt>
      <trkpt lat="43.74845" lon="7.27019">
        <ele>200</ele>
        <time>2018-05-13T14:37:55.000Z</time>
      </trkpt>
      <trkpt lat="43.74843" lon="7.27025">
        <ele>201</ele>
        <time>2018-05-13T14:37:56.000Z</time>
      </trkpt>
      <trkpt lat="43.74842" lon="7.27038">
        <ele>201</ele>
        <time>2018-05-13T14:37:58.000Z</time>
      </trkpt>
      <trkpt lat="43.74841" lon="7.27045">
        <ele>201</ele>
        <time>2018-05-13T14:37:59.000Z</time>
      </trkpt>
      <trkpt lat="43.74839" lon="7.27067">
        <ele>200</ele>
        <time>2018-05-13T14:38:02.000Z</time>
      </trkpt>
      <trkpt lat="43.74838" lon="7.27074">
        <ele>199</ele>
        <time>2018-05-13T14:38:03.000Z</time>
      </trkpt>
      <trkpt lat="43.74837" lon="7.2708">
        <ele>198</ele>
        <time>2018-05-13T14:38:04.000Z</time>
      </trkpt>
      <trkpt lat="43.74837" lon="7.27091">
        <ele>198</ele>
        <time>2018-05-13T14:38:06.000Z</time>
      </trkpt>
      <trkpt lat="43.74836" lon="7.27095">
        <ele>199</ele>
        <time>2018-05-13T14:38:07.000Z</time>
      </trkpt>
      <trkpt lat="43.74833" lon="7.27103">
        <ele>200</ele>
        <time>2018-05-13T14:38:10.000Z</time>
      </trkpt>
      <trkpt lat="43.74832" lon="7.27106">
        <ele>200</ele>
        <time>2018-05-13T14:38:11.000Z</time>
      </trkpt>
      <trkpt lat="43.74829" lon="7.27121">
        <ele>200</ele>
        <time>2018-05-13T14:38:16.000Z</time>
      </trkpt>
      <trkpt lat="43.74828" lon="7.2713">
        <ele>199</ele>
        <time>2018-05-13T14:38:19.000Z</time>
      </trkpt>
      <trkpt lat="43.74825" lon="7.27142">
        <ele>198</ele>
        <time>2018-05-13T14:38:22.000Z</time>
      </trkpt>
      <trkpt lat="43.74821" lon="7.27152">
        <ele>196</ele>
        <time>2018-05-13T14:38:26.000Z</time>
      </trkpt>
      <trkpt lat="43.74815" lon="7.27175">
        <ele>191</ele>
        <time>2018-05-13T14:38:32.000Z</time>
      </trkpt>
      <trkpt lat="43.74806" lon="7.27198">
        <ele>193</ele>
        <time>2018-05-13T14:38:38.000Z</time>
      </trkpt>
      <trkpt lat="43.74803" lon="7.27206">
        <ele>193</ele>
        <time>2018-05-13T14:38:40.000Z</time>
      </trkpt>
      <trkpt lat="43.748" lon="7.2721">
        <ele>193</ele>
        <time>2018-05-13T14:38:42.000Z</time>
      </trkpt>
      <trkpt lat="43.74797" lon="7.2721">
        <ele>193</ele>
        <time>2018-05-13T14:38:43.000Z</time>
      </trkpt>
      <trkpt lat="43.74797" lon="7.2721">
        <ele>193</ele>
        <time>2018-05-13T14:38:45.000Z</time>
      </trkpt>
      <trkpt lat="43.74796" lon="7.2721">
        <ele>193</ele>
        <time>2018-05-13T14:38:46.000Z</time>
      </trkpt>
      <trkpt lat="43.74795" lon="7.2721">
        <ele>193</ele>
        <time>2018-05-13T14:38:49.000Z</time>
      </trkpt>
      <trkpt lat="43.74793" lon="7.2721">
        <ele>194</ele>
        <time>2018-05-13T14:38:52.000Z</time>
      </trkpt>
      <trkpt lat="43.74789" lon="7.27211">
        <ele>194</ele>
        <time>2018-05-13T14:38:59.000Z</time>
      </trkpt>
      <trkpt lat="43.74786" lon="7.27213">
        <ele>194</ele>
        <time>2018-05-13T14:39:05.000Z</time>
      </trkpt>
      <trkpt lat="43.74785" lon="7.27214">
        <ele>194</ele>
        <time>2018-05-13T14:39:07.000Z</time>
      </trkpt>
      <trkpt lat="43.74782" lon="7.27216">
        <ele>194</ele>
        <time>2018-05-13T14:39:12.000Z</time>
      </trkpt>
      <trkpt lat="43.74781" lon="7.27217">
        <ele>194</ele>
        <time>2018-05-13T14:39:16.000Z</time>
      </trkpt>
      <trkpt lat="43.7478" lon="7.27218">
        <ele>194</ele>
        <time>2018-05-13T14:39:17.000Z</time>
      </trkpt>
      <trkpt lat="43.74777" lon="7.2722">
        <ele>194</ele>
        <time>2018-05-13T14:39:26.000Z</time>
      </trkpt>
      <trkpt lat="43.74776" lon="7.27221">
        <ele>194</ele>
        <time>2018-05-13T14:39:27.000Z</time>
      </trkpt>
      <trkpt lat="43.74774" lon="7.27223">
        <ele>194</ele>
        <time>2018-05-13T14:39:34.000Z</time>
      </trkpt>
      <trkpt lat="43.74771" lon="7.27228">
        <ele>194</ele>
        <time>2018-05-13T14:39:41.000Z</time>
      </trkpt>
      <trkpt lat="43.74771" lon="7.27228">
        <ele>194</ele>
        <time>2018-05-13T14:39:42.000Z</time>
      </trkpt>
      <trkpt lat="43.7477" lon="7.27231">
        <ele>194</ele>
        <time>2018-05-13T14:39:48.000Z</time>
      </trkpt>
      <trkpt lat="43.74767" lon="7.27239">
        <ele>193</ele>
        <time>2018-05-13T14:39:55.000Z</time>
      </trkpt>
      <trkpt lat="43.74767" lon="7.27241">
        <ele>193</ele>
        <time>2018-05-13T14:39:57.000Z</time>
      </trkpt>
      <trkpt lat="43.74764" lon="7.27245">
        <ele>193</ele>
        <time>2018-05-13T14:40:02.000Z</time>
      </trkpt>
      <trkpt lat="43.74763" lon="7.27246">
        <ele>193</ele>
        <time>2018-05-13T14:40:03.000Z</time>
      </trkpt>
      <trkpt lat="43.74759" lon="7.27249">
        <ele>193</ele>
        <time>2018-05-13T14:40:09.000Z</time>
      </trkpt>
      <trkpt lat="43.74754" lon="7.27254">
        <ele>191</ele>
        <time>2018-05-13T14:40:16.000Z</time>
      </trkpt>
      <trkpt lat="43.74753" lon="7.27256">
        <ele>191</ele>
        <time>2018-05-13T14:40:18.000Z</time>
      </trkpt>
      <trkpt lat="43.74751" lon="7.27261">
        <ele>190</ele>
        <time>2018-05-13T14:40:22.000Z</time>
      </trkpt>
      <trkpt lat="43.74748" lon="7.27267">
        <ele>195</ele>
        <time>2018-05-13T14:40:27.000Z</time>
      </trkpt>
      <trkpt lat="43.74746" lon="7.2727">
        <ele>195</ele>
        <time>2018-05-13T14:40:30.000Z</time>
      </trkpt>
      <trkpt lat="43.74744" lon="7.27274">
        <ele>195</ele>
        <time>2018-05-13T14:40:34.000Z</time>
      </trkpt>
      <trkpt lat="43.74742" lon="7.27279">
        <ele>195</ele>
        <time>2018-05-13T14:40:38.000Z</time>
      </trkpt>
      <trkpt lat="43.7474" lon="7.27282">
        <ele>195</ele>
        <time>2018-05-13T14:40:41.000Z</time>
      </trkpt>
      <trkpt lat="43.74737" lon="7.27291">
        <ele>194</ele>
        <time>2018-05-13T14:40:46.000Z</time>
      </trkpt>
      <trkpt lat="43.74735" lon="7.27291">
        <ele>194</ele>
        <time>2018-05-13T14:40:47.000Z</time>
      </trkpt>
      <trkpt lat="43.74732" lon="7.27294">
        <ele>195</ele>
        <time>2018-05-13T14:40:50.000Z</time>
      </trkpt>
      <trkpt lat="43.74725" lon="7.27296">
        <ele>195</ele>
        <time>2018-05-13T14:40:57.000Z</time>
      </trkpt>
      <trkpt lat="43.74724" lon="7.27295">
        <ele>196</ele>
        <time>2018-05-13T14:40:58.000Z</time>
      </trkpt>
      <trkpt lat="43.74719" lon="7.27296">
        <ele>197</ele>
        <time>2018-05-13T14:41:04.000Z</time>
      </trkpt>
      <trkpt lat="43.74718" lon="7.27296">
        <ele>197</ele>
        <time>2018-05-13T14:41:05.000Z</time>
      </trkpt>
      <trkpt lat="43.74711" lon="7.27299">
        <ele>198</ele>
        <time>2018-05-13T14:41:12.000Z</time>
      </trkpt>
      <trkpt lat="43.74707" lon="7.2731">
        <ele>198</ele>
        <time>2018-05-13T14:41:19.000Z</time>
      </trkpt>
      <trkpt lat="43.74705" lon="7.27314">
        <ele>198</ele>
        <time>2018-05-13T14:41:22.000Z</time>
      </trkpt>
      <trkpt lat="43.74704" lon="7.27315">
        <ele>198</ele>
        <time>2018-05-13T14:41:23.000Z</time>
      </trkpt>
      <trkpt lat="43.74704" lon="7.2732">
        <ele>197</ele>
        <time>2018-05-13T14:41:27.000Z</time>
      </trkpt>
      <trkpt lat="43.74704" lon="7.27322">
        <ele>197</ele>
        <time>2018-05-13T14:41:28.000Z</time>
      </trkpt>
      <trkpt lat="43.74706" lon="7.2733">
        <ele>196</ele>
        <time>2018-05-13T14:41:34.000Z</time>
      </trkpt>
      <trkpt lat="43.74707" lon="7.27334">
        <ele>188</ele>
        <time>2018-05-13T14:41:38.000Z</time>
      </trkpt>
      <trkpt lat="43.74708" lon="7.27336">
        <ele>187</ele>
        <time>2018-05-13T14:41:40.000Z</time>
      </trkpt>
      <trkpt lat="43.74711" lon="7.27346">
        <ele>186</ele>
        <time>2018-05-13T14:41:44.000Z</time>
      </trkpt>
      <trkpt lat="43.7471" lon="7.27355">
        <ele>186</ele>
        <time>2018-05-13T14:41:48.000Z</time>
      </trkpt>
      <trkpt lat="43.74711" lon="7.27355">
        <ele>186</ele>
        <time>2018-05-13T14:41:49.000Z</time>
      </trkpt>
      <trkpt lat="43.74709" lon="7.27358">
        <ele>186</ele>
        <time>2018-05-13T14:42:04.000Z</time>
      </trkpt>
      <trkpt lat="43.74708" lon="7.27359">
        <ele>187</ele>
        <time>2018-05-13T14:42:16.000Z</time>
      </trkpt>
      <trkpt lat="43.74708" lon="7.27361">
        <ele>187</ele>
        <time>2018-05-13T14:42:25.000Z</time>
      </trkpt>
      <trkpt lat="43.74707" lon="7.27362">
        <ele>187</ele>
        <time>2018-05-13T14:42:38.000Z</time>
      </trkpt>
      <trkpt lat="43.74706" lon="7.27362">
        <ele>187</ele>
        <time>2018-05-13T14:42:47.000Z</time>
      </trkpt>
      <trkpt lat="43.74706" lon="7.27362">
        <ele>187</ele>
        <time>2018-05-13T14:42:56.000Z</time>
      </trkpt>
      <trkpt lat="43.74705" lon="7.27363">
        <ele>187</ele>
        <time>2018-05-13T14:43:06.000Z</time>
      </trkpt>
      <trkpt lat="43.74703" lon="7.27362">
        <ele>188</ele>
        <time>2018-05-13T14:43:20.000Z</time>
      </trkpt>
      <trkpt lat="43.74702" lon="7.27363">
        <ele>188</ele>
        <time>2018-05-13T14:43:34.000Z</time>
      </trkpt>
      <trkpt lat="43.74701" lon="7.27365">
        <ele>188</ele>
        <time>2018-05-13T14:43:42.000Z</time>
      </trkpt>
      <trkpt lat="43.74701" lon="7.27366">
        <ele>188</ele>
        <time>2018-05-13T14:43:53.000Z</time>
      </trkpt>
      <trkpt lat="43.74701" lon="7.27367">
        <ele>188</ele>
        <time>2018-05-13T14:44:08.000Z</time>
      </trkpt>
      <trkpt lat="43.74701" lon="7.27367">
        <ele>188</ele>
        <time>2018-05-13T14:44:22.000Z</time>
      </trkpt>
      <trkpt lat="43.74701" lon="7.27368">
        <ele>188</ele>
        <time>2018-05-13T14:44:32.000Z</time>
      </trkpt>
      <trkpt lat="43.74701" lon="7.2737">
        <ele>188</ele>
        <time>2018-05-13T14:44:37.000Z</time>
      </trkpt>
      <trkpt lat="43.74701" lon="7.2737">
        <ele>188</ele>
        <time>2018-05-13T14:44:42.000Z</time>
      </trkpt>
      <trkpt lat="43.74701" lon="7.27371">
        <ele>187</ele>
        <time>2018-05-13T14:44:50.000Z</time>
      </trkpt>
      <trkpt lat="43.74701" lon="7.27373">
        <ele>187</ele>
        <time>2018-05-13T14:44:56.000Z</time>
      </trkpt>
      <trkpt lat="43.74702" lon="7.27375">
        <ele>187</ele>
        <time>2018-05-13T14:45:04.000Z</time>
      </trkpt>
      <trkpt lat="43.74702" lon="7.27376">
        <ele>187</ele>
        <time>2018-05-13T14:45:10.000Z</time>
      </trkpt>
      <trkpt lat="43.74703" lon="7.27377">
        <ele>187</ele>
        <time>2018-05-13T14:45:18.000Z</time>
      </trkpt>
      <trkpt lat="43.74702" lon="7.27378">
        <ele>187</ele>
        <time>2018-05-13T14:45:26.000Z</time>
      </trkpt>
      <trkpt lat="43.74702" lon="7.2738">
        <ele>187</ele>
        <time>2018-05-13T14:45:33.000Z</time>
      </trkpt>
      <trkpt lat="43.74703" lon="7.27381">
        <ele>187</ele>
        <time>2018-05-13T14:45:40.000Z</time>
      </trkpt>
      <trkpt lat="43.74702" lon="7.27382">
        <ele>187</ele>
        <time>2018-05-13T14:45:43.000Z</time>
      </trkpt>
      <trkpt lat="43.74702" lon="7.27381">
        <ele>187</ele>
        <time>2018-05-13T14:45:46.000Z</time>
      </trkpt>
      <trkpt lat="43.74702" lon="7.27382">
        <ele>187</ele>
        <time>2018-05-13T14:45:55.000Z</time>
      </trkpt>
      <trkpt lat="43.74702" lon="7.27382">
        <ele>187</ele>
        <time>2018-05-13T14:46:04.000Z</time>
      </trkpt>
      <trkpt lat="43.74702" lon="7.27382">
        <ele>187</ele>
        <time>2018-05-13T14:46:12.000Z</time>
      </trkpt>
      <trkpt lat="43.74702" lon="7.27383">
        <ele>187</ele>
        <time>2018-05-13T14:46:17.000Z</time>
      </trkpt>
      <trkpt lat="43.74702" lon="7.27383">
        <ele>187</ele>
        <time>2018-05-13T14:46:22.000Z</time>
      </trkpt>
      <trkpt lat="43.747" lon="7.27384">
        <ele>187</ele>
        <time>2018-05-13T14:46:34.000Z</time>
      </trkpt>
      <trkpt lat="43.74698" lon="7.27386">
        <ele>187</ele>
        <time>2018-05-13T14:46:44.000Z</time>
      </trkpt>
      <trkpt lat="43.74698" lon="7.27387">
        <ele>187</ele>
        <time>2018-05-13T14:46:53.000Z</time>
      </trkpt>
      <trkpt lat="43.74698" lon="7.27386">
        <ele>187</ele>
        <time>2018-05-13T14:47:00.000Z</time>
      </trkpt>
      <trkpt lat="43.74698" lon="7.27386">
        <ele>187</ele>
        <time>2018-05-13T14:47:05.000Z</time>
      </trkpt>
      <trkpt lat="43.74698" lon="7.27386">
        <ele>187</ele>
        <time>2018-05-13T14:47:11.000Z</time>
      </trkpt>
      <trkpt lat="43.74697" lon="7.27387">
        <ele>187</ele>
        <time>2018-05-13T14:47:20.000Z</time>
      </trkpt>
      <trkpt lat="43.74695" lon="7.27386">
        <ele>188</ele>
        <time>2018-05-13T14:47:24.000Z</time>
      </trkpt>
      <trkpt lat="43.74695" lon="7.27385">
        <ele>188</ele>
        <time>2018-05-13T14:47:26.000Z</time>
      </trkpt>
      <trkpt lat="43.74695" lon="7.27385">
        <ele>188</ele>
        <time>2018-05-13T14:47:29.000Z</time>
      </trkpt>
      <trkpt lat="43.74695" lon="7.27386">
        <ele>188</ele>
        <time>2018-05-13T14:47:30.000Z</time>
      </trkpt>
      <trkpt lat="43.74694" lon="7.27388">
        <ele>188</ele>
        <time>2018-05-13T14:47:32.000Z</time>
      </trkpt>
      <trkpt lat="43.7469" lon="7.27393">
        <ele>188</ele>
        <time>2018-05-13T14:47:39.000Z</time>
      </trkpt>
      <trkpt lat="43.74689" lon="7.27394">
        <ele>189</ele>
        <time>2018-05-13T14:47:40.000Z</time>
      </trkpt>
      <trkpt lat="43.74687" lon="7.27398">
        <ele>189</ele>
        <time>2018-05-13T14:47:46.000Z</time>
      </trkpt>
      <trkpt lat="43.74687" lon="7.27399">
        <ele>189</ele>
        <time>2018-05-13T14:47:47.000Z</time>
      </trkpt>
      <trkpt lat="43.74686" lon="7.27407">
        <ele>189</ele>
        <time>2018-05-13T14:47:53.000Z</time>
      </trkpt>
      <trkpt lat="43.74683" lon="7.27415">
        <ele>190</ele>
        <time>2018-05-13T14:47:59.000Z</time>
      </trkpt>
      <trkpt lat="43.74681" lon="7.27419">
        <ele>188</ele>
        <time>2018-05-13T14:48:03.000Z</time>
      </trkpt>
      <trkpt lat="43.74678" lon="7.27422">
        <ele>189</ele>
        <time>2018-05-13T14:48:07.000Z</time>
      </trkpt>
      <trkpt lat="43.74676" lon="7.27425">
        <ele>189</ele>
        <time>2018-05-13T14:48:12.000Z</time>
      </trkpt>
      <trkpt lat="43.74675" lon="7.27427">
        <ele>188</ele>
        <time>2018-05-13T14:48:13.000Z</time>
      </trkpt>
      <trkpt lat="43.74669" lon="7.27434">
        <ele>187</ele>
        <time>2018-05-13T14:48:18.000Z</time>
      </trkpt>
      <trkpt lat="43.74665" lon="7.27453">
        <ele>201</ele>
        <time>2018-05-13T14:48:22.000Z</time>
      </trkpt>
      <trkpt lat="43.74664" lon="7.27457">
        <ele>200</ele>
        <time>2018-05-13T14:48:23.000Z</time>
      </trkpt>
      <trkpt lat="43.74657" lon="7.2748">
        <ele>195</ele>
        <time>2018-05-13T14:48:28.000Z</time>
      </trkpt>
      <trkpt lat="43.74649" lon="7.27499">
        <ele>194</ele>
        <time>2018-05-13T14:48:33.000Z</time>
      </trkpt>
      <trkpt lat="43.74643" lon="7.27507">
        <ele>188</ele>
        <time>2018-05-13T14:48:37.000Z</time>
      </trkpt>
      <trkpt lat="43.74634" lon="7.2752">
        <ele>190</ele>
        <time>2018-05-13T14:48:43.000Z</time>
      </trkpt>
      <trkpt lat="43.74628" lon="7.27528">
        <ele>191</ele>
        <time>2018-05-13T14:48:47.000Z</time>
      </trkpt>
      <trkpt lat="43.74627" lon="7.27529">
        <ele>191</ele>
        <time>2018-05-13T14:48:48.000Z</time>
      </trkpt>
      <trkpt lat="43.74619" lon="7.27539">
        <ele>192</ele>
        <time>2018-05-13T14:48:53.000Z</time>
      </trkpt>
      <trkpt lat="43.74615" lon="7.27543">
        <ele>193</ele>
        <time>2018-05-13T14:48:55.000Z</time>
      </trkpt>
      <trkpt lat="43.74612" lon="7.27548">
        <ele>193</ele>
        <time>2018-05-13T14:48:58.000Z</time>
      </trkpt>
      <trkpt lat="43.74605" lon="7.27566">
        <ele>193</ele>
        <time>2018-05-13T14:49:02.000Z</time>
      </trkpt>
      <trkpt lat="43.74602" lon="7.27583">
        <ele>195</ele>
        <time>2018-05-13T14:49:06.000Z</time>
      </trkpt>
      <trkpt lat="43.74594" lon="7.27596">
        <ele>188</ele>
        <time>2018-05-13T14:49:11.000Z</time>
      </trkpt>
      <trkpt lat="43.74589" lon="7.27602">
        <ele>187</ele>
        <time>2018-05-13T14:49:14.000Z</time>
      </trkpt>
      <trkpt lat="43.74584" lon="7.27607">
        <ele>185</ele>
        <time>2018-05-13T14:49:17.000Z</time>
      </trkpt>
      <trkpt lat="43.74581" lon="7.27612">
        <ele>198</ele>
        <time>2018-05-13T14:49:19.000Z</time>
      </trkpt>
      <trkpt lat="43.74575" lon="7.27619">
        <ele>197</ele>
        <time>2018-05-13T14:49:23.000Z</time>
      </trkpt>
      <trkpt lat="43.74571" lon="7.27624">
        <ele>196</ele>
        <time>2018-05-13T14:49:25.000Z</time>
      </trkpt>
      <trkpt lat="43.74561" lon="7.27629">
        <ele>196</ele>
        <time>2018-05-13T14:49:30.000Z</time>
      </trkpt>
      <trkpt lat="43.74553" lon="7.27634">
        <ele>196</ele>
        <time>2018-05-13T14:49:34.000Z</time>
      </trkpt>
      <trkpt lat="43.74552" lon="7.27634">
        <ele>197</ele>
        <time>2018-05-13T14:49:35.000Z</time>
      </trkpt>
      <trkpt lat="43.74546" lon="7.2763">
        <ele>198</ele>
        <time>2018-05-13T14:49:38.000Z</time>
      </trkpt>
      <trkpt lat="43.74544" lon="7.27627">
        <ele>199</ele>
        <time>2018-05-13T14:49:40.000Z</time>
      </trkpt>
      <trkpt lat="43.74538" lon="7.27623">
        <ele>200</ele>
        <time>2018-05-13T14:49:44.000Z</time>
      </trkpt>
      <trkpt lat="43.74534" lon="7.2762">
        <ele>201</ele>
        <time>2018-05-13T14:49:46.000Z</time>
      </trkpt>
      <trkpt lat="43.74524" lon="7.27615">
        <ele>203</ele>
        <time>2018-05-13T14:49:51.000Z</time>
      </trkpt>
      <trkpt lat="43.74522" lon="7.27615">
        <ele>203</ele>
        <time>2018-05-13T14:49:52.000Z</time>
      </trkpt>
      <trkpt lat="43.7452" lon="7.27618">
        <ele>203</ele>
        <time>2018-05-13T14:49:53.000Z</time>
      </trkpt>
      <trkpt lat="43.74517" lon="7.27621">
        <ele>203</ele>
        <time>2018-05-13T14:49:55.000Z</time>
      </trkpt>
      <trkpt lat="43.74515" lon="7.27623">
        <ele>203</ele>
        <time>2018-05-13T14:49:56.000Z</time>
      </trkpt>
      <trkpt lat="43.74507" lon="7.2763">
        <ele>202</ele>
        <time>2018-05-13T14:50:00.000Z</time>
      </trkpt>
      <trkpt lat="43.74505" lon="7.27631">
        <ele>202</ele>
        <time>2018-05-13T14:50:01.000Z</time>
      </trkpt>
      <trkpt lat="43.74495" lon="7.27634">
        <ele>215</ele>
        <time>2018-05-13T14:50:07.000Z</time>
      </trkpt>
      <trkpt lat="43.74485" lon="7.2764">
        <ele>214</ele>
        <time>2018-05-13T14:50:14.000Z</time>
      </trkpt>
      <trkpt lat="43.74483" lon="7.27643">
        <ele>214</ele>
        <time>2018-05-13T14:50:16.000Z</time>
      </trkpt>
      <trkpt lat="43.74482" lon="7.27649">
        <ele>213</ele>
        <time>2018-05-13T14:50:19.000Z</time>
      </trkpt>
      <trkpt lat="43.74482" lon="7.2765">
        <ele>212</ele>
        <time>2018-05-13T14:50:20.000Z</time>
      </trkpt>
      <trkpt lat="43.74481" lon="7.27657">
        <ele>211</ele>
        <time>2018-05-13T14:50:24.000Z</time>
      </trkpt>
      <trkpt lat="43.74479" lon="7.27663">
        <ele>211</ele>
        <time>2018-05-13T14:50:27.000Z</time>
      </trkpt>
      <trkpt lat="43.7448" lon="7.27669">
        <ele>200</ele>
        <time>2018-05-13T14:50:31.000Z</time>
      </trkpt>
      <trkpt lat="43.7448" lon="7.27671">
        <ele>200</ele>
        <time>2018-05-13T14:50:32.000Z</time>
      </trkpt>
      <trkpt lat="43.74479" lon="7.27683">
        <ele>200</ele>
        <time>2018-05-13T14:50:38.000Z</time>
      </trkpt>
      <trkpt lat="43.74479" lon="7.27684">
        <ele>200</ele>
        <time>2018-05-13T14:50:39.000Z</time>
      </trkpt>
      <trkpt lat="43.74476" lon="7.27692">
        <ele>200</ele>
        <time>2018-05-13T14:50:45.000Z</time>
      </trkpt>
      <trkpt lat="43.74475" lon="7.27694">
        <ele>200</ele>
        <time>2018-05-13T14:50:46.000Z</time>
      </trkpt>
      <trkpt lat="43.7447" lon="7.27705">
        <ele>199</ele>
        <time>2018-05-13T14:50:53.000Z</time>
      </trkpt>
      <trkpt lat="43.74468" lon="7.27707">
        <ele>199</ele>
        <time>2018-05-13T14:50:55.000Z</time>
      </trkpt>
      <trkpt lat="43.74465" lon="7.27711">
        <ele>199</ele>
        <time>2018-05-13T14:50:59.000Z</time>
      </trkpt>
      <trkpt lat="43.74464" lon="7.27712">
        <ele>199</ele>
        <time>2018-05-13T14:51:00.000Z</time>
      </trkpt>
      <trkpt lat="43.7446" lon="7.27716">
        <ele>200</ele>
        <time>2018-05-13T14:51:04.000Z</time>
      </trkpt>
      <trkpt lat="43.74456" lon="7.2772">
        <ele>200</ele>
        <time>2018-05-13T14:51:08.000Z</time>
      </trkpt>
      <trkpt lat="43.74455" lon="7.2772">
        <ele>200</ele>
        <time>2018-05-13T14:51:09.000Z</time>
      </trkpt>
      <trkpt lat="43.74451" lon="7.27724">
        <ele>200</ele>
        <time>2018-05-13T14:51:14.000Z</time>
      </trkpt>
      <trkpt lat="43.74449" lon="7.27726">
        <ele>200</ele>
        <time>2018-05-13T14:51:16.000Z</time>
      </trkpt>
      <trkpt lat="43.74448" lon="7.27732">
        <ele>200</ele>
        <time>2018-05-13T14:51:19.000Z</time>
      </trkpt>
      <trkpt lat="43.74446" lon="7.27742">
        <ele>199</ele>
        <time>2018-05-13T14:51:23.000Z</time>
      </trkpt>
      <trkpt lat="43.74446" lon="7.27744">
        <ele>199</ele>
        <time>2018-05-13T14:51:24.000Z</time>
      </trkpt>
      <trkpt lat="43.74446" lon="7.2775">
        <ele>199</ele>
        <time>2018-05-13T14:51:26.000Z</time>
      </trkpt>
      <trkpt lat="43.74446" lon="7.27752">
        <ele>189</ele>
        <time>2018-05-13T14:51:27.000Z</time>
      </trkpt>
      <trkpt lat="43.74448" lon="7.27755">
        <ele>188</ele>
        <time>2018-05-13T14:51:29.000Z</time>
      </trkpt>
      <trkpt lat="43.7445" lon="7.27759">
        <ele>187</ele>
        <time>2018-05-13T14:51:31.000Z</time>
      </trkpt>
      <trkpt lat="43.7445" lon="7.27761">
        <ele>187</ele>
        <time>2018-05-13T14:51:32.000Z</time>
      </trkpt>
      <trkpt lat="43.74449" lon="7.27767">
        <ele>187</ele>
        <time>2018-05-13T14:51:34.000Z</time>
      </trkpt>
      <trkpt lat="43.74448" lon="7.2777">
        <ele>187</ele>
        <time>2018-05-13T14:51:36.000Z</time>
      </trkpt>
      <trkpt lat="43.74449" lon="7.27772">
        <ele>186</ele>
        <time>2018-05-13T14:51:38.000Z</time>
      </trkpt>
      <trkpt lat="43.74451" lon="7.27776">
        <ele>186</ele>
        <time>2018-05-13T14:51:40.000Z</time>
      </trkpt>
      <trkpt lat="43.74452" lon="7.27777">
        <ele>186</ele>
        <time>2018-05-13T14:51:41.000Z</time>
      </trkpt>
      <trkpt lat="43.74455" lon="7.27782">
        <ele>185</ele>
        <time>2018-05-13T14:51:43.000Z</time>
      </trkpt>
      <trkpt lat="43.74454" lon="7.27784">
        <ele>185</ele>
        <time>2018-05-13T14:51:44.000Z</time>
      </trkpt>
      <trkpt lat="43.74454" lon="7.27786">
        <ele>184</ele>
        <time>2018-05-13T14:51:45.000Z</time>
      </trkpt>
      <trkpt lat="43.74455" lon="7.27789">
        <ele>184</ele>
        <time>2018-05-13T14:51:48.000Z</time>
      </trkpt>
      <trkpt lat="43.74455" lon="7.2779">
        <ele>184</ele>
        <time>2018-05-13T14:51:49.000Z</time>
      </trkpt>
      <trkpt lat="43.74454" lon="7.27797">
        <ele>183</ele>
        <time>2018-05-13T14:51:54.000Z</time>
      </trkpt>
      <trkpt lat="43.74454" lon="7.27797">
        <ele>183</ele>
        <time>2018-05-13T14:51:56.000Z</time>
      </trkpt>
      <trkpt lat="43.74454" lon="7.27798">
        <ele>183</ele>
        <time>2018-05-13T14:51:57.000Z</time>
      </trkpt>
      <trkpt lat="43.74454" lon="7.27799">
        <ele>183</ele>
        <time>2018-05-13T14:52:00.000Z</time>
      </trkpt>
      <trkpt lat="43.74454" lon="7.27799">
        <ele>183</ele>
        <time>2018-05-13T14:52:01.000Z</time>
      </trkpt>
      <trkpt lat="43.74454" lon="7.27802">
        <ele>183</ele>
        <time>2018-05-13T14:52:09.000Z</time>
      </trkpt>
      <trkpt lat="43.74456" lon="7.27806">
        <ele>182</ele>
        <time>2018-05-13T14:52:15.000Z</time>
      </trkpt>
      <trkpt lat="43.74459" lon="7.27812">
        <ele>182</ele>
        <time>2018-05-13T14:52:21.000Z</time>
      </trkpt>
      <trkpt lat="43.7446" lon="7.27813">
        <ele>181</ele>
        <time>2018-05-13T14:52:22.000Z</time>
      </trkpt>
      <trkpt lat="43.74461" lon="7.27818">
        <ele>181</ele>
        <time>2018-05-13T14:52:26.000Z</time>
      </trkpt>
      <trkpt lat="43.74461" lon="7.27819">
        <ele>181</ele>
        <time>2018-05-13T14:52:27.000Z</time>
      </trkpt>
      <trkpt lat="43.74461" lon="7.27821">
        <ele>181</ele>
        <time>2018-05-13T14:52:30.000Z</time>
      </trkpt>
      <trkpt lat="43.74461" lon="7.27823">
        <ele>181</ele>
        <time>2018-05-13T14:52:32.000Z</time>
      </trkpt>
      <trkpt lat="43.74462" lon="7.27826">
        <ele>180</ele>
        <time>2018-05-13T14:52:37.000Z</time>
      </trkpt>
      <trkpt lat="43.74462" lon="7.27828">
        <ele>180</ele>
        <time>2018-05-13T14:52:44.000Z</time>
      </trkpt>
      <trkpt lat="43.74462" lon="7.27829">
        <ele>180</ele>
        <time>2018-05-13T14:52:45.000Z</time>
      </trkpt>
      <trkpt lat="43.74464" lon="7.27831">
        <ele>180</ele>
        <time>2018-05-13T14:52:54.000Z</time>
      </trkpt>
      <trkpt lat="43.74464" lon="7.27833">
        <ele>180</ele>
        <time>2018-05-13T14:52:57.000Z</time>
      </trkpt>
      <trkpt lat="43.74465" lon="7.27835">
        <ele>170</ele>
        <time>2018-05-13T14:53:00.000Z</time>
      </trkpt>
      <trkpt lat="43.74466" lon="7.27837">
        <ele>170</ele>
        <time>2018-05-13T14:53:02.000Z</time>
      </trkpt>
      <trkpt lat="43.74466" lon="7.27839">
        <ele>170</ele>
        <time>2018-05-13T14:53:05.000Z</time>
      </trkpt>
      <trkpt lat="43.74467" lon="7.27841">
        <ele>169</ele>
        <time>2018-05-13T14:53:07.000Z</time>
      </trkpt>
      <trkpt lat="43.74467" lon="7.27842">
        <ele>169</ele>
        <time>2018-05-13T14:53:08.000Z</time>
      </trkpt>
      <trkpt lat="43.74467" lon="7.27844">
        <ele>169</ele>
        <time>2018-05-13T14:53:11.000Z</time>
      </trkpt>
      <trkpt lat="43.74467" lon="7.27846">
        <ele>169</ele>
        <time>2018-05-13T14:53:13.000Z</time>
      </trkpt>
      <trkpt lat="43.74466" lon="7.27848">
        <ele>169</ele>
        <time>2018-05-13T14:53:15.000Z</time>
      </trkpt>
      <trkpt lat="43.74464" lon="7.27852">
        <ele>169</ele>
        <time>2018-05-13T14:53:19.000Z</time>
      </trkpt>
      <trkpt lat="43.74463" lon="7.27853">
        <ele>169</ele>
        <time>2018-05-13T14:53:20.000Z</time>
      </trkpt>
      <trkpt lat="43.74461" lon="7.2786">
        <ele>169</ele>
        <time>2018-05-13T14:53:27.000Z</time>
      </trkpt>
      <trkpt lat="43.7446" lon="7.27861">
        <ele>169</ele>
        <time>2018-05-13T14:53:34.000Z</time>
      </trkpt>
      <trkpt lat="43.74458" lon="7.27863">
        <ele>169</ele>
        <time>2018-05-13T14:53:44.000Z</time>
      </trkpt>
      <trkpt lat="43.74458" lon="7.27865">
        <ele>169</ele>
        <time>2018-05-13T14:53:50.000Z</time>
      </trkpt>
      <trkpt lat="43.74457" lon="7.27867">
        <ele>168</ele>
        <time>2018-05-13T14:53:55.000Z</time>
      </trkpt>
      <trkpt lat="43.74456" lon="7.27868">
        <ele>168</ele>
        <time>2018-05-13T14:53:57.000Z</time>
      </trkpt>
      <trkpt lat="43.74453" lon="7.2787">
        <ele>168</ele>
        <time>2018-05-13T14:54:03.000Z</time>
      </trkpt>
      <trkpt lat="43.74449" lon="7.27875">
        <ele>168</ele>
        <time>2018-05-13T14:54:08.000Z</time>
      </trkpt>
      <trkpt lat="43.74442" lon="7.27873">
        <ele>169</ele>
        <time>2018-05-13T14:54:14.000Z</time>
      </trkpt>
      <trkpt lat="43.74441" lon="7.27873">
        <ele>169</ele>
        <time>2018-05-13T14:54:15.000Z</time>
      </trkpt>
      <trkpt lat="43.74439" lon="7.27871">
        <ele>169</ele>
        <time>2018-05-13T14:54:18.000Z</time>
      </trkpt>
      <trkpt lat="43.74436" lon="7.27869">
        <ele>170</ele>
        <time>2018-05-13T14:54:20.000Z</time>
      </trkpt>
      <trkpt lat="43.74433" lon="7.27866">
        <ele>170</ele>
        <time>2018-05-13T14:54:24.000Z</time>
      </trkpt>
      <trkpt lat="43.74431" lon="7.27866">
        <ele>171</ele>
        <time>2018-05-13T14:54:30.000Z</time>
      </trkpt>
      <trkpt lat="43.7443" lon="7.27866">
        <ele>171</ele>
        <time>2018-05-13T14:54:31.000Z</time>
      </trkpt>
      <trkpt lat="43.74425" lon="7.27867">
        <ele>171</ele>
        <time>2018-05-13T14:54:35.000Z</time>
      </trkpt>
      <trkpt lat="43.74419" lon="7.27866">
        <ele>171</ele>
        <time>2018-05-13T14:54:39.000Z</time>
      </trkpt>
      <trkpt lat="43.74415" lon="7.27866">
        <ele>177</ele>
        <time>2018-05-13T14:54:44.000Z</time>
      </trkpt>
      <trkpt lat="43.74407" lon="7.27865">
        <ele>177</ele>
        <time>2018-05-13T14:54:49.000Z</time>
      </trkpt>
      <trkpt lat="43.74403" lon="7.27865">
        <ele>177</ele>
        <time>2018-05-13T14:54:51.000Z</time>
      </trkpt>
      <trkpt lat="43.74402" lon="7.27866">
        <ele>177</ele>
        <time>2018-05-13T14:54:54.000Z</time>
      </trkpt>
      <trkpt lat="43.74398" lon="7.27869">
        <ele>177</ele>
        <time>2018-05-13T14:55:00.000Z</time>
      </trkpt>
      <trkpt lat="43.74398" lon="7.27868">
        <ele>177</ele>
        <time>2018-05-13T14:55:01.000Z</time>
      </trkpt>
      <trkpt lat="43.74396" lon="7.2787">
        <ele>177</ele>
        <time>2018-05-13T14:55:05.000Z</time>
      </trkpt>
      <trkpt lat="43.74396" lon="7.2787">
        <ele>177</ele>
        <time>2018-05-13T14:55:06.000Z</time>
      </trkpt>
      <trkpt lat="43.74395" lon="7.27871">
        <ele>177</ele>
        <time>2018-05-13T14:55:14.000Z</time>
      </trkpt>
      <trkpt lat="43.74394" lon="7.27872">
        <ele>177</ele>
        <time>2018-05-13T14:55:21.000Z</time>
      </trkpt>
      <trkpt lat="43.74395" lon="7.27871">
        <ele>177</ele>
        <time>2018-05-13T14:55:22.000Z</time>
      </trkpt>
      <trkpt lat="43.74394" lon="7.27872">
        <ele>176</ele>
        <time>2018-05-13T14:55:27.000Z</time>
      </trkpt>
      <trkpt lat="43.74394" lon="7.27872">
        <ele>176</ele>
        <time>2018-05-13T14:55:28.000Z</time>
      </trkpt>
      <trkpt lat="43.74395" lon="7.27871">
        <ele>177</ele>
        <time>2018-05-13T14:55:30.000Z</time>
      </trkpt>
      <trkpt lat="43.74395" lon="7.27871">
        <ele>177</ele>
        <time>2018-05-13T14:55:32.000Z</time>
      </trkpt>
      <trkpt lat="43.74394" lon="7.27872">
        <ele>176</ele>
        <time>2018-05-13T14:55:36.000Z</time>
      </trkpt>
      <trkpt lat="43.74388" lon="7.27874">
        <ele>176</ele>
        <time>2018-05-13T14:55:43.000Z</time>
      </trkpt>
      <trkpt lat="43.74386" lon="7.27874">
        <ele>177</ele>
        <time>2018-05-13T14:55:46.000Z</time>
      </trkpt>
      <trkpt lat="43.74383" lon="7.27875">
        <ele>176</ele>
        <time>2018-05-13T14:55:50.000Z</time>
      </trkpt>
      <trkpt lat="43.74382" lon="7.27876">
        <ele>176</ele>
        <time>2018-05-13T14:55:52.000Z</time>
      </trkpt>
      <trkpt lat="43.74381" lon="7.27878">
        <ele>176</ele>
        <time>2018-05-13T14:55:54.000Z</time>
      </trkpt>
      <trkpt lat="43.7438" lon="7.27881">
        <ele>176</ele>
        <time>2018-05-13T14:55:56.000Z</time>
      </trkpt>
      <trkpt lat="43.74379" lon="7.27881">
        <ele>176</ele>
        <time>2018-05-13T14:55:58.000Z</time>
      </trkpt>
      <trkpt lat="43.74378" lon="7.27883">
        <ele>176</ele>
        <time>2018-05-13T14:56:03.000Z</time>
      </trkpt>
      <trkpt lat="43.74378" lon="7.27883">
        <ele>176</ele>
        <time>2018-05-13T14:56:11.000Z</time>
      </trkpt>
      <trkpt lat="43.74379" lon="7.27883">
        <ele>176</ele>
        <time>2018-05-13T14:56:22.000Z</time>
      </trkpt>
      <trkpt lat="43.74379" lon="7.27883">
        <ele>176</ele>
        <time>2018-05-13T14:56:26.000Z</time>
      </trkpt>
      <trkpt lat="43.74379" lon="7.27885">
        <ele>176</ele>
        <time>2018-05-13T14:56:33.000Z</time>
      </trkpt>
      <trkpt lat="43.7438" lon="7.27885">
        <ele>176</ele>
        <time>2018-05-13T14:56:35.000Z</time>
      </trkpt>
      <trkpt lat="43.7438" lon="7.27885">
        <ele>176</ele>
        <time>2018-05-13T14:56:38.000Z</time>
      </trkpt>
      <trkpt lat="43.74378" lon="7.27887">
        <ele>176</ele>
        <time>2018-05-13T14:56:46.000Z</time>
      </trkpt>
      <trkpt lat="43.74378" lon="7.27887">
        <ele>176</ele>
        <time>2018-05-13T14:56:48.000Z</time>
      </trkpt>
      <trkpt lat="43.74378" lon="7.2789">
        <ele>175</ele>
        <time>2018-05-13T14:56:52.000Z</time>
      </trkpt>
      <trkpt lat="43.74376" lon="7.27895">
        <ele>175</ele>
        <time>2018-05-13T14:56:57.000Z</time>
      </trkpt>
      <trkpt lat="43.74374" lon="7.27898">
        <ele>175</ele>
        <time>2018-05-13T14:57:03.000Z</time>
      </trkpt>
      <trkpt lat="43.74375" lon="7.27899">
        <ele>175</ele>
        <time>2018-05-13T14:57:06.000Z</time>
      </trkpt>
      <trkpt lat="43.74375" lon="7.27901">
        <ele>175</ele>
        <time>2018-05-13T14:57:10.000Z</time>
      </trkpt>
      <trkpt lat="43.74373" lon="7.27902">
        <ele>175</ele>
        <time>2018-05-13T14:57:17.000Z</time>
      </trkpt>
      <trkpt lat="43.74373" lon="7.27902">
        <ele>175</ele>
        <time>2018-05-13T14:57:18.000Z</time>
      </trkpt>
      <trkpt lat="43.74369" lon="7.27904">
        <ele>175</ele>
        <time>2018-05-13T14:57:25.000Z</time>
      </trkpt>
      <trkpt lat="43.74367" lon="7.27912">
        <ele>175</ele>
        <time>2018-05-13T14:57:32.000Z</time>
      </trkpt>
      <trkpt lat="43.74362" lon="7.27921">
        <ele>167</ele>
        <time>2018-05-13T14:57:40.000Z</time>
      </trkpt>
      <trkpt lat="43.74357" lon="7.27928">
        <ele>167</ele>
        <time>2018-05-13T14:57:48.000Z</time>
      </trkpt>
      <trkpt lat="43.74353" lon="7.27936">
        <ele>166</ele>
        <time>2018-05-13T14:57:54.000Z</time>
      </trkpt>
      <trkpt lat="43.74347" lon="7.27947">
        <ele>165</ele>
        <time>2018-05-13T14:58:02.000Z</time>
      </trkpt>
      <trkpt lat="43.74345" lon="7.27952">
        <ele>165</ele>
        <time>2018-05-13T14:58:06.000Z</time>
      </trkpt>
      <trkpt lat="43.74345" lon="7.27955">
        <ele>164</ele>
        <time>2018-05-13T14:58:09.000Z</time>
      </trkpt>
      <trkpt lat="43.74345" lon="7.27956">
        <ele>164</ele>
        <time>2018-05-13T14:58:15.000Z</time>
      </trkpt>
      <trkpt lat="43.74345" lon="7.27959">
        <ele>164</ele>
        <time>2018-05-13T14:58:23.000Z</time>
      </trkpt>
      <trkpt lat="43.74346" lon="7.27961">
        <ele>164</ele>
        <time>2018-05-13T14:58:29.000Z</time>
      </trkpt>
      <trkpt lat="43.74347" lon="7.27961">
        <ele>164</ele>
        <time>2018-05-13T14:58:30.000Z</time>
      </trkpt>
      <trkpt lat="43.74348" lon="7.27963">
        <ele>163</ele>
        <time>2018-05-13T14:58:35.000Z</time>
      </trkpt>
      <trkpt lat="43.74349" lon="7.27966">
        <ele>163</ele>
        <time>2018-05-13T14:58:42.000Z</time>
      </trkpt>
      <trkpt lat="43.74351" lon="7.27969">
        <ele>163</ele>
        <time>2018-05-13T14:58:47.000Z</time>
      </trkpt>
      <trkpt lat="43.74351" lon="7.27969">
        <ele>163</ele>
        <time>2018-05-13T14:58:49.000Z</time>
      </trkpt>
      <trkpt lat="43.74352" lon="7.27972">
        <ele>162</ele>
        <time>2018-05-13T14:58:51.000Z</time>
      </trkpt>
      <trkpt lat="43.74353" lon="7.27974">
        <ele>162</ele>
        <time>2018-05-13T14:58:55.000Z</time>
      </trkpt>
      <trkpt lat="43.74353" lon="7.27974">
        <ele>162</ele>
        <time>2018-05-13T14:58:56.000Z</time>
      </trkpt>
      <trkpt lat="43.74353" lon="7.27975">
        <ele>162</ele>
        <time>2018-05-13T14:58:59.000Z</time>
      </trkpt>
      <trkpt lat="43.74354" lon="7.27977">
        <ele>162</ele>
        <time>2018-05-13T14:59:02.000Z</time>
      </trkpt>
      <trkpt lat="43.74354" lon="7.27978">
        <ele>162</ele>
        <time>2018-05-13T14:59:04.000Z</time>
      </trkpt>
      <trkpt lat="43.74354" lon="7.27981">
        <ele>162</ele>
        <time>2018-05-13T14:59:09.000Z</time>
      </trkpt>
      <trkpt lat="43.74355" lon="7.27981">
        <ele>162</ele>
        <time>2018-05-13T14:59:10.000Z</time>
      </trkpt>
      <trkpt lat="43.74355" lon="7.27982">
        <ele>161</ele>
        <time>2018-05-13T14:59:15.000Z</time>
      </trkpt>
      <trkpt lat="43.74355" lon="7.27984">
        <ele>161</ele>
        <time>2018-05-13T14:59:18.000Z</time>
      </trkpt>
      <trkpt lat="43.74355" lon="7.2799">
        <ele>161</ele>
        <time>2018-05-13T14:59:24.000Z</time>
      </trkpt>
      <trkpt lat="43.74355" lon="7.27991">
        <ele>161</ele>
        <time>2018-05-13T14:59:25.000Z</time>
      </trkpt>
      <trkpt lat="43.74355" lon="7.27995">
        <ele>161</ele>
        <time>2018-05-13T14:59:28.000Z</time>
      </trkpt>
      <trkpt lat="43.74354" lon="7.27997">
        <ele>161</ele>
        <time>2018-05-13T14:59:31.000Z</time>
      </trkpt>
      <trkpt lat="43.74353" lon="7.28001">
        <ele>153</ele>
        <time>2018-05-13T14:59:35.000Z</time>
      </trkpt>
      <trkpt lat="43.74352" lon="7.28003">
        <ele>153</ele>
        <time>2018-05-13T14:59:36.000Z</time>
      </trkpt>
      <trkpt lat="43.7435" lon="7.28011">
        <ele>153</ele>
        <time>2018-05-13T14:59:40.000Z</time>
      </trkpt>
      <trkpt lat="43.74349" lon="7.28013">
        <ele>153</ele>
        <time>2018-05-13T14:59:42.000Z</time>
      </trkpt>
      <trkpt lat="43.74348" lon="7.28014">
        <ele>153</ele>
        <time>2018-05-13T14:59:48.000Z</time>
      </trkpt>
      <trkpt lat="43.74344" lon="7.28022">
        <ele>152</ele>
        <time>2018-05-13T14:59:54.000Z</time>
      </trkpt>
      <trkpt lat="43.74334" lon="7.28038">
        <ele>150</ele>
        <time>2018-05-13T15:00:03.000Z</time>
      </trkpt>
      <trkpt lat="43.74328" lon="7.28047">
        <ele>156</ele>
        <time>2018-05-13T15:00:09.000Z</time>
      </trkpt>
      <trkpt lat="43.74326" lon="7.28051">
        <ele>156</ele>
        <time>2018-05-13T15:00:11.000Z</time>
      </trkpt>
      <trkpt lat="43.74322" lon="7.28059">
        <ele>155</ele>
        <time>2018-05-13T15:00:17.000Z</time>
      </trkpt>
      <trkpt lat="43.74317" lon="7.28068">
        <ele>154</ele>
        <time>2018-05-13T15:00:23.000Z</time>
      </trkpt>
      <trkpt lat="43.74312" lon="7.28075">
        <ele>154</ele>
        <time>2018-05-13T15:00:30.000Z</time>
      </trkpt>
      <trkpt lat="43.74312" lon="7.28075">
        <ele>154</ele>
        <time>2018-05-13T15:00:31.000Z</time>
      </trkpt>
      <trkpt lat="43.74309" lon="7.2808">
        <ele>154</ele>
        <time>2018-05-13T15:00:37.000Z</time>
      </trkpt>
      <trkpt lat="43.74308" lon="7.28084">
        <ele>144</ele>
        <time>2018-05-13T15:00:43.000Z</time>
      </trkpt>
      <trkpt lat="43.74307" lon="7.28085">
        <ele>144</ele>
        <time>2018-05-13T15:00:45.000Z</time>
      </trkpt>
      <trkpt lat="43.74305" lon="7.28088">
        <ele>144</ele>
        <time>2018-05-13T15:00:48.000Z</time>
      </trkpt>
      <trkpt lat="43.74304" lon="7.28091">
        <ele>144</ele>
        <time>2018-05-13T15:00:51.000Z</time>
      </trkpt>
      <trkpt lat="43.74303" lon="7.28092">
        <ele>144</ele>
        <time>2018-05-13T15:00:56.000Z</time>
      </trkpt>
      <trkpt lat="43.74304" lon="7.281">
        <ele>143</ele>
        <time>2018-05-13T15:01:00.000Z</time>
      </trkpt>
      <trkpt lat="43.74304" lon="7.28114">
        <ele>141</ele>
        <time>2018-05-13T15:01:05.000Z</time>
      </trkpt>
      <trkpt lat="43.74303" lon="7.28122">
        <ele>140</ele>
        <time>2018-05-13T15:01:08.000Z</time>
      </trkpt>
      <trkpt lat="43.74299" lon="7.28127">
        <ele>139</ele>
        <time>2018-05-13T15:01:10.000Z</time>
      </trkpt>
      <trkpt lat="43.7429" lon="7.28141">
        <ele>138</ele>
        <time>2018-05-13T15:01:14.000Z</time>
      </trkpt>
      <trkpt lat="43.74287" lon="7.28148">
        <ele>138</ele>
        <time>2018-05-13T15:01:16.000Z</time>
      </trkpt>
      <trkpt lat="43.74285" lon="7.28151">
        <ele>138</ele>
        <time>2018-05-13T15:01:17.000Z</time>
      </trkpt>
      <trkpt lat="43.74281" lon="7.28162">
        <ele>137</ele>
        <time>2018-05-13T15:01:20.000Z</time>
      </trkpt>
      <trkpt lat="43.74278" lon="7.28171">
        <ele>129</ele>
        <time>2018-05-13T15:01:22.000Z</time>
      </trkpt>
      <trkpt lat="43.74276" lon="7.28175">
        <ele>129</ele>
        <time>2018-05-13T15:01:23.000Z</time>
      </trkpt>
      <trkpt lat="43.74271" lon="7.28189">
        <ele>128</ele>
        <time>2018-05-13T15:01:26.000Z</time>
      </trkpt>
      <trkpt lat="43.74268" lon="7.28198">
        <ele>128</ele>
        <time>2018-05-13T15:01:28.000Z</time>
      </trkpt>
      <trkpt lat="43.74266" lon="7.28202">
        <ele>128</ele>
        <time>2018-05-13T15:01:29.000Z</time>
      </trkpt>
      <trkpt lat="43.7426" lon="7.28214">
        <ele>128</ele>
        <time>2018-05-13T15:01:32.000Z</time>
      </trkpt>
      <trkpt lat="43.74259" lon="7.28218">
        <ele>128</ele>
        <time>2018-05-13T15:01:33.000Z</time>
      </trkpt>
      <trkpt lat="43.74257" lon="7.28221">
        <ele>128</ele>
        <time>2018-05-13T15:01:34.000Z</time>
      </trkpt>
      <trkpt lat="43.7425" lon="7.28235">
        <ele>128</ele>
        <time>2018-05-13T15:01:38.000Z</time>
      </trkpt>
      <trkpt lat="43.74249" lon="7.28242">
        <ele>132</ele>
        <time>2018-05-13T15:01:40.000Z</time>
      </trkpt>
      <trkpt lat="43.74245" lon="7.28249">
        <ele>132</ele>
        <time>2018-05-13T15:01:42.000Z</time>
      </trkpt>
      <trkpt lat="43.74243" lon="7.28253">
        <ele>130</ele>
        <time>2018-05-13T15:01:43.000Z</time>
      </trkpt>
      <trkpt lat="43.74241" lon="7.28257">
        <ele>129</ele>
        <time>2018-05-13T15:01:44.000Z</time>
      </trkpt>
      <trkpt lat="43.74237" lon="7.28265">
        <ele>128</ele>
        <time>2018-05-13T15:01:46.000Z</time>
      </trkpt>
      <trkpt lat="43.74232" lon="7.28275">
        <ele>127</ele>
        <time>2018-05-13T15:01:49.000Z</time>
      </trkpt>
      <trkpt lat="43.74219" lon="7.28292">
        <ele>126</ele>
        <time>2018-05-13T15:01:55.000Z</time>
      </trkpt>
      <trkpt lat="43.74217" lon="7.28296">
        <ele>126</ele>
        <time>2018-05-13T15:01:57.000Z</time>
      </trkpt>
      <trkpt lat="43.74217" lon="7.28298">
        <ele>126</ele>
        <time>2018-05-13T15:01:58.000Z</time>
      </trkpt>
      <trkpt lat="43.74217" lon="7.283">
        <ele>126</ele>
        <time>2018-05-13T15:01:59.000Z</time>
      </trkpt>
      <trkpt lat="43.74218" lon="7.28308">
        <ele>125</ele>
        <time>2018-05-13T15:02:02.000Z</time>
      </trkpt>
      <trkpt lat="43.74217" lon="7.28313">
        <ele>125</ele>
        <time>2018-05-13T15:02:04.000Z</time>
      </trkpt>
      <trkpt lat="43.74208" lon="7.2832">
        <ele>125</ele>
        <time>2018-05-13T15:02:07.000Z</time>
      </trkpt>
      <trkpt lat="43.74196" lon="7.28332">
        <ele>125</ele>
        <time>2018-05-13T15:02:10.000Z</time>
      </trkpt>
      <trkpt lat="43.74187" lon="7.28342">
        <ele>119</ele>
        <time>2018-05-13T15:02:12.000Z</time>
      </trkpt>
      <trkpt lat="43.74183" lon="7.28346">
        <ele>119</ele>
        <time>2018-05-13T15:02:13.000Z</time>
      </trkpt>
      <trkpt lat="43.74179" lon="7.2835">
        <ele>119</ele>
        <time>2018-05-13T15:02:14.000Z</time>
      </trkpt>
      <trkpt lat="43.74176" lon="7.28353">
        <ele>119</ele>
        <time>2018-05-13T15:02:15.000Z</time>
      </trkpt>
      <trkpt lat="43.74172" lon="7.28358">
        <ele>118</ele>
        <time>2018-05-13T15:02:17.000Z</time>
      </trkpt>
      <trkpt lat="43.74171" lon="7.28365">
        <ele>117</ele>
        <time>2018-05-13T15:02:19.000Z</time>
      </trkpt>
      <trkpt lat="43.74171" lon="7.28367">
        <ele>117</ele>
        <time>2018-05-13T15:02:20.000Z</time>
      </trkpt>
      <trkpt lat="43.74171" lon="7.2837">
        <ele>116</ele>
        <time>2018-05-13T15:02:21.000Z</time>
      </trkpt>
      <trkpt lat="43.7417" lon="7.28377">
        <ele>116</ele>
        <time>2018-05-13T15:02:24.000Z</time>
      </trkpt>
      <trkpt lat="43.7417" lon="7.28383">
        <ele>115</ele>
        <time>2018-05-13T15:02:27.000Z</time>
      </trkpt>
      <trkpt lat="43.74171" lon="7.28388">
        <ele>115</ele>
        <time>2018-05-13T15:02:30.000Z</time>
      </trkpt>
      <trkpt lat="43.74173" lon="7.28391">
        <ele>115</ele>
        <time>2018-05-13T15:02:31.000Z</time>
      </trkpt>
      <trkpt lat="43.74174" lon="7.28392">
        <ele>115</ele>
        <time>2018-05-13T15:02:32.000Z</time>
      </trkpt>
      <trkpt lat="43.74174" lon="7.28397">
        <ele>115</ele>
        <time>2018-05-13T15:02:34.000Z</time>
      </trkpt>
      <trkpt lat="43.74174" lon="7.28399">
        <ele>115</ele>
        <time>2018-05-13T15:02:35.000Z</time>
      </trkpt>
      <trkpt lat="43.74172" lon="7.28401">
        <ele>115</ele>
        <time>2018-05-13T15:02:36.000Z</time>
      </trkpt>
      <trkpt lat="43.74171" lon="7.28404">
        <ele>116</ele>
        <time>2018-05-13T15:02:37.000Z</time>
      </trkpt>
      <trkpt lat="43.7417" lon="7.28407">
        <ele>116</ele>
        <time>2018-05-13T15:02:40.000Z</time>
      </trkpt>
      <trkpt lat="43.74169" lon="7.28408">
        <ele>116</ele>
        <time>2018-05-13T15:02:41.000Z</time>
      </trkpt>
      <trkpt lat="43.74167" lon="7.28411">
        <ele>117</ele>
        <time>2018-05-13T15:02:43.000Z</time>
      </trkpt>
      <trkpt lat="43.74164" lon="7.28418">
        <ele>116</ele>
        <time>2018-05-13T15:02:47.000Z</time>
      </trkpt>
      <trkpt lat="43.74163" lon="7.28421">
        <ele>115</ele>
        <time>2018-05-13T15:02:48.000Z</time>
      </trkpt>
      <trkpt lat="43.7416" lon="7.28426">
        <ele>113</ele>
        <time>2018-05-13T15:02:50.000Z</time>
      </trkpt>
      <trkpt lat="43.74159" lon="7.28433">
        <ele>111</ele>
        <time>2018-05-13T15:02:52.000Z</time>
      </trkpt>
      <trkpt lat="43.74157" lon="7.28436">
        <ele>111</ele>
        <time>2018-05-13T15:02:53.000Z</time>
      </trkpt>
      <trkpt lat="43.74153" lon="7.28447">
        <ele>108</ele>
        <time>2018-05-13T15:02:56.000Z</time>
      </trkpt>
      <trkpt lat="43.7415" lon="7.28454">
        <ele>107</ele>
        <time>2018-05-13T15:02:58.000Z</time>
      </trkpt>
      <trkpt lat="43.74139" lon="7.28477">
        <ele>105</ele>
        <time>2018-05-13T15:03:04.000Z</time>
      </trkpt>
      <trkpt lat="43.74138" lon="7.28479">
        <ele>104</ele>
        <time>2018-05-13T15:03:05.000Z</time>
      </trkpt>
      <trkpt lat="43.7413" lon="7.28489">
        <ele>104</ele>
        <time>2018-05-13T15:03:10.000Z</time>
      </trkpt>
      <trkpt lat="43.74127" lon="7.285">
        <ele>103</ele>
        <time>2018-05-13T15:03:13.000Z</time>
      </trkpt>
      <trkpt lat="43.74127" lon="7.28503">
        <ele>95</ele>
        <time>2018-05-13T15:03:14.000Z</time>
      </trkpt>
      <trkpt lat="43.74126" lon="7.28508">
        <ele>94</ele>
        <time>2018-05-13T15:03:16.000Z</time>
      </trkpt>
      <trkpt lat="43.74124" lon="7.28513">
        <ele>94</ele>
        <time>2018-05-13T15:03:18.000Z</time>
      </trkpt>
      <trkpt lat="43.74124" lon="7.28515">
        <ele>94</ele>
        <time>2018-05-13T15:03:19.000Z</time>
      </trkpt>
      <trkpt lat="43.74123" lon="7.2852">
        <ele>94</ele>
        <time>2018-05-13T15:03:21.000Z</time>
      </trkpt>
      <trkpt lat="43.74118" lon="7.28525">
        <ele>93</ele>
        <time>2018-05-13T15:03:24.000Z</time>
      </trkpt>
      <trkpt lat="43.74117" lon="7.28526">
        <ele>93</ele>
        <time>2018-05-13T15:03:25.000Z</time>
      </trkpt>
      <trkpt lat="43.74111" lon="7.28527">
        <ele>93</ele>
        <time>2018-05-13T15:03:29.000Z</time>
      </trkpt>
      <trkpt lat="43.7411" lon="7.28528">
        <ele>93</ele>
        <time>2018-05-13T15:03:30.000Z</time>
      </trkpt>
      <trkpt lat="43.74105" lon="7.2853">
        <ele>93</ele>
        <time>2018-05-13T15:03:32.000Z</time>
      </trkpt>
      <trkpt lat="43.74101" lon="7.28531">
        <ele>93</ele>
        <time>2018-05-13T15:03:35.000Z</time>
      </trkpt>
      <trkpt lat="43.741" lon="7.28532">
        <ele>93</ele>
        <time>2018-05-13T15:03:36.000Z</time>
      </trkpt>
      <trkpt lat="43.74097" lon="7.28533">
        <ele>92</ele>
        <time>2018-05-13T15:03:38.000Z</time>
      </trkpt>
      <trkpt lat="43.74094" lon="7.28535">
        <ele>92</ele>
        <time>2018-05-13T15:03:40.000Z</time>
      </trkpt>
      <trkpt lat="43.74092" lon="7.28535">
        <ele>92</ele>
        <time>2018-05-13T15:03:41.000Z</time>
      </trkpt>
      <trkpt lat="43.7409" lon="7.28535">
        <ele>92</ele>
        <time>2018-05-13T15:03:42.000Z</time>
      </trkpt>
      <trkpt lat="43.74087" lon="7.28536">
        <ele>92</ele>
        <time>2018-05-13T15:03:44.000Z</time>
      </trkpt>
      <trkpt lat="43.74085" lon="7.28536">
        <ele>92</ele>
        <time>2018-05-13T15:03:45.000Z</time>
      </trkpt>
      <trkpt lat="43.74082" lon="7.28536">
        <ele>87</ele>
        <time>2018-05-13T15:03:47.000Z</time>
      </trkpt>
      <trkpt lat="43.74078" lon="7.28538">
        <ele>87</ele>
        <time>2018-05-13T15:03:50.000Z</time>
      </trkpt>
      <trkpt lat="43.74078" lon="7.28538">
        <ele>87</ele>
        <time>2018-05-13T15:03:51.000Z</time>
      </trkpt>
      <trkpt lat="43.74075" lon="7.28538">
        <ele>87</ele>
        <time>2018-05-13T15:03:53.000Z</time>
      </trkpt>
      <trkpt lat="43.74074" lon="7.28537">
        <ele>87</ele>
        <time>2018-05-13T15:03:55.000Z</time>
      </trkpt>
      <trkpt lat="43.74073" lon="7.28538">
        <ele>86</ele>
        <time>2018-05-13T15:03:56.000Z</time>
      </trkpt>
      <trkpt lat="43.74071" lon="7.28543">
        <ele>86</ele>
        <time>2018-05-13T15:03:59.000Z</time>
      </trkpt>
      <trkpt lat="43.74069" lon="7.28554">
        <ele>85</ele>
        <time>2018-05-13T15:04:03.000Z</time>
      </trkpt>
      <trkpt lat="43.7407" lon="7.28559">
        <ele>84</ele>
        <time>2018-05-13T15:04:05.000Z</time>
      </trkpt>
      <trkpt lat="43.7407" lon="7.28561">
        <ele>84</ele>
        <time>2018-05-13T15:04:06.000Z</time>
      </trkpt>
      <trkpt lat="43.74071" lon="7.28562">
        <ele>84</ele>
        <time>2018-05-13T15:04:07.000Z</time>
      </trkpt>
      <trkpt lat="43.74072" lon="7.28563">
        <ele>84</ele>
        <time>2018-05-13T15:04:08.000Z</time>
      </trkpt>
      <trkpt lat="43.74073" lon="7.28565">
        <ele>84</ele>
        <time>2018-05-13T15:04:10.000Z</time>
      </trkpt>
      <trkpt lat="43.74074" lon="7.28566">
        <ele>84</ele>
        <time>2018-05-13T15:04:11.000Z</time>
      </trkpt>
      <trkpt lat="43.74074" lon="7.28567">
        <ele>84</ele>
        <time>2018-05-13T15:04:12.000Z</time>
      </trkpt>
      <trkpt lat="43.74072" lon="7.28569">
        <ele>84</ele>
        <time>2018-05-13T15:04:14.000Z</time>
      </trkpt>
      <trkpt lat="43.74071" lon="7.2857">
        <ele>84</ele>
        <time>2018-05-13T15:04:15.000Z</time>
      </trkpt>
      <trkpt lat="43.74067" lon="7.28572">
        <ele>83</ele>
        <time>2018-05-13T15:04:17.000Z</time>
      </trkpt>
      <trkpt lat="43.74063" lon="7.28575">
        <ele>83</ele>
        <time>2018-05-13T15:04:20.000Z</time>
      </trkpt>
      <trkpt lat="43.74062" lon="7.28576">
        <ele>83</ele>
        <time>2018-05-13T15:04:21.000Z</time>
      </trkpt>
      <trkpt lat="43.74063" lon="7.28577">
        <ele>83</ele>
        <time>2018-05-13T15:04:22.000Z</time>
      </trkpt>
      <trkpt lat="43.74066" lon="7.28581">
        <ele>83</ele>
        <time>2018-05-13T15:04:25.000Z</time>
      </trkpt>
      <trkpt lat="43.74069" lon="7.28585">
        <ele>78</ele>
        <time>2018-05-13T15:04:28.000Z</time>
      </trkpt>
      <trkpt lat="43.74071" lon="7.28586">
        <ele>78</ele>
        <time>2018-05-13T15:04:29.000Z</time>
      </trkpt>
      <trkpt lat="43.74072" lon="7.28588">
        <ele>78</ele>
        <time>2018-05-13T15:04:30.000Z</time>
      </trkpt>
      <trkpt lat="43.74074" lon="7.28588">
        <ele>79</ele>
        <time>2018-05-13T15:04:31.000Z</time>
      </trkpt>
      <trkpt lat="43.74076" lon="7.28589">
        <ele>79</ele>
        <time>2018-05-13T15:04:32.000Z</time>
      </trkpt>
      <trkpt lat="43.74075" lon="7.28593">
        <ele>78</ele>
        <time>2018-05-13T15:04:34.000Z</time>
      </trkpt>
      <trkpt lat="43.74073" lon="7.28593">
        <ele>78</ele>
        <time>2018-05-13T15:04:35.000Z</time>
      </trkpt>
      <trkpt lat="43.74065" lon="7.28597">
        <ele>76</ele>
        <time>2018-05-13T15:04:38.000Z</time>
      </trkpt>
      <trkpt lat="43.74064" lon="7.28599">
        <ele>75</ele>
        <time>2018-05-13T15:04:39.000Z</time>
      </trkpt>
      <trkpt lat="43.74062" lon="7.286">
        <ele>75</ele>
        <time>2018-05-13T15:04:40.000Z</time>
      </trkpt>
      <trkpt lat="43.74058" lon="7.28606">
        <ele>74</ele>
        <time>2018-05-13T15:04:42.000Z</time>
      </trkpt>
      <trkpt lat="43.74056" lon="7.28609">
        <ele>73</ele>
        <time>2018-05-13T15:04:43.000Z</time>
      </trkpt>
      <trkpt lat="43.74053" lon="7.28611">
        <ele>73</ele>
        <time>2018-05-13T15:04:44.000Z</time>
      </trkpt>
      <trkpt lat="43.74049" lon="7.2862">
        <ele>72</ele>
        <time>2018-05-13T15:04:47.000Z</time>
      </trkpt>
      <trkpt lat="43.74048" lon="7.28625">
        <ele>71</ele>
        <time>2018-05-13T15:04:48.000Z</time>
      </trkpt>
      <trkpt lat="43.74046" lon="7.2863">
        <ele>71</ele>
        <time>2018-05-13T15:04:49.000Z</time>
      </trkpt>
      <trkpt lat="43.74039" lon="7.2864">
        <ele>70</ele>
        <time>2018-05-13T15:04:51.000Z</time>
      </trkpt>
      <trkpt lat="43.74035" lon="7.28645">
        <ele>69</ele>
        <time>2018-05-13T15:04:52.000Z</time>
      </trkpt>
      <trkpt lat="43.74033" lon="7.28648">
        <ele>69</ele>
        <time>2018-05-13T15:04:53.000Z</time>
      </trkpt>
      <trkpt lat="43.74028" lon="7.28653">
        <ele>68</ele>
        <time>2018-05-13T15:04:55.000Z</time>
      </trkpt>
      <trkpt lat="43.74026" lon="7.28657">
        <ele>68</ele>
        <time>2018-05-13T15:04:56.000Z</time>
      </trkpt>
      <trkpt lat="43.74021" lon="7.28664">
        <ele>67</ele>
        <time>2018-05-13T15:04:58.000Z</time>
      </trkpt>
      <trkpt lat="43.74011" lon="7.28681">
        <ele>63</ele>
        <time>2018-05-13T15:05:02.000Z</time>
      </trkpt>
      <trkpt lat="43.74009" lon="7.28685">
        <ele>63</ele>
        <time>2018-05-13T15:05:03.000Z</time>
      </trkpt>
      <trkpt lat="43.74001" lon="7.287">
        <ele>62</ele>
        <time>2018-05-13T15:05:07.000Z</time>
      </trkpt>
      <trkpt lat="43.74" lon="7.28704">
        <ele>62</ele>
        <time>2018-05-13T15:05:08.000Z</time>
      </trkpt>
      <trkpt lat="43.73994" lon="7.28717">
        <ele>61</ele>
        <time>2018-05-13T15:05:12.000Z</time>
      </trkpt>
      <trkpt lat="43.73984" lon="7.28716">
        <ele>61</ele>
        <time>2018-05-13T15:05:15.000Z</time>
      </trkpt>
      <trkpt lat="43.73965" lon="7.28713">
        <ele>61</ele>
        <time>2018-05-13T15:05:20.000Z</time>
      </trkpt>
      <trkpt lat="43.73958" lon="7.28717">
        <ele>61</ele>
        <time>2018-05-13T15:05:22.000Z</time>
      </trkpt>
      <trkpt lat="43.73948" lon="7.28734">
        <ele>61</ele>
        <time>2018-05-13T15:05:26.000Z</time>
      </trkpt>
      <trkpt lat="43.73934" lon="7.28745">
        <ele>60</ele>
        <time>2018-05-13T15:05:30.000Z</time>
      </trkpt>
      <trkpt lat="43.73913" lon="7.28742">
        <ele>59</ele>
        <time>2018-05-13T15:05:35.000Z</time>
      </trkpt>
      <trkpt lat="43.73897" lon="7.28737">
        <ele>60</ele>
        <time>2018-05-13T15:05:38.000Z</time>
      </trkpt>
      <trkpt lat="43.73872" lon="7.28727">
        <ele>60</ele>
        <time>2018-05-13T15:05:43.000Z</time>
      </trkpt>
      <trkpt lat="43.73857" lon="7.2872">
        <ele>60</ele>
        <time>2018-05-13T15:05:46.000Z</time>
      </trkpt>
      <trkpt lat="43.73837" lon="7.28712">
        <ele>60</ele>
        <time>2018-05-13T15:05:50.000Z</time>
      </trkpt>
      <trkpt lat="43.73832" lon="7.28711">
        <ele>59</ele>
        <time>2018-05-13T15:05:51.000Z</time>
      </trkpt>
      <trkpt lat="43.73812" lon="7.28711">
        <ele>59</ele>
        <time>2018-05-13T15:05:55.000Z</time>
      </trkpt>
      <trkpt lat="43.73802" lon="7.28713">
        <ele>59</ele>
        <time>2018-05-13T15:05:57.000Z</time>
      </trkpt>
      <trkpt lat="43.73783" lon="7.28717">
        <ele>58</ele>
        <time>2018-05-13T15:06:01.000Z</time>
      </trkpt>
      <trkpt lat="43.73778" lon="7.28717">
        <ele>58</ele>
        <time>2018-05-13T15:06:02.000Z</time>
      </trkpt>
      <trkpt lat="43.73764" lon="7.28713">
        <ele>58</ele>
        <time>2018-05-13T15:06:05.000Z</time>
      </trkpt>
      <trkpt lat="43.73755" lon="7.28708">
        <ele>58</ele>
        <time>2018-05-13T15:06:07.000Z</time>
      </trkpt>
      <trkpt lat="43.73735" lon="7.28707">
        <ele>60</ele>
        <time>2018-05-13T15:06:11.000Z</time>
      </trkpt>
      <trkpt lat="43.73715" lon="7.28708">
        <ele>60</ele>
        <time>2018-05-13T15:06:15.000Z</time>
      </trkpt>
      <trkpt lat="43.73705" lon="7.28711">
        <ele>61</ele>
        <time>2018-05-13T15:06:17.000Z</time>
      </trkpt>
      <trkpt lat="43.73699" lon="7.28712">
        <ele>61</ele>
        <time>2018-05-13T15:06:18.000Z</time>
      </trkpt>
      <trkpt lat="43.73654" lon="7.28727">
        <ele>60</ele>
        <time>2018-05-13T15:06:27.000Z</time>
      </trkpt>
      <trkpt lat="43.73641" lon="7.28731">
        <ele>60</ele>
        <time>2018-05-13T15:06:30.000Z</time>
      </trkpt>
      <trkpt lat="43.73634" lon="7.28737">
        <ele>60</ele>
        <time>2018-05-13T15:06:32.000Z</time>
      </trkpt>
      <trkpt lat="43.73632" lon="7.28745">
        <ele>60</ele>
        <time>2018-05-13T15:06:34.000Z</time>
      </trkpt>
      <trkpt lat="43.7363" lon="7.28748">
        <ele>60</ele>
        <time>2018-05-13T15:06:35.000Z</time>
      </trkpt>
      <trkpt lat="43.73622" lon="7.28758">
        <ele>53</ele>
        <time>2018-05-13T15:06:39.000Z</time>
      </trkpt>
      <trkpt lat="43.73607" lon="7.28762">
        <ele>53</ele>
        <time>2018-05-13T15:06:43.000Z</time>
      </trkpt>
      <trkpt lat="43.73593" lon="7.28768">
        <ele>53</ele>
        <time>2018-05-13T15:06:47.000Z</time>
      </trkpt>
      <trkpt lat="43.73589" lon="7.28771">
        <ele>53</ele>
        <time>2018-05-13T15:06:48.000Z</time>
      </trkpt>
      <trkpt lat="43.73568" lon="7.2878">
        <ele>53</ele>
        <time>2018-05-13T15:06:54.000Z</time>
      </trkpt>
      <trkpt lat="43.7356" lon="7.2878">
        <ele>53</ele>
        <time>2018-05-13T15:06:58.000Z</time>
      </trkpt>
      <trkpt lat="43.73544" lon="7.28783">
        <ele>52</ele>
        <time>2018-05-13T15:07:04.000Z</time>
      </trkpt>
      <trkpt lat="43.73523" lon="7.28783">
        <ele>52</ele>
        <time>2018-05-13T15:07:09.000Z</time>
      </trkpt>
      <trkpt lat="43.73519" lon="7.28782">
        <ele>52</ele>
        <time>2018-05-13T15:07:10.000Z</time>
      </trkpt>
      <trkpt lat="43.7351" lon="7.2878">
        <ele>52</ele>
        <time>2018-05-13T15:07:12.000Z</time>
      </trkpt>
      <trkpt lat="43.73496" lon="7.28776">
        <ele>54</ele>
        <time>2018-05-13T15:07:15.000Z</time>
      </trkpt>
      <trkpt lat="43.73492" lon="7.28774">
        <ele>54</ele>
        <time>2018-05-13T15:07:16.000Z</time>
      </trkpt>
      <trkpt lat="43.73474" lon="7.28762">
        <ele>54</ele>
        <time>2018-05-13T15:07:20.000Z</time>
      </trkpt>
      <trkpt lat="43.73466" lon="7.28754">
        <ele>54</ele>
        <time>2018-05-13T15:07:22.000Z</time>
      </trkpt>
      <trkpt lat="43.73455" lon="7.2874">
        <ele>54</ele>
        <time>2018-05-13T15:07:25.000Z</time>
      </trkpt>
      <trkpt lat="43.73451" lon="7.28734">
        <ele>54</ele>
        <time>2018-05-13T15:07:26.000Z</time>
      </trkpt>
      <trkpt lat="43.73439" lon="7.2871">
        <ele>54</ele>
        <time>2018-05-13T15:07:30.000Z</time>
      </trkpt>
      <trkpt lat="43.73433" lon="7.28696">
        <ele>54</ele>
        <time>2018-05-13T15:07:32.000Z</time>
      </trkpt>
      <trkpt lat="43.73428" lon="7.28675">
        <ele>53</ele>
        <time>2018-05-13T15:07:35.000Z</time>
      </trkpt>
      <trkpt lat="43.73416" lon="7.28618">
        <ele>53</ele>
        <time>2018-05-13T15:07:43.000Z</time>
      </trkpt>
      <trkpt lat="43.73412" lon="7.28598">
        <ele>54</ele>
        <time>2018-05-13T15:07:46.000Z</time>
      </trkpt>
      <trkpt lat="43.73411" lon="7.28588">
        <ele>54</ele>
        <time>2018-05-13T15:07:48.000Z</time>
      </trkpt>
      <trkpt lat="43.7341" lon="7.28582">
        <ele>54</ele>
        <time>2018-05-13T15:07:49.000Z</time>
      </trkpt>
      <trkpt lat="43.73408" lon="7.28577">
        <ele>54</ele>
        <time>2018-05-13T15:07:50.000Z</time>
      </trkpt>
      <trkpt lat="43.73404" lon="7.28565">
        <ele>54</ele>
        <time>2018-05-13T15:07:53.000Z</time>
      </trkpt>
      <trkpt lat="43.73395" lon="7.28551">
        <ele>55</ele>
        <time>2018-05-13T15:07:56.000Z</time>
      </trkpt>
      <trkpt lat="43.73385" lon="7.28539">
        <ele>55</ele>
        <time>2018-05-13T15:08:00.000Z</time>
      </trkpt>
      <trkpt lat="43.73371" lon="7.28522">
        <ele>55</ele>
        <time>2018-05-13T15:08:05.000Z</time>
      </trkpt>
      <trkpt lat="43.73365" lon="7.28511">
        <ele>55</ele>
        <time>2018-05-13T15:08:10.000Z</time>
      </trkpt>
      <trkpt lat="43.73362" lon="7.28507">
        <ele>55</ele>
        <time>2018-05-13T15:08:14.000Z</time>
      </trkpt>
      <trkpt lat="43.73357" lon="7.28501">
        <ele>55</ele>
        <time>2018-05-13T15:08:16.000Z</time>
      </trkpt>
      <trkpt lat="43.7335" lon="7.28497">
        <ele>59</ele>
        <time>2018-05-13T15:08:18.000Z</time>
      </trkpt>
      <trkpt lat="43.73338" lon="7.28492">
        <ele>58</ele>
        <time>2018-05-13T15:08:21.000Z</time>
      </trkpt>
      <trkpt lat="43.73309" lon="7.28486">
        <ele>56</ele>
        <time>2018-05-13T15:08:28.000Z</time>
      </trkpt>
      <trkpt lat="43.73305" lon="7.28485">
        <ele>56</ele>
        <time>2018-05-13T15:08:29.000Z</time>
      </trkpt>
      <trkpt lat="43.73276" lon="7.28482">
        <ele>54</ele>
        <time>2018-05-13T15:08:36.000Z</time>
      </trkpt>
      <trkpt lat="43.73257" lon="7.28481">
        <ele>53</ele>
        <time>2018-05-13T15:08:41.000Z</time>
      </trkpt>
      <trkpt lat="43.7323" lon="7.28481">
        <ele>48</ele>
        <time>2018-05-13T15:08:49.000Z</time>
      </trkpt>
      <trkpt lat="43.7323" lon="7.28482">
        <ele>48</ele>
        <time>2018-05-13T15:08:54.000Z</time>
      </trkpt>
      <trkpt lat="43.7323" lon="7.28483">
        <ele>48</ele>
        <time>2018-05-13T15:09:09.000Z</time>
      </trkpt>
      <trkpt lat="43.73227" lon="7.28482">
        <ele>48</ele>
        <time>2018-05-13T15:09:11.000Z</time>
      </trkpt>
      <trkpt lat="43.73213" lon="7.28476">
        <ele>48</ele>
        <time>2018-05-13T15:09:16.000Z</time>
      </trkpt>
      <trkpt lat="43.73195" lon="7.28468">
        <ele>47</ele>
        <time>2018-05-13T15:09:21.000Z</time>
      </trkpt>
      <trkpt lat="43.73184" lon="7.28462">
        <ele>47</ele>
        <time>2018-05-13T15:09:24.000Z</time>
      </trkpt>
      <trkpt lat="43.73176" lon="7.28457">
        <ele>47</ele>
        <time>2018-05-13T15:09:26.000Z</time>
      </trkpt>
      <trkpt lat="43.7316" lon="7.28445">
        <ele>44</ele>
        <time>2018-05-13T15:09:30.000Z</time>
      </trkpt>
      <trkpt lat="43.73155" lon="7.28435">
        <ele>44</ele>
        <time>2018-05-13T15:09:32.000Z</time>
      </trkpt>
      <trkpt lat="43.73144" lon="7.28416">
        <ele>45</ele>
        <time>2018-05-13T15:09:36.000Z</time>
      </trkpt>
      <trkpt lat="43.73141" lon="7.28412">
        <ele>45</ele>
        <time>2018-05-13T15:09:37.000Z</time>
      </trkpt>
      <trkpt lat="43.73116" lon="7.28376">
        <ele>45</ele>
        <time>2018-05-13T15:09:44.000Z</time>
      </trkpt>
      <trkpt lat="43.73077" lon="7.28318">
        <ele>44</ele>
        <time>2018-05-13T15:09:54.000Z</time>
      </trkpt>
      <trkpt lat="43.73074" lon="7.28312">
        <ele>44</ele>
        <time>2018-05-13T15:09:55.000Z</time>
      </trkpt>
      <trkpt lat="43.7307" lon="7.28307">
        <ele>44</ele>
        <time>2018-05-13T15:09:56.000Z</time>
      </trkpt>
      <trkpt lat="43.73056" lon="7.28284">
        <ele>44</ele>
        <time>2018-05-13T15:10:00.000Z</time>
      </trkpt>
      <trkpt lat="43.73027" lon="7.28246">
        <ele>49</ele>
        <time>2018-05-13T15:10:07.000Z</time>
      </trkpt>
      <trkpt lat="43.72992" lon="7.28216">
        <ele>49</ele>
        <time>2018-05-13T15:10:14.000Z</time>
      </trkpt>
      <trkpt lat="43.72969" lon="7.28205">
        <ele>51</ele>
        <time>2018-05-13T15:10:18.000Z</time>
      </trkpt>
      <trkpt lat="43.72957" lon="7.28201">
        <ele>51</ele>
        <time>2018-05-13T15:10:20.000Z</time>
      </trkpt>
      <trkpt lat="43.72927" lon="7.28198">
        <ele>52</ele>
        <time>2018-05-13T15:10:25.000Z</time>
      </trkpt>
      <trkpt lat="43.72885" lon="7.28202">
        <ele>52</ele>
        <time>2018-05-13T15:10:32.000Z</time>
      </trkpt>
      <trkpt lat="43.72879" lon="7.28203">
        <ele>52</ele>
        <time>2018-05-13T15:10:33.000Z</time>
      </trkpt>
      <trkpt lat="43.72831" lon="7.2821">
        <ele>53</ele>
        <time>2018-05-13T15:10:41.000Z</time>
      </trkpt>
      <trkpt lat="43.72789" lon="7.28222">
        <ele>52</ele>
        <time>2018-05-13T15:10:48.000Z</time>
      </trkpt>
      <trkpt lat="43.72783" lon="7.28225">
        <ele>52</ele>
        <time>2018-05-13T15:10:49.000Z</time>
      </trkpt>
      <trkpt lat="43.72772" lon="7.2823">
        <ele>51</ele>
        <time>2018-05-13T15:10:51.000Z</time>
      </trkpt>
      <trkpt lat="43.72739" lon="7.28252">
        <ele>42</ele>
        <time>2018-05-13T15:10:57.000Z</time>
      </trkpt>
      <trkpt lat="43.72699" lon="7.28293">
        <ele>44</ele>
        <time>2018-05-13T15:11:05.000Z</time>
      </trkpt>
      <trkpt lat="43.72657" lon="7.28342">
        <ele>42</ele>
        <time>2018-05-13T15:11:14.000Z</time>
      </trkpt>
      <trkpt lat="43.72653" lon="7.28347">
        <ele>43</ele>
        <time>2018-05-13T15:11:15.000Z</time>
      </trkpt>
      <trkpt lat="43.72624" lon="7.28386">
        <ele>44</ele>
        <time>2018-05-13T15:11:22.000Z</time>
      </trkpt>
      <trkpt lat="43.7262" lon="7.28391">
        <ele>44</ele>
        <time>2018-05-13T15:11:23.000Z</time>
      </trkpt>
      <trkpt lat="43.72607" lon="7.28407">
        <ele>44</ele>
        <time>2018-05-13T15:11:26.000Z</time>
      </trkpt>
      <trkpt lat="43.72596" lon="7.28424">
        <ele>40</ele>
        <time>2018-05-13T15:11:29.000Z</time>
      </trkpt>
      <trkpt lat="43.72581" lon="7.28447">
        <ele>42</ele>
        <time>2018-05-13T15:11:33.000Z</time>
      </trkpt>
      <trkpt lat="43.72575" lon="7.28459">
        <ele>41</ele>
        <time>2018-05-13T15:11:35.000Z</time>
      </trkpt>
      <trkpt lat="43.72571" lon="7.28466">
        <ele>41</ele>
        <time>2018-05-13T15:11:36.000Z</time>
      </trkpt>
      <trkpt lat="43.72551" lon="7.28508">
        <ele>38</ele>
        <time>2018-05-13T15:11:43.000Z</time>
      </trkpt>
      <trkpt lat="43.72544" lon="7.28518">
        <ele>38</ele>
        <time>2018-05-13T15:11:47.000Z</time>
      </trkpt>
      <trkpt lat="43.72543" lon="7.28528">
        <ele>38</ele>
        <time>2018-05-13T15:11:50.000Z</time>
      </trkpt>
      <trkpt lat="43.72543" lon="7.28531">
        <ele>38</ele>
        <time>2018-05-13T15:11:51.000Z</time>
      </trkpt>
      <trkpt lat="43.72545" lon="7.28542">
        <ele>38</ele>
        <time>2018-05-13T15:11:54.000Z</time>
      </trkpt>
      <trkpt lat="43.72542" lon="7.2855">
        <ele>38</ele>
        <time>2018-05-13T15:11:56.000Z</time>
      </trkpt>
      <trkpt lat="43.72537" lon="7.28559">
        <ele>38</ele>
        <time>2018-05-13T15:11:58.000Z</time>
      </trkpt>
      <trkpt lat="43.72526" lon="7.28578">
        <ele>38</ele>
        <time>2018-05-13T15:12:02.000Z</time>
      </trkpt>
      <trkpt lat="43.72505" lon="7.28613">
        <ele>37</ele>
        <time>2018-05-13T15:12:09.000Z</time>
      </trkpt>
      <trkpt lat="43.72471" lon="7.28654">
        <ele>37</ele>
        <time>2018-05-13T15:12:18.000Z</time>
      </trkpt>
      <trkpt lat="43.7244" lon="7.28681">
        <ele>37</ele>
        <time>2018-05-13T15:12:25.000Z</time>
      </trkpt>
      <trkpt lat="43.72397" lon="7.2871">
        <ele>37</ele>
        <time>2018-05-13T15:12:34.000Z</time>
      </trkpt>
      <trkpt lat="43.72356" lon="7.28728">
        <ele>36</ele>
        <time>2018-05-13T15:12:42.000Z</time>
      </trkpt>
      <trkpt lat="43.72326" lon="7.28737">
        <ele>36</ele>
        <time>2018-05-13T15:12:49.000Z</time>
      </trkpt>
      <trkpt lat="43.72314" lon="7.28736">
        <ele>37</ele>
        <time>2018-05-13T15:12:55.000Z</time>
      </trkpt>
      <trkpt lat="43.72304" lon="7.28734">
        <ele>37</ele>
        <time>2018-05-13T15:13:00.000Z</time>
      </trkpt>
      <trkpt lat="43.72285" lon="7.28729">
        <ele>38</ele>
        <time>2018-05-13T15:13:05.000Z</time>
      </trkpt>
      <trkpt lat="43.72254" lon="7.28721">
        <ele>38</ele>
        <time>2018-05-13T15:13:11.000Z</time>
      </trkpt>
      <trkpt lat="43.72243" lon="7.28718">
        <ele>37</ele>
        <time>2018-05-13T15:13:13.000Z</time>
      </trkpt>
      <trkpt lat="43.72217" lon="7.28707">
        <ele>37</ele>
        <time>2018-05-13T15:13:18.000Z</time>
      </trkpt>
      <trkpt lat="43.72212" lon="7.28704">
        <ele>37</ele>
        <time>2018-05-13T15:13:19.000Z</time>
      </trkpt>
      <trkpt lat="43.72193" lon="7.28692">
        <ele>36</ele>
        <time>2018-05-13T15:13:23.000Z</time>
      </trkpt>
      <trkpt lat="43.72157" lon="7.28666">
        <ele>35</ele>
        <time>2018-05-13T15:13:30.000Z</time>
      </trkpt>
      <trkpt lat="43.72131" lon="7.28637">
        <ele>34</ele>
        <time>2018-05-13T15:13:36.000Z</time>
      </trkpt>
      <trkpt lat="43.72107" lon="7.28605">
        <ele>33</ele>
        <time>2018-05-13T15:13:42.000Z</time>
      </trkpt>
      <trkpt lat="43.72092" lon="7.28583">
        <ele>33</ele>
        <time>2018-05-13T15:13:46.000Z</time>
      </trkpt>
      <trkpt lat="43.72061" lon="7.28539">
        <ele>31</ele>
        <time>2018-05-13T15:13:55.000Z</time>
      </trkpt>
      <trkpt lat="43.72052" lon="7.28527">
        <ele>31</ele>
        <time>2018-05-13T15:13:59.000Z</time>
      </trkpt>
      <trkpt lat="43.7205" lon="7.28523">
        <ele>31</ele>
        <time>2018-05-13T15:14:03.000Z</time>
      </trkpt>
      <trkpt lat="43.72051" lon="7.28521">
        <ele>31</ele>
        <time>2018-05-13T15:14:08.000Z</time>
      </trkpt>
      <trkpt lat="43.72051" lon="7.2852">
        <ele>31</ele>
        <time>2018-05-13T15:14:09.000Z</time>
      </trkpt>
      <trkpt lat="43.72052" lon="7.28517">
        <ele>31</ele>
        <time>2018-05-13T15:14:15.000Z</time>
      </trkpt>
      <trkpt lat="43.72046" lon="7.28505">
        <ele>31</ele>
        <time>2018-05-13T15:14:20.000Z</time>
      </trkpt>
      <trkpt lat="43.72034" lon="7.28489">
        <ele>33</ele>
        <time>2018-05-13T15:14:24.000Z</time>
      </trkpt>
      <trkpt lat="43.72015" lon="7.28463">
        <ele>33</ele>
        <time>2018-05-13T15:14:30.000Z</time>
      </trkpt>
      <trkpt lat="43.72012" lon="7.28458">
        <ele>33</ele>
        <time>2018-05-13T15:14:31.000Z</time>
      </trkpt>
      <trkpt lat="43.71997" lon="7.28439">
        <ele>33</ele>
        <time>2018-05-13T15:14:35.000Z</time>
      </trkpt>
      <trkpt lat="43.71993" lon="7.28434">
        <ele>33</ele>
        <time>2018-05-13T15:14:36.000Z</time>
      </trkpt>
      <trkpt lat="43.71978" lon="7.28415">
        <ele>33</ele>
        <time>2018-05-13T15:14:40.000Z</time>
      </trkpt>
      <trkpt lat="43.71975" lon="7.2841">
        <ele>33</ele>
        <time>2018-05-13T15:14:41.000Z</time>
      </trkpt>
      <trkpt lat="43.71969" lon="7.28401">
        <ele>33</ele>
        <time>2018-05-13T15:14:43.000Z</time>
      </trkpt>
      <trkpt lat="43.71961" lon="7.2839">
        <ele>32</ele>
        <time>2018-05-13T15:14:46.000Z</time>
      </trkpt>
      <trkpt lat="43.7195" lon="7.28371">
        <ele>32</ele>
        <time>2018-05-13T15:14:52.000Z</time>
      </trkpt>
      <trkpt lat="43.71943" lon="7.28358">
        <ele>32</ele>
        <time>2018-05-13T15:14:55.000Z</time>
      </trkpt>
      <trkpt lat="43.71935" lon="7.28349">
        <ele>32</ele>
        <time>2018-05-13T15:14:57.000Z</time>
      </trkpt>
      <trkpt lat="43.71911" lon="7.28318">
        <ele>30</ele>
        <time>2018-05-13T15:15:03.000Z</time>
      </trkpt>
      <trkpt lat="43.71906" lon="7.28314">
        <ele>29</ele>
        <time>2018-05-13T15:15:04.000Z</time>
      </trkpt>
      <trkpt lat="43.71881" lon="7.28281">
        <ele>28</ele>
        <time>2018-05-13T15:15:10.000Z</time>
      </trkpt>
      <trkpt lat="43.71848" lon="7.28243">
        <ele>28</ele>
        <time>2018-05-13T15:15:17.000Z</time>
      </trkpt>
      <trkpt lat="43.71833" lon="7.28228">
        <ele>27</ele>
        <time>2018-05-13T15:15:20.000Z</time>
      </trkpt>
      <trkpt lat="43.71808" lon="7.28206">
        <ele>28</ele>
        <time>2018-05-13T15:15:25.000Z</time>
      </trkpt>
      <trkpt lat="43.71773" lon="7.2818">
        <ele>28</ele>
        <time>2018-05-13T15:15:32.000Z</time>
      </trkpt>
      <trkpt lat="43.71749" lon="7.28165">
        <ele>29</ele>
        <time>2018-05-13T15:15:37.000Z</time>
      </trkpt>
      <trkpt lat="43.71736" lon="7.28157">
        <ele>29</ele>
        <time>2018-05-13T15:15:40.000Z</time>
      </trkpt>
      <trkpt lat="43.71717" lon="7.28153">
        <ele>29</ele>
        <time>2018-05-13T15:15:45.000Z</time>
      </trkpt>
      <trkpt lat="43.71697" lon="7.28145">
        <ele>29</ele>
        <time>2018-05-13T15:15:50.000Z</time>
      </trkpt>
      <trkpt lat="43.71693" lon="7.28145">
        <ele>28</ele>
        <time>2018-05-13T15:15:51.000Z</time>
      </trkpt>
      <trkpt lat="43.71678" lon="7.28137">
        <ele>28</ele>
        <time>2018-05-13T15:15:55.000Z</time>
      </trkpt>
      <trkpt lat="43.71665" lon="7.28132">
        <ele>27</ele>
        <time>2018-05-13T15:15:58.000Z</time>
      </trkpt>
      <trkpt lat="43.71651" lon="7.28128">
        <ele>27</ele>
        <time>2018-05-13T15:16:01.000Z</time>
      </trkpt>
      <trkpt lat="43.7161" lon="7.28126">
        <ele>27</ele>
        <time>2018-05-13T15:16:09.000Z</time>
      </trkpt>
      <trkpt lat="43.71589" lon="7.28128">
        <ele>26</ele>
        <time>2018-05-13T15:16:13.000Z</time>
      </trkpt>
      <trkpt lat="43.71578" lon="7.28128">
        <ele>27</ele>
        <time>2018-05-13T15:16:15.000Z</time>
      </trkpt>
      <trkpt lat="43.71573" lon="7.28129">
        <ele>27</ele>
        <time>2018-05-13T15:16:16.000Z</time>
      </trkpt>
      <trkpt lat="43.71547" lon="7.28133">
        <ele>27</ele>
        <time>2018-05-13T15:16:21.000Z</time>
      </trkpt>
      <trkpt lat="43.71539" lon="7.28132">
        <ele>27</ele>
        <time>2018-05-13T15:16:24.000Z</time>
      </trkpt>
      <trkpt lat="43.71538" lon="7.28133">
        <ele>27</ele>
        <time>2018-05-13T15:16:28.000Z</time>
      </trkpt>
      <trkpt lat="43.71539" lon="7.28135">
        <ele>27</ele>
        <time>2018-05-13T15:16:40.000Z</time>
      </trkpt>
    </trkseg>
  </trk>
</gpx>